<?xml version='1.0' encoding='UTF-8'?><gpx version="1.1" creator="JPX - https://github.com/jenetics/jpx" xmlns="http://www.topografix.com/GPX/1/1"><trk><trkseg><trkpt lat="45.6545617" lon="9.9554372"><ele>195.0</ele><time>2026-04-26T06:55:29.086Z</time></trkpt><trkpt lat="45.6545795" lon="9.9555547"><ele>195.0</ele><time>2026-04-26T06:55:31.087Z</time></trkpt><trkpt lat="45.6546077" lon="9.9556505"><ele>195.0</ele><time>2026-04-26T06:55:33.087Z</time></trkpt><trkpt lat="45.6546641" lon="9.9557198"><ele>195.0</ele><time>2026-04-26T06:55:37.087Z</time></trkpt><trkpt lat="45.6547096" lon="9.9558197"><ele>195.0</ele><time>2026-04-26T06:55:47.087Z</time></trkpt><trkpt lat="45.6547342" lon="9.9559247"><ele>195.0</ele><time>2026-04-26T06:55:49.086Z</time></trkpt><trkpt lat="45.6547549" lon="9.9560409"><ele>194.66666666666666</ele><time>2026-04-26T06:55:51.087Z</time></trkpt><trkpt lat="45.654778" lon="9.9561754"><ele>194.33333333333331</ele><time>2026-04-26T06:55:53.086Z</time></trkpt><trkpt lat="45.6548092" lon="9.956327"><ele>194.0</ele><time>2026-04-26T06:55:55.087Z</time></trkpt><trkpt lat="45.6548238" lon="9.9564177"><ele>193.66666666666666</ele><time>2026-04-26T06:55:56.087Z</time></trkpt><trkpt lat="45.6548414" lon="9.9565089"><ele>193.33333333333331</ele><time>2026-04-26T06:55:57.087Z</time></trkpt><trkpt lat="45.6548596" lon="9.9566006"><ele>193.0</ele><time>2026-04-26T06:55:58.086Z</time></trkpt><trkpt lat="45.6548808" lon="9.956691"><ele>193.00000000000003</ele><time>2026-04-26T06:55:59.087Z</time></trkpt><trkpt lat="45.6548995" lon="9.9567871"><ele>193.0</ele><time>2026-04-26T06:56:00.087Z</time></trkpt><trkpt lat="45.6549212" lon="9.9568834"><ele>193.0</ele><time>2026-04-26T06:56:01.086Z</time></trkpt><trkpt lat="45.654937" lon="9.9569836"><ele>193.0</ele><time>2026-04-26T06:56:02.087Z</time></trkpt><trkpt lat="45.6549545" lon="9.9570838"><ele>193.0</ele><time>2026-04-26T06:56:03.087Z</time></trkpt><trkpt lat="45.6549742" lon="9.9571855"><ele>193.00000000000003</ele><time>2026-04-26T06:56:04.087Z</time></trkpt><trkpt lat="45.6549963" lon="9.9572963"><ele>193.0</ele><time>2026-04-26T06:56:05.087Z</time></trkpt><trkpt lat="45.6550181" lon="9.9574122"><ele>192.4</ele><time>2026-04-26T06:56:06.087Z</time></trkpt><trkpt lat="45.6550483" lon="9.957538"><ele>191.8</ele><time>2026-04-26T06:56:07.087Z</time></trkpt><trkpt lat="45.655079" lon="9.9576794"><ele>191.2</ele><time>2026-04-26T06:56:08.087Z</time></trkpt><trkpt lat="45.655115" lon="9.9578283"><ele>190.6</ele><time>2026-04-26T06:56:09.087Z</time></trkpt><trkpt lat="45.6551585" lon="9.9579784"><ele>190.0</ele><time>2026-04-26T06:56:10.087Z</time></trkpt><trkpt lat="45.6552103" lon="9.95813"><ele>190.0</ele><time>2026-04-26T06:56:11.087Z</time></trkpt><trkpt lat="45.6552643" lon="9.9582735"><ele>190.0</ele><time>2026-04-26T06:56:12.087Z</time></trkpt><trkpt lat="45.6553223" lon="9.9584146"><ele>190.0</ele><time>2026-04-26T06:56:13.087Z</time></trkpt><trkpt lat="45.655377" lon="9.9585484"><ele>190.0</ele><time>2026-04-26T06:56:14.087Z</time></trkpt><trkpt lat="45.6554326" lon="9.9586815"><ele>190.0</ele><time>2026-04-26T06:56:15.087Z</time></trkpt><trkpt lat="45.6554925" lon="9.9588132"><ele>190.2</ele><time>2026-04-26T06:56:16.087Z</time></trkpt><trkpt lat="45.6555507" lon="9.9589409"><ele>190.4</ele><time>2026-04-26T06:56:17.086Z</time></trkpt><trkpt lat="45.6556042" lon="9.9590708"><ele>190.60000000000002</ele><time>2026-04-26T06:56:18.087Z</time></trkpt><trkpt lat="45.655653" lon="9.9591954"><ele>190.8</ele><time>2026-04-26T06:56:19.087Z</time></trkpt><trkpt lat="45.6557002" lon="9.9593104"><ele>191.0</ele><time>2026-04-26T06:56:20.087Z</time></trkpt><trkpt lat="45.6557464" lon="9.9594165"><ele>191.0</ele><time>2026-04-26T06:56:21.087Z</time></trkpt><trkpt lat="45.6557905" lon="9.9595244"><ele>191.0</ele><time>2026-04-26T06:56:22.087Z</time></trkpt><trkpt lat="45.6558391" lon="9.9596347"><ele>191.0</ele><time>2026-04-26T06:56:23.087Z</time></trkpt><trkpt lat="45.6558824" lon="9.9597411"><ele>191.0</ele><time>2026-04-26T06:56:24.087Z</time></trkpt><trkpt lat="45.655931" lon="9.9598506"><ele>191.0</ele><time>2026-04-26T06:56:25.087Z</time></trkpt><trkpt lat="45.6559828" lon="9.9599606"><ele>191.0</ele><time>2026-04-26T06:56:26.087Z</time></trkpt><trkpt lat="45.6560308" lon="9.9600779"><ele>191.20000000000002</ele><time>2026-04-26T06:56:27.087Z</time></trkpt><trkpt lat="45.6560821" lon="9.9601999"><ele>191.4</ele><time>2026-04-26T06:56:28.087Z</time></trkpt><trkpt lat="45.6561333" lon="9.9603209"><ele>191.6</ele><time>2026-04-26T06:56:29.087Z</time></trkpt><trkpt lat="45.6561857" lon="9.9604465"><ele>191.8</ele><time>2026-04-26T06:56:30.087Z</time></trkpt><trkpt lat="45.6562385" lon="9.9605776"><ele>192.0</ele><time>2026-04-26T06:56:31.086Z</time></trkpt><trkpt lat="45.6562916" lon="9.960711"><ele>192.0</ele><time>2026-04-26T06:56:32.087Z</time></trkpt><trkpt lat="45.6563522" lon="9.9608383"><ele>192.0</ele><time>2026-04-26T06:56:33.087Z</time></trkpt><trkpt lat="45.6564112" lon="9.9609683"><ele>192.0</ele><time>2026-04-26T06:56:34.087Z</time></trkpt><trkpt lat="45.6564689" lon="9.9610972"><ele>192.0</ele><time>2026-04-26T06:56:35.087Z</time></trkpt><trkpt lat="45.656527" lon="9.9612302"><ele>192.0</ele><time>2026-04-26T06:56:36.086Z</time></trkpt><trkpt lat="45.6565799" lon="9.9613606"><ele>191.5</ele><time>2026-04-26T06:56:37.087Z</time></trkpt><trkpt lat="45.6566296" lon="9.9614785"><ele>191.0</ele><time>2026-04-26T06:56:38.087Z</time></trkpt><trkpt lat="45.6566738" lon="9.9615939"><ele>190.5</ele><time>2026-04-26T06:56:39.087Z</time></trkpt><trkpt lat="45.6567163" lon="9.9617001"><ele>190.0</ele><time>2026-04-26T06:56:40.086Z</time></trkpt><trkpt lat="45.6567573" lon="9.9617957"><ele>189.5</ele><time>2026-04-26T06:56:41.087Z</time></trkpt><trkpt lat="45.6567961" lon="9.9618873"><ele>189.0</ele><time>2026-04-26T06:56:42.087Z</time></trkpt><trkpt lat="45.6568287" lon="9.9619786"><ele>189.0</ele><time>2026-04-26T06:56:43.087Z</time></trkpt><trkpt lat="45.656869" lon="9.9620572"><ele>189.0</ele><time>2026-04-26T06:56:44.087Z</time></trkpt><trkpt lat="45.6569435" lon="9.9622027"><ele>189.0</ele><time>2026-04-26T06:56:46.087Z</time></trkpt><trkpt lat="45.6569822" lon="9.9622863"><ele>189.0</ele><time>2026-04-26T06:56:47.086Z</time></trkpt><trkpt lat="45.6570201" lon="9.9623787"><ele>189.0</ele><time>2026-04-26T06:56:48.087Z</time></trkpt><trkpt lat="45.6570616" lon="9.9624838"><ele>189.0</ele><time>2026-04-26T06:56:49.087Z</time></trkpt><trkpt lat="45.6571064" lon="9.9625977"><ele>189.6</ele><time>2026-04-26T06:56:50.086Z</time></trkpt><trkpt lat="45.6571558" lon="9.9627171"><ele>190.2</ele><time>2026-04-26T06:56:51.087Z</time></trkpt><trkpt lat="45.6572076" lon="9.9628434"><ele>190.79999999999998</ele><time>2026-04-26T06:56:52.087Z</time></trkpt><trkpt lat="45.657261" lon="9.9629718"><ele>191.39999999999998</ele><time>2026-04-26T06:56:53.087Z</time></trkpt><trkpt lat="45.6573159" lon="9.9630907"><ele>192.0</ele><time>2026-04-26T06:56:54.087Z</time></trkpt><trkpt lat="45.6573626" lon="9.9632019"><ele>192.0</ele><time>2026-04-26T06:56:55.086Z</time></trkpt><trkpt lat="45.6574057" lon="9.9633118"><ele>192.0</ele><time>2026-04-26T06:56:56.087Z</time></trkpt><trkpt lat="45.6574476" lon="9.963421"><ele>192.0</ele><time>2026-04-26T06:56:57.087Z</time></trkpt><trkpt lat="45.6574945" lon="9.9635318"><ele>192.0</ele><time>2026-04-26T06:56:58.087Z</time></trkpt><trkpt lat="45.6575461" lon="9.963642"><ele>192.0</ele><time>2026-04-26T06:56:59.087Z</time></trkpt><trkpt lat="45.6575974" lon="9.9637607"><ele>191.39999999999998</ele><time>2026-04-26T06:57:00.087Z</time></trkpt><trkpt lat="45.6576529" lon="9.963881"><ele>190.79999999999998</ele><time>2026-04-26T06:57:01.086Z</time></trkpt><trkpt lat="45.6577049" lon="9.9639968"><ele>190.2</ele><time>2026-04-26T06:57:02.086Z</time></trkpt><trkpt lat="45.6577596" lon="9.9641059"><ele>189.6</ele><time>2026-04-26T06:57:03.087Z</time></trkpt><trkpt lat="45.6578092" lon="9.9642182"><ele>189.0</ele><time>2026-04-26T06:57:04.087Z</time></trkpt><trkpt lat="45.6578703" lon="9.9643172"><ele>189.0</ele><time>2026-04-26T06:57:05.086Z</time></trkpt><trkpt lat="45.6579353" lon="9.964405"><ele>189.0</ele><time>2026-04-26T06:57:06.087Z</time></trkpt><trkpt lat="45.6580028" lon="9.9644871"><ele>189.0</ele><time>2026-04-26T06:57:07.087Z</time></trkpt><trkpt lat="45.6580757" lon="9.9645533"><ele>189.0</ele><time>2026-04-26T06:57:08.086Z</time></trkpt><trkpt lat="45.6581454" lon="9.9646063"><ele>189.0</ele><time>2026-04-26T06:57:09.087Z</time></trkpt><trkpt lat="45.6582108" lon="9.9646526"><ele>189.0</ele><time>2026-04-26T06:57:10.087Z</time></trkpt><trkpt lat="45.6582713" lon="9.9646869"><ele>189.0</ele><time>2026-04-26T06:57:11.087Z</time></trkpt><trkpt lat="45.6583719" lon="9.9647349"><ele>189.0</ele><time>2026-04-26T06:57:13.087Z</time></trkpt><trkpt lat="45.6584409" lon="9.9647479"><ele>189.0</ele><time>2026-04-26T06:57:16.087Z</time></trkpt><trkpt lat="45.6585157" lon="9.9647794"><ele>189.0</ele><time>2026-04-26T06:57:20.087Z</time></trkpt><trkpt lat="45.6585754" lon="9.9648892"><ele>189.0</ele><time>2026-04-26T06:57:22.087Z</time></trkpt><trkpt lat="45.6585997" lon="9.9650441"><ele>189.0</ele><time>2026-04-26T06:57:24.087Z</time></trkpt><trkpt lat="45.6585862" lon="9.965213"><ele>189.0</ele><time>2026-04-26T06:57:26.087Z</time></trkpt><trkpt lat="45.6585641" lon="9.965301"><ele>189.0</ele><time>2026-04-26T06:57:27.086Z</time></trkpt><trkpt lat="45.6585254" lon="9.9653834"><ele>189.0</ele><time>2026-04-26T06:57:28.087Z</time></trkpt><trkpt lat="45.6584841" lon="9.9654696"><ele>189.0</ele><time>2026-04-26T06:57:29.087Z</time></trkpt><trkpt lat="45.6584339" lon="9.9655599"><ele>189.0</ele><time>2026-04-26T06:57:30.087Z</time></trkpt><trkpt lat="45.658386" lon="9.9656526"><ele>189.0</ele><time>2026-04-26T06:57:31.087Z</time></trkpt><trkpt lat="45.6583412" lon="9.9657579"><ele>189.0</ele><time>2026-04-26T06:57:32.087Z</time></trkpt><trkpt lat="45.6582885" lon="9.9658662"><ele>189.0</ele><time>2026-04-26T06:57:33.087Z</time></trkpt><trkpt lat="45.658238" lon="9.9659768"><ele>189.0</ele><time>2026-04-26T06:57:34.087Z</time></trkpt><trkpt lat="45.6581928" lon="9.9660906"><ele>189.0</ele><time>2026-04-26T06:57:35.087Z</time></trkpt><trkpt lat="45.6581503" lon="9.9662158"><ele>189.2</ele><time>2026-04-26T06:57:36.086Z</time></trkpt><trkpt lat="45.6581133" lon="9.9663515"><ele>189.39999999999998</ele><time>2026-04-26T06:57:37.086Z</time></trkpt><trkpt lat="45.6580835" lon="9.9664849"><ele>189.6</ele><time>2026-04-26T06:57:38.087Z</time></trkpt><trkpt lat="45.6580613" lon="9.966622"><ele>189.8</ele><time>2026-04-26T06:57:39.086Z</time></trkpt><trkpt lat="45.6580454" lon="9.9667452"><ele>190.0</ele><time>2026-04-26T06:57:40.087Z</time></trkpt><trkpt lat="45.6580356" lon="9.9668542"><ele>189.83333333333334</ele><time>2026-04-26T06:57:41.087Z</time></trkpt><trkpt lat="45.6580344" lon="9.9669514"><ele>189.66666666666669</ele><time>2026-04-26T06:57:42.086Z</time></trkpt><trkpt lat="45.6580332" lon="9.9670468"><ele>189.5</ele><time>2026-04-26T06:57:43.087Z</time></trkpt><trkpt lat="45.6580356" lon="9.9671444"><ele>189.33333333333334</ele><time>2026-04-26T06:57:44.087Z</time></trkpt><trkpt lat="45.6580405" lon="9.9672353"><ele>189.16666666666666</ele><time>2026-04-26T06:57:45.087Z</time></trkpt><trkpt lat="45.6580518" lon="9.9673989"><ele>189.0</ele><time>2026-04-26T06:57:47.087Z</time></trkpt><trkpt lat="45.6580689" lon="9.9675422"><ele>189.0</ele><time>2026-04-26T06:57:49.087Z</time></trkpt><trkpt lat="45.6580785" lon="9.9676488"><ele>189.0</ele><time>2026-04-26T06:57:50.087Z</time></trkpt><trkpt lat="45.6581034" lon="9.9677811"><ele>189.0</ele><time>2026-04-26T06:57:51.086Z</time></trkpt><trkpt lat="45.6581446" lon="9.9679285"><ele>189.0</ele><time>2026-04-26T06:57:52.087Z</time></trkpt><trkpt lat="45.6581919" lon="9.9680844"><ele>189.0</ele><time>2026-04-26T06:57:53.087Z</time></trkpt><trkpt lat="45.6582532" lon="9.96825"><ele>190.0</ele><time>2026-04-26T06:57:54.087Z</time></trkpt><trkpt lat="45.658337" lon="9.9684211"><ele>191.0</ele><time>2026-04-26T06:57:55.087Z</time></trkpt><trkpt lat="45.6584371" lon="9.9685975"><ele>192.0</ele><time>2026-04-26T06:57:56.087Z</time></trkpt><trkpt lat="45.6585596" lon="9.9687855"><ele>191.33333333333334</ele><time>2026-04-26T06:57:57.087Z</time></trkpt><trkpt lat="45.6586882" lon="9.968967"><ele>190.66666666666669</ele><time>2026-04-26T06:57:58.086Z</time></trkpt><trkpt lat="45.6588146" lon="9.9691393"><ele>190.0</ele><time>2026-04-26T06:57:59.087Z</time></trkpt><trkpt lat="45.6589421" lon="9.9693092"><ele>191.33333333333334</ele><time>2026-04-26T06:58:00.087Z</time></trkpt><trkpt lat="45.6590684" lon="9.9694794"><ele>192.66666666666669</ele><time>2026-04-26T06:58:01.087Z</time></trkpt><trkpt lat="45.6591928" lon="9.9696467"><ele>194.0</ele><time>2026-04-26T06:58:02.087Z</time></trkpt><trkpt lat="45.6593142" lon="9.9698165"><ele>194.0</ele><time>2026-04-26T06:58:03.087Z</time></trkpt><trkpt lat="45.6594335" lon="9.9699807"><ele>194.0</ele><time>2026-04-26T06:58:04.087Z</time></trkpt><trkpt lat="45.6595525" lon="9.9701438"><ele>194.0</ele><time>2026-04-26T06:58:05.087Z</time></trkpt><trkpt lat="45.6596755" lon="9.9703109"><ele>192.66666666666669</ele><time>2026-04-26T06:58:06.087Z</time></trkpt><trkpt lat="45.6597966" lon="9.9704815"><ele>191.33333333333334</ele><time>2026-04-26T06:58:07.087Z</time></trkpt><trkpt lat="45.6599182" lon="9.970653"><ele>190.0</ele><time>2026-04-26T06:58:08.087Z</time></trkpt><trkpt lat="45.6600403" lon="9.9708208"><ele>190.66666666666669</ele><time>2026-04-26T06:58:09.087Z</time></trkpt><trkpt lat="45.6601589" lon="9.9709896"><ele>191.33333333333334</ele><time>2026-04-26T06:58:10.086Z</time></trkpt><trkpt lat="45.660277" lon="9.9711563"><ele>192.0</ele><time>2026-04-26T06:58:11.087Z</time></trkpt><trkpt lat="45.6603915" lon="9.9713213"><ele>191.0</ele><time>2026-04-26T06:58:12.087Z</time></trkpt><trkpt lat="45.6605043" lon="9.971483"><ele>190.0</ele><time>2026-04-26T06:58:13.087Z</time></trkpt><trkpt lat="45.6606148" lon="9.9716379"><ele>189.0</ele><time>2026-04-26T06:58:14.087Z</time></trkpt><trkpt lat="45.6607156" lon="9.9717969"><ele>189.0</ele><time>2026-04-26T06:58:15.087Z</time></trkpt><trkpt lat="45.6608059" lon="9.9719533"><ele>189.0</ele><time>2026-04-26T06:58:16.087Z</time></trkpt><trkpt lat="45.6608879" lon="9.9721067"><ele>189.0</ele><time>2026-04-26T06:58:17.086Z</time></trkpt><trkpt lat="45.6609597" lon="9.9722597"><ele>189.0</ele><time>2026-04-26T06:58:18.087Z</time></trkpt><trkpt lat="45.6610291" lon="9.972418"><ele>189.75</ele><time>2026-04-26T06:58:19.087Z</time></trkpt><trkpt lat="45.6610835" lon="9.972588"><ele>190.5</ele><time>2026-04-26T06:58:20.087Z</time></trkpt><trkpt lat="45.6611368" lon="9.9727639"><ele>191.25</ele><time>2026-04-26T06:58:21.087Z</time></trkpt><trkpt lat="45.6611814" lon="9.9729452"><ele>192.0</ele><time>2026-04-26T06:58:22.087Z</time></trkpt><trkpt lat="45.6612309" lon="9.9731287"><ele>190.75</ele><time>2026-04-26T06:58:23.087Z</time></trkpt><trkpt lat="45.6612828" lon="9.9733178"><ele>189.5</ele><time>2026-04-26T06:58:24.087Z</time></trkpt><trkpt lat="45.6613347" lon="9.9735095"><ele>188.25</ele><time>2026-04-26T06:58:25.087Z</time></trkpt><trkpt lat="45.6613853" lon="9.9736994"><ele>187.0</ele><time>2026-04-26T06:58:26.087Z</time></trkpt><trkpt lat="45.6614324" lon="9.9738848"><ele>187.0</ele><time>2026-04-26T06:58:27.087Z</time></trkpt><trkpt lat="45.6614771" lon="9.9740607"><ele>187.0</ele><time>2026-04-26T06:58:28.087Z</time></trkpt><trkpt lat="45.6615207" lon="9.9742231"><ele>187.0</ele><time>2026-04-26T06:58:29.086Z</time></trkpt><trkpt lat="45.6615622" lon="9.974384"><ele>187.0</ele><time>2026-04-26T06:58:30.087Z</time></trkpt><trkpt lat="45.6616053" lon="9.9745465"><ele>188.0</ele><time>2026-04-26T06:58:31.087Z</time></trkpt><trkpt lat="45.6616502" lon="9.9747149"><ele>189.0</ele><time>2026-04-26T06:58:32.087Z</time></trkpt><trkpt lat="45.6616909" lon="9.9748872"><ele>190.0</ele><time>2026-04-26T06:58:33.087Z</time></trkpt><trkpt lat="45.6617358" lon="9.9750639"><ele>191.0</ele><time>2026-04-26T06:58:34.086Z</time></trkpt><trkpt lat="45.661782" lon="9.9752348"><ele>191.75</ele><time>2026-04-26T06:58:35.087Z</time></trkpt><trkpt lat="45.6618301" lon="9.9753987"><ele>192.5</ele><time>2026-04-26T06:58:36.087Z</time></trkpt><trkpt lat="45.6618778" lon="9.9755534"><ele>193.25</ele><time>2026-04-26T06:58:37.087Z</time></trkpt><trkpt lat="45.6619186" lon="9.9757031"><ele>194.0</ele><time>2026-04-26T06:58:38.087Z</time></trkpt><trkpt lat="45.6619552" lon="9.9758487"><ele>191.75</ele><time>2026-04-26T06:58:39.087Z</time></trkpt><trkpt lat="45.6619958" lon="9.9760039"><ele>189.5</ele><time>2026-04-26T06:58:40.087Z</time></trkpt><trkpt lat="45.6620379" lon="9.9761608"><ele>187.25</ele><time>2026-04-26T06:58:41.087Z</time></trkpt><trkpt lat="45.6620872" lon="9.9763235"><ele>185.0</ele><time>2026-04-26T06:58:42.087Z</time></trkpt><trkpt lat="45.6621342" lon="9.9764924"><ele>185.0</ele><time>2026-04-26T06:58:43.087Z</time></trkpt><trkpt lat="45.6621842" lon="9.9766693"><ele>185.0</ele><time>2026-04-26T06:58:44.087Z</time></trkpt><trkpt lat="45.6622338" lon="9.9768467"><ele>185.0</ele><time>2026-04-26T06:58:45.087Z</time></trkpt><trkpt lat="45.662289" lon="9.9770306"><ele>185.0</ele><time>2026-04-26T06:58:46.087Z</time></trkpt><trkpt lat="45.6623496" lon="9.9772132"><ele>186.5</ele><time>2026-04-26T06:58:47.087Z</time></trkpt><trkpt lat="45.6624097" lon="9.9773969"><ele>188.0</ele><time>2026-04-26T06:58:48.087Z</time></trkpt><trkpt lat="45.6624722" lon="9.9775801"><ele>189.5</ele><time>2026-04-26T06:58:49.086Z</time></trkpt><trkpt lat="45.6625347" lon="9.9777606"><ele>191.0</ele><time>2026-04-26T06:58:50.086Z</time></trkpt><trkpt lat="45.6625947" lon="9.9779435"><ele>190.25</ele><time>2026-04-26T06:58:51.087Z</time></trkpt><trkpt lat="45.6626559" lon="9.978127"><ele>189.5</ele><time>2026-04-26T06:58:52.087Z</time></trkpt><trkpt lat="45.6627196" lon="9.9783068"><ele>188.75</ele><time>2026-04-26T06:58:53.087Z</time></trkpt><trkpt lat="45.6627862" lon="9.9784856"><ele>188.0</ele><time>2026-04-26T06:58:54.086Z</time></trkpt><trkpt lat="45.6628503" lon="9.9786696"><ele>188.0</ele><time>2026-04-26T06:58:55.087Z</time></trkpt><trkpt lat="45.6629158" lon="9.9788411"><ele>188.0</ele><time>2026-04-26T06:58:56.087Z</time></trkpt><trkpt lat="45.6629763" lon="9.9790097"><ele>188.0</ele><time>2026-04-26T06:58:57.087Z</time></trkpt><trkpt lat="45.6630367" lon="9.9791789"><ele>188.0</ele><time>2026-04-26T06:58:58.087Z</time></trkpt><trkpt lat="45.6630961" lon="9.9793571"><ele>188.5</ele><time>2026-04-26T06:58:59.087Z</time></trkpt><trkpt lat="45.6631585" lon="9.9795312"><ele>189.0</ele><time>2026-04-26T06:59:00.087Z</time></trkpt><trkpt lat="45.6632235" lon="9.9797058"><ele>189.5</ele><time>2026-04-26T06:59:01.087Z</time></trkpt><trkpt lat="45.6632845" lon="9.9798791"><ele>190.0</ele><time>2026-04-26T06:59:02.087Z</time></trkpt><trkpt lat="45.6633448" lon="9.9800503"><ele>190.75</ele><time>2026-04-26T06:59:03.087Z</time></trkpt><trkpt lat="45.6634037" lon="9.9802101"><ele>191.5</ele><time>2026-04-26T06:59:04.087Z</time></trkpt><trkpt lat="45.6634612" lon="9.9803641"><ele>192.25</ele><time>2026-04-26T06:59:05.087Z</time></trkpt><trkpt lat="45.6635123" lon="9.9805174"><ele>193.0</ele><time>2026-04-26T06:59:06.087Z</time></trkpt><trkpt lat="45.6635622" lon="9.980666"><ele>193.0</ele><time>2026-04-26T06:59:07.087Z</time></trkpt><trkpt lat="45.6636059" lon="9.9807988"><ele>193.0</ele><time>2026-04-26T06:59:08.087Z</time></trkpt><trkpt lat="45.663635" lon="9.980935"><ele>193.0</ele><time>2026-04-26T06:59:09.086Z</time></trkpt><trkpt lat="45.663652" lon="9.9810593"><ele>193.0</ele><time>2026-04-26T06:59:10.087Z</time></trkpt><trkpt lat="45.6636511" lon="9.9811774"><ele>193.0</ele><time>2026-04-26T06:59:11.087Z</time></trkpt><trkpt lat="45.6636328" lon="9.9812848"><ele>193.49999999999997</ele><time>2026-04-26T06:59:12.087Z</time></trkpt><trkpt lat="45.6635939" lon="9.9813839"><ele>194.0</ele><time>2026-04-26T06:59:13.086Z</time></trkpt><trkpt lat="45.6635638" lon="9.9814818"><ele>194.5</ele><time>2026-04-26T06:59:14.087Z</time></trkpt><trkpt lat="45.6635801" lon="9.9815967"><ele>195.0</ele><time>2026-04-26T06:59:15.087Z</time></trkpt><trkpt lat="45.6636237" lon="9.981682"><ele>195.49999999999997</ele><time>2026-04-26T06:59:16.087Z</time></trkpt><trkpt lat="45.6636972" lon="9.9817425"><ele>196.0</ele><time>2026-04-26T06:59:17.087Z</time></trkpt><trkpt lat="45.6637879" lon="9.9818254"><ele>194.0</ele><time>2026-04-26T06:59:18.086Z</time></trkpt><trkpt lat="45.6638702" lon="9.9819369"><ele>192.0</ele><time>2026-04-26T06:59:19.087Z</time></trkpt><trkpt lat="45.6639322" lon="9.9820877"><ele>190.0</ele><time>2026-04-26T06:59:20.087Z</time></trkpt><trkpt lat="45.663976" lon="9.9822673"><ele>188.0</ele><time>2026-04-26T06:59:21.087Z</time></trkpt><trkpt lat="45.6640047" lon="9.9824549"><ele>188.4</ele><time>2026-04-26T06:59:22.087Z</time></trkpt><trkpt lat="45.6640355" lon="9.9826369"><ele>188.8</ele><time>2026-04-26T06:59:23.087Z</time></trkpt><trkpt lat="45.6640643" lon="9.9827938"><ele>189.2</ele><time>2026-04-26T06:59:24.087Z</time></trkpt><trkpt lat="45.6640854" lon="9.9829378"><ele>189.6</ele><time>2026-04-26T06:59:25.087Z</time></trkpt><trkpt lat="45.6641068" lon="9.9830512"><ele>190.0</ele><time>2026-04-26T06:59:26.087Z</time></trkpt><trkpt lat="45.6641268" lon="9.983155"><ele>190.0</ele><time>2026-04-26T06:59:27.087Z</time></trkpt><trkpt lat="45.6641447" lon="9.9832501"><ele>190.0</ele><time>2026-04-26T06:59:28.087Z</time></trkpt><trkpt lat="45.6641606" lon="9.9833388"><ele>190.0</ele><time>2026-04-26T06:59:29.087Z</time></trkpt><trkpt lat="45.6641805" lon="9.9834335"><ele>190.0</ele><time>2026-04-26T06:59:30.087Z</time></trkpt><trkpt lat="45.6641988" lon="9.9835312"><ele>190.0</ele><time>2026-04-26T06:59:31.086Z</time></trkpt><trkpt lat="45.664219" lon="9.9836376"><ele>190.0</ele><time>2026-04-26T06:59:32.087Z</time></trkpt><trkpt lat="45.6642404" lon="9.9837492"><ele>190.0</ele><time>2026-04-26T06:59:33.087Z</time></trkpt><trkpt lat="45.6642619" lon="9.9838658"><ele>190.4</ele><time>2026-04-26T06:59:34.087Z</time></trkpt><trkpt lat="45.664285" lon="9.9839879"><ele>190.8</ele><time>2026-04-26T06:59:35.087Z</time></trkpt><trkpt lat="45.6643067" lon="9.9841151"><ele>191.2</ele><time>2026-04-26T06:59:36.087Z</time></trkpt><trkpt lat="45.6643264" lon="9.9842422"><ele>191.6</ele><time>2026-04-26T06:59:37.087Z</time></trkpt><trkpt lat="45.664349" lon="9.984379"><ele>192.0</ele><time>2026-04-26T06:59:38.086Z</time></trkpt><trkpt lat="45.6643777" lon="9.9845209"><ele>191.39999999999998</ele><time>2026-04-26T06:59:39.087Z</time></trkpt><trkpt lat="45.6644047" lon="9.9846646"><ele>190.79999999999998</ele><time>2026-04-26T06:59:40.087Z</time></trkpt><trkpt lat="45.664432" lon="9.984813"><ele>190.2</ele><time>2026-04-26T06:59:41.087Z</time></trkpt><trkpt lat="45.6644588" lon="9.9849653"><ele>189.6</ele><time>2026-04-26T06:59:42.086Z</time></trkpt><trkpt lat="45.6644822" lon="9.9851264"><ele>189.0</ele><time>2026-04-26T06:59:43.086Z</time></trkpt><trkpt lat="45.6645085" lon="9.9852986"><ele>189.0</ele><time>2026-04-26T06:59:44.087Z</time></trkpt><trkpt lat="45.6645433" lon="9.9854816"><ele>189.0</ele><time>2026-04-26T06:59:45.086Z</time></trkpt><trkpt lat="45.6645775" lon="9.9856739"><ele>189.0</ele><time>2026-04-26T06:59:46.087Z</time></trkpt><trkpt lat="45.6646107" lon="9.9858649"><ele>189.0</ele><time>2026-04-26T06:59:47.087Z</time></trkpt><trkpt lat="45.6646388" lon="9.9860647"><ele>189.0</ele><time>2026-04-26T06:59:48.087Z</time></trkpt><trkpt lat="45.6646694" lon="9.9862643"><ele>189.0</ele><time>2026-04-26T06:59:49.087Z</time></trkpt><trkpt lat="45.664707" lon="9.986469"><ele>189.0</ele><time>2026-04-26T06:59:50.087Z</time></trkpt><trkpt lat="45.6647447" lon="9.9866769"><ele>189.0</ele><time>2026-04-26T06:59:51.086Z</time></trkpt><trkpt lat="45.6647834" lon="9.9868811"><ele>188.75</ele><time>2026-04-26T06:59:52.087Z</time></trkpt><trkpt lat="45.6648181" lon="9.9870811"><ele>188.5</ele><time>2026-04-26T06:59:53.087Z</time></trkpt><trkpt lat="45.6648508" lon="9.9872773"><ele>188.25</ele><time>2026-04-26T06:59:54.087Z</time></trkpt><trkpt lat="45.6648845" lon="9.9874693"><ele>188.0</ele><time>2026-04-26T06:59:55.087Z</time></trkpt><trkpt lat="45.6649176" lon="9.9876572"><ele>188.5</ele><time>2026-04-26T06:59:56.087Z</time></trkpt><trkpt lat="45.6649509" lon="9.9878382"><ele>189.0</ele><time>2026-04-26T06:59:57.087Z</time></trkpt><trkpt lat="45.6649822" lon="9.9880237"><ele>189.5</ele><time>2026-04-26T06:59:58.087Z</time></trkpt><trkpt lat="45.6650174" lon="9.988204"><ele>190.0</ele><time>2026-04-26T06:59:59.087Z</time></trkpt><trkpt lat="45.6650451" lon="9.9883852"><ele>190.0</ele><time>2026-04-26T07:00:00.087Z</time></trkpt><trkpt lat="45.6650741" lon="9.9885569"><ele>190.0</ele><time>2026-04-26T07:00:01.087Z</time></trkpt><trkpt lat="45.6651024" lon="9.9887211"><ele>190.0</ele><time>2026-04-26T07:00:02.087Z</time></trkpt><trkpt lat="45.6651306" lon="9.9888843"><ele>190.0</ele><time>2026-04-26T07:00:03.087Z</time></trkpt><trkpt lat="45.6651689" lon="9.9890572"><ele>189.25</ele><time>2026-04-26T07:00:04.087Z</time></trkpt><trkpt lat="45.6652034" lon="9.9892408"><ele>188.5</ele><time>2026-04-26T07:00:05.087Z</time></trkpt><trkpt lat="45.6652359" lon="9.9894315"><ele>187.75</ele><time>2026-04-26T07:00:06.087Z</time></trkpt><trkpt lat="45.665273" lon="9.9896257"><ele>187.0</ele><time>2026-04-26T07:00:07.087Z</time></trkpt><trkpt lat="45.6653077" lon="9.9898175"><ele>187.5</ele><time>2026-04-26T07:00:08.087Z</time></trkpt><trkpt lat="45.6653433" lon="9.9900118"><ele>188.0</ele><time>2026-04-26T07:00:09.086Z</time></trkpt><trkpt lat="45.6653781" lon="9.990207"><ele>188.5</ele><time>2026-04-26T07:00:10.087Z</time></trkpt><trkpt lat="45.6654044" lon="9.9904041"><ele>189.0</ele><time>2026-04-26T07:00:11.086Z</time></trkpt><trkpt lat="45.6654231" lon="9.9906046"><ele>189.0</ele><time>2026-04-26T07:00:12.087Z</time></trkpt><trkpt lat="45.6654387" lon="9.9908015"><ele>189.0</ele><time>2026-04-26T07:00:13.086Z</time></trkpt><trkpt lat="45.6654439" lon="9.9910005"><ele>189.0</ele><time>2026-04-26T07:00:14.087Z</time></trkpt><trkpt lat="45.6654393" lon="9.9911947"><ele>189.0</ele><time>2026-04-26T07:00:15.087Z</time></trkpt><trkpt lat="45.6654232" lon="9.9913872"><ele>188.5</ele><time>2026-04-26T07:00:16.086Z</time></trkpt><trkpt lat="45.6654035" lon="9.9915772"><ele>188.0</ele><time>2026-04-26T07:00:17.087Z</time></trkpt><trkpt lat="45.6653839" lon="9.9917685"><ele>187.5</ele><time>2026-04-26T07:00:18.086Z</time></trkpt><trkpt lat="45.665362" lon="9.9919638"><ele>187.0</ele><time>2026-04-26T07:00:19.087Z</time></trkpt><trkpt lat="45.6653353" lon="9.9921573"><ele>186.75</ele><time>2026-04-26T07:00:20.087Z</time></trkpt><trkpt lat="45.6653075" lon="9.992353"><ele>186.5</ele><time>2026-04-26T07:00:21.087Z</time></trkpt><trkpt lat="45.6652782" lon="9.9925485"><ele>186.25</ele><time>2026-04-26T07:00:22.087Z</time></trkpt><trkpt lat="45.6652518" lon="9.992747"><ele>186.0</ele><time>2026-04-26T07:00:23.087Z</time></trkpt><trkpt lat="45.6652275" lon="9.9929505"><ele>187.75</ele><time>2026-04-26T07:00:24.087Z</time></trkpt><trkpt lat="45.665204" lon="9.9931517"><ele>189.5</ele><time>2026-04-26T07:00:25.087Z</time></trkpt><trkpt lat="45.6651767" lon="9.9933551"><ele>191.25</ele><time>2026-04-26T07:00:26.087Z</time></trkpt><trkpt lat="45.6651524" lon="9.9935632"><ele>193.0</ele><time>2026-04-26T07:00:27.087Z</time></trkpt><trkpt lat="45.6651219" lon="9.9937696"><ele>193.0</ele><time>2026-04-26T07:00:28.087Z</time></trkpt><trkpt lat="45.6650949" lon="9.9939814"><ele>193.0</ele><time>2026-04-26T07:00:29.087Z</time></trkpt><trkpt lat="45.6650707" lon="9.9941905"><ele>193.0</ele><time>2026-04-26T07:00:30.086Z</time></trkpt><trkpt lat="45.6650419" lon="9.9944011"><ele>193.0</ele><time>2026-04-26T07:00:31.086Z</time></trkpt><trkpt lat="45.6650124" lon="9.9946116"><ele>192.33333333333331</ele><time>2026-04-26T07:00:32.086Z</time></trkpt><trkpt lat="45.6649822" lon="9.9948234"><ele>191.66666666666666</ele><time>2026-04-26T07:00:33.087Z</time></trkpt><trkpt lat="45.6649494" lon="9.9950391"><ele>191.0</ele><time>2026-04-26T07:00:34.087Z</time></trkpt><trkpt lat="45.6649255" lon="9.9952489"><ele>190.66666666666666</ele><time>2026-04-26T07:00:35.087Z</time></trkpt><trkpt lat="45.6648994" lon="9.995462"><ele>190.33333333333334</ele><time>2026-04-26T07:00:36.087Z</time></trkpt><trkpt lat="45.6648704" lon="9.9956755"><ele>190.0</ele><time>2026-04-26T07:00:37.087Z</time></trkpt><trkpt lat="45.66484" lon="9.9958872"><ele>189.33333333333334</ele><time>2026-04-26T07:00:38.087Z</time></trkpt><trkpt lat="45.6648138" lon="9.9961007"><ele>188.66666666666666</ele><time>2026-04-26T07:00:39.087Z</time></trkpt><trkpt lat="45.6647807" lon="9.9963186"><ele>188.0</ele><time>2026-04-26T07:00:40.086Z</time></trkpt><trkpt lat="45.6647478" lon="9.9965353"><ele>187.66666666666666</ele><time>2026-04-26T07:00:41.087Z</time></trkpt><trkpt lat="45.6647033" lon="9.9967537"><ele>187.33333333333334</ele><time>2026-04-26T07:00:42.087Z</time></trkpt><trkpt lat="45.6646484" lon="9.9969667"><ele>187.0</ele><time>2026-04-26T07:00:43.087Z</time></trkpt><trkpt lat="45.6645841" lon="9.9971666"><ele>187.0</ele><time>2026-04-26T07:00:44.087Z</time></trkpt><trkpt lat="45.66451" lon="9.9973606"><ele>187.0</ele><time>2026-04-26T07:00:45.087Z</time></trkpt><trkpt lat="45.6644254" lon="9.9975454"><ele>187.0</ele><time>2026-04-26T07:00:46.087Z</time></trkpt><trkpt lat="45.6643341" lon="9.9977193"><ele>187.25</ele><time>2026-04-26T07:00:47.086Z</time></trkpt><trkpt lat="45.664238" lon="9.997887"><ele>187.5</ele><time>2026-04-26T07:00:48.087Z</time></trkpt><trkpt lat="45.6641341" lon="9.9980404"><ele>187.75</ele><time>2026-04-26T07:00:49.087Z</time></trkpt><trkpt lat="45.6640248" lon="9.9981828"><ele>188.0</ele><time>2026-04-26T07:00:50.086Z</time></trkpt><trkpt lat="45.6639168" lon="9.998315"><ele>187.75</ele><time>2026-04-26T07:00:51.087Z</time></trkpt><trkpt lat="45.6638047" lon="9.9984417"><ele>187.5</ele><time>2026-04-26T07:00:52.087Z</time></trkpt><trkpt lat="45.6636924" lon="9.9985646"><ele>187.25</ele><time>2026-04-26T07:00:53.087Z</time></trkpt><trkpt lat="45.6635752" lon="9.9986885"><ele>187.0</ele><time>2026-04-26T07:00:54.086Z</time></trkpt><trkpt lat="45.6634604" lon="9.9988076"><ele>187.5</ele><time>2026-04-26T07:00:55.087Z</time></trkpt><trkpt lat="45.6633453" lon="9.9989293"><ele>188.0</ele><time>2026-04-26T07:00:56.086Z</time></trkpt><trkpt lat="45.6632278" lon="9.9990568"><ele>188.5</ele><time>2026-04-26T07:00:57.086Z</time></trkpt><trkpt lat="45.66311" lon="9.9991818"><ele>189.0</ele><time>2026-04-26T07:00:58.087Z</time></trkpt><trkpt lat="45.6629908" lon="9.9993048"><ele>189.25</ele><time>2026-04-26T07:00:59.087Z</time></trkpt><trkpt lat="45.6628705" lon="9.9994321"><ele>189.5</ele><time>2026-04-26T07:01:00.087Z</time></trkpt><trkpt lat="45.6627493" lon="9.9995558"><ele>189.75</ele><time>2026-04-26T07:01:01.087Z</time></trkpt><trkpt lat="45.6626346" lon="9.9996905"><ele>190.0</ele><time>2026-04-26T07:01:02.087Z</time></trkpt><trkpt lat="45.6625166" lon="9.999815"><ele>190.5</ele><time>2026-04-26T07:01:03.087Z</time></trkpt><trkpt lat="45.6623961" lon="9.9999364"><ele>191.0</ele><time>2026-04-26T07:01:04.087Z</time></trkpt><trkpt lat="45.6622765" lon="10.0000609"><ele>191.5</ele><time>2026-04-26T07:01:05.086Z</time></trkpt><trkpt lat="45.6621612" lon="10.0001862"><ele>192.0</ele><time>2026-04-26T07:01:06.087Z</time></trkpt><trkpt lat="45.6620529" lon="10.0003044"><ele>192.0</ele><time>2026-04-26T07:01:07.087Z</time></trkpt><trkpt lat="45.6619512" lon="10.0004093"><ele>192.0</ele><time>2026-04-26T07:01:08.087Z</time></trkpt><trkpt lat="45.6618616" lon="10.0005078"><ele>192.0</ele><time>2026-04-26T07:01:09.087Z</time></trkpt><trkpt lat="45.661781" lon="10.0005949"><ele>192.0</ele><time>2026-04-26T07:01:10.087Z</time></trkpt><trkpt lat="45.6617073" lon="10.0006736"><ele>192.0</ele><time>2026-04-26T07:01:11.087Z</time></trkpt><trkpt lat="45.6616376" lon="10.0007466"><ele>192.5</ele><time>2026-04-26T07:01:12.087Z</time></trkpt><trkpt lat="45.6615765" lon="10.000822"><ele>193.0</ele><time>2026-04-26T07:01:13.087Z</time></trkpt><trkpt lat="45.6615212" lon="10.0008891"><ele>193.5</ele><time>2026-04-26T07:01:14.087Z</time></trkpt><trkpt lat="45.6614392" lon="10.0009913"><ele>194.0</ele><time>2026-04-26T07:01:16.087Z</time></trkpt><trkpt lat="45.6613891" lon="10.0010695"><ele>194.5</ele><time>2026-04-26T07:01:18.086Z</time></trkpt><trkpt lat="45.6613299" lon="10.0011815"><ele>195.0</ele><time>2026-04-26T07:01:21.087Z</time></trkpt><trkpt lat="45.6612815" lon="10.0012653"><ele>195.0</ele><time>2026-04-26T07:01:24.087Z</time></trkpt><trkpt lat="45.6611949" lon="10.0014"><ele>195.0</ele><time>2026-04-26T07:01:33.087Z</time></trkpt><trkpt lat="45.6611438" lon="10.0014725"><ele>195.0</ele><time>2026-04-26T07:01:34.087Z</time></trkpt><trkpt lat="45.6610904" lon="10.0015574"><ele>195.0</ele><time>2026-04-26T07:01:35.087Z</time></trkpt><trkpt lat="45.6610263" lon="10.0016656"><ele>195.0</ele><time>2026-04-26T07:01:36.087Z</time></trkpt><trkpt lat="45.6609532" lon="10.0017908"><ele>194.75</ele><time>2026-04-26T07:01:37.087Z</time></trkpt><trkpt lat="45.6608773" lon="10.0019272"><ele>194.5</ele><time>2026-04-26T07:01:38.086Z</time></trkpt><trkpt lat="45.6607939" lon="10.0020757"><ele>194.25</ele><time>2026-04-26T07:01:39.087Z</time></trkpt><trkpt lat="45.660707" lon="10.00223"><ele>194.0</ele><time>2026-04-26T07:01:40.087Z</time></trkpt><trkpt lat="45.6606144" lon="10.0023876"><ele>194.0</ele><time>2026-04-26T07:01:41.087Z</time></trkpt><trkpt lat="45.6605207" lon="10.0025383"><ele>194.0</ele><time>2026-04-26T07:01:42.087Z</time></trkpt><trkpt lat="45.6604301" lon="10.0026838"><ele>194.0</ele><time>2026-04-26T07:01:43.087Z</time></trkpt><trkpt lat="45.6603389" lon="10.0028234"><ele>194.0</ele><time>2026-04-26T07:01:44.087Z</time></trkpt><trkpt lat="45.660253" lon="10.0029482"><ele>194.25</ele><time>2026-04-26T07:01:45.087Z</time></trkpt><trkpt lat="45.6601644" lon="10.0030651"><ele>194.5</ele><time>2026-04-26T07:01:46.087Z</time></trkpt><trkpt lat="45.6600789" lon="10.0031792"><ele>194.75</ele><time>2026-04-26T07:01:47.087Z</time></trkpt><trkpt lat="45.6599938" lon="10.0032861"><ele>195.0</ele><time>2026-04-26T07:01:48.087Z</time></trkpt><trkpt lat="45.6599088" lon="10.0034007"><ele>194.25</ele><time>2026-04-26T07:01:49.087Z</time></trkpt><trkpt lat="45.6598193" lon="10.0035122"><ele>193.5</ele><time>2026-04-26T07:01:50.087Z</time></trkpt><trkpt lat="45.659723" lon="10.0036321"><ele>192.75</ele><time>2026-04-26T07:01:51.087Z</time></trkpt><trkpt lat="45.6596242" lon="10.0037539"><ele>192.0</ele><time>2026-04-26T07:01:52.087Z</time></trkpt><trkpt lat="45.65952" lon="10.0038731"><ele>192.0</ele><time>2026-04-26T07:01:53.087Z</time></trkpt><trkpt lat="45.6594176" lon="10.0039974"><ele>192.0</ele><time>2026-04-26T07:01:54.087Z</time></trkpt><trkpt lat="45.6593198" lon="10.00412"><ele>192.0</ele><time>2026-04-26T07:01:55.087Z</time></trkpt><trkpt lat="45.6592197" lon="10.0042422"><ele>192.0</ele><time>2026-04-26T07:01:56.086Z</time></trkpt><trkpt lat="45.6591241" lon="10.0043718"><ele>191.75</ele><time>2026-04-26T07:01:57.087Z</time></trkpt><trkpt lat="45.6590318" lon="10.0045112"><ele>191.5</ele><time>2026-04-26T07:01:58.087Z</time></trkpt><trkpt lat="45.6589398" lon="10.004654"><ele>191.25</ele><time>2026-04-26T07:01:59.087Z</time></trkpt><trkpt lat="45.6588513" lon="10.0048035"><ele>191.0</ele><time>2026-04-26T07:02:00.087Z</time></trkpt><trkpt lat="45.6587708" lon="10.0049573"><ele>191.0</ele><time>2026-04-26T07:02:01.087Z</time></trkpt><trkpt lat="45.6586945" lon="10.0051101"><ele>191.0</ele><time>2026-04-26T07:02:02.087Z</time></trkpt><trkpt lat="45.6586219" lon="10.0052646"><ele>191.0</ele><time>2026-04-26T07:02:03.087Z</time></trkpt><trkpt lat="45.6585544" lon="10.0054141"><ele>191.0</ele><time>2026-04-26T07:02:04.087Z</time></trkpt><trkpt lat="45.6584867" lon="10.0055617"><ele>191.0</ele><time>2026-04-26T07:02:05.087Z</time></trkpt><trkpt lat="45.6584199" lon="10.0057076"><ele>191.0</ele><time>2026-04-26T07:02:06.087Z</time></trkpt><trkpt lat="45.6583524" lon="10.0058532"><ele>191.0</ele><time>2026-04-26T07:02:07.086Z</time></trkpt><trkpt lat="45.6582859" lon="10.0059982"><ele>191.0</ele><time>2026-04-26T07:02:08.087Z</time></trkpt><trkpt lat="45.6582195" lon="10.006145"><ele>191.25</ele><time>2026-04-26T07:02:09.087Z</time></trkpt><trkpt lat="45.6581552" lon="10.0062864"><ele>191.5</ele><time>2026-04-26T07:02:10.087Z</time></trkpt><trkpt lat="45.6580901" lon="10.0064305"><ele>191.75</ele><time>2026-04-26T07:02:11.086Z</time></trkpt><trkpt lat="45.6580234" lon="10.0065714"><ele>192.0</ele><time>2026-04-26T07:02:12.087Z</time></trkpt><trkpt lat="45.6579543" lon="10.0067187"><ele>191.75</ele><time>2026-04-26T07:02:13.087Z</time></trkpt><trkpt lat="45.6578841" lon="10.0068594"><ele>191.5</ele><time>2026-04-26T07:02:14.087Z</time></trkpt><trkpt lat="45.6578058" lon="10.0070041"><ele>191.25</ele><time>2026-04-26T07:02:15.087Z</time></trkpt><trkpt lat="45.6577203" lon="10.0071481"><ele>191.0</ele><time>2026-04-26T07:02:16.087Z</time></trkpt><trkpt lat="45.6576297" lon="10.007289"><ele>191.0</ele><time>2026-04-26T07:02:17.087Z</time></trkpt><trkpt lat="45.6575317" lon="10.0074234"><ele>191.0</ele><time>2026-04-26T07:02:18.087Z</time></trkpt><trkpt lat="45.6574296" lon="10.0075463"><ele>191.0</ele><time>2026-04-26T07:02:19.087Z</time></trkpt><trkpt lat="45.6573225" lon="10.0076583"><ele>191.0</ele><time>2026-04-26T07:02:20.087Z</time></trkpt><trkpt lat="45.6572115" lon="10.0077675"><ele>191.5</ele><time>2026-04-26T07:02:21.086Z</time></trkpt><trkpt lat="45.6570959" lon="10.0078693"><ele>192.0</ele><time>2026-04-26T07:02:22.087Z</time></trkpt><trkpt lat="45.6569789" lon="10.0079691"><ele>192.5</ele><time>2026-04-26T07:02:23.087Z</time></trkpt><trkpt lat="45.6568618" lon="10.0080685"><ele>193.0</ele><time>2026-04-26T07:02:24.087Z</time></trkpt><trkpt lat="45.6567414" lon="10.0081714"><ele>193.0</ele><time>2026-04-26T07:02:25.087Z</time></trkpt><trkpt lat="45.6566168" lon="10.0082773"><ele>193.0</ele><time>2026-04-26T07:02:26.087Z</time></trkpt><trkpt lat="45.6564955" lon="10.0083831"><ele>193.0</ele><time>2026-04-26T07:02:27.087Z</time></trkpt><trkpt lat="45.6563749" lon="10.0084841"><ele>193.0</ele><time>2026-04-26T07:02:28.087Z</time></trkpt><trkpt lat="45.6562524" lon="10.0085864"><ele>193.25</ele><time>2026-04-26T07:02:29.087Z</time></trkpt><trkpt lat="45.6561285" lon="10.0086894"><ele>193.5</ele><time>2026-04-26T07:02:30.087Z</time></trkpt><trkpt lat="45.6560087" lon="10.0087974"><ele>193.75</ele><time>2026-04-26T07:02:31.086Z</time></trkpt><trkpt lat="45.6558871" lon="10.008911"><ele>194.0</ele><time>2026-04-26T07:02:32.087Z</time></trkpt><trkpt lat="45.6557647" lon="10.0090308"><ele>194.0</ele><time>2026-04-26T07:02:33.087Z</time></trkpt><trkpt lat="45.6556496" lon="10.0091504"><ele>194.0</ele><time>2026-04-26T07:02:34.086Z</time></trkpt><trkpt lat="45.6555404" lon="10.0092873"><ele>194.0</ele><time>2026-04-26T07:02:35.087Z</time></trkpt><trkpt lat="45.6554451" lon="10.0094327"><ele>194.0</ele><time>2026-04-26T07:02:36.087Z</time></trkpt><trkpt lat="45.6553632" lon="10.0095848"><ele>194.0</ele><time>2026-04-26T07:02:37.087Z</time></trkpt><trkpt lat="45.6552944" lon="10.0097421"><ele>194.0</ele><time>2026-04-26T07:02:38.087Z</time></trkpt><trkpt lat="45.6552357" lon="10.0099097"><ele>194.0</ele><time>2026-04-26T07:02:39.087Z</time></trkpt><trkpt lat="45.6551892" lon="10.0100814"><ele>194.0</ele><time>2026-04-26T07:02:40.086Z</time></trkpt><trkpt lat="45.655156" lon="10.0102491"><ele>194.0</ele><time>2026-04-26T07:02:41.087Z</time></trkpt><trkpt lat="45.65513" lon="10.0104093"><ele>194.0</ele><time>2026-04-26T07:02:42.087Z</time></trkpt><trkpt lat="45.6551128" lon="10.0105602"><ele>194.0</ele><time>2026-04-26T07:02:43.086Z</time></trkpt><trkpt lat="45.6550896" lon="10.0107047"><ele>194.0</ele><time>2026-04-26T07:02:44.087Z</time></trkpt><trkpt lat="45.6550694" lon="10.0108554"><ele>194.0</ele><time>2026-04-26T07:02:45.087Z</time></trkpt><trkpt lat="45.6550446" lon="10.0110083"><ele>193.25</ele><time>2026-04-26T07:02:46.087Z</time></trkpt><trkpt lat="45.6550244" lon="10.011169"><ele>192.5</ele><time>2026-04-26T07:02:47.087Z</time></trkpt><trkpt lat="45.654999" lon="10.0113339"><ele>191.75</ele><time>2026-04-26T07:02:48.087Z</time></trkpt><trkpt lat="45.6549736" lon="10.0115024"><ele>191.0</ele><time>2026-04-26T07:02:49.087Z</time></trkpt><trkpt lat="45.6549495" lon="10.011668"><ele>191.0</ele><time>2026-04-26T07:02:50.087Z</time></trkpt><trkpt lat="45.6549254" lon="10.0118264"><ele>191.0</ele><time>2026-04-26T07:02:51.086Z</time></trkpt><trkpt lat="45.6548976" lon="10.0119791"><ele>191.0</ele><time>2026-04-26T07:02:52.086Z</time></trkpt><trkpt lat="45.6548725" lon="10.0121341"><ele>191.0</ele><time>2026-04-26T07:02:53.087Z</time></trkpt><trkpt lat="45.6548433" lon="10.0122968"><ele>191.0</ele><time>2026-04-26T07:02:54.087Z</time></trkpt><trkpt lat="45.6548146" lon="10.0124571"><ele>191.0</ele><time>2026-04-26T07:02:55.087Z</time></trkpt><trkpt lat="45.6547893" lon="10.0126236"><ele>191.0</ele><time>2026-04-26T07:02:56.087Z</time></trkpt><trkpt lat="45.6547656" lon="10.0128023"><ele>191.0</ele><time>2026-04-26T07:02:57.086Z</time></trkpt><trkpt lat="45.6547378" lon="10.0129734"><ele>190.75</ele><time>2026-04-26T07:02:58.087Z</time></trkpt><trkpt lat="45.6547106" lon="10.0131477"><ele>190.5</ele><time>2026-04-26T07:02:59.087Z</time></trkpt><trkpt lat="45.6546882" lon="10.0133283"><ele>190.25</ele><time>2026-04-26T07:03:00.087Z</time></trkpt><trkpt lat="45.6546625" lon="10.0135061"><ele>190.0</ele><time>2026-04-26T07:03:01.087Z</time></trkpt><trkpt lat="45.6546293" lon="10.0136886"><ele>189.5</ele><time>2026-04-26T07:03:02.087Z</time></trkpt><trkpt lat="45.6545969" lon="10.0138671"><ele>189.0</ele><time>2026-04-26T07:03:03.087Z</time></trkpt><trkpt lat="45.6545666" lon="10.014049"><ele>188.5</ele><time>2026-04-26T07:03:04.086Z</time></trkpt><trkpt lat="45.654532" lon="10.0142372"><ele>188.0</ele><time>2026-04-26T07:03:05.086Z</time></trkpt><trkpt lat="45.6544962" lon="10.01444"><ele>187.33333333333331</ele><time>2026-04-26T07:03:06.087Z</time></trkpt><trkpt lat="45.6544609" lon="10.0146601"><ele>186.66666666666666</ele><time>2026-04-26T07:03:07.087Z</time></trkpt><trkpt lat="45.6544256" lon="10.0148882"><ele>186.0</ele><time>2026-04-26T07:03:08.087Z</time></trkpt><trkpt lat="45.6543878" lon="10.0151221"><ele>186.66666666666666</ele><time>2026-04-26T07:03:09.087Z</time></trkpt><trkpt lat="45.6543478" lon="10.0153645"><ele>187.33333333333331</ele><time>2026-04-26T07:03:10.087Z</time></trkpt><trkpt lat="45.6543132" lon="10.0156108"><ele>188.0</ele><time>2026-04-26T07:03:11.087Z</time></trkpt><trkpt lat="45.6542755" lon="10.0158645"><ele>188.0</ele><time>2026-04-26T07:03:12.087Z</time></trkpt><trkpt lat="45.6542373" lon="10.0161113"><ele>188.0</ele><time>2026-04-26T07:03:13.087Z</time></trkpt><trkpt lat="45.6541966" lon="10.0163485"><ele>188.0</ele><time>2026-04-26T07:03:14.087Z</time></trkpt><trkpt lat="45.6541568" lon="10.0165734"><ele>187.66666666666666</ele><time>2026-04-26T07:03:15.086Z</time></trkpt><trkpt lat="45.6541215" lon="10.0167906"><ele>187.33333333333334</ele><time>2026-04-26T07:03:16.086Z</time></trkpt><trkpt lat="45.6540864" lon="10.0169946"><ele>187.0</ele><time>2026-04-26T07:03:17.087Z</time></trkpt><trkpt lat="45.6540535" lon="10.0172001"><ele>187.0</ele><time>2026-04-26T07:03:18.087Z</time></trkpt><trkpt lat="45.6540161" lon="10.0173963"><ele>187.0</ele><time>2026-04-26T07:03:19.086Z</time></trkpt><trkpt lat="45.653966" lon="10.0175912"><ele>187.0</ele><time>2026-04-26T07:03:20.087Z</time></trkpt><trkpt lat="45.6539064" lon="10.0177805"><ele>187.0</ele><time>2026-04-26T07:03:21.086Z</time></trkpt><trkpt lat="45.6538448" lon="10.0179613"><ele>187.0</ele><time>2026-04-26T07:03:22.087Z</time></trkpt><trkpt lat="45.6537698" lon="10.018129"><ele>187.0</ele><time>2026-04-26T07:03:23.086Z</time></trkpt><trkpt lat="45.6536877" lon="10.0182943"><ele>187.0</ele><time>2026-04-26T07:03:24.087Z</time></trkpt><trkpt lat="45.6536045" lon="10.0184573"><ele>187.0</ele><time>2026-04-26T07:03:25.087Z</time></trkpt><trkpt lat="45.6535159" lon="10.0186337"><ele>187.33333333333334</ele><time>2026-04-26T07:03:26.087Z</time></trkpt><trkpt lat="45.6534151" lon="10.0188309"><ele>187.66666666666666</ele><time>2026-04-26T07:03:27.087Z</time></trkpt><trkpt lat="45.6533011" lon="10.0190504"><ele>188.0</ele><time>2026-04-26T07:03:28.087Z</time></trkpt><trkpt lat="45.6531761" lon="10.0192835"><ele>188.33333333333331</ele><time>2026-04-26T07:03:29.087Z</time></trkpt><trkpt lat="45.6530599" lon="10.0194978"><ele>188.66666666666666</ele><time>2026-04-26T07:03:30.087Z</time></trkpt><trkpt lat="45.6529503" lon="10.0197026"><ele>189.0</ele><time>2026-04-26T07:03:31.086Z</time></trkpt><trkpt lat="45.6528446" lon="10.0198989"><ele>189.0</ele><time>2026-04-26T07:03:32.087Z</time></trkpt><trkpt lat="45.6527435" lon="10.02009"><ele>189.0</ele><time>2026-04-26T07:03:33.086Z</time></trkpt><trkpt lat="45.6526487" lon="10.0202652"><ele>189.0</ele><time>2026-04-26T07:03:34.087Z</time></trkpt><trkpt lat="45.6525633" lon="10.0204297"><ele>189.0</ele><time>2026-04-26T07:03:35.087Z</time></trkpt><trkpt lat="45.6524821" lon="10.0205844"><ele>189.0</ele><time>2026-04-26T07:03:36.087Z</time></trkpt><trkpt lat="45.6524068" lon="10.0207258"><ele>189.0</ele><time>2026-04-26T07:03:37.087Z</time></trkpt><trkpt lat="45.6523342" lon="10.0208582"><ele>189.0</ele><time>2026-04-26T07:03:38.087Z</time></trkpt><trkpt lat="45.6522687" lon="10.0209817"><ele>189.0</ele><time>2026-04-26T07:03:39.086Z</time></trkpt><trkpt lat="45.6522055" lon="10.0211018"><ele>189.0</ele><time>2026-04-26T07:03:40.087Z</time></trkpt><trkpt lat="45.6521449" lon="10.0212191"><ele>189.0</ele><time>2026-04-26T07:03:41.087Z</time></trkpt><trkpt lat="45.6520961" lon="10.0213109"><ele>189.0</ele><time>2026-04-26T07:03:42.087Z</time></trkpt><trkpt lat="45.6520416" lon="10.0214202"><ele>189.0</ele><time>2026-04-26T07:03:44.087Z</time></trkpt><trkpt lat="45.6519843" lon="10.0215324"><ele>189.2</ele><time>2026-04-26T07:03:46.087Z</time></trkpt><trkpt lat="45.6519468" lon="10.0216061"><ele>189.39999999999998</ele><time>2026-04-26T07:03:47.087Z</time></trkpt><trkpt lat="45.651907" lon="10.0216779"><ele>189.6</ele><time>2026-04-26T07:03:48.087Z</time></trkpt><trkpt lat="45.6518353" lon="10.0218057"><ele>189.8</ele><time>2026-04-26T07:03:50.086Z</time></trkpt><trkpt lat="45.651744" lon="10.0219012"><ele>190.0</ele><time>2026-04-26T07:03:52.086Z</time></trkpt><trkpt lat="45.6516457" lon="10.02194"><ele>190.0</ele><time>2026-04-26T07:03:54.087Z</time></trkpt><trkpt lat="45.6515371" lon="10.0219427"><ele>190.0</ele><time>2026-04-26T07:03:56.087Z</time></trkpt><trkpt lat="45.651428" lon="10.0219553"><ele>190.0</ele><time>2026-04-26T07:03:58.087Z</time></trkpt><trkpt lat="45.651346" lon="10.0220337"><ele>190.0</ele><time>2026-04-26T07:04:00.087Z</time></trkpt><trkpt lat="45.6513119" lon="10.022176"><ele>190.0</ele><time>2026-04-26T07:04:02.087Z</time></trkpt><trkpt lat="45.6513504" lon="10.0223285"><ele>190.0</ele><time>2026-04-26T07:04:04.087Z</time></trkpt><trkpt lat="45.6513958" lon="10.0224064"><ele>190.0</ele><time>2026-04-26T07:04:05.086Z</time></trkpt><trkpt lat="45.65144" lon="10.022495"><ele>190.0</ele><time>2026-04-26T07:04:06.086Z</time></trkpt><trkpt lat="45.651479" lon="10.0225987"><ele>190.0</ele><time>2026-04-26T07:04:07.087Z</time></trkpt><trkpt lat="45.6515112" lon="10.0227134"><ele>190.0</ele><time>2026-04-26T07:04:08.087Z</time></trkpt><trkpt lat="45.6515281" lon="10.0228337"><ele>190.0</ele><time>2026-04-26T07:04:09.087Z</time></trkpt><trkpt lat="45.6515328" lon="10.0229694"><ele>189.4</ele><time>2026-04-26T07:04:10.086Z</time></trkpt><trkpt lat="45.6515378" lon="10.0231121"><ele>188.8</ele><time>2026-04-26T07:04:11.087Z</time></trkpt><trkpt lat="45.651544" lon="10.0232667"><ele>188.2</ele><time>2026-04-26T07:04:12.087Z</time></trkpt><trkpt lat="45.6515564" lon="10.0234216"><ele>187.6</ele><time>2026-04-26T07:04:13.087Z</time></trkpt><trkpt lat="45.6515672" lon="10.0235794"><ele>187.0</ele><time>2026-04-26T07:04:14.086Z</time></trkpt><trkpt lat="45.6515804" lon="10.023732"><ele>187.0</ele><time>2026-04-26T07:04:15.086Z</time></trkpt><trkpt lat="45.6516034" lon="10.0238842"><ele>187.0</ele><time>2026-04-26T07:04:16.086Z</time></trkpt><trkpt lat="45.65164" lon="10.0240274"><ele>187.0</ele><time>2026-04-26T07:04:17.087Z</time></trkpt><trkpt lat="45.651685" lon="10.0241806"><ele>187.0</ele><time>2026-04-26T07:04:18.087Z</time></trkpt><trkpt lat="45.6517507" lon="10.0243485"><ele>187.33333333333334</ele><time>2026-04-26T07:04:19.087Z</time></trkpt><trkpt lat="45.651831" lon="10.0245429"><ele>187.66666666666666</ele><time>2026-04-26T07:04:20.087Z</time></trkpt><trkpt lat="45.6519109" lon="10.0247607"><ele>188.0</ele><time>2026-04-26T07:04:21.086Z</time></trkpt><trkpt lat="45.6519902" lon="10.0250199"><ele>188.0</ele><time>2026-04-26T07:04:22.086Z</time></trkpt><trkpt lat="45.6520833" lon="10.0253041"><ele>188.0</ele><time>2026-04-26T07:04:23.086Z</time></trkpt><trkpt lat="45.6521801" lon="10.0255683"><ele>188.0</ele><time>2026-04-26T07:04:24.087Z</time></trkpt><trkpt lat="45.6522706" lon="10.0258192"><ele>188.0</ele><time>2026-04-26T07:04:25.087Z</time></trkpt><trkpt lat="45.6523562" lon="10.026051"><ele>188.0</ele><time>2026-04-26T07:04:26.087Z</time></trkpt><trkpt lat="45.6524342" lon="10.0262622"><ele>188.0</ele><time>2026-04-26T07:04:27.087Z</time></trkpt><trkpt lat="45.6524979" lon="10.0264457"><ele>188.0</ele><time>2026-04-26T07:04:28.087Z</time></trkpt><trkpt lat="45.652561" lon="10.0266123"><ele>188.0</ele><time>2026-04-26T07:04:29.087Z</time></trkpt><trkpt lat="45.6526149" lon="10.0267719"><ele>188.0</ele><time>2026-04-26T07:04:30.087Z</time></trkpt><trkpt lat="45.6526698" lon="10.0269274"><ele>188.0</ele><time>2026-04-26T07:04:31.086Z</time></trkpt><trkpt lat="45.6527282" lon="10.0270855"><ele>187.75</ele><time>2026-04-26T07:04:32.087Z</time></trkpt><trkpt lat="45.6527854" lon="10.027238"><ele>187.5</ele><time>2026-04-26T07:04:33.087Z</time></trkpt><trkpt lat="45.6528378" lon="10.0273862"><ele>187.25</ele><time>2026-04-26T07:04:34.087Z</time></trkpt><trkpt lat="45.6528898" lon="10.0275273"><ele>187.0</ele><time>2026-04-26T07:04:35.086Z</time></trkpt><trkpt lat="45.6529415" lon="10.027671"><ele>187.6</ele><time>2026-04-26T07:04:36.087Z</time></trkpt><trkpt lat="45.652993" lon="10.0278083"><ele>188.2</ele><time>2026-04-26T07:04:37.087Z</time></trkpt><trkpt lat="45.6530457" lon="10.0279402"><ele>188.8</ele><time>2026-04-26T07:04:38.087Z</time></trkpt><trkpt lat="45.653095" lon="10.0280769"><ele>189.4</ele><time>2026-04-26T07:04:39.087Z</time></trkpt><trkpt lat="45.6531447" lon="10.028215"><ele>190.0</ele><time>2026-04-26T07:04:40.086Z</time></trkpt><trkpt lat="45.6531917" lon="10.028361"><ele>190.0</ele><time>2026-04-26T07:04:41.086Z</time></trkpt><trkpt lat="45.6532411" lon="10.0285083"><ele>190.0</ele><time>2026-04-26T07:04:42.087Z</time></trkpt><trkpt lat="45.6532942" lon="10.0286596"><ele>190.0</ele><time>2026-04-26T07:04:43.087Z</time></trkpt><trkpt lat="45.6533436" lon="10.0288176"><ele>190.0</ele><time>2026-04-26T07:04:44.087Z</time></trkpt><trkpt lat="45.6534011" lon="10.0289771"><ele>190.0</ele><time>2026-04-26T07:04:45.086Z</time></trkpt><trkpt lat="45.6534636" lon="10.029138"><ele>190.0</ele><time>2026-04-26T07:04:46.086Z</time></trkpt><trkpt lat="45.6535272" lon="10.0293061"><ele>190.0</ele><time>2026-04-26T07:04:47.087Z</time></trkpt><trkpt lat="45.6535919" lon="10.0294721"><ele>190.0</ele><time>2026-04-26T07:04:48.087Z</time></trkpt><trkpt lat="45.6536509" lon="10.0296378"><ele>190.5</ele><time>2026-04-26T07:04:49.087Z</time></trkpt><trkpt lat="45.6537106" lon="10.0297983"><ele>191.0</ele><time>2026-04-26T07:04:50.087Z</time></trkpt><trkpt lat="45.6537661" lon="10.0299544"><ele>191.5</ele><time>2026-04-26T07:04:51.087Z</time></trkpt><trkpt lat="45.6538143" lon="10.0301142"><ele>192.0</ele><time>2026-04-26T07:04:52.087Z</time></trkpt><trkpt lat="45.6538641" lon="10.0302733"><ele>191.0</ele><time>2026-04-26T07:04:53.087Z</time></trkpt><trkpt lat="45.6539002" lon="10.0304459"><ele>190.0</ele><time>2026-04-26T07:04:54.087Z</time></trkpt><trkpt lat="45.6539321" lon="10.0306195"><ele>189.0</ele><time>2026-04-26T07:04:55.087Z</time></trkpt><trkpt lat="45.6539636" lon="10.0308014"><ele>188.0</ele><time>2026-04-26T07:04:56.086Z</time></trkpt><trkpt lat="45.6539945" lon="10.0309875"><ele>187.5</ele><time>2026-04-26T07:04:57.087Z</time></trkpt><trkpt lat="45.6540312" lon="10.0311794"><ele>187.0</ele><time>2026-04-26T07:04:58.087Z</time></trkpt><trkpt lat="45.6540647" lon="10.0313738"><ele>186.5</ele><time>2026-04-26T07:04:59.087Z</time></trkpt><trkpt lat="45.6541002" lon="10.0315692"><ele>186.0</ele><time>2026-04-26T07:05:00.087Z</time></trkpt><trkpt lat="45.6541353" lon="10.0317667"><ele>186.0</ele><time>2026-04-26T07:05:01.087Z</time></trkpt><trkpt lat="45.6541687" lon="10.0319653"><ele>186.0</ele><time>2026-04-26T07:05:02.086Z</time></trkpt><trkpt lat="45.6541967" lon="10.0321609"><ele>186.0</ele><time>2026-04-26T07:05:03.087Z</time></trkpt><trkpt lat="45.6542253" lon="10.0323526"><ele>186.0</ele><time>2026-04-26T07:05:04.087Z</time></trkpt><trkpt lat="45.6542594" lon="10.0325387"><ele>186.0</ele><time>2026-04-26T07:05:05.087Z</time></trkpt><trkpt lat="45.6542959" lon="10.0327238"><ele>186.0</ele><time>2026-04-26T07:05:06.086Z</time></trkpt><trkpt lat="45.6543376" lon="10.032898"><ele>186.0</ele><time>2026-04-26T07:05:07.086Z</time></trkpt><trkpt lat="45.6543894" lon="10.0330623"><ele>186.0</ele><time>2026-04-26T07:05:08.087Z</time></trkpt><trkpt lat="45.6544544" lon="10.0332231"><ele>186.0</ele><time>2026-04-26T07:05:09.087Z</time></trkpt><trkpt lat="45.6545271" lon="10.0333781"><ele>186.0</ele><time>2026-04-26T07:05:10.087Z</time></trkpt><trkpt lat="45.6546032" lon="10.0335271"><ele>186.0</ele><time>2026-04-26T07:05:11.087Z</time></trkpt><trkpt lat="45.6546749" lon="10.0336718"><ele>186.0</ele><time>2026-04-26T07:05:12.087Z</time></trkpt><trkpt lat="45.6547458" lon="10.0338151"><ele>186.0</ele><time>2026-04-26T07:05:13.087Z</time></trkpt><trkpt lat="45.6548157" lon="10.0339594"><ele>186.0</ele><time>2026-04-26T07:05:14.087Z</time></trkpt><trkpt lat="45.6548775" lon="10.0341057"><ele>186.0</ele><time>2026-04-26T07:05:15.087Z</time></trkpt><trkpt lat="45.6549316" lon="10.034258"><ele>186.0</ele><time>2026-04-26T07:05:16.087Z</time></trkpt><trkpt lat="45.6549744" lon="10.0344133"><ele>185.75</ele><time>2026-04-26T07:05:17.087Z</time></trkpt><trkpt lat="45.655017" lon="10.0345683"><ele>185.5</ele><time>2026-04-26T07:05:18.086Z</time></trkpt><trkpt lat="45.655057" lon="10.0347278"><ele>185.25</ele><time>2026-04-26T07:05:19.087Z</time></trkpt><trkpt lat="45.6550913" lon="10.0348863"><ele>185.0</ele><time>2026-04-26T07:05:20.087Z</time></trkpt><trkpt lat="45.6551179" lon="10.0350435"><ele>185.0</ele><time>2026-04-26T07:05:21.087Z</time></trkpt><trkpt lat="45.6551382" lon="10.0352101"><ele>185.0</ele><time>2026-04-26T07:05:22.087Z</time></trkpt><trkpt lat="45.6551522" lon="10.0353889"><ele>185.0</ele><time>2026-04-26T07:05:23.087Z</time></trkpt><trkpt lat="45.6551556" lon="10.0355742"><ele>185.0</ele><time>2026-04-26T07:05:24.086Z</time></trkpt><trkpt lat="45.6551573" lon="10.0357633"><ele>185.0</ele><time>2026-04-26T07:05:25.086Z</time></trkpt><trkpt lat="45.6551501" lon="10.0359619"><ele>185.0</ele><time>2026-04-26T07:05:26.087Z</time></trkpt><trkpt lat="45.6551313" lon="10.03617"><ele>185.0</ele><time>2026-04-26T07:05:27.087Z</time></trkpt><trkpt lat="45.6551072" lon="10.0363818"><ele>185.0</ele><time>2026-04-26T07:05:28.087Z</time></trkpt><trkpt lat="45.6550713" lon="10.0365947"><ele>185.33333333333331</ele><time>2026-04-26T07:05:29.087Z</time></trkpt><trkpt lat="45.6550205" lon="10.0368212"><ele>185.66666666666666</ele><time>2026-04-26T07:05:30.087Z</time></trkpt><trkpt lat="45.6549423" lon="10.0370734"><ele>186.0</ele><time>2026-04-26T07:05:31.087Z</time></trkpt><trkpt lat="45.6548555" lon="10.0373373"><ele>186.0</ele><time>2026-04-26T07:05:32.087Z</time></trkpt><trkpt lat="45.6547581" lon="10.0375757"><ele>186.0</ele><time>2026-04-26T07:05:33.086Z</time></trkpt><trkpt lat="45.6546544" lon="10.0377934"><ele>186.0</ele><time>2026-04-26T07:05:34.087Z</time></trkpt><trkpt lat="45.6545463" lon="10.0379868"><ele>186.0</ele><time>2026-04-26T07:05:35.087Z</time></trkpt><trkpt lat="45.65444" lon="10.0381636"><ele>186.0</ele><time>2026-04-26T07:05:36.087Z</time></trkpt><trkpt lat="45.6543351" lon="10.0383304"><ele>186.0</ele><time>2026-04-26T07:05:37.087Z</time></trkpt><trkpt lat="45.6542252" lon="10.0384934"><ele>186.0</ele><time>2026-04-26T07:05:38.087Z</time></trkpt><trkpt lat="45.6541156" lon="10.0386383"><ele>186.0</ele><time>2026-04-26T07:05:39.087Z</time></trkpt><trkpt lat="45.6540094" lon="10.0387661"><ele>186.0</ele><time>2026-04-26T07:05:40.087Z</time></trkpt><trkpt lat="45.6539026" lon="10.0388827"><ele>186.0</ele><time>2026-04-26T07:05:41.087Z</time></trkpt><trkpt lat="45.653798" lon="10.0389914"><ele>186.0</ele><time>2026-04-26T07:05:42.087Z</time></trkpt><trkpt lat="45.6536975" lon="10.0390838"><ele>186.0</ele><time>2026-04-26T07:05:43.087Z</time></trkpt><trkpt lat="45.6535941" lon="10.0391649"><ele>186.0</ele><time>2026-04-26T07:05:44.086Z</time></trkpt><trkpt lat="45.6534872" lon="10.0392428"><ele>186.0</ele><time>2026-04-26T07:05:45.087Z</time></trkpt><trkpt lat="45.653378" lon="10.03932"><ele>185.75</ele><time>2026-04-26T07:05:46.086Z</time></trkpt><trkpt lat="45.6532637" lon="10.0394029"><ele>185.5</ele><time>2026-04-26T07:05:47.087Z</time></trkpt><trkpt lat="45.6531476" lon="10.0394799"><ele>185.25</ele><time>2026-04-26T07:05:48.086Z</time></trkpt><trkpt lat="45.6530278" lon="10.0395591"><ele>185.0</ele><time>2026-04-26T07:05:49.086Z</time></trkpt><trkpt lat="45.6529046" lon="10.0396425"><ele>184.75</ele><time>2026-04-26T07:05:50.087Z</time></trkpt><trkpt lat="45.6527826" lon="10.0397217"><ele>184.5</ele><time>2026-04-26T07:05:51.087Z</time></trkpt><trkpt lat="45.6526637" lon="10.0398013"><ele>184.25</ele><time>2026-04-26T07:05:52.086Z</time></trkpt><trkpt lat="45.6525479" lon="10.0398858"><ele>184.0</ele><time>2026-04-26T07:05:53.087Z</time></trkpt><trkpt lat="45.652434" lon="10.0399655"><ele>184.5</ele><time>2026-04-26T07:05:54.087Z</time></trkpt><trkpt lat="45.6523231" lon="10.0400339"><ele>185.0</ele><time>2026-04-26T07:05:55.087Z</time></trkpt><trkpt lat="45.6522185" lon="10.0401003"><ele>185.5</ele><time>2026-04-26T07:05:56.087Z</time></trkpt><trkpt lat="45.6521164" lon="10.0401679"><ele>186.0</ele><time>2026-04-26T07:05:57.087Z</time></trkpt><trkpt lat="45.6520217" lon="10.0402417"><ele>186.25</ele><time>2026-04-26T07:05:58.086Z</time></trkpt><trkpt lat="45.6519274" lon="10.0403073"><ele>186.5</ele><time>2026-04-26T07:05:59.087Z</time></trkpt><trkpt lat="45.6518186" lon="10.0403809"><ele>186.75</ele><time>2026-04-26T07:06:00.087Z</time></trkpt><trkpt lat="45.6517154" lon="10.0404554"><ele>187.0</ele><time>2026-04-26T07:06:01.087Z</time></trkpt><trkpt lat="45.6516037" lon="10.0405325"><ele>187.0</ele><time>2026-04-26T07:06:02.087Z</time></trkpt><trkpt lat="45.6514943" lon="10.0406134"><ele>187.0</ele><time>2026-04-26T07:06:03.087Z</time></trkpt><trkpt lat="45.6513831" lon="10.0406855"><ele>187.0</ele><time>2026-04-26T07:06:04.087Z</time></trkpt><trkpt lat="45.6512778" lon="10.0407513"><ele>187.0</ele><time>2026-04-26T07:06:05.087Z</time></trkpt><trkpt lat="45.6511781" lon="10.0408256"><ele>186.39999999999998</ele><time>2026-04-26T07:06:06.087Z</time></trkpt><trkpt lat="45.6510843" lon="10.0408959"><ele>185.79999999999998</ele><time>2026-04-26T07:06:07.086Z</time></trkpt><trkpt lat="45.6509969" lon="10.0409577"><ele>185.2</ele><time>2026-04-26T07:06:08.087Z</time></trkpt><trkpt lat="45.6509153" lon="10.0410146"><ele>184.6</ele><time>2026-04-26T07:06:09.087Z</time></trkpt><trkpt lat="45.6508369" lon="10.0410682"><ele>184.0</ele><time>2026-04-26T07:06:10.087Z</time></trkpt><trkpt lat="45.6507552" lon="10.041122"><ele>184.0</ele><time>2026-04-26T07:06:11.087Z</time></trkpt><trkpt lat="45.6506716" lon="10.0411782"><ele>184.0</ele><time>2026-04-26T07:06:12.086Z</time></trkpt><trkpt lat="45.6505835" lon="10.0412424"><ele>184.0</ele><time>2026-04-26T07:06:13.087Z</time></trkpt><trkpt lat="45.650489" lon="10.0413093"><ele>184.0</ele><time>2026-04-26T07:06:14.086Z</time></trkpt><trkpt lat="45.6503828" lon="10.0413853"><ele>184.0</ele><time>2026-04-26T07:06:15.087Z</time></trkpt><trkpt lat="45.6502648" lon="10.0414729"><ele>184.33333333333334</ele><time>2026-04-26T07:06:16.087Z</time></trkpt><trkpt lat="45.6501336" lon="10.0415766"><ele>184.66666666666666</ele><time>2026-04-26T07:06:17.086Z</time></trkpt><trkpt lat="45.6499987" lon="10.0416769"><ele>185.0</ele><time>2026-04-26T07:06:18.087Z</time></trkpt><trkpt lat="45.6498554" lon="10.0417717"><ele>185.66666666666666</ele><time>2026-04-26T07:06:19.087Z</time></trkpt><trkpt lat="45.6497117" lon="10.0418627"><ele>186.33333333333334</ele><time>2026-04-26T07:06:20.087Z</time></trkpt><trkpt lat="45.6495689" lon="10.0419658"><ele>187.0</ele><time>2026-04-26T07:06:21.087Z</time></trkpt><trkpt lat="45.6494282" lon="10.0420706"><ele>187.0</ele><time>2026-04-26T07:06:22.087Z</time></trkpt><trkpt lat="45.649292" lon="10.0421687"><ele>187.0</ele><time>2026-04-26T07:06:23.087Z</time></trkpt><trkpt lat="45.6491535" lon="10.0422858"><ele>187.0</ele><time>2026-04-26T07:06:24.086Z</time></trkpt><trkpt lat="45.6490185" lon="10.0424214"><ele>186.33333333333334</ele><time>2026-04-26T07:06:25.087Z</time></trkpt><trkpt lat="45.648886" lon="10.0425652"><ele>185.66666666666666</ele><time>2026-04-26T07:06:26.087Z</time></trkpt><trkpt lat="45.6487591" lon="10.0427167"><ele>185.0</ele><time>2026-04-26T07:06:27.087Z</time></trkpt><trkpt lat="45.6486389" lon="10.0428744"><ele>186.66666666666666</ele><time>2026-04-26T07:06:28.086Z</time></trkpt><trkpt lat="45.6485261" lon="10.0430392"><ele>188.33333333333334</ele><time>2026-04-26T07:06:29.087Z</time></trkpt><trkpt lat="45.6484195" lon="10.0432026"><ele>190.0</ele><time>2026-04-26T07:06:30.087Z</time></trkpt><trkpt lat="45.6483151" lon="10.0433781"><ele>192.0</ele><time>2026-04-26T07:06:31.087Z</time></trkpt><trkpt lat="45.6482144" lon="10.0435534"><ele>194.0</ele><time>2026-04-26T07:06:32.087Z</time></trkpt><trkpt lat="45.6535887" lon="10.0574748"><ele>217.5</ele><time>2026-04-26T07:07:36.087Z</time></trkpt><trkpt lat="45.6538226" lon="10.0577256"><ele>241.0</ele><time>2026-04-26T07:07:37.086Z</time></trkpt><trkpt lat="45.6540235" lon="10.0579694"><ele>241.0</ele><time>2026-04-26T07:07:38.087Z</time></trkpt><trkpt lat="45.6541876" lon="10.0582155"><ele>241.0</ele><time>2026-04-26T07:07:39.087Z</time></trkpt><trkpt lat="45.6543121" lon="10.0584511"><ele>241.0</ele><time>2026-04-26T07:07:40.087Z</time></trkpt><trkpt lat="45.6544404" lon="10.058669"><ele>240.66666666666666</ele><time>2026-04-26T07:07:41.087Z</time></trkpt><trkpt lat="45.6545533" lon="10.0588847"><ele>240.33333333333331</ele><time>2026-04-26T07:07:42.087Z</time></trkpt><trkpt lat="45.6546629" lon="10.0590974"><ele>240.0</ele><time>2026-04-26T07:07:43.087Z</time></trkpt><trkpt lat="45.6547697" lon="10.0593085"><ele>244.33333333333331</ele><time>2026-04-26T07:07:44.086Z</time></trkpt><trkpt lat="45.6548778" lon="10.0595148"><ele>248.66666666666666</ele><time>2026-04-26T07:07:45.087Z</time></trkpt><trkpt lat="45.6549779" lon="10.0597233"><ele>253.0</ele><time>2026-04-26T07:07:46.087Z</time></trkpt><trkpt lat="45.6550822" lon="10.0599321"><ele>253.0</ele><time>2026-04-26T07:07:47.087Z</time></trkpt><trkpt lat="45.6551791" lon="10.0601374"><ele>253.0</ele><time>2026-04-26T07:07:48.087Z</time></trkpt><trkpt lat="45.6552767" lon="10.0603266"><ele>253.0</ele><time>2026-04-26T07:07:49.087Z</time></trkpt><trkpt lat="45.6553663" lon="10.0605135"><ele>253.0</ele><time>2026-04-26T07:07:50.087Z</time></trkpt><trkpt lat="45.6554459" lon="10.0606905"><ele>253.0</ele><time>2026-04-26T07:07:51.087Z</time></trkpt><trkpt lat="45.6555292" lon="10.0608565"><ele>253.0</ele><time>2026-04-26T07:07:52.087Z</time></trkpt><trkpt lat="45.6556028" lon="10.061007"><ele>253.0</ele><time>2026-04-26T07:07:53.087Z</time></trkpt><trkpt lat="45.6556714" lon="10.0611479"><ele>254.2</ele><time>2026-04-26T07:07:54.087Z</time></trkpt><trkpt lat="45.6557368" lon="10.0612823"><ele>255.4</ele><time>2026-04-26T07:07:55.087Z</time></trkpt><trkpt lat="45.6557989" lon="10.0614148"><ele>256.59999999999997</ele><time>2026-04-26T07:07:56.087Z</time></trkpt><trkpt lat="45.6558496" lon="10.061536"><ele>257.8</ele><time>2026-04-26T07:07:57.087Z</time></trkpt><trkpt lat="45.6558963" lon="10.061651"><ele>259.0</ele><time>2026-04-26T07:07:58.086Z</time></trkpt><trkpt lat="45.6559396" lon="10.0617589"><ele>258.2</ele><time>2026-04-26T07:07:59.087Z</time></trkpt><trkpt lat="45.6559994" lon="10.0618607"><ele>257.4</ele><time>2026-04-26T07:08:00.087Z</time></trkpt><trkpt lat="45.6560768" lon="10.061962"><ele>256.6</ele><time>2026-04-26T07:08:01.087Z</time></trkpt><trkpt lat="45.656163" lon="10.0620648"><ele>255.8</ele><time>2026-04-26T07:08:02.087Z</time></trkpt><trkpt lat="45.6562556" lon="10.0621497"><ele>255.0</ele><time>2026-04-26T07:08:03.087Z</time></trkpt><trkpt lat="45.6563591" lon="10.0622146"><ele>255.0</ele><time>2026-04-26T07:08:04.087Z</time></trkpt><trkpt lat="45.6564762" lon="10.0622438"><ele>255.0</ele><time>2026-04-26T07:08:05.087Z</time></trkpt><trkpt lat="45.6566081" lon="10.0622698"><ele>255.0</ele><time>2026-04-26T07:08:06.087Z</time></trkpt><trkpt lat="45.656757" lon="10.0623233"><ele>255.0</ele><time>2026-04-26T07:08:07.087Z</time></trkpt><trkpt lat="45.6569207" lon="10.0624036"><ele>258.0</ele><time>2026-04-26T07:08:08.087Z</time></trkpt><trkpt lat="45.6570934" lon="10.0624969"><ele>261.0</ele><time>2026-04-26T07:08:09.087Z</time></trkpt><trkpt lat="45.6572613" lon="10.0625905"><ele>264.0</ele><time>2026-04-26T07:08:10.087Z</time></trkpt><trkpt lat="45.6574274" lon="10.0626827"><ele>264.0</ele><time>2026-04-26T07:08:11.087Z</time></trkpt><trkpt lat="45.6576229" lon="10.0627516"><ele>264.0</ele><time>2026-04-26T07:08:12.087Z</time></trkpt><trkpt lat="45.657814" lon="10.0628156"><ele>264.0</ele><time>2026-04-26T07:08:13.087Z</time></trkpt><trkpt lat="45.6580004" lon="10.0628638"><ele>260.3333333333333</ele><time>2026-04-26T07:08:14.087Z</time></trkpt><trkpt lat="45.6581874" lon="10.0628918"><ele>256.66666666666663</ele><time>2026-04-26T07:08:15.087Z</time></trkpt><trkpt lat="45.6583782" lon="10.0629027"><ele>253.0</ele><time>2026-04-26T07:08:16.087Z</time></trkpt><trkpt lat="45.658566" lon="10.0629154"><ele>248.66666666666666</ele><time>2026-04-26T07:08:17.087Z</time></trkpt><trkpt lat="45.6587491" lon="10.0629169"><ele>244.33333333333331</ele><time>2026-04-26T07:08:18.087Z</time></trkpt><trkpt lat="45.6589252" lon="10.0629121"><ele>240.0</ele><time>2026-04-26T07:08:19.087Z</time></trkpt><trkpt lat="45.6590828" lon="10.0629094"><ele>240.0</ele><time>2026-04-26T07:08:20.087Z</time></trkpt><trkpt lat="45.6592283" lon="10.0629028"><ele>240.0</ele><time>2026-04-26T07:08:21.086Z</time></trkpt><trkpt lat="45.6593739" lon="10.0629053"><ele>240.0</ele><time>2026-04-26T07:08:22.086Z</time></trkpt><trkpt lat="45.659514" lon="10.0629182"><ele>240.0</ele><time>2026-04-26T07:08:23.087Z</time></trkpt><trkpt lat="45.6596452" lon="10.0629202"><ele>237.75</ele><time>2026-04-26T07:08:24.087Z</time></trkpt><trkpt lat="45.6597708" lon="10.0629181"><ele>235.5</ele><time>2026-04-26T07:08:25.086Z</time></trkpt><trkpt lat="45.6598967" lon="10.0629157"><ele>233.25</ele><time>2026-04-26T07:08:26.087Z</time></trkpt><trkpt lat="45.6600141" lon="10.0629107"><ele>231.0</ele><time>2026-04-26T07:08:27.087Z</time></trkpt><trkpt lat="45.660132" lon="10.0629122"><ele>231.0</ele><time>2026-04-26T07:08:28.087Z</time></trkpt><trkpt lat="45.660242" lon="10.0629139"><ele>231.0</ele><time>2026-04-26T07:08:29.087Z</time></trkpt><trkpt lat="45.6603449" lon="10.0629116"><ele>231.0</ele><time>2026-04-26T07:08:30.086Z</time></trkpt><trkpt lat="45.6604349" lon="10.0629248"><ele>231.0</ele><time>2026-04-26T07:08:31.087Z</time></trkpt><trkpt lat="45.6605069" lon="10.0629475"><ele>231.0</ele><time>2026-04-26T07:08:32.086Z</time></trkpt><trkpt lat="45.6605697" lon="10.0629906"><ele>231.0</ele><time>2026-04-26T07:08:33.087Z</time></trkpt><trkpt lat="45.6606543" lon="10.0631152"><ele>230.8</ele><time>2026-04-26T07:08:35.087Z</time></trkpt><trkpt lat="45.6605949" lon="10.063227"><ele>230.60000000000002</ele><time>2026-04-26T07:08:37.087Z</time></trkpt><trkpt lat="45.660478" lon="10.0632949"><ele>230.4</ele><time>2026-04-26T07:08:39.087Z</time></trkpt><trkpt lat="45.6604185" lon="10.0633295"><ele>230.2</ele><time>2026-04-26T07:08:40.087Z</time></trkpt><trkpt lat="45.66034" lon="10.0633932"><ele>230.0</ele><time>2026-04-26T07:08:42.086Z</time></trkpt><trkpt lat="45.6602925" lon="10.0635316"><ele>230.8</ele><time>2026-04-26T07:08:44.087Z</time></trkpt><trkpt lat="45.6602976" lon="10.063641"><ele>231.6</ele><time>2026-04-26T07:08:45.087Z</time></trkpt><trkpt lat="45.6603218" lon="10.0637572"><ele>232.39999999999998</ele><time>2026-04-26T07:08:46.087Z</time></trkpt><trkpt lat="45.6603653" lon="10.0638714"><ele>233.2</ele><time>2026-04-26T07:08:47.087Z</time></trkpt><trkpt lat="45.6604301" lon="10.0639829"><ele>234.0</ele><time>2026-04-26T07:08:48.087Z</time></trkpt><trkpt lat="45.6605192" lon="10.0640911"><ele>236.25</ele><time>2026-04-26T07:08:49.087Z</time></trkpt><trkpt lat="45.6606276" lon="10.0641799"><ele>238.5</ele><time>2026-04-26T07:08:50.087Z</time></trkpt><trkpt lat="45.6607476" lon="10.0642532"><ele>240.75</ele><time>2026-04-26T07:08:51.087Z</time></trkpt><trkpt lat="45.6608802" lon="10.0643251"><ele>243.0</ele><time>2026-04-26T07:08:52.087Z</time></trkpt><trkpt lat="45.6610108" lon="10.0643974"><ele>242.0</ele><time>2026-04-26T07:08:53.087Z</time></trkpt><trkpt lat="45.6611344" lon="10.0644612"><ele>241.0</ele><time>2026-04-26T07:08:54.087Z</time></trkpt><trkpt lat="45.6612482" lon="10.0644976"><ele>240.0</ele><time>2026-04-26T07:08:55.087Z</time></trkpt><trkpt lat="45.6613595" lon="10.06451"><ele>239.0</ele><time>2026-04-26T07:08:56.087Z</time></trkpt><trkpt lat="45.6614601" lon="10.0645255"><ele>239.0</ele><time>2026-04-26T07:08:57.087Z</time></trkpt><trkpt lat="45.6615244" lon="10.0645633"><ele>238.99999999999997</ele><time>2026-04-26T07:08:58.087Z</time></trkpt><trkpt lat="45.6615411" lon="10.0647066"><ele>238.99999999999997</ele><time>2026-04-26T07:09:00.087Z</time></trkpt><trkpt lat="45.6614388" lon="10.0647953"><ele>239.0</ele><time>2026-04-26T07:09:02.087Z</time></trkpt><trkpt lat="45.6613534" lon="10.0647832"><ele>239.0</ele><time>2026-04-26T07:09:03.087Z</time></trkpt><trkpt lat="45.66125" lon="10.0647413"><ele>239.0</ele><time>2026-04-26T07:09:04.087Z</time></trkpt><trkpt lat="45.6611352" lon="10.0647028"><ele>239.0</ele><time>2026-04-26T07:09:05.087Z</time></trkpt><trkpt lat="45.6610173" lon="10.0646826"><ele>239.0</ele><time>2026-04-26T07:09:06.086Z</time></trkpt><trkpt lat="45.6608914" lon="10.0646648"><ele>239.0</ele><time>2026-04-26T07:09:07.087Z</time></trkpt><trkpt lat="45.6607603" lon="10.0646366"><ele>240.33333333333334</ele><time>2026-04-26T07:09:08.087Z</time></trkpt><trkpt lat="45.660619" lon="10.0645937"><ele>241.66666666666669</ele><time>2026-04-26T07:09:09.087Z</time></trkpt><trkpt lat="45.6604754" lon="10.0645307"><ele>243.0</ele><time>2026-04-26T07:09:10.087Z</time></trkpt><trkpt lat="45.6603306" lon="10.0644518"><ele>247.66666666666669</ele><time>2026-04-26T07:09:11.086Z</time></trkpt><trkpt lat="45.6601866" lon="10.0643772"><ele>252.33333333333334</ele><time>2026-04-26T07:09:12.086Z</time></trkpt><trkpt lat="45.6600393" lon="10.0643127"><ele>257.0</ele><time>2026-04-26T07:09:13.087Z</time></trkpt><trkpt lat="45.6598883" lon="10.0642503"><ele>257.0</ele><time>2026-04-26T07:09:14.087Z</time></trkpt><trkpt lat="45.659734" lon="10.064188"><ele>257.0</ele><time>2026-04-26T07:09:15.087Z</time></trkpt><trkpt lat="45.6595806" lon="10.0641243"><ele>257.0</ele><time>2026-04-26T07:09:16.087Z</time></trkpt><trkpt lat="45.6594281" lon="10.0640701"><ele>255.0</ele><time>2026-04-26T07:09:17.087Z</time></trkpt><trkpt lat="45.6592798" lon="10.0640227"><ele>253.0</ele><time>2026-04-26T07:09:18.087Z</time></trkpt><trkpt lat="45.6591306" lon="10.0639766"><ele>251.0</ele><time>2026-04-26T07:09:19.087Z</time></trkpt><trkpt lat="45.6589893" lon="10.0639229"><ele>251.0</ele><time>2026-04-26T07:09:20.087Z</time></trkpt><trkpt lat="45.6588463" lon="10.063875"><ele>251.0</ele><time>2026-04-26T07:09:21.087Z</time></trkpt><trkpt lat="45.658704" lon="10.0638357"><ele>251.0</ele><time>2026-04-26T07:09:22.087Z</time></trkpt><trkpt lat="45.6585527" lon="10.0638067"><ele>251.0</ele><time>2026-04-26T07:09:23.087Z</time></trkpt><trkpt lat="45.6583942" lon="10.0638218"><ele>254.0</ele><time>2026-04-26T07:09:24.087Z</time></trkpt><trkpt lat="45.6582661" lon="10.063914"><ele>257.0</ele><time>2026-04-26T07:09:25.087Z</time></trkpt><trkpt lat="45.658142" lon="10.0639383"><ele>260.0</ele><time>2026-04-26T07:09:26.087Z</time></trkpt><trkpt lat="45.6580208" lon="10.0639767"><ele>263.0</ele><time>2026-04-26T07:09:27.087Z</time></trkpt><trkpt lat="45.6579152" lon="10.0639938"><ele>263.0</ele><time>2026-04-26T07:09:28.087Z</time></trkpt><trkpt lat="45.6578105" lon="10.0639624"><ele>263.0</ele><time>2026-04-26T07:09:29.086Z</time></trkpt><trkpt lat="45.6577067" lon="10.0638811"><ele>263.0</ele><time>2026-04-26T07:09:30.087Z</time></trkpt><trkpt lat="45.6576186" lon="10.0637998"><ele>263.0</ele><time>2026-04-26T07:09:31.086Z</time></trkpt><trkpt lat="45.6575411" lon="10.0637468"><ele>263.0</ele><time>2026-04-26T07:09:32.087Z</time></trkpt><trkpt lat="45.6574584" lon="10.0637306"><ele>264.5</ele><time>2026-04-26T07:09:33.087Z</time></trkpt><trkpt lat="45.6573808" lon="10.063771"><ele>266.0</ele><time>2026-04-26T07:09:34.087Z</time></trkpt><trkpt lat="45.6573306" lon="10.063865"><ele>267.5</ele><time>2026-04-26T07:09:35.087Z</time></trkpt><trkpt lat="45.6573156" lon="10.0639812"><ele>269.0</ele><time>2026-04-26T07:09:36.087Z</time></trkpt><trkpt lat="45.6573515" lon="10.0640999"><ele>270.5</ele><time>2026-04-26T07:09:37.087Z</time></trkpt><trkpt lat="45.6574192" lon="10.0641947"><ele>272.0</ele><time>2026-04-26T07:09:38.087Z</time></trkpt><trkpt lat="45.6575057" lon="10.0642677"><ele>277.0</ele><time>2026-04-26T07:09:39.087Z</time></trkpt><trkpt lat="45.6576663" lon="10.0642782"><ele>282.0</ele><time>2026-04-26T07:09:40.087Z</time></trkpt><trkpt lat="45.6578227" lon="10.0643081"><ele>287.0</ele><time>2026-04-26T07:09:41.087Z</time></trkpt><trkpt lat="45.6579988" lon="10.0643336"><ele>287.0</ele><time>2026-04-26T07:09:42.087Z</time></trkpt><trkpt lat="45.6581768" lon="10.064358"><ele>287.0</ele><time>2026-04-26T07:09:43.087Z</time></trkpt><trkpt lat="45.6583627" lon="10.0643918"><ele>287.0</ele><time>2026-04-26T07:09:44.087Z</time></trkpt><trkpt lat="45.6585343" lon="10.0644251"><ele>283.33333333333337</ele><time>2026-04-26T07:09:45.086Z</time></trkpt><trkpt lat="45.6586926" lon="10.0644917"><ele>279.6666666666667</ele><time>2026-04-26T07:09:46.087Z</time></trkpt><trkpt lat="45.6588533" lon="10.0645911"><ele>276.0</ele><time>2026-04-26T07:09:47.086Z</time></trkpt><trkpt lat="45.659007" lon="10.0647245"><ele>276.0</ele><time>2026-04-26T07:09:48.087Z</time></trkpt><trkpt lat="45.6591503" lon="10.0648873"><ele>276.0</ele><time>2026-04-26T07:09:49.087Z</time></trkpt><trkpt lat="45.6592875" lon="10.0650629"><ele>276.0</ele><time>2026-04-26T07:09:50.087Z</time></trkpt><trkpt lat="45.6594235" lon="10.0652273"><ele>278.0</ele><time>2026-04-26T07:09:51.086Z</time></trkpt><trkpt lat="45.6595565" lon="10.0653897"><ele>280.0</ele><time>2026-04-26T07:09:52.087Z</time></trkpt><trkpt lat="45.6596822" lon="10.0655511"><ele>282.0</ele><time>2026-04-26T07:09:53.087Z</time></trkpt><trkpt lat="45.659795" lon="10.0657166"><ele>288.25</ele><time>2026-04-26T07:09:54.086Z</time></trkpt><trkpt lat="45.659895" lon="10.0658856"><ele>294.5</ele><time>2026-04-26T07:09:55.087Z</time></trkpt><trkpt lat="45.6599744" lon="10.0660556"><ele>300.75</ele><time>2026-04-26T07:09:56.087Z</time></trkpt><trkpt lat="45.6600482" lon="10.0662174"><ele>307.0</ele><time>2026-04-26T07:09:57.086Z</time></trkpt><trkpt lat="45.6601159" lon="10.0663728"><ele>307.0</ele><time>2026-04-26T07:09:58.087Z</time></trkpt><trkpt lat="45.6601808" lon="10.066527"><ele>307.0</ele><time>2026-04-26T07:09:59.087Z</time></trkpt><trkpt lat="45.6602521" lon="10.0666834"><ele>307.0</ele><time>2026-04-26T07:10:00.087Z</time></trkpt><trkpt lat="45.6603256" lon="10.0668529"><ele>307.0</ele><time>2026-04-26T07:10:01.087Z</time></trkpt><trkpt lat="45.6604018" lon="10.06704"><ele>309.0</ele><time>2026-04-26T07:10:02.086Z</time></trkpt><trkpt lat="45.6604858" lon="10.0672373"><ele>311.0</ele><time>2026-04-26T07:10:03.086Z</time></trkpt><trkpt lat="45.6605753" lon="10.0674472"><ele>313.0</ele><time>2026-04-26T07:10:04.086Z</time></trkpt><trkpt lat="45.6606655" lon="10.0676558"><ele>313.0</ele><time>2026-04-26T07:10:05.087Z</time></trkpt><trkpt lat="45.6607431" lon="10.0678546"><ele>313.0</ele><time>2026-04-26T07:10:06.087Z</time></trkpt><trkpt lat="45.6608046" lon="10.0680372"><ele>313.0</ele><time>2026-04-26T07:10:07.086Z</time></trkpt><trkpt lat="45.660851" lon="10.0682123"><ele>313.0</ele><time>2026-04-26T07:10:08.087Z</time></trkpt><trkpt lat="45.6608823" lon="10.0683939"><ele>316.6</ele><time>2026-04-26T07:10:09.087Z</time></trkpt><trkpt lat="45.6608984" lon="10.0685786"><ele>320.20000000000005</ele><time>2026-04-26T07:10:10.087Z</time></trkpt><trkpt lat="45.6608983" lon="10.0687492"><ele>323.8</ele><time>2026-04-26T07:10:11.087Z</time></trkpt><trkpt lat="45.660913" lon="10.0688873"><ele>327.40000000000003</ele><time>2026-04-26T07:10:12.087Z</time></trkpt><trkpt lat="45.660958" lon="10.0689995"><ele>331.0</ele><time>2026-04-26T07:10:13.087Z</time></trkpt><trkpt lat="45.6610198" lon="10.0690548"><ele>331.0</ele><time>2026-04-26T07:10:14.087Z</time></trkpt><trkpt lat="45.6611032" lon="10.0690424"><ele>331.0</ele><time>2026-04-26T07:10:15.087Z</time></trkpt><trkpt lat="45.6611835" lon="10.0689659"><ele>331.0</ele><time>2026-04-26T07:10:16.087Z</time></trkpt><trkpt lat="45.6612552" lon="10.0688416"><ele>331.0</ele><time>2026-04-26T07:10:17.087Z</time></trkpt><trkpt lat="45.6613036" lon="10.0686661"><ele>331.0</ele><time>2026-04-26T07:10:18.087Z</time></trkpt><trkpt lat="45.66135" lon="10.068481"><ele>331.75</ele><time>2026-04-26T07:10:19.087Z</time></trkpt><trkpt lat="45.6614042" lon="10.0683206"><ele>332.5</ele><time>2026-04-26T07:10:20.086Z</time></trkpt><trkpt lat="45.6614769" lon="10.0681958"><ele>333.25</ele><time>2026-04-26T07:10:21.087Z</time></trkpt><trkpt lat="45.661571" lon="10.0681128"><ele>334.0</ele><time>2026-04-26T07:10:22.087Z</time></trkpt><trkpt lat="45.6616912" lon="10.0680712"><ele>330.75</ele><time>2026-04-26T07:10:23.087Z</time></trkpt><trkpt lat="45.661816" lon="10.0680529"><ele>327.5</ele><time>2026-04-26T07:10:24.087Z</time></trkpt><trkpt lat="45.6619359" lon="10.0680735"><ele>324.25</ele><time>2026-04-26T07:10:25.087Z</time></trkpt><trkpt lat="45.6620454" lon="10.0681444"><ele>321.0</ele><time>2026-04-26T07:10:26.087Z</time></trkpt><trkpt lat="45.6621589" lon="10.0682573"><ele>325.0</ele><time>2026-04-26T07:10:27.086Z</time></trkpt><trkpt lat="45.6622682" lon="10.0684049"><ele>329.0</ele><time>2026-04-26T07:10:28.087Z</time></trkpt><trkpt lat="45.662378" lon="10.0685602"><ele>333.0</ele><time>2026-04-26T07:10:29.087Z</time></trkpt><trkpt lat="45.6624868" lon="10.0687165"><ele>333.0</ele><time>2026-04-26T07:10:30.087Z</time></trkpt><trkpt lat="45.6625825" lon="10.0688646"><ele>333.0</ele><time>2026-04-26T07:10:31.086Z</time></trkpt><trkpt lat="45.6626829" lon="10.0689857"><ele>333.0</ele><time>2026-04-26T07:10:32.087Z</time></trkpt><trkpt lat="45.6627977" lon="10.069062"><ele>333.0</ele><time>2026-04-26T07:10:33.087Z</time></trkpt><trkpt lat="45.662916" lon="10.0690818"><ele>336.0</ele><time>2026-04-26T07:10:34.086Z</time></trkpt><trkpt lat="45.6630344" lon="10.0690476"><ele>339.0</ele><time>2026-04-26T07:10:35.087Z</time></trkpt><trkpt lat="45.6631388" lon="10.0689609"><ele>342.0</ele><time>2026-04-26T07:10:36.086Z</time></trkpt><trkpt lat="45.6632396" lon="10.0688545"><ele>345.0</ele><time>2026-04-26T07:10:37.086Z</time></trkpt><trkpt lat="45.6633408" lon="10.0687828"><ele>345.0</ele><time>2026-04-26T07:10:38.087Z</time></trkpt><trkpt lat="45.6634393" lon="10.0687604"><ele>345.0</ele><time>2026-04-26T07:10:39.087Z</time></trkpt><trkpt lat="45.6635254" lon="10.0687966"><ele>345.0</ele><time>2026-04-26T07:10:40.087Z</time></trkpt><trkpt lat="45.6635832" lon="10.0688827"><ele>345.0</ele><time>2026-04-26T07:10:41.087Z</time></trkpt><trkpt lat="45.6636042" lon="10.0689991"><ele>345.0</ele><time>2026-04-26T07:10:42.087Z</time></trkpt><trkpt lat="45.6635862" lon="10.0691279"><ele>345.0</ele><time>2026-04-26T07:10:43.086Z</time></trkpt><trkpt lat="45.6635318" lon="10.069256"><ele>345.5</ele><time>2026-04-26T07:10:44.087Z</time></trkpt><trkpt lat="45.6634617" lon="10.0693933"><ele>346.0</ele><time>2026-04-26T07:10:45.087Z</time></trkpt><trkpt lat="45.6634006" lon="10.0695495"><ele>346.5</ele><time>2026-04-26T07:10:46.086Z</time></trkpt><trkpt lat="45.6633569" lon="10.0697013"><ele>347.0</ele><time>2026-04-26T07:10:47.087Z</time></trkpt><trkpt lat="45.6633264" lon="10.0698387"><ele>347.0</ele><time>2026-04-26T07:10:48.087Z</time></trkpt><trkpt lat="45.6632887" lon="10.0699471"><ele>347.0</ele><time>2026-04-26T07:10:49.087Z</time></trkpt><trkpt lat="45.6632232" lon="10.0700307"><ele>347.0</ele><time>2026-04-26T07:10:50.087Z</time></trkpt><trkpt lat="45.6631403" lon="10.0700653"><ele>347.0</ele><time>2026-04-26T07:10:51.087Z</time></trkpt><trkpt lat="45.6630637" lon="10.0700407"><ele>347.0</ele><time>2026-04-26T07:10:52.087Z</time></trkpt><trkpt lat="45.6630049" lon="10.0699604"><ele>347.0</ele><time>2026-04-26T07:10:53.087Z</time></trkpt><trkpt lat="45.6629437" lon="10.0698489"><ele>347.0</ele><time>2026-04-26T07:10:54.087Z</time></trkpt><trkpt lat="45.6628775" lon="10.0697291"><ele>347.0</ele><time>2026-04-26T07:10:55.087Z</time></trkpt><trkpt lat="45.6627994" lon="10.0696121"><ele>347.0</ele><time>2026-04-26T07:10:56.086Z</time></trkpt><trkpt lat="45.6627118" lon="10.0695384"><ele>347.0</ele><time>2026-04-26T07:10:57.087Z</time></trkpt><trkpt lat="45.662609" lon="10.0694989"><ele>347.0</ele><time>2026-04-26T07:10:58.087Z</time></trkpt><trkpt lat="45.6624905" lon="10.069485"><ele>347.25</ele><time>2026-04-26T07:10:59.087Z</time></trkpt><trkpt lat="45.6623677" lon="10.0694481"><ele>347.5</ele><time>2026-04-26T07:11:00.087Z</time></trkpt><trkpt lat="45.6622382" lon="10.0693853"><ele>347.75</ele><time>2026-04-26T07:11:01.086Z</time></trkpt><trkpt lat="45.6621223" lon="10.0693218"><ele>348.0</ele><time>2026-04-26T07:11:02.087Z</time></trkpt><trkpt lat="45.662025" lon="10.0692494"><ele>348.0</ele><time>2026-04-26T07:11:03.086Z</time></trkpt><trkpt lat="45.661963" lon="10.0691414"><ele>348.0</ele><time>2026-04-26T07:11:04.087Z</time></trkpt><trkpt lat="45.661928" lon="10.0690206"><ele>348.0</ele><time>2026-04-26T07:11:05.087Z</time></trkpt><trkpt lat="45.661879" lon="10.0689272"><ele>348.0</ele><time>2026-04-26T07:11:06.087Z</time></trkpt><trkpt lat="45.6618038" lon="10.0688825"><ele>348.0</ele><time>2026-04-26T07:11:07.087Z</time></trkpt><trkpt lat="45.6617227" lon="10.0688832"><ele>348.0</ele><time>2026-04-26T07:11:08.086Z</time></trkpt><trkpt lat="45.6616487" lon="10.0689472"><ele>349.0</ele><time>2026-04-26T07:11:09.087Z</time></trkpt><trkpt lat="45.6615771" lon="10.0690632"><ele>350.0</ele><time>2026-04-26T07:11:10.087Z</time></trkpt><trkpt lat="45.6615019" lon="10.0692029"><ele>351.0</ele><time>2026-04-26T07:11:11.087Z</time></trkpt><trkpt lat="45.6614142" lon="10.0693685"><ele>352.0</ele><time>2026-04-26T07:11:12.087Z</time></trkpt><trkpt lat="45.6613205" lon="10.0695498"><ele>352.0</ele><time>2026-04-26T07:11:13.087Z</time></trkpt><trkpt lat="45.6612241" lon="10.0697529"><ele>352.0</ele><time>2026-04-26T07:11:14.087Z</time></trkpt><trkpt lat="45.6611343" lon="10.0699525"><ele>352.0</ele><time>2026-04-26T07:11:15.087Z</time></trkpt><trkpt lat="45.6610504" lon="10.070122"><ele>355.5</ele><time>2026-04-26T07:11:16.086Z</time></trkpt><trkpt lat="45.6609654" lon="10.0702751"><ele>359.0</ele><time>2026-04-26T07:11:17.087Z</time></trkpt><trkpt lat="45.6608788" lon="10.070407"><ele>362.5</ele><time>2026-04-26T07:11:18.087Z</time></trkpt><trkpt lat="45.6607922" lon="10.0704998"><ele>366.0</ele><time>2026-04-26T07:11:19.087Z</time></trkpt><trkpt lat="45.6607106" lon="10.070534"><ele>366.0</ele><time>2026-04-26T07:11:20.087Z</time></trkpt><trkpt lat="45.6606368" lon="10.0705138"><ele>366.0</ele><time>2026-04-26T07:11:21.087Z</time></trkpt><trkpt lat="45.660572" lon="10.0704368"><ele>366.0</ele><time>2026-04-26T07:11:22.087Z</time></trkpt><trkpt lat="45.6605304" lon="10.0703118"><ele>366.0</ele><time>2026-04-26T07:11:23.087Z</time></trkpt><trkpt lat="45.6604827" lon="10.0701912"><ele>366.0</ele><time>2026-04-26T07:11:24.086Z</time></trkpt><trkpt lat="45.6604019" lon="10.0700887"><ele>366.0</ele><time>2026-04-26T07:11:25.086Z</time></trkpt><trkpt lat="45.6603006" lon="10.0699976"><ele>366.0</ele><time>2026-04-26T07:11:26.087Z</time></trkpt><trkpt lat="45.6601803" lon="10.0699001"><ele>366.0</ele><time>2026-04-26T07:11:27.087Z</time></trkpt><trkpt lat="45.660053" lon="10.0697972"><ele>366.0</ele><time>2026-04-26T07:11:28.087Z</time></trkpt><trkpt lat="45.6599127" lon="10.0696842"><ele>368.0</ele><time>2026-04-26T07:11:29.087Z</time></trkpt><trkpt lat="45.6597645" lon="10.0695748"><ele>370.0</ele><time>2026-04-26T07:11:30.087Z</time></trkpt><trkpt lat="45.6596281" lon="10.0694726"><ele>372.0</ele><time>2026-04-26T07:11:31.087Z</time></trkpt><trkpt lat="45.6595095" lon="10.0693721"><ele>372.6</ele><time>2026-04-26T07:11:32.087Z</time></trkpt><trkpt lat="45.659422" lon="10.0692709"><ele>373.20000000000005</ele><time>2026-04-26T07:11:33.087Z</time></trkpt><trkpt lat="45.659365" lon="10.0691607"><ele>373.8</ele><time>2026-04-26T07:11:34.087Z</time></trkpt><trkpt lat="45.6593437" lon="10.0690265"><ele>374.4</ele><time>2026-04-26T07:11:35.086Z</time></trkpt><trkpt lat="45.6593482" lon="10.0688974"><ele>375.0</ele><time>2026-04-26T07:11:36.087Z</time></trkpt><trkpt lat="45.6593372" lon="10.0687865"><ele>375.0</ele><time>2026-04-26T07:11:37.087Z</time></trkpt><trkpt lat="45.6592913" lon="10.0687016"><ele>375.0</ele><time>2026-04-26T07:11:38.086Z</time></trkpt><trkpt lat="45.6592231" lon="10.068654"><ele>375.0</ele><time>2026-04-26T07:11:39.087Z</time></trkpt><trkpt lat="45.6591438" lon="10.0686682"><ele>375.0</ele><time>2026-04-26T07:11:40.087Z</time></trkpt><trkpt lat="45.6590873" lon="10.0687304"><ele>375.0</ele><time>2026-04-26T07:11:41.087Z</time></trkpt><trkpt lat="45.6590694" lon="10.0688306"><ele>375.0</ele><time>2026-04-26T07:11:42.086Z</time></trkpt><trkpt lat="45.65909" lon="10.0689477"><ele>375.0</ele><time>2026-04-26T07:11:43.087Z</time></trkpt><trkpt lat="45.6591439" lon="10.0690771"><ele>375.0</ele><time>2026-04-26T07:11:44.087Z</time></trkpt><trkpt lat="45.6592195" lon="10.0692024"><ele>375.0</ele><time>2026-04-26T07:11:45.087Z</time></trkpt><trkpt lat="45.6592983" lon="10.069356"><ele>375.0</ele><time>2026-04-26T07:11:46.086Z</time></trkpt><trkpt lat="45.6593847" lon="10.0695037"><ele>374.25</ele><time>2026-04-26T07:11:47.087Z</time></trkpt><trkpt lat="45.6594736" lon="10.0696688"><ele>373.5</ele><time>2026-04-26T07:11:48.087Z</time></trkpt><trkpt lat="45.6595421" lon="10.0698517"><ele>372.75</ele><time>2026-04-26T07:11:49.087Z</time></trkpt><trkpt lat="45.6596037" lon="10.0700334"><ele>372.0</ele><time>2026-04-26T07:11:50.087Z</time></trkpt><trkpt lat="45.6596714" lon="10.0702066"><ele>374.75</ele><time>2026-04-26T07:11:51.087Z</time></trkpt><trkpt lat="45.6597297" lon="10.0703699"><ele>377.5</ele><time>2026-04-26T07:11:52.087Z</time></trkpt><trkpt lat="45.6597659" lon="10.0705406"><ele>380.25</ele><time>2026-04-26T07:11:53.087Z</time></trkpt><trkpt lat="45.6597865" lon="10.0707194"><ele>383.0</ele><time>2026-04-26T07:11:54.087Z</time></trkpt><trkpt lat="45.6598228" lon="10.0708996"><ele>386.5</ele><time>2026-04-26T07:11:55.087Z</time></trkpt><trkpt lat="45.6598821" lon="10.0710823"><ele>390.0</ele><time>2026-04-26T07:11:56.087Z</time></trkpt><trkpt lat="45.6599555" lon="10.0712614"><ele>393.5</ele><time>2026-04-26T07:11:57.087Z</time></trkpt><trkpt lat="45.6600255" lon="10.0714451"><ele>397.0</ele><time>2026-04-26T07:11:58.087Z</time></trkpt><trkpt lat="45.6601044" lon="10.0716205"><ele>398.5</ele><time>2026-04-26T07:11:59.087Z</time></trkpt><trkpt lat="45.6602058" lon="10.0717644"><ele>400.0</ele><time>2026-04-26T07:12:00.087Z</time></trkpt><trkpt lat="45.6603197" lon="10.0718906"><ele>401.5</ele><time>2026-04-26T07:12:01.086Z</time></trkpt><trkpt lat="45.6604395" lon="10.0720052"><ele>403.0</ele><time>2026-04-26T07:12:02.087Z</time></trkpt><trkpt lat="45.6605719" lon="10.0721004"><ele>403.0</ele><time>2026-04-26T07:12:03.087Z</time></trkpt><trkpt lat="45.6607133" lon="10.072175"><ele>403.0</ele><time>2026-04-26T07:12:04.087Z</time></trkpt><trkpt lat="45.660858" lon="10.0722271"><ele>403.0</ele><time>2026-04-26T07:12:05.086Z</time></trkpt><trkpt lat="45.6609991" lon="10.072273"><ele>403.0</ele><time>2026-04-26T07:12:06.087Z</time></trkpt><trkpt lat="45.6611342" lon="10.072325"><ele>401.0</ele><time>2026-04-26T07:12:07.087Z</time></trkpt><trkpt lat="45.6612618" lon="10.0724093"><ele>399.0</ele><time>2026-04-26T07:12:08.087Z</time></trkpt><trkpt lat="45.6613856" lon="10.0725085"><ele>397.0</ele><time>2026-04-26T07:12:09.087Z</time></trkpt><trkpt lat="45.6615056" lon="10.0726105"><ele>395.0</ele><time>2026-04-26T07:12:10.087Z</time></trkpt><trkpt lat="45.6616101" lon="10.0727086"><ele>399.2</ele><time>2026-04-26T07:12:11.087Z</time></trkpt><trkpt lat="45.6616939" lon="10.0728122"><ele>403.4</ele><time>2026-04-26T07:12:12.087Z</time></trkpt><trkpt lat="45.6617593" lon="10.0729295"><ele>407.6</ele><time>2026-04-26T07:12:13.087Z</time></trkpt><trkpt lat="45.6618089" lon="10.0730696"><ele>411.8</ele><time>2026-04-26T07:12:14.087Z</time></trkpt><trkpt lat="45.6618586" lon="10.0732056"><ele>416.0</ele><time>2026-04-26T07:12:15.087Z</time></trkpt><trkpt lat="45.6619116" lon="10.0733329"><ele>417.4285714285714</ele><time>2026-04-26T07:12:16.087Z</time></trkpt><trkpt lat="45.6619658" lon="10.0734414"><ele>418.8571428571429</ele><time>2026-04-26T07:12:17.086Z</time></trkpt><trkpt lat="45.6620001" lon="10.0735383"><ele>420.2857142857143</ele><time>2026-04-26T07:12:18.087Z</time></trkpt><trkpt lat="45.6620148" lon="10.0736383"><ele>421.71428571428567</ele><time>2026-04-26T07:12:19.086Z</time></trkpt><trkpt lat="45.6620014" lon="10.0737323"><ele>423.1428571428571</ele><time>2026-04-26T07:12:20.087Z</time></trkpt><trkpt lat="45.6619525" lon="10.0738016"><ele>424.57142857142856</ele><time>2026-04-26T07:12:21.087Z</time></trkpt><trkpt lat="45.6618853" lon="10.0738243"><ele>426.0</ele><time>2026-04-26T07:12:22.086Z</time></trkpt><trkpt lat="45.6618158" lon="10.0737903"><ele>428.0</ele><time>2026-04-26T07:12:23.086Z</time></trkpt><trkpt lat="45.6617657" lon="10.0737013"><ele>430.0</ele><time>2026-04-26T07:12:24.087Z</time></trkpt><trkpt lat="45.661747" lon="10.0735736"><ele>432.0</ele><time>2026-04-26T07:12:25.086Z</time></trkpt><trkpt lat="45.6617431" lon="10.0734208"><ele>434.0</ele><time>2026-04-26T07:12:26.086Z</time></trkpt><trkpt lat="45.6617154" lon="10.0732737"><ele>436.0</ele><time>2026-04-26T07:12:27.087Z</time></trkpt><trkpt lat="45.6616585" lon="10.0731457"><ele>431.0</ele><time>2026-04-26T07:12:28.087Z</time></trkpt><trkpt lat="45.6615689" lon="10.0730434"><ele>426.0</ele><time>2026-04-26T07:12:29.086Z</time></trkpt><trkpt lat="45.6614505" lon="10.0729588"><ele>421.0</ele><time>2026-04-26T07:12:30.086Z</time></trkpt><trkpt lat="45.6613124" lon="10.0729052"><ele>416.0</ele><time>2026-04-26T07:12:31.087Z</time></trkpt><trkpt lat="45.661167" lon="10.0728805"><ele>418.5</ele><time>2026-04-26T07:12:32.086Z</time></trkpt><trkpt lat="45.6610252" lon="10.0728492"><ele>421.0</ele><time>2026-04-26T07:12:33.087Z</time></trkpt><trkpt lat="45.6609012" lon="10.0728033"><ele>423.5</ele><time>2026-04-26T07:12:34.087Z</time></trkpt><trkpt lat="45.6607948" lon="10.0727992"><ele>426.0</ele><time>2026-04-26T07:12:35.087Z</time></trkpt><trkpt lat="45.6606945" lon="10.0728295"><ele>426.0</ele><time>2026-04-26T07:12:36.087Z</time></trkpt><trkpt lat="45.66059" lon="10.0728976"><ele>426.0</ele><time>2026-04-26T07:12:37.087Z</time></trkpt><trkpt lat="45.6604861" lon="10.0729918"><ele>426.0</ele><time>2026-04-26T07:12:38.086Z</time></trkpt><trkpt lat="45.6603747" lon="10.0730936"><ele>426.0</ele><time>2026-04-26T07:12:39.087Z</time></trkpt><trkpt lat="45.6602731" lon="10.0731627"><ele>426.8</ele><time>2026-04-26T07:12:40.087Z</time></trkpt><trkpt lat="45.6601832" lon="10.0732183"><ele>427.6</ele><time>2026-04-26T07:12:41.087Z</time></trkpt><trkpt lat="45.6601018" lon="10.0732573"><ele>428.4</ele><time>2026-04-26T07:12:42.087Z</time></trkpt><trkpt lat="45.6600168" lon="10.0732597"><ele>429.2</ele><time>2026-04-26T07:12:43.087Z</time></trkpt><trkpt lat="45.6599216" lon="10.0732295"><ele>430.0</ele><time>2026-04-26T07:12:44.087Z</time></trkpt><trkpt lat="45.6598183" lon="10.0731816"><ele>430.0</ele><time>2026-04-26T07:12:45.087Z</time></trkpt><trkpt lat="45.6597003" lon="10.0731183"><ele>430.0</ele><time>2026-04-26T07:12:46.087Z</time></trkpt><trkpt lat="45.6595778" lon="10.0730488"><ele>430.0</ele><time>2026-04-26T07:12:47.087Z</time></trkpt><trkpt lat="45.6594428" lon="10.0729869"><ele>430.0</ele><time>2026-04-26T07:12:48.087Z</time></trkpt><trkpt lat="45.6593047" lon="10.072943"><ele>434.5</ele><time>2026-04-26T07:12:49.086Z</time></trkpt><trkpt lat="45.6591718" lon="10.072883"><ele>439.0</ele><time>2026-04-26T07:12:50.086Z</time></trkpt><trkpt lat="45.659044" lon="10.0728154"><ele>443.5</ele><time>2026-04-26T07:12:51.087Z</time></trkpt><trkpt lat="45.6589088" lon="10.0727516"><ele>448.0</ele><time>2026-04-26T07:12:52.086Z</time></trkpt><trkpt lat="45.6587754" lon="10.0726775"><ele>448.0</ele><time>2026-04-26T07:12:53.086Z</time></trkpt><trkpt lat="45.6586594" lon="10.0725626"><ele>448.0</ele><time>2026-04-26T07:12:54.087Z</time></trkpt><trkpt lat="45.6585441" lon="10.0724678"><ele>448.0</ele><time>2026-04-26T07:12:55.087Z</time></trkpt><trkpt lat="45.6584292" lon="10.0723733"><ele>448.0</ele><time>2026-04-26T07:12:56.087Z</time></trkpt><trkpt lat="45.658344" lon="10.0722581"><ele>447.75</ele><time>2026-04-26T07:12:57.087Z</time></trkpt><trkpt lat="45.6582531" lon="10.0721557"><ele>447.5</ele><time>2026-04-26T07:12:58.087Z</time></trkpt><trkpt lat="45.6581443" lon="10.0720845"><ele>447.25</ele><time>2026-04-26T07:12:59.086Z</time></trkpt><trkpt lat="45.6580179" lon="10.07203"><ele>447.0</ele><time>2026-04-26T07:13:00.087Z</time></trkpt><trkpt lat="45.657888" lon="10.0719781"><ele>453.0</ele><time>2026-04-26T07:13:01.087Z</time></trkpt><trkpt lat="45.6577484" lon="10.0719428"><ele>459.0</ele><time>2026-04-26T07:13:02.087Z</time></trkpt><trkpt lat="45.6575979" lon="10.0719108"><ele>465.0</ele><time>2026-04-26T07:13:03.087Z</time></trkpt><trkpt lat="45.6574382" lon="10.0718851"><ele>465.0</ele><time>2026-04-26T07:13:04.087Z</time></trkpt><trkpt lat="45.6572795" lon="10.0718451"><ele>465.0</ele><time>2026-04-26T07:13:05.086Z</time></trkpt><trkpt lat="45.6571268" lon="10.0718085"><ele>465.0</ele><time>2026-04-26T07:13:06.087Z</time></trkpt><trkpt lat="45.6569859" lon="10.0717817"><ele>467.75</ele><time>2026-04-26T07:13:07.087Z</time></trkpt><trkpt lat="45.6568516" lon="10.0717472"><ele>470.5</ele><time>2026-04-26T07:13:08.087Z</time></trkpt><trkpt lat="45.6567453" lon="10.0716799"><ele>473.25</ele><time>2026-04-26T07:13:09.087Z</time></trkpt><trkpt lat="45.6566365" lon="10.0715918"><ele>476.0</ele><time>2026-04-26T07:13:10.087Z</time></trkpt><trkpt lat="45.6565156" lon="10.071517"><ele>471.25</ele><time>2026-04-26T07:13:11.086Z</time></trkpt><trkpt lat="45.6563893" lon="10.0714568"><ele>466.5</ele><time>2026-04-26T07:13:12.086Z</time></trkpt><trkpt lat="45.6562614" lon="10.0713959"><ele>461.75</ele><time>2026-04-26T07:13:13.087Z</time></trkpt><trkpt lat="45.6561499" lon="10.0713276"><ele>457.0</ele><time>2026-04-26T07:13:14.087Z</time></trkpt><trkpt lat="45.6560584" lon="10.0712434"><ele>457.00000000000006</ele><time>2026-04-26T07:13:15.087Z</time></trkpt><trkpt lat="45.65598" lon="10.0711639"><ele>457.0</ele><time>2026-04-26T07:13:16.087Z</time></trkpt><trkpt lat="45.6559111" lon="10.0711025"><ele>457.0</ele><time>2026-04-26T07:13:17.086Z</time></trkpt><trkpt lat="45.6558457" lon="10.0710692"><ele>457.0</ele><time>2026-04-26T07:13:18.087Z</time></trkpt><trkpt lat="45.6557411" lon="10.0711312"><ele>457.00000000000006</ele><time>2026-04-26T07:13:20.087Z</time></trkpt><trkpt lat="45.6557201" lon="10.0712377"><ele>457.0</ele><time>2026-04-26T07:13:21.086Z</time></trkpt><trkpt lat="45.6557148" lon="10.0713794"><ele>457.0</ele><time>2026-04-26T07:13:22.087Z</time></trkpt><trkpt lat="45.6557057" lon="10.0715459"><ele>457.0</ele><time>2026-04-26T07:13:23.087Z</time></trkpt><trkpt lat="45.6556673" lon="10.0717118"><ele>457.0</ele><time>2026-04-26T07:13:24.087Z</time></trkpt><trkpt lat="45.6556252" lon="10.0718764"><ele>457.0</ele><time>2026-04-26T07:13:25.087Z</time></trkpt><trkpt lat="45.6555901" lon="10.0720387"><ele>457.40000000000003</ele><time>2026-04-26T07:13:26.087Z</time></trkpt><trkpt lat="45.6555419" lon="10.0721762"><ele>457.80000000000007</ele><time>2026-04-26T07:13:27.087Z</time></trkpt><trkpt lat="45.6554694" lon="10.0722833"><ele>458.2</ele><time>2026-04-26T07:13:28.087Z</time></trkpt><trkpt lat="45.6553807" lon="10.0723419"><ele>458.6</ele><time>2026-04-26T07:13:29.087Z</time></trkpt><trkpt lat="45.6552763" lon="10.0723563"><ele>459.0</ele><time>2026-04-26T07:13:30.087Z</time></trkpt><trkpt lat="45.6551535" lon="10.0723438"><ele>459.0</ele><time>2026-04-26T07:13:31.087Z</time></trkpt><trkpt lat="45.6550244" lon="10.0723368"><ele>459.0</ele><time>2026-04-26T07:13:32.087Z</time></trkpt><trkpt lat="45.6548888" lon="10.0723379"><ele>459.0</ele><time>2026-04-26T07:13:33.087Z</time></trkpt><trkpt lat="45.6547495" lon="10.0723391"><ele>459.0</ele><time>2026-04-26T07:13:34.087Z</time></trkpt><trkpt lat="45.6546166" lon="10.0723384"><ele>459.0</ele><time>2026-04-26T07:13:35.087Z</time></trkpt><trkpt lat="45.6544991" lon="10.0723448"><ele>459.0</ele><time>2026-04-26T07:13:36.086Z</time></trkpt><trkpt lat="45.6543869" lon="10.0723632"><ele>459.0</ele><time>2026-04-26T07:13:37.087Z</time></trkpt><trkpt lat="45.6543355" lon="10.0724347"><ele>459.0</ele><time>2026-04-26T07:13:38.087Z</time></trkpt><trkpt lat="45.6542978" lon="10.0725323"><ele>459.0</ele><time>2026-04-26T07:13:39.087Z</time></trkpt><trkpt lat="45.6542951" lon="10.0726516"><ele>462.5</ele><time>2026-04-26T07:13:40.087Z</time></trkpt><trkpt lat="45.6543374" lon="10.0727693"><ele>466.0</ele><time>2026-04-26T07:13:41.087Z</time></trkpt><trkpt lat="45.6544207" lon="10.0728983"><ele>469.5</ele><time>2026-04-26T07:13:42.087Z</time></trkpt><trkpt lat="45.6545185" lon="10.0730537"><ele>473.0</ele><time>2026-04-26T07:13:43.087Z</time></trkpt><trkpt lat="45.6546476" lon="10.0731954"><ele>477.0</ele><time>2026-04-26T07:13:44.087Z</time></trkpt><trkpt lat="45.6548154" lon="10.0733139"><ele>481.0</ele><time>2026-04-26T07:13:45.087Z</time></trkpt><trkpt lat="45.6550016" lon="10.0734322"><ele>485.0</ele><time>2026-04-26T07:13:46.087Z</time></trkpt><trkpt lat="45.6551793" lon="10.0735647"><ele>490.66666666666663</ele><time>2026-04-26T07:13:47.087Z</time></trkpt><trkpt lat="45.6553461" lon="10.0737003"><ele>496.33333333333337</ele><time>2026-04-26T07:13:48.087Z</time></trkpt><trkpt lat="45.6555054" lon="10.0738398"><ele>502.0</ele><time>2026-04-26T07:13:49.087Z</time></trkpt><trkpt lat="45.6556584" lon="10.0740167"><ele>497.6666666666667</ele><time>2026-04-26T07:13:50.087Z</time></trkpt><trkpt lat="45.6558064" lon="10.0742202"><ele>493.33333333333337</ele><time>2026-04-26T07:13:51.087Z</time></trkpt><trkpt lat="45.6559613" lon="10.0744162"><ele>489.0</ele><time>2026-04-26T07:13:52.087Z</time></trkpt><trkpt lat="45.6561049" lon="10.0745991"><ele>490.33333333333337</ele><time>2026-04-26T07:13:53.087Z</time></trkpt><trkpt lat="45.6562138" lon="10.0747934"><ele>491.6666666666667</ele><time>2026-04-26T07:13:54.087Z</time></trkpt><trkpt lat="45.6562995" lon="10.0750253"><ele>493.0</ele><time>2026-04-26T07:13:55.087Z</time></trkpt><trkpt lat="45.6563866" lon="10.0752693"><ele>493.0</ele><time>2026-04-26T07:13:56.087Z</time></trkpt><trkpt lat="45.6564899" lon="10.0755186"><ele>493.0</ele><time>2026-04-26T07:13:57.086Z</time></trkpt><trkpt lat="45.6565976" lon="10.0757719"><ele>493.0</ele><time>2026-04-26T07:13:58.087Z</time></trkpt><trkpt lat="45.6566951" lon="10.0760167"><ele>494.0</ele><time>2026-04-26T07:13:59.087Z</time></trkpt><trkpt lat="45.6567775" lon="10.0762413"><ele>495.0</ele><time>2026-04-26T07:14:00.087Z</time></trkpt><trkpt lat="45.6568543" lon="10.0764496"><ele>496.0</ele><time>2026-04-26T07:14:01.087Z</time></trkpt><trkpt lat="45.6569295" lon="10.076642"><ele>497.5</ele><time>2026-04-26T07:14:02.087Z</time></trkpt><trkpt lat="45.6570132" lon="10.0768008"><ele>499.0</ele><time>2026-04-26T07:14:03.087Z</time></trkpt><trkpt lat="45.6571086" lon="10.0769373"><ele>500.5</ele><time>2026-04-26T07:14:04.087Z</time></trkpt><trkpt lat="45.6572155" lon="10.0770471"><ele>502.0</ele><time>2026-04-26T07:14:05.086Z</time></trkpt><trkpt lat="45.6573172" lon="10.0771414"><ele>502.0</ele><time>2026-04-26T07:14:06.087Z</time></trkpt><trkpt lat="45.6574058" lon="10.077244"><ele>502.0</ele><time>2026-04-26T07:14:07.087Z</time></trkpt><trkpt lat="45.6574881" lon="10.0773782"><ele>502.0</ele><time>2026-04-26T07:14:08.087Z</time></trkpt><trkpt lat="45.6575618" lon="10.0775432"><ele>502.0</ele><time>2026-04-26T07:14:09.087Z</time></trkpt><trkpt lat="45.6576499" lon="10.0776901"><ele>504.33333333333337</ele><time>2026-04-26T07:14:10.087Z</time></trkpt><trkpt lat="45.657767" lon="10.0778163"><ele>506.66666666666663</ele><time>2026-04-26T07:14:11.087Z</time></trkpt><trkpt lat="45.6579055" lon="10.0779493"><ele>509.0</ele><time>2026-04-26T07:14:12.087Z</time></trkpt><trkpt lat="45.6580565" lon="10.0781059"><ele>511.3333333333333</ele><time>2026-04-26T07:14:13.087Z</time></trkpt><trkpt lat="45.6582207" lon="10.0782797"><ele>513.6666666666666</ele><time>2026-04-26T07:14:14.086Z</time></trkpt><trkpt lat="45.6583873" lon="10.0784614"><ele>516.0</ele><time>2026-04-26T07:14:15.087Z</time></trkpt><trkpt lat="45.6585408" lon="10.0786272"><ele>518.5</ele><time>2026-04-26T07:14:16.086Z</time></trkpt><trkpt lat="45.658673" lon="10.0787619"><ele>521.0</ele><time>2026-04-26T07:14:17.087Z</time></trkpt><trkpt lat="45.6587878" lon="10.0788704"><ele>523.5</ele><time>2026-04-26T07:14:18.087Z</time></trkpt><trkpt lat="45.6589021" lon="10.0789593"><ele>526.0</ele><time>2026-04-26T07:14:19.087Z</time></trkpt><trkpt lat="45.6590089" lon="10.0790013"><ele>526.0</ele><time>2026-04-26T07:14:20.087Z</time></trkpt><trkpt lat="45.6591254" lon="10.0790081"><ele>526.0</ele><time>2026-04-26T07:14:21.087Z</time></trkpt><trkpt lat="45.6592596" lon="10.0789785"><ele>526.0</ele><time>2026-04-26T07:14:22.087Z</time></trkpt><trkpt lat="45.6594091" lon="10.0789233"><ele>526.0</ele><time>2026-04-26T07:14:23.087Z</time></trkpt><trkpt lat="45.6595841" lon="10.0788585"><ele>528.6666666666667</ele><time>2026-04-26T07:14:24.087Z</time></trkpt><trkpt lat="45.6597767" lon="10.0787885"><ele>531.3333333333334</ele><time>2026-04-26T07:14:25.087Z</time></trkpt><trkpt lat="45.6599809" lon="10.0787199"><ele>534.0</ele><time>2026-04-26T07:14:26.087Z</time></trkpt><trkpt lat="45.6601919" lon="10.0786841"><ele>534.6666666666666</ele><time>2026-04-26T07:14:27.087Z</time></trkpt><trkpt lat="45.6604004" lon="10.0786745"><ele>535.3333333333333</ele><time>2026-04-26T07:14:28.087Z</time></trkpt><trkpt lat="45.6606082" lon="10.078623"><ele>536.0</ele><time>2026-04-26T07:14:29.087Z</time></trkpt><trkpt lat="45.6608131" lon="10.0785465"><ele>536.0</ele><time>2026-04-26T07:14:30.087Z</time></trkpt><trkpt lat="45.661009" lon="10.0784965"><ele>536.0</ele><time>2026-04-26T07:14:31.086Z</time></trkpt><trkpt lat="45.6612168" lon="10.0784701"><ele>536.0</ele><time>2026-04-26T07:14:32.087Z</time></trkpt><trkpt lat="45.6614077" lon="10.0784652"><ele>536.3333333333333</ele><time>2026-04-26T07:14:33.086Z</time></trkpt><trkpt lat="45.6615927" lon="10.0784936"><ele>536.6666666666666</ele><time>2026-04-26T07:14:34.087Z</time></trkpt><trkpt lat="45.6617773" lon="10.0785358"><ele>537.0</ele><time>2026-04-26T07:14:35.086Z</time></trkpt><trkpt lat="45.6619618" lon="10.0786103"><ele>538.3333333333334</ele><time>2026-04-26T07:14:36.087Z</time></trkpt><trkpt lat="45.6621525" lon="10.0786989"><ele>539.6666666666667</ele><time>2026-04-26T07:14:37.086Z</time></trkpt><trkpt lat="45.6623339" lon="10.0787694"><ele>541.0</ele><time>2026-04-26T07:14:38.086Z</time></trkpt><trkpt lat="45.6625054" lon="10.0788315"><ele>541.0</ele><time>2026-04-26T07:14:39.087Z</time></trkpt><trkpt lat="45.6626601" lon="10.0788909"><ele>541.0</ele><time>2026-04-26T07:14:40.087Z</time></trkpt><trkpt lat="45.6627969" lon="10.0789503"><ele>541.0</ele><time>2026-04-26T07:14:41.087Z</time></trkpt><trkpt lat="45.6629036" lon="10.0790129"><ele>541.0</ele><time>2026-04-26T07:14:42.087Z</time></trkpt><trkpt lat="45.662993" lon="10.0791048"><ele>543.25</ele><time>2026-04-26T07:14:43.087Z</time></trkpt><trkpt lat="45.6630534" lon="10.0792292"><ele>545.5</ele><time>2026-04-26T07:14:44.087Z</time></trkpt><trkpt lat="45.6630993" lon="10.0793939"><ele>547.75</ele><time>2026-04-26T07:14:45.087Z</time></trkpt><trkpt lat="45.6631367" lon="10.0795894"><ele>550.0</ele><time>2026-04-26T07:14:46.087Z</time></trkpt><trkpt lat="45.6631816" lon="10.0798101"><ele>552.6666666666667</ele><time>2026-04-26T07:14:47.087Z</time></trkpt><trkpt lat="45.6632323" lon="10.0800433"><ele>555.3333333333334</ele><time>2026-04-26T07:14:48.087Z</time></trkpt><trkpt lat="45.6632959" lon="10.0802599"><ele>558.0</ele><time>2026-04-26T07:14:49.087Z</time></trkpt><trkpt lat="45.6633542" lon="10.0804967"><ele>558.0</ele><time>2026-04-26T07:14:50.086Z</time></trkpt><trkpt lat="45.6634229" lon="10.0807423"><ele>558.0</ele><time>2026-04-26T07:14:51.087Z</time></trkpt><trkpt lat="45.663485" lon="10.0809959"><ele>558.0</ele><time>2026-04-26T07:14:52.087Z</time></trkpt><trkpt lat="45.6635542" lon="10.081236"><ele>562.0</ele><time>2026-04-26T07:14:53.087Z</time></trkpt><trkpt lat="45.663625" lon="10.0814683"><ele>566.0</ele><time>2026-04-26T07:14:54.087Z</time></trkpt><trkpt lat="45.6636949" lon="10.081688"><ele>570.0</ele><time>2026-04-26T07:14:55.087Z</time></trkpt><trkpt lat="45.6637596" lon="10.0818931"><ele>573.0</ele><time>2026-04-26T07:14:56.086Z</time></trkpt><trkpt lat="45.6638232" lon="10.0820931"><ele>576.0</ele><time>2026-04-26T07:14:57.087Z</time></trkpt><trkpt lat="45.6638841" lon="10.0822937"><ele>579.0</ele><time>2026-04-26T07:14:58.087Z</time></trkpt><trkpt lat="45.6639226" lon="10.0824984"><ele>580.0</ele><time>2026-04-26T07:14:59.087Z</time></trkpt><trkpt lat="45.6639436" lon="10.0827075"><ele>581.0</ele><time>2026-04-26T07:15:00.087Z</time></trkpt><trkpt lat="45.6639467" lon="10.0829136"><ele>582.0</ele><time>2026-04-26T07:15:01.087Z</time></trkpt><trkpt lat="45.6639347" lon="10.0831193"><ele>583.0</ele><time>2026-04-26T07:15:02.087Z</time></trkpt><trkpt lat="45.6639058" lon="10.0833208"><ele>584.5</ele><time>2026-04-26T07:15:03.087Z</time></trkpt><trkpt lat="45.6638712" lon="10.083524"><ele>586.0</ele><time>2026-04-26T07:15:04.087Z</time></trkpt><trkpt lat="45.6638334" lon="10.0837278"><ele>587.5</ele><time>2026-04-26T07:15:05.087Z</time></trkpt><trkpt lat="45.6637969" lon="10.0839349"><ele>589.0</ele><time>2026-04-26T07:15:06.087Z</time></trkpt><trkpt lat="45.6637594" lon="10.0841396"><ele>592.0</ele><time>2026-04-26T07:15:07.087Z</time></trkpt><trkpt lat="45.6637243" lon="10.0843477"><ele>595.0</ele><time>2026-04-26T07:15:08.087Z</time></trkpt><trkpt lat="45.6636933" lon="10.0845524"><ele>598.0</ele><time>2026-04-26T07:15:09.087Z</time></trkpt><trkpt lat="45.663659" lon="10.0847643"><ele>601.0</ele><time>2026-04-26T07:15:10.086Z</time></trkpt><trkpt lat="45.6636336" lon="10.0849747"><ele>604.3333333333334</ele><time>2026-04-26T07:15:11.086Z</time></trkpt><trkpt lat="45.6636248" lon="10.0851914"><ele>607.6666666666666</ele><time>2026-04-26T07:15:12.087Z</time></trkpt><trkpt lat="45.6636227" lon="10.0854097"><ele>611.0</ele><time>2026-04-26T07:15:13.087Z</time></trkpt><trkpt lat="45.6636158" lon="10.0856287"><ele>600.3333333333333</ele><time>2026-04-26T07:15:14.087Z</time></trkpt><trkpt lat="45.663595" lon="10.0858431"><ele>589.6666666666666</ele><time>2026-04-26T07:15:15.087Z</time></trkpt><trkpt lat="45.6635648" lon="10.0860543"><ele>579.0</ele><time>2026-04-26T07:15:16.087Z</time></trkpt><trkpt lat="45.6635241" lon="10.0862601"><ele>579.0</ele><time>2026-04-26T07:15:17.087Z</time></trkpt><trkpt lat="45.6634831" lon="10.0864632"><ele>579.0</ele><time>2026-04-26T07:15:18.086Z</time></trkpt><trkpt lat="45.663444" lon="10.0866657"><ele>579.0</ele><time>2026-04-26T07:15:19.086Z</time></trkpt><trkpt lat="45.6634079" lon="10.086862"><ele>579.0</ele><time>2026-04-26T07:15:20.087Z</time></trkpt><trkpt lat="45.6633682" lon="10.0870605"><ele>581.5</ele><time>2026-04-26T07:15:21.087Z</time></trkpt><trkpt lat="45.6633285" lon="10.0872576"><ele>584.0</ele><time>2026-04-26T07:15:22.087Z</time></trkpt><trkpt lat="45.6632927" lon="10.0874535"><ele>586.5</ele><time>2026-04-26T07:15:23.087Z</time></trkpt><trkpt lat="45.6632616" lon="10.0876504"><ele>589.0</ele><time>2026-04-26T07:15:24.086Z</time></trkpt><trkpt lat="45.6632251" lon="10.0878474"><ele>591.75</ele><time>2026-04-26T07:15:25.087Z</time></trkpt><trkpt lat="45.6631819" lon="10.0880446"><ele>594.5</ele><time>2026-04-26T07:15:26.087Z</time></trkpt><trkpt lat="45.6631372" lon="10.0882386"><ele>597.25</ele><time>2026-04-26T07:15:27.087Z</time></trkpt><trkpt lat="45.6630892" lon="10.0884339"><ele>600.0</ele><time>2026-04-26T07:15:28.087Z</time></trkpt><trkpt lat="45.663035" lon="10.0886295"><ele>605.6666666666666</ele><time>2026-04-26T07:15:29.087Z</time></trkpt><trkpt lat="45.6629788" lon="10.0888284"><ele>611.3333333333333</ele><time>2026-04-26T07:15:30.087Z</time></trkpt><trkpt lat="45.6629165" lon="10.0890269"><ele>617.0</ele><time>2026-04-26T07:15:31.087Z</time></trkpt><trkpt lat="45.6628552" lon="10.0892227"><ele>623.6666666666666</ele><time>2026-04-26T07:15:32.087Z</time></trkpt><trkpt lat="45.6627839" lon="10.0894244"><ele>630.3333333333334</ele><time>2026-04-26T07:15:33.087Z</time></trkpt><trkpt lat="45.6627153" lon="10.0896234"><ele>637.0</ele><time>2026-04-26T07:15:34.087Z</time></trkpt><trkpt lat="45.6626466" lon="10.0898244"><ele>629.3333333333334</ele><time>2026-04-26T07:15:35.086Z</time></trkpt><trkpt lat="45.6625772" lon="10.0900239"><ele>621.6666666666666</ele><time>2026-04-26T07:15:36.086Z</time></trkpt><trkpt lat="45.6625084" lon="10.0902238"><ele>614.0</ele><time>2026-04-26T07:15:37.086Z</time></trkpt><trkpt lat="45.6624415" lon="10.0904196"><ele>614.0</ele><time>2026-04-26T07:15:38.087Z</time></trkpt><trkpt lat="45.6623759" lon="10.0906166"><ele>614.0</ele><time>2026-04-26T07:15:39.087Z</time></trkpt><trkpt lat="45.662306" lon="10.0908068"><ele>614.0</ele><time>2026-04-26T07:15:40.086Z</time></trkpt><trkpt lat="45.6622396" lon="10.0909974"><ele>615.0</ele><time>2026-04-26T07:15:41.087Z</time></trkpt><trkpt lat="45.6621702" lon="10.0911863"><ele>616.0</ele><time>2026-04-26T07:15:42.087Z</time></trkpt><trkpt lat="45.6620976" lon="10.0913658"><ele>617.0</ele><time>2026-04-26T07:15:43.086Z</time></trkpt><trkpt lat="45.6620215" lon="10.0915393"><ele>618.0</ele><time>2026-04-26T07:15:44.087Z</time></trkpt><trkpt lat="45.6619315" lon="10.091695"><ele>618.0</ele><time>2026-04-26T07:15:45.087Z</time></trkpt><trkpt lat="45.6618368" lon="10.0918465"><ele>618.0</ele><time>2026-04-26T07:15:46.086Z</time></trkpt><trkpt lat="45.6617367" lon="10.0919916"><ele>618.0</ele><time>2026-04-26T07:15:47.087Z</time></trkpt><trkpt lat="45.6616344" lon="10.0921359"><ele>618.0</ele><time>2026-04-26T07:15:48.087Z</time></trkpt><trkpt lat="45.6615456" lon="10.0922854"><ele>624.3333333333334</ele><time>2026-04-26T07:15:49.087Z</time></trkpt><trkpt lat="45.6614757" lon="10.0924535"><ele>630.6666666666667</ele><time>2026-04-26T07:15:50.087Z</time></trkpt><trkpt lat="45.6614137" lon="10.0926369"><ele>637.0</ele><time>2026-04-26T07:15:51.087Z</time></trkpt><trkpt lat="45.6613929" lon="10.0928835"><ele>637.0</ele><time>2026-04-26T07:15:52.087Z</time></trkpt><trkpt lat="45.6613235" lon="10.0930937"><ele>637.0</ele><time>2026-04-26T07:15:53.087Z</time></trkpt><trkpt lat="45.6612199" lon="10.0932949"><ele>637.0</ele><time>2026-04-26T07:15:54.087Z</time></trkpt><trkpt lat="45.6611007" lon="10.0934925"><ele>638.0</ele><time>2026-04-26T07:15:55.086Z</time></trkpt><trkpt lat="45.6609971" lon="10.0937056"><ele>639.0</ele><time>2026-04-26T07:15:56.087Z</time></trkpt><trkpt lat="45.6609174" lon="10.0939372"><ele>640.0</ele><time>2026-04-26T07:15:57.087Z</time></trkpt><trkpt lat="45.6608692" lon="10.094196"><ele>640.0</ele><time>2026-04-26T07:15:58.087Z</time></trkpt><trkpt lat="45.6608302" lon="10.0944676"><ele>640.0</ele><time>2026-04-26T07:15:59.087Z</time></trkpt><trkpt lat="45.6607837" lon="10.0947199"><ele>640.0</ele><time>2026-04-26T07:16:00.087Z</time></trkpt><trkpt lat="45.6607172" lon="10.0949762"><ele>642.6666666666667</ele><time>2026-04-26T07:16:01.087Z</time></trkpt><trkpt lat="45.6606297" lon="10.09522"><ele>645.3333333333334</ele><time>2026-04-26T07:16:02.087Z</time></trkpt><trkpt lat="45.6605692" lon="10.0954815"><ele>648.0</ele><time>2026-04-26T07:16:03.087Z</time></trkpt><trkpt lat="45.6605447" lon="10.095771"><ele>650.3333333333334</ele><time>2026-04-26T07:16:04.087Z</time></trkpt><trkpt lat="45.660546" lon="10.0960736"><ele>652.6666666666667</ele><time>2026-04-26T07:16:05.087Z</time></trkpt><trkpt lat="45.6605485" lon="10.0963644"><ele>655.0</ele><time>2026-04-26T07:16:06.087Z</time></trkpt><trkpt lat="45.6605532" lon="10.096643"><ele>656.6666666666667</ele><time>2026-04-26T07:16:07.087Z</time></trkpt><trkpt lat="45.6605604" lon="10.0969102"><ele>658.3333333333334</ele><time>2026-04-26T07:16:08.087Z</time></trkpt><trkpt lat="45.6605704" lon="10.0971656"><ele>660.0</ele><time>2026-04-26T07:16:09.087Z</time></trkpt><trkpt lat="45.6605808" lon="10.0974161"><ele>660.0</ele><time>2026-04-26T07:16:10.087Z</time></trkpt><trkpt lat="45.6605935" lon="10.0976612"><ele>660.0</ele><time>2026-04-26T07:16:11.087Z</time></trkpt><trkpt lat="45.6606075" lon="10.0978991"><ele>660.0</ele><time>2026-04-26T07:16:12.086Z</time></trkpt><trkpt lat="45.6606145" lon="10.0981371"><ele>661.6666666666666</ele><time>2026-04-26T07:16:13.087Z</time></trkpt><trkpt lat="45.6606132" lon="10.0983701"><ele>663.3333333333333</ele><time>2026-04-26T07:16:14.087Z</time></trkpt><trkpt lat="45.66062" lon="10.0986017"><ele>665.0</ele><time>2026-04-26T07:16:15.086Z</time></trkpt><trkpt lat="45.6606337" lon="10.0988342"><ele>665.0</ele><time>2026-04-26T07:16:16.087Z</time></trkpt><trkpt lat="45.6606409" lon="10.0990684"><ele>665.0</ele><time>2026-04-26T07:16:17.086Z</time></trkpt><trkpt lat="45.660657" lon="10.0992962"><ele>665.0</ele><time>2026-04-26T07:16:18.087Z</time></trkpt><trkpt lat="45.6606796" lon="10.0995283"><ele>664.3333333333333</ele><time>2026-04-26T07:16:19.087Z</time></trkpt><trkpt lat="45.6607118" lon="10.0997553"><ele>663.6666666666666</ele><time>2026-04-26T07:16:20.087Z</time></trkpt><trkpt lat="45.6607347" lon="10.0999873"><ele>663.0</ele><time>2026-04-26T07:16:21.087Z</time></trkpt><trkpt lat="45.6607547" lon="10.1002147"><ele>662.0</ele><time>2026-04-26T07:16:22.086Z</time></trkpt><trkpt lat="45.6607603" lon="10.1004468"><ele>661.0</ele><time>2026-04-26T07:16:23.087Z</time></trkpt><trkpt lat="45.6607527" lon="10.1006837"><ele>660.0</ele><time>2026-04-26T07:16:24.086Z</time></trkpt><trkpt lat="45.6607433" lon="10.1009219"><ele>663.3333333333334</ele><time>2026-04-26T07:16:25.087Z</time></trkpt><trkpt lat="45.660743" lon="10.1011609"><ele>666.6666666666667</ele><time>2026-04-26T07:16:26.087Z</time></trkpt><trkpt lat="45.6607467" lon="10.1013965"><ele>670.0</ele><time>2026-04-26T07:16:27.087Z</time></trkpt><trkpt lat="45.660754" lon="10.1016261"><ele>671.3333333333334</ele><time>2026-04-26T07:16:28.086Z</time></trkpt><trkpt lat="45.6607629" lon="10.1018501"><ele>672.6666666666666</ele><time>2026-04-26T07:16:29.087Z</time></trkpt><trkpt lat="45.6607703" lon="10.1020739"><ele>674.0</ele><time>2026-04-26T07:16:30.086Z</time></trkpt><trkpt lat="45.6607816" lon="10.1022941"><ele>674.0</ele><time>2026-04-26T07:16:31.087Z</time></trkpt><trkpt lat="45.6607928" lon="10.1025138"><ele>674.0</ele><time>2026-04-26T07:16:32.087Z</time></trkpt><trkpt lat="45.6608029" lon="10.1027345"><ele>674.0</ele><time>2026-04-26T07:16:33.087Z</time></trkpt><trkpt lat="45.6608154" lon="10.1029517"><ele>674.0</ele><time>2026-04-26T07:16:34.087Z</time></trkpt><trkpt lat="45.6608252" lon="10.1031681"><ele>674.0</ele><time>2026-04-26T07:16:35.086Z</time></trkpt><trkpt lat="45.6608421" lon="10.1033802"><ele>674.0</ele><time>2026-04-26T07:16:36.087Z</time></trkpt><trkpt lat="45.6608639" lon="10.1035942"><ele>673.25</ele><time>2026-04-26T07:16:37.087Z</time></trkpt><trkpt lat="45.6608915" lon="10.1038079"><ele>672.5</ele><time>2026-04-26T07:16:38.086Z</time></trkpt><trkpt lat="45.6609237" lon="10.1040185"><ele>671.75</ele><time>2026-04-26T07:16:39.086Z</time></trkpt><trkpt lat="45.6609549" lon="10.1042228"><ele>671.0</ele><time>2026-04-26T07:16:40.087Z</time></trkpt><trkpt lat="45.6609759" lon="10.104419"><ele>670.5</ele><time>2026-04-26T07:16:41.087Z</time></trkpt><trkpt lat="45.6609788" lon="10.1046056"><ele>670.0</ele><time>2026-04-26T07:16:42.087Z</time></trkpt><trkpt lat="45.660953" lon="10.1047907"><ele>669.5</ele><time>2026-04-26T07:16:43.087Z</time></trkpt><trkpt lat="45.66091" lon="10.104978"><ele>669.0</ele><time>2026-04-26T07:16:44.087Z</time></trkpt><trkpt lat="45.6608519" lon="10.1051663"><ele>670.75</ele><time>2026-04-26T07:16:45.087Z</time></trkpt><trkpt lat="45.6607893" lon="10.1053476"><ele>672.5</ele><time>2026-04-26T07:16:46.087Z</time></trkpt><trkpt lat="45.660732" lon="10.1055159"><ele>674.25</ele><time>2026-04-26T07:16:47.087Z</time></trkpt><trkpt lat="45.6606767" lon="10.1056775"><ele>676.0</ele><time>2026-04-26T07:16:48.086Z</time></trkpt><trkpt lat="45.6606217" lon="10.1058359"><ele>680.0</ele><time>2026-04-26T07:16:49.086Z</time></trkpt><trkpt lat="45.6605863" lon="10.1059967"><ele>684.0</ele><time>2026-04-26T07:16:50.087Z</time></trkpt><trkpt lat="45.6605686" lon="10.1061552"><ele>688.0</ele><time>2026-04-26T07:16:51.087Z</time></trkpt><trkpt lat="45.6605851" lon="10.1063116"><ele>692.0</ele><time>2026-04-26T07:16:52.087Z</time></trkpt><trkpt lat="45.6606365" lon="10.1064643"><ele>690.75</ele><time>2026-04-26T07:16:53.087Z</time></trkpt><trkpt lat="45.6607021" lon="10.1066206"><ele>689.5</ele><time>2026-04-26T07:16:54.087Z</time></trkpt><trkpt lat="45.6607676" lon="10.106789"><ele>688.25</ele><time>2026-04-26T07:16:55.087Z</time></trkpt><trkpt lat="45.6608404" lon="10.1069562"><ele>687.0</ele><time>2026-04-26T07:16:56.087Z</time></trkpt><trkpt lat="45.660916" lon="10.1071186"><ele>687.0</ele><time>2026-04-26T07:16:57.087Z</time></trkpt><trkpt lat="45.6609866" lon="10.1072801"><ele>687.0</ele><time>2026-04-26T07:16:58.087Z</time></trkpt><trkpt lat="45.6610522" lon="10.1074394"><ele>687.0</ele><time>2026-04-26T07:16:59.087Z</time></trkpt><trkpt lat="45.6611051" lon="10.1076075"><ele>687.0</ele><time>2026-04-26T07:17:00.087Z</time></trkpt><trkpt lat="45.6611233" lon="10.1077947"><ele>685.75</ele><time>2026-04-26T07:17:01.086Z</time></trkpt><trkpt lat="45.6611023" lon="10.1079807"><ele>684.5</ele><time>2026-04-26T07:17:02.087Z</time></trkpt><trkpt lat="45.6610483" lon="10.1081524"><ele>683.25</ele><time>2026-04-26T07:17:03.087Z</time></trkpt><trkpt lat="45.6609709" lon="10.1083058"><ele>682.0</ele><time>2026-04-26T07:17:04.087Z</time></trkpt><trkpt lat="45.6608938" lon="10.1084603"><ele>682.0</ele><time>2026-04-26T07:17:05.087Z</time></trkpt><trkpt lat="45.6608197" lon="10.1086159"><ele>682.0</ele><time>2026-04-26T07:17:06.087Z</time></trkpt><trkpt lat="45.6607644" lon="10.1087851"><ele>682.0</ele><time>2026-04-26T07:17:07.087Z</time></trkpt><trkpt lat="45.6607314" lon="10.1089686"><ele>682.0</ele><time>2026-04-26T07:17:08.087Z</time></trkpt><trkpt lat="45.660724" lon="10.1091617"><ele>682.25</ele><time>2026-04-26T07:17:09.087Z</time></trkpt><trkpt lat="45.6607458" lon="10.1093592"><ele>682.5</ele><time>2026-04-26T07:17:10.087Z</time></trkpt><trkpt lat="45.6607994" lon="10.1095524"><ele>682.75</ele><time>2026-04-26T07:17:11.086Z</time></trkpt><trkpt lat="45.6608708" lon="10.1097246"><ele>683.0</ele><time>2026-04-26T07:17:12.086Z</time></trkpt><trkpt lat="45.6609374" lon="10.1098939"><ele>680.75</ele><time>2026-04-26T07:17:13.086Z</time></trkpt><trkpt lat="45.6609962" lon="10.110055"><ele>678.5</ele><time>2026-04-26T07:17:14.087Z</time></trkpt><trkpt lat="45.6610393" lon="10.1102056"><ele>676.25</ele><time>2026-04-26T07:17:15.087Z</time></trkpt><trkpt lat="45.6610576" lon="10.1103546"><ele>674.0</ele><time>2026-04-26T07:17:16.087Z</time></trkpt><trkpt lat="45.6610328" lon="10.1105013"><ele>674.0</ele><time>2026-04-26T07:17:17.087Z</time></trkpt><trkpt lat="45.6609752" lon="10.1106407"><ele>674.0</ele><time>2026-04-26T07:17:18.087Z</time></trkpt><trkpt lat="45.6608953" lon="10.1107783"><ele>674.0</ele><time>2026-04-26T07:17:19.086Z</time></trkpt><trkpt lat="45.6608145" lon="10.1109249"><ele>674.0</ele><time>2026-04-26T07:17:20.086Z</time></trkpt><trkpt lat="45.6607366" lon="10.1110729"><ele>673.75</ele><time>2026-04-26T07:17:21.087Z</time></trkpt><trkpt lat="45.6606546" lon="10.1112203"><ele>673.5</ele><time>2026-04-26T07:17:22.087Z</time></trkpt><trkpt lat="45.6605752" lon="10.1113594"><ele>673.25</ele><time>2026-04-26T07:17:23.087Z</time></trkpt><trkpt lat="45.660506" lon="10.1114923"><ele>673.0</ele><time>2026-04-26T07:17:24.087Z</time></trkpt><trkpt lat="45.6604493" lon="10.1116345"><ele>673.0</ele><time>2026-04-26T07:17:25.087Z</time></trkpt><trkpt lat="45.6604173" lon="10.1117948"><ele>673.0</ele><time>2026-04-26T07:17:26.087Z</time></trkpt><trkpt lat="45.6604134" lon="10.111962"><ele>673.0</ele><time>2026-04-26T07:17:27.087Z</time></trkpt><trkpt lat="45.6604374" lon="10.1121329"><ele>673.0</ele><time>2026-04-26T07:17:28.087Z</time></trkpt><trkpt lat="45.6604921" lon="10.112297"><ele>670.5</ele><time>2026-04-26T07:17:29.086Z</time></trkpt><trkpt lat="45.6605634" lon="10.11245"><ele>668.0</ele><time>2026-04-26T07:17:30.087Z</time></trkpt><trkpt lat="45.6606309" lon="10.1126004"><ele>665.5</ele><time>2026-04-26T07:17:31.087Z</time></trkpt><trkpt lat="45.6606949" lon="10.1127325"><ele>663.0</ele><time>2026-04-26T07:17:32.087Z</time></trkpt><trkpt lat="45.6607559" lon="10.1128619"><ele>663.0</ele><time>2026-04-26T07:17:33.087Z</time></trkpt><trkpt lat="45.6608156" lon="10.1129811"><ele>663.0</ele><time>2026-04-26T07:17:34.087Z</time></trkpt><trkpt lat="45.6608755" lon="10.1131063"><ele>663.0</ele><time>2026-04-26T07:17:35.087Z</time></trkpt><trkpt lat="45.6609459" lon="10.1132347"><ele>663.0</ele><time>2026-04-26T07:17:36.087Z</time></trkpt><trkpt lat="45.661012" lon="10.1133724"><ele>663.0</ele><time>2026-04-26T07:17:37.087Z</time></trkpt><trkpt lat="45.6610825" lon="10.1135166"><ele>665.75</ele><time>2026-04-26T07:17:38.087Z</time></trkpt><trkpt lat="45.6611522" lon="10.113662"><ele>668.5</ele><time>2026-04-26T07:17:39.087Z</time></trkpt><trkpt lat="45.6612231" lon="10.1138013"><ele>671.25</ele><time>2026-04-26T07:17:40.087Z</time></trkpt><trkpt lat="45.661296" lon="10.1139342"><ele>674.0</ele><time>2026-04-26T07:17:41.087Z</time></trkpt><trkpt lat="45.6613596" lon="10.1140662"><ele>670.6</ele><time>2026-04-26T07:17:42.087Z</time></trkpt><trkpt lat="45.6614207" lon="10.1141978"><ele>667.2</ele><time>2026-04-26T07:17:43.087Z</time></trkpt><trkpt lat="45.66149" lon="10.1143276"><ele>663.8000000000001</ele><time>2026-04-26T07:17:44.087Z</time></trkpt><trkpt lat="45.6615574" lon="10.1144511"><ele>660.4000000000001</ele><time>2026-04-26T07:17:45.087Z</time></trkpt><trkpt lat="45.6616418" lon="10.1145495"><ele>657.0</ele><time>2026-04-26T07:17:46.087Z</time></trkpt><trkpt lat="45.6617417" lon="10.1146064"><ele>657.0</ele><time>2026-04-26T07:17:47.087Z</time></trkpt><trkpt lat="45.6618373" lon="10.1146487"><ele>657.0</ele><time>2026-04-26T07:17:48.086Z</time></trkpt><trkpt lat="45.6619316" lon="10.1146047"><ele>657.0</ele><time>2026-04-26T07:17:49.087Z</time></trkpt><trkpt lat="45.662022" lon="10.1145658"><ele>657.0</ele><time>2026-04-26T07:17:50.087Z</time></trkpt><trkpt lat="45.6621101" lon="10.1145311"><ele>657.0</ele><time>2026-04-26T07:17:51.086Z</time></trkpt><trkpt lat="45.6621894" lon="10.114514"><ele>657.5</ele><time>2026-04-26T07:17:52.087Z</time></trkpt><trkpt lat="45.6622692" lon="10.1145271"><ele>658.0</ele><time>2026-04-26T07:17:53.087Z</time></trkpt><trkpt lat="45.6622932" lon="10.1146424"><ele>658.5</ele><time>2026-04-26T07:17:54.087Z</time></trkpt><trkpt lat="45.662305" lon="10.1147552"><ele>659.0</ele><time>2026-04-26T07:17:55.087Z</time></trkpt><trkpt lat="45.6622929" lon="10.1148902"><ele>659.5</ele><time>2026-04-26T07:17:56.087Z</time></trkpt><trkpt lat="45.662277" lon="10.1150309"><ele>660.0</ele><time>2026-04-26T07:17:57.087Z</time></trkpt><trkpt lat="45.6622754" lon="10.1151778"><ele>656.8</ele><time>2026-04-26T07:17:58.087Z</time></trkpt><trkpt lat="45.6622901" lon="10.1153225"><ele>653.6</ele><time>2026-04-26T07:17:59.087Z</time></trkpt><trkpt lat="45.6623307" lon="10.1154531"><ele>650.4000000000001</ele><time>2026-04-26T07:18:00.086Z</time></trkpt><trkpt lat="45.6623923" lon="10.1155716"><ele>647.2</ele><time>2026-04-26T07:18:01.087Z</time></trkpt><trkpt lat="45.6624807" lon="10.1156727"><ele>644.0</ele><time>2026-04-26T07:18:02.086Z</time></trkpt><trkpt lat="45.6625891" lon="10.1157595"><ele>641.5</ele><time>2026-04-26T07:18:03.087Z</time></trkpt><trkpt lat="45.662703" lon="10.1158351"><ele>639.0</ele><time>2026-04-26T07:18:04.087Z</time></trkpt><trkpt lat="45.6628127" lon="10.1159195"><ele>636.5</ele><time>2026-04-26T07:18:05.087Z</time></trkpt><trkpt lat="45.6629131" lon="10.1160206"><ele>634.0</ele><time>2026-04-26T07:18:06.087Z</time></trkpt><trkpt lat="45.6629923" lon="10.1161515"><ele>635.8</ele><time>2026-04-26T07:18:07.087Z</time></trkpt><trkpt lat="45.6630473" lon="10.1163058"><ele>637.5999999999999</ele><time>2026-04-26T07:18:08.087Z</time></trkpt><trkpt lat="45.6630905" lon="10.1164584"><ele>639.4</ele><time>2026-04-26T07:18:09.087Z</time></trkpt><trkpt lat="45.6631211" lon="10.1165833"><ele>641.1999999999999</ele><time>2026-04-26T07:18:10.086Z</time></trkpt><trkpt lat="45.6631415" lon="10.116695"><ele>643.0</ele><time>2026-04-26T07:18:11.087Z</time></trkpt><trkpt lat="45.6631313" lon="10.1168036"><ele>643.0</ele><time>2026-04-26T07:18:12.087Z</time></trkpt><trkpt lat="45.6630823" lon="10.1168863"><ele>643.0</ele><time>2026-04-26T07:18:13.087Z</time></trkpt><trkpt lat="45.6630153" lon="10.116922"><ele>643.0</ele><time>2026-04-26T07:18:14.086Z</time></trkpt><trkpt lat="45.6629471" lon="10.1169011"><ele>643.0</ele><time>2026-04-26T07:18:15.087Z</time></trkpt><trkpt lat="45.6628757" lon="10.116841"><ele>643.0</ele><time>2026-04-26T07:18:16.087Z</time></trkpt><trkpt lat="45.6627954" lon="10.1167653"><ele>643.0</ele><time>2026-04-26T07:18:17.087Z</time></trkpt><trkpt lat="45.6627098" lon="10.1166922"><ele>638.8</ele><time>2026-04-26T07:18:18.087Z</time></trkpt><trkpt lat="45.662622" lon="10.116627"><ele>634.5999999999999</ele><time>2026-04-26T07:18:19.087Z</time></trkpt><trkpt lat="45.6625274" lon="10.1166106"><ele>630.4000000000001</ele><time>2026-04-26T07:18:20.087Z</time></trkpt><trkpt lat="45.6624315" lon="10.1166445"><ele>626.2</ele><time>2026-04-26T07:18:21.087Z</time></trkpt><trkpt lat="45.6623281" lon="10.1167043"><ele>622.0</ele><time>2026-04-26T07:18:22.087Z</time></trkpt><trkpt lat="45.6622125" lon="10.1167538"><ele>622.0</ele><time>2026-04-26T07:18:23.086Z</time></trkpt><trkpt lat="45.6620908" lon="10.116767"><ele>622.0</ele><time>2026-04-26T07:18:24.087Z</time></trkpt><trkpt lat="45.6619624" lon="10.1167545"><ele>622.0</ele><time>2026-04-26T07:18:25.087Z</time></trkpt><trkpt lat="45.6618263" lon="10.1167382"><ele>622.0</ele><time>2026-04-26T07:18:26.087Z</time></trkpt><trkpt lat="45.6616841" lon="10.1167157"><ele>620.5</ele><time>2026-04-26T07:18:27.087Z</time></trkpt><trkpt lat="45.6615373" lon="10.1166904"><ele>619.0</ele><time>2026-04-26T07:18:28.087Z</time></trkpt><trkpt lat="45.6613925" lon="10.1166664"><ele>617.5</ele><time>2026-04-26T07:18:29.087Z</time></trkpt><trkpt lat="45.6612499" lon="10.1166385"><ele>616.0</ele><time>2026-04-26T07:18:30.087Z</time></trkpt><trkpt lat="45.6611126" lon="10.1166103"><ele>614.2</ele><time>2026-04-26T07:18:31.087Z</time></trkpt><trkpt lat="45.6609871" lon="10.1165898"><ele>612.4000000000001</ele><time>2026-04-26T07:18:32.087Z</time></trkpt><trkpt lat="45.6608788" lon="10.1165833"><ele>610.6</ele><time>2026-04-26T07:18:33.086Z</time></trkpt><trkpt lat="45.6607899" lon="10.1166143"><ele>608.8000000000001</ele><time>2026-04-26T07:18:34.086Z</time></trkpt><trkpt lat="45.660725" lon="10.1166953"><ele>607.0</ele><time>2026-04-26T07:18:35.087Z</time></trkpt><trkpt lat="45.6607022" lon="10.1168109"><ele>607.0</ele><time>2026-04-26T07:18:36.087Z</time></trkpt><trkpt lat="45.6607271" lon="10.1169303"><ele>607.0</ele><time>2026-04-26T07:18:37.087Z</time></trkpt><trkpt lat="45.6607922" lon="10.1170207"><ele>607.0</ele><time>2026-04-26T07:18:38.087Z</time></trkpt><trkpt lat="45.6608787" lon="10.1171052"><ele>607.0</ele><time>2026-04-26T07:18:39.087Z</time></trkpt><trkpt lat="45.6609797" lon="10.1171907"><ele>607.0</ele><time>2026-04-26T07:18:40.087Z</time></trkpt><trkpt lat="45.6610906" lon="10.1172778"><ele>606.25</ele><time>2026-04-26T07:18:41.087Z</time></trkpt><trkpt lat="45.6612067" lon="10.1173636"><ele>605.5</ele><time>2026-04-26T07:18:42.087Z</time></trkpt><trkpt lat="45.6613221" lon="10.1174549"><ele>604.75</ele><time>2026-04-26T07:18:43.087Z</time></trkpt><trkpt lat="45.6614358" lon="10.1175373"><ele>604.0</ele><time>2026-04-26T07:18:44.087Z</time></trkpt><trkpt lat="45.6615531" lon="10.1175975"><ele>604.0</ele><time>2026-04-26T07:18:45.087Z</time></trkpt><trkpt lat="45.6616834" lon="10.1176278"><ele>604.0</ele><time>2026-04-26T07:18:46.087Z</time></trkpt><trkpt lat="45.6618163" lon="10.1176162"><ele>604.0</ele><time>2026-04-26T07:18:47.087Z</time></trkpt><trkpt lat="45.6619476" lon="10.1175777"><ele>604.0</ele><time>2026-04-26T07:18:48.086Z</time></trkpt><trkpt lat="45.6620648" lon="10.1175349"><ele>604.4</ele><time>2026-04-26T07:18:49.087Z</time></trkpt><trkpt lat="45.6621616" lon="10.1175178"><ele>604.8</ele><time>2026-04-26T07:18:50.087Z</time></trkpt><trkpt lat="45.6622494" lon="10.1175299"><ele>605.2</ele><time>2026-04-26T07:18:51.087Z</time></trkpt><trkpt lat="45.6623254" lon="10.1175915"><ele>605.6</ele><time>2026-04-26T07:18:52.087Z</time></trkpt><trkpt lat="45.6623634" lon="10.1176957"><ele>606.0</ele><time>2026-04-26T07:18:53.086Z</time></trkpt><trkpt lat="45.6623774" lon="10.1178302"><ele>606.0</ele><time>2026-04-26T07:18:54.087Z</time></trkpt><trkpt lat="45.6623966" lon="10.1179823"><ele>606.0</ele><time>2026-04-26T07:18:55.087Z</time></trkpt><trkpt lat="45.6624166" lon="10.1181495"><ele>606.0</ele><time>2026-04-26T07:18:56.086Z</time></trkpt><trkpt lat="45.6624339" lon="10.1183241"><ele>606.0</ele><time>2026-04-26T07:18:57.086Z</time></trkpt><trkpt lat="45.6624518" lon="10.118509"><ele>603.5</ele><time>2026-04-26T07:18:58.086Z</time></trkpt><trkpt lat="45.6624685" lon="10.1187026"><ele>601.0</ele><time>2026-04-26T07:18:59.087Z</time></trkpt><trkpt lat="45.6624569" lon="10.1188919"><ele>598.5</ele><time>2026-04-26T07:19:00.087Z</time></trkpt><trkpt lat="45.6624187" lon="10.1190749"><ele>596.0</ele><time>2026-04-26T07:19:01.087Z</time></trkpt><trkpt lat="45.6623688" lon="10.1192558"><ele>596.25</ele><time>2026-04-26T07:19:02.087Z</time></trkpt><trkpt lat="45.6623137" lon="10.1194378"><ele>596.5</ele><time>2026-04-26T07:19:03.087Z</time></trkpt><trkpt lat="45.6622475" lon="10.1196173"><ele>596.75</ele><time>2026-04-26T07:19:04.087Z</time></trkpt><trkpt lat="45.6621788" lon="10.1198022"><ele>597.0</ele><time>2026-04-26T07:19:05.087Z</time></trkpt><trkpt lat="45.6621112" lon="10.1199873"><ele>597.0</ele><time>2026-04-26T07:19:06.086Z</time></trkpt><trkpt lat="45.6620422" lon="10.1201741"><ele>597.0</ele><time>2026-04-26T07:19:07.087Z</time></trkpt><trkpt lat="45.6619754" lon="10.1203549"><ele>597.0</ele><time>2026-04-26T07:19:08.087Z</time></trkpt><trkpt lat="45.6619107" lon="10.1205339"><ele>597.0</ele><time>2026-04-26T07:19:09.087Z</time></trkpt><trkpt lat="45.6618476" lon="10.1207064"><ele>592.25</ele><time>2026-04-26T07:19:10.087Z</time></trkpt><trkpt lat="45.6617842" lon="10.1208759"><ele>587.5</ele><time>2026-04-26T07:19:11.087Z</time></trkpt><trkpt lat="45.661722" lon="10.1210449"><ele>582.75</ele><time>2026-04-26T07:19:12.087Z</time></trkpt><trkpt lat="45.6616604" lon="10.1212087"><ele>578.0</ele><time>2026-04-26T07:19:13.087Z</time></trkpt><trkpt lat="45.6616002" lon="10.1213713"><ele>578.0</ele><time>2026-04-26T07:19:14.086Z</time></trkpt><trkpt lat="45.661541" lon="10.1215309"><ele>578.0</ele><time>2026-04-26T07:19:15.087Z</time></trkpt><trkpt lat="45.6614805" lon="10.1216902"><ele>578.0</ele><time>2026-04-26T07:19:16.087Z</time></trkpt><trkpt lat="45.6614241" lon="10.1218518"><ele>578.0</ele><time>2026-04-26T07:19:17.087Z</time></trkpt><trkpt lat="45.6613704" lon="10.12201"><ele>579.25</ele><time>2026-04-26T07:19:18.086Z</time></trkpt><trkpt lat="45.6613289" lon="10.1221694"><ele>580.5</ele><time>2026-04-26T07:19:19.087Z</time></trkpt><trkpt lat="45.6612942" lon="10.1223357"><ele>581.75</ele><time>2026-04-26T07:19:20.087Z</time></trkpt><trkpt lat="45.6612673" lon="10.122502"><ele>583.0</ele><time>2026-04-26T07:19:21.087Z</time></trkpt><trkpt lat="45.6612467" lon="10.1226777"><ele>583.25</ele><time>2026-04-26T07:19:22.086Z</time></trkpt><trkpt lat="45.6612213" lon="10.1228625"><ele>583.5</ele><time>2026-04-26T07:19:23.086Z</time></trkpt><trkpt lat="45.6612066" lon="10.1230478"><ele>583.75</ele><time>2026-04-26T07:19:24.087Z</time></trkpt><trkpt lat="45.6612003" lon="10.1232299"><ele>584.0</ele><time>2026-04-26T07:19:25.087Z</time></trkpt><trkpt lat="45.6611793" lon="10.1234016"><ele>584.0</ele><time>2026-04-26T07:19:26.087Z</time></trkpt><trkpt lat="45.6611529" lon="10.1235516"><ele>584.0</ele><time>2026-04-26T07:19:27.087Z</time></trkpt><trkpt lat="45.6611335" lon="10.1237059"><ele>584.0</ele><time>2026-04-26T07:19:28.086Z</time></trkpt><trkpt lat="45.6610886" lon="10.1238454"><ele>584.0</ele><time>2026-04-26T07:19:29.087Z</time></trkpt><trkpt lat="45.6610336" lon="10.1239847"><ele>584.0</ele><time>2026-04-26T07:19:30.087Z</time></trkpt><trkpt lat="45.6609645" lon="10.1241099"><ele>580.2</ele><time>2026-04-26T07:19:31.087Z</time></trkpt><trkpt lat="45.6608904" lon="10.1242311"><ele>576.4</ele><time>2026-04-26T07:19:32.087Z</time></trkpt><trkpt lat="45.6607864" lon="10.1243102"><ele>572.6</ele><time>2026-04-26T07:19:33.087Z</time></trkpt><trkpt lat="45.6606934" lon="10.1243839"><ele>568.8</ele><time>2026-04-26T07:19:34.086Z</time></trkpt><trkpt lat="45.6606106" lon="10.1244522"><ele>565.0</ele><time>2026-04-26T07:19:35.087Z</time></trkpt><trkpt lat="45.660538" lon="10.124529"><ele>565.0</ele><time>2026-04-26T07:19:36.087Z</time></trkpt><trkpt lat="45.6604654" lon="10.1246425"><ele>565.0</ele><time>2026-04-26T07:19:37.087Z</time></trkpt><trkpt lat="45.6604019" lon="10.1247651"><ele>565.0</ele><time>2026-04-26T07:19:38.087Z</time></trkpt><trkpt lat="45.6603521" lon="10.124917"><ele>565.0</ele><time>2026-04-26T07:19:39.086Z</time></trkpt><trkpt lat="45.6603114" lon="10.1250798"><ele>561.0</ele><time>2026-04-26T07:19:40.087Z</time></trkpt><trkpt lat="45.6602772" lon="10.1252463"><ele>557.0</ele><time>2026-04-26T07:19:41.086Z</time></trkpt><trkpt lat="45.6602486" lon="10.1254153"><ele>553.0</ele><time>2026-04-26T07:19:42.087Z</time></trkpt><trkpt lat="45.6602246" lon="10.1255868"><ele>549.0</ele><time>2026-04-26T07:19:43.087Z</time></trkpt><trkpt lat="45.6602113" lon="10.125762"><ele>549.0</ele><time>2026-04-26T07:19:44.087Z</time></trkpt><trkpt lat="45.6602034" lon="10.1259351"><ele>549.0</ele><time>2026-04-26T07:19:45.087Z</time></trkpt><trkpt lat="45.6602016" lon="10.1260946"><ele>549.0</ele><time>2026-04-26T07:19:46.087Z</time></trkpt><trkpt lat="45.6602056" lon="10.1262363"><ele>549.0</ele><time>2026-04-26T07:19:47.086Z</time></trkpt><trkpt lat="45.6602092" lon="10.1263586"><ele>549.0</ele><time>2026-04-26T07:19:48.086Z</time></trkpt><trkpt lat="45.6601939" lon="10.1264594"><ele>549.0</ele><time>2026-04-26T07:19:49.087Z</time></trkpt><trkpt lat="45.660156" lon="10.1265338"><ele>549.0</ele><time>2026-04-26T07:19:50.087Z</time></trkpt><trkpt lat="45.6600492" lon="10.1265418"><ele>549.0</ele><time>2026-04-26T07:19:52.087Z</time></trkpt><trkpt lat="45.6600052" lon="10.1263569"><ele>549.0</ele><time>2026-04-26T07:19:54.086Z</time></trkpt><trkpt lat="45.6600138" lon="10.1262231"><ele>549.0</ele><time>2026-04-26T07:19:55.087Z</time></trkpt><trkpt lat="45.6600262" lon="10.1260679"><ele>549.0</ele><time>2026-04-26T07:19:56.087Z</time></trkpt><trkpt lat="45.6600415" lon="10.1259043"><ele>549.0</ele><time>2026-04-26T07:19:57.087Z</time></trkpt><trkpt lat="45.6600633" lon="10.1257309"><ele>549.0</ele><time>2026-04-26T07:19:58.087Z</time></trkpt><trkpt lat="45.6600944" lon="10.125559"><ele>549.0</ele><time>2026-04-26T07:19:59.087Z</time></trkpt><trkpt lat="45.6601268" lon="10.1253945"><ele>548.6666666666666</ele><time>2026-04-26T07:20:00.087Z</time></trkpt><trkpt lat="45.6601541" lon="10.1252495"><ele>548.3333333333334</ele><time>2026-04-26T07:20:01.087Z</time></trkpt><trkpt lat="45.6601675" lon="10.1251247"><ele>548.0</ele><time>2026-04-26T07:20:02.087Z</time></trkpt><trkpt lat="45.6601556" lon="10.1250185"><ele>547.6666666666667</ele><time>2026-04-26T07:20:03.086Z</time></trkpt><trkpt lat="45.660107" lon="10.1249407"><ele>547.3333333333334</ele><time>2026-04-26T07:20:04.086Z</time></trkpt><trkpt lat="45.6600424" lon="10.1249136"><ele>547.0</ele><time>2026-04-26T07:20:05.087Z</time></trkpt><trkpt lat="45.6599739" lon="10.1249327"><ele>547.0</ele><time>2026-04-26T07:20:06.087Z</time></trkpt><trkpt lat="45.6599245" lon="10.1250102"><ele>547.0</ele><time>2026-04-26T07:20:07.087Z</time></trkpt><trkpt lat="45.6598944" lon="10.1251288"><ele>547.0</ele><time>2026-04-26T07:20:08.086Z</time></trkpt><trkpt lat="45.6598794" lon="10.1252831"><ele>547.0</ele><time>2026-04-26T07:20:09.087Z</time></trkpt><trkpt lat="45.6598627" lon="10.1254433"><ele>547.0</ele><time>2026-04-26T07:20:10.087Z</time></trkpt><trkpt lat="45.6598437" lon="10.1256203"><ele>547.5</ele><time>2026-04-26T07:20:11.087Z</time></trkpt><trkpt lat="45.6598208" lon="10.1258155"><ele>548.0</ele><time>2026-04-26T07:20:12.087Z</time></trkpt><trkpt lat="45.6597997" lon="10.1260066"><ele>548.5</ele><time>2026-04-26T07:20:13.086Z</time></trkpt><trkpt lat="45.6597725" lon="10.1261931"><ele>549.0</ele><time>2026-04-26T07:20:14.087Z</time></trkpt><trkpt lat="45.6597338" lon="10.126376"><ele>549.0</ele><time>2026-04-26T07:20:15.087Z</time></trkpt><trkpt lat="45.6596902" lon="10.1265506"><ele>549.0</ele><time>2026-04-26T07:20:16.087Z</time></trkpt><trkpt lat="45.6596497" lon="10.1267226"><ele>549.0</ele><time>2026-04-26T07:20:17.087Z</time></trkpt><trkpt lat="45.6596079" lon="10.1268815"><ele>549.0</ele><time>2026-04-26T07:20:18.087Z</time></trkpt><trkpt lat="45.659582" lon="10.127028"><ele>548.0</ele><time>2026-04-26T07:20:19.086Z</time></trkpt><trkpt lat="45.6595728" lon="10.1271536"><ele>547.0</ele><time>2026-04-26T07:20:20.087Z</time></trkpt><trkpt lat="45.6595985" lon="10.1272619"><ele>546.0</ele><time>2026-04-26T07:20:21.086Z</time></trkpt><trkpt lat="45.6596629" lon="10.127337"><ele>545.0</ele><time>2026-04-26T07:20:22.086Z</time></trkpt><trkpt lat="45.6597545" lon="10.1273644"><ele>544.0</ele><time>2026-04-26T07:20:23.086Z</time></trkpt><trkpt lat="45.6598691" lon="10.1273573"><ele>544.0</ele><time>2026-04-26T07:20:24.087Z</time></trkpt><trkpt lat="45.6600018" lon="10.1273399"><ele>544.0</ele><time>2026-04-26T07:20:25.087Z</time></trkpt><trkpt lat="45.6601439" lon="10.1273154"><ele>544.0</ele><time>2026-04-26T07:20:26.087Z</time></trkpt><trkpt lat="45.6602929" lon="10.1272921"><ele>544.0</ele><time>2026-04-26T07:20:27.087Z</time></trkpt><trkpt lat="45.6604436" lon="10.1272749"><ele>547.25</ele><time>2026-04-26T07:20:28.087Z</time></trkpt><trkpt lat="45.6605867" lon="10.1272755"><ele>550.5</ele><time>2026-04-26T07:20:29.087Z</time></trkpt><trkpt lat="45.6607253" lon="10.1273027"><ele>553.75</ele><time>2026-04-26T07:20:30.087Z</time></trkpt><trkpt lat="45.6608564" lon="10.1273673"><ele>557.0</ele><time>2026-04-26T07:20:31.087Z</time></trkpt><trkpt lat="45.6609706" lon="10.1274601"><ele>558.5</ele><time>2026-04-26T07:20:32.087Z</time></trkpt><trkpt lat="45.6610646" lon="10.1275834"><ele>560.0</ele><time>2026-04-26T07:20:33.087Z</time></trkpt><trkpt lat="45.6611414" lon="10.1277359"><ele>561.5</ele><time>2026-04-26T07:20:34.087Z</time></trkpt><trkpt lat="45.6612123" lon="10.127899"><ele>563.0</ele><time>2026-04-26T07:20:35.087Z</time></trkpt><trkpt lat="45.6612911" lon="10.1280668"><ele>555.5</ele><time>2026-04-26T07:20:36.086Z</time></trkpt><trkpt lat="45.6613727" lon="10.128235"><ele>548.0</ele><time>2026-04-26T07:20:37.087Z</time></trkpt><trkpt lat="45.6614528" lon="10.1284013"><ele>540.5</ele><time>2026-04-26T07:20:38.087Z</time></trkpt><trkpt lat="45.661539" lon="10.1285561"><ele>533.0</ele><time>2026-04-26T07:20:39.087Z</time></trkpt><trkpt lat="45.6616292" lon="10.1286948"><ele>533.0</ele><time>2026-04-26T07:20:40.087Z</time></trkpt><trkpt lat="45.6617447" lon="10.1288031"><ele>533.0</ele><time>2026-04-26T07:20:41.087Z</time></trkpt><trkpt lat="45.6618807" lon="10.1288768"><ele>533.0</ele><time>2026-04-26T07:20:42.086Z</time></trkpt><trkpt lat="45.6620299" lon="10.1289324"><ele>533.0</ele><time>2026-04-26T07:20:43.087Z</time></trkpt><trkpt lat="45.6621858" lon="10.1289934"><ele>538.0</ele><time>2026-04-26T07:20:44.087Z</time></trkpt><trkpt lat="45.6623434" lon="10.1290558"><ele>543.0</ele><time>2026-04-26T07:20:45.087Z</time></trkpt><trkpt lat="45.6625029" lon="10.1291064"><ele>548.0</ele><time>2026-04-26T07:20:46.087Z</time></trkpt><trkpt lat="45.6626598" lon="10.1291521"><ele>537.3333333333333</ele><time>2026-04-26T07:20:47.087Z</time></trkpt><trkpt lat="45.6628159" lon="10.1291766"><ele>526.6666666666666</ele><time>2026-04-26T07:20:48.086Z</time></trkpt><trkpt lat="45.662969" lon="10.1292052"><ele>516.0</ele><time>2026-04-26T07:20:49.087Z</time></trkpt><trkpt lat="45.6631118" lon="10.1292422"><ele>516.0</ele><time>2026-04-26T07:20:50.087Z</time></trkpt><trkpt lat="45.663232" lon="10.1292796"><ele>516.0</ele><time>2026-04-26T07:20:51.087Z</time></trkpt><trkpt lat="45.6633378" lon="10.1293488"><ele>516.0</ele><time>2026-04-26T07:20:52.087Z</time></trkpt><trkpt lat="45.6634136" lon="10.1294683"><ele>516.0</ele><time>2026-04-26T07:20:53.087Z</time></trkpt><trkpt lat="45.6634829" lon="10.129618"><ele>516.0</ele><time>2026-04-26T07:20:54.087Z</time></trkpt><trkpt lat="45.6635548" lon="10.1297942"><ele>516.0</ele><time>2026-04-26T07:20:55.087Z</time></trkpt><trkpt lat="45.6636333" lon="10.1299828"><ele>516.0</ele><time>2026-04-26T07:20:56.087Z</time></trkpt><trkpt lat="45.6637198" lon="10.1301821"><ele>512.6666666666666</ele><time>2026-04-26T07:20:57.087Z</time></trkpt><trkpt lat="45.6638036" lon="10.1303884"><ele>509.3333333333333</ele><time>2026-04-26T07:20:58.087Z</time></trkpt><trkpt lat="45.6638898" lon="10.1305949"><ele>506.0</ele><time>2026-04-26T07:20:59.087Z</time></trkpt><trkpt lat="45.6639726" lon="10.1307924"><ele>506.0</ele><time>2026-04-26T07:21:00.086Z</time></trkpt><trkpt lat="45.6640548" lon="10.1309929"><ele>506.0</ele><time>2026-04-26T07:21:01.087Z</time></trkpt><trkpt lat="45.6641339" lon="10.1311909"><ele>506.0</ele><time>2026-04-26T07:21:02.087Z</time></trkpt><trkpt lat="45.6641862" lon="10.1313824"><ele>503.5</ele><time>2026-04-26T07:21:03.086Z</time></trkpt><trkpt lat="45.6642071" lon="10.1315941"><ele>501.0</ele><time>2026-04-26T07:21:04.087Z</time></trkpt><trkpt lat="45.6642016" lon="10.1317993"><ele>498.5</ele><time>2026-04-26T07:21:05.087Z</time></trkpt><trkpt lat="45.6641807" lon="10.1320052"><ele>496.0</ele><time>2026-04-26T07:21:06.087Z</time></trkpt><trkpt lat="45.6641364" lon="10.1321995"><ele>496.0</ele><time>2026-04-26T07:21:07.087Z</time></trkpt><trkpt lat="45.6640663" lon="10.1323814"><ele>496.0</ele><time>2026-04-26T07:21:08.086Z</time></trkpt><trkpt lat="45.6639959" lon="10.1325407"><ele>496.0</ele><time>2026-04-26T07:21:09.087Z</time></trkpt><trkpt lat="45.6639458" lon="10.1326917"><ele>496.0</ele><time>2026-04-26T07:21:10.087Z</time></trkpt><trkpt lat="45.6639345" lon="10.1328368"><ele>494.75</ele><time>2026-04-26T07:21:11.087Z</time></trkpt><trkpt lat="45.663969" lon="10.1329816"><ele>493.5</ele><time>2026-04-26T07:21:12.086Z</time></trkpt><trkpt lat="45.6640463" lon="10.1331171"><ele>492.25</ele><time>2026-04-26T07:21:13.087Z</time></trkpt><trkpt lat="45.6641568" lon="10.1332474"><ele>491.0</ele><time>2026-04-26T07:21:14.087Z</time></trkpt><trkpt lat="45.6642612" lon="10.1333699"><ele>487.75</ele><time>2026-04-26T07:21:15.086Z</time></trkpt><trkpt lat="45.6643494" lon="10.1334984"><ele>484.5</ele><time>2026-04-26T07:21:16.087Z</time></trkpt><trkpt lat="45.6644032" lon="10.133634"><ele>481.25</ele><time>2026-04-26T07:21:17.086Z</time></trkpt><trkpt lat="45.6644188" lon="10.1337816"><ele>478.0</ele><time>2026-04-26T07:21:18.087Z</time></trkpt><trkpt lat="45.6643984" lon="10.1339445"><ele>476.25</ele><time>2026-04-26T07:21:19.087Z</time></trkpt><trkpt lat="45.6643638" lon="10.1341218"><ele>474.5</ele><time>2026-04-26T07:21:20.087Z</time></trkpt><trkpt lat="45.6643506" lon="10.1343256"><ele>472.75</ele><time>2026-04-26T07:21:21.087Z</time></trkpt><trkpt lat="45.6643535" lon="10.1345485"><ele>471.0</ele><time>2026-04-26T07:21:22.086Z</time></trkpt><trkpt lat="45.664366" lon="10.1347852"><ele>470.0</ele><time>2026-04-26T07:21:23.086Z</time></trkpt><trkpt lat="45.6643803" lon="10.1350364"><ele>469.0</ele><time>2026-04-26T07:21:24.087Z</time></trkpt><trkpt lat="45.6643987" lon="10.1352879"><ele>468.0</ele><time>2026-04-26T07:21:25.086Z</time></trkpt><trkpt lat="45.6644151" lon="10.1355304"><ele>464.66666666666663</ele><time>2026-04-26T07:21:26.086Z</time></trkpt><trkpt lat="45.6644293" lon="10.135776"><ele>461.3333333333333</ele><time>2026-04-26T07:21:27.086Z</time></trkpt><trkpt lat="45.6644275" lon="10.1360178"><ele>458.0</ele><time>2026-04-26T07:21:28.087Z</time></trkpt><trkpt lat="45.6644134" lon="10.1362484"><ele>458.0</ele><time>2026-04-26T07:21:29.086Z</time></trkpt><trkpt lat="45.6643829" lon="10.1364789"><ele>458.0</ele><time>2026-04-26T07:21:30.087Z</time></trkpt><trkpt lat="45.6643588" lon="10.1367089"><ele>458.0</ele><time>2026-04-26T07:21:31.087Z</time></trkpt><trkpt lat="45.6643394" lon="10.136931"><ele>457.0</ele><time>2026-04-26T07:21:32.087Z</time></trkpt><trkpt lat="45.6643406" lon="10.1371541"><ele>456.0</ele><time>2026-04-26T07:21:33.087Z</time></trkpt><trkpt lat="45.6643502" lon="10.1373728"><ele>455.0</ele><time>2026-04-26T07:21:34.087Z</time></trkpt><trkpt lat="45.6643708" lon="10.1375898"><ele>454.75</ele><time>2026-04-26T07:21:35.087Z</time></trkpt><trkpt lat="45.6644056" lon="10.1377957"><ele>454.5</ele><time>2026-04-26T07:21:36.087Z</time></trkpt><trkpt lat="45.6644641" lon="10.1379857"><ele>454.25</ele><time>2026-04-26T07:21:37.087Z</time></trkpt><trkpt lat="45.6645512" lon="10.138158"><ele>454.0</ele><time>2026-04-26T07:21:38.087Z</time></trkpt><trkpt lat="45.664656" lon="10.1383276"><ele>454.0</ele><time>2026-04-26T07:21:39.087Z</time></trkpt><trkpt lat="45.6647666" lon="10.1384873"><ele>454.0</ele><time>2026-04-26T07:21:40.087Z</time></trkpt><trkpt lat="45.6648836" lon="10.1386575"><ele>454.0</ele><time>2026-04-26T07:21:41.086Z</time></trkpt><trkpt lat="45.6650032" lon="10.1388289"><ele>454.0</ele><time>2026-04-26T07:21:42.087Z</time></trkpt><trkpt lat="45.6651249" lon="10.1389993"><ele>454.0</ele><time>2026-04-26T07:21:43.086Z</time></trkpt><trkpt lat="45.6652477" lon="10.1391617"><ele>454.0</ele><time>2026-04-26T07:21:44.087Z</time></trkpt><trkpt lat="45.6653708" lon="10.1393278"><ele>452.0</ele><time>2026-04-26T07:21:45.087Z</time></trkpt><trkpt lat="45.6654963" lon="10.1394926"><ele>450.0</ele><time>2026-04-26T07:21:46.087Z</time></trkpt><trkpt lat="45.665623" lon="10.1396524"><ele>448.0</ele><time>2026-04-26T07:21:47.087Z</time></trkpt><trkpt lat="45.6657544" lon="10.1398066"><ele>446.6666666666667</ele><time>2026-04-26T07:21:48.087Z</time></trkpt><trkpt lat="45.6658893" lon="10.1399586"><ele>445.33333333333337</ele><time>2026-04-26T07:21:49.087Z</time></trkpt><trkpt lat="45.6660242" lon="10.1401119"><ele>444.0</ele><time>2026-04-26T07:21:50.087Z</time></trkpt><trkpt lat="45.6661606" lon="10.1402684"><ele>444.0</ele><time>2026-04-26T07:21:51.087Z</time></trkpt><trkpt lat="45.6662967" lon="10.1404263"><ele>444.0</ele><time>2026-04-26T07:21:52.087Z</time></trkpt><trkpt lat="45.6664279" lon="10.1405903"><ele>444.0</ele><time>2026-04-26T07:21:53.087Z</time></trkpt><trkpt lat="45.6665488" lon="10.1407634"><ele>438.33333333333337</ele><time>2026-04-26T07:21:54.087Z</time></trkpt><trkpt lat="45.6666544" lon="10.1409588"><ele>432.6666666666667</ele><time>2026-04-26T07:21:55.087Z</time></trkpt><trkpt lat="45.6667619" lon="10.1411515"><ele>427.0</ele><time>2026-04-26T07:21:56.087Z</time></trkpt><trkpt lat="45.666866" lon="10.1413353"><ele>427.6666666666667</ele><time>2026-04-26T07:21:57.087Z</time></trkpt><trkpt lat="45.6669673" lon="10.1415226"><ele>428.33333333333337</ele><time>2026-04-26T07:21:58.086Z</time></trkpt><trkpt lat="45.6670613" lon="10.1417155"><ele>429.0</ele><time>2026-04-26T07:21:59.086Z</time></trkpt><trkpt lat="45.667151" lon="10.1419091"><ele>429.0</ele><time>2026-04-26T07:22:00.086Z</time></trkpt><trkpt lat="45.6672339" lon="10.1421109"><ele>429.0</ele><time>2026-04-26T07:22:01.087Z</time></trkpt><trkpt lat="45.6672984" lon="10.1423157"><ele>429.0</ele><time>2026-04-26T07:22:02.087Z</time></trkpt><trkpt lat="45.6673644" lon="10.1425136"><ele>427.75</ele><time>2026-04-26T07:22:03.087Z</time></trkpt><trkpt lat="45.6674443" lon="10.1426935"><ele>426.5</ele><time>2026-04-26T07:22:04.086Z</time></trkpt><trkpt lat="45.6675344" lon="10.1428636"><ele>425.25</ele><time>2026-04-26T07:22:05.086Z</time></trkpt><trkpt lat="45.6676313" lon="10.1430144"><ele>424.0</ele><time>2026-04-26T07:22:06.086Z</time></trkpt><trkpt lat="45.6677272" lon="10.1431646"><ele>424.33333333333337</ele><time>2026-04-26T07:22:07.087Z</time></trkpt><trkpt lat="45.6678275" lon="10.1433236"><ele>424.66666666666663</ele><time>2026-04-26T07:22:08.087Z</time></trkpt><trkpt lat="45.6679301" lon="10.1434873"><ele>425.0</ele><time>2026-04-26T07:22:09.087Z</time></trkpt><trkpt lat="45.6680384" lon="10.143639"><ele>425.0</ele><time>2026-04-26T07:22:10.087Z</time></trkpt><trkpt lat="45.6681454" lon="10.1437939"><ele>425.0</ele><time>2026-04-26T07:22:11.087Z</time></trkpt><trkpt lat="45.6682479" lon="10.1439476"><ele>425.0</ele><time>2026-04-26T07:22:12.087Z</time></trkpt><trkpt lat="45.6683485" lon="10.1440966"><ele>425.0</ele><time>2026-04-26T07:22:13.087Z</time></trkpt><trkpt lat="45.668444" lon="10.1442446"><ele>422.75</ele><time>2026-04-26T07:22:14.087Z</time></trkpt><trkpt lat="45.6685176" lon="10.1444045"><ele>420.5</ele><time>2026-04-26T07:22:15.087Z</time></trkpt><trkpt lat="45.6685707" lon="10.1445744"><ele>418.25</ele><time>2026-04-26T07:22:16.086Z</time></trkpt><trkpt lat="45.6685872" lon="10.1447601"><ele>416.0</ele><time>2026-04-26T07:22:17.087Z</time></trkpt><trkpt lat="45.6685827" lon="10.1449606"><ele>416.0</ele><time>2026-04-26T07:22:18.087Z</time></trkpt><trkpt lat="45.6685696" lon="10.1451617"><ele>416.0</ele><time>2026-04-26T07:22:19.087Z</time></trkpt><trkpt lat="45.6685576" lon="10.145363"><ele>416.0</ele><time>2026-04-26T07:22:20.087Z</time></trkpt><trkpt lat="45.6685474" lon="10.1455577"><ele>416.0</ele><time>2026-04-26T07:22:21.087Z</time></trkpt><trkpt lat="45.668558" lon="10.1457424"><ele>415.5</ele><time>2026-04-26T07:22:22.087Z</time></trkpt><trkpt lat="45.6686091" lon="10.1459132"><ele>415.0</ele><time>2026-04-26T07:22:23.087Z</time></trkpt><trkpt lat="45.6686907" lon="10.1460694"><ele>414.5</ele><time>2026-04-26T07:22:24.087Z</time></trkpt><trkpt lat="45.6687888" lon="10.1462145"><ele>414.0</ele><time>2026-04-26T07:22:25.087Z</time></trkpt><trkpt lat="45.6688877" lon="10.1463663"><ele>414.0</ele><time>2026-04-26T07:22:26.086Z</time></trkpt><trkpt lat="45.6689781" lon="10.1465258"><ele>414.0</ele><time>2026-04-26T07:22:27.087Z</time></trkpt><trkpt lat="45.6690547" lon="10.1466968"><ele>414.0</ele><time>2026-04-26T07:22:28.087Z</time></trkpt><trkpt lat="45.6691109" lon="10.1468726"><ele>414.0</ele><time>2026-04-26T07:22:29.087Z</time></trkpt><trkpt lat="45.6691582" lon="10.1470535"><ele>411.0</ele><time>2026-04-26T07:22:30.087Z</time></trkpt><trkpt lat="45.6691948" lon="10.1472413"><ele>408.0</ele><time>2026-04-26T07:22:31.086Z</time></trkpt><trkpt lat="45.6692193" lon="10.147435"><ele>405.0</ele><time>2026-04-26T07:22:32.087Z</time></trkpt><trkpt lat="45.6692266" lon="10.1476292"><ele>402.0</ele><time>2026-04-26T07:22:33.087Z</time></trkpt><trkpt lat="45.6692293" lon="10.1478169"><ele>400.0</ele><time>2026-04-26T07:22:34.087Z</time></trkpt><trkpt lat="45.6692248" lon="10.1479997"><ele>398.0</ele><time>2026-04-26T07:22:35.087Z</time></trkpt><trkpt lat="45.6692175" lon="10.1481677"><ele>396.0</ele><time>2026-04-26T07:22:36.087Z</time></trkpt><trkpt lat="45.6691877" lon="10.1483267"><ele>394.0</ele><time>2026-04-26T07:22:37.087Z</time></trkpt><trkpt lat="45.6691346" lon="10.1484799"><ele>393.0</ele><time>2026-04-26T07:22:38.087Z</time></trkpt><trkpt lat="45.669064" lon="10.1486225"><ele>392.0</ele><time>2026-04-26T07:22:39.087Z</time></trkpt><trkpt lat="45.6689726" lon="10.1487479"><ele>391.0</ele><time>2026-04-26T07:22:40.087Z</time></trkpt><trkpt lat="45.6688743" lon="10.1488594"><ele>390.0</ele><time>2026-04-26T07:22:41.087Z</time></trkpt><trkpt lat="45.6687764" lon="10.1489715"><ele>389.25</ele><time>2026-04-26T07:22:42.087Z</time></trkpt><trkpt lat="45.6686772" lon="10.1490821"><ele>388.5</ele><time>2026-04-26T07:22:43.087Z</time></trkpt><trkpt lat="45.6685739" lon="10.1491924"><ele>387.75</ele><time>2026-04-26T07:22:44.087Z</time></trkpt><trkpt lat="45.6684709" lon="10.1493015"><ele>387.0</ele><time>2026-04-26T07:22:45.087Z</time></trkpt><trkpt lat="45.668368" lon="10.1494158"><ele>386.75</ele><time>2026-04-26T07:22:46.087Z</time></trkpt><trkpt lat="45.6682626" lon="10.1495401"><ele>386.5</ele><time>2026-04-26T07:22:47.087Z</time></trkpt><trkpt lat="45.6681647" lon="10.1496774"><ele>386.25</ele><time>2026-04-26T07:22:48.087Z</time></trkpt><trkpt lat="45.66807" lon="10.1498319"><ele>386.0</ele><time>2026-04-26T07:22:49.087Z</time></trkpt><trkpt lat="45.6679807" lon="10.1499955"><ele>384.66666666666663</ele><time>2026-04-26T07:22:50.087Z</time></trkpt><trkpt lat="45.6678975" lon="10.1501677"><ele>383.3333333333333</ele><time>2026-04-26T07:22:51.087Z</time></trkpt><trkpt lat="45.667817" lon="10.1503526"><ele>382.0</ele><time>2026-04-26T07:22:52.086Z</time></trkpt><trkpt lat="45.6677454" lon="10.1505444"><ele>382.0</ele><time>2026-04-26T07:22:53.086Z</time></trkpt><trkpt lat="45.6676855" lon="10.1507481"><ele>382.0</ele><time>2026-04-26T07:22:54.087Z</time></trkpt><trkpt lat="45.667646" lon="10.1509546"><ele>382.0</ele><time>2026-04-26T07:22:55.087Z</time></trkpt><trkpt lat="45.6676209" lon="10.1511651"><ele>382.0</ele><time>2026-04-26T07:22:56.086Z</time></trkpt><trkpt lat="45.6675988" lon="10.1513697"><ele>382.0</ele><time>2026-04-26T07:22:57.087Z</time></trkpt><trkpt lat="45.6675807" lon="10.1515675"><ele>382.0</ele><time>2026-04-26T07:22:58.087Z</time></trkpt><trkpt lat="45.6675638" lon="10.1517613"><ele>382.0</ele><time>2026-04-26T07:22:59.086Z</time></trkpt><trkpt lat="45.6675493" lon="10.1519451"><ele>379.25</ele><time>2026-04-26T07:23:00.087Z</time></trkpt><trkpt lat="45.6675354" lon="10.152129"><ele>376.5</ele><time>2026-04-26T07:23:01.087Z</time></trkpt><trkpt lat="45.6675244" lon="10.1523007"><ele>373.75</ele><time>2026-04-26T07:23:02.087Z</time></trkpt><trkpt lat="45.6675116" lon="10.1524669"><ele>371.0</ele><time>2026-04-26T07:23:03.087Z</time></trkpt><trkpt lat="45.6674959" lon="10.1526332"><ele>370.5</ele><time>2026-04-26T07:23:04.087Z</time></trkpt><trkpt lat="45.6674864" lon="10.1527971"><ele>370.0</ele><time>2026-04-26T07:23:05.086Z</time></trkpt><trkpt lat="45.6674845" lon="10.1529679"><ele>369.5</ele><time>2026-04-26T07:23:06.086Z</time></trkpt><trkpt lat="45.6675038" lon="10.1531427"><ele>369.0</ele><time>2026-04-26T07:23:07.087Z</time></trkpt><trkpt lat="45.6675431" lon="10.1533105"><ele>367.75</ele><time>2026-04-26T07:23:08.087Z</time></trkpt><trkpt lat="45.6675871" lon="10.1534772"><ele>366.5</ele><time>2026-04-26T07:23:09.087Z</time></trkpt><trkpt lat="45.6676358" lon="10.1536415"><ele>365.25</ele><time>2026-04-26T07:23:10.087Z</time></trkpt><trkpt lat="45.6676816" lon="10.1538145"><ele>364.0</ele><time>2026-04-26T07:23:11.087Z</time></trkpt><trkpt lat="45.6677265" lon="10.1539885"><ele>363.25</ele><time>2026-04-26T07:23:12.087Z</time></trkpt><trkpt lat="45.6677746" lon="10.1541627"><ele>362.5</ele><time>2026-04-26T07:23:13.087Z</time></trkpt><trkpt lat="45.6678236" lon="10.1543381"><ele>361.75</ele><time>2026-04-26T07:23:14.087Z</time></trkpt><trkpt lat="45.667873" lon="10.1545159"><ele>361.0</ele><time>2026-04-26T07:23:15.087Z</time></trkpt><trkpt lat="45.6679239" lon="10.1546926"><ele>361.25</ele><time>2026-04-26T07:23:16.087Z</time></trkpt><trkpt lat="45.6679731" lon="10.1548721"><ele>361.5</ele><time>2026-04-26T07:23:17.087Z</time></trkpt><trkpt lat="45.6680248" lon="10.1550511"><ele>361.75</ele><time>2026-04-26T07:23:18.087Z</time></trkpt><trkpt lat="45.6680751" lon="10.1552325"><ele>362.0</ele><time>2026-04-26T07:23:19.087Z</time></trkpt><trkpt lat="45.6681255" lon="10.1554133"><ele>362.0</ele><time>2026-04-26T07:23:20.087Z</time></trkpt><trkpt lat="45.668176" lon="10.1555887"><ele>362.0</ele><time>2026-04-26T07:23:21.087Z</time></trkpt><trkpt lat="45.6682251" lon="10.1557646"><ele>362.0</ele><time>2026-04-26T07:23:22.087Z</time></trkpt><trkpt lat="45.6682734" lon="10.1559495"><ele>362.0</ele><time>2026-04-26T07:23:23.086Z</time></trkpt><trkpt lat="45.6683163" lon="10.1561287"><ele>361.25</ele><time>2026-04-26T07:23:24.087Z</time></trkpt><trkpt lat="45.6683583" lon="10.156302"><ele>360.5</ele><time>2026-04-26T07:23:25.087Z</time></trkpt><trkpt lat="45.6684038" lon="10.1564705"><ele>359.75</ele><time>2026-04-26T07:23:26.086Z</time></trkpt><trkpt lat="45.668446" lon="10.1566342"><ele>359.0</ele><time>2026-04-26T07:23:27.087Z</time></trkpt><trkpt lat="45.668486" lon="10.156789"><ele>357.75</ele><time>2026-04-26T07:23:28.087Z</time></trkpt><trkpt lat="45.668526" lon="10.1569416"><ele>356.5</ele><time>2026-04-26T07:23:29.087Z</time></trkpt><trkpt lat="45.6685651" lon="10.1570931"><ele>355.25</ele><time>2026-04-26T07:23:30.087Z</time></trkpt><trkpt lat="45.668602" lon="10.1572514"><ele>354.0</ele><time>2026-04-26T07:23:31.086Z</time></trkpt><trkpt lat="45.6686397" lon="10.1574231"><ele>354.75</ele><time>2026-04-26T07:23:32.087Z</time></trkpt><trkpt lat="45.6686811" lon="10.1576125"><ele>355.5</ele><time>2026-04-26T07:23:33.087Z</time></trkpt><trkpt lat="45.668728" lon="10.1578057"><ele>356.25</ele><time>2026-04-26T07:23:34.087Z</time></trkpt><trkpt lat="45.6687759" lon="10.1580057"><ele>357.0</ele><time>2026-04-26T07:23:35.087Z</time></trkpt><trkpt lat="45.6688209" lon="10.1582085"><ele>357.0</ele><time>2026-04-26T07:23:36.087Z</time></trkpt><trkpt lat="45.6688673" lon="10.15841"><ele>357.0</ele><time>2026-04-26T07:23:37.086Z</time></trkpt><trkpt lat="45.6689104" lon="10.1586154"><ele>357.0</ele><time>2026-04-26T07:23:38.087Z</time></trkpt><trkpt lat="45.6689525" lon="10.1588284"><ele>353.6666666666667</ele><time>2026-04-26T07:23:39.087Z</time></trkpt><trkpt lat="45.6689939" lon="10.1590376"><ele>350.33333333333337</ele><time>2026-04-26T07:23:40.087Z</time></trkpt><trkpt lat="45.66904" lon="10.1592482"><ele>347.0</ele><time>2026-04-26T07:23:41.087Z</time></trkpt><trkpt lat="45.6690861" lon="10.1594567"><ele>347.0</ele><time>2026-04-26T07:23:42.086Z</time></trkpt><trkpt lat="45.6691298" lon="10.1596666"><ele>347.0</ele><time>2026-04-26T07:23:43.086Z</time></trkpt><trkpt lat="45.669173" lon="10.1598703"><ele>347.0</ele><time>2026-04-26T07:23:44.087Z</time></trkpt><trkpt lat="45.6692185" lon="10.1600645"><ele>347.0</ele><time>2026-04-26T07:23:45.086Z</time></trkpt><trkpt lat="45.6692601" lon="10.1602544"><ele>346.5</ele><time>2026-04-26T07:23:46.086Z</time></trkpt><trkpt lat="45.6693029" lon="10.1604424"><ele>346.0</ele><time>2026-04-26T07:23:47.086Z</time></trkpt><trkpt lat="45.6693441" lon="10.1606318"><ele>345.5</ele><time>2026-04-26T07:23:48.087Z</time></trkpt><trkpt lat="45.6693852" lon="10.160825"><ele>345.0</ele><time>2026-04-26T07:23:49.087Z</time></trkpt><trkpt lat="45.6694266" lon="10.1610249"><ele>346.25</ele><time>2026-04-26T07:23:50.087Z</time></trkpt><trkpt lat="45.6694677" lon="10.1612227"><ele>347.5</ele><time>2026-04-26T07:23:51.086Z</time></trkpt><trkpt lat="45.6695083" lon="10.1614186"><ele>348.75</ele><time>2026-04-26T07:23:52.086Z</time></trkpt><trkpt lat="45.6695504" lon="10.1616106"><ele>350.0</ele><time>2026-04-26T07:23:53.087Z</time></trkpt><trkpt lat="45.6695892" lon="10.1618022"><ele>350.0</ele><time>2026-04-26T07:23:54.086Z</time></trkpt><trkpt lat="45.6696296" lon="10.1620009"><ele>350.0</ele><time>2026-04-26T07:23:55.086Z</time></trkpt><trkpt lat="45.6696703" lon="10.1622014"><ele>350.0</ele><time>2026-04-26T07:23:56.087Z</time></trkpt><trkpt lat="45.6697086" lon="10.162403"><ele>350.0</ele><time>2026-04-26T07:23:57.087Z</time></trkpt><trkpt lat="45.6697418" lon="10.1626105"><ele>348.5</ele><time>2026-04-26T07:23:58.086Z</time></trkpt><trkpt lat="45.6697779" lon="10.1628161"><ele>347.0</ele><time>2026-04-26T07:23:59.087Z</time></trkpt><trkpt lat="45.6698119" lon="10.1630209"><ele>345.5</ele><time>2026-04-26T07:24:00.087Z</time></trkpt><trkpt lat="45.6698452" lon="10.1632291"><ele>344.0</ele><time>2026-04-26T07:24:01.087Z</time></trkpt><trkpt lat="45.6698777" lon="10.1634314"><ele>343.75</ele><time>2026-04-26T07:24:02.087Z</time></trkpt><trkpt lat="45.6699099" lon="10.1636362"><ele>343.5</ele><time>2026-04-26T07:24:03.086Z</time></trkpt><trkpt lat="45.6699389" lon="10.1638348"><ele>343.25</ele><time>2026-04-26T07:24:04.087Z</time></trkpt><trkpt lat="45.6699703" lon="10.1640304"><ele>343.0</ele><time>2026-04-26T07:24:05.087Z</time></trkpt><trkpt lat="45.6700031" lon="10.1642333"><ele>342.25</ele><time>2026-04-26T07:24:06.086Z</time></trkpt><trkpt lat="45.6700348" lon="10.1644295"><ele>341.5</ele><time>2026-04-26T07:24:07.086Z</time></trkpt><trkpt lat="45.670068" lon="10.1646322"><ele>340.75</ele><time>2026-04-26T07:24:08.086Z</time></trkpt><trkpt lat="45.6700998" lon="10.1648391"><ele>340.0</ele><time>2026-04-26T07:24:09.087Z</time></trkpt><trkpt lat="45.670136" lon="10.1650481"><ele>338.66666666666663</ele><time>2026-04-26T07:24:10.087Z</time></trkpt><trkpt lat="45.6701697" lon="10.1652605"><ele>337.3333333333333</ele><time>2026-04-26T07:24:11.087Z</time></trkpt><trkpt lat="45.670204" lon="10.1654766"><ele>336.0</ele><time>2026-04-26T07:24:12.087Z</time></trkpt><trkpt lat="45.6702348" lon="10.1656994"><ele>334.6666666666667</ele><time>2026-04-26T07:24:13.087Z</time></trkpt><trkpt lat="45.6702686" lon="10.1659179"><ele>333.33333333333337</ele><time>2026-04-26T07:24:14.087Z</time></trkpt><trkpt lat="45.6703023" lon="10.1661328"><ele>332.0</ele><time>2026-04-26T07:24:15.086Z</time></trkpt><trkpt lat="45.6703337" lon="10.1663428"><ele>332.5</ele><time>2026-04-26T07:24:16.087Z</time></trkpt><trkpt lat="45.6703658" lon="10.1665506"><ele>333.0</ele><time>2026-04-26T07:24:17.087Z</time></trkpt><trkpt lat="45.6703976" lon="10.1667489"><ele>333.5</ele><time>2026-04-26T07:24:18.087Z</time></trkpt><trkpt lat="45.6704257" lon="10.1669415"><ele>334.0</ele><time>2026-04-26T07:24:19.086Z</time></trkpt><trkpt lat="45.6704567" lon="10.1671333"><ele>334.0</ele><time>2026-04-26T07:24:20.086Z</time></trkpt><trkpt lat="45.6704862" lon="10.1673177"><ele>334.0</ele><time>2026-04-26T07:24:21.087Z</time></trkpt><trkpt lat="45.6705125" lon="10.167509"><ele>334.0</ele><time>2026-04-26T07:24:22.087Z</time></trkpt><trkpt lat="45.6705398" lon="10.1676992"><ele>334.0</ele><time>2026-04-26T07:24:23.087Z</time></trkpt><trkpt lat="45.6705705" lon="10.1678928"><ele>333.25</ele><time>2026-04-26T07:24:24.087Z</time></trkpt><trkpt lat="45.6706007" lon="10.1680899"><ele>332.5</ele><time>2026-04-26T07:24:25.086Z</time></trkpt><trkpt lat="45.6706342" lon="10.1682863"><ele>331.75</ele><time>2026-04-26T07:24:26.087Z</time></trkpt><trkpt lat="45.6706645" lon="10.1684856"><ele>331.0</ele><time>2026-04-26T07:24:27.086Z</time></trkpt><trkpt lat="45.6706961" lon="10.1686834"><ele>330.75</ele><time>2026-04-26T07:24:28.086Z</time></trkpt><trkpt lat="45.6707303" lon="10.1688869"><ele>330.5</ele><time>2026-04-26T07:24:29.087Z</time></trkpt><trkpt lat="45.6707614" lon="10.1690875"><ele>330.25</ele><time>2026-04-26T07:24:30.087Z</time></trkpt><trkpt lat="45.6707916" lon="10.1692777"><ele>330.0</ele><time>2026-04-26T07:24:31.086Z</time></trkpt><trkpt lat="45.670819" lon="10.1694635"><ele>329.75</ele><time>2026-04-26T07:24:32.087Z</time></trkpt><trkpt lat="45.6708469" lon="10.1696474"><ele>329.5</ele><time>2026-04-26T07:24:33.087Z</time></trkpt><trkpt lat="45.6708789" lon="10.1698254"><ele>329.25</ele><time>2026-04-26T07:24:34.087Z</time></trkpt><trkpt lat="45.6709075" lon="10.1700021"><ele>329.0</ele><time>2026-04-26T07:24:35.087Z</time></trkpt><trkpt lat="45.6709383" lon="10.1701889"><ele>328.5</ele><time>2026-04-26T07:24:36.087Z</time></trkpt><trkpt lat="45.6709665" lon="10.1703784"><ele>328.0</ele><time>2026-04-26T07:24:37.086Z</time></trkpt><trkpt lat="45.6709974" lon="10.1705739"><ele>327.5</ele><time>2026-04-26T07:24:38.087Z</time></trkpt><trkpt lat="45.6710274" lon="10.1707729"><ele>327.0</ele><time>2026-04-26T07:24:39.087Z</time></trkpt><trkpt lat="45.6710578" lon="10.1709721"><ele>327.0</ele><time>2026-04-26T07:24:40.087Z</time></trkpt><trkpt lat="45.6710868" lon="10.1711684"><ele>327.0</ele><time>2026-04-26T07:24:41.087Z</time></trkpt><trkpt lat="45.6711159" lon="10.1713604"><ele>327.0</ele><time>2026-04-26T07:24:42.087Z</time></trkpt><trkpt lat="45.6711465" lon="10.1715573"><ele>327.0</ele><time>2026-04-26T07:24:43.087Z</time></trkpt><trkpt lat="45.6711745" lon="10.1717499"><ele>327.0</ele><time>2026-04-26T07:24:44.087Z</time></trkpt><trkpt lat="45.6712065" lon="10.1719356"><ele>327.0</ele><time>2026-04-26T07:24:45.086Z</time></trkpt><trkpt lat="45.6712341" lon="10.1721154"><ele>327.0</ele><time>2026-04-26T07:24:46.086Z</time></trkpt><trkpt lat="45.6712637" lon="10.1722933"><ele>327.0</ele><time>2026-04-26T07:24:47.087Z</time></trkpt><trkpt lat="45.6712912" lon="10.1724672"><ele>326.75</ele><time>2026-04-26T07:24:48.087Z</time></trkpt><trkpt lat="45.6713182" lon="10.1726354"><ele>326.5</ele><time>2026-04-26T07:24:49.087Z</time></trkpt><trkpt lat="45.6713423" lon="10.1728025"><ele>326.25</ele><time>2026-04-26T07:24:50.087Z</time></trkpt><trkpt lat="45.671362" lon="10.1729668"><ele>326.0</ele><time>2026-04-26T07:24:51.087Z</time></trkpt><trkpt lat="45.6713707" lon="10.173133"><ele>326.75</ele><time>2026-04-26T07:24:52.086Z</time></trkpt><trkpt lat="45.6713679" lon="10.1732987"><ele>327.5</ele><time>2026-04-26T07:24:53.087Z</time></trkpt><trkpt lat="45.6713595" lon="10.1734646"><ele>328.25</ele><time>2026-04-26T07:24:54.087Z</time></trkpt><trkpt lat="45.6713339" lon="10.1736334"><ele>329.0</ele><time>2026-04-26T07:24:55.087Z</time></trkpt><trkpt lat="45.6712926" lon="10.1738047"><ele>329.0</ele><time>2026-04-26T07:24:56.087Z</time></trkpt><trkpt lat="45.6712387" lon="10.1739822"><ele>329.0</ele><time>2026-04-26T07:24:57.087Z</time></trkpt><trkpt lat="45.6711764" lon="10.1741509"><ele>329.0</ele><time>2026-04-26T07:24:58.087Z</time></trkpt><trkpt lat="45.6711158" lon="10.1743279"><ele>329.0</ele><time>2026-04-26T07:24:59.086Z</time></trkpt><trkpt lat="45.6710587" lon="10.1745062"><ele>326.75</ele><time>2026-04-26T07:25:00.087Z</time></trkpt><trkpt lat="45.6710195" lon="10.174685"><ele>324.5</ele><time>2026-04-26T07:25:01.087Z</time></trkpt><trkpt lat="45.6709986" lon="10.1748711"><ele>322.25</ele><time>2026-04-26T07:25:02.087Z</time></trkpt><trkpt lat="45.6709938" lon="10.1750536"><ele>320.0</ele><time>2026-04-26T07:25:03.087Z</time></trkpt><trkpt lat="45.6709992" lon="10.175231"><ele>319.5</ele><time>2026-04-26T07:25:04.087Z</time></trkpt><trkpt lat="45.671003" lon="10.1753997"><ele>319.0</ele><time>2026-04-26T07:25:05.087Z</time></trkpt><trkpt lat="45.6710023" lon="10.1755682"><ele>318.5</ele><time>2026-04-26T07:25:06.086Z</time></trkpt><trkpt lat="45.6710101" lon="10.1757337"><ele>318.0</ele><time>2026-04-26T07:25:07.087Z</time></trkpt><trkpt lat="45.6710143" lon="10.1759022"><ele>317.0</ele><time>2026-04-26T07:25:08.087Z</time></trkpt><trkpt lat="45.67102" lon="10.1760692"><ele>316.0</ele><time>2026-04-26T07:25:09.087Z</time></trkpt><trkpt lat="45.6710174" lon="10.1762295"><ele>315.0</ele><time>2026-04-26T07:25:10.087Z</time></trkpt><trkpt lat="45.6710191" lon="10.1763917"><ele>314.0</ele><time>2026-04-26T07:25:11.086Z</time></trkpt><trkpt lat="45.6710104" lon="10.1765499"><ele>313.75</ele><time>2026-04-26T07:25:12.087Z</time></trkpt><trkpt lat="45.6709906" lon="10.176714"><ele>313.5</ele><time>2026-04-26T07:25:13.087Z</time></trkpt><trkpt lat="45.6709621" lon="10.1768776"><ele>313.25</ele><time>2026-04-26T07:25:14.086Z</time></trkpt><trkpt lat="45.6709243" lon="10.1770446"><ele>313.0</ele><time>2026-04-26T07:25:15.087Z</time></trkpt><trkpt lat="45.6708746" lon="10.177206"><ele>312.25</ele><time>2026-04-26T07:25:16.087Z</time></trkpt><trkpt lat="45.6708177" lon="10.177369"><ele>311.5</ele><time>2026-04-26T07:25:17.087Z</time></trkpt><trkpt lat="45.6707619" lon="10.1775273"><ele>310.75</ele><time>2026-04-26T07:25:18.086Z</time></trkpt><trkpt lat="45.6707091" lon="10.1776902"><ele>310.0</ele><time>2026-04-26T07:25:19.087Z</time></trkpt><trkpt lat="45.6706708" lon="10.1778614"><ele>310.0</ele><time>2026-04-26T07:25:20.087Z</time></trkpt><trkpt lat="45.6706421" lon="10.1780397"><ele>310.0</ele><time>2026-04-26T07:25:21.086Z</time></trkpt><trkpt lat="45.6706204" lon="10.178223"><ele>310.0</ele><time>2026-04-26T07:25:22.087Z</time></trkpt><trkpt lat="45.6706004" lon="10.178412"><ele>310.0</ele><time>2026-04-26T07:25:23.087Z</time></trkpt><trkpt lat="45.6705853" lon="10.1786045"><ele>310.75</ele><time>2026-04-26T07:25:24.087Z</time></trkpt><trkpt lat="45.670571" lon="10.178795"><ele>311.5</ele><time>2026-04-26T07:25:25.087Z</time></trkpt><trkpt lat="45.6705561" lon="10.1789815"><ele>312.25</ele><time>2026-04-26T07:25:26.087Z</time></trkpt><trkpt lat="45.670542" lon="10.1791626"><ele>313.0</ele><time>2026-04-26T07:25:27.086Z</time></trkpt><trkpt lat="45.6705251" lon="10.1793445"><ele>313.0</ele><time>2026-04-26T07:25:28.086Z</time></trkpt><trkpt lat="45.6705136" lon="10.1795209"><ele>313.0</ele><time>2026-04-26T07:25:29.086Z</time></trkpt><trkpt lat="45.6705024" lon="10.1796936"><ele>313.0</ele><time>2026-04-26T07:25:30.087Z</time></trkpt><trkpt lat="45.6704927" lon="10.1798679"><ele>313.0</ele><time>2026-04-26T07:25:31.086Z</time></trkpt><trkpt lat="45.6704789" lon="10.1800427"><ele>313.75</ele><time>2026-04-26T07:25:32.087Z</time></trkpt><trkpt lat="45.6704629" lon="10.1802112"><ele>314.5</ele><time>2026-04-26T07:25:33.086Z</time></trkpt><trkpt lat="45.6704476" lon="10.1803774"><ele>315.25</ele><time>2026-04-26T07:25:34.087Z</time></trkpt><trkpt lat="45.6704353" lon="10.1805426"><ele>316.0</ele><time>2026-04-26T07:25:35.087Z</time></trkpt><trkpt lat="45.67042" lon="10.1807022"><ele>316.0</ele><time>2026-04-26T07:25:36.087Z</time></trkpt><trkpt lat="45.6704076" lon="10.1808632"><ele>316.0</ele><time>2026-04-26T07:25:37.087Z</time></trkpt><trkpt lat="45.6703964" lon="10.1810249"><ele>316.0</ele><time>2026-04-26T07:25:38.087Z</time></trkpt><trkpt lat="45.6703823" lon="10.1811877"><ele>316.0</ele><time>2026-04-26T07:25:39.086Z</time></trkpt><trkpt lat="45.6703553" lon="10.1813546"><ele>318.5</ele><time>2026-04-26T07:25:40.086Z</time></trkpt><trkpt lat="45.6703153" lon="10.1815249"><ele>321.0</ele><time>2026-04-26T07:25:41.087Z</time></trkpt><trkpt lat="45.6702739" lon="10.1816943"><ele>323.5</ele><time>2026-04-26T07:25:42.087Z</time></trkpt><trkpt lat="45.6702382" lon="10.1818575"><ele>326.0</ele><time>2026-04-26T07:25:43.087Z</time></trkpt><trkpt lat="45.6702018" lon="10.1820151"><ele>322.0</ele><time>2026-04-26T07:25:44.087Z</time></trkpt><trkpt lat="45.6701661" lon="10.1821675"><ele>318.0</ele><time>2026-04-26T07:25:45.087Z</time></trkpt><trkpt lat="45.6701334" lon="10.1823107"><ele>314.0</ele><time>2026-04-26T07:25:46.087Z</time></trkpt><trkpt lat="45.6701017" lon="10.1824537"><ele>310.0</ele><time>2026-04-26T07:25:47.087Z</time></trkpt><trkpt lat="45.6700679" lon="10.1825936"><ele>306.0</ele><time>2026-04-26T07:25:48.087Z</time></trkpt><trkpt lat="45.6700296" lon="10.1827341"><ele>306.0</ele><time>2026-04-26T07:25:49.087Z</time></trkpt><trkpt lat="45.6699976" lon="10.1828693"><ele>306.0</ele><time>2026-04-26T07:25:50.086Z</time></trkpt><trkpt lat="45.669971" lon="10.1830122"><ele>306.0</ele><time>2026-04-26T07:25:51.087Z</time></trkpt><trkpt lat="45.6699525" lon="10.1831673"><ele>306.0</ele><time>2026-04-26T07:25:52.087Z</time></trkpt><trkpt lat="45.6699438" lon="10.1833246"><ele>306.0</ele><time>2026-04-26T07:25:53.086Z</time></trkpt><trkpt lat="45.6699369" lon="10.1834827"><ele>306.2</ele><time>2026-04-26T07:25:54.087Z</time></trkpt><trkpt lat="45.6699313" lon="10.1836424"><ele>306.40000000000003</ele><time>2026-04-26T07:25:55.087Z</time></trkpt><trkpt lat="45.6699244" lon="10.1837987"><ele>306.6</ele><time>2026-04-26T07:25:56.087Z</time></trkpt><trkpt lat="45.6699176" lon="10.1839552"><ele>306.8</ele><time>2026-04-26T07:25:57.087Z</time></trkpt><trkpt lat="45.6699188" lon="10.1841104"><ele>307.0</ele><time>2026-04-26T07:25:58.087Z</time></trkpt><trkpt lat="45.6699203" lon="10.1842616"><ele>305.6</ele><time>2026-04-26T07:25:59.086Z</time></trkpt><trkpt lat="45.669923" lon="10.184416"><ele>304.2</ele><time>2026-04-26T07:26:00.087Z</time></trkpt><trkpt lat="45.6699361" lon="10.1845639"><ele>302.8</ele><time>2026-04-26T07:26:01.087Z</time></trkpt><trkpt lat="45.6699584" lon="10.1847123"><ele>301.4</ele><time>2026-04-26T07:26:02.087Z</time></trkpt><trkpt lat="45.6699839" lon="10.1848554"><ele>300.0</ele><time>2026-04-26T07:26:03.087Z</time></trkpt><trkpt lat="45.670021" lon="10.1849894"><ele>299.2</ele><time>2026-04-26T07:26:04.087Z</time></trkpt><trkpt lat="45.6700658" lon="10.1851139"><ele>298.4</ele><time>2026-04-26T07:26:05.086Z</time></trkpt><trkpt lat="45.6701176" lon="10.1852376"><ele>297.6</ele><time>2026-04-26T07:26:06.087Z</time></trkpt><trkpt lat="45.6701767" lon="10.1853551"><ele>296.8</ele><time>2026-04-26T07:26:07.086Z</time></trkpt><trkpt lat="45.6702447" lon="10.1854729"><ele>296.0</ele><time>2026-04-26T07:26:08.086Z</time></trkpt><trkpt lat="45.6703134" lon="10.1855809"><ele>295.8</ele><time>2026-04-26T07:26:09.087Z</time></trkpt><trkpt lat="45.6703815" lon="10.1856814"><ele>295.6</ele><time>2026-04-26T07:26:10.087Z</time></trkpt><trkpt lat="45.6704405" lon="10.1857844"><ele>295.4</ele><time>2026-04-26T07:26:11.087Z</time></trkpt><trkpt lat="45.670497" lon="10.1858894"><ele>295.2</ele><time>2026-04-26T07:26:12.087Z</time></trkpt><trkpt lat="45.6705597" lon="10.1859998"><ele>295.0</ele><time>2026-04-26T07:26:13.087Z</time></trkpt><trkpt lat="45.670624" lon="10.1861059"><ele>295.0</ele><time>2026-04-26T07:26:14.087Z</time></trkpt><trkpt lat="45.6706831" lon="10.1862013"><ele>295.0</ele><time>2026-04-26T07:26:15.087Z</time></trkpt><trkpt lat="45.6707386" lon="10.1862932"><ele>295.0</ele><time>2026-04-26T07:26:16.087Z</time></trkpt><trkpt lat="45.6707885" lon="10.1863841"><ele>295.0</ele><time>2026-04-26T07:26:17.086Z</time></trkpt><trkpt lat="45.6708367" lon="10.1864752"><ele>295.0</ele><time>2026-04-26T07:26:18.087Z</time></trkpt><trkpt lat="45.6708816" lon="10.1865639"><ele>295.0</ele><time>2026-04-26T07:26:19.087Z</time></trkpt><trkpt lat="45.6709232" lon="10.1866498"><ele>294.8333333333333</ele><time>2026-04-26T07:26:20.087Z</time></trkpt><trkpt lat="45.6709669" lon="10.1867326"><ele>294.66666666666663</ele><time>2026-04-26T07:26:21.087Z</time></trkpt><trkpt lat="45.6710107" lon="10.1868181"><ele>294.5</ele><time>2026-04-26T07:26:22.087Z</time></trkpt><trkpt lat="45.6710492" lon="10.1868994"><ele>294.3333333333333</ele><time>2026-04-26T07:26:23.087Z</time></trkpt><trkpt lat="45.671088" lon="10.1869758"><ele>294.1666666666667</ele><time>2026-04-26T07:26:24.087Z</time></trkpt><trkpt lat="45.6711282" lon="10.1870463"><ele>294.0</ele><time>2026-04-26T07:26:25.087Z</time></trkpt><trkpt lat="45.6712024" lon="10.1871721"><ele>294.0</ele><time>2026-04-26T07:26:27.087Z</time></trkpt><trkpt lat="45.6712736" lon="10.1872559"><ele>294.0</ele><time>2026-04-26T07:26:29.087Z</time></trkpt><trkpt lat="45.6713235" lon="10.1873299"><ele>294.0</ele><time>2026-04-26T07:26:39.086Z</time></trkpt><trkpt lat="45.6713961" lon="10.187391"><ele>294.0</ele><time>2026-04-26T07:27:44.087Z</time></trkpt><trkpt lat="45.6715047" lon="10.1874397"><ele>294.0</ele><time>2026-04-26T07:27:46.087Z</time></trkpt><trkpt lat="45.6715689" lon="10.1874181"><ele>294.0</ele><time>2026-04-26T07:27:47.087Z</time></trkpt><trkpt lat="45.6716349" lon="10.1873704"><ele>294.0</ele><time>2026-04-26T07:27:48.087Z</time></trkpt><trkpt lat="45.6717021" lon="10.1873062"><ele>294.0</ele><time>2026-04-26T07:27:49.087Z</time></trkpt><trkpt lat="45.6717693" lon="10.1872432"><ele>294.0</ele><time>2026-04-26T07:27:50.087Z</time></trkpt><trkpt lat="45.6718404" lon="10.1871746"><ele>294.0</ele><time>2026-04-26T07:27:51.087Z</time></trkpt><trkpt lat="45.6719205" lon="10.1871069"><ele>294.0</ele><time>2026-04-26T07:27:52.087Z</time></trkpt><trkpt lat="45.6720069" lon="10.1870377"><ele>294.0</ele><time>2026-04-26T07:27:53.087Z</time></trkpt><trkpt lat="45.6721003" lon="10.1869719"><ele>294.0</ele><time>2026-04-26T07:27:54.086Z</time></trkpt><trkpt lat="45.672196" lon="10.1869036"><ele>294.0</ele><time>2026-04-26T07:27:55.087Z</time></trkpt><trkpt lat="45.6722962" lon="10.1868353"><ele>294.0</ele><time>2026-04-26T07:27:56.087Z</time></trkpt><trkpt lat="45.6724011" lon="10.1867719"><ele>294.0</ele><time>2026-04-26T07:27:57.087Z</time></trkpt><trkpt lat="45.672507" lon="10.1867078"><ele>294.0</ele><time>2026-04-26T07:27:58.087Z</time></trkpt><trkpt lat="45.6726182" lon="10.1866495"><ele>294.0</ele><time>2026-04-26T07:27:59.087Z</time></trkpt><trkpt lat="45.6727327" lon="10.1865977"><ele>294.0</ele><time>2026-04-26T07:28:00.087Z</time></trkpt><trkpt lat="45.672847" lon="10.1865559"><ele>294.0</ele><time>2026-04-26T07:28:01.087Z</time></trkpt><trkpt lat="45.6729692" lon="10.1865124"><ele>294.0</ele><time>2026-04-26T07:28:02.087Z</time></trkpt><trkpt lat="45.6730955" lon="10.1864782"><ele>295.0</ele><time>2026-04-26T07:28:03.087Z</time></trkpt><trkpt lat="45.6732266" lon="10.1864481"><ele>296.0</ele><time>2026-04-26T07:28:04.087Z</time></trkpt><trkpt lat="45.6733632" lon="10.1864251"><ele>297.0</ele><time>2026-04-26T07:28:05.087Z</time></trkpt><trkpt lat="45.6735037" lon="10.1864146"><ele>298.0</ele><time>2026-04-26T07:28:06.087Z</time></trkpt><trkpt lat="45.6736502" lon="10.1864139"><ele>298.25</ele><time>2026-04-26T07:28:07.087Z</time></trkpt><trkpt lat="45.6737939" lon="10.1864165"><ele>298.5</ele><time>2026-04-26T07:28:08.087Z</time></trkpt><trkpt lat="45.6739366" lon="10.1864276"><ele>298.75</ele><time>2026-04-26T07:28:09.087Z</time></trkpt><trkpt lat="45.6740773" lon="10.1864479"><ele>299.0</ele><time>2026-04-26T07:28:10.087Z</time></trkpt><trkpt lat="45.6742212" lon="10.1864673"><ele>299.0</ele><time>2026-04-26T07:28:11.086Z</time></trkpt><trkpt lat="45.6743628" lon="10.1864889"><ele>299.0</ele><time>2026-04-26T07:28:12.087Z</time></trkpt><trkpt lat="45.6745067" lon="10.1865053"><ele>299.0</ele><time>2026-04-26T07:28:13.087Z</time></trkpt><trkpt lat="45.6746523" lon="10.1865242"><ele>299.0</ele><time>2026-04-26T07:28:14.087Z</time></trkpt><trkpt lat="45.6747917" lon="10.1865482"><ele>298.75</ele><time>2026-04-26T07:28:15.086Z</time></trkpt><trkpt lat="45.6749357" lon="10.1865662"><ele>298.5</ele><time>2026-04-26T07:28:16.086Z</time></trkpt><trkpt lat="45.6750786" lon="10.1865807"><ele>298.25</ele><time>2026-04-26T07:28:17.087Z</time></trkpt><trkpt lat="45.6752184" lon="10.1866011"><ele>298.0</ele><time>2026-04-26T07:28:18.087Z</time></trkpt><trkpt lat="45.6753598" lon="10.1866207"><ele>298.5</ele><time>2026-04-26T07:28:19.087Z</time></trkpt><trkpt lat="45.6755036" lon="10.18664"><ele>299.0</ele><time>2026-04-26T07:28:20.087Z</time></trkpt><trkpt lat="45.6756497" lon="10.1866626"><ele>299.5</ele><time>2026-04-26T07:28:21.087Z</time></trkpt><trkpt lat="45.675797" lon="10.1866805"><ele>300.0</ele><time>2026-04-26T07:28:22.086Z</time></trkpt><trkpt lat="45.6759461" lon="10.1866989"><ele>300.0</ele><time>2026-04-26T07:28:23.086Z</time></trkpt><trkpt lat="45.6760954" lon="10.1867297"><ele>300.0</ele><time>2026-04-26T07:28:24.087Z</time></trkpt><trkpt lat="45.6762481" lon="10.1867514"><ele>300.0</ele><time>2026-04-26T07:28:25.087Z</time></trkpt><trkpt lat="45.676401" lon="10.1867748"><ele>301.0</ele><time>2026-04-26T07:28:26.087Z</time></trkpt><trkpt lat="45.6765558" lon="10.1867901"><ele>302.0</ele><time>2026-04-26T07:28:27.087Z</time></trkpt><trkpt lat="45.6767105" lon="10.1868077"><ele>303.0</ele><time>2026-04-26T07:28:28.086Z</time></trkpt><trkpt lat="45.6768668" lon="10.1868252"><ele>303.0</ele><time>2026-04-26T07:28:29.087Z</time></trkpt><trkpt lat="45.6770243" lon="10.1868383"><ele>303.0</ele><time>2026-04-26T07:28:30.086Z</time></trkpt><trkpt lat="45.6771837" lon="10.1868594"><ele>303.0</ele><time>2026-04-26T07:28:31.087Z</time></trkpt><trkpt lat="45.6773457" lon="10.1868787"><ele>303.0</ele><time>2026-04-26T07:28:32.087Z</time></trkpt><trkpt lat="45.6775089" lon="10.1869029"><ele>303.0</ele><time>2026-04-26T07:28:33.087Z</time></trkpt><trkpt lat="45.677671" lon="10.1869216"><ele>303.0</ele><time>2026-04-26T07:28:34.087Z</time></trkpt><trkpt lat="45.6778347" lon="10.1869402"><ele>303.3333333333333</ele><time>2026-04-26T07:28:35.087Z</time></trkpt><trkpt lat="45.6779981" lon="10.18696"><ele>303.66666666666663</ele><time>2026-04-26T07:28:36.086Z</time></trkpt><trkpt lat="45.6781628" lon="10.1869802"><ele>304.0</ele><time>2026-04-26T07:28:37.087Z</time></trkpt><trkpt lat="45.6783251" lon="10.1870016"><ele>304.0</ele><time>2026-04-26T07:28:38.086Z</time></trkpt><trkpt lat="45.678487" lon="10.187023"><ele>304.0</ele><time>2026-04-26T07:28:39.087Z</time></trkpt><trkpt lat="45.6786464" lon="10.1870393"><ele>304.0</ele><time>2026-04-26T07:28:40.087Z</time></trkpt><trkpt lat="45.6788062" lon="10.1870604"><ele>304.0</ele><time>2026-04-26T07:28:41.087Z</time></trkpt><trkpt lat="45.6789582" lon="10.1870867"><ele>304.0</ele><time>2026-04-26T07:28:42.087Z</time></trkpt><trkpt lat="45.6791167" lon="10.1871056"><ele>304.0</ele><time>2026-04-26T07:28:43.087Z</time></trkpt><trkpt lat="45.6792774" lon="10.1871312"><ele>304.66666666666663</ele><time>2026-04-26T07:28:44.087Z</time></trkpt><trkpt lat="45.6794392" lon="10.1871517"><ele>305.3333333333333</ele><time>2026-04-26T07:28:45.087Z</time></trkpt><trkpt lat="45.6795999" lon="10.1871724"><ele>306.0</ele><time>2026-04-26T07:28:46.087Z</time></trkpt><trkpt lat="45.6797588" lon="10.187193"><ele>306.0</ele><time>2026-04-26T07:28:47.087Z</time></trkpt><trkpt lat="45.6799193" lon="10.1872138"><ele>306.0</ele><time>2026-04-26T07:28:48.087Z</time></trkpt><trkpt lat="45.680074" lon="10.1872356"><ele>306.0</ele><time>2026-04-26T07:28:49.086Z</time></trkpt><trkpt lat="45.6802273" lon="10.1872537"><ele>306.3333333333333</ele><time>2026-04-26T07:28:50.087Z</time></trkpt><trkpt lat="45.6803797" lon="10.1872745"><ele>306.66666666666663</ele><time>2026-04-26T07:28:51.087Z</time></trkpt><trkpt lat="45.6805348" lon="10.1872939"><ele>307.0</ele><time>2026-04-26T07:28:52.087Z</time></trkpt><trkpt lat="45.6806928" lon="10.1873078"><ele>307.0</ele><time>2026-04-26T07:28:53.087Z</time></trkpt><trkpt lat="45.6808487" lon="10.1873256"><ele>307.0</ele><time>2026-04-26T07:28:54.087Z</time></trkpt><trkpt lat="45.6809965" lon="10.1873426"><ele>307.0</ele><time>2026-04-26T07:28:55.087Z</time></trkpt><trkpt lat="45.6811443" lon="10.1873615"><ele>307.66666666666663</ele><time>2026-04-26T07:28:56.087Z</time></trkpt><trkpt lat="45.6812928" lon="10.1873803"><ele>308.3333333333333</ele><time>2026-04-26T07:28:57.087Z</time></trkpt><trkpt lat="45.6814433" lon="10.1874003"><ele>309.0</ele><time>2026-04-26T07:28:58.087Z</time></trkpt><trkpt lat="45.6815954" lon="10.187421"><ele>309.0</ele><time>2026-04-26T07:28:59.086Z</time></trkpt><trkpt lat="45.6817492" lon="10.1874378"><ele>309.0</ele><time>2026-04-26T07:29:00.087Z</time></trkpt><trkpt lat="45.6819037" lon="10.1874529"><ele>309.0</ele><time>2026-04-26T07:29:01.087Z</time></trkpt><trkpt lat="45.6820591" lon="10.1874603"><ele>310.3333333333333</ele><time>2026-04-26T07:29:02.087Z</time></trkpt><trkpt lat="45.6822133" lon="10.1874704"><ele>311.66666666666663</ele><time>2026-04-26T07:29:03.087Z</time></trkpt><trkpt lat="45.6823671" lon="10.1874828"><ele>313.0</ele><time>2026-04-26T07:29:04.087Z</time></trkpt><trkpt lat="45.6825198" lon="10.1875014"><ele>313.0</ele><time>2026-04-26T07:29:05.087Z</time></trkpt><trkpt lat="45.6826742" lon="10.187523"><ele>313.0</ele><time>2026-04-26T07:29:06.087Z</time></trkpt><trkpt lat="45.68283" lon="10.1875433"><ele>313.0</ele><time>2026-04-26T07:29:07.086Z</time></trkpt><trkpt lat="45.6829848" lon="10.1875547"><ele>312.3333333333333</ele><time>2026-04-26T07:29:08.087Z</time></trkpt><trkpt lat="45.6831437" lon="10.1875668"><ele>311.6666666666667</ele><time>2026-04-26T07:29:09.087Z</time></trkpt><trkpt lat="45.6833009" lon="10.1875817"><ele>311.0</ele><time>2026-04-26T07:29:10.087Z</time></trkpt><trkpt lat="45.6834573" lon="10.1875938"><ele>311.33333333333337</ele><time>2026-04-26T07:29:11.087Z</time></trkpt><trkpt lat="45.6836065" lon="10.1876116"><ele>311.6666666666667</ele><time>2026-04-26T07:29:12.087Z</time></trkpt><trkpt lat="45.6837591" lon="10.1876156"><ele>312.0</ele><time>2026-04-26T07:29:13.087Z</time></trkpt><trkpt lat="45.6839106" lon="10.1876027"><ele>312.0</ele><time>2026-04-26T07:29:14.086Z</time></trkpt><trkpt lat="45.6840632" lon="10.1875618"><ele>312.0</ele><time>2026-04-26T07:29:15.087Z</time></trkpt><trkpt lat="45.6842153" lon="10.1875056"><ele>312.0</ele><time>2026-04-26T07:29:16.087Z</time></trkpt><trkpt lat="45.6843689" lon="10.1874289"><ele>312.6666666666667</ele><time>2026-04-26T07:29:17.087Z</time></trkpt><trkpt lat="45.6845192" lon="10.187335"><ele>313.33333333333337</ele><time>2026-04-26T07:29:18.087Z</time></trkpt><trkpt lat="45.6846616" lon="10.1872402"><ele>314.0</ele><time>2026-04-26T07:29:19.086Z</time></trkpt><trkpt lat="45.684796" lon="10.1871487"><ele>314.0</ele><time>2026-04-26T07:29:20.087Z</time></trkpt><trkpt lat="45.6849271" lon="10.1870599"><ele>314.0</ele><time>2026-04-26T07:29:21.087Z</time></trkpt><trkpt lat="45.6850574" lon="10.1869709"><ele>314.0</ele><time>2026-04-26T07:29:22.086Z</time></trkpt><trkpt lat="45.6851843" lon="10.1868802"><ele>314.0</ele><time>2026-04-26T07:29:23.087Z</time></trkpt><trkpt lat="45.6853037" lon="10.186805"><ele>314.4</ele><time>2026-04-26T07:29:24.087Z</time></trkpt><trkpt lat="45.6854072" lon="10.1867502"><ele>314.79999999999995</ele><time>2026-04-26T07:29:25.087Z</time></trkpt><trkpt lat="45.6855054" lon="10.1867273"><ele>315.20000000000005</ele><time>2026-04-26T07:29:26.087Z</time></trkpt><trkpt lat="45.6856031" lon="10.1867417"><ele>315.6</ele><time>2026-04-26T07:29:27.087Z</time></trkpt><trkpt lat="45.6856895" lon="10.1867781"><ele>316.0</ele><time>2026-04-26T07:29:28.087Z</time></trkpt><trkpt lat="45.6857688" lon="10.186795"><ele>316.0</ele><time>2026-04-26T07:29:29.086Z</time></trkpt><trkpt lat="45.6858392" lon="10.1867723"><ele>316.0</ele><time>2026-04-26T07:29:30.087Z</time></trkpt><trkpt lat="45.6858921" lon="10.1867031"><ele>316.0</ele><time>2026-04-26T07:29:31.087Z</time></trkpt><trkpt lat="45.6859221" lon="10.1866045"><ele>316.0</ele><time>2026-04-26T07:29:32.087Z</time></trkpt><trkpt lat="45.6859582" lon="10.1864902"><ele>316.0</ele><time>2026-04-26T07:29:33.086Z</time></trkpt><trkpt lat="45.6860197" lon="10.1863957"><ele>316.0</ele><time>2026-04-26T07:29:34.087Z</time></trkpt><trkpt lat="45.6860975" lon="10.1863304"><ele>316.6</ele><time>2026-04-26T07:29:35.086Z</time></trkpt><trkpt lat="45.6861893" lon="10.1862711"><ele>317.20000000000005</ele><time>2026-04-26T07:29:36.087Z</time></trkpt><trkpt lat="45.6862814" lon="10.1862121"><ele>317.79999999999995</ele><time>2026-04-26T07:29:37.087Z</time></trkpt><trkpt lat="45.6863799" lon="10.1861559"><ele>318.4</ele><time>2026-04-26T07:29:38.087Z</time></trkpt><trkpt lat="45.6864819" lon="10.1861048"><ele>319.0</ele><time>2026-04-26T07:29:39.087Z</time></trkpt><trkpt lat="45.6865893" lon="10.1860484"><ele>319.0</ele><time>2026-04-26T07:29:40.087Z</time></trkpt><trkpt lat="45.6867033" lon="10.1859869"><ele>319.0</ele><time>2026-04-26T07:29:41.087Z</time></trkpt><trkpt lat="45.6868245" lon="10.1859257"><ele>319.0</ele><time>2026-04-26T07:29:42.087Z</time></trkpt><trkpt lat="45.6869575" lon="10.1858807"><ele>319.0</ele><time>2026-04-26T07:29:43.087Z</time></trkpt><trkpt lat="45.6870935" lon="10.185859"><ele>319.75</ele><time>2026-04-26T07:29:44.086Z</time></trkpt><trkpt lat="45.6872309" lon="10.1858456"><ele>320.5</ele><time>2026-04-26T07:29:45.087Z</time></trkpt><trkpt lat="45.6873695" lon="10.185837"><ele>321.25</ele><time>2026-04-26T07:29:46.087Z</time></trkpt><trkpt lat="45.687509" lon="10.1858247"><ele>322.0</ele><time>2026-04-26T07:29:47.087Z</time></trkpt><trkpt lat="45.687641" lon="10.1858208"><ele>323.25</ele><time>2026-04-26T07:29:48.087Z</time></trkpt><trkpt lat="45.6877687" lon="10.1858165"><ele>324.5</ele><time>2026-04-26T07:29:49.087Z</time></trkpt><trkpt lat="45.6878936" lon="10.1858134"><ele>325.75</ele><time>2026-04-26T07:29:50.087Z</time></trkpt><trkpt lat="45.6880234" lon="10.1858029"><ele>327.0</ele><time>2026-04-26T07:29:51.087Z</time></trkpt><trkpt lat="45.6881472" lon="10.1857906"><ele>327.0</ele><time>2026-04-26T07:29:52.087Z</time></trkpt><trkpt lat="45.6882682" lon="10.1857729"><ele>327.0</ele><time>2026-04-26T07:29:53.087Z</time></trkpt><trkpt lat="45.6883908" lon="10.1857507"><ele>327.0</ele><time>2026-04-26T07:29:54.087Z</time></trkpt><trkpt lat="45.6885144" lon="10.1857447"><ele>327.0</ele><time>2026-04-26T07:29:55.087Z</time></trkpt><trkpt lat="45.6886392" lon="10.1857291"><ele>326.25</ele><time>2026-04-26T07:29:56.087Z</time></trkpt><trkpt lat="45.6887613" lon="10.1857213"><ele>325.5</ele><time>2026-04-26T07:29:57.087Z</time></trkpt><trkpt lat="45.6888899" lon="10.1857152"><ele>324.75</ele><time>2026-04-26T07:29:58.086Z</time></trkpt><trkpt lat="45.6890265" lon="10.1857076"><ele>324.0</ele><time>2026-04-26T07:29:59.086Z</time></trkpt><trkpt lat="45.689164" lon="10.1856967"><ele>324.0</ele><time>2026-04-26T07:30:00.087Z</time></trkpt><trkpt lat="45.6893019" lon="10.185688"><ele>324.0</ele><time>2026-04-26T07:30:01.087Z</time></trkpt><trkpt lat="45.6894552" lon="10.1856731"><ele>324.0</ele><time>2026-04-26T07:30:02.087Z</time></trkpt><trkpt lat="45.6895998" lon="10.1856676"><ele>324.0</ele><time>2026-04-26T07:30:03.087Z</time></trkpt><trkpt lat="45.6897431" lon="10.1856574"><ele>324.75</ele><time>2026-04-26T07:30:04.087Z</time></trkpt><trkpt lat="45.689886" lon="10.1856578"><ele>325.5</ele><time>2026-04-26T07:30:05.087Z</time></trkpt><trkpt lat="45.6900325" lon="10.1856444"><ele>326.25</ele><time>2026-04-26T07:30:06.087Z</time></trkpt><trkpt lat="45.690181" lon="10.1856312"><ele>327.0</ele><time>2026-04-26T07:30:07.086Z</time></trkpt><trkpt lat="45.6903275" lon="10.1856149"><ele>327.0</ele><time>2026-04-26T07:30:08.086Z</time></trkpt><trkpt lat="45.6904757" lon="10.1856033"><ele>327.0</ele><time>2026-04-26T07:30:09.087Z</time></trkpt><trkpt lat="45.6906171" lon="10.185589"><ele>327.0</ele><time>2026-04-26T07:30:10.087Z</time></trkpt><trkpt lat="45.6907665" lon="10.1855647"><ele>327.0</ele><time>2026-04-26T07:30:11.087Z</time></trkpt><trkpt lat="45.6909106" lon="10.1855191"><ele>327.0</ele><time>2026-04-26T07:30:12.086Z</time></trkpt><trkpt lat="45.6910503" lon="10.1854449"><ele>327.0</ele><time>2026-04-26T07:30:13.087Z</time></trkpt><trkpt lat="45.6911847" lon="10.1853514"><ele>327.0</ele><time>2026-04-26T07:30:14.087Z</time></trkpt><trkpt lat="45.6913231" lon="10.1852614"><ele>327.0</ele><time>2026-04-26T07:30:15.087Z</time></trkpt><trkpt lat="45.6914628" lon="10.1851693"><ele>327.0</ele><time>2026-04-26T07:30:16.087Z</time></trkpt><trkpt lat="45.6916072" lon="10.1850826"><ele>327.0</ele><time>2026-04-26T07:30:17.087Z</time></trkpt><trkpt lat="45.6917461" lon="10.1849973"><ele>327.0</ele><time>2026-04-26T07:30:18.087Z</time></trkpt><trkpt lat="45.6918874" lon="10.1849103"><ele>327.0</ele><time>2026-04-26T07:30:19.086Z</time></trkpt><trkpt lat="45.6920313" lon="10.1848188"><ele>327.0</ele><time>2026-04-26T07:30:20.087Z</time></trkpt><trkpt lat="45.6921729" lon="10.1847324"><ele>330.0</ele><time>2026-04-26T07:30:21.087Z</time></trkpt><trkpt lat="45.6923181" lon="10.1846543"><ele>333.0</ele><time>2026-04-26T07:30:22.087Z</time></trkpt><trkpt lat="45.6924679" lon="10.1846088"><ele>336.0</ele><time>2026-04-26T07:30:23.087Z</time></trkpt><trkpt lat="45.6926269" lon="10.1846043"><ele>339.3333333333333</ele><time>2026-04-26T07:30:24.087Z</time></trkpt><trkpt lat="45.6927813" lon="10.184619"><ele>342.66666666666663</ele><time>2026-04-26T07:30:25.087Z</time></trkpt><trkpt lat="45.6929415" lon="10.184662"><ele>346.0</ele><time>2026-04-26T07:30:26.087Z</time></trkpt><trkpt lat="45.6931033" lon="10.1847161"><ele>346.0</ele><time>2026-04-26T07:30:27.087Z</time></trkpt><trkpt lat="45.6932654" lon="10.1847646"><ele>346.0</ele><time>2026-04-26T07:30:28.086Z</time></trkpt><trkpt lat="45.6934281" lon="10.1848125"><ele>346.0</ele><time>2026-04-26T07:30:29.087Z</time></trkpt><trkpt lat="45.6935875" lon="10.1848632"><ele>341.66666666666663</ele><time>2026-04-26T07:30:30.087Z</time></trkpt><trkpt lat="45.6937442" lon="10.1849158"><ele>337.3333333333333</ele><time>2026-04-26T07:30:31.087Z</time></trkpt><trkpt lat="45.6939039" lon="10.184972"><ele>333.0</ele><time>2026-04-26T07:30:32.087Z</time></trkpt><trkpt lat="45.6940597" lon="10.1850265"><ele>333.0</ele><time>2026-04-26T07:30:33.087Z</time></trkpt><trkpt lat="45.6942158" lon="10.1850788"><ele>333.0</ele><time>2026-04-26T07:30:34.087Z</time></trkpt><trkpt lat="45.6943694" lon="10.1851301"><ele>333.0</ele><time>2026-04-26T07:30:35.087Z</time></trkpt><trkpt lat="45.6945249" lon="10.1851813"><ele>335.0</ele><time>2026-04-26T07:30:36.087Z</time></trkpt><trkpt lat="45.6946822" lon="10.185228"><ele>337.0</ele><time>2026-04-26T07:30:37.087Z</time></trkpt><trkpt lat="45.6948428" lon="10.1852804"><ele>339.0</ele><time>2026-04-26T07:30:38.087Z</time></trkpt><trkpt lat="45.694999" lon="10.1853291"><ele>339.0</ele><time>2026-04-26T07:30:39.086Z</time></trkpt><trkpt lat="45.6951544" lon="10.1853739"><ele>339.0</ele><time>2026-04-26T07:30:40.087Z</time></trkpt><trkpt lat="45.6953061" lon="10.1854263"><ele>339.0</ele><time>2026-04-26T07:30:41.086Z</time></trkpt><trkpt lat="45.6954555" lon="10.1854726"><ele>342.25</ele><time>2026-04-26T07:30:42.087Z</time></trkpt><trkpt lat="45.6956042" lon="10.1855195"><ele>345.5</ele><time>2026-04-26T07:30:43.087Z</time></trkpt><trkpt lat="45.6957495" lon="10.185565"><ele>348.75</ele><time>2026-04-26T07:30:44.087Z</time></trkpt><trkpt lat="45.6958905" lon="10.1856067"><ele>352.0</ele><time>2026-04-26T07:30:45.087Z</time></trkpt><trkpt lat="45.6960282" lon="10.1856516"><ele>350.25</ele><time>2026-04-26T07:30:46.087Z</time></trkpt><trkpt lat="45.6961678" lon="10.1856979"><ele>348.5</ele><time>2026-04-26T07:30:47.087Z</time></trkpt><trkpt lat="45.6963059" lon="10.1857512"><ele>346.75</ele><time>2026-04-26T07:30:48.087Z</time></trkpt><trkpt lat="45.6964437" lon="10.1858151"><ele>345.0</ele><time>2026-04-26T07:30:49.087Z</time></trkpt><trkpt lat="45.6965864" lon="10.1858841"><ele>345.0</ele><time>2026-04-26T07:30:50.086Z</time></trkpt><trkpt lat="45.6967338" lon="10.1859702"><ele>345.0</ele><time>2026-04-26T07:30:51.087Z</time></trkpt><trkpt lat="45.6968852" lon="10.1860838"><ele>345.0</ele><time>2026-04-26T07:30:52.086Z</time></trkpt><trkpt lat="45.6970345" lon="10.1862202"><ele>344.0</ele><time>2026-04-26T07:30:53.086Z</time></trkpt><trkpt lat="45.6971763" lon="10.1863612"><ele>343.0</ele><time>2026-04-26T07:30:54.087Z</time></trkpt><trkpt lat="45.697298" lon="10.1864995"><ele>342.0</ele><time>2026-04-26T07:30:55.087Z</time></trkpt><trkpt lat="45.6974079" lon="10.1866244"><ele>342.0</ele><time>2026-04-26T07:30:56.086Z</time></trkpt><trkpt lat="45.6975104" lon="10.1867404"><ele>342.0</ele><time>2026-04-26T07:30:57.087Z</time></trkpt><trkpt lat="45.6976025" lon="10.1868471"><ele>342.0</ele><time>2026-04-26T07:30:58.086Z</time></trkpt><trkpt lat="45.6976829" lon="10.1869419"><ele>342.0</ele><time>2026-04-26T07:30:59.087Z</time></trkpt><trkpt lat="45.6977618" lon="10.1870365"><ele>342.20000000000005</ele><time>2026-04-26T07:31:00.086Z</time></trkpt><trkpt lat="45.6978394" lon="10.1871207"><ele>342.4</ele><time>2026-04-26T07:31:01.087Z</time></trkpt><trkpt lat="45.697916" lon="10.1872083"><ele>342.6</ele><time>2026-04-26T07:31:02.087Z</time></trkpt><trkpt lat="45.697996" lon="10.1872984"><ele>342.79999999999995</ele><time>2026-04-26T07:31:03.087Z</time></trkpt><trkpt lat="45.6980835" lon="10.1873985"><ele>343.0</ele><time>2026-04-26T07:31:04.086Z</time></trkpt><trkpt lat="45.6981736" lon="10.1875094"><ele>341.75</ele><time>2026-04-26T07:31:05.086Z</time></trkpt><trkpt lat="45.6982653" lon="10.1876249"><ele>340.5</ele><time>2026-04-26T07:31:06.087Z</time></trkpt><trkpt lat="45.6983532" lon="10.1877389"><ele>339.25</ele><time>2026-04-26T07:31:07.087Z</time></trkpt><trkpt lat="45.6984389" lon="10.1878406"><ele>338.0</ele><time>2026-04-26T07:31:08.087Z</time></trkpt><trkpt lat="45.698518" lon="10.1879387"><ele>338.0</ele><time>2026-04-26T07:31:09.087Z</time></trkpt><trkpt lat="45.6985933" lon="10.188034"><ele>338.0</ele><time>2026-04-26T07:31:10.086Z</time></trkpt><trkpt lat="45.698663" lon="10.1881296"><ele>338.0</ele><time>2026-04-26T07:31:11.087Z</time></trkpt><trkpt lat="45.6987338" lon="10.1882355"><ele>338.0</ele><time>2026-04-26T07:31:12.087Z</time></trkpt><trkpt lat="45.6988065" lon="10.1883498"><ele>338.0</ele><time>2026-04-26T07:31:13.087Z</time></trkpt><trkpt lat="45.6988805" lon="10.1884884"><ele>338.0</ele><time>2026-04-26T07:31:14.087Z</time></trkpt><trkpt lat="45.6989513" lon="10.1886402"><ele>338.0</ele><time>2026-04-26T07:31:15.086Z</time></trkpt><trkpt lat="45.6990228" lon="10.1888134"><ele>338.0</ele><time>2026-04-26T07:31:16.087Z</time></trkpt><trkpt lat="45.6990859" lon="10.1889932"><ele>338.0</ele><time>2026-04-26T07:31:17.087Z</time></trkpt><trkpt lat="45.6991347" lon="10.1891784"><ele>338.0</ele><time>2026-04-26T07:31:18.086Z</time></trkpt><trkpt lat="45.6991779" lon="10.1893671"><ele>338.0</ele><time>2026-04-26T07:31:19.087Z</time></trkpt><trkpt lat="45.6992128" lon="10.1895682"><ele>338.0</ele><time>2026-04-26T07:31:20.087Z</time></trkpt><trkpt lat="45.6992332" lon="10.1897855"><ele>338.0</ele><time>2026-04-26T07:31:21.087Z</time></trkpt><trkpt lat="45.6992375" lon="10.1900084"><ele>338.0</ele><time>2026-04-26T07:31:22.087Z</time></trkpt><trkpt lat="45.6992334" lon="10.1902272"><ele>338.0</ele><time>2026-04-26T07:31:23.087Z</time></trkpt><trkpt lat="45.6992268" lon="10.1904361"><ele>338.0</ele><time>2026-04-26T07:31:24.087Z</time></trkpt><trkpt lat="45.6992206" lon="10.1906333"><ele>338.0</ele><time>2026-04-26T07:31:25.087Z</time></trkpt><trkpt lat="45.6992179" lon="10.1908142"><ele>338.0</ele><time>2026-04-26T07:31:26.087Z</time></trkpt><trkpt lat="45.6992142" lon="10.1909724"><ele>338.0</ele><time>2026-04-26T07:31:27.087Z</time></trkpt><trkpt lat="45.6992151" lon="10.1911138"><ele>338.0</ele><time>2026-04-26T07:31:28.087Z</time></trkpt><trkpt lat="45.6992152" lon="10.1912418"><ele>338.0</ele><time>2026-04-26T07:31:29.087Z</time></trkpt><trkpt lat="45.6992093" lon="10.1913576"><ele>338.0</ele><time>2026-04-26T07:31:30.087Z</time></trkpt><trkpt lat="45.699205" lon="10.1914667"><ele>338.0</ele><time>2026-04-26T07:31:31.087Z</time></trkpt><trkpt lat="45.6991834" lon="10.1915681"><ele>338.0</ele><time>2026-04-26T07:31:32.087Z</time></trkpt><trkpt lat="45.6991542" lon="10.1916658"><ele>338.0</ele><time>2026-04-26T07:31:33.087Z</time></trkpt><trkpt lat="45.6991429" lon="10.1917724"><ele>338.0</ele><time>2026-04-26T07:31:34.087Z</time></trkpt><trkpt lat="45.6991514" lon="10.1918792"><ele>338.0</ele><time>2026-04-26T07:31:35.086Z</time></trkpt><trkpt lat="45.6991732" lon="10.1919911"><ele>338.0</ele><time>2026-04-26T07:31:36.087Z</time></trkpt><trkpt lat="45.6991885" lon="10.192116"><ele>338.0</ele><time>2026-04-26T07:31:37.086Z</time></trkpt><trkpt lat="45.6992031" lon="10.1922515"><ele>338.0</ele><time>2026-04-26T07:31:38.087Z</time></trkpt><trkpt lat="45.6992164" lon="10.1923898"><ele>338.0</ele><time>2026-04-26T07:31:39.087Z</time></trkpt><trkpt lat="45.6992187" lon="10.1925356"><ele>338.0</ele><time>2026-04-26T07:31:40.087Z</time></trkpt><trkpt lat="45.6992175" lon="10.192683"><ele>338.0</ele><time>2026-04-26T07:31:41.087Z</time></trkpt><trkpt lat="45.6992149" lon="10.1928372"><ele>338.0</ele><time>2026-04-26T07:31:42.087Z</time></trkpt><trkpt lat="45.6992114" lon="10.1930037"><ele>338.0</ele><time>2026-04-26T07:31:43.086Z</time></trkpt><trkpt lat="45.6992122" lon="10.1931839"><ele>338.0</ele><time>2026-04-26T07:31:44.087Z</time></trkpt><trkpt lat="45.6992112" lon="10.1933727"><ele>338.0</ele><time>2026-04-26T07:31:45.086Z</time></trkpt><trkpt lat="45.6992058" lon="10.1935689"><ele>338.25</ele><time>2026-04-26T07:31:46.087Z</time></trkpt><trkpt lat="45.6992061" lon="10.193771"><ele>338.5</ele><time>2026-04-26T07:31:47.087Z</time></trkpt><trkpt lat="45.6992098" lon="10.1939856"><ele>338.75</ele><time>2026-04-26T07:31:48.087Z</time></trkpt><trkpt lat="45.6992043" lon="10.1942074"><ele>339.0</ele><time>2026-04-26T07:31:49.087Z</time></trkpt><trkpt lat="45.6992014" lon="10.1944343"><ele>339.0</ele><time>2026-04-26T07:31:50.087Z</time></trkpt><trkpt lat="45.6992009" lon="10.1946662"><ele>339.0</ele><time>2026-04-26T07:31:51.086Z</time></trkpt><trkpt lat="45.6992004" lon="10.1948996"><ele>339.0</ele><time>2026-04-26T07:31:52.086Z</time></trkpt><trkpt lat="45.6992057" lon="10.1951301"><ele>339.6666666666667</ele><time>2026-04-26T07:31:53.087Z</time></trkpt><trkpt lat="45.6992181" lon="10.195354"><ele>340.33333333333337</ele><time>2026-04-26T07:31:54.086Z</time></trkpt><trkpt lat="45.6992398" lon="10.1955741"><ele>341.0</ele><time>2026-04-26T07:31:55.087Z</time></trkpt><trkpt lat="45.6992677" lon="10.1957843"><ele>341.0</ele><time>2026-04-26T07:31:56.087Z</time></trkpt><trkpt lat="45.6993037" lon="10.1959954"><ele>341.0</ele><time>2026-04-26T07:31:57.087Z</time></trkpt><trkpt lat="45.6993454" lon="10.1962043"><ele>341.0</ele><time>2026-04-26T07:31:58.087Z</time></trkpt><trkpt lat="45.6993858" lon="10.1964047"><ele>341.0</ele><time>2026-04-26T07:31:59.087Z</time></trkpt><trkpt lat="45.6994288" lon="10.1966011"><ele>342.25</ele><time>2026-04-26T07:32:00.086Z</time></trkpt><trkpt lat="45.6994658" lon="10.1967912"><ele>343.5</ele><time>2026-04-26T07:32:01.087Z</time></trkpt><trkpt lat="45.6995016" lon="10.1969785"><ele>344.75</ele><time>2026-04-26T07:32:02.087Z</time></trkpt><trkpt lat="45.6995406" lon="10.1971639"><ele>346.0</ele><time>2026-04-26T07:32:03.087Z</time></trkpt><trkpt lat="45.6995763" lon="10.1973487"><ele>346.0</ele><time>2026-04-26T07:32:04.087Z</time></trkpt><trkpt lat="45.6996133" lon="10.1975312"><ele>346.0</ele><time>2026-04-26T07:32:05.086Z</time></trkpt><trkpt lat="45.6996454" lon="10.1977125"><ele>346.0</ele><time>2026-04-26T07:32:06.087Z</time></trkpt><trkpt lat="45.6996746" lon="10.1978967"><ele>346.0</ele><time>2026-04-26T07:32:07.087Z</time></trkpt><trkpt lat="45.6996922" lon="10.1980782"><ele>346.0</ele><time>2026-04-26T07:32:08.087Z</time></trkpt><trkpt lat="45.699704" lon="10.1982528"><ele>346.0</ele><time>2026-04-26T07:32:09.087Z</time></trkpt><trkpt lat="45.6997115" lon="10.1984286"><ele>346.0</ele><time>2026-04-26T07:32:10.087Z</time></trkpt><trkpt lat="45.6997163" lon="10.1986094"><ele>346.0</ele><time>2026-04-26T07:32:11.087Z</time></trkpt><trkpt lat="45.6997152" lon="10.1987924"><ele>346.0</ele><time>2026-04-26T07:32:12.087Z</time></trkpt><trkpt lat="45.6997058" lon="10.198976"><ele>346.0</ele><time>2026-04-26T07:32:13.087Z</time></trkpt><trkpt lat="45.6996917" lon="10.1991616"><ele>346.0</ele><time>2026-04-26T07:32:14.087Z</time></trkpt><trkpt lat="45.6996744" lon="10.1993388"><ele>346.0</ele><time>2026-04-26T07:32:15.087Z</time></trkpt><trkpt lat="45.6996563" lon="10.1995019"><ele>346.20000000000005</ele><time>2026-04-26T07:32:16.087Z</time></trkpt><trkpt lat="45.6996373" lon="10.19966"><ele>346.40000000000003</ele><time>2026-04-26T07:32:17.087Z</time></trkpt><trkpt lat="45.6996192" lon="10.1998147"><ele>346.6</ele><time>2026-04-26T07:32:18.087Z</time></trkpt><trkpt lat="45.6995997" lon="10.1999709"><ele>346.8</ele><time>2026-04-26T07:32:19.086Z</time></trkpt><trkpt lat="45.6995833" lon="10.2001314"><ele>347.0</ele><time>2026-04-26T07:32:20.087Z</time></trkpt><trkpt lat="45.6995623" lon="10.200289"><ele>347.75</ele><time>2026-04-26T07:32:21.087Z</time></trkpt><trkpt lat="45.6995426" lon="10.2004533"><ele>348.5</ele><time>2026-04-26T07:32:22.087Z</time></trkpt><trkpt lat="45.6995245" lon="10.2006198"><ele>349.25</ele><time>2026-04-26T07:32:23.087Z</time></trkpt><trkpt lat="45.6995035" lon="10.2007882"><ele>350.0</ele><time>2026-04-26T07:32:24.087Z</time></trkpt><trkpt lat="45.6994813" lon="10.2009651"><ele>350.25</ele><time>2026-04-26T07:32:25.087Z</time></trkpt><trkpt lat="45.6994642" lon="10.2011406"><ele>350.5</ele><time>2026-04-26T07:32:26.086Z</time></trkpt><trkpt lat="45.6994487" lon="10.2013219"><ele>350.75</ele><time>2026-04-26T07:32:27.087Z</time></trkpt><trkpt lat="45.6994402" lon="10.2015094"><ele>351.0</ele><time>2026-04-26T07:32:28.087Z</time></trkpt><trkpt lat="45.6994378" lon="10.201703"><ele>350.5</ele><time>2026-04-26T07:32:29.087Z</time></trkpt><trkpt lat="45.6994483" lon="10.2018927"><ele>350.0</ele><time>2026-04-26T07:32:30.087Z</time></trkpt><trkpt lat="45.6994643" lon="10.202083"><ele>349.5</ele><time>2026-04-26T07:32:31.087Z</time></trkpt><trkpt lat="45.699488" lon="10.2022647"><ele>349.0</ele><time>2026-04-26T07:32:32.086Z</time></trkpt><trkpt lat="45.6995195" lon="10.2024437"><ele>349.0</ele><time>2026-04-26T07:32:33.087Z</time></trkpt><trkpt lat="45.6995587" lon="10.2026247"><ele>349.0</ele><time>2026-04-26T07:32:34.087Z</time></trkpt><trkpt lat="45.6996026" lon="10.2028052"><ele>349.0</ele><time>2026-04-26T07:32:35.087Z</time></trkpt><trkpt lat="45.6996516" lon="10.2029801"><ele>349.0</ele><time>2026-04-26T07:32:36.087Z</time></trkpt><trkpt lat="45.6997071" lon="10.203156"><ele>349.25</ele><time>2026-04-26T07:32:37.087Z</time></trkpt><trkpt lat="45.6997671" lon="10.2033281"><ele>349.5</ele><time>2026-04-26T07:32:38.087Z</time></trkpt><trkpt lat="45.6998259" lon="10.2035039"><ele>349.75</ele><time>2026-04-26T07:32:39.087Z</time></trkpt><trkpt lat="45.6998856" lon="10.2036772"><ele>350.0</ele><time>2026-04-26T07:32:40.087Z</time></trkpt><trkpt lat="45.6999425" lon="10.2038485"><ele>350.25</ele><time>2026-04-26T07:32:41.087Z</time></trkpt><trkpt lat="45.7000009" lon="10.2040174"><ele>350.5</ele><time>2026-04-26T07:32:42.086Z</time></trkpt><trkpt lat="45.7000567" lon="10.2041876"><ele>350.75</ele><time>2026-04-26T07:32:43.087Z</time></trkpt><trkpt lat="45.7001093" lon="10.2043485"><ele>351.0</ele><time>2026-04-26T07:32:44.087Z</time></trkpt><trkpt lat="45.7001604" lon="10.2045117"><ele>351.0</ele><time>2026-04-26T07:32:45.087Z</time></trkpt><trkpt lat="45.7002114" lon="10.2046723"><ele>351.0</ele><time>2026-04-26T07:32:46.087Z</time></trkpt><trkpt lat="45.7002635" lon="10.204831"><ele>351.0</ele><time>2026-04-26T07:32:47.087Z</time></trkpt><trkpt lat="45.7003148" lon="10.2049861"><ele>351.0</ele><time>2026-04-26T07:32:48.087Z</time></trkpt><trkpt lat="45.7003672" lon="10.2051383"><ele>351.75</ele><time>2026-04-26T07:32:49.087Z</time></trkpt><trkpt lat="45.7004224" lon="10.2052949"><ele>352.5</ele><time>2026-04-26T07:32:50.086Z</time></trkpt><trkpt lat="45.7004739" lon="10.2054537"><ele>353.25</ele><time>2026-04-26T07:32:51.087Z</time></trkpt><trkpt lat="45.7005282" lon="10.2056178"><ele>354.0</ele><time>2026-04-26T07:32:52.087Z</time></trkpt><trkpt lat="45.7005803" lon="10.2057836"><ele>354.0</ele><time>2026-04-26T07:32:53.087Z</time></trkpt><trkpt lat="45.7006336" lon="10.2059533"><ele>354.0</ele><time>2026-04-26T07:32:54.087Z</time></trkpt><trkpt lat="45.7006896" lon="10.2061283"><ele>354.0</ele><time>2026-04-26T07:32:55.087Z</time></trkpt><trkpt lat="45.7007447" lon="10.2063025"><ele>354.0</ele><time>2026-04-26T07:32:56.087Z</time></trkpt><trkpt lat="45.7007994" lon="10.2064801"><ele>354.25</ele><time>2026-04-26T07:32:57.087Z</time></trkpt><trkpt lat="45.7008516" lon="10.2066471"><ele>354.5</ele><time>2026-04-26T07:32:58.087Z</time></trkpt><trkpt lat="45.7009006" lon="10.2068055"><ele>354.75</ele><time>2026-04-26T07:32:59.087Z</time></trkpt><trkpt lat="45.7009435" lon="10.2069518"><ele>355.0</ele><time>2026-04-26T07:33:00.087Z</time></trkpt><trkpt lat="45.7009897" lon="10.2070885"><ele>355.0</ele><time>2026-04-26T07:33:01.087Z</time></trkpt><trkpt lat="45.7010358" lon="10.2072249"><ele>355.0</ele><time>2026-04-26T07:33:02.087Z</time></trkpt><trkpt lat="45.7010882" lon="10.2073594"><ele>355.0</ele><time>2026-04-26T07:33:03.087Z</time></trkpt><trkpt lat="45.7011387" lon="10.207499"><ele>355.0</ele><time>2026-04-26T07:33:04.086Z</time></trkpt><trkpt lat="45.7011908" lon="10.2076346"><ele>355.0</ele><time>2026-04-26T07:33:05.087Z</time></trkpt><trkpt lat="45.7012455" lon="10.2077712"><ele>356.5</ele><time>2026-04-26T07:33:06.086Z</time></trkpt><trkpt lat="45.701298" lon="10.2079134"><ele>358.0</ele><time>2026-04-26T07:33:07.087Z</time></trkpt><trkpt lat="45.7013544" lon="10.2080559"><ele>359.5</ele><time>2026-04-26T07:33:08.087Z</time></trkpt><trkpt lat="45.7014179" lon="10.2082021"><ele>361.0</ele><time>2026-04-26T07:33:09.087Z</time></trkpt><trkpt lat="45.7014903" lon="10.2083473"><ele>361.0</ele><time>2026-04-26T07:33:10.087Z</time></trkpt><trkpt lat="45.7015607" lon="10.208494"><ele>361.0</ele><time>2026-04-26T07:33:11.087Z</time></trkpt><trkpt lat="45.7016364" lon="10.2086401"><ele>361.0</ele><time>2026-04-26T07:33:12.087Z</time></trkpt><trkpt lat="45.7017151" lon="10.2087814"><ele>361.0</ele><time>2026-04-26T07:33:13.087Z</time></trkpt><trkpt lat="45.7018047" lon="10.2089177"><ele>361.0</ele><time>2026-04-26T07:33:14.086Z</time></trkpt><trkpt lat="45.7019003" lon="10.2090512"><ele>361.0</ele><time>2026-04-26T07:33:15.087Z</time></trkpt><trkpt lat="45.7019977" lon="10.2091816"><ele>361.0</ele><time>2026-04-26T07:33:16.086Z</time></trkpt><trkpt lat="45.7020992" lon="10.2093155"><ele>361.0</ele><time>2026-04-26T07:33:17.087Z</time></trkpt><trkpt lat="45.7022031" lon="10.2094492"><ele>361.0</ele><time>2026-04-26T07:33:18.087Z</time></trkpt><trkpt lat="45.7023098" lon="10.2095804"><ele>361.0</ele><time>2026-04-26T07:33:19.086Z</time></trkpt><trkpt lat="45.7024226" lon="10.2097081"><ele>361.0</ele><time>2026-04-26T07:33:20.086Z</time></trkpt><trkpt lat="45.7025401" lon="10.209835"><ele>361.0</ele><time>2026-04-26T07:33:21.087Z</time></trkpt><trkpt lat="45.7026549" lon="10.2099595"><ele>361.0</ele><time>2026-04-26T07:33:22.086Z</time></trkpt><trkpt lat="45.7027712" lon="10.2100889"><ele>361.0</ele><time>2026-04-26T07:33:23.086Z</time></trkpt><trkpt lat="45.7028824" lon="10.2102077"><ele>361.0</ele><time>2026-04-26T07:33:24.087Z</time></trkpt><trkpt lat="45.7029929" lon="10.210329"><ele>361.0</ele><time>2026-04-26T07:33:25.087Z</time></trkpt><trkpt lat="45.7030984" lon="10.2104448"><ele>361.0</ele><time>2026-04-26T07:33:26.087Z</time></trkpt><trkpt lat="45.703204" lon="10.2105606"><ele>361.0</ele><time>2026-04-26T07:33:27.087Z</time></trkpt><trkpt lat="45.7033067" lon="10.2106771"><ele>361.0</ele><time>2026-04-26T07:33:28.087Z</time></trkpt><trkpt lat="45.70341" lon="10.2107924"><ele>361.0</ele><time>2026-04-26T07:33:29.087Z</time></trkpt><trkpt lat="45.7035154" lon="10.2109104"><ele>362.0</ele><time>2026-04-26T07:33:30.087Z</time></trkpt><trkpt lat="45.7036205" lon="10.2110296"><ele>363.0</ele><time>2026-04-26T07:33:31.087Z</time></trkpt><trkpt lat="45.7037239" lon="10.2111449"><ele>364.0</ele><time>2026-04-26T07:33:32.087Z</time></trkpt><trkpt lat="45.7038293" lon="10.2112626"><ele>365.0</ele><time>2026-04-26T07:33:33.087Z</time></trkpt><trkpt lat="45.7039347" lon="10.2113775"><ele>364.5</ele><time>2026-04-26T07:33:34.087Z</time></trkpt><trkpt lat="45.7040413" lon="10.2114958"><ele>364.0</ele><time>2026-04-26T07:33:35.087Z</time></trkpt><trkpt lat="45.7041456" lon="10.211612"><ele>363.5</ele><time>2026-04-26T07:33:36.087Z</time></trkpt><trkpt lat="45.7042493" lon="10.2117288"><ele>363.0</ele><time>2026-04-26T07:33:37.087Z</time></trkpt><trkpt lat="45.7043474" lon="10.2118411"><ele>364.5</ele><time>2026-04-26T07:33:38.087Z</time></trkpt><trkpt lat="45.7044401" lon="10.2119481"><ele>366.0</ele><time>2026-04-26T07:33:39.086Z</time></trkpt><trkpt lat="45.7045324" lon="10.212048"><ele>367.5</ele><time>2026-04-26T07:33:40.087Z</time></trkpt><trkpt lat="45.7046251" lon="10.212147"><ele>369.0</ele><time>2026-04-26T07:33:41.087Z</time></trkpt><trkpt lat="45.7047118" lon="10.2122478"><ele>368.0</ele><time>2026-04-26T07:33:42.087Z</time></trkpt><trkpt lat="45.7047983" lon="10.2123473"><ele>367.0</ele><time>2026-04-26T07:33:43.087Z</time></trkpt><trkpt lat="45.7048825" lon="10.2124411"><ele>366.0</ele><time>2026-04-26T07:33:44.087Z</time></trkpt><trkpt lat="45.704961" lon="10.2125292"><ele>365.0</ele><time>2026-04-26T07:33:45.087Z</time></trkpt><trkpt lat="45.7050355" lon="10.2126146"><ele>364.0</ele><time>2026-04-26T07:33:46.086Z</time></trkpt><trkpt lat="45.7051107" lon="10.2127008"><ele>364.0</ele><time>2026-04-26T07:33:47.087Z</time></trkpt><trkpt lat="45.705185" lon="10.2127887"><ele>364.0</ele><time>2026-04-26T07:33:48.087Z</time></trkpt><trkpt lat="45.705261" lon="10.2128769"><ele>364.0</ele><time>2026-04-26T07:33:49.087Z</time></trkpt><trkpt lat="45.7053356" lon="10.2129644"><ele>364.0</ele><time>2026-04-26T07:33:50.087Z</time></trkpt><trkpt lat="45.705415" lon="10.213054"><ele>364.0</ele><time>2026-04-26T07:33:51.087Z</time></trkpt><trkpt lat="45.7054992" lon="10.2131502"><ele>365.25</ele><time>2026-04-26T07:33:52.087Z</time></trkpt><trkpt lat="45.7055888" lon="10.2132477"><ele>366.5</ele><time>2026-04-26T07:33:53.087Z</time></trkpt><trkpt lat="45.7056781" lon="10.2133492"><ele>367.75</ele><time>2026-04-26T07:33:54.087Z</time></trkpt><trkpt lat="45.7057689" lon="10.2134571"><ele>369.0</ele><time>2026-04-26T07:33:55.087Z</time></trkpt><trkpt lat="45.7058654" lon="10.2135654"><ele>369.0</ele><time>2026-04-26T07:33:56.087Z</time></trkpt><trkpt lat="45.7059618" lon="10.2136793"><ele>369.0</ele><time>2026-04-26T07:33:57.087Z</time></trkpt><trkpt lat="45.7060563" lon="10.213784"><ele>369.0</ele><time>2026-04-26T07:33:58.087Z</time></trkpt><trkpt lat="45.7061518" lon="10.2138882"><ele>369.0</ele><time>2026-04-26T07:33:59.087Z</time></trkpt><trkpt lat="45.7062426" lon="10.2139915"><ele>369.75</ele><time>2026-04-26T07:34:00.087Z</time></trkpt><trkpt lat="45.7063337" lon="10.2140957"><ele>370.5</ele><time>2026-04-26T07:34:01.087Z</time></trkpt><trkpt lat="45.7064283" lon="10.2142038"><ele>371.25</ele><time>2026-04-26T07:34:02.087Z</time></trkpt><trkpt lat="45.706524" lon="10.2143112"><ele>372.0</ele><time>2026-04-26T07:34:03.087Z</time></trkpt><trkpt lat="45.7066222" lon="10.2144269"><ele>372.0</ele><time>2026-04-26T07:34:04.086Z</time></trkpt><trkpt lat="45.7067182" lon="10.2145467"><ele>372.0</ele><time>2026-04-26T07:34:05.087Z</time></trkpt><trkpt lat="45.7068141" lon="10.2146669"><ele>372.0</ele><time>2026-04-26T07:34:06.087Z</time></trkpt><trkpt lat="45.7069085" lon="10.214791"><ele>372.0</ele><time>2026-04-26T07:34:07.087Z</time></trkpt><trkpt lat="45.7069935" lon="10.2149139"><ele>373.6</ele><time>2026-04-26T07:34:08.087Z</time></trkpt><trkpt lat="45.7070741" lon="10.2150294"><ele>375.20000000000005</ele><time>2026-04-26T07:34:09.087Z</time></trkpt><trkpt lat="45.7071454" lon="10.2151386"><ele>376.8</ele><time>2026-04-26T07:34:10.086Z</time></trkpt><trkpt lat="45.7072117" lon="10.2152445"><ele>378.4</ele><time>2026-04-26T07:34:11.087Z</time></trkpt><trkpt lat="45.7072752" lon="10.2153461"><ele>380.0</ele><time>2026-04-26T07:34:12.087Z</time></trkpt><trkpt lat="45.7073372" lon="10.2154443"><ele>380.0</ele><time>2026-04-26T07:34:13.087Z</time></trkpt><trkpt lat="45.7074028" lon="10.2155438"><ele>380.0</ele><time>2026-04-26T07:34:14.087Z</time></trkpt><trkpt lat="45.7074721" lon="10.2156426"><ele>380.0</ele><time>2026-04-26T07:34:15.087Z</time></trkpt><trkpt lat="45.7075412" lon="10.2157469"><ele>380.0</ele><time>2026-04-26T07:34:16.086Z</time></trkpt><trkpt lat="45.7076102" lon="10.2158506"><ele>380.0</ele><time>2026-04-26T07:34:17.086Z</time></trkpt><trkpt lat="45.7076824" lon="10.2159623"><ele>379.2</ele><time>2026-04-26T07:34:18.087Z</time></trkpt><trkpt lat="45.7077565" lon="10.2160776"><ele>378.4</ele><time>2026-04-26T07:34:19.087Z</time></trkpt><trkpt lat="45.7078311" lon="10.216186"><ele>377.6</ele><time>2026-04-26T07:34:20.087Z</time></trkpt><trkpt lat="45.7079016" lon="10.2163019"><ele>376.8</ele><time>2026-04-26T07:34:21.087Z</time></trkpt><trkpt lat="45.7079808" lon="10.2164154"><ele>376.0</ele><time>2026-04-26T07:34:22.087Z</time></trkpt><trkpt lat="45.7080593" lon="10.2165071"><ele>376.0</ele><time>2026-04-26T07:34:23.087Z</time></trkpt><trkpt lat="45.7081421" lon="10.2165798"><ele>376.0</ele><time>2026-04-26T07:34:24.087Z</time></trkpt><trkpt lat="45.7082297" lon="10.2166497"><ele>376.0</ele><time>2026-04-26T07:34:25.086Z</time></trkpt><trkpt lat="45.7083147" lon="10.2167048"><ele>376.0</ele><time>2026-04-26T07:34:26.087Z</time></trkpt><trkpt lat="45.7084097" lon="10.2167576"><ele>376.0</ele><time>2026-04-26T07:34:27.087Z</time></trkpt><trkpt lat="45.7085061" lon="10.2168184"><ele>378.75</ele><time>2026-04-26T07:34:28.087Z</time></trkpt><trkpt lat="45.7086174" lon="10.2168767"><ele>381.5</ele><time>2026-04-26T07:34:29.087Z</time></trkpt><trkpt lat="45.7087299" lon="10.2169431"><ele>384.25</ele><time>2026-04-26T07:34:30.086Z</time></trkpt><trkpt lat="45.7088367" lon="10.2170359"><ele>387.0</ele><time>2026-04-26T07:34:31.087Z</time></trkpt><trkpt lat="45.7089384" lon="10.2171367"><ele>387.0</ele><time>2026-04-26T07:34:32.087Z</time></trkpt><trkpt lat="45.7090341" lon="10.2172531"><ele>387.0</ele><time>2026-04-26T07:34:33.087Z</time></trkpt><trkpt lat="45.7091232" lon="10.2173767"><ele>387.0</ele><time>2026-04-26T07:34:34.087Z</time></trkpt><trkpt lat="45.7092078" lon="10.2175147"><ele>387.0</ele><time>2026-04-26T07:34:35.087Z</time></trkpt><trkpt lat="45.7092924" lon="10.2176532"><ele>386.5</ele><time>2026-04-26T07:34:36.087Z</time></trkpt><trkpt lat="45.7093754" lon="10.217793"><ele>386.0</ele><time>2026-04-26T07:34:37.087Z</time></trkpt><trkpt lat="45.7094622" lon="10.2179343"><ele>385.5</ele><time>2026-04-26T07:34:38.087Z</time></trkpt><trkpt lat="45.7095446" lon="10.2180783"><ele>385.0</ele><time>2026-04-26T07:34:39.087Z</time></trkpt><trkpt lat="45.7096255" lon="10.2182222"><ele>383.5</ele><time>2026-04-26T07:34:40.086Z</time></trkpt><trkpt lat="45.7097062" lon="10.218358"><ele>382.0</ele><time>2026-04-26T07:34:41.087Z</time></trkpt><trkpt lat="45.7097889" lon="10.2184915"><ele>380.5</ele><time>2026-04-26T07:34:42.087Z</time></trkpt><trkpt lat="45.7098721" lon="10.218624"><ele>379.0</ele><time>2026-04-26T07:34:43.087Z</time></trkpt><trkpt lat="45.709957" lon="10.2187608"><ele>379.0</ele><time>2026-04-26T07:34:44.086Z</time></trkpt><trkpt lat="45.710038" lon="10.2188975"><ele>379.0</ele><time>2026-04-26T07:34:45.087Z</time></trkpt><trkpt lat="45.710123" lon="10.2190319"><ele>379.0</ele><time>2026-04-26T07:34:46.087Z</time></trkpt><trkpt lat="45.7102089" lon="10.2191587"><ele>379.0</ele><time>2026-04-26T07:34:47.087Z</time></trkpt><trkpt lat="45.7102966" lon="10.2192657"><ele>380.0</ele><time>2026-04-26T07:34:48.086Z</time></trkpt><trkpt lat="45.7103884" lon="10.2193498"><ele>381.0</ele><time>2026-04-26T07:34:49.087Z</time></trkpt><trkpt lat="45.7104761" lon="10.2194202"><ele>382.0</ele><time>2026-04-26T07:34:50.086Z</time></trkpt><trkpt lat="45.7105705" lon="10.2194809"><ele>383.0</ele><time>2026-04-26T07:34:51.087Z</time></trkpt><trkpt lat="45.7106693" lon="10.2195306"><ele>384.0</ele><time>2026-04-26T07:34:52.087Z</time></trkpt><trkpt lat="45.7107753" lon="10.219568"><ele>384.0</ele><time>2026-04-26T07:34:53.087Z</time></trkpt><trkpt lat="45.7108884" lon="10.2196001"><ele>384.0</ele><time>2026-04-26T07:34:54.087Z</time></trkpt><trkpt lat="45.7110116" lon="10.2196298"><ele>384.0</ele><time>2026-04-26T07:34:55.087Z</time></trkpt><trkpt lat="45.7111374" lon="10.2196536"><ele>384.0</ele><time>2026-04-26T07:34:56.087Z</time></trkpt><trkpt lat="45.7112634" lon="10.2196805"><ele>383.5</ele><time>2026-04-26T07:34:57.087Z</time></trkpt><trkpt lat="45.711393" lon="10.2197145"><ele>383.0</ele><time>2026-04-26T07:34:58.087Z</time></trkpt><trkpt lat="45.7115219" lon="10.2197516"><ele>382.5</ele><time>2026-04-26T07:34:59.087Z</time></trkpt><trkpt lat="45.711647" lon="10.2198048"><ele>382.0</ele><time>2026-04-26T07:35:00.087Z</time></trkpt><trkpt lat="45.7117682" lon="10.2198778"><ele>382.0</ele><time>2026-04-26T07:35:01.086Z</time></trkpt><trkpt lat="45.7118845" lon="10.2199604"><ele>382.0</ele><time>2026-04-26T07:35:02.087Z</time></trkpt><trkpt lat="45.7120009" lon="10.220044"><ele>382.0</ele><time>2026-04-26T07:35:03.086Z</time></trkpt><trkpt lat="45.7121149" lon="10.2201298"><ele>382.0</ele><time>2026-04-26T07:35:04.087Z</time></trkpt><trkpt lat="45.7122302" lon="10.2202169"><ele>384.0</ele><time>2026-04-26T07:35:05.087Z</time></trkpt><trkpt lat="45.7123463" lon="10.2203029"><ele>386.0</ele><time>2026-04-26T07:35:06.087Z</time></trkpt><trkpt lat="45.7124671" lon="10.220389"><ele>388.0</ele><time>2026-04-26T07:35:07.086Z</time></trkpt><trkpt lat="45.7125864" lon="10.2204888"><ele>390.0</ele><time>2026-04-26T07:35:08.087Z</time></trkpt><trkpt lat="45.7127048" lon="10.2205886"><ele>389.25</ele><time>2026-04-26T07:35:09.086Z</time></trkpt><trkpt lat="45.7128255" lon="10.2206889"><ele>388.5</ele><time>2026-04-26T07:35:10.087Z</time></trkpt><trkpt lat="45.7129446" lon="10.22078"><ele>387.75</ele><time>2026-04-26T07:35:11.087Z</time></trkpt><trkpt lat="45.7130629" lon="10.2208715"><ele>387.0</ele><time>2026-04-26T07:35:12.086Z</time></trkpt><trkpt lat="45.7131767" lon="10.2209596"><ele>387.0</ele><time>2026-04-26T07:35:13.087Z</time></trkpt><trkpt lat="45.7132816" lon="10.2210381"><ele>387.0</ele><time>2026-04-26T07:35:14.087Z</time></trkpt><trkpt lat="45.7133874" lon="10.2211087"><ele>387.0</ele><time>2026-04-26T07:35:15.087Z</time></trkpt><trkpt lat="45.7134995" lon="10.2211645"><ele>387.0</ele><time>2026-04-26T07:35:16.087Z</time></trkpt><trkpt lat="45.7136188" lon="10.221213"><ele>390.0</ele><time>2026-04-26T07:35:17.087Z</time></trkpt><trkpt lat="45.7137404" lon="10.22125"><ele>393.0</ele><time>2026-04-26T07:35:18.087Z</time></trkpt><trkpt lat="45.7138638" lon="10.2212898"><ele>396.0</ele><time>2026-04-26T07:35:19.087Z</time></trkpt><trkpt lat="45.7139975" lon="10.2213255"><ele>399.0</ele><time>2026-04-26T07:35:20.087Z</time></trkpt><trkpt lat="45.7141329" lon="10.2213601"><ele>399.0</ele><time>2026-04-26T07:35:21.087Z</time></trkpt><trkpt lat="45.7142696" lon="10.2213985"><ele>399.0</ele><time>2026-04-26T07:35:22.087Z</time></trkpt><trkpt lat="45.7144078" lon="10.2214323"><ele>399.0</ele><time>2026-04-26T07:35:23.086Z</time></trkpt><trkpt lat="45.7145429" lon="10.2214688"><ele>399.0</ele><time>2026-04-26T07:35:24.087Z</time></trkpt><trkpt lat="45.7146773" lon="10.2215084"><ele>396.5</ele><time>2026-04-26T07:35:25.087Z</time></trkpt><trkpt lat="45.7148027" lon="10.2215567"><ele>394.0</ele><time>2026-04-26T07:35:26.087Z</time></trkpt><trkpt lat="45.7149215" lon="10.221613"><ele>391.5</ele><time>2026-04-26T07:35:27.086Z</time></trkpt><trkpt lat="45.7150275" lon="10.2216909"><ele>389.0</ele><time>2026-04-26T07:35:28.087Z</time></trkpt><trkpt lat="45.7151263" lon="10.2217773"><ele>389.0</ele><time>2026-04-26T07:35:29.087Z</time></trkpt><trkpt lat="45.715218" lon="10.221869"><ele>389.0</ele><time>2026-04-26T07:35:30.086Z</time></trkpt><trkpt lat="45.7153044" lon="10.2219721"><ele>389.0</ele><time>2026-04-26T07:35:31.086Z</time></trkpt><trkpt lat="45.7153926" lon="10.2220764"><ele>389.0</ele><time>2026-04-26T07:35:32.087Z</time></trkpt><trkpt lat="45.7154831" lon="10.2221895"><ele>388.75</ele><time>2026-04-26T07:35:33.087Z</time></trkpt><trkpt lat="45.7155753" lon="10.2222967"><ele>388.5</ele><time>2026-04-26T07:35:34.087Z</time></trkpt><trkpt lat="45.7156694" lon="10.2224005"><ele>388.25</ele><time>2026-04-26T07:35:35.087Z</time></trkpt><trkpt lat="45.7157606" lon="10.2225107"><ele>388.0</ele><time>2026-04-26T07:35:36.086Z</time></trkpt><trkpt lat="45.7158498" lon="10.2226303"><ele>388.0</ele><time>2026-04-26T07:35:37.087Z</time></trkpt><trkpt lat="45.7159305" lon="10.2227566"><ele>388.0</ele><time>2026-04-26T07:35:38.087Z</time></trkpt><trkpt lat="45.7160037" lon="10.2228963"><ele>388.0</ele><time>2026-04-26T07:35:39.087Z</time></trkpt><trkpt lat="45.7160616" lon="10.2230544"><ele>388.0</ele><time>2026-04-26T07:35:40.087Z</time></trkpt><trkpt lat="45.7161191" lon="10.2232226"><ele>390.0</ele><time>2026-04-26T07:35:41.087Z</time></trkpt><trkpt lat="45.716176" lon="10.2233964"><ele>392.0</ele><time>2026-04-26T07:35:42.087Z</time></trkpt><trkpt lat="45.7162348" lon="10.2235758"><ele>394.0</ele><time>2026-04-26T07:35:43.087Z</time></trkpt><trkpt lat="45.7162924" lon="10.2237612"><ele>396.0</ele><time>2026-04-26T07:35:44.087Z</time></trkpt><trkpt lat="45.7163628" lon="10.2239428"><ele>394.0</ele><time>2026-04-26T07:35:45.087Z</time></trkpt><trkpt lat="45.7164503" lon="10.2241136"><ele>392.0</ele><time>2026-04-26T07:35:46.087Z</time></trkpt><trkpt lat="45.7165402" lon="10.2242795"><ele>390.0</ele><time>2026-04-26T07:35:47.087Z</time></trkpt><trkpt lat="45.7166333" lon="10.2244366"><ele>388.0</ele><time>2026-04-26T07:35:48.087Z</time></trkpt><trkpt lat="45.7167284" lon="10.2245858"><ele>388.0</ele><time>2026-04-26T07:35:49.087Z</time></trkpt><trkpt lat="45.7168227" lon="10.2247345"><ele>388.0</ele><time>2026-04-26T07:35:50.087Z</time></trkpt><trkpt lat="45.7169158" lon="10.2248813"><ele>388.0</ele><time>2026-04-26T07:35:51.087Z</time></trkpt><trkpt lat="45.7170115" lon="10.2250311"><ele>388.0</ele><time>2026-04-26T07:35:52.087Z</time></trkpt><trkpt lat="45.7171061" lon="10.2251806"><ele>389.5</ele><time>2026-04-26T07:35:53.087Z</time></trkpt><trkpt lat="45.7172049" lon="10.2253238"><ele>391.0</ele><time>2026-04-26T07:35:54.087Z</time></trkpt><trkpt lat="45.7172812" lon="10.2254888"><ele>392.5</ele><time>2026-04-26T07:35:55.087Z</time></trkpt><trkpt lat="45.7173605" lon="10.2256453"><ele>394.0</ele><time>2026-04-26T07:35:56.086Z</time></trkpt><trkpt lat="45.7174366" lon="10.2258121"><ele>394.0</ele><time>2026-04-26T07:35:57.087Z</time></trkpt><trkpt lat="45.7175171" lon="10.2259727"><ele>394.0</ele><time>2026-04-26T07:35:58.087Z</time></trkpt><trkpt lat="45.7176029" lon="10.2261351"><ele>394.0</ele><time>2026-04-26T07:35:59.087Z</time></trkpt><trkpt lat="45.7176987" lon="10.2262826"><ele>394.0</ele><time>2026-04-26T07:36:00.086Z</time></trkpt><trkpt lat="45.717795" lon="10.2264246"><ele>395.0</ele><time>2026-04-26T07:36:01.087Z</time></trkpt><trkpt lat="45.7178946" lon="10.2265675"><ele>396.0</ele><time>2026-04-26T07:36:02.087Z</time></trkpt><trkpt lat="45.7179883" lon="10.2267109"><ele>397.0</ele><time>2026-04-26T07:36:03.086Z</time></trkpt><trkpt lat="45.7180807" lon="10.2268498"><ele>398.0</ele><time>2026-04-26T07:36:04.086Z</time></trkpt><trkpt lat="45.7181715" lon="10.2269859"><ele>398.0</ele><time>2026-04-26T07:36:05.087Z</time></trkpt><trkpt lat="45.7182656" lon="10.2271155"><ele>398.0</ele><time>2026-04-26T07:36:06.086Z</time></trkpt><trkpt lat="45.7183612" lon="10.227244"><ele>398.0</ele><time>2026-04-26T07:36:07.087Z</time></trkpt><trkpt lat="45.7184532" lon="10.2273792"><ele>398.0</ele><time>2026-04-26T07:36:08.087Z</time></trkpt><trkpt lat="45.7185429" lon="10.227515"><ele>399.5</ele><time>2026-04-26T07:36:09.087Z</time></trkpt><trkpt lat="45.7186333" lon="10.22765"><ele>401.0</ele><time>2026-04-26T07:36:10.087Z</time></trkpt><trkpt lat="45.7187234" lon="10.2277826"><ele>402.5</ele><time>2026-04-26T07:36:11.087Z</time></trkpt><trkpt lat="45.718807" lon="10.2279205"><ele>404.0</ele><time>2026-04-26T07:36:12.087Z</time></trkpt><trkpt lat="45.718892" lon="10.2280524"><ele>402.0</ele><time>2026-04-26T07:36:13.087Z</time></trkpt><trkpt lat="45.7189721" lon="10.2281805"><ele>400.0</ele><time>2026-04-26T07:36:14.087Z</time></trkpt><trkpt lat="45.7190465" lon="10.2283125"><ele>398.0</ele><time>2026-04-26T07:36:15.087Z</time></trkpt><trkpt lat="45.7191249" lon="10.2284401"><ele>396.0</ele><time>2026-04-26T07:36:16.087Z</time></trkpt><trkpt lat="45.7192051" lon="10.2285679"><ele>396.0</ele><time>2026-04-26T07:36:17.087Z</time></trkpt><trkpt lat="45.7192875" lon="10.2286953"><ele>396.0</ele><time>2026-04-26T07:36:18.086Z</time></trkpt><trkpt lat="45.7193705" lon="10.2288234"><ele>396.0</ele><time>2026-04-26T07:36:19.087Z</time></trkpt><trkpt lat="45.7194501" lon="10.2289573"><ele>396.0</ele><time>2026-04-26T07:36:20.087Z</time></trkpt><trkpt lat="45.7195321" lon="10.2290882"><ele>397.75</ele><time>2026-04-26T07:36:21.086Z</time></trkpt><trkpt lat="45.719615" lon="10.2292199"><ele>399.5</ele><time>2026-04-26T07:36:22.086Z</time></trkpt><trkpt lat="45.7196997" lon="10.2293503"><ele>401.25</ele><time>2026-04-26T07:36:23.087Z</time></trkpt><trkpt lat="45.7197819" lon="10.229483"><ele>403.0</ele><time>2026-04-26T07:36:24.087Z</time></trkpt><trkpt lat="45.7198617" lon="10.2296153"><ele>403.0</ele><time>2026-04-26T07:36:25.087Z</time></trkpt><trkpt lat="45.7199405" lon="10.2297494"><ele>403.0</ele><time>2026-04-26T07:36:26.087Z</time></trkpt><trkpt lat="45.7200171" lon="10.2298787"><ele>403.0</ele><time>2026-04-26T07:36:27.086Z</time></trkpt><trkpt lat="45.720094" lon="10.2300038"><ele>403.0</ele><time>2026-04-26T07:36:28.087Z</time></trkpt><trkpt lat="45.720176" lon="10.2301213"><ele>403.25</ele><time>2026-04-26T07:36:29.087Z</time></trkpt><trkpt lat="45.7202711" lon="10.230229"><ele>403.5</ele><time>2026-04-26T07:36:30.087Z</time></trkpt><trkpt lat="45.7203759" lon="10.230329"><ele>403.75</ele><time>2026-04-26T07:36:31.087Z</time></trkpt><trkpt lat="45.7204915" lon="10.2304131"><ele>404.0</ele><time>2026-04-26T07:36:32.086Z</time></trkpt><trkpt lat="45.7206179" lon="10.2304822"><ele>404.0</ele><time>2026-04-26T07:36:33.087Z</time></trkpt><trkpt lat="45.7207493" lon="10.2305287"><ele>404.0</ele><time>2026-04-26T07:36:34.087Z</time></trkpt><trkpt lat="45.7208768" lon="10.2305534"><ele>404.0</ele><time>2026-04-26T07:36:35.087Z</time></trkpt><trkpt lat="45.7210007" lon="10.2305612"><ele>404.0</ele><time>2026-04-26T07:36:36.086Z</time></trkpt><trkpt lat="45.7211218" lon="10.2305522"><ele>404.25</ele><time>2026-04-26T07:36:37.086Z</time></trkpt><trkpt lat="45.7212425" lon="10.2305274"><ele>404.5</ele><time>2026-04-26T07:36:38.087Z</time></trkpt><trkpt lat="45.7213611" lon="10.2304962"><ele>404.75</ele><time>2026-04-26T07:36:39.087Z</time></trkpt><trkpt lat="45.7214668" lon="10.2304637"><ele>405.0</ele><time>2026-04-26T07:36:40.086Z</time></trkpt><trkpt lat="45.7215639" lon="10.2304241"><ele>405.0</ele><time>2026-04-26T07:36:41.087Z</time></trkpt><trkpt lat="45.7216544" lon="10.2303832"><ele>405.0</ele><time>2026-04-26T07:36:42.087Z</time></trkpt><trkpt lat="45.7217275" lon="10.2303486"><ele>405.0</ele><time>2026-04-26T07:36:43.087Z</time></trkpt><trkpt lat="45.7218484" lon="10.230342"><ele>405.0</ele><time>2026-04-26T07:36:45.086Z</time></trkpt><trkpt lat="45.7219062" lon="10.2303814"><ele>405.0</ele><time>2026-04-26T07:36:46.087Z</time></trkpt><trkpt lat="45.7219512" lon="10.2304521"><ele>405.0</ele><time>2026-04-26T07:36:47.087Z</time></trkpt><trkpt lat="45.7219697" lon="10.2305529"><ele>404.8333333333333</ele><time>2026-04-26T07:36:48.087Z</time></trkpt><trkpt lat="45.7219557" lon="10.2306644"><ele>404.66666666666663</ele><time>2026-04-26T07:36:49.087Z</time></trkpt><trkpt lat="45.7219205" lon="10.2307737"><ele>404.5</ele><time>2026-04-26T07:36:50.087Z</time></trkpt><trkpt lat="45.7218768" lon="10.2308857"><ele>404.3333333333333</ele><time>2026-04-26T07:36:51.087Z</time></trkpt><trkpt lat="45.7218292" lon="10.2310024"><ele>404.16666666666663</ele><time>2026-04-26T07:36:52.087Z</time></trkpt><trkpt lat="45.7217618" lon="10.2311013"><ele>404.0</ele><time>2026-04-26T07:36:53.087Z</time></trkpt><trkpt lat="45.7216854" lon="10.2311698"><ele>404.0</ele><time>2026-04-26T07:36:54.087Z</time></trkpt><trkpt lat="45.7215917" lon="10.2312357"><ele>404.0</ele><time>2026-04-26T07:36:55.087Z</time></trkpt><trkpt lat="45.7214859" lon="10.2313068"><ele>404.0</ele><time>2026-04-26T07:36:56.087Z</time></trkpt><trkpt lat="45.721373" lon="10.2313745"><ele>404.0</ele><time>2026-04-26T07:36:57.087Z</time></trkpt><trkpt lat="45.7212552" lon="10.2314336"><ele>403.75</ele><time>2026-04-26T07:36:58.087Z</time></trkpt><trkpt lat="45.7211236" lon="10.2314992"><ele>403.5</ele><time>2026-04-26T07:36:59.086Z</time></trkpt><trkpt lat="45.7209922" lon="10.231564"><ele>403.25</ele><time>2026-04-26T07:37:00.087Z</time></trkpt><trkpt lat="45.7208601" lon="10.2316339"><ele>403.0</ele><time>2026-04-26T07:37:01.087Z</time></trkpt><trkpt lat="45.7207218" lon="10.2317028"><ele>403.0</ele><time>2026-04-26T07:37:02.087Z</time></trkpt><trkpt lat="45.7205802" lon="10.2317704"><ele>403.0</ele><time>2026-04-26T07:37:03.087Z</time></trkpt><trkpt lat="45.720439" lon="10.2318384"><ele>403.0</ele><time>2026-04-26T07:37:04.086Z</time></trkpt><trkpt lat="45.7202949" lon="10.2319064"><ele>403.0</ele><time>2026-04-26T07:37:05.087Z</time></trkpt><trkpt lat="45.720149" lon="10.2319792"><ele>403.0</ele><time>2026-04-26T07:37:06.087Z</time></trkpt><trkpt lat="45.7199997" lon="10.232053"><ele>403.0</ele><time>2026-04-26T07:37:07.087Z</time></trkpt><trkpt lat="45.7198448" lon="10.2321208"><ele>403.0</ele><time>2026-04-26T07:37:08.087Z</time></trkpt><trkpt lat="45.7196772" lon="10.2321957"><ele>403.0</ele><time>2026-04-26T07:37:09.087Z</time></trkpt><trkpt lat="45.7195031" lon="10.2322645"><ele>403.0</ele><time>2026-04-26T07:37:10.086Z</time></trkpt><trkpt lat="45.7193307" lon="10.2323343"><ele>404.0</ele><time>2026-04-26T07:37:11.087Z</time></trkpt><trkpt lat="45.7191589" lon="10.2323969"><ele>405.0</ele><time>2026-04-26T07:37:12.087Z</time></trkpt><trkpt lat="45.7189895" lon="10.2324607"><ele>406.0</ele><time>2026-04-26T07:37:13.087Z</time></trkpt><trkpt lat="45.718831" lon="10.2325524"><ele>406.0</ele><time>2026-04-26T07:37:14.086Z</time></trkpt><trkpt lat="45.7186869" lon="10.2326892"><ele>406.0</ele><time>2026-04-26T07:37:15.086Z</time></trkpt><trkpt lat="45.7185522" lon="10.2328548"><ele>406.0</ele><time>2026-04-26T07:37:16.087Z</time></trkpt><trkpt lat="45.7184185" lon="10.2330318"><ele>408.0</ele><time>2026-04-26T07:37:17.086Z</time></trkpt><trkpt lat="45.7182814" lon="10.2332212"><ele>410.0</ele><time>2026-04-26T07:37:18.087Z</time></trkpt><trkpt lat="45.7181446" lon="10.2334178"><ele>412.0</ele><time>2026-04-26T07:37:19.087Z</time></trkpt><trkpt lat="45.71802" lon="10.2336601"><ele>412.0</ele><time>2026-04-26T07:37:20.087Z</time></trkpt><trkpt lat="45.7179011" lon="10.2339321"><ele>412.0</ele><time>2026-04-26T07:37:21.087Z</time></trkpt><trkpt lat="45.7177852" lon="10.2342334"><ele>413.0</ele><time>2026-04-26T07:37:22.087Z</time></trkpt><trkpt lat="45.7176628" lon="10.234547"><ele>414.0</ele><time>2026-04-26T07:37:23.087Z</time></trkpt><trkpt lat="45.7175357" lon="10.234865"><ele>416.0</ele><time>2026-04-26T07:37:24.087Z</time></trkpt><trkpt lat="45.7174072" lon="10.235172"><ele>418.0</ele><time>2026-04-26T07:37:25.087Z</time></trkpt><trkpt lat="45.7172842" lon="10.2354561"><ele>418.0</ele><time>2026-04-26T07:37:26.086Z</time></trkpt><trkpt lat="45.7171751" lon="10.2357334"><ele>418.0</ele><time>2026-04-26T07:37:27.086Z</time></trkpt><trkpt lat="45.7170833" lon="10.2360119"><ele>418.0</ele><time>2026-04-26T07:37:28.087Z</time></trkpt><trkpt lat="45.7170127" lon="10.2363073"><ele>422.33333333333337</ele><time>2026-04-26T07:37:29.087Z</time></trkpt><trkpt lat="45.7169525" lon="10.2366136"><ele>426.66666666666663</ele><time>2026-04-26T07:37:30.087Z</time></trkpt><trkpt lat="45.7169103" lon="10.2369185"><ele>431.0</ele><time>2026-04-26T07:37:31.087Z</time></trkpt><trkpt lat="45.7168939" lon="10.2372308"><ele>431.3333333333333</ele><time>2026-04-26T07:37:32.087Z</time></trkpt><trkpt lat="45.7168902" lon="10.2375383"><ele>431.66666666666663</ele><time>2026-04-26T07:37:33.087Z</time></trkpt><trkpt lat="45.7169057" lon="10.2378287"><ele>432.0</ele><time>2026-04-26T07:37:34.086Z</time></trkpt><trkpt lat="45.7169468" lon="10.238117"><ele>432.33333333333337</ele><time>2026-04-26T07:37:35.086Z</time></trkpt><trkpt lat="45.7170005" lon="10.2384034"><ele>432.6666666666667</ele><time>2026-04-26T07:37:36.086Z</time></trkpt><trkpt lat="45.7170461" lon="10.2386905"><ele>433.0</ele><time>2026-04-26T07:37:37.087Z</time></trkpt><trkpt lat="45.7170795" lon="10.238991"><ele>433.0</ele><time>2026-04-26T07:37:38.086Z</time></trkpt><trkpt lat="45.7171033" lon="10.2392908"><ele>433.0</ele><time>2026-04-26T07:37:39.087Z</time></trkpt><trkpt lat="45.7171105" lon="10.239586"><ele>433.0</ele><time>2026-04-26T07:37:40.086Z</time></trkpt><trkpt lat="45.7170936" lon="10.2398736"><ele>437.33333333333337</ele><time>2026-04-26T07:37:41.087Z</time></trkpt><trkpt lat="45.7170603" lon="10.2401332"><ele>441.66666666666663</ele><time>2026-04-26T07:37:42.087Z</time></trkpt><trkpt lat="45.7170084" lon="10.2403579"><ele>446.0</ele><time>2026-04-26T07:37:43.086Z</time></trkpt><trkpt lat="45.7169252" lon="10.2405433"><ele>439.3333333333333</ele><time>2026-04-26T07:37:44.086Z</time></trkpt><trkpt lat="45.7168241" lon="10.2407025"><ele>432.66666666666663</ele><time>2026-04-26T07:37:45.086Z</time></trkpt><trkpt lat="45.7166981" lon="10.2408474"><ele>426.0</ele><time>2026-04-26T07:37:46.087Z</time></trkpt><trkpt lat="45.7165487" lon="10.2409721"><ele>426.0</ele><time>2026-04-26T07:37:47.087Z</time></trkpt><trkpt lat="45.7163983" lon="10.2410882"><ele>426.0</ele><time>2026-04-26T07:37:48.087Z</time></trkpt><trkpt lat="45.7162682" lon="10.2412139"><ele>426.0</ele><time>2026-04-26T07:37:49.087Z</time></trkpt><trkpt lat="45.716148" lon="10.2413376"><ele>430.0</ele><time>2026-04-26T07:37:50.087Z</time></trkpt><trkpt lat="45.7161117" lon="10.2415104"><ele>434.0</ele><time>2026-04-26T07:37:51.087Z</time></trkpt><trkpt lat="45.7160883" lon="10.2416926"><ele>438.0</ele><time>2026-04-26T07:37:52.087Z</time></trkpt><trkpt lat="45.7160864" lon="10.2419068"><ele>442.0</ele><time>2026-04-26T07:37:53.087Z</time></trkpt><trkpt lat="45.7160849" lon="10.2421414"><ele>441.0</ele><time>2026-04-26T07:37:54.087Z</time></trkpt><trkpt lat="45.7160705" lon="10.2423918"><ele>440.0</ele><time>2026-04-26T07:37:55.086Z</time></trkpt><trkpt lat="45.7160363" lon="10.2426465"><ele>439.0</ele><time>2026-04-26T07:37:56.087Z</time></trkpt><trkpt lat="45.7159857" lon="10.2428907"><ele>442.6666666666667</ele><time>2026-04-26T07:37:57.087Z</time></trkpt><trkpt lat="45.715897" lon="10.2431379"><ele>446.33333333333337</ele><time>2026-04-26T07:37:58.087Z</time></trkpt><trkpt lat="45.7157837" lon="10.2433951"><ele>450.0</ele><time>2026-04-26T07:37:59.087Z</time></trkpt><trkpt lat="45.7156686" lon="10.243652"><ele>450.0</ele><time>2026-04-26T07:38:00.087Z</time></trkpt><trkpt lat="45.7155547" lon="10.2439039"><ele>450.0</ele><time>2026-04-26T07:38:01.087Z</time></trkpt><trkpt lat="45.7154493" lon="10.2441394"><ele>450.0</ele><time>2026-04-26T07:38:02.087Z</time></trkpt><trkpt lat="45.7153604" lon="10.2443551"><ele>447.33333333333337</ele><time>2026-04-26T07:38:03.087Z</time></trkpt><trkpt lat="45.7153002" lon="10.2445717"><ele>444.6666666666667</ele><time>2026-04-26T07:38:04.087Z</time></trkpt><trkpt lat="45.7152616" lon="10.2447815"><ele>442.0</ele><time>2026-04-26T07:38:05.087Z</time></trkpt><trkpt lat="45.7152147" lon="10.2449682"><ele>442.0</ele><time>2026-04-26T07:38:06.087Z</time></trkpt><trkpt lat="45.7151327" lon="10.245115"><ele>442.0</ele><time>2026-04-26T07:38:07.087Z</time></trkpt><trkpt lat="45.7150175" lon="10.2452314"><ele>442.0</ele><time>2026-04-26T07:38:08.087Z</time></trkpt><trkpt lat="45.7148851" lon="10.2453546"><ele>442.0</ele><time>2026-04-26T07:38:09.087Z</time></trkpt><trkpt lat="45.7147591" lon="10.2454931"><ele>448.0</ele><time>2026-04-26T07:38:10.087Z</time></trkpt><trkpt lat="45.7146465" lon="10.2456646"><ele>454.0</ele><time>2026-04-26T07:38:11.087Z</time></trkpt><trkpt lat="45.7145561" lon="10.2458857"><ele>460.0</ele><time>2026-04-26T07:38:12.087Z</time></trkpt><trkpt lat="45.7144764" lon="10.2461449"><ele>454.5</ele><time>2026-04-26T07:38:13.087Z</time></trkpt><trkpt lat="45.7143949" lon="10.2464413"><ele>449.0</ele><time>2026-04-26T07:38:14.087Z</time></trkpt><trkpt lat="45.7143107" lon="10.2467498"><ele>449.0</ele><time>2026-04-26T07:38:15.087Z</time></trkpt><trkpt lat="45.7142306" lon="10.2470426"><ele>449.0</ele><time>2026-04-26T07:38:16.087Z</time></trkpt><trkpt lat="45.7141474" lon="10.24732"><ele>449.0</ele><time>2026-04-26T07:38:17.087Z</time></trkpt><trkpt lat="45.7140305" lon="10.2475928"><ele>452.5</ele><time>2026-04-26T07:38:18.087Z</time></trkpt><trkpt lat="45.713899" lon="10.2478733"><ele>456.0</ele><time>2026-04-26T07:38:19.086Z</time></trkpt><trkpt lat="45.7137619" lon="10.2481543"><ele>459.5</ele><time>2026-04-26T07:38:20.086Z</time></trkpt><trkpt lat="45.7136331" lon="10.2484604"><ele>463.0</ele><time>2026-04-26T07:38:21.087Z</time></trkpt><trkpt lat="45.7135227" lon="10.2487934"><ele>462.5</ele><time>2026-04-26T07:38:22.087Z</time></trkpt><trkpt lat="45.7134214" lon="10.2491242"><ele>462.0</ele><time>2026-04-26T07:38:23.087Z</time></trkpt><trkpt lat="45.7133094" lon="10.2494313"><ele>462.0</ele><time>2026-04-26T07:38:24.086Z</time></trkpt><trkpt lat="45.7132073" lon="10.2497111"><ele>462.0</ele><time>2026-04-26T07:38:25.087Z</time></trkpt><trkpt lat="45.7131069" lon="10.2499941"><ele>462.0</ele><time>2026-04-26T07:38:26.087Z</time></trkpt><trkpt lat="45.713023" lon="10.2502898"><ele>466.0</ele><time>2026-04-26T07:38:27.087Z</time></trkpt><trkpt lat="45.7129547" lon="10.2505922"><ele>470.0</ele><time>2026-04-26T07:38:28.087Z</time></trkpt><trkpt lat="45.7128874" lon="10.2508969"><ele>474.0</ele><time>2026-04-26T07:38:29.087Z</time></trkpt><trkpt lat="45.7128228" lon="10.2511995"><ele>469.33333333333337</ele><time>2026-04-26T07:38:30.087Z</time></trkpt><trkpt lat="45.7127678" lon="10.2515033"><ele>464.6666666666667</ele><time>2026-04-26T07:38:31.087Z</time></trkpt><trkpt lat="45.7127347" lon="10.2518267"><ele>460.0</ele><time>2026-04-26T07:38:32.087Z</time></trkpt><trkpt lat="45.7127025" lon="10.2521546"><ele>464.0</ele><time>2026-04-26T07:38:33.086Z</time></trkpt><trkpt lat="45.7126778" lon="10.2524772"><ele>468.0</ele><time>2026-04-26T07:38:34.087Z</time></trkpt><trkpt lat="45.7126647" lon="10.2528034"><ele>471.0</ele><time>2026-04-26T07:38:35.087Z</time></trkpt><trkpt lat="45.7126676" lon="10.2531435"><ele>474.0</ele><time>2026-04-26T07:38:36.087Z</time></trkpt><trkpt lat="45.7126934" lon="10.2534905"><ele>474.0</ele><time>2026-04-26T07:38:37.087Z</time></trkpt><trkpt lat="45.7127297" lon="10.2538427"><ele>474.0</ele><time>2026-04-26T07:38:38.087Z</time></trkpt><trkpt lat="45.7127668" lon="10.2542015"><ele>487.0</ele><time>2026-04-26T07:38:39.086Z</time></trkpt><trkpt lat="45.7127979" lon="10.2545555"><ele>500.0</ele><time>2026-04-26T07:38:40.087Z</time></trkpt><trkpt lat="45.7128344" lon="10.2548908"><ele>500.0</ele><time>2026-04-26T07:38:41.087Z</time></trkpt><trkpt lat="45.7128689" lon="10.2552003"><ele>500.0</ele><time>2026-04-26T07:38:42.086Z</time></trkpt><trkpt lat="45.7129019" lon="10.2554891"><ele>500.0</ele><time>2026-04-26T07:38:43.086Z</time></trkpt><trkpt lat="45.7129308" lon="10.25574"><ele>495.3333333333333</ele><time>2026-04-26T07:38:44.087Z</time></trkpt><trkpt lat="45.7129616" lon="10.2559635"><ele>490.66666666666663</ele><time>2026-04-26T07:38:45.087Z</time></trkpt><trkpt lat="45.7130188" lon="10.2561595"><ele>486.0</ele><time>2026-04-26T07:38:46.086Z</time></trkpt><trkpt lat="45.7130987" lon="10.2563383"><ele>484.4</ele><time>2026-04-26T07:38:47.087Z</time></trkpt><trkpt lat="45.7131822" lon="10.2565107"><ele>482.8</ele><time>2026-04-26T07:38:48.086Z</time></trkpt><trkpt lat="45.713258" lon="10.2566465"><ele>481.19999999999993</ele><time>2026-04-26T07:38:49.087Z</time></trkpt><trkpt lat="45.7133236" lon="10.2567412"><ele>479.59999999999997</ele><time>2026-04-26T07:38:50.087Z</time></trkpt><trkpt lat="45.7133929" lon="10.2567903"><ele>478.0</ele><time>2026-04-26T07:38:51.087Z</time></trkpt><trkpt lat="45.7134583" lon="10.2567878"><ele>478.0</ele><time>2026-04-26T07:38:52.086Z</time></trkpt><trkpt lat="45.7135353" lon="10.2566575"><ele>478.0</ele><time>2026-04-26T07:38:54.087Z</time></trkpt><trkpt lat="45.7135335" lon="10.2565351"><ele>478.0</ele><time>2026-04-26T07:38:55.087Z</time></trkpt><trkpt lat="45.7135063" lon="10.2563723"><ele>478.0</ele><time>2026-04-26T07:38:56.087Z</time></trkpt><trkpt lat="45.7134724" lon="10.2561601"><ele>480.6666666666667</ele><time>2026-04-26T07:38:57.087Z</time></trkpt><trkpt lat="45.7134264" lon="10.2559061"><ele>483.33333333333337</ele><time>2026-04-26T07:38:58.087Z</time></trkpt><trkpt lat="45.7133693" lon="10.2556252"><ele>486.0</ele><time>2026-04-26T07:38:59.086Z</time></trkpt><trkpt lat="45.7133015" lon="10.2553189"><ele>490.66666666666663</ele><time>2026-04-26T07:39:00.087Z</time></trkpt><trkpt lat="45.7132393" lon="10.2550447"><ele>495.3333333333333</ele><time>2026-04-26T07:39:01.087Z</time></trkpt><trkpt lat="45.7131841" lon="10.2547837"><ele>500.0</ele><time>2026-04-26T07:39:02.087Z</time></trkpt><trkpt lat="45.713123" lon="10.2545545"><ele>501.0</ele><time>2026-04-26T07:39:03.087Z</time></trkpt><trkpt lat="45.7130766" lon="10.2543466"><ele>502.0</ele><time>2026-04-26T07:39:04.087Z</time></trkpt><trkpt lat="45.7130563" lon="10.2541467"><ele>503.0</ele><time>2026-04-26T07:39:05.086Z</time></trkpt><trkpt lat="45.7130534" lon="10.253942"><ele>504.0</ele><time>2026-04-26T07:39:06.087Z</time></trkpt><trkpt lat="45.713061" lon="10.2537382"><ele>502.0</ele><time>2026-04-26T07:39:07.087Z</time></trkpt><trkpt lat="45.7130643" lon="10.2535309"><ele>500.0</ele><time>2026-04-26T07:39:08.087Z</time></trkpt><trkpt lat="45.71306" lon="10.2533522"><ele>498.0</ele><time>2026-04-26T07:39:09.087Z</time></trkpt><trkpt lat="45.7130522" lon="10.2532086"><ele>496.0</ele><time>2026-04-26T07:39:10.087Z</time></trkpt><trkpt lat="45.7130631" lon="10.2530835"><ele>496.00000000000006</ele><time>2026-04-26T07:39:11.087Z</time></trkpt><trkpt lat="45.7131034" lon="10.2529933"><ele>496.0</ele><time>2026-04-26T07:39:12.087Z</time></trkpt><trkpt lat="45.7131643" lon="10.2529482"><ele>496.0</ele><time>2026-04-26T07:39:13.087Z</time></trkpt><trkpt lat="45.7132372" lon="10.2529647"><ele>496.0</ele><time>2026-04-26T07:39:14.087Z</time></trkpt><trkpt lat="45.7132846" lon="10.2530457"><ele>496.00000000000006</ele><time>2026-04-26T07:39:15.087Z</time></trkpt><trkpt lat="45.7132992" lon="10.2531566"><ele>496.0</ele><time>2026-04-26T07:39:16.087Z</time></trkpt><trkpt lat="45.7132793" lon="10.253312"><ele>496.0</ele><time>2026-04-26T07:39:17.087Z</time></trkpt><trkpt lat="45.7132516" lon="10.2534994"><ele>496.0</ele><time>2026-04-26T07:39:18.087Z</time></trkpt><trkpt lat="45.7132228" lon="10.2536972"><ele>496.0</ele><time>2026-04-26T07:39:19.087Z</time></trkpt><trkpt lat="45.7132157" lon="10.2539023"><ele>496.0</ele><time>2026-04-26T07:39:20.087Z</time></trkpt><trkpt lat="45.7132373" lon="10.2541215"><ele>497.33333333333337</ele><time>2026-04-26T07:39:21.086Z</time></trkpt><trkpt lat="45.7132991" lon="10.2543451"><ele>498.66666666666663</ele><time>2026-04-26T07:39:22.087Z</time></trkpt><trkpt lat="45.713389" lon="10.2545783"><ele>500.0</ele><time>2026-04-26T07:39:23.087Z</time></trkpt><trkpt lat="45.7134833" lon="10.2548113"><ele>510.66666666666663</ele><time>2026-04-26T07:39:24.087Z</time></trkpt><trkpt lat="45.7135835" lon="10.2550417"><ele>521.3333333333334</ele><time>2026-04-26T07:39:25.086Z</time></trkpt><trkpt lat="45.7137026" lon="10.2552314"><ele>532.0</ele><time>2026-04-26T07:39:26.087Z</time></trkpt><trkpt lat="45.7138386" lon="10.2553761"><ele>532.0</ele><time>2026-04-26T07:39:27.087Z</time></trkpt><trkpt lat="45.7139757" lon="10.2555124"><ele>532.0</ele><time>2026-04-26T07:39:28.087Z</time></trkpt><trkpt lat="45.7141356" lon="10.2555507"><ele>532.0</ele><time>2026-04-26T07:39:29.087Z</time></trkpt><trkpt lat="45.7142672" lon="10.2556019"><ele>529.4</ele><time>2026-04-26T07:39:30.087Z</time></trkpt><trkpt lat="45.7143713" lon="10.2556482"><ele>526.8000000000001</ele><time>2026-04-26T07:39:31.087Z</time></trkpt><trkpt lat="45.7144383" lon="10.2557134"><ele>524.2</ele><time>2026-04-26T07:39:32.087Z</time></trkpt><trkpt lat="45.7144714" lon="10.2557995"><ele>521.6</ele><time>2026-04-26T07:39:33.087Z</time></trkpt><trkpt lat="45.7144642" lon="10.2559209"><ele>519.0</ele><time>2026-04-26T07:39:34.086Z</time></trkpt><trkpt lat="45.7144139" lon="10.2560579"><ele>519.0</ele><time>2026-04-26T07:39:35.087Z</time></trkpt><trkpt lat="45.7143631" lon="10.2562"><ele>519.0</ele><time>2026-04-26T07:39:36.087Z</time></trkpt><trkpt lat="45.7143455" lon="10.2563467"><ele>519.0</ele><time>2026-04-26T07:39:37.087Z</time></trkpt><trkpt lat="45.7143655" lon="10.2564816"><ele>519.0</ele><time>2026-04-26T07:39:38.087Z</time></trkpt><trkpt lat="45.7144338" lon="10.2565969"><ele>519.0</ele><time>2026-04-26T07:39:39.087Z</time></trkpt><trkpt lat="45.7145399" lon="10.2567011"><ele>527.6666666666666</ele><time>2026-04-26T07:39:40.087Z</time></trkpt><trkpt lat="45.714644" lon="10.2568576"><ele>536.3333333333333</ele><time>2026-04-26T07:39:41.087Z</time></trkpt><trkpt lat="45.7147634" lon="10.2570249"><ele>545.0</ele><time>2026-04-26T07:39:42.087Z</time></trkpt><trkpt lat="45.7149262" lon="10.2571543"><ele>547.0</ele><time>2026-04-26T07:39:43.087Z</time></trkpt><trkpt lat="45.7150941" lon="10.2573088"><ele>549.0</ele><time>2026-04-26T07:39:44.087Z</time></trkpt><trkpt lat="45.7152691" lon="10.257495"><ele>551.0</ele><time>2026-04-26T07:39:45.087Z</time></trkpt><trkpt lat="45.7154459" lon="10.257688"><ele>551.0</ele><time>2026-04-26T07:39:46.087Z</time></trkpt><trkpt lat="45.7156071" lon="10.2578625"><ele>551.0</ele><time>2026-04-26T07:39:47.087Z</time></trkpt><trkpt lat="45.7157447" lon="10.258027"><ele>551.0</ele><time>2026-04-26T07:39:48.086Z</time></trkpt><trkpt lat="45.7158543" lon="10.2582046"><ele>548.5</ele><time>2026-04-26T07:39:49.087Z</time></trkpt><trkpt lat="45.7159319" lon="10.2583928"><ele>546.0</ele><time>2026-04-26T07:39:50.087Z</time></trkpt><trkpt lat="45.7159842" lon="10.2586"><ele>543.5</ele><time>2026-04-26T07:39:51.087Z</time></trkpt><trkpt lat="45.7160005" lon="10.2588017"><ele>541.0</ele><time>2026-04-26T07:39:52.086Z</time></trkpt><trkpt lat="45.7159847" lon="10.2590228"><ele>541.0</ele><time>2026-04-26T07:39:53.086Z</time></trkpt><trkpt lat="45.7159355" lon="10.259252"><ele>541.0</ele><time>2026-04-26T07:39:54.087Z</time></trkpt><trkpt lat="45.7158652" lon="10.2594578"><ele>541.0</ele><time>2026-04-26T07:39:55.087Z</time></trkpt><trkpt lat="45.7158168" lon="10.2596465"><ele>542.25</ele><time>2026-04-26T07:39:56.087Z</time></trkpt><trkpt lat="45.7157991" lon="10.2598505"><ele>543.5</ele><time>2026-04-26T07:39:57.086Z</time></trkpt><trkpt lat="45.7158156" lon="10.2600551"><ele>544.75</ele><time>2026-04-26T07:39:58.087Z</time></trkpt><trkpt lat="45.715874" lon="10.2602652"><ele>546.0</ele><time>2026-04-26T07:39:59.087Z</time></trkpt><trkpt lat="45.7159522" lon="10.2604798"><ele>543.3333333333334</ele><time>2026-04-26T07:40:00.086Z</time></trkpt><trkpt lat="45.7160369" lon="10.2607098"><ele>540.6666666666667</ele><time>2026-04-26T07:40:01.087Z</time></trkpt><trkpt lat="45.7161264" lon="10.2609609"><ele>538.0</ele><time>2026-04-26T07:40:02.087Z</time></trkpt><trkpt lat="45.7162257" lon="10.2612194"><ele>548.0</ele><time>2026-04-26T07:40:03.087Z</time></trkpt><trkpt lat="45.7163318" lon="10.2614829"><ele>558.0</ele><time>2026-04-26T07:40:04.086Z</time></trkpt><trkpt lat="45.7164309" lon="10.2617408"><ele>568.0</ele><time>2026-04-26T07:40:05.087Z</time></trkpt><trkpt lat="45.7165214" lon="10.2619738"><ele>568.0</ele><time>2026-04-26T07:40:06.086Z</time></trkpt><trkpt lat="45.7165976" lon="10.2621755"><ele>568.0</ele><time>2026-04-26T07:40:07.087Z</time></trkpt><trkpt lat="45.716653" lon="10.262371"><ele>568.0</ele><time>2026-04-26T07:40:08.086Z</time></trkpt><trkpt lat="45.716671" lon="10.2625719"><ele>568.0</ele><time>2026-04-26T07:40:09.087Z</time></trkpt><trkpt lat="45.7166829" lon="10.2627646"><ele>566.75</ele><time>2026-04-26T07:40:10.087Z</time></trkpt><trkpt lat="45.7167183" lon="10.2629553"><ele>565.5</ele><time>2026-04-26T07:40:11.087Z</time></trkpt><trkpt lat="45.716783" lon="10.263125"><ele>564.25</ele><time>2026-04-26T07:40:12.086Z</time></trkpt><trkpt lat="45.7168813" lon="10.2632748"><ele>563.0</ele><time>2026-04-26T07:40:13.086Z</time></trkpt><trkpt lat="45.7170091" lon="10.2634128"><ele>570.0</ele><time>2026-04-26T07:40:14.087Z</time></trkpt><trkpt lat="45.7171447" lon="10.2635604"><ele>577.0</ele><time>2026-04-26T07:40:15.087Z</time></trkpt><trkpt lat="45.7172715" lon="10.2637259"><ele>584.0</ele><time>2026-04-26T07:40:16.087Z</time></trkpt><trkpt lat="45.717372" lon="10.2638931"><ele>581.2</ele><time>2026-04-26T07:40:17.086Z</time></trkpt><trkpt lat="45.7174454" lon="10.2640451"><ele>578.4</ele><time>2026-04-26T07:40:18.087Z</time></trkpt><trkpt lat="45.7175027" lon="10.2641646"><ele>575.6</ele><time>2026-04-26T07:40:19.086Z</time></trkpt><trkpt lat="45.7175651" lon="10.2642319"><ele>572.8</ele><time>2026-04-26T07:40:20.087Z</time></trkpt><trkpt lat="45.7176324" lon="10.2642448"><ele>570.0</ele><time>2026-04-26T07:40:21.086Z</time></trkpt><trkpt lat="45.7177064" lon="10.2641104"><ele>570.0</ele><time>2026-04-26T07:40:23.087Z</time></trkpt><trkpt lat="45.7176912" lon="10.2640094"><ele>570.0</ele><time>2026-04-26T07:40:24.087Z</time></trkpt><trkpt lat="45.717626" lon="10.2639121"><ele>570.0</ele><time>2026-04-26T07:40:25.087Z</time></trkpt><trkpt lat="45.7175326" lon="10.2637953"><ele>570.0</ele><time>2026-04-26T07:40:26.086Z</time></trkpt><trkpt lat="45.7174364" lon="10.2636301"><ele>570.0</ele><time>2026-04-26T07:40:27.086Z</time></trkpt><trkpt lat="45.7173489" lon="10.2634367"><ele>573.5</ele><time>2026-04-26T07:40:28.087Z</time></trkpt><trkpt lat="45.7172505" lon="10.2632328"><ele>577.0</ele><time>2026-04-26T07:40:29.087Z</time></trkpt><trkpt lat="45.7171613" lon="10.2630761"><ele>580.5</ele><time>2026-04-26T07:40:30.087Z</time></trkpt><trkpt lat="45.7170869" lon="10.2629715"><ele>584.0</ele><time>2026-04-26T07:40:31.087Z</time></trkpt><trkpt lat="45.717033" lon="10.2628662"><ele>586.8</ele><time>2026-04-26T07:40:32.087Z</time></trkpt><trkpt lat="45.7170335" lon="10.2627697"><ele>589.5999999999999</ele><time>2026-04-26T07:40:33.087Z</time></trkpt><trkpt lat="45.7171291" lon="10.2626974"><ele>592.4</ele><time>2026-04-26T07:40:35.087Z</time></trkpt><trkpt lat="45.7171862" lon="10.2627557"><ele>595.1999999999999</ele><time>2026-04-26T07:40:36.087Z</time></trkpt><trkpt lat="45.7172338" lon="10.2628777"><ele>598.0</ele><time>2026-04-26T07:40:37.086Z</time></trkpt><trkpt lat="45.7172955" lon="10.2630376"><ele>593.3333333333334</ele><time>2026-04-26T07:40:38.087Z</time></trkpt><trkpt lat="45.71738" lon="10.2632215"><ele>588.6666666666666</ele><time>2026-04-26T07:40:39.087Z</time></trkpt><trkpt lat="45.7174855" lon="10.2634312"><ele>584.0</ele><time>2026-04-26T07:40:40.087Z</time></trkpt><trkpt lat="45.7176181" lon="10.2636311"><ele>590.3333333333333</ele><time>2026-04-26T07:40:41.087Z</time></trkpt><trkpt lat="45.7177699" lon="10.2637974"><ele>596.6666666666666</ele><time>2026-04-26T07:40:42.087Z</time></trkpt><trkpt lat="45.7178934" lon="10.26398"><ele>603.0</ele><time>2026-04-26T07:40:43.087Z</time></trkpt><trkpt lat="45.717987" lon="10.264185"><ele>603.0</ele><time>2026-04-26T07:40:44.086Z</time></trkpt><trkpt lat="45.7180714" lon="10.2643826"><ele>603.0</ele><time>2026-04-26T07:40:45.086Z</time></trkpt><trkpt lat="45.718178" lon="10.2645587"><ele>603.0</ele><time>2026-04-26T07:40:46.087Z</time></trkpt><trkpt lat="45.7182974" lon="10.264728"><ele>597.6666666666666</ele><time>2026-04-26T07:40:47.086Z</time></trkpt><trkpt lat="45.7184425" lon="10.2648849"><ele>592.3333333333333</ele><time>2026-04-26T07:40:48.087Z</time></trkpt><trkpt lat="45.7185842" lon="10.2650034"><ele>587.0</ele><time>2026-04-26T07:40:49.087Z</time></trkpt><trkpt lat="45.7187024" lon="10.2651038"><ele>593.0</ele><time>2026-04-26T07:40:50.087Z</time></trkpt><trkpt lat="45.7187882" lon="10.2651921"><ele>599.0</ele><time>2026-04-26T07:40:51.087Z</time></trkpt><trkpt lat="45.7188463" lon="10.2652859"><ele>605.0</ele><time>2026-04-26T07:40:52.087Z</time></trkpt><trkpt lat="45.7188596" lon="10.2653884"><ele>611.0</ele><time>2026-04-26T07:40:53.087Z</time></trkpt><trkpt lat="45.7188271" lon="10.2654773"><ele>617.0</ele><time>2026-04-26T07:40:54.086Z</time></trkpt><trkpt lat="45.7187581" lon="10.265529"><ele>623.0</ele><time>2026-04-26T07:40:55.087Z</time></trkpt><trkpt lat="45.7186592" lon="10.2655473"><ele>618.1999999999999</ele><time>2026-04-26T07:40:56.087Z</time></trkpt><trkpt lat="45.7185477" lon="10.2655546"><ele>613.4</ele><time>2026-04-26T07:40:57.087Z</time></trkpt><trkpt lat="45.7184284" lon="10.265577"><ele>608.5999999999999</ele><time>2026-04-26T07:40:58.087Z</time></trkpt><trkpt lat="45.718332" lon="10.2656176"><ele>603.8</ele><time>2026-04-26T07:40:59.087Z</time></trkpt><trkpt lat="45.7182578" lon="10.2657012"><ele>599.0</ele><time>2026-04-26T07:41:00.087Z</time></trkpt><trkpt lat="45.7181988" lon="10.2658445"><ele>599.0</ele><time>2026-04-26T07:41:01.087Z</time></trkpt><trkpt lat="45.7181426" lon="10.2659889"><ele>599.0</ele><time>2026-04-26T07:41:02.087Z</time></trkpt><trkpt lat="45.7181005" lon="10.266116"><ele>599.0</ele><time>2026-04-26T07:41:03.087Z</time></trkpt><trkpt lat="45.7180693" lon="10.266203"><ele>599.0</ele><time>2026-04-26T07:41:04.086Z</time></trkpt><trkpt lat="45.7180401" lon="10.2662891"><ele>599.0</ele><time>2026-04-26T07:41:05.086Z</time></trkpt><trkpt lat="45.718015" lon="10.2663766"><ele>599.0</ele><time>2026-04-26T07:41:06.087Z</time></trkpt><trkpt lat="45.7179813" lon="10.2664719"><ele>599.8</ele><time>2026-04-26T07:41:07.087Z</time></trkpt><trkpt lat="45.7179452" lon="10.2665782"><ele>600.5999999999999</ele><time>2026-04-26T07:41:08.086Z</time></trkpt><trkpt lat="45.7179048" lon="10.2666999"><ele>601.4</ele><time>2026-04-26T07:41:09.087Z</time></trkpt><trkpt lat="45.7178643" lon="10.2668216"><ele>602.1999999999999</ele><time>2026-04-26T07:41:10.087Z</time></trkpt><trkpt lat="45.7178183" lon="10.2669417"><ele>603.0</ele><time>2026-04-26T07:41:11.086Z</time></trkpt><trkpt lat="45.717762" lon="10.2670547"><ele>601.1666666666666</ele><time>2026-04-26T07:41:12.086Z</time></trkpt><trkpt lat="45.717715" lon="10.2671567"><ele>599.3333333333334</ele><time>2026-04-26T07:41:13.087Z</time></trkpt><trkpt lat="45.7176758" lon="10.2672644"><ele>597.5</ele><time>2026-04-26T07:41:14.087Z</time></trkpt><trkpt lat="45.7176399" lon="10.2673644"><ele>595.6666666666667</ele><time>2026-04-26T07:41:15.087Z</time></trkpt><trkpt lat="45.7176298" lon="10.2674817"><ele>593.8333333333334</ele><time>2026-04-26T07:41:16.087Z</time></trkpt><trkpt lat="45.7176314" lon="10.2675911"><ele>592.0</ele><time>2026-04-26T07:41:17.087Z</time></trkpt><trkpt lat="45.7176647" lon="10.2677048"><ele>592.0</ele><time>2026-04-26T07:41:18.087Z</time></trkpt><trkpt lat="45.7177305" lon="10.2678225"><ele>592.0</ele><time>2026-04-26T07:41:19.087Z</time></trkpt><trkpt lat="45.7178103" lon="10.2679318"><ele>592.0</ele><time>2026-04-26T07:41:20.086Z</time></trkpt><trkpt lat="45.7178931" lon="10.2680479"><ele>592.0</ele><time>2026-04-26T07:41:21.086Z</time></trkpt><trkpt lat="45.7179741" lon="10.2681643"><ele>592.0</ele><time>2026-04-26T07:41:22.087Z</time></trkpt><trkpt lat="45.7180541" lon="10.2682705"><ele>595.3333333333334</ele><time>2026-04-26T07:41:23.087Z</time></trkpt><trkpt lat="45.7181305" lon="10.2683664"><ele>598.6666666666667</ele><time>2026-04-26T07:41:24.087Z</time></trkpt><trkpt lat="45.7181779" lon="10.2684705"><ele>602.0</ele><time>2026-04-26T07:41:25.087Z</time></trkpt><trkpt lat="45.718196" lon="10.2685733"><ele>605.3333333333334</ele><time>2026-04-26T07:41:26.087Z</time></trkpt><trkpt lat="45.718174" lon="10.2686742"><ele>608.6666666666666</ele><time>2026-04-26T07:41:27.087Z</time></trkpt><trkpt lat="45.7181147" lon="10.26874"><ele>612.0</ele><time>2026-04-26T07:41:28.087Z</time></trkpt><trkpt lat="45.718033" lon="10.2687567"><ele>612.0</ele><time>2026-04-26T07:41:29.087Z</time></trkpt><trkpt lat="45.7179224" lon="10.268745"><ele>612.0</ele><time>2026-04-26T07:41:30.086Z</time></trkpt><trkpt lat="45.7178033" lon="10.2687923"><ele>612.0</ele><time>2026-04-26T07:41:31.087Z</time></trkpt><trkpt lat="45.7176913" lon="10.2688903"><ele>612.0</ele><time>2026-04-26T07:41:32.087Z</time></trkpt><trkpt lat="45.7175831" lon="10.2689956"><ele>610.3333333333334</ele><time>2026-04-26T07:41:33.087Z</time></trkpt><trkpt lat="45.7175711" lon="10.2692157"><ele>608.6666666666667</ele><time>2026-04-26T07:41:34.087Z</time></trkpt><trkpt lat="45.717569" lon="10.2694169"><ele>607.0</ele><time>2026-04-26T07:41:35.087Z</time></trkpt><trkpt lat="45.7175953" lon="10.2696409"><ele>610.4</ele><time>2026-04-26T07:41:36.087Z</time></trkpt><trkpt lat="45.7176173" lon="10.2698294"><ele>613.8000000000001</ele><time>2026-04-26T07:41:37.087Z</time></trkpt><trkpt lat="45.7176316" lon="10.2699717"><ele>617.2</ele><time>2026-04-26T07:41:38.087Z</time></trkpt><trkpt lat="45.7176072" lon="10.2700863"><ele>620.6</ele><time>2026-04-26T07:41:39.087Z</time></trkpt><trkpt lat="45.7175562" lon="10.2701515"><ele>624.0</ele><time>2026-04-26T07:41:40.087Z</time></trkpt><trkpt lat="45.7174881" lon="10.2701395"><ele>624.0</ele><time>2026-04-26T07:41:41.086Z</time></trkpt><trkpt lat="45.7174016" lon="10.2700717"><ele>624.0</ele><time>2026-04-26T07:41:42.087Z</time></trkpt><trkpt lat="45.7172958" lon="10.2699655"><ele>624.0</ele><time>2026-04-26T07:41:43.087Z</time></trkpt><trkpt lat="45.7171808" lon="10.2698463"><ele>624.0</ele><time>2026-04-26T07:41:44.087Z</time></trkpt><trkpt lat="45.7170857" lon="10.2697398"><ele>622.2</ele><time>2026-04-26T07:41:45.087Z</time></trkpt><trkpt lat="45.7169846" lon="10.2696777"><ele>620.4</ele><time>2026-04-26T07:41:46.087Z</time></trkpt><trkpt lat="45.7168839" lon="10.2696813"><ele>618.6</ele><time>2026-04-26T07:41:47.087Z</time></trkpt><trkpt lat="45.7168041" lon="10.2697656"><ele>616.8</ele><time>2026-04-26T07:41:48.086Z</time></trkpt><trkpt lat="45.7167239" lon="10.2699111"><ele>615.0</ele><time>2026-04-26T07:41:49.086Z</time></trkpt><trkpt lat="45.7166225" lon="10.2700903"><ele>615.0</ele><time>2026-04-26T07:41:50.086Z</time></trkpt><trkpt lat="45.7165042" lon="10.270309"><ele>615.0</ele><time>2026-04-26T07:41:51.087Z</time></trkpt><trkpt lat="45.7163714" lon="10.2705465"><ele>615.0</ele><time>2026-04-26T07:41:52.087Z</time></trkpt><trkpt lat="45.7162623" lon="10.2707502"><ele>618.0</ele><time>2026-04-26T07:41:53.087Z</time></trkpt><trkpt lat="45.7161845" lon="10.2709032"><ele>621.0</ele><time>2026-04-26T07:41:54.087Z</time></trkpt><trkpt lat="45.7161558" lon="10.2710192"><ele>624.0</ele><time>2026-04-26T07:41:55.087Z</time></trkpt><trkpt lat="45.716161" lon="10.2711373"><ele>627.0</ele><time>2026-04-26T07:41:56.086Z</time></trkpt><trkpt lat="45.7162123" lon="10.2712221"><ele>630.0</ele><time>2026-04-26T07:41:57.086Z</time></trkpt><trkpt lat="45.71629" lon="10.271255"><ele>630.0</ele><time>2026-04-26T07:41:58.087Z</time></trkpt><trkpt lat="45.7163618" lon="10.2712062"><ele>630.0</ele><time>2026-04-26T07:41:59.086Z</time></trkpt><trkpt lat="45.7164256" lon="10.27109"><ele>630.0</ele><time>2026-04-26T07:42:00.087Z</time></trkpt><trkpt lat="45.7165044" lon="10.2709303"><ele>630.0</ele><time>2026-04-26T07:42:01.087Z</time></trkpt><trkpt lat="45.7165868" lon="10.2707465"><ele>628.8</ele><time>2026-04-26T07:42:02.087Z</time></trkpt><trkpt lat="45.7166493" lon="10.2705754"><ele>627.6</ele><time>2026-04-26T07:42:03.086Z</time></trkpt><trkpt lat="45.7167128" lon="10.2704446"><ele>626.4</ele><time>2026-04-26T07:42:04.087Z</time></trkpt><trkpt lat="45.7167863" lon="10.2703668"><ele>625.2</ele><time>2026-04-26T07:42:05.087Z</time></trkpt><trkpt lat="45.7168636" lon="10.2703593"><ele>624.0</ele><time>2026-04-26T07:42:06.087Z</time></trkpt><trkpt lat="45.7169231" lon="10.2704109"><ele>624.0</ele><time>2026-04-26T07:42:07.087Z</time></trkpt><trkpt lat="45.7169452" lon="10.270509"><ele>624.0</ele><time>2026-04-26T07:42:08.087Z</time></trkpt><trkpt lat="45.716921" lon="10.2706461"><ele>624.0</ele><time>2026-04-26T07:42:09.087Z</time></trkpt><trkpt lat="45.7168492" lon="10.2708087"><ele>624.0</ele><time>2026-04-26T07:42:10.086Z</time></trkpt><trkpt lat="45.7167409" lon="10.2709902"><ele>626.0</ele><time>2026-04-26T07:42:11.087Z</time></trkpt><trkpt lat="45.7166213" lon="10.2711894"><ele>628.0</ele><time>2026-04-26T07:42:12.087Z</time></trkpt><trkpt lat="45.7165284" lon="10.2713925"><ele>630.0</ele><time>2026-04-26T07:42:13.087Z</time></trkpt><trkpt lat="45.7164676" lon="10.2716008"><ele>634.0</ele><time>2026-04-26T07:42:14.087Z</time></trkpt><trkpt lat="45.7164375" lon="10.2718144"><ele>638.0</ele><time>2026-04-26T07:42:15.087Z</time></trkpt><trkpt lat="45.7164535" lon="10.2720464"><ele>642.0</ele><time>2026-04-26T07:42:16.086Z</time></trkpt><trkpt lat="45.7164816" lon="10.2722581"><ele>642.75</ele><time>2026-04-26T07:42:17.087Z</time></trkpt><trkpt lat="45.7165123" lon="10.2724467"><ele>643.5</ele><time>2026-04-26T07:42:18.087Z</time></trkpt><trkpt lat="45.7165527" lon="10.2726137"><ele>644.25</ele><time>2026-04-26T07:42:19.087Z</time></trkpt><trkpt lat="45.7166011" lon="10.2727689"><ele>645.0</ele><time>2026-04-26T07:42:20.087Z</time></trkpt><trkpt lat="45.71666" lon="10.2729197"><ele>645.0</ele><time>2026-04-26T07:42:21.087Z</time></trkpt><trkpt lat="45.7167216" lon="10.2730675"><ele>645.0</ele><time>2026-04-26T07:42:22.087Z</time></trkpt><trkpt lat="45.7167843" lon="10.2732165"><ele>645.0</ele><time>2026-04-26T07:42:23.087Z</time></trkpt><trkpt lat="45.7168494" lon="10.2733777"><ele>645.0</ele><time>2026-04-26T07:42:24.087Z</time></trkpt><trkpt lat="45.7169154" lon="10.2735457"><ele>651.25</ele><time>2026-04-26T07:42:25.087Z</time></trkpt><trkpt lat="45.716986" lon="10.2737199"><ele>657.5</ele><time>2026-04-26T07:42:26.087Z</time></trkpt><trkpt lat="45.7170585" lon="10.2738981"><ele>663.75</ele><time>2026-04-26T07:42:27.087Z</time></trkpt><trkpt lat="45.7171239" lon="10.2740945"><ele>670.0</ele><time>2026-04-26T07:42:28.087Z</time></trkpt><trkpt lat="45.7171669" lon="10.2742804"><ele>670.0</ele><time>2026-04-26T07:42:29.087Z</time></trkpt><trkpt lat="45.7171893" lon="10.2744518"><ele>670.0</ele><time>2026-04-26T07:42:30.086Z</time></trkpt><trkpt lat="45.7171871" lon="10.2746138"><ele>670.0</ele><time>2026-04-26T07:42:31.087Z</time></trkpt><trkpt lat="45.717159" lon="10.2747746"><ele>670.0</ele><time>2026-04-26T07:42:32.086Z</time></trkpt><trkpt lat="45.7171343" lon="10.2749459"><ele>669.5</ele><time>2026-04-26T07:42:33.087Z</time></trkpt><trkpt lat="45.7170876" lon="10.2751245"><ele>669.0</ele><time>2026-04-26T07:42:34.087Z</time></trkpt><trkpt lat="45.7170181" lon="10.2753105"><ele>668.5</ele><time>2026-04-26T07:42:35.087Z</time></trkpt><trkpt lat="45.7169455" lon="10.2755027"><ele>668.0</ele><time>2026-04-26T07:42:36.087Z</time></trkpt><trkpt lat="45.7168784" lon="10.2756984"><ele>666.4</ele><time>2026-04-26T07:42:37.087Z</time></trkpt><trkpt lat="45.7168198" lon="10.2758777"><ele>664.8</ele><time>2026-04-26T07:42:38.086Z</time></trkpt><trkpt lat="45.7167649" lon="10.2760232"><ele>663.2</ele><time>2026-04-26T07:42:39.087Z</time></trkpt><trkpt lat="45.7167448" lon="10.2761637"><ele>661.6</ele><time>2026-04-26T07:42:40.087Z</time></trkpt><trkpt lat="45.7167656" lon="10.2762888"><ele>660.0</ele><time>2026-04-26T07:42:41.087Z</time></trkpt><trkpt lat="45.7168193" lon="10.2763819"><ele>663.25</ele><time>2026-04-26T07:42:42.087Z</time></trkpt><trkpt lat="45.7169038" lon="10.2764203"><ele>666.5</ele><time>2026-04-26T07:42:43.086Z</time></trkpt><trkpt lat="45.7169972" lon="10.2763876"><ele>669.75</ele><time>2026-04-26T07:42:44.087Z</time></trkpt><trkpt lat="45.7171016" lon="10.2762853"><ele>673.0</ele><time>2026-04-26T07:42:45.087Z</time></trkpt><trkpt lat="45.7172238" lon="10.2761645"><ele>673.0</ele><time>2026-04-26T07:42:46.087Z</time></trkpt><trkpt lat="45.7173591" lon="10.2760181"><ele>673.0</ele><time>2026-04-26T07:42:47.086Z</time></trkpt><trkpt lat="45.7175042" lon="10.275858"><ele>673.0</ele><time>2026-04-26T07:42:48.086Z</time></trkpt><trkpt lat="45.7176303" lon="10.2756849"><ele>671.3333333333334</ele><time>2026-04-26T07:42:49.087Z</time></trkpt><trkpt lat="45.7177301" lon="10.2754569"><ele>669.6666666666666</ele><time>2026-04-26T07:42:50.087Z</time></trkpt><trkpt lat="45.7178053" lon="10.2752175"><ele>668.0</ele><time>2026-04-26T07:42:51.087Z</time></trkpt><trkpt lat="45.7178573" lon="10.2750079"><ele>677.6666666666666</ele><time>2026-04-26T07:42:52.086Z</time></trkpt><trkpt lat="45.7178689" lon="10.2747854"><ele>687.3333333333334</ele><time>2026-04-26T07:42:53.086Z</time></trkpt><trkpt lat="45.7178232" lon="10.274533"><ele>697.0</ele><time>2026-04-26T07:42:54.086Z</time></trkpt><trkpt lat="45.717762" lon="10.2742727"><ele>689.0</ele><time>2026-04-26T07:42:55.087Z</time></trkpt><trkpt lat="45.7176967" lon="10.2740333"><ele>681.0</ele><time>2026-04-26T07:42:56.087Z</time></trkpt><trkpt lat="45.7176349" lon="10.2737878"><ele>673.0</ele><time>2026-04-26T07:42:57.087Z</time></trkpt><trkpt lat="45.7175835" lon="10.2735408"><ele>673.0</ele><time>2026-04-26T07:42:58.087Z</time></trkpt><trkpt lat="45.7175442" lon="10.2733122"><ele>673.0</ele><time>2026-04-26T07:42:59.087Z</time></trkpt><trkpt lat="45.7175094" lon="10.273099"><ele>673.0</ele><time>2026-04-26T07:43:00.087Z</time></trkpt><trkpt lat="45.7174804" lon="10.2729148"><ele>673.0</ele><time>2026-04-26T07:43:01.087Z</time></trkpt><trkpt lat="45.717467" lon="10.2727445"><ele>673.75</ele><time>2026-04-26T07:43:02.087Z</time></trkpt><trkpt lat="45.7174914" lon="10.2725887"><ele>674.5</ele><time>2026-04-26T07:43:03.087Z</time></trkpt><trkpt lat="45.7175489" lon="10.2724544"><ele>675.25</ele><time>2026-04-26T07:43:04.087Z</time></trkpt><trkpt lat="45.7176219" lon="10.2723251"><ele>676.0</ele><time>2026-04-26T07:43:05.087Z</time></trkpt><trkpt lat="45.7176982" lon="10.272194"><ele>677.1999999999999</ele><time>2026-04-26T07:43:06.086Z</time></trkpt><trkpt lat="45.7177665" lon="10.2720682"><ele>678.4</ele><time>2026-04-26T07:43:07.087Z</time></trkpt><trkpt lat="45.7178306" lon="10.2719699"><ele>679.6</ele><time>2026-04-26T07:43:08.087Z</time></trkpt><trkpt lat="45.7178921" lon="10.2719206"><ele>680.8</ele><time>2026-04-26T07:43:09.087Z</time></trkpt><trkpt lat="45.7179944" lon="10.2719733"><ele>682.0</ele><time>2026-04-26T07:43:11.086Z</time></trkpt><trkpt lat="45.7180033" lon="10.2720697"><ele>682.0</ele><time>2026-04-26T07:43:12.086Z</time></trkpt><trkpt lat="45.7179722" lon="10.2721538"><ele>682.0</ele><time>2026-04-26T07:43:13.087Z</time></trkpt><trkpt lat="45.7179065" lon="10.2722397"><ele>682.0</ele><time>2026-04-26T07:43:14.086Z</time></trkpt><trkpt lat="45.7178357" lon="10.272328"><ele>682.0</ele><time>2026-04-26T07:43:15.087Z</time></trkpt><trkpt lat="45.7177603" lon="10.2724612"><ele>682.0</ele><time>2026-04-26T07:43:16.087Z</time></trkpt><trkpt lat="45.7177079" lon="10.2726197"><ele>680.5</ele><time>2026-04-26T07:43:17.087Z</time></trkpt><trkpt lat="45.7176808" lon="10.2728132"><ele>679.0</ele><time>2026-04-26T07:43:18.087Z</time></trkpt><trkpt lat="45.7176932" lon="10.2730196"><ele>677.5</ele><time>2026-04-26T07:43:19.087Z</time></trkpt><trkpt lat="45.7177348" lon="10.2732492"><ele>676.0</ele><time>2026-04-26T07:43:20.087Z</time></trkpt><trkpt lat="45.717797" lon="10.2734774"><ele>686.6666666666667</ele><time>2026-04-26T07:43:21.087Z</time></trkpt><trkpt lat="45.7178822" lon="10.2737077"><ele>697.3333333333334</ele><time>2026-04-26T07:43:22.087Z</time></trkpt><trkpt lat="45.7179785" lon="10.2739335"><ele>708.0</ele><time>2026-04-26T07:43:23.087Z</time></trkpt><trkpt lat="45.7180723" lon="10.27414"><ele>708.0</ele><time>2026-04-26T07:43:24.086Z</time></trkpt><trkpt lat="45.7181556" lon="10.274315"><ele>708.0</ele><time>2026-04-26T07:43:25.087Z</time></trkpt><trkpt lat="45.7182525" lon="10.2744621"><ele>708.0</ele><time>2026-04-26T07:43:26.086Z</time></trkpt><trkpt lat="45.7183676" lon="10.2745697"><ele>708.0</ele><time>2026-04-26T07:43:27.087Z</time></trkpt><trkpt lat="45.7184868" lon="10.2746697"><ele>712.75</ele><time>2026-04-26T07:43:28.087Z</time></trkpt><trkpt lat="45.7185814" lon="10.2748055"><ele>717.5</ele><time>2026-04-26T07:43:29.086Z</time></trkpt><trkpt lat="45.7186479" lon="10.2749612"><ele>722.25</ele><time>2026-04-26T07:43:30.086Z</time></trkpt><trkpt lat="45.7186899" lon="10.2751361"><ele>727.0</ele><time>2026-04-26T07:43:31.087Z</time></trkpt><trkpt lat="45.7186829" lon="10.275319"><ele>727.0</ele><time>2026-04-26T07:43:32.087Z</time></trkpt><trkpt lat="45.7186606" lon="10.2755031"><ele>727.0</ele><time>2026-04-26T07:43:33.086Z</time></trkpt><trkpt lat="45.7186661" lon="10.2756792"><ele>727.0</ele><time>2026-04-26T07:43:34.087Z</time></trkpt><trkpt lat="45.7187131" lon="10.2758445"><ele>727.0</ele><time>2026-04-26T07:43:35.087Z</time></trkpt><trkpt lat="45.7187846" lon="10.2760084"><ele>725.5</ele><time>2026-04-26T07:43:36.086Z</time></trkpt><trkpt lat="45.7188506" lon="10.2761929"><ele>724.0</ele><time>2026-04-26T07:43:37.087Z</time></trkpt><trkpt lat="45.718913" lon="10.2763834"><ele>722.5</ele><time>2026-04-26T07:43:38.087Z</time></trkpt><trkpt lat="45.7189733" lon="10.2765729"><ele>721.0</ele><time>2026-04-26T07:43:39.087Z</time></trkpt><trkpt lat="45.7190291" lon="10.2767506"><ele>720.0</ele><time>2026-04-26T07:43:40.087Z</time></trkpt><trkpt lat="45.7190741" lon="10.2769155"><ele>719.0</ele><time>2026-04-26T07:43:41.087Z</time></trkpt><trkpt lat="45.7191237" lon="10.2770802"><ele>718.0</ele><time>2026-04-26T07:43:42.086Z</time></trkpt><trkpt lat="45.7191472" lon="10.277258"><ele>717.0</ele><time>2026-04-26T07:43:43.086Z</time></trkpt><trkpt lat="45.7191465" lon="10.2774418"><ele>717.0</ele><time>2026-04-26T07:43:44.087Z</time></trkpt><trkpt lat="45.7191217" lon="10.2776228"><ele>717.0</ele><time>2026-04-26T07:43:45.087Z</time></trkpt><trkpt lat="45.7190746" lon="10.2777766"><ele>717.0</ele><time>2026-04-26T07:43:46.086Z</time></trkpt><trkpt lat="45.7190216" lon="10.2779058"><ele>717.0</ele><time>2026-04-26T07:43:47.087Z</time></trkpt><trkpt lat="45.7189678" lon="10.2780124"><ele>717.0</ele><time>2026-04-26T07:43:48.087Z</time></trkpt><trkpt lat="45.7189255" lon="10.2781179"><ele>718.4000000000001</ele><time>2026-04-26T07:43:49.087Z</time></trkpt><trkpt lat="45.7188997" lon="10.2782298"><ele>719.8000000000001</ele><time>2026-04-26T07:43:50.087Z</time></trkpt><trkpt lat="45.7188749" lon="10.2783461"><ele>721.2</ele><time>2026-04-26T07:43:51.087Z</time></trkpt><trkpt lat="45.7188347" lon="10.2784608"><ele>722.6</ele><time>2026-04-26T07:43:52.087Z</time></trkpt><trkpt lat="45.7187783" lon="10.2785689"><ele>724.0</ele><time>2026-04-26T07:43:53.087Z</time></trkpt><trkpt lat="45.7187003" lon="10.2786745"><ele>724.0</ele><time>2026-04-26T07:43:54.087Z</time></trkpt><trkpt lat="45.7186296" lon="10.2787893"><ele>724.0</ele><time>2026-04-26T07:43:55.087Z</time></trkpt><trkpt lat="45.7185466" lon="10.2788994"><ele>724.0</ele><time>2026-04-26T07:43:56.087Z</time></trkpt><trkpt lat="45.7184598" lon="10.2789923"><ele>724.0</ele><time>2026-04-26T07:43:57.087Z</time></trkpt><trkpt lat="45.71836" lon="10.27908"><ele>724.0</ele><time>2026-04-26T07:43:58.087Z</time></trkpt><trkpt lat="45.7182506" lon="10.2791321"><ele>723.75</ele><time>2026-04-26T07:43:59.087Z</time></trkpt><trkpt lat="45.7181303" lon="10.2791827"><ele>723.5</ele><time>2026-04-26T07:44:00.087Z</time></trkpt><trkpt lat="45.7180034" lon="10.2792294"><ele>723.25</ele><time>2026-04-26T07:44:01.087Z</time></trkpt><trkpt lat="45.7178708" lon="10.2792752"><ele>723.0</ele><time>2026-04-26T07:44:02.086Z</time></trkpt><trkpt lat="45.7177313" lon="10.2793274"><ele>722.5</ele><time>2026-04-26T07:44:03.087Z</time></trkpt><trkpt lat="45.7175906" lon="10.279386"><ele>722.0</ele><time>2026-04-26T07:44:04.087Z</time></trkpt><trkpt lat="45.7174512" lon="10.2794445"><ele>721.5</ele><time>2026-04-26T07:44:05.086Z</time></trkpt><trkpt lat="45.7173076" lon="10.2794877"><ele>721.0</ele><time>2026-04-26T07:44:06.087Z</time></trkpt><trkpt lat="45.7171664" lon="10.2795158"><ele>721.0</ele><time>2026-04-26T07:44:07.087Z</time></trkpt><trkpt lat="45.7170277" lon="10.2795108"><ele>721.0</ele><time>2026-04-26T07:44:08.086Z</time></trkpt><trkpt lat="45.7168854" lon="10.2794849"><ele>721.0</ele><time>2026-04-26T07:44:09.087Z</time></trkpt><trkpt lat="45.7167407" lon="10.2794348"><ele>721.0</ele><time>2026-04-26T07:44:10.087Z</time></trkpt><trkpt lat="45.7165999" lon="10.2793496"><ele>723.0</ele><time>2026-04-26T07:44:11.087Z</time></trkpt><trkpt lat="45.7164577" lon="10.2792469"><ele>725.0</ele><time>2026-04-26T07:44:12.086Z</time></trkpt><trkpt lat="45.7163246" lon="10.2791287"><ele>727.0</ele><time>2026-04-26T07:44:13.087Z</time></trkpt><trkpt lat="45.7161882" lon="10.2790045"><ele>724.25</ele><time>2026-04-26T07:44:14.087Z</time></trkpt><trkpt lat="45.7160594" lon="10.2789013"><ele>721.5</ele><time>2026-04-26T07:44:15.086Z</time></trkpt><trkpt lat="45.7159425" lon="10.2788273"><ele>718.75</ele><time>2026-04-26T07:44:16.086Z</time></trkpt><trkpt lat="45.7158307" lon="10.2788025"><ele>716.0</ele><time>2026-04-26T07:44:17.087Z</time></trkpt><trkpt lat="45.7157141" lon="10.2788186"><ele>716.0</ele><time>2026-04-26T07:44:18.087Z</time></trkpt><trkpt lat="45.715612" lon="10.278894"><ele>716.0</ele><time>2026-04-26T07:44:19.086Z</time></trkpt><trkpt lat="45.7155277" lon="10.2790272"><ele>716.0</ele><time>2026-04-26T07:44:20.086Z</time></trkpt><trkpt lat="45.7154668" lon="10.2792166"><ele>716.0</ele><time>2026-04-26T07:44:21.087Z</time></trkpt><trkpt lat="45.715425" lon="10.2794432"><ele>721.3333333333333</ele><time>2026-04-26T07:44:22.087Z</time></trkpt><trkpt lat="45.7153651" lon="10.2796644"><ele>726.6666666666666</ele><time>2026-04-26T07:44:23.087Z</time></trkpt><trkpt lat="45.7152719" lon="10.2798777"><ele>732.0</ele><time>2026-04-26T07:44:24.087Z</time></trkpt><trkpt lat="45.7151544" lon="10.2800811"><ele>732.0</ele><time>2026-04-26T07:44:25.087Z</time></trkpt><trkpt lat="45.7150298" lon="10.2802786"><ele>732.0</ele><time>2026-04-26T07:44:26.086Z</time></trkpt><trkpt lat="45.7148995" lon="10.2804809"><ele>732.0</ele><time>2026-04-26T07:44:27.087Z</time></trkpt><trkpt lat="45.7147674" lon="10.2806814"><ele>734.0</ele><time>2026-04-26T07:44:28.087Z</time></trkpt><trkpt lat="45.7146431" lon="10.2808731"><ele>736.0</ele><time>2026-04-26T07:44:29.087Z</time></trkpt><trkpt lat="45.7145216" lon="10.2810638"><ele>738.0</ele><time>2026-04-26T07:44:30.087Z</time></trkpt><trkpt lat="45.7144166" lon="10.281253"><ele>734.75</ele><time>2026-04-26T07:44:31.087Z</time></trkpt><trkpt lat="45.7143337" lon="10.2814415"><ele>731.5</ele><time>2026-04-26T07:44:32.086Z</time></trkpt><trkpt lat="45.714283" lon="10.2816064"><ele>728.25</ele><time>2026-04-26T07:44:33.087Z</time></trkpt><trkpt lat="45.7142684" lon="10.2817765"><ele>725.0</ele><time>2026-04-26T07:44:34.087Z</time></trkpt><trkpt lat="45.7142986" lon="10.2819538"><ele>725.0</ele><time>2026-04-26T07:44:35.087Z</time></trkpt><trkpt lat="45.7143471" lon="10.2821347"><ele>725.0</ele><time>2026-04-26T07:44:36.087Z</time></trkpt><trkpt lat="45.714469" lon="10.282347"><ele>725.0</ele><time>2026-04-26T07:44:37.087Z</time></trkpt><trkpt lat="45.7145495" lon="10.2825669"><ele>731.6666666666666</ele><time>2026-04-26T07:44:38.087Z</time></trkpt><trkpt lat="45.7146211" lon="10.2828047"><ele>738.3333333333334</ele><time>2026-04-26T07:44:39.087Z</time></trkpt><trkpt lat="45.7146788" lon="10.2830394"><ele>745.0</ele><time>2026-04-26T07:44:40.086Z</time></trkpt><trkpt lat="45.7147251" lon="10.2832429"><ele>745.0</ele><time>2026-04-26T07:44:41.087Z</time></trkpt><trkpt lat="45.7147488" lon="10.2834294"><ele>745.0</ele><time>2026-04-26T07:44:42.087Z</time></trkpt><trkpt lat="45.714737" lon="10.2836079"><ele>745.0</ele><time>2026-04-26T07:44:43.086Z</time></trkpt><trkpt lat="45.7146716" lon="10.2837716"><ele>745.0</ele><time>2026-04-26T07:44:44.087Z</time></trkpt><trkpt lat="45.7145648" lon="10.2839346"><ele>745.0</ele><time>2026-04-26T07:44:45.087Z</time></trkpt><trkpt lat="45.7144361" lon="10.2840987"><ele>745.0</ele><time>2026-04-26T07:44:46.087Z</time></trkpt><trkpt lat="45.7142936" lon="10.284267"><ele>745.0</ele><time>2026-04-26T07:44:47.087Z</time></trkpt><trkpt lat="45.7141506" lon="10.284419"><ele>744.75</ele><time>2026-04-26T07:44:48.087Z</time></trkpt><trkpt lat="45.7140214" lon="10.2845672"><ele>744.5</ele><time>2026-04-26T07:44:49.087Z</time></trkpt><trkpt lat="45.7139093" lon="10.2847081"><ele>744.25</ele><time>2026-04-26T07:44:50.087Z</time></trkpt><trkpt lat="45.7138076" lon="10.2848328"><ele>744.0</ele><time>2026-04-26T07:44:51.087Z</time></trkpt><trkpt lat="45.7137196" lon="10.2849594"><ele>744.0</ele><time>2026-04-26T07:44:52.087Z</time></trkpt><trkpt lat="45.7136426" lon="10.2851129"><ele>744.0</ele><time>2026-04-26T07:44:53.086Z</time></trkpt><trkpt lat="45.7135676" lon="10.2852721"><ele>744.0</ele><time>2026-04-26T07:44:54.087Z</time></trkpt><trkpt lat="45.713506" lon="10.285427"><ele>744.0</ele><time>2026-04-26T07:44:55.086Z</time></trkpt><trkpt lat="45.7134457" lon="10.2855745"><ele>743.25</ele><time>2026-04-26T07:44:56.087Z</time></trkpt><trkpt lat="45.713367" lon="10.2856948"><ele>742.5</ele><time>2026-04-26T07:44:57.087Z</time></trkpt><trkpt lat="45.7132682" lon="10.285794"><ele>741.75</ele><time>2026-04-26T07:44:58.087Z</time></trkpt><trkpt lat="45.7131388" lon="10.2858628"><ele>741.0</ele><time>2026-04-26T07:44:59.087Z</time></trkpt><trkpt lat="45.7129746" lon="10.285904"><ele>741.0</ele><time>2026-04-26T07:45:00.086Z</time></trkpt><trkpt lat="45.7128" lon="10.285929"><ele>741.0</ele><time>2026-04-26T07:45:01.086Z</time></trkpt><trkpt lat="45.7126073" lon="10.2859568"><ele>741.0</ele><time>2026-04-26T07:45:02.087Z</time></trkpt><trkpt lat="45.7124109" lon="10.2859882"><ele>738.75</ele><time>2026-04-26T07:45:03.087Z</time></trkpt><trkpt lat="45.7122464" lon="10.2860135"><ele>736.5</ele><time>2026-04-26T07:45:04.087Z</time></trkpt><trkpt lat="45.7121065" lon="10.2860483"><ele>734.25</ele><time>2026-04-26T07:45:05.087Z</time></trkpt><trkpt lat="45.7119834" lon="10.2861252"><ele>732.0</ele><time>2026-04-26T07:45:06.087Z</time></trkpt><trkpt lat="45.7118766" lon="10.2862333"><ele>731.8</ele><time>2026-04-26T07:45:07.087Z</time></trkpt><trkpt lat="45.7118034" lon="10.2863709"><ele>731.6</ele><time>2026-04-26T07:45:08.087Z</time></trkpt><trkpt lat="45.7117756" lon="10.2865222"><ele>731.4</ele><time>2026-04-26T07:45:09.087Z</time></trkpt><trkpt lat="45.7118" lon="10.2866626"><ele>731.1999999999999</ele><time>2026-04-26T07:45:10.087Z</time></trkpt><trkpt lat="45.711866" lon="10.2867662"><ele>731.0</ele><time>2026-04-26T07:45:11.087Z</time></trkpt><trkpt lat="45.7119584" lon="10.286855"><ele>733.5</ele><time>2026-04-26T07:45:12.087Z</time></trkpt><trkpt lat="45.7120455" lon="10.2869761"><ele>736.0</ele><time>2026-04-26T07:45:13.087Z</time></trkpt><trkpt lat="45.7121067" lon="10.2871418"><ele>738.5</ele><time>2026-04-26T07:45:14.087Z</time></trkpt><trkpt lat="45.7121512" lon="10.2873428"><ele>741.0</ele><time>2026-04-26T07:45:15.087Z</time></trkpt><trkpt lat="45.7121918" lon="10.2875624"><ele>741.0</ele><time>2026-04-26T07:45:16.087Z</time></trkpt><trkpt lat="45.7122456" lon="10.2877788"><ele>741.0</ele><time>2026-04-26T07:45:17.087Z</time></trkpt><trkpt lat="45.7123097" lon="10.2879711"><ele>741.0</ele><time>2026-04-26T07:45:18.086Z</time></trkpt><trkpt lat="45.712376" lon="10.2881445"><ele>741.0</ele><time>2026-04-26T07:45:19.086Z</time></trkpt><trkpt lat="45.7124135" lon="10.2883107"><ele>739.8</ele><time>2026-04-26T07:45:20.087Z</time></trkpt><trkpt lat="45.7124127" lon="10.2884748"><ele>738.5999999999999</ele><time>2026-04-26T07:45:21.087Z</time></trkpt><trkpt lat="45.712379" lon="10.2886139"><ele>737.4</ele><time>2026-04-26T07:45:22.087Z</time></trkpt><trkpt lat="45.7123097" lon="10.2887207"><ele>736.2</ele><time>2026-04-26T07:45:23.087Z</time></trkpt><trkpt lat="45.7122154" lon="10.2887705"><ele>735.0</ele><time>2026-04-26T07:45:24.087Z</time></trkpt><trkpt lat="45.7120941" lon="10.2887751"><ele>735.0</ele><time>2026-04-26T07:45:25.087Z</time></trkpt><trkpt lat="45.7119624" lon="10.2887676"><ele>735.0</ele><time>2026-04-26T07:45:26.087Z</time></trkpt><trkpt lat="45.7118321" lon="10.2887682"><ele>735.0</ele><time>2026-04-26T07:45:27.087Z</time></trkpt><trkpt lat="45.711711" lon="10.2888049"><ele>735.0</ele><time>2026-04-26T07:45:28.087Z</time></trkpt><trkpt lat="45.7115952" lon="10.2888984"><ele>731.0</ele><time>2026-04-26T07:45:29.086Z</time></trkpt><trkpt lat="45.7114814" lon="10.2890343"><ele>727.0</ele><time>2026-04-26T07:45:30.087Z</time></trkpt><trkpt lat="45.7113623" lon="10.2891813"><ele>723.0</ele><time>2026-04-26T07:45:31.086Z</time></trkpt><trkpt lat="45.7112419" lon="10.2893314"><ele>723.0</ele><time>2026-04-26T07:45:32.087Z</time></trkpt><trkpt lat="45.7111326" lon="10.2894731"><ele>723.0</ele><time>2026-04-26T07:45:33.087Z</time></trkpt><trkpt lat="45.7110402" lon="10.2896203"><ele>723.0</ele><time>2026-04-26T07:45:34.087Z</time></trkpt><trkpt lat="45.7109767" lon="10.2897943"><ele>723.0</ele><time>2026-04-26T07:45:35.087Z</time></trkpt><trkpt lat="45.7109568" lon="10.28999"><ele>720.0</ele><time>2026-04-26T07:45:36.087Z</time></trkpt><trkpt lat="45.7109668" lon="10.2902038"><ele>717.0</ele><time>2026-04-26T07:45:37.087Z</time></trkpt><trkpt lat="45.7109447" lon="10.2904412"><ele>714.0</ele><time>2026-04-26T07:45:38.087Z</time></trkpt><trkpt lat="45.7108928" lon="10.2906888"><ele>714.0</ele><time>2026-04-26T07:45:39.087Z</time></trkpt><trkpt lat="45.7108178" lon="10.290942"><ele>714.0</ele><time>2026-04-26T07:45:40.087Z</time></trkpt><trkpt lat="45.7107332" lon="10.291183"><ele>714.0</ele><time>2026-04-26T07:45:41.087Z</time></trkpt><trkpt lat="45.7106454" lon="10.2914073"><ele>720.0</ele><time>2026-04-26T07:45:42.086Z</time></trkpt><trkpt lat="45.7105504" lon="10.2916118"><ele>726.0</ele><time>2026-04-26T07:45:43.087Z</time></trkpt><trkpt lat="45.7104415" lon="10.2917772"><ele>732.0</ele><time>2026-04-26T07:45:44.086Z</time></trkpt><trkpt lat="45.7103098" lon="10.2918959"><ele>724.0</ele><time>2026-04-26T07:45:45.087Z</time></trkpt><trkpt lat="45.7101602" lon="10.2919865"><ele>716.0</ele><time>2026-04-26T07:45:46.087Z</time></trkpt><trkpt lat="45.7100159" lon="10.2920807"><ele>708.0</ele><time>2026-04-26T07:45:47.086Z</time></trkpt><trkpt lat="45.7098758" lon="10.2922161"><ele>712.3333333333334</ele><time>2026-04-26T07:45:48.086Z</time></trkpt><trkpt lat="45.7097459" lon="10.2923597"><ele>716.6666666666667</ele><time>2026-04-26T07:45:49.087Z</time></trkpt><trkpt lat="45.7096328" lon="10.2925087"><ele>721.0</ele><time>2026-04-26T07:45:50.086Z</time></trkpt><trkpt lat="45.7095436" lon="10.2926871"><ele>721.0</ele><time>2026-04-26T07:45:51.087Z</time></trkpt><trkpt lat="45.7094673" lon="10.2928899"><ele>721.0</ele><time>2026-04-26T07:45:52.087Z</time></trkpt><trkpt lat="45.7093868" lon="10.293109"><ele>721.0</ele><time>2026-04-26T07:45:53.086Z</time></trkpt><trkpt lat="45.7093252" lon="10.293353"><ele>717.6666666666667</ele><time>2026-04-26T07:45:54.087Z</time></trkpt><trkpt lat="45.7092722" lon="10.2936019"><ele>714.3333333333334</ele><time>2026-04-26T07:45:55.086Z</time></trkpt><trkpt lat="45.7092175" lon="10.2938283"><ele>711.0</ele><time>2026-04-26T07:45:56.087Z</time></trkpt><trkpt lat="45.7091771" lon="10.2940273"><ele>711.0</ele><time>2026-04-26T07:45:57.087Z</time></trkpt><trkpt lat="45.7091537" lon="10.2942075"><ele>711.0</ele><time>2026-04-26T07:45:58.087Z</time></trkpt><trkpt lat="45.7091651" lon="10.2943855"><ele>711.0</ele><time>2026-04-26T07:45:59.087Z</time></trkpt><trkpt lat="45.709201" lon="10.2945609"><ele>711.0</ele><time>2026-04-26T07:46:00.087Z</time></trkpt><trkpt lat="45.7092667" lon="10.2947273"><ele>709.0</ele><time>2026-04-26T07:46:01.087Z</time></trkpt><trkpt lat="45.7093209" lon="10.294897"><ele>707.0</ele><time>2026-04-26T07:46:02.087Z</time></trkpt><trkpt lat="45.7093423" lon="10.2950595"><ele>705.0</ele><time>2026-04-26T07:46:03.087Z</time></trkpt><trkpt lat="45.7093352" lon="10.2952187"><ele>703.0</ele><time>2026-04-26T07:46:04.087Z</time></trkpt><trkpt lat="45.7092944" lon="10.2953672"><ele>703.0</ele><time>2026-04-26T07:46:05.087Z</time></trkpt><trkpt lat="45.7092199" lon="10.2954956"><ele>703.0</ele><time>2026-04-26T07:46:06.086Z</time></trkpt><trkpt lat="45.709123" lon="10.2955852"><ele>703.0</ele><time>2026-04-26T07:46:07.087Z</time></trkpt><trkpt lat="45.7090095" lon="10.2956437"><ele>703.0</ele><time>2026-04-26T07:46:08.087Z</time></trkpt><trkpt lat="45.7088738" lon="10.2956622"><ele>702.0</ele><time>2026-04-26T07:46:09.086Z</time></trkpt><trkpt lat="45.7087312" lon="10.2956503"><ele>701.0</ele><time>2026-04-26T07:46:10.086Z</time></trkpt><trkpt lat="45.7085957" lon="10.2956596"><ele>700.0</ele><time>2026-04-26T07:46:11.087Z</time></trkpt><trkpt lat="45.7084618" lon="10.2956951"><ele>699.0</ele><time>2026-04-26T07:46:12.087Z</time></trkpt><trkpt lat="45.7083407" lon="10.2957804"><ele>699.0</ele><time>2026-04-26T07:46:13.087Z</time></trkpt><trkpt lat="45.7082278" lon="10.2959225"><ele>699.0</ele><time>2026-04-26T07:46:14.087Z</time></trkpt><trkpt lat="45.7081204" lon="10.2960482"><ele>699.0</ele><time>2026-04-26T07:46:15.087Z</time></trkpt><trkpt lat="45.7080331" lon="10.2962045"><ele>699.0</ele><time>2026-04-26T07:46:16.087Z</time></trkpt><trkpt lat="45.7079828" lon="10.2963747"><ele>701.75</ele><time>2026-04-26T07:46:17.086Z</time></trkpt><trkpt lat="45.7079572" lon="10.2965505"><ele>704.5</ele><time>2026-04-26T07:46:18.087Z</time></trkpt><trkpt lat="45.7079674" lon="10.2967409"><ele>707.25</ele><time>2026-04-26T07:46:19.087Z</time></trkpt><trkpt lat="45.7079776" lon="10.2969298"><ele>710.0</ele><time>2026-04-26T07:46:20.086Z</time></trkpt><trkpt lat="45.7079548" lon="10.297087"><ele>710.0</ele><time>2026-04-26T07:46:21.086Z</time></trkpt><trkpt lat="45.7079081" lon="10.2972137"><ele>710.0</ele><time>2026-04-26T07:46:22.087Z</time></trkpt><trkpt lat="45.7078227" lon="10.2972785"><ele>710.0</ele><time>2026-04-26T07:46:23.087Z</time></trkpt><trkpt lat="45.7077228" lon="10.2972869"><ele>710.0</ele><time>2026-04-26T07:46:24.087Z</time></trkpt><trkpt lat="45.7076053" lon="10.2972626"><ele>710.0</ele><time>2026-04-26T07:46:25.087Z</time></trkpt><trkpt lat="45.7074819" lon="10.297279"><ele>707.75</ele><time>2026-04-26T07:46:26.087Z</time></trkpt><trkpt lat="45.7073825" lon="10.2973543"><ele>705.5</ele><time>2026-04-26T07:46:27.086Z</time></trkpt><trkpt lat="45.7072963" lon="10.2974898"><ele>703.25</ele><time>2026-04-26T07:46:28.087Z</time></trkpt><trkpt lat="45.7072178" lon="10.2976608"><ele>701.0</ele><time>2026-04-26T07:46:29.086Z</time></trkpt><trkpt lat="45.7071289" lon="10.297812"><ele>701.0</ele><time>2026-04-26T07:46:30.087Z</time></trkpt><trkpt lat="45.707037" lon="10.2979482"><ele>701.0</ele><time>2026-04-26T07:46:31.087Z</time></trkpt><trkpt lat="45.7069347" lon="10.2980441"><ele>701.0</ele><time>2026-04-26T07:46:32.087Z</time></trkpt><trkpt lat="45.7068088" lon="10.2981084"><ele>701.0</ele><time>2026-04-26T07:46:33.087Z</time></trkpt><trkpt lat="45.7066719" lon="10.2981508"><ele>699.25</ele><time>2026-04-26T07:46:34.087Z</time></trkpt><trkpt lat="45.7065428" lon="10.2982092"><ele>697.5</ele><time>2026-04-26T07:46:35.087Z</time></trkpt><trkpt lat="45.7064351" lon="10.2983002"><ele>695.75</ele><time>2026-04-26T07:46:36.087Z</time></trkpt><trkpt lat="45.7063458" lon="10.2984393"><ele>694.0</ele><time>2026-04-26T07:46:37.087Z</time></trkpt><trkpt lat="45.7062744" lon="10.2986267"><ele>694.0</ele><time>2026-04-26T07:46:38.087Z</time></trkpt><trkpt lat="45.7062144" lon="10.298819"><ele>694.0</ele><time>2026-04-26T07:46:39.087Z</time></trkpt><trkpt lat="45.7061564" lon="10.2990144"><ele>694.0</ele><time>2026-04-26T07:46:40.087Z</time></trkpt><trkpt lat="45.7061197" lon="10.2992037"><ele>694.0</ele><time>2026-04-26T07:46:41.087Z</time></trkpt><trkpt lat="45.7061133" lon="10.2993963"><ele>695.25</ele><time>2026-04-26T07:46:42.087Z</time></trkpt><trkpt lat="45.7061584" lon="10.2995816"><ele>696.5</ele><time>2026-04-26T07:46:43.086Z</time></trkpt><trkpt lat="45.706237" lon="10.2997393"><ele>697.75</ele><time>2026-04-26T07:46:44.087Z</time></trkpt><trkpt lat="45.7063445" lon="10.299853"><ele>699.0</ele><time>2026-04-26T07:46:45.087Z</time></trkpt><trkpt lat="45.7064761" lon="10.2999172"><ele>698.75</ele><time>2026-04-26T07:46:46.086Z</time></trkpt><trkpt lat="45.7066267" lon="10.2999436"><ele>698.5</ele><time>2026-04-26T07:46:47.087Z</time></trkpt><trkpt lat="45.7067767" lon="10.2999596"><ele>698.25</ele><time>2026-04-26T07:46:48.087Z</time></trkpt><trkpt lat="45.7069184" lon="10.2999803"><ele>698.0</ele><time>2026-04-26T07:46:49.086Z</time></trkpt><trkpt lat="45.7070588" lon="10.3000312"><ele>698.0</ele><time>2026-04-26T07:46:50.087Z</time></trkpt><trkpt lat="45.707189" lon="10.3001218"><ele>698.0</ele><time>2026-04-26T07:46:51.086Z</time></trkpt><trkpt lat="45.7072811" lon="10.3002599"><ele>698.0</ele><time>2026-04-26T07:46:52.087Z</time></trkpt><trkpt lat="45.7073429" lon="10.3004241"><ele>698.0</ele><time>2026-04-26T07:46:53.086Z</time></trkpt><trkpt lat="45.7073771" lon="10.3006266"><ele>695.6666666666666</ele><time>2026-04-26T07:46:54.086Z</time></trkpt><trkpt lat="45.7073838" lon="10.3008629"><ele>693.3333333333334</ele><time>2026-04-26T07:46:55.087Z</time></trkpt><trkpt lat="45.7073711" lon="10.301114"><ele>691.0</ele><time>2026-04-26T07:46:56.087Z</time></trkpt><trkpt lat="45.7073685" lon="10.3013796"><ele>690.6666666666667</ele><time>2026-04-26T07:46:57.087Z</time></trkpt><trkpt lat="45.7073656" lon="10.3016482"><ele>690.3333333333334</ele><time>2026-04-26T07:46:58.087Z</time></trkpt><trkpt lat="45.7073619" lon="10.3019087"><ele>690.0</ele><time>2026-04-26T07:46:59.087Z</time></trkpt><trkpt lat="45.7073562" lon="10.3021571"><ele>691.0</ele><time>2026-04-26T07:47:00.087Z</time></trkpt><trkpt lat="45.7073439" lon="10.3023747"><ele>692.0</ele><time>2026-04-26T07:47:01.087Z</time></trkpt><trkpt lat="45.7073083" lon="10.3025626"><ele>693.0</ele><time>2026-04-26T07:47:02.087Z</time></trkpt><trkpt lat="45.7072449" lon="10.3027177"><ele>694.0</ele><time>2026-04-26T07:47:03.087Z</time></trkpt><trkpt lat="45.7071472" lon="10.3028236"><ele>694.0</ele><time>2026-04-26T07:47:04.087Z</time></trkpt><trkpt lat="45.7070143" lon="10.3028779"><ele>694.0</ele><time>2026-04-26T07:47:05.087Z</time></trkpt><trkpt lat="45.7068654" lon="10.302892"><ele>694.0</ele><time>2026-04-26T07:47:06.087Z</time></trkpt><trkpt lat="45.7067089" lon="10.3029345"><ele>694.0</ele><time>2026-04-26T07:47:07.087Z</time></trkpt><trkpt lat="45.7065338" lon="10.3030285"><ele>693.0</ele><time>2026-04-26T07:47:08.086Z</time></trkpt><trkpt lat="45.7063442" lon="10.303148"><ele>692.0</ele><time>2026-04-26T07:47:09.087Z</time></trkpt><trkpt lat="45.7061446" lon="10.3032787"><ele>691.0</ele><time>2026-04-26T07:47:10.087Z</time></trkpt><trkpt lat="45.7059508" lon="10.3034374"><ele>685.3333333333334</ele><time>2026-04-26T07:47:11.087Z</time></trkpt><trkpt lat="45.7057723" lon="10.3035982"><ele>679.6666666666666</ele><time>2026-04-26T07:47:12.087Z</time></trkpt><trkpt lat="45.7056078" lon="10.3037435"><ele>674.0</ele><time>2026-04-26T07:47:13.087Z</time></trkpt><trkpt lat="45.705473" lon="10.3038706"><ele>677.5</ele><time>2026-04-26T07:47:14.086Z</time></trkpt><trkpt lat="45.7053665" lon="10.3039781"><ele>681.0</ele><time>2026-04-26T07:47:15.087Z</time></trkpt><trkpt lat="45.7052938" lon="10.3040978"><ele>684.5</ele><time>2026-04-26T07:47:16.087Z</time></trkpt><trkpt lat="45.7052635" lon="10.3042431"><ele>688.0</ele><time>2026-04-26T07:47:17.087Z</time></trkpt><trkpt lat="45.7052738" lon="10.3043918"><ele>688.0</ele><time>2026-04-26T07:47:18.087Z</time></trkpt><trkpt lat="45.7053567" lon="10.3045148"><ele>688.0</ele><time>2026-04-26T07:47:19.087Z</time></trkpt><trkpt lat="45.7054383" lon="10.3046317"><ele>688.0</ele><time>2026-04-26T07:47:20.087Z</time></trkpt><trkpt lat="45.7055226" lon="10.3047429"><ele>688.0</ele><time>2026-04-26T07:47:21.087Z</time></trkpt><trkpt lat="45.7055589" lon="10.3048774"><ele>687.25</ele><time>2026-04-26T07:47:22.087Z</time></trkpt><trkpt lat="45.7055535" lon="10.3050237"><ele>686.5</ele><time>2026-04-26T07:47:23.086Z</time></trkpt><trkpt lat="45.705497" lon="10.3051521"><ele>685.75</ele><time>2026-04-26T07:47:24.087Z</time></trkpt><trkpt lat="45.7053963" lon="10.3052425"><ele>685.0</ele><time>2026-04-26T07:47:25.087Z</time></trkpt><trkpt lat="45.7052567" lon="10.3053074"><ele>678.0</ele><time>2026-04-26T07:47:26.087Z</time></trkpt><trkpt lat="45.7050828" lon="10.3053409"><ele>671.0</ele><time>2026-04-26T07:47:27.086Z</time></trkpt><trkpt lat="45.7049016" lon="10.305375"><ele>664.0</ele><time>2026-04-26T07:47:28.086Z</time></trkpt><trkpt lat="45.7047454" lon="10.3054043"><ele>664.0</ele><time>2026-04-26T07:47:29.087Z</time></trkpt><trkpt lat="45.7046113" lon="10.3054408"><ele>664.0</ele><time>2026-04-26T07:47:30.087Z</time></trkpt><trkpt lat="45.7044946" lon="10.3055037"><ele>664.0</ele><time>2026-04-26T07:47:31.086Z</time></trkpt><trkpt lat="45.7044036" lon="10.3056247"><ele>664.0</ele><time>2026-04-26T07:47:32.087Z</time></trkpt><trkpt lat="45.7043428" lon="10.3058101"><ele>663.25</ele><time>2026-04-26T07:47:33.086Z</time></trkpt><trkpt lat="45.7043001" lon="10.3060202"><ele>662.5</ele><time>2026-04-26T07:47:34.086Z</time></trkpt><trkpt lat="45.7042828" lon="10.3062007"><ele>661.75</ele><time>2026-04-26T07:47:35.087Z</time></trkpt><trkpt lat="45.7042865" lon="10.3063899"><ele>661.0</ele><time>2026-04-26T07:47:36.087Z</time></trkpt><trkpt lat="45.7043673" lon="10.3065669"><ele>664.75</ele><time>2026-04-26T07:47:37.086Z</time></trkpt><trkpt lat="45.7044347" lon="10.3067535"><ele>668.5</ele><time>2026-04-26T07:47:38.087Z</time></trkpt><trkpt lat="45.7045225" lon="10.3068977"><ele>672.25</ele><time>2026-04-26T07:47:39.086Z</time></trkpt><trkpt lat="45.7046176" lon="10.3069906"><ele>676.0</ele><time>2026-04-26T07:47:40.087Z</time></trkpt><trkpt lat="45.7047146" lon="10.3070636"><ele>676.0</ele><time>2026-04-26T07:47:41.087Z</time></trkpt><trkpt lat="45.7047844" lon="10.3071483"><ele>676.0</ele><time>2026-04-26T07:47:42.086Z</time></trkpt><trkpt lat="45.7048166" lon="10.307256"><ele>676.0</ele><time>2026-04-26T07:47:43.087Z</time></trkpt><trkpt lat="45.7047949" lon="10.3073625"><ele>676.0</ele><time>2026-04-26T07:47:44.087Z</time></trkpt><trkpt lat="45.7047332" lon="10.3074674"><ele>676.0</ele><time>2026-04-26T07:47:45.087Z</time></trkpt><trkpt lat="45.7046393" lon="10.3075701"><ele>676.5</ele><time>2026-04-26T07:47:46.087Z</time></trkpt><trkpt lat="45.7045626" lon="10.3077028"><ele>677.0</ele><time>2026-04-26T07:47:47.087Z</time></trkpt><trkpt lat="45.7045117" lon="10.3078881"><ele>677.5</ele><time>2026-04-26T07:47:48.087Z</time></trkpt><trkpt lat="45.7044796" lon="10.3081075"><ele>678.0</ele><time>2026-04-26T07:47:49.087Z</time></trkpt><trkpt lat="45.7044545" lon="10.3083469"><ele>672.3333333333334</ele><time>2026-04-26T07:47:50.087Z</time></trkpt><trkpt lat="45.7044003" lon="10.3085978"><ele>666.6666666666667</ele><time>2026-04-26T07:47:51.087Z</time></trkpt><trkpt lat="45.7043182" lon="10.3088575"><ele>661.0</ele><time>2026-04-26T07:47:52.086Z</time></trkpt><trkpt lat="45.7042353" lon="10.3091246"><ele>661.0</ele><time>2026-04-26T07:47:53.087Z</time></trkpt><trkpt lat="45.704152" lon="10.3093728"><ele>661.0</ele><time>2026-04-26T07:47:54.087Z</time></trkpt><trkpt lat="45.7040606" lon="10.3096001"><ele>661.0</ele><time>2026-04-26T07:47:55.086Z</time></trkpt><trkpt lat="45.7039755" lon="10.3097977"><ele>663.5</ele><time>2026-04-26T07:47:56.086Z</time></trkpt><trkpt lat="45.7039518" lon="10.3099794"><ele>666.0</ele><time>2026-04-26T07:47:57.087Z</time></trkpt><trkpt lat="45.7039407" lon="10.3101473"><ele>668.5</ele><time>2026-04-26T07:47:58.086Z</time></trkpt><trkpt lat="45.703898" lon="10.3102962"><ele>671.0</ele><time>2026-04-26T07:47:59.087Z</time></trkpt><trkpt lat="45.7038122" lon="10.3104201"><ele>671.0</ele><time>2026-04-26T07:48:00.087Z</time></trkpt><trkpt lat="45.7037121" lon="10.310537"><ele>671.0</ele><time>2026-04-26T07:48:01.087Z</time></trkpt><trkpt lat="45.7035959" lon="10.3106589"><ele>671.0</ele><time>2026-04-26T07:48:02.087Z</time></trkpt><trkpt lat="45.7034892" lon="10.3107721"><ele>671.0</ele><time>2026-04-26T07:48:03.086Z</time></trkpt><trkpt lat="45.7034116" lon="10.3108843"><ele>663.0</ele><time>2026-04-26T07:48:04.086Z</time></trkpt><trkpt lat="45.7033615" lon="10.3110175"><ele>655.0</ele><time>2026-04-26T07:48:05.087Z</time></trkpt><trkpt lat="45.7033247" lon="10.3111561"><ele>647.0</ele><time>2026-04-26T07:48:06.087Z</time></trkpt><trkpt lat="45.703389" lon="10.3113473"><ele>639.0</ele><time>2026-04-26T07:48:07.087Z</time></trkpt><trkpt lat="45.703431" lon="10.3115608"><ele>639.0</ele><time>2026-04-26T07:48:08.086Z</time></trkpt><trkpt lat="45.703477" lon="10.3117782"><ele>639.0</ele><time>2026-04-26T07:48:09.086Z</time></trkpt><trkpt lat="45.7035316" lon="10.3119914"><ele>639.0</ele><time>2026-04-26T07:48:10.087Z</time></trkpt><trkpt lat="45.7036124" lon="10.3121916"><ele>648.3333333333334</ele><time>2026-04-26T07:48:11.087Z</time></trkpt><trkpt lat="45.7037243" lon="10.312368"><ele>657.6666666666667</ele><time>2026-04-26T07:48:12.087Z</time></trkpt><trkpt lat="45.703844" lon="10.3125267"><ele>667.0</ele><time>2026-04-26T07:48:13.087Z</time></trkpt><trkpt lat="45.7039556" lon="10.3126887"><ele>667.0</ele><time>2026-04-26T07:48:14.087Z</time></trkpt><trkpt lat="45.7040508" lon="10.3128541"><ele>667.0</ele><time>2026-04-26T07:48:15.087Z</time></trkpt><trkpt lat="45.7041337" lon="10.3130195"><ele>667.0</ele><time>2026-04-26T07:48:16.087Z</time></trkpt><trkpt lat="45.7041976" lon="10.3131776"><ele>667.0</ele><time>2026-04-26T07:48:17.087Z</time></trkpt><trkpt lat="45.7042211" lon="10.3133562"><ele>664.5</ele><time>2026-04-26T07:48:18.087Z</time></trkpt><trkpt lat="45.7042015" lon="10.3135393"><ele>662.0</ele><time>2026-04-26T07:48:19.086Z</time></trkpt><trkpt lat="45.7041481" lon="10.3137265"><ele>659.5</ele><time>2026-04-26T07:48:20.087Z</time></trkpt><trkpt lat="45.7040645" lon="10.3139024"><ele>657.0</ele><time>2026-04-26T07:48:21.086Z</time></trkpt><trkpt lat="45.7039486" lon="10.3140448"><ele>657.0</ele><time>2026-04-26T07:48:22.087Z</time></trkpt><trkpt lat="45.7038102" lon="10.3141545"><ele>657.0</ele><time>2026-04-26T07:48:23.086Z</time></trkpt><trkpt lat="45.7036551" lon="10.3142518"><ele>657.0</ele><time>2026-04-26T07:48:24.087Z</time></trkpt><trkpt lat="45.7034927" lon="10.3143362"><ele>649.5</ele><time>2026-04-26T07:48:25.087Z</time></trkpt><trkpt lat="45.7033364" lon="10.3143972"><ele>642.0</ele><time>2026-04-26T07:48:26.087Z</time></trkpt><trkpt lat="45.7032024" lon="10.3144587"><ele>634.5</ele><time>2026-04-26T07:48:27.087Z</time></trkpt><trkpt lat="45.7030898" lon="10.3145547"><ele>627.0</ele><time>2026-04-26T07:48:28.087Z</time></trkpt><trkpt lat="45.7029983" lon="10.3146838"><ele>631.5</ele><time>2026-04-26T07:48:29.087Z</time></trkpt><trkpt lat="45.7029408" lon="10.3148403"><ele>636.0</ele><time>2026-04-26T07:48:30.087Z</time></trkpt><trkpt lat="45.7029076" lon="10.3150147"><ele>640.5</ele><time>2026-04-26T07:48:31.086Z</time></trkpt><trkpt lat="45.7029172" lon="10.3152068"><ele>645.0</ele><time>2026-04-26T07:48:32.087Z</time></trkpt><trkpt lat="45.7030025" lon="10.315395"><ele>644.5</ele><time>2026-04-26T07:48:33.087Z</time></trkpt><trkpt lat="45.7030765" lon="10.3156008"><ele>644.0</ele><time>2026-04-26T07:48:34.087Z</time></trkpt><trkpt lat="45.7031351" lon="10.3158132"><ele>643.5</ele><time>2026-04-26T07:48:35.086Z</time></trkpt><trkpt lat="45.7031765" lon="10.3159848"><ele>643.0</ele><time>2026-04-26T07:48:36.087Z</time></trkpt><trkpt lat="45.703207" lon="10.3161256"><ele>643.0</ele><time>2026-04-26T07:48:37.087Z</time></trkpt><trkpt lat="45.7032003" lon="10.3162584"><ele>643.0</ele><time>2026-04-26T07:48:38.087Z</time></trkpt><trkpt lat="45.7031622" lon="10.3163775"><ele>643.0</ele><time>2026-04-26T07:48:39.087Z</time></trkpt><trkpt lat="45.7030796" lon="10.3164627"><ele>643.0</ele><time>2026-04-26T07:48:40.087Z</time></trkpt><trkpt lat="45.7029731" lon="10.3165346"><ele>643.0</ele><time>2026-04-26T07:48:41.087Z</time></trkpt><trkpt lat="45.7028684" lon="10.3165931"><ele>643.2</ele><time>2026-04-26T07:48:42.087Z</time></trkpt><trkpt lat="45.70278" lon="10.3166779"><ele>643.4</ele><time>2026-04-26T07:48:43.087Z</time></trkpt><trkpt lat="45.7027179" lon="10.3168068"><ele>643.6</ele><time>2026-04-26T07:48:44.086Z</time></trkpt><trkpt lat="45.7027017" lon="10.3169713"><ele>643.8000000000001</ele><time>2026-04-26T07:48:45.087Z</time></trkpt><trkpt lat="45.7027029" lon="10.3171272"><ele>644.0</ele><time>2026-04-26T07:48:46.086Z</time></trkpt><trkpt lat="45.7026861" lon="10.3172721"><ele>640.2</ele><time>2026-04-26T07:48:47.087Z</time></trkpt><trkpt lat="45.7026427" lon="10.3173735"><ele>636.4000000000001</ele><time>2026-04-26T07:48:48.087Z</time></trkpt><trkpt lat="45.7025718" lon="10.3174469"><ele>632.6</ele><time>2026-04-26T07:48:49.086Z</time></trkpt><trkpt lat="45.7024769" lon="10.3174724"><ele>628.8</ele><time>2026-04-26T07:48:50.087Z</time></trkpt><trkpt lat="45.7023705" lon="10.3174249"><ele>625.0</ele><time>2026-04-26T07:48:51.087Z</time></trkpt><trkpt lat="45.7022695" lon="10.317327"><ele>621.6</ele><time>2026-04-26T07:48:52.087Z</time></trkpt><trkpt lat="45.702165" lon="10.3172249"><ele>618.2</ele><time>2026-04-26T07:48:53.087Z</time></trkpt><trkpt lat="45.7020706" lon="10.3171499"><ele>614.8</ele><time>2026-04-26T07:48:54.087Z</time></trkpt><trkpt lat="45.7019748" lon="10.3171031"><ele>611.4</ele><time>2026-04-26T07:48:55.087Z</time></trkpt><trkpt lat="45.701879" lon="10.3170713"><ele>608.0</ele><time>2026-04-26T07:48:56.087Z</time></trkpt><trkpt lat="45.7017816" lon="10.317191"><ele>608.75</ele><time>2026-04-26T07:48:57.087Z</time></trkpt><trkpt lat="45.701704" lon="10.317312"><ele>609.5</ele><time>2026-04-26T07:48:58.086Z</time></trkpt><trkpt lat="45.7016289" lon="10.3174676"><ele>610.25</ele><time>2026-04-26T07:48:59.087Z</time></trkpt><trkpt lat="45.7015472" lon="10.3176406"><ele>611.0</ele><time>2026-04-26T07:49:00.087Z</time></trkpt><trkpt lat="45.7014635" lon="10.3178041"><ele>611.0</ele><time>2026-04-26T07:49:01.086Z</time></trkpt><trkpt lat="45.7013879" lon="10.3179752"><ele>611.0</ele><time>2026-04-26T07:49:02.087Z</time></trkpt><trkpt lat="45.7013095" lon="10.3181363"><ele>611.0</ele><time>2026-04-26T07:49:03.087Z</time></trkpt><trkpt lat="45.7012285" lon="10.3182936"><ele>611.0</ele><time>2026-04-26T07:49:04.087Z</time></trkpt><trkpt lat="45.7011403" lon="10.318432"><ele>608.0</ele><time>2026-04-26T07:49:05.087Z</time></trkpt><trkpt lat="45.7010505" lon="10.3185655"><ele>605.0</ele><time>2026-04-26T07:49:06.087Z</time></trkpt><trkpt lat="45.7009618" lon="10.3186992"><ele>602.0</ele><time>2026-04-26T07:49:07.087Z</time></trkpt><trkpt lat="45.7008721" lon="10.3188296"><ele>599.0</ele><time>2026-04-26T07:49:08.087Z</time></trkpt><trkpt lat="45.7007877" lon="10.3189618"><ele>599.0</ele><time>2026-04-26T07:49:09.087Z</time></trkpt><trkpt lat="45.7007128" lon="10.3190989"><ele>599.0</ele><time>2026-04-26T07:49:10.087Z</time></trkpt><trkpt lat="45.7006613" lon="10.3192605"><ele>599.0</ele><time>2026-04-26T07:49:11.087Z</time></trkpt><trkpt lat="45.7006338" lon="10.3194195"><ele>599.0</ele><time>2026-04-26T07:49:12.086Z</time></trkpt><trkpt lat="45.7006237" lon="10.3195925"><ele>597.25</ele><time>2026-04-26T07:49:13.087Z</time></trkpt><trkpt lat="45.700643" lon="10.3197689"><ele>595.5</ele><time>2026-04-26T07:49:14.086Z</time></trkpt><trkpt lat="45.7006962" lon="10.3199295"><ele>593.75</ele><time>2026-04-26T07:49:15.086Z</time></trkpt><trkpt lat="45.7007752" lon="10.3200556"><ele>592.0</ele><time>2026-04-26T07:49:16.087Z</time></trkpt><trkpt lat="45.7008675" lon="10.3201422"><ele>592.0</ele><time>2026-04-26T07:49:17.087Z</time></trkpt><trkpt lat="45.7009768" lon="10.3201888"><ele>592.0</ele><time>2026-04-26T07:49:18.087Z</time></trkpt><trkpt lat="45.7011037" lon="10.3202116"><ele>592.0</ele><time>2026-04-26T07:49:19.087Z</time></trkpt><trkpt lat="45.7012373" lon="10.3202567"><ele>592.0</ele><time>2026-04-26T07:49:20.086Z</time></trkpt><trkpt lat="45.7013776" lon="10.3203331"><ele>589.0</ele><time>2026-04-26T07:49:21.087Z</time></trkpt><trkpt lat="45.7015173" lon="10.3204186"><ele>586.0</ele><time>2026-04-26T07:49:22.087Z</time></trkpt><trkpt lat="45.7016567" lon="10.3204985"><ele>583.0</ele><time>2026-04-26T07:49:23.086Z</time></trkpt><trkpt lat="45.7017908" lon="10.3205767"><ele>580.0</ele><time>2026-04-26T07:49:24.087Z</time></trkpt><trkpt lat="45.7019228" lon="10.3206374"><ele>580.0</ele><time>2026-04-26T07:49:25.087Z</time></trkpt><trkpt lat="45.7020651" lon="10.32066"><ele>580.0</ele><time>2026-04-26T07:49:26.087Z</time></trkpt><trkpt lat="45.7022095" lon="10.3206528"><ele>580.0</ele><time>2026-04-26T07:49:27.087Z</time></trkpt><trkpt lat="45.7023467" lon="10.3206444"><ele>580.0</ele><time>2026-04-26T07:49:28.087Z</time></trkpt><trkpt lat="45.7024681" lon="10.320656"><ele>580.0</ele><time>2026-04-26T07:49:29.087Z</time></trkpt><trkpt lat="45.7025724" lon="10.320671"><ele>580.0</ele><time>2026-04-26T07:49:30.086Z</time></trkpt><trkpt lat="45.7026621" lon="10.3207005"><ele>580.0</ele><time>2026-04-26T07:49:31.087Z</time></trkpt><trkpt lat="45.7027221" lon="10.3207545"><ele>580.0</ele><time>2026-04-26T07:49:32.087Z</time></trkpt><trkpt lat="45.7027248" lon="10.3209103"><ele>580.0</ele><time>2026-04-26T07:49:34.087Z</time></trkpt><trkpt lat="45.70267" lon="10.3209638"><ele>580.0</ele><time>2026-04-26T07:49:35.087Z</time></trkpt><trkpt lat="45.7025933" lon="10.3209562"><ele>580.0</ele><time>2026-04-26T07:49:36.087Z</time></trkpt><trkpt lat="45.7025093" lon="10.3209124"><ele>580.0</ele><time>2026-04-26T07:49:37.087Z</time></trkpt><trkpt lat="45.702413" lon="10.3208592"><ele>580.0</ele><time>2026-04-26T07:49:38.087Z</time></trkpt><trkpt lat="45.7022996" lon="10.3208274"><ele>580.0</ele><time>2026-04-26T07:49:39.087Z</time></trkpt><trkpt lat="45.7021769" lon="10.3208362"><ele>580.0</ele><time>2026-04-26T07:49:40.087Z</time></trkpt><trkpt lat="45.7020399" lon="10.3208642"><ele>579.25</ele><time>2026-04-26T07:49:41.087Z</time></trkpt><trkpt lat="45.7019124" lon="10.3208949"><ele>578.5</ele><time>2026-04-26T07:49:42.087Z</time></trkpt><trkpt lat="45.7017899" lon="10.3209491"><ele>577.75</ele><time>2026-04-26T07:49:43.086Z</time></trkpt><trkpt lat="45.7016738" lon="10.3209876"><ele>577.0</ele><time>2026-04-26T07:49:44.087Z</time></trkpt><trkpt lat="45.7015539" lon="10.3209831"><ele>577.0</ele><time>2026-04-26T07:49:45.087Z</time></trkpt><trkpt lat="45.7014388" lon="10.3209463"><ele>577.0</ele><time>2026-04-26T07:49:46.087Z</time></trkpt><trkpt lat="45.701326" lon="10.320891"><ele>577.0</ele><time>2026-04-26T07:49:47.086Z</time></trkpt><trkpt lat="45.701208" lon="10.320848"><ele>577.0</ele><time>2026-04-26T07:49:48.087Z</time></trkpt><trkpt lat="45.7010896" lon="10.3208358"><ele>574.75</ele><time>2026-04-26T07:49:49.087Z</time></trkpt><trkpt lat="45.7009663" lon="10.3208374"><ele>572.5</ele><time>2026-04-26T07:49:50.087Z</time></trkpt><trkpt lat="45.7008487" lon="10.3208488"><ele>570.25</ele><time>2026-04-26T07:49:51.087Z</time></trkpt><trkpt lat="45.7007375" lon="10.3208897"><ele>568.0</ele><time>2026-04-26T07:49:52.087Z</time></trkpt><trkpt lat="45.7006281" lon="10.3209701"><ele>568.0</ele><time>2026-04-26T07:49:53.086Z</time></trkpt><trkpt lat="45.7005368" lon="10.3210779"><ele>568.0</ele><time>2026-04-26T07:49:54.087Z</time></trkpt><trkpt lat="45.7004491" lon="10.3211796"><ele>568.0</ele><time>2026-04-26T07:49:55.087Z</time></trkpt><trkpt lat="45.7003518" lon="10.3212567"><ele>568.0</ele><time>2026-04-26T07:49:56.087Z</time></trkpt><trkpt lat="45.70025" lon="10.3213175"><ele>566.4</ele><time>2026-04-26T07:49:57.087Z</time></trkpt><trkpt lat="45.7001515" lon="10.3213597"><ele>564.8</ele><time>2026-04-26T07:49:58.087Z</time></trkpt><trkpt lat="45.7000564" lon="10.321402"><ele>563.2</ele><time>2026-04-26T07:49:59.087Z</time></trkpt><trkpt lat="45.6999609" lon="10.3214243"><ele>561.6</ele><time>2026-04-26T07:50:00.087Z</time></trkpt><trkpt lat="45.6998771" lon="10.3214062"><ele>560.0</ele><time>2026-04-26T07:50:01.087Z</time></trkpt><trkpt lat="45.6998051" lon="10.3213437"><ele>560.0</ele><time>2026-04-26T07:50:02.086Z</time></trkpt><trkpt lat="45.6997586" lon="10.3212366"><ele>560.0</ele><time>2026-04-26T07:50:03.087Z</time></trkpt><trkpt lat="45.6997472" lon="10.3211028"><ele>560.0</ele><time>2026-04-26T07:50:04.086Z</time></trkpt><trkpt lat="45.6997618" lon="10.3209539"><ele>560.0</ele><time>2026-04-26T07:50:05.087Z</time></trkpt><trkpt lat="45.6997832" lon="10.3208108"><ele>560.0</ele><time>2026-04-26T07:50:06.087Z</time></trkpt><trkpt lat="45.6998087" lon="10.3206664"><ele>561.2</ele><time>2026-04-26T07:50:07.087Z</time></trkpt><trkpt lat="45.699833" lon="10.3205306"><ele>562.4</ele><time>2026-04-26T07:50:08.087Z</time></trkpt><trkpt lat="45.699853" lon="10.3204171"><ele>563.6</ele><time>2026-04-26T07:50:09.087Z</time></trkpt><trkpt lat="45.6998567" lon="10.3203177"><ele>564.8</ele><time>2026-04-26T07:50:10.087Z</time></trkpt><trkpt lat="45.6997834" lon="10.3201891"><ele>566.0</ele><time>2026-04-26T07:50:12.087Z</time></trkpt><trkpt lat="45.6996803" lon="10.3202227"><ele>566.0</ele><time>2026-04-26T07:50:14.087Z</time></trkpt><trkpt lat="45.6996395" lon="10.3204063"><ele>566.0</ele><time>2026-04-26T07:50:16.087Z</time></trkpt><trkpt lat="45.699642" lon="10.3205302"><ele>566.0</ele><time>2026-04-26T07:50:17.087Z</time></trkpt><trkpt lat="45.6996341" lon="10.3206677"><ele>566.0</ele><time>2026-04-26T07:50:18.087Z</time></trkpt><trkpt lat="45.6995985" lon="10.3208103"><ele>566.0</ele><time>2026-04-26T07:50:19.087Z</time></trkpt><trkpt lat="45.6995377" lon="10.3209345"><ele>564.8</ele><time>2026-04-26T07:50:20.086Z</time></trkpt><trkpt lat="45.6994607" lon="10.32103"><ele>563.6</ele><time>2026-04-26T07:50:21.087Z</time></trkpt><trkpt lat="45.69937" lon="10.3211032"><ele>562.4</ele><time>2026-04-26T07:50:22.087Z</time></trkpt><trkpt lat="45.6992843" lon="10.3211784"><ele>561.2</ele><time>2026-04-26T07:50:23.087Z</time></trkpt><trkpt lat="45.6992154" lon="10.3212716"><ele>560.0</ele><time>2026-04-26T07:50:24.087Z</time></trkpt><trkpt lat="45.6991639" lon="10.3213767"><ele>556.8333333333333</ele><time>2026-04-26T07:50:25.087Z</time></trkpt><trkpt lat="45.6991342" lon="10.321494"><ele>553.6666666666666</ele><time>2026-04-26T07:50:26.086Z</time></trkpt><trkpt lat="45.6991248" lon="10.3216127"><ele>550.5</ele><time>2026-04-26T07:50:27.087Z</time></trkpt><trkpt lat="45.699131" lon="10.3217255"><ele>547.3333333333334</ele><time>2026-04-26T07:50:28.087Z</time></trkpt><trkpt lat="45.699135" lon="10.3218249"><ele>544.1666666666667</ele><time>2026-04-26T07:50:29.087Z</time></trkpt><trkpt lat="45.6990929" lon="10.3219551"><ele>541.0</ele><time>2026-04-26T07:50:31.087Z</time></trkpt><trkpt lat="45.6990007" lon="10.3219737"><ele>541.0</ele><time>2026-04-26T07:50:33.086Z</time></trkpt><trkpt lat="45.6989083" lon="10.3218124"><ele>541.0</ele><time>2026-04-26T07:50:35.087Z</time></trkpt><trkpt lat="45.6988514" lon="10.3216859"><ele>541.0</ele><time>2026-04-26T07:50:36.086Z</time></trkpt><trkpt lat="45.6987895" lon="10.321548"><ele>541.0</ele><time>2026-04-26T07:50:37.087Z</time></trkpt><trkpt lat="45.6987198" lon="10.3214038"><ele>541.0</ele><time>2026-04-26T07:50:38.087Z</time></trkpt><trkpt lat="45.6986482" lon="10.3212589"><ele>541.0</ele><time>2026-04-26T07:50:39.087Z</time></trkpt><trkpt lat="45.698572" lon="10.3211171"><ele>541.0</ele><time>2026-04-26T07:50:40.087Z</time></trkpt><trkpt lat="45.6984891" lon="10.3209758"><ele>541.0</ele><time>2026-04-26T07:50:41.087Z</time></trkpt><trkpt lat="45.6984064" lon="10.3208348"><ele>540.0</ele><time>2026-04-26T07:50:42.087Z</time></trkpt><trkpt lat="45.6983228" lon="10.3206911"><ele>539.0</ele><time>2026-04-26T07:50:43.087Z</time></trkpt><trkpt lat="45.6982456" lon="10.3205427"><ele>538.0</ele><time>2026-04-26T07:50:44.087Z</time></trkpt><trkpt lat="45.6981854" lon="10.3203849"><ele>537.0</ele><time>2026-04-26T07:50:45.087Z</time></trkpt><trkpt lat="45.6981369" lon="10.3202246"><ele>537.0</ele><time>2026-04-26T07:50:46.086Z</time></trkpt><trkpt lat="45.6980893" lon="10.3200736"><ele>537.0</ele><time>2026-04-26T07:50:47.087Z</time></trkpt><trkpt lat="45.6980463" lon="10.3199485"><ele>537.0</ele><time>2026-04-26T07:50:48.087Z</time></trkpt><trkpt lat="45.6980018" lon="10.3198484"><ele>537.0</ele><time>2026-04-26T07:50:49.087Z</time></trkpt><trkpt lat="45.6979427" lon="10.3197886"><ele>537.0</ele><time>2026-04-26T07:50:50.087Z</time></trkpt><trkpt lat="45.6978726" lon="10.3198051"><ele>537.0</ele><time>2026-04-26T07:50:51.087Z</time></trkpt><trkpt lat="45.6978309" lon="10.3198804"><ele>537.0</ele><time>2026-04-26T07:50:52.087Z</time></trkpt><trkpt lat="45.6978154" lon="10.3199956"><ele>537.0</ele><time>2026-04-26T07:50:53.087Z</time></trkpt><trkpt lat="45.6978341" lon="10.3201286"><ele>537.0</ele><time>2026-04-26T07:50:54.087Z</time></trkpt><trkpt lat="45.6978746" lon="10.3202677"><ele>537.0</ele><time>2026-04-26T07:50:55.086Z</time></trkpt><trkpt lat="45.6979167" lon="10.3204199"><ele>537.0</ele><time>2026-04-26T07:50:56.087Z</time></trkpt><trkpt lat="45.6979505" lon="10.3205661"><ele>535.6</ele><time>2026-04-26T07:50:57.087Z</time></trkpt><trkpt lat="45.6979645" lon="10.3207035"><ele>534.2</ele><time>2026-04-26T07:50:58.087Z</time></trkpt><trkpt lat="45.6979488" lon="10.3208342"><ele>532.8</ele><time>2026-04-26T07:50:59.086Z</time></trkpt><trkpt lat="45.6978944" lon="10.3209584"><ele>531.4</ele><time>2026-04-26T07:51:00.087Z</time></trkpt><trkpt lat="45.6978092" lon="10.3210548"><ele>530.0</ele><time>2026-04-26T07:51:01.087Z</time></trkpt><trkpt lat="45.697709" lon="10.3211465"><ele>525.25</ele><time>2026-04-26T07:51:02.087Z</time></trkpt><trkpt lat="45.6976176" lon="10.3212463"><ele>520.5</ele><time>2026-04-26T07:51:03.087Z</time></trkpt><trkpt lat="45.697537" lon="10.3213588"><ele>515.75</ele><time>2026-04-26T07:51:04.087Z</time></trkpt><trkpt lat="45.6974797" lon="10.3214999"><ele>511.0</ele><time>2026-04-26T07:51:05.087Z</time></trkpt><trkpt lat="45.6974472" lon="10.3216667"><ele>511.0</ele><time>2026-04-26T07:51:06.087Z</time></trkpt><trkpt lat="45.6974503" lon="10.3218413"><ele>511.0</ele><time>2026-04-26T07:51:07.087Z</time></trkpt><trkpt lat="45.6974768" lon="10.3219993"><ele>511.0</ele><time>2026-04-26T07:51:08.087Z</time></trkpt><trkpt lat="45.6975143" lon="10.3221499"><ele>511.0</ele><time>2026-04-26T07:51:09.087Z</time></trkpt><trkpt lat="45.6975381" lon="10.3222795"><ele>511.0</ele><time>2026-04-26T07:51:10.086Z</time></trkpt><trkpt lat="45.6975475" lon="10.3223852"><ele>511.0</ele><time>2026-04-26T07:51:11.087Z</time></trkpt><trkpt lat="45.6975205" lon="10.3224749"><ele>511.0</ele><time>2026-04-26T07:51:12.087Z</time></trkpt><trkpt lat="45.6974144" lon="10.3224903"><ele>511.0</ele><time>2026-04-26T07:51:14.086Z</time></trkpt><trkpt lat="45.6973436" lon="10.3223273"><ele>511.0</ele><time>2026-04-26T07:51:16.087Z</time></trkpt><trkpt lat="45.6973315" lon="10.3222029"><ele>511.0</ele><time>2026-04-26T07:51:17.086Z</time></trkpt><trkpt lat="45.6973251" lon="10.3220653"><ele>511.0</ele><time>2026-04-26T07:51:18.086Z</time></trkpt><trkpt lat="45.6973147" lon="10.3219118"><ele>511.0</ele><time>2026-04-26T07:51:19.086Z</time></trkpt><trkpt lat="45.6973074" lon="10.3217475"><ele>511.0</ele><time>2026-04-26T07:51:20.086Z</time></trkpt><trkpt lat="45.697305" lon="10.321586"><ele>511.0</ele><time>2026-04-26T07:51:21.087Z</time></trkpt><trkpt lat="45.6973186" lon="10.3214329"><ele>511.0</ele><time>2026-04-26T07:51:22.087Z</time></trkpt><trkpt lat="45.6973618" lon="10.3213027"><ele>510.6666666666667</ele><time>2026-04-26T07:51:23.087Z</time></trkpt><trkpt lat="45.6974078" lon="10.32119"><ele>510.33333333333337</ele><time>2026-04-26T07:51:24.087Z</time></trkpt><trkpt lat="45.6974324" lon="10.3210726"><ele>510.0</ele><time>2026-04-26T07:51:25.087Z</time></trkpt><trkpt lat="45.6974186" lon="10.3209673"><ele>509.66666666666663</ele><time>2026-04-26T07:51:26.087Z</time></trkpt><trkpt lat="45.6973167" lon="10.3208674"><ele>509.3333333333333</ele><time>2026-04-26T07:51:28.087Z</time></trkpt><trkpt lat="45.6972543" lon="10.3208877"><ele>509.0</ele><time>2026-04-26T07:51:29.087Z</time></trkpt><trkpt lat="45.6972023" lon="10.3209599"><ele>509.0</ele><time>2026-04-26T07:51:30.086Z</time></trkpt><trkpt lat="45.6971643" lon="10.3210696"><ele>509.0</ele><time>2026-04-26T07:51:31.087Z</time></trkpt><trkpt lat="45.6971365" lon="10.3212155"><ele>509.0</ele><time>2026-04-26T07:51:32.087Z</time></trkpt><trkpt lat="45.6971225" lon="10.3213786"><ele>509.0</ele><time>2026-04-26T07:51:33.087Z</time></trkpt><trkpt lat="45.6971207" lon="10.321553"><ele>509.0</ele><time>2026-04-26T07:51:34.086Z</time></trkpt><trkpt lat="45.6971327" lon="10.3217377"><ele>509.5</ele><time>2026-04-26T07:51:35.087Z</time></trkpt><trkpt lat="45.6971449" lon="10.3219237"><ele>510.0</ele><time>2026-04-26T07:51:36.087Z</time></trkpt><trkpt lat="45.6971547" lon="10.3221095"><ele>510.5</ele><time>2026-04-26T07:51:37.087Z</time></trkpt><trkpt lat="45.6971603" lon="10.3222882"><ele>511.0</ele><time>2026-04-26T07:51:38.087Z</time></trkpt><trkpt lat="45.6971767" lon="10.3224508"><ele>510.20000000000005</ele><time>2026-04-26T07:51:39.087Z</time></trkpt><trkpt lat="45.6971966" lon="10.32258"><ele>509.40000000000003</ele><time>2026-04-26T07:51:40.087Z</time></trkpt><trkpt lat="45.6971993" lon="10.3226934"><ele>508.6</ele><time>2026-04-26T07:51:41.087Z</time></trkpt><trkpt lat="45.6971717" lon="10.3227838"><ele>507.8</ele><time>2026-04-26T07:51:42.086Z</time></trkpt><trkpt lat="45.6970664" lon="10.3228077"><ele>507.0</ele><time>2026-04-26T07:51:44.086Z</time></trkpt><trkpt lat="45.6970276" lon="10.3226482"><ele>507.0</ele><time>2026-04-26T07:51:46.086Z</time></trkpt><trkpt lat="45.6970292" lon="10.3225233"><ele>507.00000000000006</ele><time>2026-04-26T07:51:47.087Z</time></trkpt><trkpt lat="45.6970308" lon="10.3223808"><ele>507.00000000000006</ele><time>2026-04-26T07:51:48.087Z</time></trkpt><trkpt lat="45.6970289" lon="10.3222297"><ele>507.0</ele><time>2026-04-26T07:51:49.087Z</time></trkpt><trkpt lat="45.6970227" lon="10.3220623"><ele>507.0</ele><time>2026-04-26T07:51:50.086Z</time></trkpt><trkpt lat="45.6969986" lon="10.3218924"><ele>508.0</ele><time>2026-04-26T07:51:51.087Z</time></trkpt><trkpt lat="45.6969542" lon="10.3217273"><ele>509.0</ele><time>2026-04-26T07:51:52.086Z</time></trkpt><trkpt lat="45.6969129" lon="10.3215595"><ele>510.0</ele><time>2026-04-26T07:51:53.087Z</time></trkpt><trkpt lat="45.6968915" lon="10.3213852"><ele>511.0</ele><time>2026-04-26T07:51:54.086Z</time></trkpt><trkpt lat="45.6968889" lon="10.3212107"><ele>510.6</ele><time>2026-04-26T07:51:55.087Z</time></trkpt><trkpt lat="45.6969111" lon="10.3210518"><ele>510.20000000000005</ele><time>2026-04-26T07:51:56.087Z</time></trkpt><trkpt lat="45.6969574" lon="10.3209101"><ele>509.79999999999995</ele><time>2026-04-26T07:51:57.087Z</time></trkpt><trkpt lat="45.6969946" lon="10.3207651"><ele>509.4</ele><time>2026-04-26T07:51:58.087Z</time></trkpt><trkpt lat="45.6970032" lon="10.3206128"><ele>509.0</ele><time>2026-04-26T07:51:59.087Z</time></trkpt><trkpt lat="45.6969779" lon="10.3204625"><ele>508.5</ele><time>2026-04-26T07:52:00.086Z</time></trkpt><trkpt lat="45.6969266" lon="10.3203144"><ele>508.0</ele><time>2026-04-26T07:52:01.086Z</time></trkpt><trkpt lat="45.6968604" lon="10.3201708"><ele>507.5</ele><time>2026-04-26T07:52:02.087Z</time></trkpt><trkpt lat="45.6967866" lon="10.3200274"><ele>507.0</ele><time>2026-04-26T07:52:03.086Z</time></trkpt><trkpt lat="45.6967249" lon="10.3198928"><ele>501.8</ele><time>2026-04-26T07:52:04.086Z</time></trkpt><trkpt lat="45.6966785" lon="10.319771"><ele>496.6</ele><time>2026-04-26T07:52:05.087Z</time></trkpt><trkpt lat="45.6966565" lon="10.3196445"><ele>491.40000000000003</ele><time>2026-04-26T07:52:06.087Z</time></trkpt><trkpt lat="45.696658" lon="10.3195205"><ele>486.20000000000005</ele><time>2026-04-26T07:52:07.086Z</time></trkpt><trkpt lat="45.6966918" lon="10.3194079"><ele>481.0</ele><time>2026-04-26T07:52:08.087Z</time></trkpt><trkpt lat="45.6967555" lon="10.3192989"><ele>480.25</ele><time>2026-04-26T07:52:09.087Z</time></trkpt><trkpt lat="45.6968366" lon="10.3191919"><ele>479.5</ele><time>2026-04-26T07:52:10.087Z</time></trkpt><trkpt lat="45.696927" lon="10.3190809"><ele>478.75</ele><time>2026-04-26T07:52:11.087Z</time></trkpt><trkpt lat="45.6970228" lon="10.3189632"><ele>478.0</ele><time>2026-04-26T07:52:12.086Z</time></trkpt><trkpt lat="45.6971195" lon="10.3188364"><ele>478.0</ele><time>2026-04-26T07:52:13.087Z</time></trkpt><trkpt lat="45.6972213" lon="10.3187114"><ele>478.0</ele><time>2026-04-26T07:52:14.087Z</time></trkpt><trkpt lat="45.6973214" lon="10.318595"><ele>478.0</ele><time>2026-04-26T07:52:15.087Z</time></trkpt><trkpt lat="45.6974148" lon="10.3184912"><ele>478.0</ele><time>2026-04-26T07:52:16.087Z</time></trkpt><trkpt lat="45.6975022" lon="10.3183916"><ele>478.0</ele><time>2026-04-26T07:52:17.086Z</time></trkpt><trkpt lat="45.6975739" lon="10.3182816"><ele>477.99999999999994</ele><time>2026-04-26T07:52:18.086Z</time></trkpt><trkpt lat="45.6976027" lon="10.3181396"><ele>477.99999999999994</ele><time>2026-04-26T07:52:19.087Z</time></trkpt><trkpt lat="45.697621" lon="10.3179833"><ele>478.0</ele><time>2026-04-26T07:52:20.087Z</time></trkpt><trkpt lat="45.6976532" lon="10.3178219"><ele>478.0</ele><time>2026-04-26T07:52:21.086Z</time></trkpt><trkpt lat="45.6977118" lon="10.3176709"><ele>480.25</ele><time>2026-04-26T07:52:22.087Z</time></trkpt><trkpt lat="45.697792" lon="10.3175378"><ele>482.5</ele><time>2026-04-26T07:52:23.087Z</time></trkpt><trkpt lat="45.6978897" lon="10.3174112"><ele>484.75</ele><time>2026-04-26T07:52:24.087Z</time></trkpt><trkpt lat="45.6979946" lon="10.3172889"><ele>487.0</ele><time>2026-04-26T07:52:25.087Z</time></trkpt><trkpt lat="45.6981062" lon="10.3171588"><ele>482.5</ele><time>2026-04-26T07:52:26.087Z</time></trkpt><trkpt lat="45.6982189" lon="10.3170314"><ele>478.0</ele><time>2026-04-26T07:52:27.087Z</time></trkpt><trkpt lat="45.6983269" lon="10.3169063"><ele>473.5</ele><time>2026-04-26T07:52:28.087Z</time></trkpt><trkpt lat="45.6984228" lon="10.3167655"><ele>469.0</ele><time>2026-04-26T07:52:29.087Z</time></trkpt><trkpt lat="45.6985076" lon="10.3166058"><ele>469.0</ele><time>2026-04-26T07:52:30.087Z</time></trkpt><trkpt lat="45.6985759" lon="10.3164202"><ele>469.0</ele><time>2026-04-26T07:52:31.086Z</time></trkpt><trkpt lat="45.6986314" lon="10.3162256"><ele>469.0</ele><time>2026-04-26T07:52:32.087Z</time></trkpt><trkpt lat="45.6986834" lon="10.3160286"><ele>469.0</ele><time>2026-04-26T07:52:33.086Z</time></trkpt><trkpt lat="45.6987274" lon="10.3158366"><ele>470.1666666666667</ele><time>2026-04-26T07:52:34.087Z</time></trkpt><trkpt lat="45.6987626" lon="10.3156754"><ele>471.33333333333337</ele><time>2026-04-26T07:52:35.087Z</time></trkpt><trkpt lat="45.6987794" lon="10.3155384"><ele>472.5</ele><time>2026-04-26T07:52:36.087Z</time></trkpt><trkpt lat="45.6987614" lon="10.3154257"><ele>473.66666666666663</ele><time>2026-04-26T07:52:37.086Z</time></trkpt><trkpt lat="45.6987119" lon="10.3153541"><ele>474.8333333333333</ele><time>2026-04-26T07:52:38.087Z</time></trkpt><trkpt lat="45.6986465" lon="10.3153422"><ele>476.0</ele><time>2026-04-26T07:52:39.087Z</time></trkpt><trkpt lat="45.6985775" lon="10.3153941"><ele>471.8</ele><time>2026-04-26T07:52:40.086Z</time></trkpt><trkpt lat="45.6985206" lon="10.3154929"><ele>467.6</ele><time>2026-04-26T07:52:41.087Z</time></trkpt><trkpt lat="45.698468" lon="10.3156225"><ele>463.4</ele><time>2026-04-26T07:52:42.087Z</time></trkpt><trkpt lat="45.6984092" lon="10.3157681"><ele>459.2</ele><time>2026-04-26T07:52:43.087Z</time></trkpt><trkpt lat="45.6983458" lon="10.315919"><ele>455.0</ele><time>2026-04-26T07:52:44.087Z</time></trkpt><trkpt lat="45.6982672" lon="10.3160592"><ele>455.0</ele><time>2026-04-26T07:52:45.087Z</time></trkpt><trkpt lat="45.6981758" lon="10.3161959"><ele>455.0</ele><time>2026-04-26T07:52:46.087Z</time></trkpt><trkpt lat="45.6980778" lon="10.3163306"><ele>455.0</ele><time>2026-04-26T07:52:47.086Z</time></trkpt><trkpt lat="45.6979707" lon="10.3164681"><ele>455.0</ele><time>2026-04-26T07:52:48.087Z</time></trkpt><trkpt lat="45.6978618" lon="10.316608"><ele>452.66666666666663</ele><time>2026-04-26T07:52:49.087Z</time></trkpt><trkpt lat="45.6977514" lon="10.316752"><ele>450.33333333333337</ele><time>2026-04-26T07:52:50.087Z</time></trkpt><trkpt lat="45.6976379" lon="10.3168952"><ele>448.0</ele><time>2026-04-26T07:52:51.087Z</time></trkpt><trkpt lat="45.6975235" lon="10.3170358"><ele>448.0</ele><time>2026-04-26T07:52:52.087Z</time></trkpt><trkpt lat="45.6974114" lon="10.3171727"><ele>448.0</ele><time>2026-04-26T07:52:53.087Z</time></trkpt><trkpt lat="45.6973053" lon="10.3173008"><ele>448.0</ele><time>2026-04-26T07:52:54.087Z</time></trkpt><trkpt lat="45.6972153" lon="10.3174134"><ele>448.0</ele><time>2026-04-26T07:52:55.086Z</time></trkpt><trkpt lat="45.6971477" lon="10.3175091"><ele>451.2</ele><time>2026-04-26T07:52:56.087Z</time></trkpt><trkpt lat="45.6970887" lon="10.3175787"><ele>454.4</ele><time>2026-04-26T07:52:57.087Z</time></trkpt><trkpt lat="45.6969792" lon="10.3176001"><ele>457.59999999999997</ele><time>2026-04-26T07:52:59.087Z</time></trkpt><trkpt lat="45.6969461" lon="10.3174641"><ele>460.79999999999995</ele><time>2026-04-26T07:53:01.087Z</time></trkpt><trkpt lat="45.6969901" lon="10.3173707"><ele>464.0</ele><time>2026-04-26T07:53:02.087Z</time></trkpt><trkpt lat="45.6970676" lon="10.3172819"><ele>460.0</ele><time>2026-04-26T07:53:03.087Z</time></trkpt><trkpt lat="45.6971495" lon="10.3171826"><ele>456.0</ele><time>2026-04-26T07:53:04.087Z</time></trkpt><trkpt lat="45.6972365" lon="10.3170656"><ele>452.0</ele><time>2026-04-26T07:53:05.086Z</time></trkpt><trkpt lat="45.6973298" lon="10.3169459"><ele>448.0</ele><time>2026-04-26T07:53:06.087Z</time></trkpt><trkpt lat="45.6974168" lon="10.3168289"><ele>448.00000000000006</ele><time>2026-04-26T07:53:07.087Z</time></trkpt><trkpt lat="45.6974982" lon="10.3167184"><ele>448.0</ele><time>2026-04-26T07:53:08.086Z</time></trkpt><trkpt lat="45.697563" lon="10.3166259"><ele>448.0</ele><time>2026-04-26T07:53:09.087Z</time></trkpt><trkpt lat="45.697612" lon="10.3165346"><ele>448.0</ele><time>2026-04-26T07:53:10.087Z</time></trkpt><trkpt lat="45.6976172" lon="10.3164407"><ele>448.00000000000006</ele><time>2026-04-26T07:53:11.086Z</time></trkpt><trkpt lat="45.6975809" lon="10.3163639"><ele>448.0</ele><time>2026-04-26T07:53:12.087Z</time></trkpt><trkpt lat="45.6975208" lon="10.3163239"><ele>448.0</ele><time>2026-04-26T07:53:13.087Z</time></trkpt><trkpt lat="45.6974454" lon="10.3163506"><ele>447.99999999999994</ele><time>2026-04-26T07:53:14.086Z</time></trkpt><trkpt lat="45.6973623" lon="10.3164221"><ele>447.99999999999994</ele><time>2026-04-26T07:53:15.087Z</time></trkpt><trkpt lat="45.6972721" lon="10.3165051"><ele>448.0</ele><time>2026-04-26T07:53:16.087Z</time></trkpt><trkpt lat="45.6971723" lon="10.316601"><ele>448.0</ele><time>2026-04-26T07:53:17.087Z</time></trkpt><trkpt lat="45.6970641" lon="10.3167028"><ele>448.0</ele><time>2026-04-26T07:53:18.086Z</time></trkpt><trkpt lat="45.6969467" lon="10.3168167"><ele>448.0</ele><time>2026-04-26T07:53:19.087Z</time></trkpt><trkpt lat="45.6968333" lon="10.3169374"><ele>448.0</ele><time>2026-04-26T07:53:20.086Z</time></trkpt><trkpt lat="45.696721" lon="10.3170615"><ele>448.0</ele><time>2026-04-26T07:53:21.087Z</time></trkpt><trkpt lat="45.6966096" lon="10.3171877"><ele>445.75</ele><time>2026-04-26T07:53:22.087Z</time></trkpt><trkpt lat="45.6964992" lon="10.3173146"><ele>443.5</ele><time>2026-04-26T07:53:23.087Z</time></trkpt><trkpt lat="45.6963999" lon="10.317457"><ele>441.25</ele><time>2026-04-26T07:53:24.087Z</time></trkpt><trkpt lat="45.6963144" lon="10.3176087"><ele>439.0</ele><time>2026-04-26T07:53:25.087Z</time></trkpt><trkpt lat="45.696235" lon="10.3177686"><ele>439.0</ele><time>2026-04-26T07:53:26.086Z</time></trkpt><trkpt lat="45.6961564" lon="10.3179191"><ele>439.0</ele><time>2026-04-26T07:53:27.087Z</time></trkpt><trkpt lat="45.6960794" lon="10.3180491"><ele>439.0</ele><time>2026-04-26T07:53:28.087Z</time></trkpt><trkpt lat="45.6959853" lon="10.3181446"><ele>439.0</ele><time>2026-04-26T07:53:29.086Z</time></trkpt><trkpt lat="45.6958732" lon="10.3182029"><ele>438.5</ele><time>2026-04-26T07:53:30.087Z</time></trkpt><trkpt lat="45.6957535" lon="10.3182422"><ele>438.0</ele><time>2026-04-26T07:53:31.087Z</time></trkpt><trkpt lat="45.6956411" lon="10.3182823"><ele>437.5</ele><time>2026-04-26T07:53:32.087Z</time></trkpt><trkpt lat="45.6955299" lon="10.3183297"><ele>437.0</ele><time>2026-04-26T07:53:33.087Z</time></trkpt><trkpt lat="45.6954254" lon="10.318388"><ele>437.0</ele><time>2026-04-26T07:53:34.087Z</time></trkpt><trkpt lat="45.6953264" lon="10.3184534"><ele>437.00000000000006</ele><time>2026-04-26T07:53:35.087Z</time></trkpt><trkpt lat="45.6952318" lon="10.3185248"><ele>437.00000000000006</ele><time>2026-04-26T07:53:36.086Z</time></trkpt><trkpt lat="45.6951391" lon="10.3186012"><ele>437.0</ele><time>2026-04-26T07:53:37.087Z</time></trkpt><trkpt lat="45.6950744" lon="10.3187161"><ele>437.0</ele><time>2026-04-26T07:53:38.087Z</time></trkpt><trkpt lat="45.6950095" lon="10.3188224"><ele>435.0</ele><time>2026-04-26T07:53:39.087Z</time></trkpt><trkpt lat="45.6949485" lon="10.3189317"><ele>433.00000000000006</ele><time>2026-04-26T07:53:40.086Z</time></trkpt><trkpt lat="45.6948864" lon="10.3190387"><ele>431.00000000000006</ele><time>2026-04-26T07:53:41.086Z</time></trkpt><trkpt lat="45.6948291" lon="10.3191414"><ele>429.0</ele><time>2026-04-26T07:53:42.087Z</time></trkpt><trkpt lat="45.6947736" lon="10.3192406"><ele>427.0</ele><time>2026-04-26T07:53:43.087Z</time></trkpt><trkpt lat="45.6947221" lon="10.3193327"><ele>427.00000000000006</ele><time>2026-04-26T07:53:44.087Z</time></trkpt><trkpt lat="45.6946719" lon="10.3194216"><ele>427.0</ele><time>2026-04-26T07:53:45.086Z</time></trkpt><trkpt lat="45.6946127" lon="10.3195043"><ele>427.0</ele><time>2026-04-26T07:53:46.086Z</time></trkpt><trkpt lat="45.6945518" lon="10.3195786"><ele>427.0</ele><time>2026-04-26T07:53:47.087Z</time></trkpt><trkpt lat="45.6944995" lon="10.3196529"><ele>427.00000000000006</ele><time>2026-04-26T07:53:48.087Z</time></trkpt><trkpt lat="45.6944287" lon="10.3197603"><ele>427.0</ele><time>2026-04-26T07:53:50.087Z</time></trkpt><trkpt lat="45.6943633" lon="10.3198216"><ele>426.83333333333337</ele><time>2026-04-26T07:53:53.087Z</time></trkpt><trkpt lat="45.694376" lon="10.3199242"><ele>426.6666666666667</ele><time>2026-04-26T07:54:02.086Z</time></trkpt><trkpt lat="45.6943761" lon="10.3200318"><ele>426.5</ele><time>2026-04-26T07:55:03.086Z</time></trkpt><trkpt lat="45.6943829" lon="10.320147"><ele>426.33333333333337</ele><time>2026-04-26T07:55:05.086Z</time></trkpt><trkpt lat="45.6944091" lon="10.3203223"><ele>426.1666666666667</ele><time>2026-04-26T07:55:07.086Z</time></trkpt><trkpt lat="45.6944165" lon="10.3204327"><ele>426.0</ele><time>2026-04-26T07:55:08.086Z</time></trkpt><trkpt lat="45.6944283" lon="10.3205384"><ele>425.8</ele><time>2026-04-26T07:55:09.087Z</time></trkpt><trkpt lat="45.6944452" lon="10.3206584"><ele>425.6</ele><time>2026-04-26T07:55:10.087Z</time></trkpt><trkpt lat="45.6944624" lon="10.320785"><ele>425.4</ele><time>2026-04-26T07:55:11.087Z</time></trkpt><trkpt lat="45.6944777" lon="10.3209156"><ele>425.2</ele><time>2026-04-26T07:55:12.087Z</time></trkpt><trkpt lat="45.6944934" lon="10.3210545"><ele>425.0</ele><time>2026-04-26T07:55:13.086Z</time></trkpt><trkpt lat="45.6945168" lon="10.3211961"><ele>425.0</ele><time>2026-04-26T07:55:14.087Z</time></trkpt><trkpt lat="45.6945338" lon="10.3213516"><ele>425.0</ele><time>2026-04-26T07:55:15.087Z</time></trkpt><trkpt lat="45.6945487" lon="10.3215073"><ele>425.0</ele><time>2026-04-26T07:55:16.087Z</time></trkpt><trkpt lat="45.694566" lon="10.3216639"><ele>425.0</ele><time>2026-04-26T07:55:17.086Z</time></trkpt><trkpt lat="45.694586" lon="10.3218192"><ele>425.0</ele><time>2026-04-26T07:55:18.087Z</time></trkpt><trkpt lat="45.6946186" lon="10.3219691"><ele>424.2</ele><time>2026-04-26T07:55:19.087Z</time></trkpt><trkpt lat="45.6946512" lon="10.3221165"><ele>423.4</ele><time>2026-04-26T07:55:20.087Z</time></trkpt><trkpt lat="45.6946818" lon="10.3222668"><ele>422.6</ele><time>2026-04-26T07:55:21.087Z</time></trkpt><trkpt lat="45.6947137" lon="10.3224232"><ele>421.8</ele><time>2026-04-26T07:55:22.087Z</time></trkpt><trkpt lat="45.6947384" lon="10.3225855"><ele>421.0</ele><time>2026-04-26T07:55:23.087Z</time></trkpt><trkpt lat="45.6947629" lon="10.3227492"><ele>419.25</ele><time>2026-04-26T07:55:24.087Z</time></trkpt><trkpt lat="45.6947941" lon="10.3229192"><ele>417.5</ele><time>2026-04-26T07:55:25.087Z</time></trkpt><trkpt lat="45.6948268" lon="10.3230884"><ele>415.75</ele><time>2026-04-26T07:55:26.087Z</time></trkpt><trkpt lat="45.6948635" lon="10.3232659"><ele>414.0</ele><time>2026-04-26T07:55:27.087Z</time></trkpt><trkpt lat="45.6948987" lon="10.3234521"><ele>413.25</ele><time>2026-04-26T07:55:28.086Z</time></trkpt><trkpt lat="45.694935" lon="10.3236375"><ele>412.5</ele><time>2026-04-26T07:55:29.087Z</time></trkpt><trkpt lat="45.6949704" lon="10.3238294"><ele>411.75</ele><time>2026-04-26T07:55:30.087Z</time></trkpt><trkpt lat="45.6950105" lon="10.3240256"><ele>411.0</ele><time>2026-04-26T07:55:31.087Z</time></trkpt><trkpt lat="45.6950456" lon="10.3242287"><ele>410.0</ele><time>2026-04-26T07:55:32.087Z</time></trkpt><trkpt lat="45.6950804" lon="10.3244367"><ele>409.0</ele><time>2026-04-26T07:55:33.087Z</time></trkpt><trkpt lat="45.695115" lon="10.3246391"><ele>408.0</ele><time>2026-04-26T07:55:34.087Z</time></trkpt><trkpt lat="45.695149" lon="10.3248422"><ele>407.0</ele><time>2026-04-26T07:55:35.087Z</time></trkpt><trkpt lat="45.6951801" lon="10.3250381"><ele>406.75</ele><time>2026-04-26T07:55:36.087Z</time></trkpt><trkpt lat="45.6952111" lon="10.3252279"><ele>406.5</ele><time>2026-04-26T07:55:37.087Z</time></trkpt><trkpt lat="45.6952437" lon="10.3254137"><ele>406.25</ele><time>2026-04-26T07:55:38.087Z</time></trkpt><trkpt lat="45.6952766" lon="10.325604"><ele>406.0</ele><time>2026-04-26T07:55:39.086Z</time></trkpt><trkpt lat="45.6953095" lon="10.3257971"><ele>407.0</ele><time>2026-04-26T07:55:40.087Z</time></trkpt><trkpt lat="45.6953412" lon="10.3259942"><ele>408.0</ele><time>2026-04-26T07:55:41.086Z</time></trkpt><trkpt lat="45.6953793" lon="10.3261951"><ele>409.0</ele><time>2026-04-26T07:55:42.087Z</time></trkpt><trkpt lat="45.6954158" lon="10.3263952"><ele>410.0</ele><time>2026-04-26T07:55:43.087Z</time></trkpt><trkpt lat="45.6954552" lon="10.3265986"><ele>410.0</ele><time>2026-04-26T07:55:44.086Z</time></trkpt><trkpt lat="45.6954947" lon="10.3267956"><ele>410.0</ele><time>2026-04-26T07:55:45.087Z</time></trkpt><trkpt lat="45.6955363" lon="10.32699"><ele>410.0</ele><time>2026-04-26T07:55:46.087Z</time></trkpt><trkpt lat="45.6955787" lon="10.3271773"><ele>410.0</ele><time>2026-04-26T07:55:47.087Z</time></trkpt><trkpt lat="45.6956215" lon="10.3273683"><ele>409.25</ele><time>2026-04-26T07:55:48.086Z</time></trkpt><trkpt lat="45.6956624" lon="10.3275596"><ele>408.5</ele><time>2026-04-26T07:55:49.087Z</time></trkpt><trkpt lat="45.6957038" lon="10.3277592"><ele>407.75</ele><time>2026-04-26T07:55:50.087Z</time></trkpt><trkpt lat="45.6957452" lon="10.3279627"><ele>407.0</ele><time>2026-04-26T07:55:51.087Z</time></trkpt><trkpt lat="45.6957781" lon="10.3281753"><ele>405.3333333333333</ele><time>2026-04-26T07:55:52.087Z</time></trkpt><trkpt lat="45.6957985" lon="10.3283953"><ele>403.66666666666663</ele><time>2026-04-26T07:55:53.087Z</time></trkpt><trkpt lat="45.6957877" lon="10.3286199"><ele>402.0</ele><time>2026-04-26T07:55:54.087Z</time></trkpt><trkpt lat="45.6957494" lon="10.3288483"><ele>401.66666666666663</ele><time>2026-04-26T07:55:55.087Z</time></trkpt><trkpt lat="45.6956953" lon="10.3290737"><ele>401.3333333333333</ele><time>2026-04-26T07:55:56.087Z</time></trkpt><trkpt lat="45.6956373" lon="10.329279"><ele>401.0</ele><time>2026-04-26T07:55:57.086Z</time></trkpt><trkpt lat="45.6955909" lon="10.3294591"><ele>401.0</ele><time>2026-04-26T07:55:58.087Z</time></trkpt><trkpt lat="45.6955673" lon="10.3296312"><ele>401.0</ele><time>2026-04-26T07:55:59.087Z</time></trkpt><trkpt lat="45.6955707" lon="10.3297939"><ele>401.0</ele><time>2026-04-26T07:56:00.087Z</time></trkpt><trkpt lat="45.695567" lon="10.3299633"><ele>401.0</ele><time>2026-04-26T07:56:01.087Z</time></trkpt><trkpt lat="45.6956003" lon="10.3301153"><ele>401.0</ele><time>2026-04-26T07:56:02.087Z</time></trkpt><trkpt lat="45.6956807" lon="10.3302865"><ele>401.0</ele><time>2026-04-26T07:56:03.087Z</time></trkpt><trkpt lat="45.6957049" lon="10.3304396"><ele>401.0</ele><time>2026-04-26T07:56:04.087Z</time></trkpt><trkpt lat="45.6957367" lon="10.330582"><ele>401.0</ele><time>2026-04-26T07:56:05.086Z</time></trkpt><trkpt lat="45.6957656" lon="10.3307243"><ele>399.20000000000005</ele><time>2026-04-26T07:56:06.087Z</time></trkpt><trkpt lat="45.6958043" lon="10.3308403"><ele>397.40000000000003</ele><time>2026-04-26T07:56:07.087Z</time></trkpt><trkpt lat="45.695838" lon="10.3309572"><ele>395.6</ele><time>2026-04-26T07:56:08.087Z</time></trkpt><trkpt lat="45.6958802" lon="10.3310632"><ele>393.8</ele><time>2026-04-26T07:56:09.087Z</time></trkpt><trkpt lat="45.6959251" lon="10.3311815"><ele>392.0</ele><time>2026-04-26T07:56:10.087Z</time></trkpt><trkpt lat="45.6959798" lon="10.3313087"><ele>391.25</ele><time>2026-04-26T07:56:11.087Z</time></trkpt><trkpt lat="45.696024" lon="10.3314484"><ele>390.5</ele><time>2026-04-26T07:56:12.087Z</time></trkpt><trkpt lat="45.6960674" lon="10.3315973"><ele>389.75</ele><time>2026-04-26T07:56:13.087Z</time></trkpt><trkpt lat="45.6961146" lon="10.3317477"><ele>389.0</ele><time>2026-04-26T07:56:14.087Z</time></trkpt><trkpt lat="45.6961676" lon="10.3319059"><ele>389.5</ele><time>2026-04-26T07:56:15.087Z</time></trkpt><trkpt lat="45.6962234" lon="10.3320689"><ele>390.0</ele><time>2026-04-26T07:56:16.086Z</time></trkpt><trkpt lat="45.6962808" lon="10.3322282"><ele>390.5</ele><time>2026-04-26T07:56:17.087Z</time></trkpt><trkpt lat="45.6963324" lon="10.3323843"><ele>391.0</ele><time>2026-04-26T07:56:18.087Z</time></trkpt><trkpt lat="45.6963856" lon="10.3325346"><ele>391.0</ele><time>2026-04-26T07:56:19.087Z</time></trkpt><trkpt lat="45.6964375" lon="10.3326836"><ele>391.0</ele><time>2026-04-26T07:56:20.087Z</time></trkpt><trkpt lat="45.6964901" lon="10.3328345"><ele>391.0</ele><time>2026-04-26T07:56:21.087Z</time></trkpt><trkpt lat="45.6965442" lon="10.3329909"><ele>391.0</ele><time>2026-04-26T07:56:22.087Z</time></trkpt><trkpt lat="45.6965987" lon="10.3331532"><ele>389.75</ele><time>2026-04-26T07:56:23.087Z</time></trkpt><trkpt lat="45.6966525" lon="10.3333217"><ele>388.5</ele><time>2026-04-26T07:56:24.087Z</time></trkpt><trkpt lat="45.6967068" lon="10.3334944"><ele>387.25</ele><time>2026-04-26T07:56:25.087Z</time></trkpt><trkpt lat="45.6967654" lon="10.3336741"><ele>386.0</ele><time>2026-04-26T07:56:26.087Z</time></trkpt><trkpt lat="45.6968185" lon="10.3338626"><ele>385.5</ele><time>2026-04-26T07:56:27.087Z</time></trkpt><trkpt lat="45.6968904" lon="10.3340482"><ele>385.0</ele><time>2026-04-26T07:56:28.086Z</time></trkpt><trkpt lat="45.6969559" lon="10.3342382"><ele>384.5</ele><time>2026-04-26T07:56:29.087Z</time></trkpt><trkpt lat="45.697018" lon="10.3344308"><ele>384.0</ele><time>2026-04-26T07:56:30.087Z</time></trkpt><trkpt lat="45.6970836" lon="10.3346263"><ele>384.66666666666663</ele><time>2026-04-26T07:56:31.087Z</time></trkpt><trkpt lat="45.6971496" lon="10.3348204"><ele>385.3333333333333</ele><time>2026-04-26T07:56:32.086Z</time></trkpt><trkpt lat="45.6972138" lon="10.335016"><ele>386.0</ele><time>2026-04-26T07:56:33.087Z</time></trkpt><trkpt lat="45.6972792" lon="10.3352084"><ele>386.0</ele><time>2026-04-26T07:56:34.087Z</time></trkpt><trkpt lat="45.6973507" lon="10.3353986"><ele>386.0</ele><time>2026-04-26T07:56:35.087Z</time></trkpt><trkpt lat="45.6974208" lon="10.3355955"><ele>386.0</ele><time>2026-04-26T07:56:36.087Z</time></trkpt><trkpt lat="45.6974873" lon="10.3357957"><ele>383.3333333333333</ele><time>2026-04-26T07:56:37.087Z</time></trkpt><trkpt lat="45.6975546" lon="10.3360003"><ele>380.66666666666663</ele><time>2026-04-26T07:56:38.087Z</time></trkpt><trkpt lat="45.6976161" lon="10.336207"><ele>378.0</ele><time>2026-04-26T07:56:39.087Z</time></trkpt><trkpt lat="45.6976779" lon="10.336412"><ele>377.6666666666667</ele><time>2026-04-26T07:56:40.087Z</time></trkpt><trkpt lat="45.6977384" lon="10.3366215"><ele>377.33333333333337</ele><time>2026-04-26T07:56:41.087Z</time></trkpt><trkpt lat="45.6977983" lon="10.3368321"><ele>377.0</ele><time>2026-04-26T07:56:42.087Z</time></trkpt><trkpt lat="45.6978577" lon="10.3370477"><ele>378.5</ele><time>2026-04-26T07:56:43.087Z</time></trkpt><trkpt lat="45.6979086" lon="10.3372544"><ele>380.0</ele><time>2026-04-26T07:56:44.087Z</time></trkpt><trkpt lat="45.6979566" lon="10.3374503"><ele>381.5</ele><time>2026-04-26T07:56:45.087Z</time></trkpt><trkpt lat="45.6980053" lon="10.3376394"><ele>383.0</ele><time>2026-04-26T07:56:46.086Z</time></trkpt><trkpt lat="45.698052" lon="10.3378211"><ele>383.0</ele><time>2026-04-26T07:56:47.087Z</time></trkpt><trkpt lat="45.6981032" lon="10.3380038"><ele>383.0</ele><time>2026-04-26T07:56:48.086Z</time></trkpt><trkpt lat="45.6981635" lon="10.3381884"><ele>383.0</ele><time>2026-04-26T07:56:49.086Z</time></trkpt><trkpt lat="45.6982474" lon="10.3383629"><ele>383.0</ele><time>2026-04-26T07:56:50.087Z</time></trkpt><trkpt lat="45.6983449" lon="10.338537"><ele>382.0</ele><time>2026-04-26T07:56:51.087Z</time></trkpt><trkpt lat="45.6984426" lon="10.3387169"><ele>381.0</ele><time>2026-04-26T07:56:52.087Z</time></trkpt><trkpt lat="45.6985309" lon="10.3389028"><ele>380.0</ele><time>2026-04-26T07:56:53.087Z</time></trkpt><trkpt lat="45.6985947" lon="10.3390983"><ele>391.0</ele><time>2026-04-26T07:56:54.087Z</time></trkpt><trkpt lat="45.6986124" lon="10.3393087"><ele>402.0</ele><time>2026-04-26T07:56:55.087Z</time></trkpt><trkpt lat="45.6986081" lon="10.3395303"><ele>413.0</ele><time>2026-04-26T07:56:56.087Z</time></trkpt><trkpt lat="45.698587" lon="10.339758"><ele>402.0</ele><time>2026-04-26T07:56:57.087Z</time></trkpt><trkpt lat="45.698548" lon="10.3399893"><ele>391.0</ele><time>2026-04-26T07:56:58.087Z</time></trkpt><trkpt lat="45.6984837" lon="10.3402195"><ele>380.0</ele><time>2026-04-26T07:56:59.087Z</time></trkpt><trkpt lat="45.698413" lon="10.3404296"><ele>379.75</ele><time>2026-04-26T07:57:00.087Z</time></trkpt><trkpt lat="45.6983591" lon="10.3406335"><ele>379.5</ele><time>2026-04-26T07:57:01.087Z</time></trkpt><trkpt lat="45.698331" lon="10.3408368"><ele>379.25</ele><time>2026-04-26T07:57:02.087Z</time></trkpt><trkpt lat="45.698338" lon="10.3410349"><ele>379.0</ele><time>2026-04-26T07:57:03.087Z</time></trkpt><trkpt lat="45.6983781" lon="10.3412316"><ele>377.0</ele><time>2026-04-26T07:57:04.087Z</time></trkpt><trkpt lat="45.6984603" lon="10.3414367"><ele>375.0</ele><time>2026-04-26T07:57:05.087Z</time></trkpt><trkpt lat="45.698555" lon="10.3416476"><ele>373.0</ele><time>2026-04-26T07:57:06.087Z</time></trkpt><trkpt lat="45.6986488" lon="10.3418736"><ele>377.66666666666663</ele><time>2026-04-26T07:57:07.087Z</time></trkpt><trkpt lat="45.6987373" lon="10.3421124"><ele>382.3333333333333</ele><time>2026-04-26T07:57:08.087Z</time></trkpt><trkpt lat="45.6988065" lon="10.3423606"><ele>387.0</ele><time>2026-04-26T07:57:09.087Z</time></trkpt><trkpt lat="45.6988499" lon="10.3426112"><ele>387.0</ele><time>2026-04-26T07:57:10.087Z</time></trkpt><trkpt lat="45.6988708" lon="10.3428639"><ele>387.0</ele><time>2026-04-26T07:57:11.087Z</time></trkpt><trkpt lat="45.6988635" lon="10.3431183"><ele>387.0</ele><time>2026-04-26T07:57:12.086Z</time></trkpt><trkpt lat="45.6988384" lon="10.3433642"><ele>388.33333333333337</ele><time>2026-04-26T07:57:13.087Z</time></trkpt><trkpt lat="45.6988158" lon="10.3435967"><ele>389.6666666666667</ele><time>2026-04-26T07:57:14.086Z</time></trkpt><trkpt lat="45.6988249" lon="10.3438303"><ele>391.0</ele><time>2026-04-26T07:57:15.087Z</time></trkpt><trkpt lat="45.6988696" lon="10.3440643"><ele>388.33333333333337</ele><time>2026-04-26T07:57:16.087Z</time></trkpt><trkpt lat="45.6989457" lon="10.3442886"><ele>385.6666666666667</ele><time>2026-04-26T07:57:17.087Z</time></trkpt><trkpt lat="45.6990258" lon="10.3445086"><ele>383.0</ele><time>2026-04-26T07:57:18.086Z</time></trkpt><trkpt lat="45.6990926" lon="10.3447184"><ele>379.25</ele><time>2026-04-26T07:57:19.087Z</time></trkpt><trkpt lat="45.6991394" lon="10.344913"><ele>375.5</ele><time>2026-04-26T07:57:20.086Z</time></trkpt><trkpt lat="45.6991656" lon="10.3450862"><ele>371.75</ele><time>2026-04-26T07:57:21.087Z</time></trkpt><trkpt lat="45.6991989" lon="10.3452448"><ele>368.0</ele><time>2026-04-26T07:57:22.087Z</time></trkpt><trkpt lat="45.699262" lon="10.345382"><ele>368.0</ele><time>2026-04-26T07:57:23.087Z</time></trkpt><trkpt lat="45.6993346" lon="10.3455375"><ele>368.0</ele><time>2026-04-26T07:57:24.087Z</time></trkpt><trkpt lat="45.6994004" lon="10.3457212"><ele>368.0</ele><time>2026-04-26T07:57:25.087Z</time></trkpt><trkpt lat="45.6994787" lon="10.3459116"><ele>368.0</ele><time>2026-04-26T07:57:26.087Z</time></trkpt><trkpt lat="45.699574" lon="10.3460998"><ele>368.33333333333337</ele><time>2026-04-26T07:57:27.087Z</time></trkpt><trkpt lat="45.6996934" lon="10.3462886"><ele>368.6666666666667</ele><time>2026-04-26T07:57:28.086Z</time></trkpt><trkpt lat="45.6998174" lon="10.3464784"><ele>369.0</ele><time>2026-04-26T07:57:29.086Z</time></trkpt><trkpt lat="45.6999472" lon="10.3466706"><ele>369.0</ele><time>2026-04-26T07:57:30.087Z</time></trkpt><trkpt lat="45.7000734" lon="10.3468652"><ele>369.0</ele><time>2026-04-26T07:57:31.087Z</time></trkpt><trkpt lat="45.7001918" lon="10.3470724"><ele>369.0</ele><time>2026-04-26T07:57:32.087Z</time></trkpt><trkpt lat="45.7002994" lon="10.3472986"><ele>369.3333333333333</ele><time>2026-04-26T07:57:33.087Z</time></trkpt><trkpt lat="45.7003816" lon="10.3475448"><ele>369.66666666666663</ele><time>2026-04-26T07:57:34.087Z</time></trkpt><trkpt lat="45.7004485" lon="10.34781"><ele>370.0</ele><time>2026-04-26T07:57:35.087Z</time></trkpt><trkpt lat="45.7005188" lon="10.3480772"><ele>370.0</ele><time>2026-04-26T07:57:36.087Z</time></trkpt><trkpt lat="45.7005967" lon="10.3483438"><ele>370.0</ele><time>2026-04-26T07:57:37.087Z</time></trkpt><trkpt lat="45.7006782" lon="10.3486127"><ele>370.0</ele><time>2026-04-26T07:57:38.087Z</time></trkpt><trkpt lat="45.7007655" lon="10.3488824"><ele>366.3333333333333</ele><time>2026-04-26T07:57:39.087Z</time></trkpt><trkpt lat="45.7008509" lon="10.349158"><ele>362.6666666666667</ele><time>2026-04-26T07:57:40.087Z</time></trkpt><trkpt lat="45.7009382" lon="10.3494345"><ele>359.0</ele><time>2026-04-26T07:57:41.087Z</time></trkpt><trkpt lat="45.7010261" lon="10.3497088"><ele>365.33333333333337</ele><time>2026-04-26T07:57:42.086Z</time></trkpt><trkpt lat="45.7011261" lon="10.3499742"><ele>371.6666666666667</ele><time>2026-04-26T07:57:43.087Z</time></trkpt><trkpt lat="45.7012313" lon="10.3502314"><ele>378.0</ele><time>2026-04-26T07:57:44.087Z</time></trkpt><trkpt lat="45.7013439" lon="10.3504899"><ele>374.6666666666667</ele><time>2026-04-26T07:57:45.087Z</time></trkpt><trkpt lat="45.701452" lon="10.3507461"><ele>371.33333333333337</ele><time>2026-04-26T07:57:46.087Z</time></trkpt><trkpt lat="45.7015654" lon="10.3510028"><ele>368.0</ele><time>2026-04-26T07:57:47.087Z</time></trkpt><trkpt lat="45.701676" lon="10.3512624"><ele>365.6666666666667</ele><time>2026-04-26T07:57:48.087Z</time></trkpt><trkpt lat="45.7017875" lon="10.3515174"><ele>363.3333333333333</ele><time>2026-04-26T07:57:49.087Z</time></trkpt><trkpt lat="45.7018982" lon="10.3517681"><ele>361.0</ele><time>2026-04-26T07:57:50.087Z</time></trkpt><trkpt lat="45.7020112" lon="10.3520149"><ele>359.0</ele><time>2026-04-26T07:57:51.087Z</time></trkpt><trkpt lat="45.7021256" lon="10.352258"><ele>357.0</ele><time>2026-04-26T07:57:52.087Z</time></trkpt><trkpt lat="45.7022401" lon="10.3524886"><ele>355.0</ele><time>2026-04-26T07:57:53.087Z</time></trkpt><trkpt lat="45.7023572" lon="10.3526959"><ele>355.0</ele><time>2026-04-26T07:57:54.087Z</time></trkpt><trkpt lat="45.7024784" lon="10.3528942"><ele>355.0</ele><time>2026-04-26T07:57:55.087Z</time></trkpt><trkpt lat="45.702599" lon="10.3530763"><ele>355.0</ele><time>2026-04-26T07:57:56.087Z</time></trkpt><trkpt lat="45.7027159" lon="10.3532538"><ele>361.3333333333333</ele><time>2026-04-26T07:57:57.087Z</time></trkpt><trkpt lat="45.7028257" lon="10.3534201"><ele>367.6666666666667</ele><time>2026-04-26T07:57:58.087Z</time></trkpt><trkpt lat="45.7029209" lon="10.3535989"><ele>374.0</ele><time>2026-04-26T07:57:59.087Z</time></trkpt><trkpt lat="45.7029873" lon="10.3537903"><ele>375.33333333333337</ele><time>2026-04-26T07:58:00.087Z</time></trkpt><trkpt lat="45.7030271" lon="10.3540041"><ele>376.6666666666667</ele><time>2026-04-26T07:58:01.087Z</time></trkpt><trkpt lat="45.7030344" lon="10.3542372"><ele>378.0</ele><time>2026-04-26T07:58:02.087Z</time></trkpt><trkpt lat="45.7030236" lon="10.3544774"><ele>374.3333333333333</ele><time>2026-04-26T07:58:03.087Z</time></trkpt><trkpt lat="45.7030058" lon="10.3547263"><ele>370.66666666666663</ele><time>2026-04-26T07:58:04.087Z</time></trkpt><trkpt lat="45.702983" lon="10.3549818"><ele>367.0</ele><time>2026-04-26T07:58:05.087Z</time></trkpt><trkpt lat="45.7029535" lon="10.3552459"><ele>367.0</ele><time>2026-04-26T07:58:06.087Z</time></trkpt><trkpt lat="45.7029249" lon="10.3555102"><ele>367.0</ele><time>2026-04-26T07:58:07.087Z</time></trkpt><trkpt lat="45.7028959" lon="10.35578"><ele>367.0</ele><time>2026-04-26T07:58:08.086Z</time></trkpt><trkpt lat="45.7028616" lon="10.3560607"><ele>366.3333333333333</ele><time>2026-04-26T07:58:09.086Z</time></trkpt><trkpt lat="45.7028072" lon="10.3563331"><ele>365.6666666666667</ele><time>2026-04-26T07:58:10.087Z</time></trkpt><trkpt lat="45.7027399" lon="10.3565938"><ele>365.0</ele><time>2026-04-26T07:58:11.087Z</time></trkpt><trkpt lat="45.7026754" lon="10.3568462"><ele>359.0</ele><time>2026-04-26T07:58:12.087Z</time></trkpt><trkpt lat="45.7026211" lon="10.3570871"><ele>353.0</ele><time>2026-04-26T07:58:13.087Z</time></trkpt><trkpt lat="45.7025854" lon="10.3573246"><ele>347.0</ele><time>2026-04-26T07:58:14.087Z</time></trkpt><trkpt lat="45.7025847" lon="10.3575694"><ele>347.0</ele><time>2026-04-26T07:58:15.086Z</time></trkpt><trkpt lat="45.7026193" lon="10.3578181"><ele>347.0</ele><time>2026-04-26T07:58:16.087Z</time></trkpt><trkpt lat="45.702663" lon="10.3580721"><ele>347.0</ele><time>2026-04-26T07:58:17.087Z</time></trkpt><trkpt lat="45.7027092" lon="10.3583398"><ele>354.0</ele><time>2026-04-26T07:58:18.086Z</time></trkpt><trkpt lat="45.702755" lon="10.358606"><ele>361.0</ele><time>2026-04-26T07:58:19.087Z</time></trkpt><trkpt lat="45.7027989" lon="10.3588584"><ele>368.0</ele><time>2026-04-26T07:58:20.087Z</time></trkpt><trkpt lat="45.7028362" lon="10.3591011"><ele>368.0</ele><time>2026-04-26T07:58:21.087Z</time></trkpt><trkpt lat="45.7028767" lon="10.3593299"><ele>368.0</ele><time>2026-04-26T07:58:22.087Z</time></trkpt><trkpt lat="45.7028959" lon="10.3595424"><ele>368.0</ele><time>2026-04-26T07:58:23.087Z</time></trkpt><trkpt lat="45.7028887" lon="10.3597563"><ele>366.6666666666667</ele><time>2026-04-26T07:58:24.087Z</time></trkpt><trkpt lat="45.7028391" lon="10.3599636"><ele>365.3333333333333</ele><time>2026-04-26T07:58:25.087Z</time></trkpt><trkpt lat="45.7027663" lon="10.3601812"><ele>364.0</ele><time>2026-04-26T07:58:26.087Z</time></trkpt><trkpt lat="45.7026844" lon="10.3604138"><ele>356.3333333333333</ele><time>2026-04-26T07:58:27.087Z</time></trkpt><trkpt lat="45.7025969" lon="10.3606637"><ele>348.6666666666667</ele><time>2026-04-26T07:58:28.087Z</time></trkpt><trkpt lat="45.7025128" lon="10.360932"><ele>341.0</ele><time>2026-04-26T07:58:29.087Z</time></trkpt><trkpt lat="45.702444" lon="10.3612089"><ele>341.6666666666667</ele><time>2026-04-26T07:58:30.087Z</time></trkpt><trkpt lat="45.7023709" lon="10.3614958"><ele>342.3333333333333</ele><time>2026-04-26T07:58:31.087Z</time></trkpt><trkpt lat="45.7022968" lon="10.3617769"><ele>343.0</ele><time>2026-04-26T07:58:32.087Z</time></trkpt><trkpt lat="45.7022223" lon="10.3620599"><ele>340.3333333333333</ele><time>2026-04-26T07:58:33.086Z</time></trkpt><trkpt lat="45.7021356" lon="10.3623216"><ele>337.6666666666667</ele><time>2026-04-26T07:58:34.087Z</time></trkpt><trkpt lat="45.702037" lon="10.3625643"><ele>335.0</ele><time>2026-04-26T07:58:35.087Z</time></trkpt><trkpt lat="45.7019266" lon="10.3627815"><ele>334.0</ele><time>2026-04-26T07:58:36.087Z</time></trkpt><trkpt lat="45.7018076" lon="10.3629729"><ele>333.0</ele><time>2026-04-26T07:58:37.087Z</time></trkpt><trkpt lat="45.7016909" lon="10.3631473"><ele>332.0</ele><time>2026-04-26T07:58:38.087Z</time></trkpt><trkpt lat="45.7015885" lon="10.3633251"><ele>331.6666666666667</ele><time>2026-04-26T07:58:39.087Z</time></trkpt><trkpt lat="45.7015116" lon="10.3635176"><ele>331.3333333333333</ele><time>2026-04-26T07:58:40.087Z</time></trkpt><trkpt lat="45.7014708" lon="10.3637272"><ele>331.0</ele><time>2026-04-26T07:58:41.087Z</time></trkpt><trkpt lat="45.7014633" lon="10.3639614"><ele>333.0</ele><time>2026-04-26T07:58:42.087Z</time></trkpt><trkpt lat="45.701472" lon="10.3642121"><ele>335.0</ele><time>2026-04-26T07:58:43.087Z</time></trkpt><trkpt lat="45.7014849" lon="10.3644632"><ele>337.0</ele><time>2026-04-26T07:58:44.087Z</time></trkpt><trkpt lat="45.7014973" lon="10.3647165"><ele>337.66666666666663</ele><time>2026-04-26T07:58:45.087Z</time></trkpt><trkpt lat="45.7015005" lon="10.3649687"><ele>338.3333333333333</ele><time>2026-04-26T07:58:46.087Z</time></trkpt><trkpt lat="45.7014779" lon="10.3652167"><ele>339.0</ele><time>2026-04-26T07:58:47.087Z</time></trkpt><trkpt lat="45.7014294" lon="10.3654607"><ele>340.0</ele><time>2026-04-26T07:58:48.087Z</time></trkpt><trkpt lat="45.7013629" lon="10.3657041"><ele>341.0</ele><time>2026-04-26T07:58:49.087Z</time></trkpt><trkpt lat="45.7012872" lon="10.36595"><ele>342.0</ele><time>2026-04-26T07:58:50.086Z</time></trkpt><trkpt lat="45.7012141" lon="10.3661942"><ele>342.6666666666667</ele><time>2026-04-26T07:58:51.087Z</time></trkpt><trkpt lat="45.7011431" lon="10.3664361"><ele>343.33333333333337</ele><time>2026-04-26T07:58:52.086Z</time></trkpt><trkpt lat="45.7010826" lon="10.3666795"><ele>344.0</ele><time>2026-04-26T07:58:53.087Z</time></trkpt><trkpt lat="45.7010329" lon="10.3669262"><ele>337.33333333333337</ele><time>2026-04-26T07:58:54.086Z</time></trkpt><trkpt lat="45.7009978" lon="10.3671822"><ele>330.6666666666667</ele><time>2026-04-26T07:58:55.087Z</time></trkpt><trkpt lat="45.7010199" lon="10.3674518"><ele>324.0</ele><time>2026-04-26T07:58:56.087Z</time></trkpt><trkpt lat="45.7010395" lon="10.3676956"><ele>332.0</ele><time>2026-04-26T07:58:57.087Z</time></trkpt><trkpt lat="45.7010969" lon="10.367931"><ele>340.0</ele><time>2026-04-26T07:58:58.087Z</time></trkpt><trkpt lat="45.7011738" lon="10.3681447"><ele>348.0</ele><time>2026-04-26T07:58:59.087Z</time></trkpt><trkpt lat="45.7012593" lon="10.3683384"><ele>348.0</ele><time>2026-04-26T07:59:00.087Z</time></trkpt><trkpt lat="45.7013313" lon="10.3685323"><ele>348.0</ele><time>2026-04-26T07:59:01.087Z</time></trkpt><trkpt lat="45.7013801" lon="10.3687329"><ele>348.0</ele><time>2026-04-26T07:59:02.086Z</time></trkpt><trkpt lat="45.7014001" lon="10.3689497"><ele>347.3333333333333</ele><time>2026-04-26T07:59:03.087Z</time></trkpt><trkpt lat="45.7013805" lon="10.369195"><ele>346.66666666666663</ele><time>2026-04-26T07:59:04.087Z</time></trkpt><trkpt lat="45.7013426" lon="10.3694561"><ele>346.0</ele><time>2026-04-26T07:59:05.087Z</time></trkpt><trkpt lat="45.7012978" lon="10.3697125"><ele>347.3333333333333</ele><time>2026-04-26T07:59:06.087Z</time></trkpt><trkpt lat="45.7012267" lon="10.3699644"><ele>348.6666666666667</ele><time>2026-04-26T07:59:07.086Z</time></trkpt><trkpt lat="45.701132" lon="10.370201"><ele>350.0</ele><time>2026-04-26T07:59:08.087Z</time></trkpt><trkpt lat="45.701018" lon="10.3704142"><ele>344.0</ele><time>2026-04-26T07:59:09.087Z</time></trkpt><trkpt lat="45.7009023" lon="10.3705926"><ele>338.0</ele><time>2026-04-26T07:59:10.087Z</time></trkpt><trkpt lat="45.7008176" lon="10.3707561"><ele>332.0</ele><time>2026-04-26T07:59:11.087Z</time></trkpt><trkpt lat="45.7007669" lon="10.370935"><ele>326.0</ele><time>2026-04-26T07:59:12.087Z</time></trkpt><trkpt lat="45.7007523" lon="10.3711132"><ele>326.0</ele><time>2026-04-26T07:59:13.086Z</time></trkpt><trkpt lat="45.7007835" lon="10.3713035"><ele>326.0</ele><time>2026-04-26T07:59:14.087Z</time></trkpt><trkpt lat="45.7008321" lon="10.3715217"><ele>326.0</ele><time>2026-04-26T07:59:15.087Z</time></trkpt><trkpt lat="45.7008844" lon="10.3717576"><ele>324.6666666666667</ele><time>2026-04-26T07:59:16.087Z</time></trkpt><trkpt lat="45.7009442" lon="10.372005"><ele>323.3333333333333</ele><time>2026-04-26T07:59:17.086Z</time></trkpt><trkpt lat="45.7010038" lon="10.3722491"><ele>322.0</ele><time>2026-04-26T07:59:18.086Z</time></trkpt><trkpt lat="45.7010527" lon="10.3724858"><ele>321.66666666666663</ele><time>2026-04-26T07:59:19.087Z</time></trkpt><trkpt lat="45.7010799" lon="10.3727317"><ele>321.3333333333333</ele><time>2026-04-26T07:59:20.087Z</time></trkpt><trkpt lat="45.7010839" lon="10.3729843"><ele>321.0</ele><time>2026-04-26T07:59:21.087Z</time></trkpt><trkpt lat="45.7010659" lon="10.3732423"><ele>321.0</ele><time>2026-04-26T07:59:22.087Z</time></trkpt><trkpt lat="45.7010306" lon="10.3735041"><ele>321.0</ele><time>2026-04-26T07:59:23.087Z</time></trkpt><trkpt lat="45.7009878" lon="10.3737667"><ele>321.0</ele><time>2026-04-26T07:59:24.086Z</time></trkpt><trkpt lat="45.7009341" lon="10.3740219"><ele>321.0</ele><time>2026-04-26T07:59:25.087Z</time></trkpt><trkpt lat="45.7008828" lon="10.3742667"><ele>321.0</ele><time>2026-04-26T07:59:26.086Z</time></trkpt><trkpt lat="45.7008556" lon="10.3745179"><ele>321.0</ele><time>2026-04-26T07:59:27.087Z</time></trkpt><trkpt lat="45.700846" lon="10.3747709"><ele>321.0</ele><time>2026-04-26T07:59:28.087Z</time></trkpt><trkpt lat="45.700872" lon="10.3750271"><ele>321.0</ele><time>2026-04-26T07:59:29.087Z</time></trkpt><trkpt lat="45.7009235" lon="10.3752739"><ele>321.0</ele><time>2026-04-26T07:59:30.087Z</time></trkpt><trkpt lat="45.700992" lon="10.375519"><ele>321.0</ele><time>2026-04-26T07:59:31.087Z</time></trkpt><trkpt lat="45.7010765" lon="10.3757622"><ele>321.0</ele><time>2026-04-26T07:59:32.087Z</time></trkpt><trkpt lat="45.7011918" lon="10.3759993"><ele>321.0</ele><time>2026-04-26T07:59:33.086Z</time></trkpt><trkpt lat="45.7013347" lon="10.3762322"><ele>319.0</ele><time>2026-04-26T07:59:34.087Z</time></trkpt><trkpt lat="45.7014913" lon="10.3764787"><ele>317.0</ele><time>2026-04-26T07:59:35.087Z</time></trkpt><trkpt lat="45.701653" lon="10.3767298"><ele>317.0</ele><time>2026-04-26T07:59:36.087Z</time></trkpt><trkpt lat="45.7018218" lon="10.3769974"><ele>317.0</ele><time>2026-04-26T07:59:37.087Z</time></trkpt><trkpt lat="45.7019917" lon="10.3772672"><ele>318.0</ele><time>2026-04-26T07:59:38.087Z</time></trkpt><trkpt lat="45.7021621" lon="10.3775364"><ele>319.0</ele><time>2026-04-26T07:59:39.087Z</time></trkpt><trkpt lat="45.7023312" lon="10.3778055"><ele>316.5</ele><time>2026-04-26T07:59:40.087Z</time></trkpt><trkpt lat="45.7024967" lon="10.3780695"><ele>314.0</ele><time>2026-04-26T07:59:41.087Z</time></trkpt><trkpt lat="45.7026528" lon="10.3783251"><ele>318.0</ele><time>2026-04-26T07:59:42.086Z</time></trkpt><trkpt lat="45.7027971" lon="10.3785682"><ele>322.0</ele><time>2026-04-26T07:59:43.087Z</time></trkpt><trkpt lat="45.7029142" lon="10.3788127"><ele>326.0</ele><time>2026-04-26T07:59:44.087Z</time></trkpt><trkpt lat="45.703007" lon="10.379077"><ele>326.0</ele><time>2026-04-26T07:59:45.087Z</time></trkpt><trkpt lat="45.703072" lon="10.3793769"><ele>326.0</ele><time>2026-04-26T07:59:46.087Z</time></trkpt><trkpt lat="45.7031206" lon="10.3796827"><ele>326.0</ele><time>2026-04-26T07:59:47.086Z</time></trkpt><trkpt lat="45.7031768" lon="10.3799707"><ele>323.0</ele><time>2026-04-26T07:59:48.086Z</time></trkpt><trkpt lat="45.7032211" lon="10.3802511"><ele>320.0</ele><time>2026-04-26T07:59:49.087Z</time></trkpt><trkpt lat="45.7032496" lon="10.3805274"><ele>317.0</ele><time>2026-04-26T07:59:50.087Z</time></trkpt><trkpt lat="45.7032552" lon="10.3807903"><ele>316.33333333333337</ele><time>2026-04-26T07:59:51.087Z</time></trkpt><trkpt lat="45.7032314" lon="10.3810312"><ele>315.6666666666667</ele><time>2026-04-26T07:59:52.087Z</time></trkpt><trkpt lat="45.7031685" lon="10.3812517"><ele>315.0</ele><time>2026-04-26T07:59:53.087Z</time></trkpt><trkpt lat="45.7030677" lon="10.3814618"><ele>318.0</ele><time>2026-04-26T07:59:54.086Z</time></trkpt><trkpt lat="45.7029546" lon="10.3816763"><ele>321.0</ele><time>2026-04-26T07:59:55.087Z</time></trkpt><trkpt lat="45.7028472" lon="10.3819188"><ele>324.0</ele><time>2026-04-26T07:59:56.087Z</time></trkpt><trkpt lat="45.7027524" lon="10.3822042"><ele>322.0</ele><time>2026-04-26T07:59:57.086Z</time></trkpt><trkpt lat="45.7026554" lon="10.3825072"><ele>320.0</ele><time>2026-04-26T07:59:58.087Z</time></trkpt><trkpt lat="45.7025538" lon="10.3827916"><ele>321.33333333333337</ele><time>2026-04-26T07:59:59.087Z</time></trkpt><trkpt lat="45.7024461" lon="10.3830421"><ele>322.6666666666667</ele><time>2026-04-26T08:00:00.087Z</time></trkpt><trkpt lat="45.7023291" lon="10.3832506"><ele>324.0</ele><time>2026-04-26T08:00:01.087Z</time></trkpt><trkpt lat="45.7022061" lon="10.3834392"><ele>324.0</ele><time>2026-04-26T08:00:02.087Z</time></trkpt><trkpt lat="45.7020509" lon="10.3835751"><ele>324.0</ele><time>2026-04-26T08:00:03.087Z</time></trkpt><trkpt lat="45.7019105" lon="10.3837024"><ele>324.0</ele><time>2026-04-26T08:00:04.087Z</time></trkpt><trkpt lat="45.7017913" lon="10.3838335"><ele>321.0</ele><time>2026-04-26T08:00:05.086Z</time></trkpt><trkpt lat="45.7017138" lon="10.3839949"><ele>318.0</ele><time>2026-04-26T08:00:06.087Z</time></trkpt><trkpt lat="45.7016479" lon="10.3841585"><ele>315.0</ele><time>2026-04-26T08:00:07.087Z</time></trkpt><trkpt lat="45.7016161" lon="10.3843409"><ele>312.0</ele><time>2026-04-26T08:00:08.086Z</time></trkpt><trkpt lat="45.7016206" lon="10.3845496"><ele>312.0</ele><time>2026-04-26T08:00:09.086Z</time></trkpt><trkpt lat="45.7016565" lon="10.3847632"><ele>312.0</ele><time>2026-04-26T08:00:10.087Z</time></trkpt><trkpt lat="45.7017042" lon="10.3849803"><ele>312.0</ele><time>2026-04-26T08:00:11.087Z</time></trkpt><trkpt lat="45.7017619" lon="10.3852028"><ele>312.0</ele><time>2026-04-26T08:00:12.087Z</time></trkpt><trkpt lat="45.701819" lon="10.3854301"><ele>312.0</ele><time>2026-04-26T08:00:13.087Z</time></trkpt><trkpt lat="45.701871" lon="10.3856465"><ele>312.0</ele><time>2026-04-26T08:00:14.087Z</time></trkpt><trkpt lat="45.7019178" lon="10.3858438"><ele>311.6</ele><time>2026-04-26T08:00:15.086Z</time></trkpt><trkpt lat="45.7019596" lon="10.386022"><ele>311.2</ele><time>2026-04-26T08:00:16.086Z</time></trkpt><trkpt lat="45.7019977" lon="10.3861786"><ele>310.8</ele><time>2026-04-26T08:00:17.086Z</time></trkpt><trkpt lat="45.7020265" lon="10.3863101"><ele>310.4</ele><time>2026-04-26T08:00:18.087Z</time></trkpt><trkpt lat="45.7020474" lon="10.3864298"><ele>310.0</ele><time>2026-04-26T08:00:19.087Z</time></trkpt><trkpt lat="45.7020548" lon="10.3865423"><ele>309.8571428571429</ele><time>2026-04-26T08:00:20.087Z</time></trkpt><trkpt lat="45.7020525" lon="10.3866487"><ele>309.7142857142857</ele><time>2026-04-26T08:00:21.086Z</time></trkpt><trkpt lat="45.7020314" lon="10.3867534"><ele>309.57142857142856</ele><time>2026-04-26T08:00:22.087Z</time></trkpt><trkpt lat="45.7020075" lon="10.3868549"><ele>309.42857142857144</ele><time>2026-04-26T08:00:23.087Z</time></trkpt><trkpt lat="45.7020011" lon="10.3869599"><ele>309.2857142857143</ele><time>2026-04-26T08:00:24.087Z</time></trkpt><trkpt lat="45.7020245" lon="10.3870492"><ele>309.14285714285717</ele><time>2026-04-26T08:00:25.087Z</time></trkpt><trkpt lat="45.7020744" lon="10.3871093"><ele>309.0</ele><time>2026-04-26T08:00:26.087Z</time></trkpt><trkpt lat="45.7021402" lon="10.3871231"><ele>309.0</ele><time>2026-04-26T08:00:27.087Z</time></trkpt><trkpt lat="45.702206" lon="10.3870926"><ele>309.0</ele><time>2026-04-26T08:00:28.086Z</time></trkpt><trkpt lat="45.7022684" lon="10.3870659"><ele>309.0</ele><time>2026-04-26T08:00:29.087Z</time></trkpt><trkpt lat="45.7023511" lon="10.3870365"><ele>309.0</ele><time>2026-04-26T08:00:30.086Z</time></trkpt><trkpt lat="45.7024337" lon="10.387021"><ele>309.0</ele><time>2026-04-26T08:00:31.087Z</time></trkpt><trkpt lat="45.7025211" lon="10.3870272"><ele>309.0</ele><time>2026-04-26T08:00:32.087Z</time></trkpt><trkpt lat="45.7025938" lon="10.3870098"><ele>309.00000000000006</ele><time>2026-04-26T08:00:33.087Z</time></trkpt><trkpt lat="45.702659" lon="10.3869854"><ele>309.0</ele><time>2026-04-26T08:00:34.087Z</time></trkpt><trkpt lat="45.7027208" lon="10.3870186"><ele>309.0</ele><time>2026-04-26T08:00:35.087Z</time></trkpt><trkpt lat="45.7027844" lon="10.3870466"><ele>309.0</ele><time>2026-04-26T08:00:36.086Z</time></trkpt><trkpt lat="45.7028411" lon="10.3871124"><ele>309.0</ele><time>2026-04-26T08:00:38.087Z</time></trkpt><trkpt lat="45.7028926" lon="10.387187"><ele>309.00000000000006</ele><time>2026-04-26T08:00:41.086Z</time></trkpt><trkpt lat="45.7029775" lon="10.3872621"><ele>309.0</ele><time>2026-04-26T08:00:44.087Z</time></trkpt><trkpt lat="45.7030387" lon="10.3873206"><ele>308.6666666666667</ele><time>2026-04-26T08:00:46.087Z</time></trkpt><trkpt lat="45.7030992" lon="10.3873836"><ele>308.3333333333333</ele><time>2026-04-26T08:00:48.087Z</time></trkpt><trkpt lat="45.7031505" lon="10.3874609"><ele>308.0</ele><time>2026-04-26T08:00:50.087Z</time></trkpt><trkpt lat="45.7031972" lon="10.3875601"><ele>307.66666666666663</ele><time>2026-04-26T08:00:52.086Z</time></trkpt><trkpt lat="45.7032662" lon="10.3876377"><ele>307.3333333333333</ele><time>2026-04-26T08:00:54.087Z</time></trkpt><trkpt lat="45.7033257" lon="10.3876927"><ele>307.0</ele><time>2026-04-26T08:00:56.086Z</time></trkpt><trkpt lat="45.7033891" lon="10.3877655"><ele>307.0</ele><time>2026-04-26T08:00:59.087Z</time></trkpt></trkseg><trkseg><trkpt lat="45.7034813" lon="10.3879298"><ele>307.0</ele><time>2026-04-26T08:36:41.093Z</time></trkpt><trkpt lat="45.703565" lon="10.3880187"><ele>307.0</ele><time>2026-04-26T08:36:44.093Z</time></trkpt><trkpt lat="45.7036587" lon="10.3881529"><ele>307.0</ele><time>2026-04-26T08:36:46.093Z</time></trkpt><trkpt lat="45.7037041" lon="10.388255"><ele>307.0</ele><time>2026-04-26T08:36:47.093Z</time></trkpt><trkpt lat="45.7037569" lon="10.388367"><ele>307.0</ele><time>2026-04-26T08:36:48.093Z</time></trkpt><trkpt lat="45.7038108" lon="10.3884811"><ele>307.2</ele><time>2026-04-26T08:36:49.093Z</time></trkpt><trkpt lat="45.7038653" lon="10.3886006"><ele>307.4</ele><time>2026-04-26T08:36:50.093Z</time></trkpt><trkpt lat="45.7039205" lon="10.3887176"><ele>307.6</ele><time>2026-04-26T08:36:51.093Z</time></trkpt><trkpt lat="45.703977" lon="10.3888405"><ele>307.8</ele><time>2026-04-26T08:36:52.093Z</time></trkpt><trkpt lat="45.7040351" lon="10.3889728"><ele>308.0</ele><time>2026-04-26T08:36:53.093Z</time></trkpt><trkpt lat="45.7040894" lon="10.3891138"><ele>308.0</ele><time>2026-04-26T08:36:54.093Z</time></trkpt><trkpt lat="45.7041459" lon="10.3892602"><ele>308.0</ele><time>2026-04-26T08:36:55.093Z</time></trkpt><trkpt lat="45.7042046" lon="10.3894142"><ele>308.0</ele><time>2026-04-26T08:36:56.093Z</time></trkpt><trkpt lat="45.7042561" lon="10.3895803"><ele>308.0</ele><time>2026-04-26T08:36:57.092Z</time></trkpt><trkpt lat="45.7043039" lon="10.3897671"><ele>308.33333333333337</ele><time>2026-04-26T08:36:58.093Z</time></trkpt><trkpt lat="45.7043531" lon="10.3899679"><ele>308.6666666666667</ele><time>2026-04-26T08:36:59.092Z</time></trkpt><trkpt lat="45.7043973" lon="10.3901798"><ele>309.0</ele><time>2026-04-26T08:37:00.093Z</time></trkpt><trkpt lat="45.7044417" lon="10.390407"><ele>316.3333333333333</ele><time>2026-04-26T08:37:01.093Z</time></trkpt><trkpt lat="45.7044847" lon="10.3906347"><ele>323.66666666666663</ele><time>2026-04-26T08:37:02.093Z</time></trkpt><trkpt lat="45.7045312" lon="10.3908702"><ele>331.0</ele><time>2026-04-26T08:37:03.092Z</time></trkpt><trkpt lat="45.7045794" lon="10.3911106"><ele>329.66666666666663</ele><time>2026-04-26T08:37:04.093Z</time></trkpt><trkpt lat="45.7046254" lon="10.3913509"><ele>328.3333333333333</ele><time>2026-04-26T08:37:05.093Z</time></trkpt><trkpt lat="45.7046711" lon="10.3915989"><ele>327.0</ele><time>2026-04-26T08:37:06.093Z</time></trkpt><trkpt lat="45.7047189" lon="10.3918459"><ele>327.0</ele><time>2026-04-26T08:37:07.093Z</time></trkpt><trkpt lat="45.70477" lon="10.392095"><ele>327.0</ele><time>2026-04-26T08:37:08.092Z</time></trkpt><trkpt lat="45.7048243" lon="10.3923496"><ele>327.0</ele><time>2026-04-26T08:37:09.092Z</time></trkpt><trkpt lat="45.7048752" lon="10.3926037"><ele>325.6666666666667</ele><time>2026-04-26T08:37:10.093Z</time></trkpt><trkpt lat="45.704924" lon="10.3928589"><ele>324.33333333333337</ele><time>2026-04-26T08:37:11.093Z</time></trkpt><trkpt lat="45.704969" lon="10.3931163"><ele>323.0</ele><time>2026-04-26T08:37:12.093Z</time></trkpt><trkpt lat="45.7050136" lon="10.3933714"><ele>321.33333333333337</ele><time>2026-04-26T08:37:13.093Z</time></trkpt><trkpt lat="45.7050597" lon="10.3936263"><ele>319.6666666666667</ele><time>2026-04-26T08:37:14.092Z</time></trkpt><trkpt lat="45.7051077" lon="10.3938796"><ele>318.0</ele><time>2026-04-26T08:37:15.093Z</time></trkpt><trkpt lat="45.7051508" lon="10.3941229"><ele>319.75</ele><time>2026-04-26T08:37:16.093Z</time></trkpt><trkpt lat="45.7051901" lon="10.3943487"><ele>321.5</ele><time>2026-04-26T08:37:17.093Z</time></trkpt><trkpt lat="45.7052328" lon="10.394543"><ele>323.25</ele><time>2026-04-26T08:37:18.093Z</time></trkpt><trkpt lat="45.7052818" lon="10.3947107"><ele>325.0</ele><time>2026-04-26T08:37:19.093Z</time></trkpt><trkpt lat="45.7053305" lon="10.3948687"><ele>325.0</ele><time>2026-04-26T08:37:20.093Z</time></trkpt><trkpt lat="45.70538" lon="10.3950184"><ele>325.0</ele><time>2026-04-26T08:37:21.092Z</time></trkpt><trkpt lat="45.7054331" lon="10.3951619"><ele>325.0</ele><time>2026-04-26T08:37:22.093Z</time></trkpt><trkpt lat="45.7054852" lon="10.3953022"><ele>325.0</ele><time>2026-04-26T08:37:23.093Z</time></trkpt><trkpt lat="45.7055358" lon="10.39545"><ele>323.5</ele><time>2026-04-26T08:37:24.093Z</time></trkpt><trkpt lat="45.7055802" lon="10.3956067"><ele>322.0</ele><time>2026-04-26T08:37:25.092Z</time></trkpt><trkpt lat="45.7056198" lon="10.3957564"><ele>320.5</ele><time>2026-04-26T08:37:26.093Z</time></trkpt><trkpt lat="45.7056594" lon="10.3959116"><ele>319.0</ele><time>2026-04-26T08:37:27.092Z</time></trkpt><trkpt lat="45.7056953" lon="10.3960712"><ele>319.0</ele><time>2026-04-26T08:37:28.093Z</time></trkpt><trkpt lat="45.7057339" lon="10.3962336"><ele>319.0</ele><time>2026-04-26T08:37:29.093Z</time></trkpt><trkpt lat="45.7057672" lon="10.3964008"><ele>319.0</ele><time>2026-04-26T08:37:30.093Z</time></trkpt><trkpt lat="45.7058012" lon="10.396576"><ele>319.0</ele><time>2026-04-26T08:37:31.093Z</time></trkpt><trkpt lat="45.7058365" lon="10.396751"><ele>317.75</ele><time>2026-04-26T08:37:32.092Z</time></trkpt><trkpt lat="45.7058676" lon="10.3969286"><ele>316.5</ele><time>2026-04-26T08:37:33.093Z</time></trkpt><trkpt lat="45.7059054" lon="10.3971154"><ele>315.25</ele><time>2026-04-26T08:37:34.093Z</time></trkpt><trkpt lat="45.7059386" lon="10.3973009"><ele>314.0</ele><time>2026-04-26T08:37:35.093Z</time></trkpt><trkpt lat="45.7059718" lon="10.3974949"><ele>314.0</ele><time>2026-04-26T08:37:36.093Z</time></trkpt><trkpt lat="45.7060059" lon="10.397691"><ele>314.0</ele><time>2026-04-26T08:37:37.093Z</time></trkpt><trkpt lat="45.7060384" lon="10.3978838"><ele>314.0</ele><time>2026-04-26T08:37:38.093Z</time></trkpt><trkpt lat="45.7060693" lon="10.3980724"><ele>314.0</ele><time>2026-04-26T08:37:39.092Z</time></trkpt><trkpt lat="45.7061015" lon="10.398249"><ele>315.75</ele><time>2026-04-26T08:37:40.092Z</time></trkpt><trkpt lat="45.7061319" lon="10.3984152"><ele>317.5</ele><time>2026-04-26T08:37:41.092Z</time></trkpt><trkpt lat="45.7061637" lon="10.3985742"><ele>319.25</ele><time>2026-04-26T08:37:42.093Z</time></trkpt><trkpt lat="45.7061996" lon="10.3987419"><ele>321.0</ele><time>2026-04-26T08:37:43.093Z</time></trkpt><trkpt lat="45.7062397" lon="10.3989076"><ele>321.0</ele><time>2026-04-26T08:37:44.093Z</time></trkpt><trkpt lat="45.7062893" lon="10.3990784"><ele>321.0</ele><time>2026-04-26T08:37:45.093Z</time></trkpt><trkpt lat="45.7063493" lon="10.3992488"><ele>321.0</ele><time>2026-04-26T08:37:46.093Z</time></trkpt><trkpt lat="45.7064201" lon="10.3994203"><ele>321.0</ele><time>2026-04-26T08:37:47.093Z</time></trkpt><trkpt lat="45.706503" lon="10.3995973"><ele>319.6666666666667</ele><time>2026-04-26T08:37:48.093Z</time></trkpt><trkpt lat="45.706591" lon="10.399781"><ele>318.33333333333337</ele><time>2026-04-26T08:37:49.093Z</time></trkpt><trkpt lat="45.7066787" lon="10.3999645"><ele>317.0</ele><time>2026-04-26T08:37:50.093Z</time></trkpt><trkpt lat="45.7067574" lon="10.4001357"><ele>317.0</ele><time>2026-04-26T08:37:51.092Z</time></trkpt><trkpt lat="45.7068321" lon="10.4003033"><ele>317.0</ele><time>2026-04-26T08:37:52.092Z</time></trkpt><trkpt lat="45.7069059" lon="10.4004655"><ele>317.0</ele><time>2026-04-26T08:37:53.093Z</time></trkpt><trkpt lat="45.7069801" lon="10.4006267"><ele>317.0</ele><time>2026-04-26T08:37:54.093Z</time></trkpt><trkpt lat="45.7070595" lon="10.4007849"><ele>317.0</ele><time>2026-04-26T08:37:55.093Z</time></trkpt><trkpt lat="45.7071417" lon="10.4009387"><ele>317.0</ele><time>2026-04-26T08:37:56.093Z</time></trkpt><trkpt lat="45.7072188" lon="10.401086"><ele>317.0</ele><time>2026-04-26T08:37:57.093Z</time></trkpt><trkpt lat="45.707297" lon="10.4012231"><ele>317.0</ele><time>2026-04-26T08:37:58.093Z</time></trkpt><trkpt lat="45.7073708" lon="10.401357"><ele>316.25</ele><time>2026-04-26T08:37:59.093Z</time></trkpt><trkpt lat="45.7074456" lon="10.4014875"><ele>315.5</ele><time>2026-04-26T08:38:00.093Z</time></trkpt><trkpt lat="45.7075205" lon="10.401623"><ele>314.75</ele><time>2026-04-26T08:38:01.093Z</time></trkpt><trkpt lat="45.7075991" lon="10.4017666"><ele>314.0</ele><time>2026-04-26T08:38:02.093Z</time></trkpt><trkpt lat="45.7076789" lon="10.4019271"><ele>314.25</ele><time>2026-04-26T08:38:03.093Z</time></trkpt><trkpt lat="45.7077624" lon="10.4021017"><ele>314.5</ele><time>2026-04-26T08:38:04.093Z</time></trkpt><trkpt lat="45.7078469" lon="10.4022781"><ele>314.75</ele><time>2026-04-26T08:38:05.093Z</time></trkpt><trkpt lat="45.7079272" lon="10.4024495"><ele>315.0</ele><time>2026-04-26T08:38:06.092Z</time></trkpt><trkpt lat="45.7080105" lon="10.4026355"><ele>315.0</ele><time>2026-04-26T08:38:07.092Z</time></trkpt><trkpt lat="45.7080968" lon="10.4028514"><ele>315.0</ele><time>2026-04-26T08:38:08.093Z</time></trkpt><trkpt lat="45.7081892" lon="10.4030874"><ele>315.0</ele><time>2026-04-26T08:38:09.093Z</time></trkpt><trkpt lat="45.7082874" lon="10.4033213"><ele>315.3333333333333</ele><time>2026-04-26T08:38:10.093Z</time></trkpt><trkpt lat="45.7083778" lon="10.4035364"><ele>315.66666666666663</ele><time>2026-04-26T08:38:11.093Z</time></trkpt><trkpt lat="45.7084607" lon="10.4037434"><ele>316.0</ele><time>2026-04-26T08:38:12.093Z</time></trkpt><trkpt lat="45.708541" lon="10.4039361"><ele>316.75</ele><time>2026-04-26T08:38:13.093Z</time></trkpt><trkpt lat="45.7086165" lon="10.4041106"><ele>317.5</ele><time>2026-04-26T08:38:14.092Z</time></trkpt><trkpt lat="45.7086898" lon="10.40428"><ele>318.25</ele><time>2026-04-26T08:38:15.092Z</time></trkpt><trkpt lat="45.7087582" lon="10.4044443"><ele>319.0</ele><time>2026-04-26T08:38:16.093Z</time></trkpt><trkpt lat="45.7088251" lon="10.4046055"><ele>318.75</ele><time>2026-04-26T08:38:17.092Z</time></trkpt><trkpt lat="45.7088969" lon="10.4047487"><ele>318.5</ele><time>2026-04-26T08:38:18.093Z</time></trkpt><trkpt lat="45.7089733" lon="10.4048707"><ele>318.25</ele><time>2026-04-26T08:38:19.093Z</time></trkpt><trkpt lat="45.7090578" lon="10.4049751"><ele>318.0</ele><time>2026-04-26T08:38:20.093Z</time></trkpt><trkpt lat="45.7091536" lon="10.4050644"><ele>318.0</ele><time>2026-04-26T08:38:21.092Z</time></trkpt><trkpt lat="45.7092534" lon="10.4051381"><ele>318.0</ele><time>2026-04-26T08:38:22.093Z</time></trkpt><trkpt lat="45.7093548" lon="10.405203"><ele>318.0</ele><time>2026-04-26T08:38:23.093Z</time></trkpt><trkpt lat="45.709462" lon="10.405246"><ele>318.0</ele><time>2026-04-26T08:38:24.093Z</time></trkpt><trkpt lat="45.709575" lon="10.4052733"><ele>318.0</ele><time>2026-04-26T08:38:25.093Z</time></trkpt><trkpt lat="45.7096837" lon="10.4053071"><ele>318.0</ele><time>2026-04-26T08:38:26.093Z</time></trkpt><trkpt lat="45.7097923" lon="10.4053376"><ele>318.0</ele><time>2026-04-26T08:38:27.093Z</time></trkpt><trkpt lat="45.7099012" lon="10.4053682"><ele>318.0</ele><time>2026-04-26T08:38:28.092Z</time></trkpt><trkpt lat="45.7099996" lon="10.4053986"><ele>318.0</ele><time>2026-04-26T08:38:29.092Z</time></trkpt><trkpt lat="45.7100895" lon="10.4054324"><ele>318.0</ele><time>2026-04-26T08:38:30.093Z</time></trkpt><trkpt lat="45.7101799" lon="10.4054693"><ele>318.6</ele><time>2026-04-26T08:38:31.093Z</time></trkpt><trkpt lat="45.7102709" lon="10.4055099"><ele>319.20000000000005</ele><time>2026-04-26T08:38:32.093Z</time></trkpt><trkpt lat="45.7103627" lon="10.4055563"><ele>319.8</ele><time>2026-04-26T08:38:33.093Z</time></trkpt><trkpt lat="45.7104585" lon="10.4056111"><ele>320.40000000000003</ele><time>2026-04-26T08:38:34.093Z</time></trkpt><trkpt lat="45.7105496" lon="10.4056779"><ele>321.0</ele><time>2026-04-26T08:38:35.093Z</time></trkpt><trkpt lat="45.7106463" lon="10.4057557"><ele>321.0</ele><time>2026-04-26T08:38:36.093Z</time></trkpt><trkpt lat="45.7107461" lon="10.4058495"><ele>321.0</ele><time>2026-04-26T08:38:37.093Z</time></trkpt><trkpt lat="45.7108411" lon="10.4059581"><ele>321.0</ele><time>2026-04-26T08:38:38.092Z</time></trkpt><trkpt lat="45.710931" lon="10.4060783"><ele>321.0</ele><time>2026-04-26T08:38:39.093Z</time></trkpt><trkpt lat="45.7110179" lon="10.4062042"><ele>322.75</ele><time>2026-04-26T08:38:40.092Z</time></trkpt><trkpt lat="45.7111078" lon="10.4063262"><ele>324.5</ele><time>2026-04-26T08:38:41.093Z</time></trkpt><trkpt lat="45.7111943" lon="10.4064514"><ele>326.25</ele><time>2026-04-26T08:38:42.093Z</time></trkpt><trkpt lat="45.711277" lon="10.4065728"><ele>328.0</ele><time>2026-04-26T08:38:43.093Z</time></trkpt><trkpt lat="45.7113619" lon="10.4066984"><ele>328.0</ele><time>2026-04-26T08:38:44.093Z</time></trkpt><trkpt lat="45.7114506" lon="10.4068343"><ele>328.0</ele><time>2026-04-26T08:38:45.093Z</time></trkpt><trkpt lat="45.7115416" lon="10.4069822"><ele>328.0</ele><time>2026-04-26T08:38:46.093Z</time></trkpt><trkpt lat="45.7116309" lon="10.4071355"><ele>328.0</ele><time>2026-04-26T08:38:47.093Z</time></trkpt><trkpt lat="45.7117117" lon="10.4072991"><ele>329.0</ele><time>2026-04-26T08:38:48.093Z</time></trkpt><trkpt lat="45.7117862" lon="10.4074743"><ele>330.0</ele><time>2026-04-26T08:38:49.093Z</time></trkpt><trkpt lat="45.7118615" lon="10.4076598"><ele>331.0</ele><time>2026-04-26T08:38:50.093Z</time></trkpt><trkpt lat="45.7119308" lon="10.4078515"><ele>332.0</ele><time>2026-04-26T08:38:51.093Z</time></trkpt><trkpt lat="45.712" lon="10.408047"><ele>332.0</ele><time>2026-04-26T08:38:52.093Z</time></trkpt><trkpt lat="45.7120716" lon="10.4082458"><ele>332.0</ele><time>2026-04-26T08:38:53.093Z</time></trkpt><trkpt lat="45.7121441" lon="10.4084478"><ele>332.0</ele><time>2026-04-26T08:38:54.093Z</time></trkpt><trkpt lat="45.712217" lon="10.408648"><ele>332.0</ele><time>2026-04-26T08:38:55.093Z</time></trkpt><trkpt lat="45.7122912" lon="10.4088571"><ele>332.0</ele><time>2026-04-26T08:38:56.093Z</time></trkpt><trkpt lat="45.7123679" lon="10.4090684"><ele>332.0</ele><time>2026-04-26T08:38:57.093Z</time></trkpt><trkpt lat="45.7124503" lon="10.4092928"><ele>332.0</ele><time>2026-04-26T08:38:58.092Z</time></trkpt><trkpt lat="45.7125374" lon="10.4095366"><ele>332.0</ele><time>2026-04-26T08:38:59.092Z</time></trkpt><trkpt lat="45.712631" lon="10.4097933"><ele>332.0</ele><time>2026-04-26T08:39:00.093Z</time></trkpt><trkpt lat="45.712731" lon="10.4100593"><ele>336.0</ele><time>2026-04-26T08:39:01.093Z</time></trkpt><trkpt lat="45.7128337" lon="10.4103434"><ele>340.0</ele><time>2026-04-26T08:39:02.093Z</time></trkpt><trkpt lat="45.7129369" lon="10.4106348"><ele>340.0</ele><time>2026-04-26T08:39:03.093Z</time></trkpt><trkpt lat="45.7130345" lon="10.4109159"><ele>340.0</ele><time>2026-04-26T08:39:04.092Z</time></trkpt><trkpt lat="45.7131267" lon="10.4111767"><ele>340.0</ele><time>2026-04-26T08:39:05.093Z</time></trkpt><trkpt lat="45.7132098" lon="10.4114092"><ele>337.66666666666663</ele><time>2026-04-26T08:39:06.093Z</time></trkpt><trkpt lat="45.7133033" lon="10.4116381"><ele>335.3333333333333</ele><time>2026-04-26T08:39:07.093Z</time></trkpt><trkpt lat="45.7134052" lon="10.4118425"><ele>333.0</ele><time>2026-04-26T08:39:08.093Z</time></trkpt><trkpt lat="45.7135263" lon="10.4120234"><ele>336.0</ele><time>2026-04-26T08:39:09.093Z</time></trkpt><trkpt lat="45.7136645" lon="10.4121768"><ele>339.0</ele><time>2026-04-26T08:39:10.093Z</time></trkpt><trkpt lat="45.7138147" lon="10.4123074"><ele>342.0</ele><time>2026-04-26T08:39:11.092Z</time></trkpt><trkpt lat="45.7139797" lon="10.4124252"><ele>342.0</ele><time>2026-04-26T08:39:12.093Z</time></trkpt><trkpt lat="45.7141586" lon="10.4125371"><ele>342.0</ele><time>2026-04-26T08:39:13.093Z</time></trkpt><trkpt lat="45.7143377" lon="10.4126557"><ele>342.0</ele><time>2026-04-26T08:39:14.093Z</time></trkpt><trkpt lat="45.7145025" lon="10.4127843"><ele>343.0</ele><time>2026-04-26T08:39:15.093Z</time></trkpt><trkpt lat="45.7146643" lon="10.4129133"><ele>344.0</ele><time>2026-04-26T08:39:16.093Z</time></trkpt><trkpt lat="45.7148215" lon="10.4130505"><ele>345.0</ele><time>2026-04-26T08:39:17.093Z</time></trkpt><trkpt lat="45.7149682" lon="10.4132016"><ele>345.0</ele><time>2026-04-26T08:39:18.093Z</time></trkpt><trkpt lat="45.7151042" lon="10.4133615"><ele>345.0</ele><time>2026-04-26T08:39:19.093Z</time></trkpt><trkpt lat="45.7152315" lon="10.4135331"><ele>345.0</ele><time>2026-04-26T08:39:20.093Z</time></trkpt><trkpt lat="45.7153511" lon="10.4137064"><ele>342.6666666666667</ele><time>2026-04-26T08:39:21.093Z</time></trkpt><trkpt lat="45.7154639" lon="10.4138725"><ele>340.33333333333337</ele><time>2026-04-26T08:39:22.092Z</time></trkpt><trkpt lat="45.7155703" lon="10.4140252"><ele>338.0</ele><time>2026-04-26T08:39:23.093Z</time></trkpt><trkpt lat="45.7156698" lon="10.4141706"><ele>338.0</ele><time>2026-04-26T08:39:24.092Z</time></trkpt><trkpt lat="45.7157618" lon="10.4143114"><ele>338.0</ele><time>2026-04-26T08:39:25.093Z</time></trkpt><trkpt lat="45.7158526" lon="10.4144455"><ele>338.0</ele><time>2026-04-26T08:39:26.093Z</time></trkpt><trkpt lat="45.7159394" lon="10.414576"><ele>338.0</ele><time>2026-04-26T08:39:27.093Z</time></trkpt><trkpt lat="45.7160291" lon="10.414709"><ele>341.5</ele><time>2026-04-26T08:39:28.093Z</time></trkpt><trkpt lat="45.7161189" lon="10.4148465"><ele>345.0</ele><time>2026-04-26T08:39:29.093Z</time></trkpt><trkpt lat="45.716207" lon="10.41498"><ele>348.5</ele><time>2026-04-26T08:39:30.093Z</time></trkpt><trkpt lat="45.7162867" lon="10.4151117"><ele>352.0</ele><time>2026-04-26T08:39:31.093Z</time></trkpt><trkpt lat="45.7163634" lon="10.4152357"><ele>352.0</ele><time>2026-04-26T08:39:32.093Z</time></trkpt><trkpt lat="45.716429" lon="10.4153525"><ele>352.0</ele><time>2026-04-26T08:39:33.092Z</time></trkpt><trkpt lat="45.7164846" lon="10.4154784"><ele>352.0</ele><time>2026-04-26T08:39:34.093Z</time></trkpt><trkpt lat="45.7165412" lon="10.4156109"><ele>352.0</ele><time>2026-04-26T08:39:35.092Z</time></trkpt><trkpt lat="45.716634" lon="10.4157305"><ele>352.0</ele><time>2026-04-26T08:39:36.093Z</time></trkpt><trkpt lat="45.7167417" lon="10.4158537"><ele>350.3333333333333</ele><time>2026-04-26T08:39:37.092Z</time></trkpt><trkpt lat="45.7168573" lon="10.4160068"><ele>348.6666666666667</ele><time>2026-04-26T08:39:38.093Z</time></trkpt><trkpt lat="45.7169811" lon="10.4161911"><ele>347.0</ele><time>2026-04-26T08:39:39.092Z</time></trkpt><trkpt lat="45.7171237" lon="10.4163865"><ele>347.0</ele><time>2026-04-26T08:39:40.093Z</time></trkpt><trkpt lat="45.7172845" lon="10.4166008"><ele>347.0</ele><time>2026-04-26T08:39:41.093Z</time></trkpt><trkpt lat="45.7174496" lon="10.4168466"><ele>347.0</ele><time>2026-04-26T08:39:42.092Z</time></trkpt><trkpt lat="45.7176186" lon="10.4171086"><ele>347.0</ele><time>2026-04-26T08:39:43.093Z</time></trkpt><trkpt lat="45.7177903" lon="10.4173762"><ele>348.0</ele><time>2026-04-26T08:39:44.093Z</time></trkpt><trkpt lat="45.7179597" lon="10.417625"><ele>349.0</ele><time>2026-04-26T08:39:45.092Z</time></trkpt><trkpt lat="45.7181227" lon="10.4178629"><ele>342.66666666666663</ele><time>2026-04-26T08:39:46.093Z</time></trkpt><trkpt lat="45.7182757" lon="10.4180912"><ele>336.3333333333333</ele><time>2026-04-26T08:39:47.093Z</time></trkpt><trkpt lat="45.7184248" lon="10.4183109"><ele>330.0</ele><time>2026-04-26T08:39:48.093Z</time></trkpt><trkpt lat="45.7185636" lon="10.4185234"><ele>330.6666666666667</ele><time>2026-04-26T08:39:49.093Z</time></trkpt><trkpt lat="45.7187009" lon="10.4187251"><ele>331.33333333333337</ele><time>2026-04-26T08:39:50.093Z</time></trkpt><trkpt lat="45.7188378" lon="10.418924"><ele>332.0</ele><time>2026-04-26T08:39:51.093Z</time></trkpt><trkpt lat="45.7189702" lon="10.4191248"><ele>332.0</ele><time>2026-04-26T08:39:52.092Z</time></trkpt><trkpt lat="45.7191052" lon="10.4193254"><ele>332.0</ele><time>2026-04-26T08:39:53.093Z</time></trkpt><trkpt lat="45.7192424" lon="10.4195253"><ele>332.0</ele><time>2026-04-26T08:39:54.093Z</time></trkpt><trkpt lat="45.7193755" lon="10.4197294"><ele>333.0</ele><time>2026-04-26T08:39:55.092Z</time></trkpt><trkpt lat="45.7195117" lon="10.4199301"><ele>334.0</ele><time>2026-04-26T08:39:56.093Z</time></trkpt><trkpt lat="45.7196517" lon="10.4201316"><ele>335.0</ele><time>2026-04-26T08:39:57.093Z</time></trkpt><trkpt lat="45.719789" lon="10.420335"><ele>333.6666666666667</ele><time>2026-04-26T08:39:58.093Z</time></trkpt><trkpt lat="45.7199284" lon="10.4205382"><ele>332.3333333333333</ele><time>2026-04-26T08:39:59.093Z</time></trkpt><trkpt lat="45.7200688" lon="10.4207412"><ele>331.0</ele><time>2026-04-26T08:40:00.093Z</time></trkpt><trkpt lat="45.7202086" lon="10.4209374"><ele>330.3333333333333</ele><time>2026-04-26T08:40:01.093Z</time></trkpt><trkpt lat="45.7203478" lon="10.4211365"><ele>329.6666666666667</ele><time>2026-04-26T08:40:02.093Z</time></trkpt><trkpt lat="45.7204924" lon="10.4213429"><ele>329.0</ele><time>2026-04-26T08:40:03.093Z</time></trkpt><trkpt lat="45.7206232" lon="10.4215444"><ele>329.0</ele><time>2026-04-26T08:40:04.093Z</time></trkpt><trkpt lat="45.7207574" lon="10.4217485"><ele>329.0</ele><time>2026-04-26T08:40:05.093Z</time></trkpt><trkpt lat="45.7208882" lon="10.4219619"><ele>329.0</ele><time>2026-04-26T08:40:06.093Z</time></trkpt><trkpt lat="45.7210071" lon="10.422195"><ele>328.6666666666667</ele><time>2026-04-26T08:40:07.092Z</time></trkpt><trkpt lat="45.7211147" lon="10.4224555"><ele>328.3333333333333</ele><time>2026-04-26T08:40:08.093Z</time></trkpt><trkpt lat="45.7212171" lon="10.4227303"><ele>328.0</ele><time>2026-04-26T08:40:09.092Z</time></trkpt><trkpt lat="45.7213143" lon="10.4230114"><ele>328.0</ele><time>2026-04-26T08:40:10.093Z</time></trkpt><trkpt lat="45.7214114" lon="10.4232936"><ele>328.0</ele><time>2026-04-26T08:40:11.093Z</time></trkpt><trkpt lat="45.7215047" lon="10.4235621"><ele>328.0</ele><time>2026-04-26T08:40:12.092Z</time></trkpt><trkpt lat="45.7216016" lon="10.423818"><ele>328.66666666666663</ele><time>2026-04-26T08:40:13.093Z</time></trkpt><trkpt lat="45.7217107" lon="10.4240541"><ele>329.3333333333333</ele><time>2026-04-26T08:40:14.093Z</time></trkpt><trkpt lat="45.7218417" lon="10.4242694"><ele>330.0</ele><time>2026-04-26T08:40:15.093Z</time></trkpt><trkpt lat="45.7219954" lon="10.4244647"><ele>329.6666666666667</ele><time>2026-04-26T08:40:16.093Z</time></trkpt><trkpt lat="45.7221538" lon="10.4246534"><ele>329.33333333333337</ele><time>2026-04-26T08:40:17.093Z</time></trkpt><trkpt lat="45.7223048" lon="10.4248433"><ele>329.0</ele><time>2026-04-26T08:40:18.092Z</time></trkpt><trkpt lat="45.7224429" lon="10.4250584"><ele>329.0</ele><time>2026-04-26T08:40:19.092Z</time></trkpt><trkpt lat="45.7225723" lon="10.4253005"><ele>329.0</ele><time>2026-04-26T08:40:20.093Z</time></trkpt><trkpt lat="45.7226991" lon="10.4255524"><ele>329.0</ele><time>2026-04-26T08:40:21.093Z</time></trkpt><trkpt lat="45.7228264" lon="10.4257925"><ele>330.0</ele><time>2026-04-26T08:40:22.093Z</time></trkpt><trkpt lat="45.7229474" lon="10.4260394"><ele>331.0</ele><time>2026-04-26T08:40:23.093Z</time></trkpt><trkpt lat="45.7230739" lon="10.4262786"><ele>332.0</ele><time>2026-04-26T08:40:24.093Z</time></trkpt><trkpt lat="45.7232132" lon="10.4265033"><ele>332.0</ele><time>2026-04-26T08:40:25.093Z</time></trkpt><trkpt lat="45.723359" lon="10.4267171"><ele>332.0</ele><time>2026-04-26T08:40:26.093Z</time></trkpt><trkpt lat="45.723518" lon="10.4269179"><ele>332.0</ele><time>2026-04-26T08:40:27.093Z</time></trkpt><trkpt lat="45.7236786" lon="10.4271184"><ele>332.6666666666667</ele><time>2026-04-26T08:40:28.093Z</time></trkpt><trkpt lat="45.7238352" lon="10.4273186"><ele>333.3333333333333</ele><time>2026-04-26T08:40:29.093Z</time></trkpt><trkpt lat="45.7239912" lon="10.4275216"><ele>334.0</ele><time>2026-04-26T08:40:30.092Z</time></trkpt><trkpt lat="45.7241442" lon="10.4277313"><ele>334.0</ele><time>2026-04-26T08:40:31.093Z</time></trkpt><trkpt lat="45.7242934" lon="10.4279293"><ele>334.0</ele><time>2026-04-26T08:40:32.093Z</time></trkpt><trkpt lat="45.7244341" lon="10.4281289"><ele>334.0</ele><time>2026-04-26T08:40:33.093Z</time></trkpt><trkpt lat="45.7245751" lon="10.4283338"><ele>334.0</ele><time>2026-04-26T08:40:34.093Z</time></trkpt><trkpt lat="45.7247051" lon="10.4285586"><ele>334.0</ele><time>2026-04-26T08:40:35.093Z</time></trkpt><trkpt lat="45.724819" lon="10.4287983"><ele>334.0</ele><time>2026-04-26T08:40:36.092Z</time></trkpt><trkpt lat="45.7249289" lon="10.4290393"><ele>334.0</ele><time>2026-04-26T08:40:37.093Z</time></trkpt><trkpt lat="45.7250554" lon="10.429269"><ele>334.0</ele><time>2026-04-26T08:40:38.093Z</time></trkpt><trkpt lat="45.7251993" lon="10.4294912"><ele>334.0</ele><time>2026-04-26T08:40:39.092Z</time></trkpt><trkpt lat="45.7253594" lon="10.4297104"><ele>334.0</ele><time>2026-04-26T08:40:40.093Z</time></trkpt><trkpt lat="45.7255299" lon="10.4299334"><ele>334.0</ele><time>2026-04-26T08:40:41.093Z</time></trkpt><trkpt lat="45.7257041" lon="10.4301677"><ele>334.0</ele><time>2026-04-26T08:40:42.093Z</time></trkpt><trkpt lat="45.72588" lon="10.4304067"><ele>334.0</ele><time>2026-04-26T08:40:43.092Z</time></trkpt><trkpt lat="45.7260544" lon="10.4306513"><ele>334.5</ele><time>2026-04-26T08:40:44.093Z</time></trkpt><trkpt lat="45.7262307" lon="10.4308912"><ele>335.0</ele><time>2026-04-26T08:40:45.093Z</time></trkpt><trkpt lat="45.7264052" lon="10.431134"><ele>331.5</ele><time>2026-04-26T08:40:46.092Z</time></trkpt><trkpt lat="45.7265845" lon="10.43137"><ele>328.0</ele><time>2026-04-26T08:40:47.093Z</time></trkpt><trkpt lat="45.7267698" lon="10.431594"><ele>329.0</ele><time>2026-04-26T08:40:48.093Z</time></trkpt><trkpt lat="45.7269479" lon="10.4318026"><ele>330.0</ele><time>2026-04-26T08:40:49.093Z</time></trkpt><trkpt lat="45.7271196" lon="10.4319972"><ele>331.0</ele><time>2026-04-26T08:40:50.093Z</time></trkpt><trkpt lat="45.7272818" lon="10.4321813"><ele>331.0</ele><time>2026-04-26T08:40:51.093Z</time></trkpt><trkpt lat="45.7274231" lon="10.4323357"><ele>331.0</ele><time>2026-04-26T08:40:52.093Z</time></trkpt><trkpt lat="45.7275498" lon="10.4324537"><ele>331.0</ele><time>2026-04-26T08:40:53.093Z</time></trkpt><trkpt lat="45.7276788" lon="10.4325454"><ele>332.75</ele><time>2026-04-26T08:40:54.093Z</time></trkpt><trkpt lat="45.7278091" lon="10.4325885"><ele>334.5</ele><time>2026-04-26T08:40:55.093Z</time></trkpt><trkpt lat="45.727944" lon="10.4325722"><ele>336.25</ele><time>2026-04-26T08:40:56.092Z</time></trkpt><trkpt lat="45.7280823" lon="10.4325325"><ele>338.0</ele><time>2026-04-26T08:40:57.093Z</time></trkpt><trkpt lat="45.728224" lon="10.4325133"><ele>338.0</ele><time>2026-04-26T08:40:58.093Z</time></trkpt><trkpt lat="45.7283668" lon="10.4325333"><ele>338.0</ele><time>2026-04-26T08:40:59.093Z</time></trkpt><trkpt lat="45.728511" lon="10.4326073"><ele>338.0</ele><time>2026-04-26T08:41:00.093Z</time></trkpt><trkpt lat="45.7286522" lon="10.4327262"><ele>338.6666666666667</ele><time>2026-04-26T08:41:01.093Z</time></trkpt><trkpt lat="45.7287852" lon="10.4328857"><ele>339.3333333333333</ele><time>2026-04-26T08:41:02.093Z</time></trkpt><trkpt lat="45.728921" lon="10.4330712"><ele>340.0</ele><time>2026-04-26T08:41:03.093Z</time></trkpt><trkpt lat="45.7290443" lon="10.4332775"><ele>340.0</ele><time>2026-04-26T08:41:04.093Z</time></trkpt><trkpt lat="45.7291529" lon="10.4335008"><ele>340.0</ele><time>2026-04-26T08:41:05.093Z</time></trkpt><trkpt lat="45.7292662" lon="10.433716"><ele>340.0</ele><time>2026-04-26T08:41:06.093Z</time></trkpt><trkpt lat="45.7293941" lon="10.4339123"><ele>339.66666666666663</ele><time>2026-04-26T08:41:07.093Z</time></trkpt><trkpt lat="45.7295229" lon="10.434076"><ele>339.3333333333333</ele><time>2026-04-26T08:41:08.093Z</time></trkpt><trkpt lat="45.7296675" lon="10.4342074"><ele>339.0</ele><time>2026-04-26T08:41:09.093Z</time></trkpt><trkpt lat="45.7298282" lon="10.4343102"><ele>339.0</ele><time>2026-04-26T08:41:10.093Z</time></trkpt><trkpt lat="45.7300013" lon="10.4344023"><ele>339.0</ele><time>2026-04-26T08:41:11.092Z</time></trkpt><trkpt lat="45.7301644" lon="10.4344874"><ele>339.0</ele><time>2026-04-26T08:41:12.093Z</time></trkpt><trkpt lat="45.730315" lon="10.4345583"><ele>340.0</ele><time>2026-04-26T08:41:13.092Z</time></trkpt><trkpt lat="45.7304635" lon="10.4345974"><ele>341.0</ele><time>2026-04-26T08:41:14.093Z</time></trkpt><trkpt lat="45.7306153" lon="10.434584"><ele>342.0</ele><time>2026-04-26T08:41:15.093Z</time></trkpt><trkpt lat="45.7307752" lon="10.4345334"><ele>342.0</ele><time>2026-04-26T08:41:16.092Z</time></trkpt><trkpt lat="45.7309378" lon="10.43446"><ele>342.0</ele><time>2026-04-26T08:41:17.093Z</time></trkpt><trkpt lat="45.7311058" lon="10.4343748"><ele>342.0</ele><time>2026-04-26T08:41:18.093Z</time></trkpt><trkpt lat="45.7312804" lon="10.4342801"><ele>343.3333333333333</ele><time>2026-04-26T08:41:19.093Z</time></trkpt><trkpt lat="45.7314497" lon="10.4341885"><ele>344.66666666666663</ele><time>2026-04-26T08:41:20.093Z</time></trkpt><trkpt lat="45.7316074" lon="10.4340997"><ele>346.0</ele><time>2026-04-26T08:41:21.092Z</time></trkpt><trkpt lat="45.7317443" lon="10.4340225"><ele>346.0</ele><time>2026-04-26T08:41:22.093Z</time></trkpt><trkpt lat="45.7318788" lon="10.4339755"><ele>346.0</ele><time>2026-04-26T08:41:23.093Z</time></trkpt><trkpt lat="45.7320127" lon="10.4339693"><ele>346.0</ele><time>2026-04-26T08:41:24.093Z</time></trkpt><trkpt lat="45.7321511" lon="10.4340155"><ele>346.0</ele><time>2026-04-26T08:41:25.093Z</time></trkpt><trkpt lat="45.7322944" lon="10.434087"><ele>346.3333333333333</ele><time>2026-04-26T08:41:26.093Z</time></trkpt><trkpt lat="45.7324455" lon="10.434158"><ele>346.6666666666667</ele><time>2026-04-26T08:41:27.093Z</time></trkpt><trkpt lat="45.7326018" lon="10.4342299"><ele>347.0</ele><time>2026-04-26T08:41:28.093Z</time></trkpt><trkpt lat="45.732756" lon="10.4343059"><ele>350.6666666666667</ele><time>2026-04-26T08:41:29.093Z</time></trkpt><trkpt lat="45.7329122" lon="10.4343848"><ele>354.3333333333333</ele><time>2026-04-26T08:41:30.093Z</time></trkpt><trkpt lat="45.7330664" lon="10.4344705"><ele>358.0</ele><time>2026-04-26T08:41:31.093Z</time></trkpt><trkpt lat="45.7332151" lon="10.4345504"><ele>358.0</ele><time>2026-04-26T08:41:32.093Z</time></trkpt><trkpt lat="45.7333678" lon="10.4346066"><ele>358.0</ele><time>2026-04-26T08:41:33.093Z</time></trkpt><trkpt lat="45.7335303" lon="10.434631"><ele>358.0</ele><time>2026-04-26T08:41:34.093Z</time></trkpt><trkpt lat="45.7337036" lon="10.4346157"><ele>360.3333333333333</ele><time>2026-04-26T08:41:35.093Z</time></trkpt><trkpt lat="45.7338921" lon="10.4345977"><ele>362.6666666666667</ele><time>2026-04-26T08:41:36.093Z</time></trkpt><trkpt lat="45.7340856" lon="10.4345913"><ele>365.0</ele><time>2026-04-26T08:41:37.093Z</time></trkpt><trkpt lat="45.7342765" lon="10.4345882"><ele>365.6666666666667</ele><time>2026-04-26T08:41:38.093Z</time></trkpt><trkpt lat="45.7344637" lon="10.4345606"><ele>366.3333333333333</ele><time>2026-04-26T08:41:39.092Z</time></trkpt><trkpt lat="45.734636" lon="10.4345096"><ele>367.0</ele><time>2026-04-26T08:41:40.093Z</time></trkpt><trkpt lat="45.7348097" lon="10.434459"><ele>367.0</ele><time>2026-04-26T08:41:41.093Z</time></trkpt><trkpt lat="45.7349875" lon="10.4344446"><ele>367.0</ele><time>2026-04-26T08:41:42.093Z</time></trkpt><trkpt lat="45.7351716" lon="10.4344735"><ele>367.0</ele><time>2026-04-26T08:41:43.093Z</time></trkpt><trkpt lat="45.7353602" lon="10.4345498"><ele>363.66666666666663</ele><time>2026-04-26T08:41:44.093Z</time></trkpt><trkpt lat="45.7355464" lon="10.434671"><ele>360.3333333333333</ele><time>2026-04-26T08:41:45.093Z</time></trkpt><trkpt lat="45.7357418" lon="10.4348098"><ele>357.0</ele><time>2026-04-26T08:41:46.093Z</time></trkpt><trkpt lat="45.7359384" lon="10.4349475"><ele>364.0</ele><time>2026-04-26T08:41:47.092Z</time></trkpt><trkpt lat="45.7361312" lon="10.4350859"><ele>371.0</ele><time>2026-04-26T08:41:48.093Z</time></trkpt><trkpt lat="45.7363161" lon="10.4352114"><ele>378.0</ele><time>2026-04-26T08:41:49.093Z</time></trkpt><trkpt lat="45.7364955" lon="10.4353082"><ele>378.0</ele><time>2026-04-26T08:41:50.093Z</time></trkpt><trkpt lat="45.736663" lon="10.4353845"><ele>378.0</ele><time>2026-04-26T08:41:51.093Z</time></trkpt><trkpt lat="45.7368164" lon="10.4354756"><ele>378.0</ele><time>2026-04-26T08:41:52.093Z</time></trkpt><trkpt lat="45.7369528" lon="10.4356177"><ele>378.6666666666667</ele><time>2026-04-26T08:41:53.093Z</time></trkpt><trkpt lat="45.7370814" lon="10.4357929"><ele>379.33333333333337</ele><time>2026-04-26T08:41:54.093Z</time></trkpt><trkpt lat="45.7372096" lon="10.4359589"><ele>380.0</ele><time>2026-04-26T08:41:55.093Z</time></trkpt><trkpt lat="45.7373245" lon="10.4361202"><ele>380.0</ele><time>2026-04-26T08:41:56.093Z</time></trkpt><trkpt lat="45.7374393" lon="10.4362695"><ele>380.0</ele><time>2026-04-26T08:41:57.093Z</time></trkpt><trkpt lat="45.7375577" lon="10.4363429"><ele>380.0</ele><time>2026-04-26T08:41:58.092Z</time></trkpt><trkpt lat="45.7376903" lon="10.4363746"><ele>380.0</ele><time>2026-04-26T08:41:59.093Z</time></trkpt><trkpt lat="45.7378337" lon="10.4363762"><ele>381.75</ele><time>2026-04-26T08:42:00.093Z</time></trkpt><trkpt lat="45.7379728" lon="10.4364101"><ele>383.5</ele><time>2026-04-26T08:42:01.092Z</time></trkpt><trkpt lat="45.7380897" lon="10.4364902"><ele>385.25</ele><time>2026-04-26T08:42:02.093Z</time></trkpt><trkpt lat="45.7381888" lon="10.4366149"><ele>387.0</ele><time>2026-04-26T08:42:03.093Z</time></trkpt><trkpt lat="45.7382858" lon="10.4367611"><ele>387.0</ele><time>2026-04-26T08:42:04.093Z</time></trkpt><trkpt lat="45.7383851" lon="10.4369033"><ele>387.0</ele><time>2026-04-26T08:42:05.092Z</time></trkpt><trkpt lat="45.7384871" lon="10.437033"><ele>387.0</ele><time>2026-04-26T08:42:06.092Z</time></trkpt><trkpt lat="45.7385866" lon="10.4371536"><ele>387.0</ele><time>2026-04-26T08:42:07.092Z</time></trkpt><trkpt lat="45.7386716" lon="10.4372886"><ele>387.20000000000005</ele><time>2026-04-26T08:42:08.093Z</time></trkpt><trkpt lat="45.7387117" lon="10.4374428"><ele>387.4</ele><time>2026-04-26T08:42:09.093Z</time></trkpt><trkpt lat="45.7387459" lon="10.4375939"><ele>387.6</ele><time>2026-04-26T08:42:10.092Z</time></trkpt><trkpt lat="45.7387702" lon="10.4377383"><ele>387.79999999999995</ele><time>2026-04-26T08:42:11.093Z</time></trkpt><trkpt lat="45.7387911" lon="10.4378809"><ele>388.0</ele><time>2026-04-26T08:42:12.093Z</time></trkpt><trkpt lat="45.7388098" lon="10.4380167"><ele>388.00000000000006</ele><time>2026-04-26T08:42:13.093Z</time></trkpt><trkpt lat="45.7388313" lon="10.4381359"><ele>388.0</ele><time>2026-04-26T08:42:14.093Z</time></trkpt><trkpt lat="45.7388394" lon="10.4382534"><ele>388.0</ele><time>2026-04-26T08:42:15.093Z</time></trkpt><trkpt lat="45.7388484" lon="10.4383739"><ele>388.0</ele><time>2026-04-26T08:42:16.092Z</time></trkpt><trkpt lat="45.7388508" lon="10.4384843"><ele>388.00000000000006</ele><time>2026-04-26T08:42:17.093Z</time></trkpt><trkpt lat="45.7388708" lon="10.4385949"><ele>388.0</ele><time>2026-04-26T08:42:18.093Z</time></trkpt><trkpt lat="45.7388869" lon="10.4387063"><ele>387.00000000000006</ele><time>2026-04-26T08:42:19.093Z</time></trkpt><trkpt lat="45.7389432" lon="10.4388043"><ele>386.0</ele><time>2026-04-26T08:42:20.093Z</time></trkpt><trkpt lat="45.7389969" lon="10.4389077"><ele>385.0</ele><time>2026-04-26T08:42:21.092Z</time></trkpt><trkpt lat="45.739047" lon="10.439002"><ele>384.0</ele><time>2026-04-26T08:42:22.092Z</time></trkpt><trkpt lat="45.7391019" lon="10.439099"><ele>383.0</ele><time>2026-04-26T08:42:23.093Z</time></trkpt><trkpt lat="45.7391723" lon="10.4391765"><ele>382.0</ele><time>2026-04-26T08:42:24.092Z</time></trkpt><trkpt lat="45.7392432" lon="10.4392716"><ele>382.0</ele><time>2026-04-26T08:42:25.093Z</time></trkpt><trkpt lat="45.7392916" lon="10.4394029"><ele>382.0</ele><time>2026-04-26T08:42:26.092Z</time></trkpt><trkpt lat="45.739325" lon="10.4395513"><ele>382.0</ele><time>2026-04-26T08:42:27.093Z</time></trkpt><trkpt lat="45.7393468" lon="10.4396972"><ele>382.0</ele><time>2026-04-26T08:42:28.093Z</time></trkpt><trkpt lat="45.739377" lon="10.4398487"><ele>382.0</ele><time>2026-04-26T08:42:29.093Z</time></trkpt><trkpt lat="45.739409" lon="10.4400024"><ele>386.0</ele><time>2026-04-26T08:42:30.093Z</time></trkpt><trkpt lat="45.7394375" lon="10.4401618"><ele>390.0</ele><time>2026-04-26T08:42:31.092Z</time></trkpt><trkpt lat="45.7394665" lon="10.4403311"><ele>394.0</ele><time>2026-04-26T08:42:32.093Z</time></trkpt><trkpt lat="45.7394958" lon="10.4405058"><ele>398.0</ele><time>2026-04-26T08:42:33.093Z</time></trkpt><trkpt lat="45.7395208" lon="10.4406825"><ele>398.0</ele><time>2026-04-26T08:42:34.092Z</time></trkpt><trkpt lat="45.7395435" lon="10.44086"><ele>398.0</ele><time>2026-04-26T08:42:35.093Z</time></trkpt><trkpt lat="45.7395677" lon="10.4410401"><ele>398.0</ele><time>2026-04-26T08:42:36.093Z</time></trkpt><trkpt lat="45.7395946" lon="10.4412165"><ele>398.0</ele><time>2026-04-26T08:42:37.092Z</time></trkpt><trkpt lat="45.7396168" lon="10.4413922"><ele>395.5</ele><time>2026-04-26T08:42:38.093Z</time></trkpt><trkpt lat="45.7396393" lon="10.4415703"><ele>393.0</ele><time>2026-04-26T08:42:39.092Z</time></trkpt><trkpt lat="45.7396647" lon="10.4417556"><ele>390.5</ele><time>2026-04-26T08:42:40.093Z</time></trkpt><trkpt lat="45.7396917" lon="10.4419461"><ele>388.0</ele><time>2026-04-26T08:42:41.093Z</time></trkpt><trkpt lat="45.7397192" lon="10.4421434"><ele>385.75</ele><time>2026-04-26T08:42:42.093Z</time></trkpt><trkpt lat="45.7397478" lon="10.4423422"><ele>383.5</ele><time>2026-04-26T08:42:43.093Z</time></trkpt><trkpt lat="45.7397757" lon="10.44254"><ele>381.25</ele><time>2026-04-26T08:42:44.092Z</time></trkpt><trkpt lat="45.7398026" lon="10.4427383"><ele>379.0</ele><time>2026-04-26T08:42:45.093Z</time></trkpt><trkpt lat="45.7398253" lon="10.4429341"><ele>375.25</ele><time>2026-04-26T08:42:46.093Z</time></trkpt><trkpt lat="45.7398503" lon="10.4431206"><ele>371.5</ele><time>2026-04-26T08:42:47.092Z</time></trkpt><trkpt lat="45.7398735" lon="10.4433055"><ele>367.75</ele><time>2026-04-26T08:42:48.093Z</time></trkpt><trkpt lat="45.7399055" lon="10.4434842"><ele>364.0</ele><time>2026-04-26T08:42:49.092Z</time></trkpt><trkpt lat="45.7399289" lon="10.4436635"><ele>362.25</ele><time>2026-04-26T08:42:50.092Z</time></trkpt><trkpt lat="45.7399519" lon="10.4438428"><ele>360.5</ele><time>2026-04-26T08:42:51.092Z</time></trkpt><trkpt lat="45.7399796" lon="10.444024"><ele>358.75</ele><time>2026-04-26T08:42:52.093Z</time></trkpt><trkpt lat="45.7400016" lon="10.444192"><ele>357.0</ele><time>2026-04-26T08:42:53.093Z</time></trkpt><trkpt lat="45.7400144" lon="10.4443468"><ele>357.0</ele><time>2026-04-26T08:42:54.093Z</time></trkpt><trkpt lat="45.7400022" lon="10.4444802"><ele>357.0</ele><time>2026-04-26T08:42:55.093Z</time></trkpt><trkpt lat="45.739948" lon="10.444588"><ele>357.0</ele><time>2026-04-26T08:42:56.093Z</time></trkpt><trkpt lat="45.7398567" lon="10.4446615"><ele>357.0</ele><time>2026-04-26T08:42:57.092Z</time></trkpt><trkpt lat="45.7397335" lon="10.4446998"><ele>357.0</ele><time>2026-04-26T08:42:58.093Z</time></trkpt><trkpt lat="45.7395942" lon="10.4447245"><ele>356.3333333333333</ele><time>2026-04-26T08:42:59.093Z</time></trkpt><trkpt lat="45.7394526" lon="10.4447705"><ele>355.66666666666663</ele><time>2026-04-26T08:43:00.092Z</time></trkpt><trkpt lat="45.7393129" lon="10.4448532"><ele>355.0</ele><time>2026-04-26T08:43:01.093Z</time></trkpt><trkpt lat="45.7391753" lon="10.4449892"><ele>355.0</ele><time>2026-04-26T08:43:02.093Z</time></trkpt><trkpt lat="45.7390372" lon="10.4451484"><ele>355.0</ele><time>2026-04-26T08:43:03.092Z</time></trkpt><trkpt lat="45.7388959" lon="10.4453162"><ele>355.0</ele><time>2026-04-26T08:43:04.092Z</time></trkpt><trkpt lat="45.7387578" lon="10.4454599"><ele>353.66666666666663</ele><time>2026-04-26T08:43:05.093Z</time></trkpt><trkpt lat="45.7386223" lon="10.4455969"><ele>352.3333333333333</ele><time>2026-04-26T08:43:06.093Z</time></trkpt><trkpt lat="45.738491" lon="10.4457246"><ele>351.0</ele><time>2026-04-26T08:43:07.093Z</time></trkpt><trkpt lat="45.7383672" lon="10.445848"><ele>351.0</ele><time>2026-04-26T08:43:08.093Z</time></trkpt><trkpt lat="45.7382501" lon="10.4459619"><ele>351.0</ele><time>2026-04-26T08:43:09.093Z</time></trkpt><trkpt lat="45.7381348" lon="10.4460677"><ele>351.0</ele><time>2026-04-26T08:43:10.093Z</time></trkpt><trkpt lat="45.7380174" lon="10.4461743"><ele>351.0</ele><time>2026-04-26T08:43:11.092Z</time></trkpt><trkpt lat="45.7379084" lon="10.4462875"><ele>351.5</ele><time>2026-04-26T08:43:12.093Z</time></trkpt><trkpt lat="45.737793" lon="10.4464119"><ele>352.0</ele><time>2026-04-26T08:43:13.093Z</time></trkpt><trkpt lat="45.7376763" lon="10.4465296"><ele>352.5</ele><time>2026-04-26T08:43:14.092Z</time></trkpt><trkpt lat="45.7375583" lon="10.4466513"><ele>353.0</ele><time>2026-04-26T08:43:15.093Z</time></trkpt><trkpt lat="45.7374369" lon="10.4467641"><ele>353.0</ele><time>2026-04-26T08:43:16.093Z</time></trkpt><trkpt lat="45.7373125" lon="10.4468785"><ele>353.0</ele><time>2026-04-26T08:43:17.093Z</time></trkpt><trkpt lat="45.737177" lon="10.4469808"><ele>353.0</ele><time>2026-04-26T08:43:18.093Z</time></trkpt><trkpt lat="45.7370321" lon="10.447079"><ele>356.0</ele><time>2026-04-26T08:43:19.093Z</time></trkpt><trkpt lat="45.7368711" lon="10.4471752"><ele>359.0</ele><time>2026-04-26T08:43:20.093Z</time></trkpt><trkpt lat="45.7367085" lon="10.4472745"><ele>362.0</ele><time>2026-04-26T08:43:21.093Z</time></trkpt><trkpt lat="45.7365429" lon="10.4473721"><ele>362.0</ele><time>2026-04-26T08:43:22.093Z</time></trkpt><trkpt lat="45.7363833" lon="10.4474745"><ele>362.0</ele><time>2026-04-26T08:43:23.093Z</time></trkpt><trkpt lat="45.7362242" lon="10.4475821"><ele>362.0</ele><time>2026-04-26T08:43:24.092Z</time></trkpt><trkpt lat="45.7360674" lon="10.4477056"><ele>365.0</ele><time>2026-04-26T08:43:25.093Z</time></trkpt><trkpt lat="45.7359271" lon="10.4478525"><ele>368.0</ele><time>2026-04-26T08:43:26.093Z</time></trkpt><trkpt lat="45.7357902" lon="10.4480055"><ele>371.0</ele><time>2026-04-26T08:43:27.093Z</time></trkpt><trkpt lat="45.7356556" lon="10.4481544"><ele>371.0</ele><time>2026-04-26T08:43:28.092Z</time></trkpt><trkpt lat="45.7355399" lon="10.4483157"><ele>371.0</ele><time>2026-04-26T08:43:29.092Z</time></trkpt><trkpt lat="45.7354371" lon="10.4484913"><ele>371.0</ele><time>2026-04-26T08:43:30.093Z</time></trkpt><trkpt lat="45.7353528" lon="10.448687"><ele>368.75</ele><time>2026-04-26T08:43:31.093Z</time></trkpt><trkpt lat="45.7352673" lon="10.4488718"><ele>366.5</ele><time>2026-04-26T08:43:32.093Z</time></trkpt><trkpt lat="45.7351783" lon="10.4490332"><ele>364.25</ele><time>2026-04-26T08:43:33.093Z</time></trkpt><trkpt lat="45.7351085" lon="10.4492043"><ele>362.0</ele><time>2026-04-26T08:43:34.093Z</time></trkpt><trkpt lat="45.7350694" lon="10.449392"><ele>362.0</ele><time>2026-04-26T08:43:35.093Z</time></trkpt><trkpt lat="45.7350503" lon="10.4495673"><ele>362.0</ele><time>2026-04-26T08:43:36.093Z</time></trkpt><trkpt lat="45.7350383" lon="10.4497289"><ele>362.0</ele><time>2026-04-26T08:43:37.093Z</time></trkpt><trkpt lat="45.7350229" lon="10.4498914"><ele>362.0</ele><time>2026-04-26T08:43:38.092Z</time></trkpt><trkpt lat="45.735018" lon="10.4500556"><ele>364.0</ele><time>2026-04-26T08:43:39.093Z</time></trkpt><trkpt lat="45.7350386" lon="10.4502282"><ele>366.0</ele><time>2026-04-26T08:43:40.092Z</time></trkpt><trkpt lat="45.7350889" lon="10.4503959"><ele>368.0</ele><time>2026-04-26T08:43:41.093Z</time></trkpt><trkpt lat="45.7351514" lon="10.4505489"><ele>370.0</ele><time>2026-04-26T08:43:42.093Z</time></trkpt><trkpt lat="45.7352142" lon="10.4507069"><ele>378.75</ele><time>2026-04-26T08:43:43.093Z</time></trkpt><trkpt lat="45.7352585" lon="10.4508761"><ele>387.5</ele><time>2026-04-26T08:43:44.093Z</time></trkpt><trkpt lat="45.7352773" lon="10.4510491"><ele>396.25</ele><time>2026-04-26T08:43:45.093Z</time></trkpt><trkpt lat="45.7352787" lon="10.4512224"><ele>405.0</ele><time>2026-04-26T08:43:46.093Z</time></trkpt><trkpt lat="45.735265" lon="10.4513912"><ele>406.5</ele><time>2026-04-26T08:43:47.093Z</time></trkpt><trkpt lat="45.7352415" lon="10.4515499"><ele>408.0</ele><time>2026-04-26T08:43:48.093Z</time></trkpt><trkpt lat="45.7352006" lon="10.4517038"><ele>409.5</ele><time>2026-04-26T08:43:49.093Z</time></trkpt><trkpt lat="45.7351587" lon="10.4518531"><ele>411.0</ele><time>2026-04-26T08:43:50.092Z</time></trkpt><trkpt lat="45.7351082" lon="10.4519955"><ele>406.0</ele><time>2026-04-26T08:43:51.093Z</time></trkpt><trkpt lat="45.7350549" lon="10.4521285"><ele>401.0</ele><time>2026-04-26T08:43:52.093Z</time></trkpt><trkpt lat="45.7350008" lon="10.452264"><ele>396.0</ele><time>2026-04-26T08:43:53.093Z</time></trkpt><trkpt lat="45.7349426" lon="10.4523957"><ele>391.0</ele><time>2026-04-26T08:43:54.093Z</time></trkpt><trkpt lat="45.7348771" lon="10.4525299"><ele>386.0</ele><time>2026-04-26T08:43:55.092Z</time></trkpt><trkpt lat="45.7348091" lon="10.4526706"><ele>386.0</ele><time>2026-04-26T08:43:56.093Z</time></trkpt><trkpt lat="45.7347243" lon="10.4527967"><ele>386.0</ele><time>2026-04-26T08:43:57.093Z</time></trkpt><trkpt lat="45.7346332" lon="10.4529084"><ele>386.0</ele><time>2026-04-26T08:43:58.093Z</time></trkpt><trkpt lat="45.7345453" lon="10.4530104"><ele>386.0</ele><time>2026-04-26T08:43:59.092Z</time></trkpt><trkpt lat="45.7344529" lon="10.4530801"><ele>385.6</ele><time>2026-04-26T08:44:00.093Z</time></trkpt><trkpt lat="45.7343607" lon="10.4531484"><ele>385.20000000000005</ele><time>2026-04-26T08:44:01.093Z</time></trkpt><trkpt lat="45.7342697" lon="10.4532085"><ele>384.79999999999995</ele><time>2026-04-26T08:44:02.093Z</time></trkpt><trkpt lat="45.7341874" lon="10.4532998"><ele>384.4</ele><time>2026-04-26T08:44:03.093Z</time></trkpt><trkpt lat="45.7341274" lon="10.4534361"><ele>384.0</ele><time>2026-04-26T08:44:04.093Z</time></trkpt><trkpt lat="45.7340767" lon="10.453589"><ele>384.0</ele><time>2026-04-26T08:44:05.093Z</time></trkpt><trkpt lat="45.7340272" lon="10.4537385"><ele>384.0</ele><time>2026-04-26T08:44:06.093Z</time></trkpt><trkpt lat="45.7339729" lon="10.4538844"><ele>384.0</ele><time>2026-04-26T08:44:07.093Z</time></trkpt><trkpt lat="45.7339207" lon="10.4540222"><ele>384.0</ele><time>2026-04-26T08:44:08.093Z</time></trkpt><trkpt lat="45.7338754" lon="10.4541583"><ele>384.0</ele><time>2026-04-26T08:44:09.093Z</time></trkpt><trkpt lat="45.7338298" lon="10.4542795"><ele>384.6</ele><time>2026-04-26T08:44:10.093Z</time></trkpt><trkpt lat="45.7337736" lon="10.4543877"><ele>385.2</ele><time>2026-04-26T08:44:11.093Z</time></trkpt><trkpt lat="45.7337072" lon="10.4544899"><ele>385.8</ele><time>2026-04-26T08:44:12.093Z</time></trkpt><trkpt lat="45.7336309" lon="10.4545834"><ele>386.40000000000003</ele><time>2026-04-26T08:44:13.093Z</time></trkpt><trkpt lat="45.7335604" lon="10.4546847"><ele>387.0</ele><time>2026-04-26T08:44:14.092Z</time></trkpt><trkpt lat="45.7335135" lon="10.4548069"><ele>387.0</ele><time>2026-04-26T08:44:15.092Z</time></trkpt><trkpt lat="45.7334926" lon="10.4549526"><ele>387.0</ele><time>2026-04-26T08:44:16.093Z</time></trkpt><trkpt lat="45.733507" lon="10.4551141"><ele>387.0</ele><time>2026-04-26T08:44:17.093Z</time></trkpt><trkpt lat="45.7335479" lon="10.455286"><ele>387.0</ele><time>2026-04-26T08:44:18.093Z</time></trkpt><trkpt lat="45.7336063" lon="10.4554509"><ele>385.25</ele><time>2026-04-26T08:44:19.093Z</time></trkpt><trkpt lat="45.7336664" lon="10.4556036"><ele>383.5</ele><time>2026-04-26T08:44:20.092Z</time></trkpt><trkpt lat="45.7337227" lon="10.4557527"><ele>381.75</ele><time>2026-04-26T08:44:21.093Z</time></trkpt><trkpt lat="45.7337795" lon="10.4559021"><ele>380.0</ele><time>2026-04-26T08:44:22.092Z</time></trkpt><trkpt lat="45.7338347" lon="10.4560517"><ele>380.0</ele><time>2026-04-26T08:44:23.092Z</time></trkpt><trkpt lat="45.7338854" lon="10.4561984"><ele>380.0</ele><time>2026-04-26T08:44:24.093Z</time></trkpt><trkpt lat="45.7339368" lon="10.4563427"><ele>380.0</ele><time>2026-04-26T08:44:25.092Z</time></trkpt><trkpt lat="45.7339886" lon="10.4564962"><ele>380.0</ele><time>2026-04-26T08:44:26.093Z</time></trkpt><trkpt lat="45.7340398" lon="10.4566467"><ele>380.4</ele><time>2026-04-26T08:44:27.093Z</time></trkpt><trkpt lat="45.7340855" lon="10.4567881"><ele>380.8</ele><time>2026-04-26T08:44:28.093Z</time></trkpt><trkpt lat="45.73413" lon="10.4569203"><ele>381.20000000000005</ele><time>2026-04-26T08:44:29.092Z</time></trkpt><trkpt lat="45.7341752" lon="10.4570444"><ele>381.6</ele><time>2026-04-26T08:44:30.093Z</time></trkpt><trkpt lat="45.7342165" lon="10.4571644"><ele>382.0</ele><time>2026-04-26T08:44:31.093Z</time></trkpt><trkpt lat="45.7342506" lon="10.4572791"><ele>382.0</ele><time>2026-04-26T08:44:32.092Z</time></trkpt><trkpt lat="45.7342838" lon="10.4573867"><ele>382.0</ele><time>2026-04-26T08:44:33.093Z</time></trkpt><trkpt lat="45.7343137" lon="10.4574816"><ele>382.0</ele><time>2026-04-26T08:44:34.093Z</time></trkpt><trkpt lat="45.7343629" lon="10.4576188"><ele>382.0</ele><time>2026-04-26T08:44:36.093Z</time></trkpt><trkpt lat="45.7343943" lon="10.4577004"><ele>382.0</ele><time>2026-04-26T08:44:38.093Z</time></trkpt><trkpt lat="45.7343942" lon="10.4578349"><ele>382.0</ele><time>2026-04-26T08:44:41.093Z</time></trkpt><trkpt lat="45.7343272" lon="10.4579191"><ele>381.0</ele><time>2026-04-26T08:44:43.093Z</time></trkpt><trkpt lat="45.7342412" lon="10.4580068"><ele>380.0</ele><time>2026-04-26T08:44:45.093Z</time></trkpt><trkpt lat="45.7341799" lon="10.4581109"><ele>379.0</ele><time>2026-04-26T08:44:47.093Z</time></trkpt><trkpt lat="45.7341151" lon="10.4581935"><ele>378.0</ele><time>2026-04-26T08:44:49.092Z</time></trkpt><trkpt lat="45.7340441" lon="10.458283"><ele>377.0</ele><time>2026-04-26T08:44:51.093Z</time></trkpt><trkpt lat="45.7339932" lon="10.4583488"><ele>377.0</ele><time>2026-04-26T08:44:53.093Z</time></trkpt><trkpt lat="45.7339534" lon="10.4584245"><ele>377.0</ele><time>2026-04-26T08:44:55.093Z</time></trkpt><trkpt lat="45.733901" lon="10.4585118"><ele>377.0</ele><time>2026-04-26T08:44:57.092Z</time></trkpt><trkpt lat="45.7338294" lon="10.4586194"><ele>377.0</ele><time>2026-04-26T08:44:59.093Z</time></trkpt><trkpt lat="45.7337777" lon="10.4586865"><ele>377.0</ele><time>2026-04-26T08:45:00.093Z</time></trkpt><trkpt lat="45.7337224" lon="10.4587666"><ele>377.0</ele><time>2026-04-26T08:45:01.093Z</time></trkpt><trkpt lat="45.7336582" lon="10.4588545"><ele>376.40000000000003</ele><time>2026-04-26T08:45:02.092Z</time></trkpt><trkpt lat="45.7335815" lon="10.4589435"><ele>375.8</ele><time>2026-04-26T08:45:03.093Z</time></trkpt><trkpt lat="45.7335042" lon="10.4590494"><ele>375.2</ele><time>2026-04-26T08:45:04.093Z</time></trkpt><trkpt lat="45.7334389" lon="10.4591546"><ele>374.6</ele><time>2026-04-26T08:45:05.093Z</time></trkpt><trkpt lat="45.7333783" lon="10.4592438"><ele>374.0</ele><time>2026-04-26T08:45:06.092Z</time></trkpt><trkpt lat="45.7333212" lon="10.4593262"><ele>373.5</ele><time>2026-04-26T08:45:07.093Z</time></trkpt><trkpt lat="45.7332672" lon="10.4594019"><ele>373.0</ele><time>2026-04-26T08:45:08.092Z</time></trkpt><trkpt lat="45.7332243" lon="10.4594739"><ele>372.5</ele><time>2026-04-26T08:45:09.093Z</time></trkpt><trkpt lat="45.7332019" lon="10.4595616"><ele>372.0</ele><time>2026-04-26T08:45:10.093Z</time></trkpt><trkpt lat="45.73319" lon="10.4596535"><ele>371.5</ele><time>2026-04-26T08:45:11.092Z</time></trkpt><trkpt lat="45.7332369" lon="10.4597826"><ele>371.0</ele><time>2026-04-26T08:45:12.092Z</time></trkpt><trkpt lat="45.7332881" lon="10.4599119"><ele>370.5</ele><time>2026-04-26T08:45:13.093Z</time></trkpt><trkpt lat="45.733354" lon="10.4600539"><ele>370.0</ele><time>2026-04-26T08:45:14.093Z</time></trkpt><trkpt lat="45.7334278" lon="10.4602037"><ele>369.5</ele><time>2026-04-26T08:45:15.093Z</time></trkpt><trkpt lat="45.7335059" lon="10.4603651"><ele>369.0</ele><time>2026-04-26T08:45:16.093Z</time></trkpt><trkpt lat="45.7335836" lon="10.4605255"><ele>368.75</ele><time>2026-04-26T08:45:17.093Z</time></trkpt><trkpt lat="45.7336669" lon="10.4606907"><ele>368.5</ele><time>2026-04-26T08:45:18.093Z</time></trkpt><trkpt lat="45.733759" lon="10.4608609"><ele>368.25</ele><time>2026-04-26T08:45:19.093Z</time></trkpt><trkpt lat="45.7338539" lon="10.4610373"><ele>368.0</ele><time>2026-04-26T08:45:20.093Z</time></trkpt><trkpt lat="45.7339546" lon="10.4612222"><ele>369.0</ele><time>2026-04-26T08:45:21.093Z</time></trkpt><trkpt lat="45.7340645" lon="10.4614234"><ele>370.0</ele><time>2026-04-26T08:45:22.093Z</time></trkpt><trkpt lat="45.7341805" lon="10.4616455"><ele>371.0</ele><time>2026-04-26T08:45:23.093Z</time></trkpt><trkpt lat="45.7342951" lon="10.4618803"><ele>370.6666666666667</ele><time>2026-04-26T08:45:24.093Z</time></trkpt><trkpt lat="45.7344175" lon="10.4621112"><ele>370.3333333333333</ele><time>2026-04-26T08:45:25.093Z</time></trkpt><trkpt lat="45.7345481" lon="10.4623319"><ele>370.0</ele><time>2026-04-26T08:45:26.093Z</time></trkpt><trkpt lat="45.7346883" lon="10.4625427"><ele>370.0</ele><time>2026-04-26T08:45:27.093Z</time></trkpt><trkpt lat="45.7348333" lon="10.4627497"><ele>370.0</ele><time>2026-04-26T08:45:28.093Z</time></trkpt><trkpt lat="45.734965" lon="10.4629551"><ele>370.0</ele><time>2026-04-26T08:45:29.093Z</time></trkpt><trkpt lat="45.7350835" lon="10.4631531"><ele>370.0</ele><time>2026-04-26T08:45:30.093Z</time></trkpt><trkpt lat="45.7351847" lon="10.4633343"><ele>370.0</ele><time>2026-04-26T08:45:31.093Z</time></trkpt><trkpt lat="45.7352743" lon="10.4634992"><ele>370.0</ele><time>2026-04-26T08:45:32.093Z</time></trkpt><trkpt lat="45.7353345" lon="10.4636734"><ele>370.0</ele><time>2026-04-26T08:45:33.093Z</time></trkpt><trkpt lat="45.7353627" lon="10.4638506"><ele>370.0</ele><time>2026-04-26T08:45:34.092Z</time></trkpt><trkpt lat="45.7353749" lon="10.464035"><ele>370.0</ele><time>2026-04-26T08:45:35.093Z</time></trkpt><trkpt lat="45.7353827" lon="10.4642229"><ele>370.0</ele><time>2026-04-26T08:45:36.093Z</time></trkpt><trkpt lat="45.7353912" lon="10.4644131"><ele>370.0</ele><time>2026-04-26T08:45:37.093Z</time></trkpt><trkpt lat="45.7353932" lon="10.4645882"><ele>370.6</ele><time>2026-04-26T08:45:38.093Z</time></trkpt><trkpt lat="45.7353993" lon="10.4647529"><ele>371.2</ele><time>2026-04-26T08:45:39.093Z</time></trkpt><trkpt lat="45.7354038" lon="10.4648997"><ele>371.79999999999995</ele><time>2026-04-26T08:45:40.093Z</time></trkpt><trkpt lat="45.7354017" lon="10.4650277"><ele>372.4</ele><time>2026-04-26T08:45:41.093Z</time></trkpt><trkpt lat="45.7354041" lon="10.4651507"><ele>373.0</ele><time>2026-04-26T08:45:42.093Z</time></trkpt><trkpt lat="45.7354048" lon="10.4652659"><ele>373.0</ele><time>2026-04-26T08:45:43.093Z</time></trkpt><trkpt lat="45.7354087" lon="10.4653791"><ele>373.0</ele><time>2026-04-26T08:45:44.093Z</time></trkpt><trkpt lat="45.735407" lon="10.4654896"><ele>373.0</ele><time>2026-04-26T08:45:45.093Z</time></trkpt><trkpt lat="45.7354089" lon="10.4655973"><ele>373.0</ele><time>2026-04-26T08:45:46.093Z</time></trkpt><trkpt lat="45.7354086" lon="10.4656997"><ele>373.0</ele><time>2026-04-26T08:45:47.093Z</time></trkpt><trkpt lat="45.7354202" lon="10.4658667"><ele>373.0</ele><time>2026-04-26T08:45:49.093Z</time></trkpt><trkpt lat="45.7354146" lon="10.4659939"><ele>373.0</ele><time>2026-04-26T08:45:51.092Z</time></trkpt><trkpt lat="45.735411" lon="10.4661333"><ele>373.0</ele><time>2026-04-26T08:45:53.093Z</time></trkpt><trkpt lat="45.7354055" lon="10.4662426"><ele>373.0</ele><time>2026-04-26T08:45:55.093Z</time></trkpt><trkpt lat="45.7353797" lon="10.4663341"><ele>373.0</ele><time>2026-04-26T08:45:57.093Z</time></trkpt><trkpt lat="45.7353197" lon="10.4664155"><ele>373.0</ele><time>2026-04-26T08:45:59.093Z</time></trkpt><trkpt lat="45.7352763" lon="10.4665069"><ele>373.0</ele><time>2026-04-26T08:46:01.092Z</time></trkpt><trkpt lat="45.7352432" lon="10.4666615"><ele>373.42857142857144</ele><time>2026-04-26T08:46:03.093Z</time></trkpt><trkpt lat="45.7352093" lon="10.4667485"><ele>373.8571428571429</ele><time>2026-04-26T08:46:04.093Z</time></trkpt><trkpt lat="45.7351689" lon="10.4668307"><ele>374.2857142857143</ele><time>2026-04-26T08:46:05.093Z</time></trkpt><trkpt lat="45.7351311" lon="10.4669144"><ele>374.7142857142857</ele><time>2026-04-26T08:46:06.093Z</time></trkpt><trkpt lat="45.7350973" lon="10.4670043"><ele>375.1428571428571</ele><time>2026-04-26T08:46:07.093Z</time></trkpt><trkpt lat="45.7350534" lon="10.4670853"><ele>375.57142857142856</ele><time>2026-04-26T08:46:08.093Z</time></trkpt><trkpt lat="45.7350109" lon="10.467161"><ele>376.0</ele><time>2026-04-26T08:46:09.093Z</time></trkpt><trkpt lat="45.7349689" lon="10.4672343"><ele>376.0</ele><time>2026-04-26T08:46:10.093Z</time></trkpt><trkpt lat="45.7348986" lon="10.4673492"><ele>376.0</ele><time>2026-04-26T08:46:12.093Z</time></trkpt><trkpt lat="45.7348665" lon="10.467427"><ele>376.0</ele><time>2026-04-26T08:46:13.092Z</time></trkpt><trkpt lat="45.7348246" lon="10.4675075"><ele>376.0</ele><time>2026-04-26T08:46:14.093Z</time></trkpt><trkpt lat="45.7347896" lon="10.467591"><ele>376.0</ele><time>2026-04-26T08:46:15.093Z</time></trkpt><trkpt lat="45.7347614" lon="10.4676725"><ele>376.0</ele><time>2026-04-26T08:46:16.093Z</time></trkpt><trkpt lat="45.7347113" lon="10.4678203"><ele>376.0</ele><time>2026-04-26T08:46:18.093Z</time></trkpt><trkpt lat="45.7346776" lon="10.4678982"><ele>376.0</ele><time>2026-04-26T08:46:19.092Z</time></trkpt><trkpt lat="45.7346245" lon="10.4680556"><ele>376.0</ele><time>2026-04-26T08:46:21.093Z</time></trkpt><trkpt lat="45.7346002" lon="10.4681405"><ele>376.0</ele><time>2026-04-26T08:46:22.093Z</time></trkpt><trkpt lat="45.7345715" lon="10.4682441"><ele>376.0</ele><time>2026-04-26T08:46:23.093Z</time></trkpt><trkpt lat="45.7345368" lon="10.4683547"><ele>376.0</ele><time>2026-04-26T08:46:24.093Z</time></trkpt><trkpt lat="45.7345027" lon="10.4684687"><ele>376.4</ele><time>2026-04-26T08:46:25.092Z</time></trkpt><trkpt lat="45.7344653" lon="10.4685877"><ele>376.8</ele><time>2026-04-26T08:46:26.093Z</time></trkpt><trkpt lat="45.7344308" lon="10.4687073"><ele>377.2</ele><time>2026-04-26T08:46:27.093Z</time></trkpt><trkpt lat="45.7343985" lon="10.4688299"><ele>377.59999999999997</ele><time>2026-04-26T08:46:28.093Z</time></trkpt><trkpt lat="45.7343636" lon="10.4689532"><ele>378.0</ele><time>2026-04-26T08:46:29.092Z</time></trkpt><trkpt lat="45.7343374" lon="10.4690785"><ele>378.0</ele><time>2026-04-26T08:46:30.093Z</time></trkpt><trkpt lat="45.7343324" lon="10.4692086"><ele>378.0</ele><time>2026-04-26T08:46:31.093Z</time></trkpt><trkpt lat="45.7343355" lon="10.4693357"><ele>378.0</ele><time>2026-04-26T08:46:32.092Z</time></trkpt><trkpt lat="45.734347" lon="10.4694607"><ele>378.0</ele><time>2026-04-26T08:46:33.093Z</time></trkpt><trkpt lat="45.7343674" lon="10.4695844"><ele>378.0</ele><time>2026-04-26T08:46:34.093Z</time></trkpt><trkpt lat="45.7343957" lon="10.4697128"><ele>376.59999999999997</ele><time>2026-04-26T08:46:35.093Z</time></trkpt><trkpt lat="45.7344349" lon="10.4698484"><ele>375.2</ele><time>2026-04-26T08:46:36.092Z</time></trkpt><trkpt lat="45.734489" lon="10.4699836"><ele>373.8</ele><time>2026-04-26T08:46:37.092Z</time></trkpt><trkpt lat="45.7345515" lon="10.4701234"><ele>372.4</ele><time>2026-04-26T08:46:38.092Z</time></trkpt><trkpt lat="45.734602" lon="10.470283"><ele>371.0</ele><time>2026-04-26T08:46:39.093Z</time></trkpt><trkpt lat="45.7346371" lon="10.4704581"><ele>370.75</ele><time>2026-04-26T08:46:40.093Z</time></trkpt><trkpt lat="45.7346686" lon="10.4706406"><ele>370.5</ele><time>2026-04-26T08:46:41.093Z</time></trkpt><trkpt lat="45.7346919" lon="10.4708275"><ele>370.25</ele><time>2026-04-26T08:46:42.093Z</time></trkpt><trkpt lat="45.7347097" lon="10.4710063"><ele>370.0</ele><time>2026-04-26T08:46:43.093Z</time></trkpt><trkpt lat="45.7347223" lon="10.4711853"><ele>370.0</ele><time>2026-04-26T08:46:44.093Z</time></trkpt><trkpt lat="45.7347365" lon="10.4713604"><ele>370.0</ele><time>2026-04-26T08:46:45.093Z</time></trkpt><trkpt lat="45.7347505" lon="10.4715327"><ele>370.0</ele><time>2026-04-26T08:46:46.093Z</time></trkpt><trkpt lat="45.734769" lon="10.4717062"><ele>370.0</ele><time>2026-04-26T08:46:47.093Z</time></trkpt><trkpt lat="45.7347874" lon="10.471885"><ele>370.0</ele><time>2026-04-26T08:46:48.093Z</time></trkpt><trkpt lat="45.7348012" lon="10.4720711"><ele>370.0</ele><time>2026-04-26T08:46:49.093Z</time></trkpt><trkpt lat="45.7348207" lon="10.4722637"><ele>370.0</ele><time>2026-04-26T08:46:50.093Z</time></trkpt><trkpt lat="45.7348406" lon="10.4724704"><ele>370.0</ele><time>2026-04-26T08:46:51.092Z</time></trkpt><trkpt lat="45.7348636" lon="10.4726822"><ele>370.66666666666663</ele><time>2026-04-26T08:46:52.093Z</time></trkpt><trkpt lat="45.7348867" lon="10.4728984"><ele>371.3333333333333</ele><time>2026-04-26T08:46:53.093Z</time></trkpt><trkpt lat="45.73491" lon="10.4731149"><ele>372.0</ele><time>2026-04-26T08:46:54.093Z</time></trkpt><trkpt lat="45.7349357" lon="10.473332"><ele>373.3333333333333</ele><time>2026-04-26T08:46:55.092Z</time></trkpt><trkpt lat="45.7349734" lon="10.4735603"><ele>374.66666666666663</ele><time>2026-04-26T08:46:56.092Z</time></trkpt><trkpt lat="45.7350174" lon="10.4737936"><ele>376.0</ele><time>2026-04-26T08:46:57.093Z</time></trkpt><trkpt lat="45.7350617" lon="10.4740334"><ele>377.3333333333333</ele><time>2026-04-26T08:46:58.093Z</time></trkpt><trkpt lat="45.7351079" lon="10.4742834"><ele>378.6666666666667</ele><time>2026-04-26T08:46:59.093Z</time></trkpt><trkpt lat="45.7351571" lon="10.474539"><ele>380.0</ele><time>2026-04-26T08:47:00.093Z</time></trkpt><trkpt lat="45.7352128" lon="10.4748032"><ele>379.6666666666667</ele><time>2026-04-26T08:47:01.093Z</time></trkpt><trkpt lat="45.7352734" lon="10.4750798"><ele>379.3333333333333</ele><time>2026-04-26T08:47:02.093Z</time></trkpt><trkpt lat="45.7353515" lon="10.4753616"><ele>379.0</ele><time>2026-04-26T08:47:03.092Z</time></trkpt><trkpt lat="45.7354505" lon="10.4756424"><ele>380.0</ele><time>2026-04-26T08:47:04.093Z</time></trkpt><trkpt lat="45.7355607" lon="10.4759209"><ele>381.0</ele><time>2026-04-26T08:47:05.093Z</time></trkpt><trkpt lat="45.7356803" lon="10.4762054"><ele>382.33333333333337</ele><time>2026-04-26T08:47:06.093Z</time></trkpt><trkpt lat="45.7357999" lon="10.4764813"><ele>383.6666666666667</ele><time>2026-04-26T08:47:07.093Z</time></trkpt><trkpt lat="45.7359191" lon="10.4767483"><ele>385.0</ele><time>2026-04-26T08:47:08.092Z</time></trkpt><trkpt lat="45.7360393" lon="10.477013"><ele>384.6666666666667</ele><time>2026-04-26T08:47:09.093Z</time></trkpt><trkpt lat="45.7361555" lon="10.4772775"><ele>384.33333333333337</ele><time>2026-04-26T08:47:10.092Z</time></trkpt><trkpt lat="45.7362751" lon="10.4775505"><ele>384.0</ele><time>2026-04-26T08:47:11.093Z</time></trkpt><trkpt lat="45.7363874" lon="10.4778344"><ele>386.0</ele><time>2026-04-26T08:47:12.092Z</time></trkpt><trkpt lat="45.7364738" lon="10.4781066"><ele>388.0</ele><time>2026-04-26T08:47:13.092Z</time></trkpt><trkpt lat="45.736533" lon="10.4783379"><ele>390.0</ele><time>2026-04-26T08:47:14.093Z</time></trkpt><trkpt lat="45.7365611" lon="10.4785265"><ele>390.0</ele><time>2026-04-26T08:47:15.092Z</time></trkpt><trkpt lat="45.7365568" lon="10.4786809"><ele>390.0</ele><time>2026-04-26T08:47:16.093Z</time></trkpt><trkpt lat="45.7365283" lon="10.47882"><ele>390.0</ele><time>2026-04-26T08:47:17.093Z</time></trkpt><trkpt lat="45.736505" lon="10.4789502"><ele>390.0</ele><time>2026-04-26T08:47:18.093Z</time></trkpt><trkpt lat="45.7365233" lon="10.4790776"><ele>390.0</ele><time>2026-04-26T08:47:19.092Z</time></trkpt><trkpt lat="45.7365784" lon="10.4791966"><ele>391.5</ele><time>2026-04-26T08:47:20.093Z</time></trkpt><trkpt lat="45.7366515" lon="10.4793428"><ele>393.0</ele><time>2026-04-26T08:47:21.093Z</time></trkpt><trkpt lat="45.736713" lon="10.4795307"><ele>394.5</ele><time>2026-04-26T08:47:22.092Z</time></trkpt><trkpt lat="45.7367657" lon="10.4797414"><ele>396.0</ele><time>2026-04-26T08:47:23.092Z</time></trkpt><trkpt lat="45.736817" lon="10.4799782"><ele>396.66666666666663</ele><time>2026-04-26T08:47:24.093Z</time></trkpt><trkpt lat="45.7368761" lon="10.4802345"><ele>397.3333333333333</ele><time>2026-04-26T08:47:25.093Z</time></trkpt><trkpt lat="45.7369493" lon="10.4804916"><ele>398.0</ele><time>2026-04-26T08:47:26.092Z</time></trkpt><trkpt lat="45.7370316" lon="10.480755"><ele>398.0</ele><time>2026-04-26T08:47:27.093Z</time></trkpt><trkpt lat="45.73711" lon="10.4810048"><ele>398.0</ele><time>2026-04-26T08:47:28.093Z</time></trkpt><trkpt lat="45.7371848" lon="10.481259"><ele>398.0</ele><time>2026-04-26T08:47:29.093Z</time></trkpt><trkpt lat="45.7372683" lon="10.4815145"><ele>401.66666666666663</ele><time>2026-04-26T08:47:30.093Z</time></trkpt><trkpt lat="45.7373667" lon="10.4817638"><ele>405.33333333333337</ele><time>2026-04-26T08:47:31.093Z</time></trkpt><trkpt lat="45.7374833" lon="10.4820074"><ele>409.0</ele><time>2026-04-26T08:47:32.093Z</time></trkpt><trkpt lat="45.7376106" lon="10.4822469"><ele>411.0</ele><time>2026-04-26T08:47:33.093Z</time></trkpt><trkpt lat="45.7377417" lon="10.4824867"><ele>413.0</ele><time>2026-04-26T08:47:34.093Z</time></trkpt><trkpt lat="45.7378716" lon="10.4827238"><ele>415.0</ele><time>2026-04-26T08:47:35.093Z</time></trkpt><trkpt lat="45.7379973" lon="10.4829577"><ele>415.0</ele><time>2026-04-26T08:47:36.093Z</time></trkpt><trkpt lat="45.738129" lon="10.4831819"><ele>415.0</ele><time>2026-04-26T08:47:37.093Z</time></trkpt><trkpt lat="45.7382772" lon="10.4833847"><ele>415.0</ele><time>2026-04-26T08:47:38.092Z</time></trkpt><trkpt lat="45.7384492" lon="10.4835572"><ele>413.5</ele><time>2026-04-26T08:47:39.093Z</time></trkpt><trkpt lat="45.7386462" lon="10.4836938"><ele>412.0</ele><time>2026-04-26T08:47:40.093Z</time></trkpt><trkpt lat="45.7388635" lon="10.483809"><ele>414.33333333333337</ele><time>2026-04-26T08:47:41.093Z</time></trkpt><trkpt lat="45.7390703" lon="10.4839072"><ele>416.66666666666663</ele><time>2026-04-26T08:47:42.093Z</time></trkpt><trkpt lat="45.7392627" lon="10.4840075"><ele>419.0</ele><time>2026-04-26T08:47:43.093Z</time></trkpt><trkpt lat="45.7394374" lon="10.4841115"><ele>419.0</ele><time>2026-04-26T08:47:44.093Z</time></trkpt><trkpt lat="45.739597" lon="10.4842272"><ele>419.0</ele><time>2026-04-26T08:47:45.093Z</time></trkpt><trkpt lat="45.7397538" lon="10.4843719"><ele>419.0</ele><time>2026-04-26T08:47:46.093Z</time></trkpt><trkpt lat="45.7399066" lon="10.4845412"><ele>419.66666666666663</ele><time>2026-04-26T08:47:47.093Z</time></trkpt><trkpt lat="45.7400588" lon="10.4847272"><ele>420.33333333333337</ele><time>2026-04-26T08:47:48.093Z</time></trkpt><trkpt lat="45.740214" lon="10.4849131"><ele>421.0</ele><time>2026-04-26T08:47:49.093Z</time></trkpt><trkpt lat="45.7403618" lon="10.4850869"><ele>421.0</ele><time>2026-04-26T08:47:50.093Z</time></trkpt><trkpt lat="45.7404901" lon="10.4852654"><ele>421.0</ele><time>2026-04-26T08:47:51.093Z</time></trkpt><trkpt lat="45.7406069" lon="10.4854846"><ele>421.0</ele><time>2026-04-26T08:47:52.093Z</time></trkpt><trkpt lat="45.7407069" lon="10.4857441"><ele>425.33333333333337</ele><time>2026-04-26T08:47:53.093Z</time></trkpt><trkpt lat="45.7407914" lon="10.4860333"><ele>429.66666666666663</ele><time>2026-04-26T08:47:54.092Z</time></trkpt><trkpt lat="45.7408657" lon="10.486343"><ele>434.0</ele><time>2026-04-26T08:47:55.093Z</time></trkpt><trkpt lat="45.7409286" lon="10.4866613"><ele>433.66666666666663</ele><time>2026-04-26T08:47:56.093Z</time></trkpt><trkpt lat="45.7409957" lon="10.4869715"><ele>433.33333333333337</ele><time>2026-04-26T08:47:57.093Z</time></trkpt><trkpt lat="45.7410596" lon="10.4872724"><ele>433.0</ele><time>2026-04-26T08:47:58.093Z</time></trkpt><trkpt lat="45.7411301" lon="10.4875692"><ele>433.0</ele><time>2026-04-26T08:47:59.093Z</time></trkpt><trkpt lat="45.7412003" lon="10.4878607"><ele>433.0</ele><time>2026-04-26T08:48:00.093Z</time></trkpt><trkpt lat="45.7412779" lon="10.4881422"><ele>433.0</ele><time>2026-04-26T08:48:01.093Z</time></trkpt><trkpt lat="45.7413536" lon="10.4884012"><ele>436.6666666666667</ele><time>2026-04-26T08:48:02.093Z</time></trkpt><trkpt lat="45.7414205" lon="10.4886453"><ele>440.33333333333337</ele><time>2026-04-26T08:48:03.093Z</time></trkpt><trkpt lat="45.7414987" lon="10.4888631"><ele>444.0</ele><time>2026-04-26T08:48:04.093Z</time></trkpt><trkpt lat="45.7416003" lon="10.4890586"><ele>445.66666666666663</ele><time>2026-04-26T08:48:05.092Z</time></trkpt><trkpt lat="45.7417308" lon="10.489229"><ele>447.3333333333333</ele><time>2026-04-26T08:48:06.092Z</time></trkpt><trkpt lat="45.7418872" lon="10.4893743"><ele>449.0</ele><time>2026-04-26T08:48:07.092Z</time></trkpt><trkpt lat="45.7420622" lon="10.4895204"><ele>456.0</ele><time>2026-04-26T08:48:08.092Z</time></trkpt><trkpt lat="45.742242" lon="10.4896998"><ele>463.0</ele><time>2026-04-26T08:48:09.093Z</time></trkpt><trkpt lat="45.7424215" lon="10.4899063"><ele>470.0</ele><time>2026-04-26T08:48:10.092Z</time></trkpt><trkpt lat="45.7425895" lon="10.4901169"><ele>472.3333333333333</ele><time>2026-04-26T08:48:11.093Z</time></trkpt><trkpt lat="45.7427537" lon="10.490294"><ele>474.66666666666663</ele><time>2026-04-26T08:48:12.093Z</time></trkpt><trkpt lat="45.7429256" lon="10.4904435"><ele>477.0</ele><time>2026-04-26T08:48:13.093Z</time></trkpt><trkpt lat="45.7430991" lon="10.4905812"><ele>477.0</ele><time>2026-04-26T08:48:14.093Z</time></trkpt><trkpt lat="45.7432655" lon="10.4906934"><ele>477.0</ele><time>2026-04-26T08:48:15.093Z</time></trkpt><trkpt lat="45.7434161" lon="10.490792"><ele>477.0</ele><time>2026-04-26T08:48:16.092Z</time></trkpt><trkpt lat="45.7435577" lon="10.4908615"><ele>476.75</ele><time>2026-04-26T08:48:17.093Z</time></trkpt><trkpt lat="45.7436927" lon="10.4908897"><ele>476.5</ele><time>2026-04-26T08:48:18.093Z</time></trkpt><trkpt lat="45.7438252" lon="10.4908914"><ele>476.25</ele><time>2026-04-26T08:48:19.093Z</time></trkpt><trkpt lat="45.74395" lon="10.490864"><ele>476.0</ele><time>2026-04-26T08:48:20.093Z</time></trkpt><trkpt lat="45.7440567" lon="10.4908115"><ele>476.0</ele><time>2026-04-26T08:48:21.093Z</time></trkpt><trkpt lat="45.7441435" lon="10.4907798"><ele>476.0</ele><time>2026-04-26T08:48:22.092Z</time></trkpt><trkpt lat="45.7442082" lon="10.4908014"><ele>476.0</ele><time>2026-04-26T08:48:23.093Z</time></trkpt><trkpt lat="45.7442484" lon="10.4909658"><ele>476.0</ele><time>2026-04-26T08:48:25.093Z</time></trkpt><trkpt lat="45.7442018" lon="10.4910508"><ele>476.0</ele><time>2026-04-26T08:48:26.093Z</time></trkpt><trkpt lat="45.7441111" lon="10.4911129"><ele>476.0</ele><time>2026-04-26T08:48:27.093Z</time></trkpt><trkpt lat="45.7439891" lon="10.4911651"><ele>476.0</ele><time>2026-04-26T08:48:28.092Z</time></trkpt><trkpt lat="45.7438559" lon="10.4912256"><ele>476.0</ele><time>2026-04-26T08:48:29.093Z</time></trkpt><trkpt lat="45.7437002" lon="10.4912644"><ele>476.0</ele><time>2026-04-26T08:48:30.093Z</time></trkpt><trkpt lat="45.7435225" lon="10.4912758"><ele>476.3333333333333</ele><time>2026-04-26T08:48:31.093Z</time></trkpt><trkpt lat="45.7433374" lon="10.4912834"><ele>476.66666666666663</ele><time>2026-04-26T08:48:32.093Z</time></trkpt><trkpt lat="45.7431507" lon="10.4912286"><ele>477.0</ele><time>2026-04-26T08:48:33.093Z</time></trkpt><trkpt lat="45.7429706" lon="10.4911628"><ele>477.0</ele><time>2026-04-26T08:48:34.093Z</time></trkpt><trkpt lat="45.7428252" lon="10.4910557"><ele>477.0</ele><time>2026-04-26T08:48:35.093Z</time></trkpt><trkpt lat="45.742702" lon="10.4909296"><ele>477.0</ele><time>2026-04-26T08:48:36.093Z</time></trkpt><trkpt lat="45.7426054" lon="10.4908032"><ele>477.0</ele><time>2026-04-26T08:48:37.093Z</time></trkpt><trkpt lat="45.7425214" lon="10.4907246"><ele>480.0</ele><time>2026-04-26T08:48:38.093Z</time></trkpt><trkpt lat="45.7424377" lon="10.4907124"><ele>483.0</ele><time>2026-04-26T08:48:39.093Z</time></trkpt><trkpt lat="45.7423725" lon="10.4907641"><ele>486.0</ele><time>2026-04-26T08:48:40.093Z</time></trkpt><trkpt lat="45.7423502" lon="10.4908742"><ele>489.0</ele><time>2026-04-26T08:48:41.093Z</time></trkpt><trkpt lat="45.7423764" lon="10.4909847"><ele>492.0</ele><time>2026-04-26T08:48:42.093Z</time></trkpt><trkpt lat="45.7424567" lon="10.4910732"><ele>495.0</ele><time>2026-04-26T08:48:43.093Z</time></trkpt><trkpt lat="45.7425599" lon="10.4911626"><ele>496.66666666666663</ele><time>2026-04-26T08:48:44.093Z</time></trkpt><trkpt lat="45.742674" lon="10.4913036"><ele>498.3333333333333</ele><time>2026-04-26T08:48:45.093Z</time></trkpt><trkpt lat="45.7427878" lon="10.4914861"><ele>500.0</ele><time>2026-04-26T08:48:46.092Z</time></trkpt><trkpt lat="45.7429025" lon="10.4917034"><ele>500.0</ele><time>2026-04-26T08:48:47.092Z</time></trkpt><trkpt lat="45.7430394" lon="10.4919009"><ele>500.0</ele><time>2026-04-26T08:48:48.093Z</time></trkpt><trkpt lat="45.7432021" lon="10.4920595"><ele>500.0</ele><time>2026-04-26T08:48:49.093Z</time></trkpt><trkpt lat="45.7433762" lon="10.4921831"><ele>507.0</ele><time>2026-04-26T08:48:50.092Z</time></trkpt><trkpt lat="45.743548" lon="10.4922659"><ele>514.0</ele><time>2026-04-26T08:48:51.093Z</time></trkpt><trkpt lat="45.7437312" lon="10.492296"><ele>521.0</ele><time>2026-04-26T08:48:52.093Z</time></trkpt><trkpt lat="45.7439281" lon="10.4922598"><ele>521.0</ele><time>2026-04-26T08:48:53.093Z</time></trkpt><trkpt lat="45.7441044" lon="10.4922597"><ele>521.0</ele><time>2026-04-26T08:48:54.093Z</time></trkpt><trkpt lat="45.7442692" lon="10.4922943"><ele>521.0</ele><time>2026-04-26T08:48:55.093Z</time></trkpt><trkpt lat="45.7444052" lon="10.4923658"><ele>523.8</ele><time>2026-04-26T08:48:56.093Z</time></trkpt><trkpt lat="45.7445313" lon="10.492467"><ele>526.6</ele><time>2026-04-26T08:48:57.092Z</time></trkpt><trkpt lat="45.7446297" lon="10.4925905"><ele>529.4</ele><time>2026-04-26T08:48:58.093Z</time></trkpt><trkpt lat="45.7446938" lon="10.4926925"><ele>532.2</ele><time>2026-04-26T08:48:59.092Z</time></trkpt><trkpt lat="45.7447193" lon="10.492795"><ele>535.0</ele><time>2026-04-26T08:49:00.092Z</time></trkpt><trkpt lat="45.7447022" lon="10.4928868"><ele>535.0</ele><time>2026-04-26T08:49:01.093Z</time></trkpt><trkpt lat="45.7445842" lon="10.4929276"><ele>535.0</ele><time>2026-04-26T08:49:03.092Z</time></trkpt><trkpt lat="45.7445034" lon="10.4928399"><ele>535.0</ele><time>2026-04-26T08:49:04.093Z</time></trkpt><trkpt lat="45.7444242" lon="10.4927217"><ele>535.0</ele><time>2026-04-26T08:49:05.093Z</time></trkpt><trkpt lat="45.7443233" lon="10.4926427"><ele>531.5</ele><time>2026-04-26T08:49:06.093Z</time></trkpt><trkpt lat="45.7441959" lon="10.492612"><ele>528.0</ele><time>2026-04-26T08:49:07.093Z</time></trkpt><trkpt lat="45.7440551" lon="10.4926372"><ele>524.5</ele><time>2026-04-26T08:49:08.093Z</time></trkpt><trkpt lat="45.7439166" lon="10.4926819"><ele>521.0</ele><time>2026-04-26T08:49:09.093Z</time></trkpt><trkpt lat="45.7437415" lon="10.4927824"><ele>521.0</ele><time>2026-04-26T08:49:10.092Z</time></trkpt><trkpt lat="45.7435604" lon="10.4928136"><ele>521.0</ele><time>2026-04-26T08:49:11.093Z</time></trkpt><trkpt lat="45.7433703" lon="10.4928135"><ele>521.0</ele><time>2026-04-26T08:49:12.093Z</time></trkpt><trkpt lat="45.7431716" lon="10.492772"><ele>522.0</ele><time>2026-04-26T08:49:13.093Z</time></trkpt><trkpt lat="45.742985" lon="10.4926954"><ele>523.0</ele><time>2026-04-26T08:49:14.092Z</time></trkpt><trkpt lat="45.7428139" lon="10.4925761"><ele>524.0</ele><time>2026-04-26T08:49:15.092Z</time></trkpt><trkpt lat="45.742662" lon="10.4924283"><ele>531.6666666666666</ele><time>2026-04-26T08:49:16.093Z</time></trkpt><trkpt lat="45.742523" lon="10.4923163"><ele>539.3333333333334</ele><time>2026-04-26T08:49:17.092Z</time></trkpt><trkpt lat="45.7423766" lon="10.4922491"><ele>547.0</ele><time>2026-04-26T08:49:18.093Z</time></trkpt><trkpt lat="45.7422194" lon="10.4922272"><ele>547.0</ele><time>2026-04-26T08:49:19.092Z</time></trkpt><trkpt lat="45.7420769" lon="10.4922224"><ele>547.0</ele><time>2026-04-26T08:49:20.093Z</time></trkpt><trkpt lat="45.7419728" lon="10.4922511"><ele>547.0</ele><time>2026-04-26T08:49:21.093Z</time></trkpt><trkpt lat="45.7418865" lon="10.4923145"><ele>547.0</ele><time>2026-04-26T08:49:22.093Z</time></trkpt><trkpt lat="45.7418513" lon="10.4924191"><ele>547.0</ele><time>2026-04-26T08:49:23.093Z</time></trkpt><trkpt lat="45.7418613" lon="10.4925277"><ele>547.0</ele><time>2026-04-26T08:49:24.093Z</time></trkpt><trkpt lat="45.7418749" lon="10.4926292"><ele>547.0</ele><time>2026-04-26T08:49:25.093Z</time></trkpt><trkpt lat="45.7419816" lon="10.492624"><ele>547.0</ele><time>2026-04-26T08:49:26.093Z</time></trkpt><trkpt lat="45.7420982" lon="10.4925832"><ele>547.0</ele><time>2026-04-26T08:49:27.093Z</time></trkpt><trkpt lat="45.7422193" lon="10.4926124"><ele>547.0</ele><time>2026-04-26T08:49:28.093Z</time></trkpt><trkpt lat="45.742335" lon="10.4926925"><ele>547.0</ele><time>2026-04-26T08:49:29.092Z</time></trkpt><trkpt lat="45.7424563" lon="10.4928173"><ele>547.0</ele><time>2026-04-26T08:49:30.093Z</time></trkpt><trkpt lat="45.7425977" lon="10.4929557"><ele>547.0</ele><time>2026-04-26T08:49:31.093Z</time></trkpt><trkpt lat="45.7427633" lon="10.4930666"><ele>551.6666666666667</ele><time>2026-04-26T08:49:32.093Z</time></trkpt><trkpt lat="45.7429274" lon="10.4931389"><ele>556.3333333333334</ele><time>2026-04-26T08:49:33.093Z</time></trkpt><trkpt lat="45.7430779" lon="10.4932147"><ele>561.0</ele><time>2026-04-26T08:49:34.092Z</time></trkpt><trkpt lat="45.7432062" lon="10.4933313"><ele>561.0</ele><time>2026-04-26T08:49:35.093Z</time></trkpt><trkpt lat="45.743296" lon="10.4934747"><ele>561.0</ele><time>2026-04-26T08:49:36.093Z</time></trkpt><trkpt lat="45.7433635" lon="10.4936412"><ele>561.0</ele><time>2026-04-26T08:49:37.092Z</time></trkpt><trkpt lat="45.7434039" lon="10.4938278"><ele>561.0</ele><time>2026-04-26T08:49:38.092Z</time></trkpt><trkpt lat="45.7434488" lon="10.4940164"><ele>568.0</ele><time>2026-04-26T08:49:39.092Z</time></trkpt><trkpt lat="45.743491" lon="10.4942094"><ele>575.0</ele><time>2026-04-26T08:49:40.093Z</time></trkpt><trkpt lat="45.7432726" lon="10.50029"><ele>574.6666666666666</ele><time>2026-04-26T08:49:59.093Z</time></trkpt><trkpt lat="45.7432808" lon="10.5005412"><ele>574.3333333333334</ele><time>2026-04-26T08:50:00.093Z</time></trkpt><trkpt lat="45.7433403" lon="10.5007444"><ele>574.0</ele><time>2026-04-26T08:50:01.093Z</time></trkpt><trkpt lat="45.7434247" lon="10.5009238"><ele>574.0</ele><time>2026-04-26T08:50:02.093Z</time></trkpt><trkpt lat="45.7435324" lon="10.5010783"><ele>574.0</ele><time>2026-04-26T08:50:03.093Z</time></trkpt><trkpt lat="45.7436422" lon="10.5012192"><ele>574.0</ele><time>2026-04-26T08:50:04.093Z</time></trkpt><trkpt lat="45.7438089" lon="10.5012972"><ele>575.0</ele><time>2026-04-26T08:50:05.093Z</time></trkpt><trkpt lat="45.7439939" lon="10.5013689"><ele>576.0</ele><time>2026-04-26T08:50:06.093Z</time></trkpt><trkpt lat="45.7441799" lon="10.5014601"><ele>577.0</ele><time>2026-04-26T08:50:07.093Z</time></trkpt><trkpt lat="45.7443809" lon="10.5015512"><ele>572.3333333333334</ele><time>2026-04-26T08:50:08.093Z</time></trkpt><trkpt lat="45.7445847" lon="10.5016489"><ele>567.6666666666666</ele><time>2026-04-26T08:50:09.093Z</time></trkpt><trkpt lat="45.7447954" lon="10.501754"><ele>563.0</ele><time>2026-04-26T08:50:10.092Z</time></trkpt><trkpt lat="45.7450113" lon="10.501844"><ele>559.0</ele><time>2026-04-26T08:50:11.093Z</time></trkpt><trkpt lat="45.7452261" lon="10.5019333"><ele>555.0</ele><time>2026-04-26T08:50:12.092Z</time></trkpt><trkpt lat="45.7454387" lon="10.5020161"><ele>551.0</ele><time>2026-04-26T08:50:13.092Z</time></trkpt><trkpt lat="45.7456486" lon="10.5021015"><ele>556.3333333333333</ele><time>2026-04-26T08:50:14.093Z</time></trkpt><trkpt lat="45.7458531" lon="10.5021849"><ele>561.6666666666666</ele><time>2026-04-26T08:50:15.093Z</time></trkpt><trkpt lat="45.7460485" lon="10.5022616"><ele>567.0</ele><time>2026-04-26T08:50:16.093Z</time></trkpt><trkpt lat="45.746244" lon="10.5023376"><ele>567.0</ele><time>2026-04-26T08:50:17.092Z</time></trkpt><trkpt lat="45.746441" lon="10.5024012"><ele>567.0</ele><time>2026-04-26T08:50:18.093Z</time></trkpt><trkpt lat="45.7466437" lon="10.5024594"><ele>567.0</ele><time>2026-04-26T08:50:19.093Z</time></trkpt><trkpt lat="45.7468481" lon="10.5025145"><ele>561.0</ele><time>2026-04-26T08:50:20.093Z</time></trkpt><trkpt lat="45.7470572" lon="10.5025677"><ele>555.0</ele><time>2026-04-26T08:50:21.093Z</time></trkpt><trkpt lat="45.7472675" lon="10.5026408"><ele>549.0</ele><time>2026-04-26T08:50:22.093Z</time></trkpt><trkpt lat="45.7474599" lon="10.50273"><ele>549.0</ele><time>2026-04-26T08:50:23.093Z</time></trkpt><trkpt lat="45.7476411" lon="10.5028409"><ele>549.0</ele><time>2026-04-26T08:50:24.093Z</time></trkpt><trkpt lat="45.7478014" lon="10.5029483"><ele>549.0</ele><time>2026-04-26T08:50:25.093Z</time></trkpt><trkpt lat="45.7479474" lon="10.5030859"><ele>550.3333333333334</ele><time>2026-04-26T08:50:26.093Z</time></trkpt><trkpt lat="45.7480723" lon="10.5032612"><ele>551.6666666666667</ele><time>2026-04-26T08:50:27.093Z</time></trkpt><trkpt lat="45.7481787" lon="10.5034702"><ele>553.0</ele><time>2026-04-26T08:50:28.093Z</time></trkpt><trkpt lat="45.7482682" lon="10.5037078"><ele>556.0</ele><time>2026-04-26T08:50:29.093Z</time></trkpt><trkpt lat="45.7483556" lon="10.5039517"><ele>559.0</ele><time>2026-04-26T08:50:30.093Z</time></trkpt><trkpt lat="45.7484355" lon="10.5042078"><ele>562.0</ele><time>2026-04-26T08:50:31.093Z</time></trkpt><trkpt lat="45.748501" lon="10.5044769"><ele>563.6666666666667</ele><time>2026-04-26T08:50:32.093Z</time></trkpt><trkpt lat="45.7485302" lon="10.5047412"><ele>565.3333333333334</ele><time>2026-04-26T08:50:33.093Z</time></trkpt><trkpt lat="45.7485302" lon="10.5050051"><ele>567.0</ele><time>2026-04-26T08:50:34.093Z</time></trkpt><trkpt lat="45.7485033" lon="10.5052775"><ele>566.0</ele><time>2026-04-26T08:50:35.093Z</time></trkpt><trkpt lat="45.7484648" lon="10.505556"><ele>565.0</ele><time>2026-04-26T08:50:36.093Z</time></trkpt><trkpt lat="45.7484408" lon="10.5058357"><ele>564.0</ele><time>2026-04-26T08:50:37.093Z</time></trkpt><trkpt lat="45.7484322" lon="10.5061102"><ele>562.6666666666666</ele><time>2026-04-26T08:50:38.093Z</time></trkpt><trkpt lat="45.7484436" lon="10.5063847"><ele>561.3333333333333</ele><time>2026-04-26T08:50:39.093Z</time></trkpt><trkpt lat="45.7484645" lon="10.5066619"><ele>560.0</ele><time>2026-04-26T08:50:40.093Z</time></trkpt><trkpt lat="45.7484878" lon="10.5069294"><ele>563.0</ele><time>2026-04-26T08:50:41.093Z</time></trkpt><trkpt lat="45.748511" lon="10.5071905"><ele>566.0</ele><time>2026-04-26T08:50:42.093Z</time></trkpt><trkpt lat="45.7485299" lon="10.5074372"><ele>569.0</ele><time>2026-04-26T08:50:43.092Z</time></trkpt><trkpt lat="45.7485635" lon="10.5076706"><ele>564.0</ele><time>2026-04-26T08:50:44.093Z</time></trkpt><trkpt lat="45.7486344" lon="10.5078668"><ele>559.0</ele><time>2026-04-26T08:50:45.093Z</time></trkpt><trkpt lat="45.7487255" lon="10.5080241"><ele>554.0</ele><time>2026-04-26T08:50:46.093Z</time></trkpt><trkpt lat="45.7488425" lon="10.5081429"><ele>549.0</ele><time>2026-04-26T08:50:47.092Z</time></trkpt><trkpt lat="45.7489763" lon="10.508244"><ele>549.0</ele><time>2026-04-26T08:50:48.093Z</time></trkpt><trkpt lat="45.7491237" lon="10.5083562"><ele>549.0</ele><time>2026-04-26T08:50:49.093Z</time></trkpt><trkpt lat="45.7492773" lon="10.5084699"><ele>549.0</ele><time>2026-04-26T08:50:50.093Z</time></trkpt><trkpt lat="45.7494173" lon="10.5086114"><ele>561.0</ele><time>2026-04-26T08:50:51.092Z</time></trkpt><trkpt lat="45.7495262" lon="10.5087736"><ele>573.0</ele><time>2026-04-26T08:50:52.093Z</time></trkpt><trkpt lat="45.7496109" lon="10.508966"><ele>585.0</ele><time>2026-04-26T08:50:53.093Z</time></trkpt><trkpt lat="45.7496726" lon="10.5091917"><ele>585.0</ele><time>2026-04-26T08:50:54.092Z</time></trkpt><trkpt lat="45.7497239" lon="10.5094347"><ele>585.0</ele><time>2026-04-26T08:50:55.093Z</time></trkpt><trkpt lat="45.7497835" lon="10.5096817"><ele>585.0</ele><time>2026-04-26T08:50:56.093Z</time></trkpt><trkpt lat="45.749846" lon="10.5099266"><ele>584.3333333333334</ele><time>2026-04-26T08:50:57.093Z</time></trkpt><trkpt lat="45.7499084" lon="10.5101588"><ele>583.6666666666667</ele><time>2026-04-26T08:50:58.093Z</time></trkpt><trkpt lat="45.7499543" lon="10.5103971"><ele>583.0</ele><time>2026-04-26T08:50:59.093Z</time></trkpt><trkpt lat="45.7499851" lon="10.5106428"><ele>581.3333333333334</ele><time>2026-04-26T08:51:00.093Z</time></trkpt><trkpt lat="45.7500069" lon="10.5108929"><ele>579.6666666666666</ele><time>2026-04-26T08:51:01.092Z</time></trkpt><trkpt lat="45.7500174" lon="10.5111654"><ele>578.0</ele><time>2026-04-26T08:51:02.092Z</time></trkpt><trkpt lat="45.750042" lon="10.5114391"><ele>578.0</ele><time>2026-04-26T08:51:03.093Z</time></trkpt><trkpt lat="45.7500996" lon="10.5117125"><ele>578.0</ele><time>2026-04-26T08:51:04.093Z</time></trkpt><trkpt lat="45.7501753" lon="10.511984"><ele>578.0</ele><time>2026-04-26T08:51:05.092Z</time></trkpt><trkpt lat="45.7502497" lon="10.5122565"><ele>587.6666666666666</ele><time>2026-04-26T08:51:06.092Z</time></trkpt><trkpt lat="45.750337" lon="10.5125265"><ele>597.3333333333334</ele><time>2026-04-26T08:51:07.092Z</time></trkpt><trkpt lat="45.750427" lon="10.5127976"><ele>607.0</ele><time>2026-04-26T08:51:08.092Z</time></trkpt><trkpt lat="45.7505094" lon="10.513065"><ele>607.0</ele><time>2026-04-26T08:51:09.093Z</time></trkpt><trkpt lat="45.7505928" lon="10.513298"><ele>607.0</ele><time>2026-04-26T08:51:10.093Z</time></trkpt><trkpt lat="45.7506643" lon="10.5135201"><ele>607.0</ele><time>2026-04-26T08:51:11.093Z</time></trkpt><trkpt lat="45.7507004" lon="10.5137345"><ele>606.8000000000001</ele><time>2026-04-26T08:51:12.093Z</time></trkpt><trkpt lat="45.7507096" lon="10.5139235"><ele>606.6</ele><time>2026-04-26T08:51:13.093Z</time></trkpt><trkpt lat="45.7507004" lon="10.5140816"><ele>606.4000000000001</ele><time>2026-04-26T08:51:14.093Z</time></trkpt><trkpt lat="45.7506933" lon="10.5142055"><ele>606.2</ele><time>2026-04-26T08:51:15.093Z</time></trkpt><trkpt lat="45.7507167" lon="10.5143166"><ele>606.0</ele><time>2026-04-26T08:51:16.093Z</time></trkpt><trkpt lat="45.7507693" lon="10.5143854"><ele>606.0</ele><time>2026-04-26T08:51:17.093Z</time></trkpt><trkpt lat="45.7508408" lon="10.5143955"><ele>606.0</ele><time>2026-04-26T08:51:18.093Z</time></trkpt><trkpt lat="45.7508961" lon="10.5143216"><ele>606.0</ele><time>2026-04-26T08:51:19.093Z</time></trkpt><trkpt lat="45.7509171" lon="10.5142318"><ele>606.0</ele><time>2026-04-26T08:51:20.093Z</time></trkpt><trkpt lat="45.75092" lon="10.5141152"><ele>606.0</ele><time>2026-04-26T08:51:21.093Z</time></trkpt><trkpt lat="45.7509211" lon="10.5139904"><ele>606.0</ele><time>2026-04-26T08:51:22.092Z</time></trkpt><trkpt lat="45.7509196" lon="10.5138582"><ele>606.1666666666666</ele><time>2026-04-26T08:51:23.093Z</time></trkpt><trkpt lat="45.7509137" lon="10.5137282"><ele>606.3333333333334</ele><time>2026-04-26T08:51:24.092Z</time></trkpt><trkpt lat="45.7509064" lon="10.5136152"><ele>606.5</ele><time>2026-04-26T08:51:25.093Z</time></trkpt><trkpt lat="45.7509162" lon="10.5135215"><ele>606.6666666666667</ele><time>2026-04-26T08:51:26.093Z</time></trkpt><trkpt lat="45.7509918" lon="10.5134222"><ele>606.8333333333334</ele><time>2026-04-26T08:51:28.093Z</time></trkpt><trkpt lat="45.7510637" lon="10.5135357"><ele>607.0</ele><time>2026-04-26T08:51:30.093Z</time></trkpt><trkpt lat="45.7510611" lon="10.5136358"><ele>616.4000000000001</ele><time>2026-04-26T08:51:31.093Z</time></trkpt><trkpt lat="45.7510615" lon="10.5137473"><ele>625.8000000000001</ele><time>2026-04-26T08:51:32.093Z</time></trkpt><trkpt lat="45.7510806" lon="10.5138721"><ele>635.2</ele><time>2026-04-26T08:51:33.093Z</time></trkpt><trkpt lat="45.7511159" lon="10.5139973"><ele>644.6</ele><time>2026-04-26T08:51:34.093Z</time></trkpt><trkpt lat="45.7511372" lon="10.514136"><ele>654.0</ele><time>2026-04-26T08:51:35.093Z</time></trkpt><trkpt lat="45.7511309" lon="10.5142833"><ele>654.0</ele><time>2026-04-26T08:51:36.093Z</time></trkpt><trkpt lat="45.7511019" lon="10.5144214"><ele>654.0</ele><time>2026-04-26T08:51:37.093Z</time></trkpt><trkpt lat="45.7510459" lon="10.5145414"><ele>654.0</ele><time>2026-04-26T08:51:38.093Z</time></trkpt><trkpt lat="45.7509763" lon="10.5146421"><ele>654.0</ele><time>2026-04-26T08:51:39.093Z</time></trkpt><trkpt lat="45.7509048" lon="10.5147348"><ele>654.0</ele><time>2026-04-26T08:51:40.093Z</time></trkpt><trkpt lat="45.7508323" lon="10.5148355"><ele>650.75</ele><time>2026-04-26T08:51:41.092Z</time></trkpt><trkpt lat="45.7507672" lon="10.5149462"><ele>647.5</ele><time>2026-04-26T08:51:42.092Z</time></trkpt><trkpt lat="45.7507171" lon="10.515089"><ele>644.25</ele><time>2026-04-26T08:51:43.092Z</time></trkpt><trkpt lat="45.7506897" lon="10.5152742"><ele>641.0</ele><time>2026-04-26T08:51:44.092Z</time></trkpt><trkpt lat="45.7506626" lon="10.5154957"><ele>641.0</ele><time>2026-04-26T08:51:45.092Z</time></trkpt><trkpt lat="45.7506247" lon="10.5157419"><ele>641.0</ele><time>2026-04-26T08:51:46.093Z</time></trkpt><trkpt lat="45.750584" lon="10.5160011"><ele>641.0</ele><time>2026-04-26T08:51:47.092Z</time></trkpt><trkpt lat="45.7505389" lon="10.5162669"><ele>649.0</ele><time>2026-04-26T08:51:48.092Z</time></trkpt><trkpt lat="45.7504966" lon="10.5165401"><ele>657.0</ele><time>2026-04-26T08:51:49.093Z</time></trkpt><trkpt lat="45.750447" lon="10.5168159"><ele>665.0</ele><time>2026-04-26T08:51:50.093Z</time></trkpt><trkpt lat="45.7504134" lon="10.5170833"><ele>668.6666666666666</ele><time>2026-04-26T08:51:51.093Z</time></trkpt><trkpt lat="45.7504115" lon="10.5173669"><ele>672.3333333333334</ele><time>2026-04-26T08:51:52.093Z</time></trkpt><trkpt lat="45.750421" lon="10.5176553"><ele>676.0</ele><time>2026-04-26T08:51:53.093Z</time></trkpt><trkpt lat="45.7504275" lon="10.5179405"><ele>677.6666666666667</ele><time>2026-04-26T08:51:54.093Z</time></trkpt><trkpt lat="45.7504574" lon="10.5182129"><ele>679.3333333333334</ele><time>2026-04-26T08:51:55.093Z</time></trkpt><trkpt lat="45.75051" lon="10.5184779"><ele>681.0</ele><time>2026-04-26T08:51:56.093Z</time></trkpt><trkpt lat="45.7505702" lon="10.5187274"><ele>681.25</ele><time>2026-04-26T08:51:57.093Z</time></trkpt><trkpt lat="45.7506241" lon="10.5189395"><ele>681.5</ele><time>2026-04-26T08:51:58.092Z</time></trkpt><trkpt lat="45.7506454" lon="10.5191165"><ele>681.75</ele><time>2026-04-26T08:51:59.093Z</time></trkpt><trkpt lat="45.7506287" lon="10.5192809"><ele>682.0</ele><time>2026-04-26T08:52:00.093Z</time></trkpt><trkpt lat="45.7505722" lon="10.5194262"><ele>682.0</ele><time>2026-04-26T08:52:01.092Z</time></trkpt><trkpt lat="45.7504813" lon="10.5195308"><ele>682.0</ele><time>2026-04-26T08:52:02.093Z</time></trkpt><trkpt lat="45.7503638" lon="10.5196182"><ele>682.0</ele><time>2026-04-26T08:52:03.093Z</time></trkpt><trkpt lat="45.7502574" lon="10.5197304"><ele>682.0</ele><time>2026-04-26T08:52:04.093Z</time></trkpt><trkpt lat="45.7501703" lon="10.5199006"><ele>683.6666666666667</ele><time>2026-04-26T08:52:05.093Z</time></trkpt><trkpt lat="45.7501005" lon="10.5201184"><ele>685.3333333333334</ele><time>2026-04-26T08:52:06.093Z</time></trkpt><trkpt lat="45.7500136" lon="10.5203568"><ele>687.0</ele><time>2026-04-26T08:52:07.093Z</time></trkpt><trkpt lat="45.7498953" lon="10.5206009"><ele>687.0</ele><time>2026-04-26T08:52:08.092Z</time></trkpt><trkpt lat="45.7497465" lon="10.5208551"><ele>687.0</ele><time>2026-04-26T08:52:09.093Z</time></trkpt><trkpt lat="45.7495761" lon="10.5210985"><ele>690.0</ele><time>2026-04-26T08:52:10.093Z</time></trkpt><trkpt lat="45.7493957" lon="10.5213721"><ele>693.0</ele><time>2026-04-26T08:52:11.092Z</time></trkpt><trkpt lat="45.7492102" lon="10.52166"><ele>694.0</ele><time>2026-04-26T08:52:12.092Z</time></trkpt><trkpt lat="45.7490179" lon="10.5219611"><ele>695.0</ele><time>2026-04-26T08:52:13.093Z</time></trkpt><trkpt lat="45.7488219" lon="10.522247"><ele>695.0</ele><time>2026-04-26T08:52:14.093Z</time></trkpt><trkpt lat="45.7486367" lon="10.5224946"><ele>695.0</ele><time>2026-04-26T08:52:15.092Z</time></trkpt><trkpt lat="45.748457" lon="10.522712"><ele>691.6666666666666</ele><time>2026-04-26T08:52:16.092Z</time></trkpt><trkpt lat="45.7482987" lon="10.522897"><ele>688.3333333333334</ele><time>2026-04-26T08:52:17.092Z</time></trkpt><trkpt lat="45.7481746" lon="10.5230631"><ele>685.0</ele><time>2026-04-26T08:52:18.093Z</time></trkpt><trkpt lat="45.748085" lon="10.5232488"><ele>692.3333333333334</ele><time>2026-04-26T08:52:19.092Z</time></trkpt><trkpt lat="45.7480145" lon="10.5234544"><ele>699.6666666666666</ele><time>2026-04-26T08:52:20.093Z</time></trkpt><trkpt lat="45.7479568" lon="10.5236767"><ele>707.0</ele><time>2026-04-26T08:52:21.093Z</time></trkpt><trkpt lat="45.7479185" lon="10.5238995"><ele>712.25</ele><time>2026-04-26T08:52:22.093Z</time></trkpt><trkpt lat="45.7479075" lon="10.524124"><ele>717.5</ele><time>2026-04-26T08:52:23.093Z</time></trkpt><trkpt lat="45.7479082" lon="10.5243177"><ele>722.75</ele><time>2026-04-26T08:52:24.092Z</time></trkpt><trkpt lat="45.7479262" lon="10.5244921"><ele>728.0</ele><time>2026-04-26T08:52:25.093Z</time></trkpt><trkpt lat="45.7479596" lon="10.5246366"><ele>729.6666666666666</ele><time>2026-04-26T08:52:26.093Z</time></trkpt><trkpt lat="45.7479672" lon="10.5247438"><ele>731.3333333333333</ele><time>2026-04-26T08:52:27.092Z</time></trkpt><trkpt lat="45.747944" lon="10.5248277"><ele>733.0</ele><time>2026-04-26T08:52:28.092Z</time></trkpt><trkpt lat="45.7478289" lon="10.5248414"><ele>734.6666666666666</ele><time>2026-04-26T08:52:30.092Z</time></trkpt><trkpt lat="45.7477706" lon="10.5247666"><ele>736.3333333333334</ele><time>2026-04-26T08:52:31.092Z</time></trkpt><trkpt lat="45.7477135" lon="10.5246554"><ele>738.0</ele><time>2026-04-26T08:52:32.093Z</time></trkpt><trkpt lat="45.7476527" lon="10.5245261"><ele>731.25</ele><time>2026-04-26T08:52:33.093Z</time></trkpt><trkpt lat="45.7475963" lon="10.5243922"><ele>724.5</ele><time>2026-04-26T08:52:34.093Z</time></trkpt><trkpt lat="45.7475395" lon="10.5242439"><ele>717.75</ele><time>2026-04-26T08:52:35.093Z</time></trkpt><trkpt lat="45.7474698" lon="10.5240945"><ele>711.0</ele><time>2026-04-26T08:52:36.093Z</time></trkpt><trkpt lat="45.7473735" lon="10.5239553"><ele>711.0</ele><time>2026-04-26T08:52:37.093Z</time></trkpt><trkpt lat="45.7472525" lon="10.5238294"><ele>711.0</ele><time>2026-04-26T08:52:38.092Z</time></trkpt><trkpt lat="45.7471182" lon="10.523698"><ele>711.0</ele><time>2026-04-26T08:52:39.093Z</time></trkpt><trkpt lat="45.7469842" lon="10.5235721"><ele>713.0</ele><time>2026-04-26T08:52:40.092Z</time></trkpt><trkpt lat="45.7468758" lon="10.5234734"><ele>715.0</ele><time>2026-04-26T08:52:41.093Z</time></trkpt><trkpt lat="45.7467868" lon="10.5234028"><ele>717.0</ele><time>2026-04-26T08:52:42.093Z</time></trkpt><trkpt lat="45.7467041" lon="10.5233669"><ele>719.0</ele><time>2026-04-26T08:52:43.092Z</time></trkpt><trkpt lat="45.7466406" lon="10.5233897"><ele>721.0</ele><time>2026-04-26T08:52:44.093Z</time></trkpt><trkpt lat="45.7465954" lon="10.5234613"><ele>723.0</ele><time>2026-04-26T08:52:45.093Z</time></trkpt><trkpt lat="45.746621" lon="10.5236469"><ele>720.0</ele><time>2026-04-26T08:52:47.093Z</time></trkpt><trkpt lat="45.7466864" lon="10.5237458"><ele>717.0</ele><time>2026-04-26T08:52:48.092Z</time></trkpt><trkpt lat="45.7467689" lon="10.5238491"><ele>714.0</ele><time>2026-04-26T08:52:49.092Z</time></trkpt><trkpt lat="45.7468533" lon="10.5239747"><ele>711.0</ele><time>2026-04-26T08:52:50.093Z</time></trkpt><trkpt lat="45.7469377" lon="10.524118"><ele>711.0</ele><time>2026-04-26T08:52:51.093Z</time></trkpt><trkpt lat="45.7470173" lon="10.524277"><ele>711.0</ele><time>2026-04-26T08:52:52.093Z</time></trkpt><trkpt lat="45.7470997" lon="10.524459"><ele>711.0</ele><time>2026-04-26T08:52:53.093Z</time></trkpt><trkpt lat="45.7471789" lon="10.5246652"><ele>718.0</ele><time>2026-04-26T08:52:54.093Z</time></trkpt><trkpt lat="45.747262" lon="10.5248986"><ele>725.0</ele><time>2026-04-26T08:52:55.093Z</time></trkpt><trkpt lat="45.7473527" lon="10.5251289"><ele>732.0</ele><time>2026-04-26T08:52:56.093Z</time></trkpt><trkpt lat="45.7474596" lon="10.5253489"><ele>737.6666666666666</ele><time>2026-04-26T08:52:57.093Z</time></trkpt><trkpt lat="45.7475477" lon="10.5255602"><ele>743.3333333333333</ele><time>2026-04-26T08:52:58.092Z</time></trkpt><trkpt lat="45.7476079" lon="10.5257903"><ele>749.0</ele><time>2026-04-26T08:52:59.093Z</time></trkpt><trkpt lat="45.7476328" lon="10.5260292"><ele>752.0</ele><time>2026-04-26T08:53:00.093Z</time></trkpt><trkpt lat="45.7476254" lon="10.5262845"><ele>755.0</ele><time>2026-04-26T08:53:01.093Z</time></trkpt><trkpt lat="45.7476103" lon="10.5265461"><ele>758.0</ele><time>2026-04-26T08:53:02.092Z</time></trkpt><trkpt lat="45.7475941" lon="10.5268057"><ele>758.0</ele><time>2026-04-26T08:53:03.092Z</time></trkpt><trkpt lat="45.7475806" lon="10.5270451"><ele>758.0</ele><time>2026-04-26T08:53:04.093Z</time></trkpt><trkpt lat="45.7476278" lon="10.5272154"><ele>758.0</ele><time>2026-04-26T08:53:05.093Z</time></trkpt><trkpt lat="45.7476492" lon="10.5273847"><ele>758.0</ele><time>2026-04-26T08:53:06.092Z</time></trkpt><trkpt lat="45.7476791" lon="10.5274963"><ele>759.2</ele><time>2026-04-26T08:53:07.093Z</time></trkpt><trkpt lat="45.7476707" lon="10.5276023"><ele>760.4</ele><time>2026-04-26T08:53:08.093Z</time></trkpt><trkpt lat="45.7475851" lon="10.5276778"><ele>761.6</ele><time>2026-04-26T08:53:10.093Z</time></trkpt><trkpt lat="45.7475293" lon="10.5276236"><ele>762.8000000000001</ele><time>2026-04-26T08:53:11.093Z</time></trkpt><trkpt lat="45.7474877" lon="10.5275087"><ele>764.0</ele><time>2026-04-26T08:53:12.093Z</time></trkpt><trkpt lat="45.7474536" lon="10.5273479"><ele>764.0</ele><time>2026-04-26T08:53:13.093Z</time></trkpt><trkpt lat="45.7474196" lon="10.5271581"><ele>764.0</ele><time>2026-04-26T08:53:14.093Z</time></trkpt><trkpt lat="45.747388" lon="10.5269509"><ele>764.0</ele><time>2026-04-26T08:53:15.093Z</time></trkpt><trkpt lat="45.7473632" lon="10.5267285"><ele>764.0</ele><time>2026-04-26T08:53:16.093Z</time></trkpt><trkpt lat="45.7473432" lon="10.5264996"><ele>762.8000000000001</ele><time>2026-04-26T08:53:17.092Z</time></trkpt><trkpt lat="45.7473222" lon="10.5262973"><ele>761.6</ele><time>2026-04-26T08:53:18.093Z</time></trkpt><trkpt lat="45.7472977" lon="10.5261426"><ele>760.4</ele><time>2026-04-26T08:53:19.092Z</time></trkpt><trkpt lat="45.7472592" lon="10.526029"><ele>759.2</ele><time>2026-04-26T08:53:20.093Z</time></trkpt><trkpt lat="45.7472029" lon="10.5259795"><ele>758.0</ele><time>2026-04-26T08:53:21.093Z</time></trkpt><trkpt lat="45.7471373" lon="10.5259851"><ele>758.0</ele><time>2026-04-26T08:53:22.093Z</time></trkpt><trkpt lat="45.7470864" lon="10.5260578"><ele>758.0</ele><time>2026-04-26T08:53:23.093Z</time></trkpt><trkpt lat="45.7470549" lon="10.5261793"><ele>758.0</ele><time>2026-04-26T08:53:24.093Z</time></trkpt><trkpt lat="45.7470666" lon="10.5263427"><ele>758.0</ele><time>2026-04-26T08:53:25.092Z</time></trkpt><trkpt lat="45.7470743" lon="10.5265501"><ele>758.0</ele><time>2026-04-26T08:53:26.093Z</time></trkpt><trkpt lat="45.747076" lon="10.5267677"><ele>758.0</ele><time>2026-04-26T08:53:27.092Z</time></trkpt><trkpt lat="45.747083" lon="10.5270068"><ele>758.0</ele><time>2026-04-26T08:53:28.093Z</time></trkpt><trkpt lat="45.7470992" lon="10.5272679"><ele>758.0</ele><time>2026-04-26T08:53:29.093Z</time></trkpt><trkpt lat="45.7471163" lon="10.5275535"><ele>760.0</ele><time>2026-04-26T08:53:30.093Z</time></trkpt><trkpt lat="45.7471417" lon="10.5278363"><ele>762.0</ele><time>2026-04-26T08:53:31.093Z</time></trkpt><trkpt lat="45.7471868" lon="10.5281166"><ele>764.0</ele><time>2026-04-26T08:53:32.093Z</time></trkpt><trkpt lat="45.747301" lon="10.528364"><ele>770.6666666666666</ele><time>2026-04-26T08:53:33.093Z</time></trkpt><trkpt lat="45.7474198" lon="10.5286326"><ele>777.3333333333333</ele><time>2026-04-26T08:53:34.093Z</time></trkpt><trkpt lat="45.7475287" lon="10.5289019"><ele>784.0</ele><time>2026-04-26T08:53:35.093Z</time></trkpt><trkpt lat="45.7476235" lon="10.5291424"><ele>783.25</ele><time>2026-04-26T08:53:36.093Z</time></trkpt><trkpt lat="45.7477077" lon="10.5293446"><ele>782.5</ele><time>2026-04-26T08:53:37.093Z</time></trkpt><trkpt lat="45.7477841" lon="10.5295235"><ele>781.75</ele><time>2026-04-26T08:53:38.093Z</time></trkpt><trkpt lat="45.7478489" lon="10.5296744"><ele>781.0</ele><time>2026-04-26T08:53:39.093Z</time></trkpt><trkpt lat="45.7478804" lon="10.5297802"><ele>785.75</ele><time>2026-04-26T08:53:40.093Z</time></trkpt><trkpt lat="45.7478381" lon="10.5298887"><ele>790.5</ele><time>2026-04-26T08:53:42.093Z</time></trkpt><trkpt lat="45.7477" lon="10.5297926"><ele>795.25</ele><time>2026-04-26T08:53:44.093Z</time></trkpt><trkpt lat="45.7476098" lon="10.5296882"><ele>800.0</ele><time>2026-04-26T08:53:45.093Z</time></trkpt><trkpt lat="45.74751" lon="10.5295727"><ele>800.4</ele><time>2026-04-26T08:53:46.093Z</time></trkpt><trkpt lat="45.7474042" lon="10.5294667"><ele>800.8</ele><time>2026-04-26T08:53:47.092Z</time></trkpt><trkpt lat="45.7473122" lon="10.5294026"><ele>801.2</ele><time>2026-04-26T08:53:48.093Z</time></trkpt><trkpt lat="45.7472307" lon="10.5293921"><ele>801.6</ele><time>2026-04-26T08:53:49.092Z</time></trkpt><trkpt lat="45.7471584" lon="10.5294032"><ele>802.0</ele><time>2026-04-26T08:53:50.093Z</time></trkpt><trkpt lat="45.7471031" lon="10.5294786"><ele>805.75</ele><time>2026-04-26T08:53:51.092Z</time></trkpt><trkpt lat="45.747209" lon="10.5296336"><ele>809.5</ele><time>2026-04-26T08:53:52.092Z</time></trkpt><trkpt lat="45.7472723" lon="10.5297373"><ele>813.25</ele><time>2026-04-26T08:53:53.093Z</time></trkpt><trkpt lat="45.7473696" lon="10.5298637"><ele>817.0</ele><time>2026-04-26T08:53:54.093Z</time></trkpt><trkpt lat="45.7474662" lon="10.530008"><ele>817.0</ele><time>2026-04-26T08:53:55.093Z</time></trkpt><trkpt lat="45.747555" lon="10.530159"><ele>817.0</ele><time>2026-04-26T08:53:56.092Z</time></trkpt><trkpt lat="45.7476174" lon="10.5303158"><ele>817.0</ele><time>2026-04-26T08:53:57.093Z</time></trkpt><trkpt lat="45.7476526" lon="10.5304892"><ele>817.0</ele><time>2026-04-26T08:53:58.093Z</time></trkpt><trkpt lat="45.7476551" lon="10.5306682"><ele>819.0</ele><time>2026-04-26T08:53:59.093Z</time></trkpt><trkpt lat="45.7476315" lon="10.5308503"><ele>821.0</ele><time>2026-04-26T08:54:00.093Z</time></trkpt><trkpt lat="45.7475895" lon="10.5310088"><ele>823.0</ele><time>2026-04-26T08:54:01.093Z</time></trkpt><trkpt lat="45.7475292" lon="10.5311338"><ele>825.0</ele><time>2026-04-26T08:54:02.093Z</time></trkpt><trkpt lat="45.7474593" lon="10.5312041"><ele>827.0</ele><time>2026-04-26T08:54:03.093Z</time></trkpt><trkpt lat="45.7473829" lon="10.5312199"><ele>827.0</ele><time>2026-04-26T08:54:04.093Z</time></trkpt><trkpt lat="45.7472988" lon="10.5311803"><ele>827.0</ele><time>2026-04-26T08:54:05.092Z</time></trkpt><trkpt lat="45.7472286" lon="10.531085"><ele>827.0</ele><time>2026-04-26T08:54:06.093Z</time></trkpt><trkpt lat="45.7471681" lon="10.5309484"><ele>827.0</ele><time>2026-04-26T08:54:07.093Z</time></trkpt><trkpt lat="45.7471142" lon="10.5307794"><ele>827.0</ele><time>2026-04-26T08:54:08.093Z</time></trkpt><trkpt lat="45.7470568" lon="10.5306151"><ele>827.0</ele><time>2026-04-26T08:54:09.092Z</time></trkpt><trkpt lat="45.7470024" lon="10.5304695"><ele>827.0</ele><time>2026-04-26T08:54:10.093Z</time></trkpt><trkpt lat="45.7469536" lon="10.5303648"><ele>827.0</ele><time>2026-04-26T08:54:11.093Z</time></trkpt><trkpt lat="45.7468895" lon="10.530304"><ele>827.0</ele><time>2026-04-26T08:54:12.093Z</time></trkpt><trkpt lat="45.7467984" lon="10.5303937"><ele>827.0</ele><time>2026-04-26T08:54:14.093Z</time></trkpt><trkpt lat="45.746804" lon="10.530493"><ele>827.0</ele><time>2026-04-26T08:54:15.093Z</time></trkpt><trkpt lat="45.7468464" lon="10.5306126"><ele>827.0</ele><time>2026-04-26T08:54:16.092Z</time></trkpt><trkpt lat="45.7468985" lon="10.530753"><ele>827.0</ele><time>2026-04-26T08:54:17.093Z</time></trkpt><trkpt lat="45.7469424" lon="10.5309179"><ele>827.0</ele><time>2026-04-26T08:54:18.093Z</time></trkpt><trkpt lat="45.7469786" lon="10.5310855"><ele>829.6</ele><time>2026-04-26T08:54:19.093Z</time></trkpt><trkpt lat="45.7470028" lon="10.5312323"><ele>832.2</ele><time>2026-04-26T08:54:20.093Z</time></trkpt><trkpt lat="45.7470152" lon="10.5313638"><ele>834.8</ele><time>2026-04-26T08:54:21.093Z</time></trkpt><trkpt lat="45.746998" lon="10.5314651"><ele>837.4</ele><time>2026-04-26T08:54:22.093Z</time></trkpt><trkpt lat="45.7468939" lon="10.531527"><ele>840.0</ele><time>2026-04-26T08:54:24.093Z</time></trkpt><trkpt lat="45.7468272" lon="10.5314725"><ele>842.0</ele><time>2026-04-26T08:54:25.092Z</time></trkpt><trkpt lat="45.7467685" lon="10.5313644"><ele>844.0</ele><time>2026-04-26T08:54:26.093Z</time></trkpt><trkpt lat="45.746713" lon="10.5312201"><ele>846.0</ele><time>2026-04-26T08:54:27.093Z</time></trkpt><trkpt lat="45.7466663" lon="10.531054"><ele>848.0</ele><time>2026-04-26T08:54:28.093Z</time></trkpt><trkpt lat="45.7466387" lon="10.530891"><ele>848.0000000000001</ele><time>2026-04-26T08:54:29.093Z</time></trkpt><trkpt lat="45.7466187" lon="10.530756"><ele>848.0</ele><time>2026-04-26T08:54:30.093Z</time></trkpt><trkpt lat="45.7465817" lon="10.5306607"><ele>848.0</ele><time>2026-04-26T08:54:31.092Z</time></trkpt><trkpt lat="45.7465238" lon="10.5306249"><ele>848.0</ele><time>2026-04-26T08:54:32.092Z</time></trkpt><trkpt lat="45.7464234" lon="10.5307104"><ele>848.0000000000001</ele><time>2026-04-26T08:54:34.092Z</time></trkpt><trkpt lat="45.7463951" lon="10.530841"><ele>848.0</ele><time>2026-04-26T08:54:35.093Z</time></trkpt><trkpt lat="45.7464347" lon="10.5310301"><ele>848.0</ele><time>2026-04-26T08:54:36.092Z</time></trkpt><trkpt lat="45.746416" lon="10.531216"><ele>848.0</ele><time>2026-04-26T08:54:37.093Z</time></trkpt><trkpt lat="45.7463989" lon="10.5314246"><ele>848.0</ele><time>2026-04-26T08:54:38.093Z</time></trkpt><trkpt lat="45.7464112" lon="10.5316247"><ele>848.0</ele><time>2026-04-26T08:54:39.093Z</time></trkpt><trkpt lat="45.7464537" lon="10.5318102"><ele>851.0</ele><time>2026-04-26T08:54:40.093Z</time></trkpt><trkpt lat="45.7465281" lon="10.531991"><ele>854.0</ele><time>2026-04-26T08:54:41.093Z</time></trkpt><trkpt lat="45.7466207" lon="10.5321748"><ele>857.0</ele><time>2026-04-26T08:54:42.093Z</time></trkpt><trkpt lat="45.7466962" lon="10.5323617"><ele>859.2</ele><time>2026-04-26T08:54:43.093Z</time></trkpt><trkpt lat="45.7467594" lon="10.5325321"><ele>861.4000000000001</ele><time>2026-04-26T08:54:44.092Z</time></trkpt><trkpt lat="45.7468164" lon="10.5326797"><ele>863.5999999999999</ele><time>2026-04-26T08:54:45.093Z</time></trkpt><trkpt lat="45.7468472" lon="10.5327987"><ele>865.8</ele><time>2026-04-26T08:54:46.093Z</time></trkpt><trkpt lat="45.7468425" lon="10.5328894"><ele>868.0</ele><time>2026-04-26T08:54:47.093Z</time></trkpt><trkpt lat="45.7467597" lon="10.5329619"><ele>868.0</ele><time>2026-04-26T08:54:49.093Z</time></trkpt><trkpt lat="45.7466409" lon="10.5328464"><ele>868.0</ele><time>2026-04-26T08:54:51.092Z</time></trkpt><trkpt lat="45.7465791" lon="10.5327355"><ele>868.0</ele><time>2026-04-26T08:54:52.093Z</time></trkpt><trkpt lat="45.7465028" lon="10.5326265"><ele>868.0</ele><time>2026-04-26T08:54:53.093Z</time></trkpt><trkpt lat="45.7464317" lon="10.5325122"><ele>867.9999999999999</ele><time>2026-04-26T08:54:54.093Z</time></trkpt><trkpt lat="45.7463736" lon="10.5324057"><ele>868.0</ele><time>2026-04-26T08:54:55.093Z</time></trkpt><trkpt lat="45.746326" lon="10.5323097"><ele>868.0</ele><time>2026-04-26T08:54:56.093Z</time></trkpt><trkpt lat="45.7462796" lon="10.5322312"><ele>868.0</ele><time>2026-04-26T08:54:57.093Z</time></trkpt><trkpt lat="45.7462269" lon="10.5321635"><ele>867.9999999999999</ele><time>2026-04-26T08:54:58.093Z</time></trkpt><trkpt lat="45.7461192" lon="10.5321373"><ele>868.0</ele><time>2026-04-26T08:55:00.093Z</time></trkpt><trkpt lat="45.7460834" lon="10.5322333"><ele>868.0</ele><time>2026-04-26T08:55:02.093Z</time></trkpt><trkpt lat="45.7461091" lon="10.5323326"><ele>868.0</ele><time>2026-04-26T08:55:03.093Z</time></trkpt><trkpt lat="45.7461499" lon="10.5324666"><ele>868.0</ele><time>2026-04-26T08:55:04.093Z</time></trkpt><trkpt lat="45.7461903" lon="10.5326254"><ele>868.0</ele><time>2026-04-26T08:55:05.093Z</time></trkpt><trkpt lat="45.7462347" lon="10.5328123"><ele>868.0</ele><time>2026-04-26T08:55:06.093Z</time></trkpt><trkpt lat="45.746285" lon="10.5330207"><ele>872.3333333333333</ele><time>2026-04-26T08:55:07.093Z</time></trkpt><trkpt lat="45.7463325" lon="10.5332336"><ele>876.6666666666667</ele><time>2026-04-26T08:55:08.093Z</time></trkpt><trkpt lat="45.7463851" lon="10.5334791"><ele>881.0</ele><time>2026-04-26T08:55:09.093Z</time></trkpt><trkpt lat="45.7464397" lon="10.5337445"><ele>885.6666666666667</ele><time>2026-04-26T08:55:10.093Z</time></trkpt><trkpt lat="45.746495" lon="10.5340184"><ele>890.3333333333333</ele><time>2026-04-26T08:55:11.093Z</time></trkpt><trkpt lat="45.7465384" lon="10.5342892"><ele>895.0</ele><time>2026-04-26T08:55:12.093Z</time></trkpt><trkpt lat="45.7465629" lon="10.5345399"><ele>896.0</ele><time>2026-04-26T08:55:13.093Z</time></trkpt><trkpt lat="45.7465634" lon="10.5347698"><ele>897.0</ele><time>2026-04-26T08:55:14.092Z</time></trkpt><trkpt lat="45.7465405" lon="10.5349651"><ele>898.0</ele><time>2026-04-26T08:55:15.093Z</time></trkpt><trkpt lat="45.7464841" lon="10.5351356"><ele>899.0</ele><time>2026-04-26T08:55:16.093Z</time></trkpt><trkpt lat="45.7464078" lon="10.535307"><ele>899.5</ele><time>2026-04-26T08:55:17.093Z</time></trkpt><trkpt lat="45.7463283" lon="10.5354735"><ele>900.0</ele><time>2026-04-26T08:55:18.092Z</time></trkpt><trkpt lat="45.746264" lon="10.5356446"><ele>900.5</ele><time>2026-04-26T08:55:19.093Z</time></trkpt><trkpt lat="45.7462295" lon="10.5358274"><ele>901.0</ele><time>2026-04-26T08:55:20.093Z</time></trkpt><trkpt lat="45.7462099" lon="10.5360292"><ele>905.0</ele><time>2026-04-26T08:55:21.093Z</time></trkpt><trkpt lat="45.7462048" lon="10.5362425"><ele>909.0</ele><time>2026-04-26T08:55:22.092Z</time></trkpt><trkpt lat="45.7462154" lon="10.5364456"><ele>913.0</ele><time>2026-04-26T08:55:23.092Z</time></trkpt><trkpt lat="45.7462537" lon="10.5366369"><ele>917.0</ele><time>2026-04-26T08:55:24.093Z</time></trkpt><trkpt lat="45.7463011" lon="10.5368127"><ele>917.0</ele><time>2026-04-26T08:55:25.093Z</time></trkpt><trkpt lat="45.7463684" lon="10.536948"><ele>917.0</ele><time>2026-04-26T08:55:26.092Z</time></trkpt><trkpt lat="45.7464518" lon="10.5370373"><ele>917.0</ele><time>2026-04-26T08:55:27.093Z</time></trkpt><trkpt lat="45.7465597" lon="10.5371005"><ele>917.0</ele><time>2026-04-26T08:55:28.093Z</time></trkpt><trkpt lat="45.7466794" lon="10.5371781"><ele>920.5</ele><time>2026-04-26T08:55:29.093Z</time></trkpt><trkpt lat="45.746794" lon="10.5372843"><ele>924.0</ele><time>2026-04-26T08:55:30.093Z</time></trkpt><trkpt lat="45.7469092" lon="10.5373873"><ele>927.5</ele><time>2026-04-26T08:55:31.093Z</time></trkpt><trkpt lat="45.7470244" lon="10.5374391"><ele>931.0</ele><time>2026-04-26T08:55:32.093Z</time></trkpt><trkpt lat="45.7471399" lon="10.5374446"><ele>931.0</ele><time>2026-04-26T08:55:33.093Z</time></trkpt><trkpt lat="45.7472538" lon="10.5374465"><ele>931.0</ele><time>2026-04-26T08:55:34.092Z</time></trkpt><trkpt lat="45.7473633" lon="10.5374834"><ele>931.0</ele><time>2026-04-26T08:55:35.093Z</time></trkpt><trkpt lat="45.7474613" lon="10.5375585"><ele>931.0</ele><time>2026-04-26T08:55:36.093Z</time></trkpt><trkpt lat="45.7475495" lon="10.5376744"><ele>931.0</ele><time>2026-04-26T08:55:37.092Z</time></trkpt><trkpt lat="45.7476274" lon="10.5378294"><ele>931.0</ele><time>2026-04-26T08:55:38.093Z</time></trkpt><trkpt lat="45.7477064" lon="10.5380077"><ele>931.0</ele><time>2026-04-26T08:55:39.092Z</time></trkpt><trkpt lat="45.7477898" lon="10.5381829"><ele>931.0</ele><time>2026-04-26T08:55:40.092Z</time></trkpt><trkpt lat="45.7478818" lon="10.5383508"><ele>933.1999999999999</ele><time>2026-04-26T08:55:41.093Z</time></trkpt><trkpt lat="45.7479777" lon="10.5384866"><ele>935.3999999999999</ele><time>2026-04-26T08:55:42.093Z</time></trkpt><trkpt lat="45.748067" lon="10.538575"><ele>937.6</ele><time>2026-04-26T08:55:43.092Z</time></trkpt><trkpt lat="45.7481612" lon="10.5386221"><ele>939.8</ele><time>2026-04-26T08:55:44.093Z</time></trkpt><trkpt lat="45.7482612" lon="10.5386167"><ele>942.0</ele><time>2026-04-26T08:55:45.093Z</time></trkpt><trkpt lat="45.7483668" lon="10.5385748"><ele>942.0</ele><time>2026-04-26T08:55:46.093Z</time></trkpt><trkpt lat="45.7484792" lon="10.5385508"><ele>942.0</ele><time>2026-04-26T08:55:47.092Z</time></trkpt><trkpt lat="45.7485821" lon="10.5385629"><ele>942.0</ele><time>2026-04-26T08:55:48.093Z</time></trkpt><trkpt lat="45.7486774" lon="10.5386132"><ele>942.0</ele><time>2026-04-26T08:55:49.093Z</time></trkpt><trkpt lat="45.7487754" lon="10.538697"><ele>942.0</ele><time>2026-04-26T08:55:50.093Z</time></trkpt><trkpt lat="45.7488685" lon="10.5387966"><ele>944.4000000000001</ele><time>2026-04-26T08:55:51.093Z</time></trkpt><trkpt lat="45.7489398" lon="10.5388993"><ele>946.8000000000001</ele><time>2026-04-26T08:55:52.093Z</time></trkpt><trkpt lat="45.7489859" lon="10.5390237"><ele>949.2</ele><time>2026-04-26T08:55:53.093Z</time></trkpt><trkpt lat="45.7489975" lon="10.539177"><ele>951.6</ele><time>2026-04-26T08:55:54.093Z</time></trkpt><trkpt lat="45.7489851" lon="10.5393249"><ele>954.0</ele><time>2026-04-26T08:55:55.093Z</time></trkpt><trkpt lat="45.7489967" lon="10.539475"><ele>951.0</ele><time>2026-04-26T08:55:56.093Z</time></trkpt><trkpt lat="45.7490393" lon="10.5396323"><ele>948.0</ele><time>2026-04-26T08:55:57.092Z</time></trkpt><trkpt lat="45.7491077" lon="10.5397914"><ele>945.0</ele><time>2026-04-26T08:55:58.093Z</time></trkpt><trkpt lat="45.7491896" lon="10.5399501"><ele>942.0</ele><time>2026-04-26T08:55:59.093Z</time></trkpt><trkpt lat="45.7492962" lon="10.5401105"><ele>941.6666666666667</ele><time>2026-04-26T08:56:00.092Z</time></trkpt><trkpt lat="45.7494195" lon="10.5402649"><ele>941.3333333333334</ele><time>2026-04-26T08:56:01.092Z</time></trkpt><trkpt lat="45.7495494" lon="10.5404099"><ele>941.0</ele><time>2026-04-26T08:56:02.092Z</time></trkpt><trkpt lat="45.7496759" lon="10.5405554"><ele>941.0</ele><time>2026-04-26T08:56:03.093Z</time></trkpt><trkpt lat="45.7498017" lon="10.5406927"><ele>941.0</ele><time>2026-04-26T08:56:04.092Z</time></trkpt><trkpt lat="45.7499175" lon="10.5408387"><ele>941.0</ele><time>2026-04-26T08:56:05.093Z</time></trkpt><trkpt lat="45.7500201" lon="10.5410001"><ele>941.0</ele><time>2026-04-26T08:56:06.093Z</time></trkpt><trkpt lat="45.7501061" lon="10.5411794"><ele>941.0</ele><time>2026-04-26T08:56:07.093Z</time></trkpt><trkpt lat="45.7501778" lon="10.541335"><ele>941.0</ele><time>2026-04-26T08:56:08.093Z</time></trkpt><trkpt lat="45.7502521" lon="10.5414653"><ele>941.0</ele><time>2026-04-26T08:56:09.092Z</time></trkpt><trkpt lat="45.7503416" lon="10.5415688"><ele>934.25</ele><time>2026-04-26T08:56:10.093Z</time></trkpt><trkpt lat="45.7504446" lon="10.5416271"><ele>927.5</ele><time>2026-04-26T08:56:11.093Z</time></trkpt><trkpt lat="45.7505621" lon="10.5416206"><ele>920.75</ele><time>2026-04-26T08:56:12.092Z</time></trkpt><trkpt lat="45.7506864" lon="10.541569"><ele>914.0</ele><time>2026-04-26T08:56:13.093Z</time></trkpt><trkpt lat="45.7508192" lon="10.5415031"><ele>914.0</ele><time>2026-04-26T08:56:14.093Z</time></trkpt><trkpt lat="45.7509603" lon="10.5414423"><ele>914.0</ele><time>2026-04-26T08:56:15.092Z</time></trkpt><trkpt lat="45.7511047" lon="10.541381"><ele>914.0</ele><time>2026-04-26T08:56:16.093Z</time></trkpt><trkpt lat="45.7512538" lon="10.5413241"><ele>910.0</ele><time>2026-04-26T08:56:17.093Z</time></trkpt><trkpt lat="45.7514062" lon="10.5412867"><ele>906.0</ele><time>2026-04-26T08:56:18.093Z</time></trkpt><trkpt lat="45.7515586" lon="10.5412638"><ele>902.0</ele><time>2026-04-26T08:56:19.093Z</time></trkpt><trkpt lat="45.7517051" lon="10.541232"><ele>905.0</ele><time>2026-04-26T08:56:20.092Z</time></trkpt><trkpt lat="45.7518546" lon="10.5412079"><ele>908.0</ele><time>2026-04-26T08:56:21.092Z</time></trkpt><trkpt lat="45.7519964" lon="10.541124"><ele>911.0</ele><time>2026-04-26T08:56:22.093Z</time></trkpt><trkpt lat="45.7521288" lon="10.541032"><ele>911.0</ele><time>2026-04-26T08:56:23.093Z</time></trkpt><trkpt lat="45.7522489" lon="10.5409304"><ele>911.0</ele><time>2026-04-26T08:56:24.093Z</time></trkpt><trkpt lat="45.7523716" lon="10.5408619"><ele>911.0</ele><time>2026-04-26T08:56:25.093Z</time></trkpt><trkpt lat="45.7524874" lon="10.540836"><ele>911.0</ele><time>2026-04-26T08:56:26.092Z</time></trkpt><trkpt lat="45.7525874" lon="10.540844"><ele>911.0000000000001</ele><time>2026-04-26T08:56:27.093Z</time></trkpt><trkpt lat="45.7526825" lon="10.5408604"><ele>911.0</ele><time>2026-04-26T08:56:28.092Z</time></trkpt><trkpt lat="45.7527642" lon="10.5408936"><ele>911.0</ele><time>2026-04-26T08:56:29.093Z</time></trkpt><trkpt lat="45.7528342" lon="10.5409533"><ele>911.0</ele><time>2026-04-26T08:56:30.093Z</time></trkpt><trkpt lat="45.7528867" lon="10.5410311"><ele>911.0000000000001</ele><time>2026-04-26T08:56:31.093Z</time></trkpt><trkpt lat="45.7529123" lon="10.5411202"><ele>911.0</ele><time>2026-04-26T08:56:32.093Z</time></trkpt><trkpt lat="45.7529217" lon="10.5412166"><ele>911.8333333333334</ele><time>2026-04-26T08:56:33.093Z</time></trkpt><trkpt lat="45.752931" lon="10.5413182"><ele>912.6666666666667</ele><time>2026-04-26T08:56:34.093Z</time></trkpt><trkpt lat="45.7529464" lon="10.5414276"><ele>913.5</ele><time>2026-04-26T08:56:35.093Z</time></trkpt><trkpt lat="45.7529664" lon="10.5415405"><ele>914.3333333333333</ele><time>2026-04-26T08:56:36.093Z</time></trkpt><trkpt lat="45.7529865" lon="10.5416576"><ele>915.1666666666666</ele><time>2026-04-26T08:56:37.093Z</time></trkpt><trkpt lat="45.7530049" lon="10.5417737"><ele>916.0</ele><time>2026-04-26T08:56:38.092Z</time></trkpt><trkpt lat="45.7530306" lon="10.5418949"><ele>916.0</ele><time>2026-04-26T08:56:39.093Z</time></trkpt><trkpt lat="45.7530578" lon="10.5420212"><ele>915.9999999999999</ele><time>2026-04-26T08:56:40.093Z</time></trkpt><trkpt lat="45.7530872" lon="10.5421529"><ele>915.9999999999999</ele><time>2026-04-26T08:56:41.093Z</time></trkpt><trkpt lat="45.753117" lon="10.5422995"><ele>916.0</ele><time>2026-04-26T08:56:42.093Z</time></trkpt><trkpt lat="45.7531518" lon="10.5424573"><ele>916.0</ele><time>2026-04-26T08:56:43.093Z</time></trkpt><trkpt lat="45.7531922" lon="10.5426165"><ele>914.5</ele><time>2026-04-26T08:56:44.093Z</time></trkpt><trkpt lat="45.7532322" lon="10.5427797"><ele>913.0</ele><time>2026-04-26T08:56:45.092Z</time></trkpt><trkpt lat="45.7532724" lon="10.5429467"><ele>911.5</ele><time>2026-04-26T08:56:46.092Z</time></trkpt><trkpt lat="45.7533025" lon="10.5431179"><ele>910.0</ele><time>2026-04-26T08:56:47.093Z</time></trkpt><trkpt lat="45.753336" lon="10.5432893"><ele>908.75</ele><time>2026-04-26T08:56:48.093Z</time></trkpt><trkpt lat="45.7533634" lon="10.5434617"><ele>907.5</ele><time>2026-04-26T08:56:49.093Z</time></trkpt><trkpt lat="45.753366" lon="10.5436453"><ele>906.25</ele><time>2026-04-26T08:56:50.093Z</time></trkpt><trkpt lat="45.7533735" lon="10.5438321"><ele>905.0</ele><time>2026-04-26T08:56:51.093Z</time></trkpt><trkpt lat="45.7533791" lon="10.544017"><ele>904.25</ele><time>2026-04-26T08:56:52.092Z</time></trkpt><trkpt lat="45.7533767" lon="10.5442135"><ele>903.5</ele><time>2026-04-26T08:56:53.092Z</time></trkpt><trkpt lat="45.7533736" lon="10.5444171"><ele>902.75</ele><time>2026-04-26T08:56:54.093Z</time></trkpt><trkpt lat="45.7533654" lon="10.5446206"><ele>902.0</ele><time>2026-04-26T08:56:55.093Z</time></trkpt><trkpt lat="45.7533406" lon="10.5448297"><ele>901.75</ele><time>2026-04-26T08:56:56.093Z</time></trkpt><trkpt lat="45.7533092" lon="10.5450392"><ele>901.5</ele><time>2026-04-26T08:56:57.093Z</time></trkpt><trkpt lat="45.7532772" lon="10.5452498"><ele>901.25</ele><time>2026-04-26T08:56:58.092Z</time></trkpt><trkpt lat="45.753243" lon="10.5454525"><ele>901.0</ele><time>2026-04-26T08:56:59.093Z</time></trkpt><trkpt lat="45.7532114" lon="10.5456518"><ele>901.0</ele><time>2026-04-26T08:57:00.093Z</time></trkpt><trkpt lat="45.7531802" lon="10.5458376"><ele>901.0</ele><time>2026-04-26T08:57:01.093Z</time></trkpt><trkpt lat="45.7531508" lon="10.5460216"><ele>901.0</ele><time>2026-04-26T08:57:02.093Z</time></trkpt><trkpt lat="45.7531128" lon="10.5462034"><ele>901.0</ele><time>2026-04-26T08:57:03.093Z</time></trkpt><trkpt lat="45.7530657" lon="10.5463834"><ele>900.6666666666666</ele><time>2026-04-26T08:57:04.092Z</time></trkpt><trkpt lat="45.7530393" lon="10.5465893"><ele>900.3333333333333</ele><time>2026-04-26T08:57:05.092Z</time></trkpt><trkpt lat="45.7530203" lon="10.5468028"><ele>900.0</ele><time>2026-04-26T08:57:06.093Z</time></trkpt><trkpt lat="45.7530137" lon="10.5470236"><ele>898.6666666666667</ele><time>2026-04-26T08:57:07.093Z</time></trkpt><trkpt lat="45.7530194" lon="10.5472466"><ele>897.3333333333334</ele><time>2026-04-26T08:57:08.093Z</time></trkpt><trkpt lat="45.7530434" lon="10.5474732"><ele>896.0</ele><time>2026-04-26T08:57:09.093Z</time></trkpt><trkpt lat="45.7530794" lon="10.5476831"><ele>893.6666666666667</ele><time>2026-04-26T08:57:10.093Z</time></trkpt><trkpt lat="45.7531234" lon="10.5478867"><ele>891.3333333333333</ele><time>2026-04-26T08:57:11.093Z</time></trkpt><trkpt lat="45.7531694" lon="10.5480921"><ele>889.0</ele><time>2026-04-26T08:57:12.093Z</time></trkpt><trkpt lat="45.7532145" lon="10.5483035"><ele>889.0</ele><time>2026-04-26T08:57:13.093Z</time></trkpt><trkpt lat="45.7532593" lon="10.5485192"><ele>889.0</ele><time>2026-04-26T08:57:14.093Z</time></trkpt><trkpt lat="45.7532987" lon="10.5487281"><ele>889.0</ele><time>2026-04-26T08:57:15.093Z</time></trkpt><trkpt lat="45.7533386" lon="10.5489294"><ele>886.75</ele><time>2026-04-26T08:57:16.093Z</time></trkpt><trkpt lat="45.7533852" lon="10.5491289"><ele>884.5</ele><time>2026-04-26T08:57:17.093Z</time></trkpt><trkpt lat="45.7534414" lon="10.5493228"><ele>882.25</ele><time>2026-04-26T08:57:18.092Z</time></trkpt><trkpt lat="45.7534977" lon="10.5494888"><ele>880.0</ele><time>2026-04-26T08:57:19.093Z</time></trkpt><trkpt lat="45.7535471" lon="10.5496265"><ele>879.8</ele><time>2026-04-26T08:57:20.093Z</time></trkpt><trkpt lat="45.7535983" lon="10.5497412"><ele>879.6</ele><time>2026-04-26T08:57:21.093Z</time></trkpt><trkpt lat="45.7536546" lon="10.5498271"><ele>879.4000000000001</ele><time>2026-04-26T08:57:22.092Z</time></trkpt><trkpt lat="45.7537363" lon="10.5498848"><ele>879.2</ele><time>2026-04-26T08:57:23.092Z</time></trkpt><trkpt lat="45.7538381" lon="10.5499198"><ele>879.0</ele><time>2026-04-26T08:57:24.093Z</time></trkpt><trkpt lat="45.7539432" lon="10.5499313"><ele>879.0</ele><time>2026-04-26T08:57:25.093Z</time></trkpt><trkpt lat="45.7540576" lon="10.5499336"><ele>879.0</ele><time>2026-04-26T08:57:26.093Z</time></trkpt><trkpt lat="45.7541706" lon="10.5499537"><ele>879.0</ele><time>2026-04-26T08:57:27.093Z</time></trkpt><trkpt lat="45.7542806" lon="10.5500049"><ele>879.0</ele><time>2026-04-26T08:57:28.093Z</time></trkpt><trkpt lat="45.7543803" lon="10.5500919"><ele>882.1666666666666</ele><time>2026-04-26T08:57:29.092Z</time></trkpt><trkpt lat="45.7544695" lon="10.5501881"><ele>885.3333333333333</ele><time>2026-04-26T08:57:30.092Z</time></trkpt><trkpt lat="45.7545524" lon="10.550274"><ele>888.5</ele><time>2026-04-26T08:57:31.093Z</time></trkpt><trkpt lat="45.7546162" lon="10.5503565"><ele>891.6666666666666</ele><time>2026-04-26T08:57:32.093Z</time></trkpt><trkpt lat="45.7546456" lon="10.550454"><ele>894.8333333333333</ele><time>2026-04-26T08:57:33.093Z</time></trkpt><trkpt lat="45.7546334" lon="10.5505503"><ele>898.0</ele><time>2026-04-26T08:57:34.093Z</time></trkpt><trkpt lat="45.7545745" lon="10.5506296"><ele>898.0</ele><time>2026-04-26T08:57:35.092Z</time></trkpt><trkpt lat="45.7544843" lon="10.5506805"><ele>898.0</ele><time>2026-04-26T08:57:36.093Z</time></trkpt><trkpt lat="45.754383" lon="10.5507556"><ele>898.0</ele><time>2026-04-26T08:57:37.093Z</time></trkpt><trkpt lat="45.7542736" lon="10.5508353"><ele>898.0</ele><time>2026-04-26T08:57:38.092Z</time></trkpt><trkpt lat="45.7541535" lon="10.5509315"><ele>892.0</ele><time>2026-04-26T08:57:39.092Z</time></trkpt><trkpt lat="45.7540586" lon="10.5510337"><ele>886.0</ele><time>2026-04-26T08:57:40.093Z</time></trkpt><trkpt lat="45.7539504" lon="10.551081"><ele>880.0</ele><time>2026-04-26T08:57:41.093Z</time></trkpt><trkpt lat="45.7538363" lon="10.5510766"><ele>874.0</ele><time>2026-04-26T08:57:42.092Z</time></trkpt><trkpt lat="45.7537164" lon="10.5510834"><ele>874.0</ele><time>2026-04-26T08:57:43.093Z</time></trkpt><trkpt lat="45.753618" lon="10.5511421"><ele>874.0</ele><time>2026-04-26T08:57:44.092Z</time></trkpt><trkpt lat="45.7535256" lon="10.5512331"><ele>874.0</ele><time>2026-04-26T08:57:45.092Z</time></trkpt><trkpt lat="45.7534293" lon="10.5513556"><ele>874.0</ele><time>2026-04-26T08:57:46.093Z</time></trkpt><trkpt lat="45.753326" lon="10.5514905"><ele>874.0</ele><time>2026-04-26T08:57:47.093Z</time></trkpt><trkpt lat="45.7532085" lon="10.5516278"><ele>874.0</ele><time>2026-04-26T08:57:48.093Z</time></trkpt><trkpt lat="45.7530777" lon="10.551761"><ele>874.0</ele><time>2026-04-26T08:57:49.093Z</time></trkpt><trkpt lat="45.7529424" lon="10.5519044"><ele>867.3333333333333</ele><time>2026-04-26T08:57:50.093Z</time></trkpt><trkpt lat="45.752815" lon="10.552055"><ele>860.6666666666667</ele><time>2026-04-26T08:57:51.093Z</time></trkpt><trkpt lat="45.7526926" lon="10.5522051"><ele>854.0</ele><time>2026-04-26T08:57:52.093Z</time></trkpt><trkpt lat="45.7525763" lon="10.5523481"><ele>854.0</ele><time>2026-04-26T08:57:53.093Z</time></trkpt><trkpt lat="45.7524645" lon="10.5524871"><ele>854.0</ele><time>2026-04-26T08:57:54.093Z</time></trkpt><trkpt lat="45.7523642" lon="10.5526324"><ele>854.0</ele><time>2026-04-26T08:57:55.093Z</time></trkpt><trkpt lat="45.7522735" lon="10.5527811"><ele>854.0</ele><time>2026-04-26T08:57:56.093Z</time></trkpt><trkpt lat="45.7521895" lon="10.5529311"><ele>852.75</ele><time>2026-04-26T08:57:57.093Z</time></trkpt><trkpt lat="45.7521088" lon="10.5530782"><ele>851.5</ele><time>2026-04-26T08:57:58.092Z</time></trkpt><trkpt lat="45.7520256" lon="10.5532026"><ele>850.25</ele><time>2026-04-26T08:57:59.093Z</time></trkpt><trkpt lat="45.7519272" lon="10.5532968"><ele>849.0</ele><time>2026-04-26T08:58:00.092Z</time></trkpt><trkpt lat="45.7518049" lon="10.5533562"><ele>849.0</ele><time>2026-04-26T08:58:01.093Z</time></trkpt><trkpt lat="45.7516866" lon="10.5533844"><ele>849.0</ele><time>2026-04-26T08:58:02.093Z</time></trkpt><trkpt lat="45.7515698" lon="10.5534076"><ele>849.0</ele><time>2026-04-26T08:58:03.093Z</time></trkpt><trkpt lat="45.7514771" lon="10.5534583"><ele>849.0</ele><time>2026-04-26T08:58:04.093Z</time></trkpt><trkpt lat="45.7513837" lon="10.5535419"><ele>849.0</ele><time>2026-04-26T08:58:05.092Z</time></trkpt><trkpt lat="45.7512871" lon="10.5536391"><ele>846.0</ele><time>2026-04-26T08:58:06.093Z</time></trkpt><trkpt lat="45.7511937" lon="10.55377"><ele>843.0</ele><time>2026-04-26T08:58:07.093Z</time></trkpt><trkpt lat="45.7510993" lon="10.5539172"><ele>840.0</ele><time>2026-04-26T08:58:08.093Z</time></trkpt><trkpt lat="45.750992" lon="10.5540487"><ele>837.0</ele><time>2026-04-26T08:58:09.092Z</time></trkpt><trkpt lat="45.7508774" lon="10.5541706"><ele>837.0</ele><time>2026-04-26T08:58:10.093Z</time></trkpt><trkpt lat="45.7507706" lon="10.5542998"><ele>837.0</ele><time>2026-04-26T08:58:11.093Z</time></trkpt><trkpt lat="45.7506692" lon="10.5544431"><ele>837.0</ele><time>2026-04-26T08:58:12.093Z</time></trkpt><trkpt lat="45.7505661" lon="10.5545865"><ele>837.0</ele><time>2026-04-26T08:58:13.093Z</time></trkpt><trkpt lat="45.7504704" lon="10.5547188"><ele>844.25</ele><time>2026-04-26T08:58:14.093Z</time></trkpt><trkpt lat="45.7503879" lon="10.5548382"><ele>851.5</ele><time>2026-04-26T08:58:15.092Z</time></trkpt><trkpt lat="45.7503209" lon="10.5549719"><ele>858.75</ele><time>2026-04-26T08:58:16.093Z</time></trkpt><trkpt lat="45.7502804" lon="10.5551267"><ele>866.0</ele><time>2026-04-26T08:58:17.093Z</time></trkpt><trkpt lat="45.750248" lon="10.5552922"><ele>868.5</ele><time>2026-04-26T08:58:18.093Z</time></trkpt><trkpt lat="45.7502198" lon="10.5554625"><ele>871.0</ele><time>2026-04-26T08:58:19.093Z</time></trkpt><trkpt lat="45.750209" lon="10.5556365"><ele>873.5</ele><time>2026-04-26T08:58:20.093Z</time></trkpt><trkpt lat="45.7502257" lon="10.5558042"><ele>876.0</ele><time>2026-04-26T08:58:21.093Z</time></trkpt><trkpt lat="45.7502623" lon="10.5559428"><ele>876.0</ele><time>2026-04-26T08:58:22.092Z</time></trkpt><trkpt lat="45.7503275" lon="10.5560705"><ele>875.9999999999999</ele><time>2026-04-26T08:58:23.093Z</time></trkpt><trkpt lat="45.7504099" lon="10.5561824"><ele>875.9999999999999</ele><time>2026-04-26T08:58:24.093Z</time></trkpt><trkpt lat="45.7504649" lon="10.5563175"><ele>876.0</ele><time>2026-04-26T08:58:25.092Z</time></trkpt><trkpt lat="45.7504939" lon="10.5564715"><ele>876.0</ele><time>2026-04-26T08:58:26.093Z</time></trkpt><trkpt lat="45.7505361" lon="10.5566121"><ele>870.25</ele><time>2026-04-26T08:58:27.093Z</time></trkpt><trkpt lat="45.7506071" lon="10.5567493"><ele>864.5</ele><time>2026-04-26T08:58:28.093Z</time></trkpt><trkpt lat="45.7506817" lon="10.5568909"><ele>858.75</ele><time>2026-04-26T08:58:29.092Z</time></trkpt><trkpt lat="45.7507393" lon="10.5570515"><ele>853.0</ele><time>2026-04-26T08:58:30.093Z</time></trkpt><trkpt lat="45.750778" lon="10.5572274"><ele>847.2</ele><time>2026-04-26T08:58:31.093Z</time></trkpt><trkpt lat="45.7508105" lon="10.5574028"><ele>841.4</ele><time>2026-04-26T08:58:32.093Z</time></trkpt><trkpt lat="45.7508241" lon="10.5575405"><ele>835.6</ele><time>2026-04-26T08:58:33.092Z</time></trkpt><trkpt lat="45.7508629" lon="10.557666"><ele>829.8000000000001</ele><time>2026-04-26T08:58:34.093Z</time></trkpt><trkpt lat="45.7509249" lon="10.5577882"><ele>824.0</ele><time>2026-04-26T08:58:35.093Z</time></trkpt><trkpt lat="45.7509952" lon="10.5579203"><ele>828.25</ele><time>2026-04-26T08:58:36.092Z</time></trkpt><trkpt lat="45.7510385" lon="10.5580861"><ele>832.5</ele><time>2026-04-26T08:58:37.093Z</time></trkpt><trkpt lat="45.7510766" lon="10.5582563"><ele>836.75</ele><time>2026-04-26T08:58:38.093Z</time></trkpt><trkpt lat="45.7511107" lon="10.5584032"><ele>841.0</ele><time>2026-04-26T08:58:39.093Z</time></trkpt><trkpt lat="45.7511658" lon="10.5585225"><ele>841.0</ele><time>2026-04-26T08:58:40.093Z</time></trkpt><trkpt lat="45.7512526" lon="10.5586041"><ele>841.0</ele><time>2026-04-26T08:58:41.093Z</time></trkpt><trkpt lat="45.7513566" lon="10.5586597"><ele>841.0</ele><time>2026-04-26T08:58:42.092Z</time></trkpt><trkpt lat="45.7514746" lon="10.5586914"><ele>841.0</ele><time>2026-04-26T08:58:43.093Z</time></trkpt><trkpt lat="45.751587" lon="10.5586859"><ele>841.0</ele><time>2026-04-26T08:58:44.092Z</time></trkpt><trkpt lat="45.7516872" lon="10.5586349"><ele>841.0</ele><time>2026-04-26T08:58:45.093Z</time></trkpt><trkpt lat="45.7517777" lon="10.5585869"><ele>841.0</ele><time>2026-04-26T08:58:46.093Z</time></trkpt><trkpt lat="45.7518738" lon="10.5585905"><ele>841.0</ele><time>2026-04-26T08:58:47.093Z</time></trkpt><trkpt lat="45.7519759" lon="10.5586108"><ele>841.0</ele><time>2026-04-26T08:58:48.093Z</time></trkpt><trkpt lat="45.7520909" lon="10.5586257"><ele>841.0</ele><time>2026-04-26T08:58:49.092Z</time></trkpt><trkpt lat="45.7521992" lon="10.5586474"><ele>838.9999999999999</ele><time>2026-04-26T08:58:50.093Z</time></trkpt><trkpt lat="45.7522955" lon="10.5586834"><ele>837.0</ele><time>2026-04-26T08:58:51.093Z</time></trkpt><trkpt lat="45.7523639" lon="10.5587232"><ele>835.0</ele><time>2026-04-26T08:58:52.093Z</time></trkpt><trkpt lat="45.7524156" lon="10.5587824"><ele>833.0</ele><time>2026-04-26T08:58:53.093Z</time></trkpt><trkpt lat="45.752417" lon="10.5588846"><ele>830.9999999999999</ele><time>2026-04-26T08:58:54.093Z</time></trkpt><trkpt lat="45.7523751" lon="10.5589855"><ele>829.0</ele><time>2026-04-26T08:58:55.092Z</time></trkpt><trkpt lat="45.7523161" lon="10.5590948"><ele>829.0</ele><time>2026-04-26T08:58:56.093Z</time></trkpt><trkpt lat="45.7522403" lon="10.5592118"><ele>829.0</ele><time>2026-04-26T08:58:57.093Z</time></trkpt><trkpt lat="45.7521638" lon="10.5593362"><ele>829.0</ele><time>2026-04-26T08:58:58.093Z</time></trkpt><trkpt lat="45.7521028" lon="10.5594595"><ele>829.0</ele><time>2026-04-26T08:58:59.092Z</time></trkpt><trkpt lat="45.7520588" lon="10.5596134"><ele>829.0</ele><time>2026-04-26T08:59:00.093Z</time></trkpt><trkpt lat="45.75204" lon="10.559795"><ele>831.0</ele><time>2026-04-26T08:59:01.092Z</time></trkpt><trkpt lat="45.7520227" lon="10.5599804"><ele>833.0</ele><time>2026-04-26T08:59:02.092Z</time></trkpt><trkpt lat="45.7519732" lon="10.5601668"><ele>835.0</ele><time>2026-04-26T08:59:03.093Z</time></trkpt><trkpt lat="45.7519212" lon="10.5603476"><ele>837.0</ele><time>2026-04-26T08:59:04.093Z</time></trkpt><trkpt lat="45.7518319" lon="10.5604929"><ele>828.0</ele><time>2026-04-26T08:59:05.093Z</time></trkpt><trkpt lat="45.7517293" lon="10.5606352"><ele>819.0</ele><time>2026-04-26T08:59:06.092Z</time></trkpt><trkpt lat="45.7516197" lon="10.5607668"><ele>810.0</ele><time>2026-04-26T08:59:07.093Z</time></trkpt><trkpt lat="45.7515171" lon="10.5608744"><ele>801.0</ele><time>2026-04-26T08:59:08.093Z</time></trkpt><trkpt lat="45.751435" lon="10.5609722"><ele>801.0</ele><time>2026-04-26T08:59:09.093Z</time></trkpt><trkpt lat="45.7513761" lon="10.5610771"><ele>801.0</ele><time>2026-04-26T08:59:10.093Z</time></trkpt><trkpt lat="45.7513468" lon="10.5612158"><ele>801.0</ele><time>2026-04-26T08:59:11.093Z</time></trkpt><trkpt lat="45.751313" lon="10.5613603"><ele>801.0</ele><time>2026-04-26T08:59:12.093Z</time></trkpt><trkpt lat="45.7512637" lon="10.5615196"><ele>801.0</ele><time>2026-04-26T08:59:13.093Z</time></trkpt><trkpt lat="45.7511806" lon="10.5616436"><ele>805.5</ele><time>2026-04-26T08:59:14.092Z</time></trkpt><trkpt lat="45.7511032" lon="10.5617731"><ele>810.0</ele><time>2026-04-26T08:59:15.092Z</time></trkpt><trkpt lat="45.7510498" lon="10.5619397"><ele>814.5</ele><time>2026-04-26T08:59:16.093Z</time></trkpt><trkpt lat="45.7510186" lon="10.5621293"><ele>819.0</ele><time>2026-04-26T08:59:17.093Z</time></trkpt><trkpt lat="45.7509961" lon="10.5623422"><ele>802.6666666666667</ele><time>2026-04-26T08:59:18.093Z</time></trkpt><trkpt lat="45.7509705" lon="10.5625571"><ele>786.3333333333334</ele><time>2026-04-26T08:59:19.093Z</time></trkpt><trkpt lat="45.7509631" lon="10.5627838"><ele>770.0</ele><time>2026-04-26T08:59:20.093Z</time></trkpt><trkpt lat="45.7509687" lon="10.5630076"><ele>769.75</ele><time>2026-04-26T08:59:21.093Z</time></trkpt><trkpt lat="45.7509652" lon="10.5632137"><ele>769.5</ele><time>2026-04-26T08:59:22.093Z</time></trkpt><trkpt lat="45.7509396" lon="10.5634091"><ele>769.25</ele><time>2026-04-26T08:59:23.093Z</time></trkpt><trkpt lat="45.7508819" lon="10.5635849"><ele>769.0</ele><time>2026-04-26T08:59:24.092Z</time></trkpt><trkpt lat="45.7508045" lon="10.5637299"><ele>769.75</ele><time>2026-04-26T08:59:25.093Z</time></trkpt><trkpt lat="45.7507543" lon="10.5638628"><ele>770.5</ele><time>2026-04-26T08:59:26.093Z</time></trkpt><trkpt lat="45.7507384" lon="10.5640341"><ele>771.25</ele><time>2026-04-26T08:59:27.093Z</time></trkpt><trkpt lat="45.7507394" lon="10.5642167"><ele>772.0</ele><time>2026-04-26T08:59:28.093Z</time></trkpt><trkpt lat="45.7507589" lon="10.5643909"><ele>771.8333333333333</ele><time>2026-04-26T08:59:29.093Z</time></trkpt><trkpt lat="45.7507969" lon="10.5645433"><ele>771.6666666666666</ele><time>2026-04-26T08:59:30.092Z</time></trkpt><trkpt lat="45.7508516" lon="10.5646636"><ele>771.5</ele><time>2026-04-26T08:59:31.093Z</time></trkpt><trkpt lat="45.7508929" lon="10.5647538"><ele>771.3333333333333</ele><time>2026-04-26T08:59:32.093Z</time></trkpt><trkpt lat="45.7509028" lon="10.5648641"><ele>771.1666666666666</ele><time>2026-04-26T08:59:33.093Z</time></trkpt><trkpt lat="45.7508756" lon="10.5649665"><ele>771.0</ele><time>2026-04-26T08:59:34.093Z</time></trkpt><trkpt lat="45.7508252" lon="10.5650433"><ele>771.0</ele><time>2026-04-26T08:59:35.093Z</time></trkpt><trkpt lat="45.7507484" lon="10.5650682"><ele>771.0</ele><time>2026-04-26T08:59:36.093Z</time></trkpt><trkpt lat="45.7506607" lon="10.565072"><ele>771.0</ele><time>2026-04-26T08:59:37.093Z</time></trkpt><trkpt lat="45.7505662" lon="10.5651322"><ele>771.0</ele><time>2026-04-26T08:59:38.093Z</time></trkpt><trkpt lat="45.7504804" lon="10.5652192"><ele>771.0</ele><time>2026-04-26T08:59:39.093Z</time></trkpt><trkpt lat="45.750416" lon="10.5653189"><ele>773.75</ele><time>2026-04-26T08:59:40.093Z</time></trkpt><trkpt lat="45.7503805" lon="10.5654398"><ele>776.5</ele><time>2026-04-26T08:59:41.093Z</time></trkpt><trkpt lat="45.7503647" lon="10.5656045"><ele>779.25</ele><time>2026-04-26T08:59:42.093Z</time></trkpt><trkpt lat="45.7503559" lon="10.5657916"><ele>782.0</ele><time>2026-04-26T08:59:43.093Z</time></trkpt><trkpt lat="45.7503574" lon="10.5659876"><ele>782.0</ele><time>2026-04-26T08:59:44.093Z</time></trkpt><trkpt lat="45.7503687" lon="10.566165"><ele>782.0</ele><time>2026-04-26T08:59:45.093Z</time></trkpt><trkpt lat="45.7503633" lon="10.5663115"><ele>782.0</ele><time>2026-04-26T08:59:46.093Z</time></trkpt><trkpt lat="45.7503222" lon="10.5664861"><ele>782.0</ele><time>2026-04-26T08:59:47.092Z</time></trkpt><trkpt lat="45.7502832" lon="10.5666362"><ele>788.25</ele><time>2026-04-26T08:59:48.092Z</time></trkpt><trkpt lat="45.7502259" lon="10.5668202"><ele>794.5</ele><time>2026-04-26T08:59:49.092Z</time></trkpt><trkpt lat="45.750191" lon="10.5670077"><ele>800.75</ele><time>2026-04-26T08:59:50.093Z</time></trkpt><trkpt lat="45.7501718" lon="10.5672021"><ele>807.0</ele><time>2026-04-26T08:59:51.092Z</time></trkpt><trkpt lat="45.750191" lon="10.5674266"><ele>810.75</ele><time>2026-04-26T08:59:52.093Z</time></trkpt><trkpt lat="45.7502048" lon="10.5676446"><ele>814.5</ele><time>2026-04-26T08:59:53.093Z</time></trkpt><trkpt lat="45.7502245" lon="10.5678209"><ele>818.25</ele><time>2026-04-26T08:59:54.093Z</time></trkpt><trkpt lat="45.7502266" lon="10.567993"><ele>822.0</ele><time>2026-04-26T08:59:55.093Z</time></trkpt><trkpt lat="45.7502007" lon="10.5681553"><ele>818.25</ele><time>2026-04-26T08:59:56.093Z</time></trkpt><trkpt lat="45.7501697" lon="10.5683216"><ele>814.5</ele><time>2026-04-26T08:59:57.093Z</time></trkpt><trkpt lat="45.7501542" lon="10.5684883"><ele>810.75</ele><time>2026-04-26T08:59:58.093Z</time></trkpt><trkpt lat="45.7501735" lon="10.5686431"><ele>807.0</ele><time>2026-04-26T08:59:59.093Z</time></trkpt><trkpt lat="45.7502159" lon="10.5687916"><ele>807.0</ele><time>2026-04-26T09:00:00.093Z</time></trkpt><trkpt lat="45.7502453" lon="10.5689576"><ele>807.0</ele><time>2026-04-26T09:00:01.093Z</time></trkpt><trkpt lat="45.7502503" lon="10.5691164"><ele>807.0</ele><time>2026-04-26T09:00:02.092Z</time></trkpt><trkpt lat="45.7502152" lon="10.5693001"><ele>807.0</ele><time>2026-04-26T09:00:03.093Z</time></trkpt><trkpt lat="45.7502519" lon="10.5694719"><ele>801.0</ele><time>2026-04-26T09:00:04.093Z</time></trkpt><trkpt lat="45.7502992" lon="10.5696667"><ele>795.0</ele><time>2026-04-26T09:00:05.093Z</time></trkpt><trkpt lat="45.7503376" lon="10.5698515"><ele>789.0</ele><time>2026-04-26T09:00:06.093Z</time></trkpt><trkpt lat="45.7503613" lon="10.5700166"><ele>783.0</ele><time>2026-04-26T09:00:07.093Z</time></trkpt><trkpt lat="45.7503892" lon="10.5701726"><ele>783.0</ele><time>2026-04-26T09:00:08.093Z</time></trkpt><trkpt lat="45.7504544" lon="10.5702809"><ele>783.0</ele><time>2026-04-26T09:00:09.092Z</time></trkpt><trkpt lat="45.7504936" lon="10.5703744"><ele>783.0</ele><time>2026-04-26T09:00:10.093Z</time></trkpt><trkpt lat="45.7504882" lon="10.5704975"><ele>783.0</ele><time>2026-04-26T09:00:11.093Z</time></trkpt><trkpt lat="45.7504801" lon="10.5706388"><ele>783.0</ele><time>2026-04-26T09:00:12.093Z</time></trkpt><trkpt lat="45.750477" lon="10.5708104"><ele>778.8333333333334</ele><time>2026-04-26T09:00:13.093Z</time></trkpt><trkpt lat="45.750495" lon="10.5709319"><ele>774.6666666666666</ele><time>2026-04-26T09:00:14.093Z</time></trkpt><trkpt lat="45.7505483" lon="10.57103"><ele>770.5</ele><time>2026-04-26T09:00:15.093Z</time></trkpt><trkpt lat="45.7506358" lon="10.5711095"><ele>766.3333333333333</ele><time>2026-04-26T09:00:16.093Z</time></trkpt><trkpt lat="45.7507131" lon="10.5711797"><ele>762.1666666666666</ele><time>2026-04-26T09:00:17.093Z</time></trkpt><trkpt lat="45.7507638" lon="10.5712599"><ele>758.0</ele><time>2026-04-26T09:00:18.092Z</time></trkpt><trkpt lat="45.7507748" lon="10.5713755"><ele>754.8</ele><time>2026-04-26T09:00:19.093Z</time></trkpt><trkpt lat="45.7507474" lon="10.5714989"><ele>751.5999999999999</ele><time>2026-04-26T09:00:20.093Z</time></trkpt><trkpt lat="45.7507115" lon="10.5716232"><ele>748.4000000000001</ele><time>2026-04-26T09:00:21.092Z</time></trkpt><trkpt lat="45.7507149" lon="10.5717486"><ele>745.2</ele><time>2026-04-26T09:00:22.093Z</time></trkpt><trkpt lat="45.7507527" lon="10.5718644"><ele>742.0</ele><time>2026-04-26T09:00:23.093Z</time></trkpt><trkpt lat="45.7508303" lon="10.5719559"><ele>740.2</ele><time>2026-04-26T09:00:24.093Z</time></trkpt><trkpt lat="45.7508932" lon="10.5720522"><ele>738.4000000000001</ele><time>2026-04-26T09:00:25.093Z</time></trkpt><trkpt lat="45.7509311" lon="10.5721549"><ele>736.5999999999999</ele><time>2026-04-26T09:00:26.093Z</time></trkpt><trkpt lat="45.7509429" lon="10.5722481"><ele>734.8</ele><time>2026-04-26T09:00:27.093Z</time></trkpt><trkpt lat="45.7508423" lon="10.5723366"><ele>733.0</ele><time>2026-04-26T09:00:28.093Z</time></trkpt><trkpt lat="45.7507737" lon="10.5724382"><ele>733.0</ele><time>2026-04-26T09:00:29.093Z</time></trkpt><trkpt lat="45.7507101" lon="10.5725741"><ele>733.0</ele><time>2026-04-26T09:00:30.093Z</time></trkpt><trkpt lat="45.7506678" lon="10.5727184"><ele>733.0</ele><time>2026-04-26T09:00:31.093Z</time></trkpt><trkpt lat="45.7506441" lon="10.5728666"><ele>733.0</ele><time>2026-04-26T09:00:32.093Z</time></trkpt><trkpt lat="45.7506426" lon="10.5729987"><ele>733.0</ele><time>2026-04-26T09:00:33.093Z</time></trkpt><trkpt lat="45.7506594" lon="10.573137"><ele>732.2</ele><time>2026-04-26T09:00:34.093Z</time></trkpt><trkpt lat="45.7507427" lon="10.5732281"><ele>731.4</ele><time>2026-04-26T09:00:35.093Z</time></trkpt><trkpt lat="45.7508076" lon="10.5733312"><ele>730.6</ele><time>2026-04-26T09:00:36.093Z</time></trkpt><trkpt lat="45.7508881" lon="10.573412"><ele>729.8000000000001</ele><time>2026-04-26T09:00:37.093Z</time></trkpt><trkpt lat="45.7509645" lon="10.5734845"><ele>729.0</ele><time>2026-04-26T09:00:38.093Z</time></trkpt><trkpt lat="45.7509568" lon="10.5736268"><ele>726.25</ele><time>2026-04-26T09:00:39.093Z</time></trkpt><trkpt lat="45.7509308" lon="10.5737938"><ele>723.5</ele><time>2026-04-26T09:00:40.093Z</time></trkpt><trkpt lat="45.7509171" lon="10.5739454"><ele>720.75</ele><time>2026-04-26T09:00:41.092Z</time></trkpt><trkpt lat="45.7509247" lon="10.5741401"><ele>718.0</ele><time>2026-04-26T09:00:42.093Z</time></trkpt><trkpt lat="45.7509167" lon="10.5743318"><ele>718.0</ele><time>2026-04-26T09:00:43.093Z</time></trkpt><trkpt lat="45.7509023" lon="10.5745099"><ele>718.0</ele><time>2026-04-26T09:00:44.093Z</time></trkpt><trkpt lat="45.7508912" lon="10.5746552"><ele>718.0</ele><time>2026-04-26T09:00:45.092Z</time></trkpt><trkpt lat="45.7508875" lon="10.5747879"><ele>718.0</ele><time>2026-04-26T09:00:46.093Z</time></trkpt><trkpt lat="45.7509145" lon="10.5748879"><ele>718.0</ele><time>2026-04-26T09:00:47.093Z</time></trkpt><trkpt lat="45.7509734" lon="10.5749833"><ele>723.8</ele><time>2026-04-26T09:00:48.092Z</time></trkpt><trkpt lat="45.7510522" lon="10.575079"><ele>729.5999999999999</ele><time>2026-04-26T09:00:49.093Z</time></trkpt><trkpt lat="45.7511406" lon="10.5751796"><ele>735.4000000000001</ele><time>2026-04-26T09:00:50.092Z</time></trkpt><trkpt lat="45.7512074" lon="10.5752706"><ele>741.2</ele><time>2026-04-26T09:00:51.093Z</time></trkpt><trkpt lat="45.7512508" lon="10.5753607"><ele>747.0</ele><time>2026-04-26T09:00:52.093Z</time></trkpt><trkpt lat="45.7512463" lon="10.5754636"><ele>747.0</ele><time>2026-04-26T09:00:53.092Z</time></trkpt><trkpt lat="45.7511984" lon="10.5755771"><ele>747.0</ele><time>2026-04-26T09:00:54.093Z</time></trkpt><trkpt lat="45.7511409" lon="10.5757041"><ele>747.0</ele><time>2026-04-26T09:00:55.093Z</time></trkpt><trkpt lat="45.7510905" lon="10.5758496"><ele>747.0</ele><time>2026-04-26T09:00:56.093Z</time></trkpt><trkpt lat="45.7510612" lon="10.5759948"><ele>747.0</ele><time>2026-04-26T09:00:57.093Z</time></trkpt><trkpt lat="45.7510373" lon="10.5761272"><ele>739.8</ele><time>2026-04-26T09:00:58.093Z</time></trkpt><trkpt lat="45.7510441" lon="10.5762605"><ele>732.6</ele><time>2026-04-26T09:00:59.093Z</time></trkpt><trkpt lat="45.7510906" lon="10.5763749"><ele>725.4</ele><time>2026-04-26T09:01:00.093Z</time></trkpt><trkpt lat="45.7511651" lon="10.5764738"><ele>718.1999999999999</ele><time>2026-04-26T09:01:01.093Z</time></trkpt><trkpt lat="45.7512548" lon="10.5765591"><ele>711.0</ele><time>2026-04-26T09:01:02.092Z</time></trkpt><trkpt lat="45.7513159" lon="10.5766647"><ele>711.0</ele><time>2026-04-26T09:01:03.092Z</time></trkpt><trkpt lat="45.7513584" lon="10.5767584"><ele>711.0</ele><time>2026-04-26T09:01:04.093Z</time></trkpt><trkpt lat="45.7514147" lon="10.5768323"><ele>711.0</ele><time>2026-04-26T09:01:05.093Z</time></trkpt><trkpt lat="45.7515069" lon="10.5768546"><ele>711.0</ele><time>2026-04-26T09:01:06.093Z</time></trkpt><trkpt lat="45.7516035" lon="10.5768794"><ele>711.0</ele><time>2026-04-26T09:01:07.093Z</time></trkpt><trkpt lat="45.7517035" lon="10.5769189"><ele>711.0</ele><time>2026-04-26T09:01:08.093Z</time></trkpt><trkpt lat="45.7518129" lon="10.5769848"><ele>711.0</ele><time>2026-04-26T09:01:09.093Z</time></trkpt><trkpt lat="45.751936" lon="10.5770225"><ele>711.0</ele><time>2026-04-26T09:01:10.093Z</time></trkpt><trkpt lat="45.7520599" lon="10.5770682"><ele>711.0</ele><time>2026-04-26T09:01:11.093Z</time></trkpt><trkpt lat="45.752178" lon="10.5771619"><ele>707.0</ele><time>2026-04-26T09:01:12.093Z</time></trkpt><trkpt lat="45.7522968" lon="10.5772752"><ele>703.0</ele><time>2026-04-26T09:01:13.093Z</time></trkpt><trkpt lat="45.752418" lon="10.5773856"><ele>699.0</ele><time>2026-04-26T09:01:14.093Z</time></trkpt><trkpt lat="45.752545" lon="10.5774644"><ele>695.0</ele><time>2026-04-26T09:01:15.093Z</time></trkpt><trkpt lat="45.7526797" lon="10.5775284"><ele>700.5</ele><time>2026-04-26T09:01:16.093Z</time></trkpt><trkpt lat="45.7528097" lon="10.5775907"><ele>706.0</ele><time>2026-04-26T09:01:17.093Z</time></trkpt><trkpt lat="45.7529412" lon="10.5776387"><ele>711.5</ele><time>2026-04-26T09:01:18.093Z</time></trkpt><trkpt lat="45.7530578" lon="10.577669"><ele>717.0</ele><time>2026-04-26T09:01:19.093Z</time></trkpt><trkpt lat="45.7531493" lon="10.5777053"><ele>717.0</ele><time>2026-04-26T09:01:20.092Z</time></trkpt><trkpt lat="45.7532248" lon="10.5777523"><ele>717.0</ele><time>2026-04-26T09:01:21.093Z</time></trkpt><trkpt lat="45.753271" lon="10.5778328"><ele>717.0</ele><time>2026-04-26T09:01:22.093Z</time></trkpt><trkpt lat="45.7532934" lon="10.5779513"><ele>717.0</ele><time>2026-04-26T09:01:23.093Z</time></trkpt><trkpt lat="45.753292" lon="10.5780675"><ele>717.0</ele><time>2026-04-26T09:01:24.093Z</time></trkpt><trkpt lat="45.7532423" lon="10.5781983"><ele>717.0</ele><time>2026-04-26T09:01:25.093Z</time></trkpt><trkpt lat="45.7531663" lon="10.5783144"><ele>717.5</ele><time>2026-04-26T09:01:26.093Z</time></trkpt><trkpt lat="45.7530714" lon="10.5784375"><ele>718.0</ele><time>2026-04-26T09:01:27.092Z</time></trkpt><trkpt lat="45.7529728" lon="10.5785786"><ele>718.5</ele><time>2026-04-26T09:01:28.093Z</time></trkpt><trkpt lat="45.7528693" lon="10.5787281"><ele>719.0</ele><time>2026-04-26T09:01:29.093Z</time></trkpt><trkpt lat="45.7527853" lon="10.5789045"><ele>719.0</ele><time>2026-04-26T09:01:30.092Z</time></trkpt><trkpt lat="45.7527222" lon="10.5790796"><ele>719.0</ele><time>2026-04-26T09:01:31.093Z</time></trkpt><trkpt lat="45.7526735" lon="10.5792398"><ele>719.0</ele><time>2026-04-26T09:01:32.093Z</time></trkpt><trkpt lat="45.7525896" lon="10.5793712"><ele>719.0</ele><time>2026-04-26T09:01:33.093Z</time></trkpt><trkpt lat="45.7524903" lon="10.5794808"><ele>716.4000000000001</ele><time>2026-04-26T09:01:34.092Z</time></trkpt><trkpt lat="45.7524135" lon="10.5795883"><ele>713.8</ele><time>2026-04-26T09:01:35.092Z</time></trkpt><trkpt lat="45.752333" lon="10.5796563"><ele>711.2</ele><time>2026-04-26T09:01:36.093Z</time></trkpt><trkpt lat="45.75225" lon="10.5796732"><ele>708.5999999999999</ele><time>2026-04-26T09:01:37.093Z</time></trkpt><trkpt lat="45.7521592" lon="10.5796831"><ele>706.0</ele><time>2026-04-26T09:01:38.093Z</time></trkpt><trkpt lat="45.7520483" lon="10.5796159"><ele>706.0</ele><time>2026-04-26T09:01:39.092Z</time></trkpt><trkpt lat="45.7519257" lon="10.5796312"><ele>706.0</ele><time>2026-04-26T09:01:40.093Z</time></trkpt><trkpt lat="45.7518033" lon="10.579661"><ele>706.0</ele><time>2026-04-26T09:01:41.093Z</time></trkpt><trkpt lat="45.7516695" lon="10.5797144"><ele>706.0</ele><time>2026-04-26T09:01:42.092Z</time></trkpt><trkpt lat="45.7515317" lon="10.5797673"><ele>701.5</ele><time>2026-04-26T09:01:43.093Z</time></trkpt><trkpt lat="45.7513965" lon="10.5798255"><ele>697.0</ele><time>2026-04-26T09:01:44.093Z</time></trkpt><trkpt lat="45.7512475" lon="10.5798909"><ele>692.5</ele><time>2026-04-26T09:01:45.093Z</time></trkpt><trkpt lat="45.7511236" lon="10.5799267"><ele>688.0</ele><time>2026-04-26T09:01:46.093Z</time></trkpt><trkpt lat="45.7510231" lon="10.5799842"><ele>683.0</ele><time>2026-04-26T09:01:47.093Z</time></trkpt><trkpt lat="45.7509201" lon="10.5800316"><ele>678.0</ele><time>2026-04-26T09:01:48.093Z</time></trkpt><trkpt lat="45.7508842" lon="10.5801287"><ele>673.0</ele><time>2026-04-26T09:01:49.092Z</time></trkpt><trkpt lat="45.7508541" lon="10.5802501"><ele>668.0</ele><time>2026-04-26T09:01:50.093Z</time></trkpt><trkpt lat="45.7508444" lon="10.5804262"><ele>663.0</ele><time>2026-04-26T09:01:51.093Z</time></trkpt><trkpt lat="45.7508268" lon="10.580623"><ele>663.0</ele><time>2026-04-26T09:01:52.092Z</time></trkpt><trkpt lat="45.7508184" lon="10.5808131"><ele>663.0</ele><time>2026-04-26T09:01:53.092Z</time></trkpt><trkpt lat="45.7508281" lon="10.5809976"><ele>663.0</ele><time>2026-04-26T09:01:54.093Z</time></trkpt><trkpt lat="45.750842" lon="10.5811488"><ele>663.0</ele><time>2026-04-26T09:01:55.092Z</time></trkpt><trkpt lat="45.7508898" lon="10.5812819"><ele>660.25</ele><time>2026-04-26T09:01:56.093Z</time></trkpt><trkpt lat="45.7509712" lon="10.58139"><ele>657.5</ele><time>2026-04-26T09:01:57.092Z</time></trkpt><trkpt lat="45.7510763" lon="10.5815029"><ele>654.75</ele><time>2026-04-26T09:01:58.093Z</time></trkpt><trkpt lat="45.7511768" lon="10.5816427"><ele>652.0</ele><time>2026-04-26T09:01:59.093Z</time></trkpt><trkpt lat="45.7512679" lon="10.5817863"><ele>659.0</ele><time>2026-04-26T09:02:00.093Z</time></trkpt><trkpt lat="45.7513569" lon="10.5819067"><ele>666.0</ele><time>2026-04-26T09:02:01.092Z</time></trkpt><trkpt lat="45.7514346" lon="10.5820104"><ele>673.0</ele><time>2026-04-26T09:02:02.093Z</time></trkpt><trkpt lat="45.7514592" lon="10.5821304"><ele>680.0</ele><time>2026-04-26T09:02:03.092Z</time></trkpt><trkpt lat="45.7514421" lon="10.5822467"><ele>687.0</ele><time>2026-04-26T09:02:04.093Z</time></trkpt><trkpt lat="45.7513833" lon="10.5823346"><ele>687.0</ele><time>2026-04-26T09:02:05.093Z</time></trkpt><trkpt lat="45.751289" lon="10.5824233"><ele>687.0</ele><time>2026-04-26T09:02:06.093Z</time></trkpt><trkpt lat="45.7511929" lon="10.5825346"><ele>687.0</ele><time>2026-04-26T09:02:07.092Z</time></trkpt><trkpt lat="45.7510893" lon="10.5826782"><ele>687.0</ele><time>2026-04-26T09:02:08.092Z</time></trkpt><trkpt lat="45.7509884" lon="10.5828101"><ele>682.4000000000001</ele><time>2026-04-26T09:02:09.093Z</time></trkpt><trkpt lat="45.7508986" lon="10.5829187"><ele>677.8000000000001</ele><time>2026-04-26T09:02:10.093Z</time></trkpt><trkpt lat="45.7508246" lon="10.5830149"><ele>673.2</ele><time>2026-04-26T09:02:11.092Z</time></trkpt><trkpt lat="45.7507583" lon="10.5830934"><ele>668.6</ele><time>2026-04-26T09:02:12.093Z</time></trkpt><trkpt lat="45.7506943" lon="10.5831289"><ele>664.0</ele><time>2026-04-26T09:02:13.093Z</time></trkpt><trkpt lat="45.7506268" lon="10.5830393"><ele>664.0</ele><time>2026-04-26T09:02:15.093Z</time></trkpt><trkpt lat="45.750716" lon="10.5829058"><ele>664.0</ele><time>2026-04-26T09:02:17.093Z</time></trkpt><trkpt lat="45.7508104" lon="10.5828313"><ele>664.0</ele><time>2026-04-26T09:02:18.093Z</time></trkpt><trkpt lat="45.7508972" lon="10.5827168"><ele>664.0</ele><time>2026-04-26T09:02:19.092Z</time></trkpt><trkpt lat="45.7509887" lon="10.5825797"><ele>668.6</ele><time>2026-04-26T09:02:20.093Z</time></trkpt><trkpt lat="45.7510719" lon="10.5824521"><ele>673.2</ele><time>2026-04-26T09:02:21.093Z</time></trkpt><trkpt lat="45.7511375" lon="10.5823423"><ele>677.8000000000001</ele><time>2026-04-26T09:02:22.092Z</time></trkpt><trkpt lat="45.751178" lon="10.5822282"><ele>682.4000000000001</ele><time>2026-04-26T09:02:23.093Z</time></trkpt><trkpt lat="45.7511752" lon="10.5821009"><ele>687.0</ele><time>2026-04-26T09:02:24.093Z</time></trkpt><trkpt lat="45.7511751" lon="10.5819685"><ele>689.25</ele><time>2026-04-26T09:02:25.093Z</time></trkpt><trkpt lat="45.7510785" lon="10.5818588"><ele>691.5</ele><time>2026-04-26T09:02:26.093Z</time></trkpt><trkpt lat="45.7509006" lon="10.5817443"><ele>693.75</ele><time>2026-04-26T09:02:27.093Z</time></trkpt><trkpt lat="45.7507899" lon="10.581652"><ele>696.0</ele><time>2026-04-26T09:02:28.093Z</time></trkpt><trkpt lat="45.7507015" lon="10.5815582"><ele>687.75</ele><time>2026-04-26T09:02:29.093Z</time></trkpt><trkpt lat="45.7506418" lon="10.5814564"><ele>679.5</ele><time>2026-04-26T09:02:30.093Z</time></trkpt><trkpt lat="45.750614" lon="10.5813134"><ele>671.25</ele><time>2026-04-26T09:02:31.093Z</time></trkpt><trkpt lat="45.7505876" lon="10.5811287"><ele>663.0</ele><time>2026-04-26T09:02:32.093Z</time></trkpt><trkpt lat="45.7505534" lon="10.5809079"><ele>663.0</ele><time>2026-04-26T09:02:33.093Z</time></trkpt><trkpt lat="45.7505306" lon="10.5806625"><ele>663.0</ele><time>2026-04-26T09:02:34.093Z</time></trkpt><trkpt lat="45.7505159" lon="10.5804131"><ele>663.0</ele><time>2026-04-26T09:02:35.093Z</time></trkpt><trkpt lat="45.7504914" lon="10.580181"><ele>661.25</ele><time>2026-04-26T09:02:36.093Z</time></trkpt><trkpt lat="45.7504647" lon="10.5799733"><ele>659.5</ele><time>2026-04-26T09:02:37.093Z</time></trkpt><trkpt lat="45.750456" lon="10.5797681"><ele>657.75</ele><time>2026-04-26T09:02:38.093Z</time></trkpt><trkpt lat="45.7504744" lon="10.5795978"><ele>656.0</ele><time>2026-04-26T09:02:39.093Z</time></trkpt><trkpt lat="45.7504997" lon="10.5794584"><ele>656.0</ele><time>2026-04-26T09:02:40.093Z</time></trkpt><trkpt lat="45.7504978" lon="10.5793505"><ele>656.0</ele><time>2026-04-26T09:02:41.093Z</time></trkpt><trkpt lat="45.7504524" lon="10.5792796"><ele>656.0</ele><time>2026-04-26T09:02:42.093Z</time></trkpt><trkpt lat="45.7503696" lon="10.5793649"><ele>656.0</ele><time>2026-04-26T09:02:44.093Z</time></trkpt><trkpt lat="45.7503235" lon="10.5794718"><ele>656.0</ele><time>2026-04-26T09:02:45.093Z</time></trkpt><trkpt lat="45.7503467" lon="10.5797046"><ele>656.0</ele><time>2026-04-26T09:02:46.093Z</time></trkpt><trkpt lat="45.7503475" lon="10.5799243"><ele>656.0</ele><time>2026-04-26T09:02:47.093Z</time></trkpt><trkpt lat="45.7503565" lon="10.5801646"><ele>656.0</ele><time>2026-04-26T09:02:48.093Z</time></trkpt><trkpt lat="45.7503609" lon="10.5804175"><ele>658.3333333333333</ele><time>2026-04-26T09:02:49.092Z</time></trkpt><trkpt lat="45.7503619" lon="10.5806542"><ele>660.6666666666666</ele><time>2026-04-26T09:02:50.093Z</time></trkpt><trkpt lat="45.7503662" lon="10.5808849"><ele>663.0</ele><time>2026-04-26T09:02:51.093Z</time></trkpt><trkpt lat="45.7503718" lon="10.5810972"><ele>660.8</ele><time>2026-04-26T09:02:52.093Z</time></trkpt><trkpt lat="45.7503757" lon="10.5812726"><ele>658.5999999999999</ele><time>2026-04-26T09:02:53.092Z</time></trkpt><trkpt lat="45.7503848" lon="10.5814254"><ele>656.4000000000001</ele><time>2026-04-26T09:02:54.093Z</time></trkpt><trkpt lat="45.7503887" lon="10.5815483"><ele>654.2</ele><time>2026-04-26T09:02:55.093Z</time></trkpt><trkpt lat="45.7503663" lon="10.5816398"><ele>652.0</ele><time>2026-04-26T09:02:56.093Z</time></trkpt><trkpt lat="45.7502678" lon="10.5816498"><ele>652.0</ele><time>2026-04-26T09:02:58.093Z</time></trkpt><trkpt lat="45.750267" lon="10.5814275"><ele>652.0</ele><time>2026-04-26T09:03:00.093Z</time></trkpt><trkpt lat="45.750282" lon="10.5812517"><ele>652.0</ele><time>2026-04-26T09:03:01.093Z</time></trkpt><trkpt lat="45.750278" lon="10.5810349"><ele>652.0</ele><time>2026-04-26T09:03:02.092Z</time></trkpt><trkpt lat="45.7502615" lon="10.5807848"><ele>655.6666666666667</ele><time>2026-04-26T09:03:03.093Z</time></trkpt><trkpt lat="45.7502367" lon="10.5805197"><ele>659.3333333333334</ele><time>2026-04-26T09:03:04.093Z</time></trkpt><trkpt lat="45.7502023" lon="10.5802369"><ele>663.0</ele><time>2026-04-26T09:03:05.092Z</time></trkpt><trkpt lat="45.7501557" lon="10.5799607"><ele>644.0</ele><time>2026-04-26T09:03:06.093Z</time></trkpt><trkpt lat="45.7501136" lon="10.5797128"><ele>625.0</ele><time>2026-04-26T09:03:07.093Z</time></trkpt><trkpt lat="45.7500723" lon="10.5795086"><ele>606.0</ele><time>2026-04-26T09:03:08.093Z</time></trkpt><trkpt lat="45.7500573" lon="10.5793237"><ele>606.0</ele><time>2026-04-26T09:03:09.092Z</time></trkpt><trkpt lat="45.7500658" lon="10.5791516"><ele>606.0</ele><time>2026-04-26T09:03:10.093Z</time></trkpt><trkpt lat="45.7501026" lon="10.5790189"><ele>606.0</ele><time>2026-04-26T09:03:11.093Z</time></trkpt><trkpt lat="45.7501818" lon="10.5789219"><ele>606.0</ele><time>2026-04-26T09:03:12.093Z</time></trkpt><trkpt lat="45.7502721" lon="10.5788582"><ele>606.0</ele><time>2026-04-26T09:03:13.092Z</time></trkpt><trkpt lat="45.7503571" lon="10.5788016"><ele>604.4</ele><time>2026-04-26T09:03:14.093Z</time></trkpt><trkpt lat="45.7504249" lon="10.5787476"><ele>602.8</ele><time>2026-04-26T09:03:15.092Z</time></trkpt><trkpt lat="45.7504519" lon="10.5786657"><ele>601.1999999999999</ele><time>2026-04-26T09:03:16.092Z</time></trkpt><trkpt lat="45.7503569" lon="10.5785596"><ele>599.6</ele><time>2026-04-26T09:03:18.093Z</time></trkpt><trkpt lat="45.7502512" lon="10.5785919"><ele>598.0</ele><time>2026-04-26T09:03:19.092Z</time></trkpt><trkpt lat="45.7501226" lon="10.5786393"><ele>600.0</ele><time>2026-04-26T09:03:20.093Z</time></trkpt><trkpt lat="45.7500114" lon="10.5786848"><ele>602.0</ele><time>2026-04-26T09:03:21.093Z</time></trkpt><trkpt lat="45.7499307" lon="10.5787825"><ele>604.0</ele><time>2026-04-26T09:03:22.092Z</time></trkpt><trkpt lat="45.749875" lon="10.5789231"><ele>606.0</ele><time>2026-04-26T09:03:23.093Z</time></trkpt><trkpt lat="45.7498586" lon="10.5791174"><ele>606.0</ele><time>2026-04-26T09:03:24.092Z</time></trkpt><trkpt lat="45.7498273" lon="10.5793442"><ele>606.0</ele><time>2026-04-26T09:03:25.092Z</time></trkpt><trkpt lat="45.7498125" lon="10.579595"><ele>606.0</ele><time>2026-04-26T09:03:26.093Z</time></trkpt><trkpt lat="45.7498327" lon="10.5798891"><ele>606.0</ele><time>2026-04-26T09:03:27.093Z</time></trkpt><trkpt lat="45.7498595" lon="10.5802114"><ele>606.0</ele><time>2026-04-26T09:03:28.093Z</time></trkpt><trkpt lat="45.7498558" lon="10.5805558"><ele>604.6666666666666</ele><time>2026-04-26T09:03:29.092Z</time></trkpt><trkpt lat="45.7498607" lon="10.5808534"><ele>603.3333333333333</ele><time>2026-04-26T09:03:30.093Z</time></trkpt><trkpt lat="45.7498632" lon="10.5811049"><ele>602.0</ele><time>2026-04-26T09:03:31.093Z</time></trkpt><trkpt lat="45.7498449" lon="10.5813499"><ele>600.6666666666666</ele><time>2026-04-26T09:03:32.093Z</time></trkpt><trkpt lat="45.749809" lon="10.5815788"><ele>599.3333333333334</ele><time>2026-04-26T09:03:33.093Z</time></trkpt><trkpt lat="45.7498205" lon="10.5818004"><ele>598.0</ele><time>2026-04-26T09:03:34.092Z</time></trkpt><trkpt lat="45.7498224" lon="10.5819982"><ele>598.75</ele><time>2026-04-26T09:03:35.093Z</time></trkpt><trkpt lat="45.7498052" lon="10.5821562"><ele>599.5</ele><time>2026-04-26T09:03:36.093Z</time></trkpt><trkpt lat="45.7497539" lon="10.5823329"><ele>600.25</ele><time>2026-04-26T09:03:37.092Z</time></trkpt><trkpt lat="45.74972" lon="10.5825038"><ele>601.0</ele><time>2026-04-26T09:03:38.093Z</time></trkpt><trkpt lat="45.7497075" lon="10.5826831"><ele>602.5</ele><time>2026-04-26T09:03:39.093Z</time></trkpt><trkpt lat="45.7497162" lon="10.5828674"><ele>604.0</ele><time>2026-04-26T09:03:40.093Z</time></trkpt><trkpt lat="45.7497245" lon="10.583069"><ele>605.5</ele><time>2026-04-26T09:03:41.092Z</time></trkpt><trkpt lat="45.7497014" lon="10.5832847"><ele>607.0</ele><time>2026-04-26T09:03:42.092Z</time></trkpt><trkpt lat="45.7496723" lon="10.5834898"><ele>608.5</ele><time>2026-04-26T09:03:43.093Z</time></trkpt><trkpt lat="45.7496331" lon="10.583689"><ele>610.0</ele><time>2026-04-26T09:03:44.093Z</time></trkpt><trkpt lat="45.7495964" lon="10.5838803"><ele>611.5</ele><time>2026-04-26T09:03:45.093Z</time></trkpt><trkpt lat="45.749543" lon="10.5840354"><ele>613.0</ele><time>2026-04-26T09:03:46.093Z</time></trkpt><trkpt lat="45.749461" lon="10.5841743"><ele>602.75</ele><time>2026-04-26T09:03:47.092Z</time></trkpt><trkpt lat="45.7493512" lon="10.5843056"><ele>592.5</ele><time>2026-04-26T09:03:48.093Z</time></trkpt><trkpt lat="45.7492488" lon="10.5844154"><ele>582.25</ele><time>2026-04-26T09:03:49.093Z</time></trkpt><trkpt lat="45.7491773" lon="10.5845257"><ele>572.0</ele><time>2026-04-26T09:03:50.092Z</time></trkpt><trkpt lat="45.7491124" lon="10.5846481"><ele>572.0</ele><time>2026-04-26T09:03:51.093Z</time></trkpt><trkpt lat="45.7490515" lon="10.5847855"><ele>572.0</ele><time>2026-04-26T09:03:52.092Z</time></trkpt><trkpt lat="45.749001" lon="10.5849429"><ele>572.0</ele><time>2026-04-26T09:03:53.093Z</time></trkpt><trkpt lat="45.7489623" lon="10.5851194"><ele>572.0</ele><time>2026-04-26T09:03:54.093Z</time></trkpt><trkpt lat="45.7489266" lon="10.5853066"><ele>575.5</ele><time>2026-04-26T09:03:55.093Z</time></trkpt><trkpt lat="45.7488944" lon="10.5854999"><ele>579.0</ele><time>2026-04-26T09:03:56.093Z</time></trkpt><trkpt lat="45.7488645" lon="10.5856897"><ele>582.5</ele><time>2026-04-26T09:03:57.093Z</time></trkpt><trkpt lat="45.7488289" lon="10.5858653"><ele>586.0</ele><time>2026-04-26T09:03:58.093Z</time></trkpt><trkpt lat="45.7487518" lon="10.5860073"><ele>586.0</ele><time>2026-04-26T09:03:59.093Z</time></trkpt><trkpt lat="45.7486489" lon="10.5861269"><ele>586.0</ele><time>2026-04-26T09:04:00.093Z</time></trkpt><trkpt lat="45.748548" lon="10.5862652"><ele>586.0</ele><time>2026-04-26T09:04:01.093Z</time></trkpt><trkpt lat="45.7484744" lon="10.5864617"><ele>586.0</ele><time>2026-04-26T09:04:02.093Z</time></trkpt><trkpt lat="45.7483911" lon="10.5866459"><ele>580.2</ele><time>2026-04-26T09:04:03.093Z</time></trkpt><trkpt lat="45.7483013" lon="10.5867952"><ele>574.4000000000001</ele><time>2026-04-26T09:04:04.093Z</time></trkpt><trkpt lat="45.7482125" lon="10.5868854"><ele>568.6</ele><time>2026-04-26T09:04:05.093Z</time></trkpt><trkpt lat="45.7481437" lon="10.5869802"><ele>562.8000000000001</ele><time>2026-04-26T09:04:06.093Z</time></trkpt><trkpt lat="45.7481256" lon="10.5871251"><ele>557.0</ele><time>2026-04-26T09:04:07.093Z</time></trkpt><trkpt lat="45.7481384" lon="10.5872848"><ele>557.0</ele><time>2026-04-26T09:04:08.093Z</time></trkpt><trkpt lat="45.7481265" lon="10.5874556"><ele>557.0</ele><time>2026-04-26T09:04:09.093Z</time></trkpt><trkpt lat="45.7480835" lon="10.5876062"><ele>557.0</ele><time>2026-04-26T09:04:10.093Z</time></trkpt><trkpt lat="45.7480165" lon="10.5877572"><ele>557.0</ele><time>2026-04-26T09:04:11.092Z</time></trkpt><trkpt lat="45.7479621" lon="10.5879113"><ele>559.0</ele><time>2026-04-26T09:04:12.092Z</time></trkpt><trkpt lat="45.7479496" lon="10.5881092"><ele>561.0</ele><time>2026-04-26T09:04:13.092Z</time></trkpt><trkpt lat="45.7479446" lon="10.5883115"><ele>563.0</ele><time>2026-04-26T09:04:14.093Z</time></trkpt><trkpt lat="45.7479165" lon="10.5885052"><ele>565.0</ele><time>2026-04-26T09:04:15.093Z</time></trkpt><trkpt lat="45.7478563" lon="10.5886799"><ele>570.0</ele><time>2026-04-26T09:04:16.093Z</time></trkpt><trkpt lat="45.7477654" lon="10.588829"><ele>575.0</ele><time>2026-04-26T09:04:17.092Z</time></trkpt><trkpt lat="45.7476518" lon="10.5889619"><ele>580.0</ele><time>2026-04-26T09:04:18.093Z</time></trkpt><trkpt lat="45.7475343" lon="10.5891018"><ele>585.0</ele><time>2026-04-26T09:04:19.093Z</time></trkpt><trkpt lat="45.7474152" lon="10.5892377"><ele>578.0</ele><time>2026-04-26T09:04:20.093Z</time></trkpt><trkpt lat="45.7472918" lon="10.5893619"><ele>571.0</ele><time>2026-04-26T09:04:21.092Z</time></trkpt><trkpt lat="45.7471677" lon="10.5894896"><ele>564.0</ele><time>2026-04-26T09:04:22.093Z</time></trkpt><trkpt lat="45.7470376" lon="10.5896296"><ele>564.0</ele><time>2026-04-26T09:04:23.093Z</time></trkpt><trkpt lat="45.7469239" lon="10.58979"><ele>564.0</ele><time>2026-04-26T09:04:24.093Z</time></trkpt><trkpt lat="45.7467936" lon="10.5899299"><ele>564.0</ele><time>2026-04-26T09:04:25.093Z</time></trkpt><trkpt lat="45.7466742" lon="10.5900646"><ele>557.4</ele><time>2026-04-26T09:04:26.093Z</time></trkpt><trkpt lat="45.7465745" lon="10.590218"><ele>550.8</ele><time>2026-04-26T09:04:27.092Z</time></trkpt><trkpt lat="45.7465108" lon="10.5903755"><ele>544.2</ele><time>2026-04-26T09:04:28.093Z</time></trkpt><trkpt lat="45.7464674" lon="10.590504"><ele>537.6</ele><time>2026-04-26T09:04:29.093Z</time></trkpt><trkpt lat="45.7464436" lon="10.5906021"><ele>531.0</ele><time>2026-04-26T09:04:30.093Z</time></trkpt><trkpt lat="45.746416" lon="10.5907243"><ele>531.0</ele><time>2026-04-26T09:04:32.093Z</time></trkpt><trkpt lat="45.7463422" lon="10.5907389"><ele>531.0</ele><time>2026-04-26T09:04:34.093Z</time></trkpt><trkpt lat="45.7462603" lon="10.5906656"><ele>531.0</ele><time>2026-04-26T09:04:36.093Z</time></trkpt><trkpt lat="45.746174" lon="10.5906557"><ele>531.0</ele><time>2026-04-26T09:04:38.093Z</time></trkpt><trkpt lat="45.7460596" lon="10.5906941"><ele>531.0</ele><time>2026-04-26T09:04:40.093Z</time></trkpt><trkpt lat="45.7459813" lon="10.5907281"><ele>529.5</ele><time>2026-04-26T09:04:41.093Z</time></trkpt><trkpt lat="45.7458894" lon="10.5907713"><ele>528.0</ele><time>2026-04-26T09:04:42.092Z</time></trkpt><trkpt lat="45.7457803" lon="10.5908212"><ele>526.5</ele><time>2026-04-26T09:04:43.093Z</time></trkpt><trkpt lat="45.7456682" lon="10.5908834"><ele>525.0</ele><time>2026-04-26T09:04:44.093Z</time></trkpt><trkpt lat="45.7455492" lon="10.5909618"><ele>525.0</ele><time>2026-04-26T09:04:45.093Z</time></trkpt><trkpt lat="45.7454276" lon="10.5910563"><ele>525.0</ele><time>2026-04-26T09:04:46.093Z</time></trkpt><trkpt lat="45.7453113" lon="10.5911539"><ele>525.0</ele><time>2026-04-26T09:04:47.093Z</time></trkpt><trkpt lat="45.7452037" lon="10.5912426"><ele>525.0</ele><time>2026-04-26T09:04:48.093Z</time></trkpt><trkpt lat="45.7450978" lon="10.5913177"><ele>522.25</ele><time>2026-04-26T09:04:49.092Z</time></trkpt><trkpt lat="45.7449943" lon="10.5913936"><ele>519.5</ele><time>2026-04-26T09:04:50.093Z</time></trkpt><trkpt lat="45.7448887" lon="10.5914536"><ele>516.75</ele><time>2026-04-26T09:04:51.093Z</time></trkpt><trkpt lat="45.7448076" lon="10.5915607"><ele>514.0</ele><time>2026-04-26T09:04:52.093Z</time></trkpt><trkpt lat="45.7447529" lon="10.5917191"><ele>514.0</ele><time>2026-04-26T09:04:53.093Z</time></trkpt><trkpt lat="45.7446955" lon="10.591883"><ele>514.0</ele><time>2026-04-26T09:04:54.093Z</time></trkpt><trkpt lat="45.7446292" lon="10.5920624"><ele>514.0</ele><time>2026-04-26T09:04:55.092Z</time></trkpt><trkpt lat="45.7445637" lon="10.5922536"><ele>514.0</ele><time>2026-04-26T09:04:56.093Z</time></trkpt><trkpt lat="45.7444926" lon="10.5924408"><ele>513.6666666666667</ele><time>2026-04-26T09:04:57.093Z</time></trkpt><trkpt lat="45.7443908" lon="10.5926257"><ele>513.3333333333334</ele><time>2026-04-26T09:04:58.093Z</time></trkpt><trkpt lat="45.7442696" lon="10.5928074"><ele>513.0</ele><time>2026-04-26T09:04:59.093Z</time></trkpt><trkpt lat="45.7441404" lon="10.5929863"><ele>520.3333333333334</ele><time>2026-04-26T09:05:00.092Z</time></trkpt><trkpt lat="45.7440203" lon="10.5931519"><ele>527.6666666666667</ele><time>2026-04-26T09:05:01.093Z</time></trkpt><trkpt lat="45.7439153" lon="10.5933287"><ele>535.0</ele><time>2026-04-26T09:05:02.093Z</time></trkpt><trkpt lat="45.7438252" lon="10.5935203"><ele>530.5</ele><time>2026-04-26T09:05:03.092Z</time></trkpt><trkpt lat="45.7437362" lon="10.5936957"><ele>526.0</ele><time>2026-04-26T09:05:04.092Z</time></trkpt><trkpt lat="45.7436356" lon="10.5938421"><ele>521.5</ele><time>2026-04-26T09:05:05.093Z</time></trkpt><trkpt lat="45.743512" lon="10.5939518"><ele>517.0</ele><time>2026-04-26T09:05:06.093Z</time></trkpt><trkpt lat="45.7433784" lon="10.594037"><ele>517.0</ele><time>2026-04-26T09:05:07.093Z</time></trkpt><trkpt lat="45.743252" lon="10.5940845"><ele>517.0</ele><time>2026-04-26T09:05:08.093Z</time></trkpt><trkpt lat="45.7431559" lon="10.5941447"><ele>517.0</ele><time>2026-04-26T09:05:09.093Z</time></trkpt><trkpt lat="45.7430849" lon="10.594259"><ele>517.0</ele><time>2026-04-26T09:05:10.093Z</time></trkpt><trkpt lat="45.7430235" lon="10.5944145"><ele>517.25</ele><time>2026-04-26T09:05:11.093Z</time></trkpt><trkpt lat="45.7429379" lon="10.5945897"><ele>517.5</ele><time>2026-04-26T09:05:12.092Z</time></trkpt><trkpt lat="45.7428508" lon="10.5947666"><ele>517.75</ele><time>2026-04-26T09:05:13.093Z</time></trkpt><trkpt lat="45.7427875" lon="10.5949418"><ele>518.0</ele><time>2026-04-26T09:05:14.093Z</time></trkpt><trkpt lat="45.7427094" lon="10.5950595"><ele>518.0</ele><time>2026-04-26T09:05:15.093Z</time></trkpt><trkpt lat="45.7426201" lon="10.5951752"><ele>518.0</ele><time>2026-04-26T09:05:16.092Z</time></trkpt><trkpt lat="45.7425348" lon="10.5953208"><ele>518.0</ele><time>2026-04-26T09:05:17.092Z</time></trkpt><trkpt lat="45.7424627" lon="10.595453"><ele>518.0</ele><time>2026-04-26T09:05:18.092Z</time></trkpt><trkpt lat="45.7424374" lon="10.5956134"><ele>520.6</ele><time>2026-04-26T09:05:19.092Z</time></trkpt><trkpt lat="45.7424279" lon="10.5957723"><ele>523.1999999999999</ele><time>2026-04-26T09:05:20.093Z</time></trkpt><trkpt lat="45.7423835" lon="10.5959118"><ele>525.8</ele><time>2026-04-26T09:05:21.093Z</time></trkpt><trkpt lat="45.7423246" lon="10.5960501"><ele>528.4</ele><time>2026-04-26T09:05:22.093Z</time></trkpt><trkpt lat="45.7422481" lon="10.5961556"><ele>531.0</ele><time>2026-04-26T09:05:23.093Z</time></trkpt><trkpt lat="45.7421449" lon="10.5962259"><ele>533.0</ele><time>2026-04-26T09:05:24.092Z</time></trkpt><trkpt lat="45.7420266" lon="10.5962654"><ele>535.0</ele><time>2026-04-26T09:05:25.093Z</time></trkpt><trkpt lat="45.7418945" lon="10.5962776"><ele>537.0</ele><time>2026-04-26T09:05:26.093Z</time></trkpt><trkpt lat="45.741762" lon="10.5963138"><ele>539.0</ele><time>2026-04-26T09:05:27.093Z</time></trkpt><trkpt lat="45.7416339" lon="10.5963904"><ele>539.0</ele><time>2026-04-26T09:05:28.093Z</time></trkpt><trkpt lat="45.7415039" lon="10.5964941"><ele>539.0</ele><time>2026-04-26T09:05:29.093Z</time></trkpt><trkpt lat="45.7413564" lon="10.5965732"><ele>539.0</ele><time>2026-04-26T09:05:30.093Z</time></trkpt><trkpt lat="45.7412119" lon="10.5966476"><ele>539.0</ele><time>2026-04-26T09:05:31.093Z</time></trkpt><trkpt lat="45.7410678" lon="10.5966949"><ele>539.0</ele><time>2026-04-26T09:05:32.093Z</time></trkpt><trkpt lat="45.7409397" lon="10.5967672"><ele>539.0</ele><time>2026-04-26T09:05:33.092Z</time></trkpt><trkpt lat="45.7408129" lon="10.596887"><ele>539.0</ele><time>2026-04-26T09:05:34.093Z</time></trkpt><trkpt lat="45.7407021" lon="10.5970127"><ele>541.0</ele><time>2026-04-26T09:05:35.093Z</time></trkpt><trkpt lat="45.7406301" lon="10.5971351"><ele>543.0</ele><time>2026-04-26T09:05:36.093Z</time></trkpt><trkpt lat="45.7405891" lon="10.5972578"><ele>545.0</ele><time>2026-04-26T09:05:37.093Z</time></trkpt><trkpt lat="45.7405398" lon="10.5973618"><ele>547.0</ele><time>2026-04-26T09:05:38.093Z</time></trkpt><trkpt lat="45.7404769" lon="10.5974047"><ele>549.0</ele><time>2026-04-26T09:05:39.092Z</time></trkpt><trkpt lat="45.7404088" lon="10.5974038"><ele>551.0</ele><time>2026-04-26T09:05:40.093Z</time></trkpt><trkpt lat="45.7403259" lon="10.5973958"><ele>551.0</ele><time>2026-04-26T09:05:41.093Z</time></trkpt><trkpt lat="45.740223" lon="10.5974436"><ele>551.0</ele><time>2026-04-26T09:05:42.092Z</time></trkpt><trkpt lat="45.7401194" lon="10.5975298"><ele>551.0</ele><time>2026-04-26T09:05:43.093Z</time></trkpt><trkpt lat="45.7400456" lon="10.5976486"><ele>551.0</ele><time>2026-04-26T09:05:44.092Z</time></trkpt><trkpt lat="45.7399992" lon="10.5978274"><ele>541.6666666666666</ele><time>2026-04-26T09:05:45.092Z</time></trkpt><trkpt lat="45.7399357" lon="10.5980452"><ele>532.3333333333334</ele><time>2026-04-26T09:05:46.093Z</time></trkpt><trkpt lat="45.7398524" lon="10.598272"><ele>523.0</ele><time>2026-04-26T09:05:47.093Z</time></trkpt><trkpt lat="45.7397885" lon="10.5985136"><ele>532.25</ele><time>2026-04-26T09:05:48.093Z</time></trkpt><trkpt lat="45.7397295" lon="10.598718"><ele>541.5</ele><time>2026-04-26T09:05:49.092Z</time></trkpt><trkpt lat="45.7396625" lon="10.598884"><ele>550.75</ele><time>2026-04-26T09:05:50.093Z</time></trkpt><trkpt lat="45.7395746" lon="10.5990231"><ele>560.0</ele><time>2026-04-26T09:05:51.093Z</time></trkpt><trkpt lat="45.7394631" lon="10.5991225"><ele>553.8</ele><time>2026-04-26T09:05:52.093Z</time></trkpt><trkpt lat="45.7393362" lon="10.5991854"><ele>547.6</ele><time>2026-04-26T09:05:53.093Z</time></trkpt><trkpt lat="45.7392278" lon="10.5992286"><ele>541.4</ele><time>2026-04-26T09:05:54.092Z</time></trkpt><trkpt lat="45.7391403" lon="10.5992923"><ele>535.2</ele><time>2026-04-26T09:05:55.093Z</time></trkpt><trkpt lat="45.7390869" lon="10.5993898"><ele>529.0</ele><time>2026-04-26T09:05:56.093Z</time></trkpt><trkpt lat="45.7390649" lon="10.5995303"><ele>529.0</ele><time>2026-04-26T09:05:57.093Z</time></trkpt><trkpt lat="45.7390222" lon="10.599695"><ele>529.0</ele><time>2026-04-26T09:05:58.093Z</time></trkpt><trkpt lat="45.7389497" lon="10.5998803"><ele>529.0</ele><time>2026-04-26T09:05:59.093Z</time></trkpt><trkpt lat="45.7388644" lon="10.6000816"><ele>529.0</ele><time>2026-04-26T09:06:00.093Z</time></trkpt><trkpt lat="45.738772" lon="10.6002715"><ele>521.3333333333334</ele><time>2026-04-26T09:06:01.093Z</time></trkpt><trkpt lat="45.7386649" lon="10.6004511"><ele>513.6666666666666</ele><time>2026-04-26T09:06:02.093Z</time></trkpt><trkpt lat="45.7385631" lon="10.6006521"><ele>506.0</ele><time>2026-04-26T09:06:03.093Z</time></trkpt><trkpt lat="45.7384687" lon="10.6008642"><ele>506.0</ele><time>2026-04-26T09:06:04.093Z</time></trkpt><trkpt lat="45.7383831" lon="10.6010624"><ele>506.0</ele><time>2026-04-26T09:06:05.092Z</time></trkpt><trkpt lat="45.7383128" lon="10.6012581"><ele>506.0</ele><time>2026-04-26T09:06:06.093Z</time></trkpt><trkpt lat="45.7382619" lon="10.6014652"><ele>511.66666666666663</ele><time>2026-04-26T09:06:07.093Z</time></trkpt><trkpt lat="45.7382005" lon="10.6016653"><ele>517.3333333333334</ele><time>2026-04-26T09:06:08.093Z</time></trkpt><trkpt lat="45.7381438" lon="10.6018708"><ele>523.0</ele><time>2026-04-26T09:06:09.093Z</time></trkpt><trkpt lat="45.7380844" lon="10.6020777"><ele>531.0</ele><time>2026-04-26T09:06:10.093Z</time></trkpt><trkpt lat="45.7380247" lon="10.6022618"><ele>539.0</ele><time>2026-04-26T09:06:11.093Z</time></trkpt><trkpt lat="45.7379868" lon="10.6024476"><ele>547.0</ele><time>2026-04-26T09:06:13.093Z</time></trkpt><trkpt lat="45.7379086" lon="10.6025747"><ele>555.0</ele><time>2026-04-26T09:06:14.093Z</time></trkpt><trkpt lat="45.7377871" lon="10.6027011"><ele>548.0</ele><time>2026-04-26T09:06:15.092Z</time></trkpt><trkpt lat="45.7376696" lon="10.6028685"><ele>541.0</ele><time>2026-04-26T09:06:16.093Z</time></trkpt><trkpt lat="45.7375817" lon="10.6030333"><ele>534.0</ele><time>2026-04-26T09:06:17.093Z</time></trkpt><trkpt lat="45.7375142" lon="10.603182"><ele>527.0</ele><time>2026-04-26T09:06:18.093Z</time></trkpt><trkpt lat="45.7374745" lon="10.6033476"><ele>527.0</ele><time>2026-04-26T09:06:19.093Z</time></trkpt><trkpt lat="45.7374453" lon="10.6035191"><ele>527.0</ele><time>2026-04-26T09:06:20.093Z</time></trkpt><trkpt lat="45.7373745" lon="10.6036752"><ele>527.0</ele><time>2026-04-26T09:06:21.092Z</time></trkpt><trkpt lat="45.737269" lon="10.6038344"><ele>527.0</ele><time>2026-04-26T09:06:22.093Z</time></trkpt><trkpt lat="45.7371351" lon="10.6039695"><ele>524.0</ele><time>2026-04-26T09:06:23.092Z</time></trkpt><trkpt lat="45.7370093" lon="10.6040594"><ele>521.0</ele><time>2026-04-26T09:06:24.093Z</time></trkpt><trkpt lat="45.7369046" lon="10.6041296"><ele>518.0</ele><time>2026-04-26T09:06:25.093Z</time></trkpt><trkpt lat="45.7368218" lon="10.6041904"><ele>515.0</ele><time>2026-04-26T09:06:26.093Z</time></trkpt><trkpt lat="45.7367519" lon="10.6042377"><ele>512.0</ele><time>2026-04-26T09:06:27.093Z</time></trkpt><trkpt lat="45.7366733" lon="10.6043033"><ele>511.99999999999994</ele><time>2026-04-26T09:06:29.093Z</time></trkpt><trkpt lat="45.7366288" lon="10.6043743"><ele>512.0</ele><time>2026-04-26T09:06:47.093Z</time></trkpt><trkpt lat="45.7365901" lon="10.6044824"><ele>512.0</ele><time>2026-04-26T09:06:49.093Z</time></trkpt><trkpt lat="45.7365551" lon="10.6045724"><ele>512.0</ele><time>2026-04-26T09:06:50.092Z</time></trkpt><trkpt lat="45.736528" lon="10.6046828"><ele>511.99999999999994</ele><time>2026-04-26T09:06:51.092Z</time></trkpt><trkpt lat="45.7364969" lon="10.6048138"><ele>512.0</ele><time>2026-04-26T09:06:52.093Z</time></trkpt><trkpt lat="45.7364493" lon="10.6049572"><ele>510.5</ele><time>2026-04-26T09:06:53.093Z</time></trkpt><trkpt lat="45.7363817" lon="10.6050943"><ele>509.0</ele><time>2026-04-26T09:06:54.093Z</time></trkpt><trkpt lat="45.7363194" lon="10.6052272"><ele>507.5</ele><time>2026-04-26T09:06:55.093Z</time></trkpt><trkpt lat="45.7362535" lon="10.6053538"><ele>506.0</ele><time>2026-04-26T09:06:56.093Z</time></trkpt><trkpt lat="45.7361855" lon="10.6054832"><ele>503.0</ele><time>2026-04-26T09:06:57.092Z</time></trkpt><trkpt lat="45.7361117" lon="10.6056161"><ele>500.0</ele><time>2026-04-26T09:06:58.092Z</time></trkpt><trkpt lat="45.7360433" lon="10.6057556"><ele>497.0</ele><time>2026-04-26T09:06:59.093Z</time></trkpt><trkpt lat="45.7359694" lon="10.6059019"><ele>494.0</ele><time>2026-04-26T09:07:00.093Z</time></trkpt><trkpt lat="45.7358977" lon="10.6060412"><ele>493.2</ele><time>2026-04-26T09:07:01.093Z</time></trkpt><trkpt lat="45.7358382" lon="10.6061518"><ele>492.4</ele><time>2026-04-26T09:07:02.093Z</time></trkpt><trkpt lat="45.735777" lon="10.6062496"><ele>491.6</ele><time>2026-04-26T09:07:03.093Z</time></trkpt><trkpt lat="45.7357028" lon="10.6062653"><ele>490.8</ele><time>2026-04-26T09:07:04.093Z</time></trkpt><trkpt lat="45.7356129" lon="10.6062357"><ele>490.0</ele><time>2026-04-26T09:07:05.093Z</time></trkpt><trkpt lat="45.735515" lon="10.6061854"><ele>490.0</ele><time>2026-04-26T09:07:06.093Z</time></trkpt><trkpt lat="45.7354042" lon="10.6061413"><ele>490.0</ele><time>2026-04-26T09:07:07.093Z</time></trkpt><trkpt lat="45.7352672" lon="10.6061305"><ele>490.0</ele><time>2026-04-26T09:07:08.093Z</time></trkpt><trkpt lat="45.7351273" lon="10.6061139"><ele>490.0</ele><time>2026-04-26T09:07:09.093Z</time></trkpt><trkpt lat="45.7349889" lon="10.6061139"><ele>492.6666666666667</ele><time>2026-04-26T09:07:10.093Z</time></trkpt><trkpt lat="45.7348429" lon="10.6061307"><ele>495.33333333333337</ele><time>2026-04-26T09:07:11.093Z</time></trkpt><trkpt lat="45.7347049" lon="10.6062456"><ele>498.0</ele><time>2026-04-26T09:07:12.093Z</time></trkpt><trkpt lat="45.7345521" lon="10.6063177"><ele>502.75</ele><time>2026-04-26T09:07:13.093Z</time></trkpt><trkpt lat="45.7344186" lon="10.606382"><ele>507.5</ele><time>2026-04-26T09:07:14.092Z</time></trkpt><trkpt lat="45.734297" lon="10.6064264"><ele>512.25</ele><time>2026-04-26T09:07:15.092Z</time></trkpt><trkpt lat="45.7341779" lon="10.6064405"><ele>517.0</ele><time>2026-04-26T09:07:16.093Z</time></trkpt><trkpt lat="45.7340735" lon="10.606405"><ele>517.0</ele><time>2026-04-26T09:07:17.093Z</time></trkpt><trkpt lat="45.7339737" lon="10.6063932"><ele>517.0</ele><time>2026-04-26T09:07:18.093Z</time></trkpt><trkpt lat="45.7338683" lon="10.6064211"><ele>517.0</ele><time>2026-04-26T09:07:19.093Z</time></trkpt><trkpt lat="45.7337515" lon="10.6064493"><ele>517.0</ele><time>2026-04-26T09:07:20.093Z</time></trkpt><trkpt lat="45.7336257" lon="10.6065781"><ele>516.3333333333334</ele><time>2026-04-26T09:07:21.093Z</time></trkpt><trkpt lat="45.7334966" lon="10.6066718"><ele>515.6666666666666</ele><time>2026-04-26T09:07:22.093Z</time></trkpt><trkpt lat="45.733329" lon="10.6067837"><ele>515.0</ele><time>2026-04-26T09:07:23.093Z</time></trkpt><trkpt lat="45.7331645" lon="10.6068577"><ele>515.0</ele><time>2026-04-26T09:07:24.092Z</time></trkpt><trkpt lat="45.7329982" lon="10.6069477"><ele>515.0</ele><time>2026-04-26T09:07:25.093Z</time></trkpt><trkpt lat="45.7328432" lon="10.6070346"><ele>515.0</ele><time>2026-04-26T09:07:26.093Z</time></trkpt><trkpt lat="45.7326985" lon="10.6071049"><ele>521.5</ele><time>2026-04-26T09:07:27.093Z</time></trkpt><trkpt lat="45.7325688" lon="10.6071707"><ele>528.0</ele><time>2026-04-26T09:07:28.093Z</time></trkpt><trkpt lat="45.7324426" lon="10.6072322"><ele>534.5</ele><time>2026-04-26T09:07:29.093Z</time></trkpt><trkpt lat="45.7323488" lon="10.6071942"><ele>541.0</ele><time>2026-04-26T09:07:30.093Z</time></trkpt><trkpt lat="45.7322582" lon="10.6071357"><ele>541.0</ele><time>2026-04-26T09:07:31.093Z</time></trkpt><trkpt lat="45.7321666" lon="10.6071327"><ele>541.0</ele><time>2026-04-26T09:07:32.093Z</time></trkpt><trkpt lat="45.7320552" lon="10.6071558"><ele>541.0</ele><time>2026-04-26T09:07:33.093Z</time></trkpt><trkpt lat="45.7319404" lon="10.6071907"><ele>541.0</ele><time>2026-04-26T09:07:34.093Z</time></trkpt><trkpt lat="45.7318193" lon="10.6072436"><ele>541.0</ele><time>2026-04-26T09:07:35.093Z</time></trkpt><trkpt lat="45.7316995" lon="10.6073083"><ele>537.5</ele><time>2026-04-26T09:07:36.093Z</time></trkpt><trkpt lat="45.7315645" lon="10.607345"><ele>534.0</ele><time>2026-04-26T09:07:37.093Z</time></trkpt><trkpt lat="45.7314283" lon="10.6073717"><ele>530.5</ele><time>2026-04-26T09:07:38.092Z</time></trkpt><trkpt lat="45.7312885" lon="10.6074271"><ele>527.0</ele><time>2026-04-26T09:07:39.093Z</time></trkpt><trkpt lat="45.7311557" lon="10.6075152"><ele>531.0</ele><time>2026-04-26T09:07:40.093Z</time></trkpt><trkpt lat="45.7310338" lon="10.6075966"><ele>535.0</ele><time>2026-04-26T09:07:41.092Z</time></trkpt><trkpt lat="45.7309288" lon="10.6076684"><ele>539.0</ele><time>2026-04-26T09:07:42.093Z</time></trkpt><trkpt lat="45.730862" lon="10.6077974"><ele>543.0</ele><time>2026-04-26T09:07:43.093Z</time></trkpt><trkpt lat="45.7307977" lon="10.6079196"><ele>543.0</ele><time>2026-04-26T09:07:44.093Z</time></trkpt><trkpt lat="45.7307186" lon="10.6080137"><ele>543.0</ele><time>2026-04-26T09:07:45.093Z</time></trkpt><trkpt lat="45.7306065" lon="10.6080783"><ele>543.0</ele><time>2026-04-26T09:07:46.093Z</time></trkpt><trkpt lat="45.730471" lon="10.6081345"><ele>543.0</ele><time>2026-04-26T09:07:47.093Z</time></trkpt><trkpt lat="45.7303287" lon="10.6081892"><ele>533.3333333333334</ele><time>2026-04-26T09:07:48.093Z</time></trkpt><trkpt lat="45.7301801" lon="10.6082843"><ele>523.6666666666667</ele><time>2026-04-26T09:07:49.093Z</time></trkpt><trkpt lat="45.7300333" lon="10.6084055"><ele>514.0</ele><time>2026-04-26T09:07:50.093Z</time></trkpt><trkpt lat="45.7298941" lon="10.6085053"><ele>514.0</ele><time>2026-04-26T09:07:51.093Z</time></trkpt><trkpt lat="45.7297614" lon="10.6085283"><ele>514.0</ele><time>2026-04-26T09:07:52.093Z</time></trkpt><trkpt lat="45.7296603" lon="10.6085887"><ele>514.0</ele><time>2026-04-26T09:07:53.093Z</time></trkpt><trkpt lat="45.7295847" lon="10.6086848"><ele>514.0</ele><time>2026-04-26T09:07:54.093Z</time></trkpt><trkpt lat="45.7295173" lon="10.6087781"><ele>514.0</ele><time>2026-04-26T09:07:55.093Z</time></trkpt><trkpt lat="45.7294327" lon="10.6088169"><ele>516.4</ele><time>2026-04-26T09:07:56.092Z</time></trkpt><trkpt lat="45.729345" lon="10.6088077"><ele>518.8</ele><time>2026-04-26T09:07:57.092Z</time></trkpt><trkpt lat="45.7292567" lon="10.6087678"><ele>521.2</ele><time>2026-04-26T09:07:58.093Z</time></trkpt><trkpt lat="45.7291861" lon="10.6086733"><ele>523.6</ele><time>2026-04-26T09:07:59.093Z</time></trkpt><trkpt lat="45.7291487" lon="10.6085443"><ele>526.0</ele><time>2026-04-26T09:08:00.093Z</time></trkpt><trkpt lat="45.7291172" lon="10.6084365"><ele>526.0</ele><time>2026-04-26T09:08:01.093Z</time></trkpt><trkpt lat="45.7290543" lon="10.6083604"><ele>526.0</ele><time>2026-04-26T09:08:02.093Z</time></trkpt><trkpt lat="45.7289533" lon="10.6083135"><ele>526.0</ele><time>2026-04-26T09:08:03.093Z</time></trkpt><trkpt lat="45.7288264" lon="10.6082747"><ele>526.0</ele><time>2026-04-26T09:08:04.093Z</time></trkpt><trkpt lat="45.7286762" lon="10.6082317"><ele>525.75</ele><time>2026-04-26T09:08:05.093Z</time></trkpt><trkpt lat="45.7285371" lon="10.6081624"><ele>525.5</ele><time>2026-04-26T09:08:06.092Z</time></trkpt><trkpt lat="45.7284177" lon="10.6080972"><ele>525.25</ele><time>2026-04-26T09:08:07.093Z</time></trkpt><trkpt lat="45.7283021" lon="10.6080606"><ele>525.0</ele><time>2026-04-26T09:08:08.093Z</time></trkpt><trkpt lat="45.7281782" lon="10.6080542"><ele>525.0</ele><time>2026-04-26T09:08:09.093Z</time></trkpt><trkpt lat="45.7280659" lon="10.6080732"><ele>525.0</ele><time>2026-04-26T09:08:10.093Z</time></trkpt><trkpt lat="45.7279689" lon="10.6081159"><ele>525.0</ele><time>2026-04-26T09:08:11.093Z</time></trkpt><trkpt lat="45.7278808" lon="10.6082212"><ele>525.0</ele><time>2026-04-26T09:08:12.093Z</time></trkpt><trkpt lat="45.7277935" lon="10.608383"><ele>523.25</ele><time>2026-04-26T09:08:13.092Z</time></trkpt><trkpt lat="45.7276988" lon="10.6085555"><ele>521.5</ele><time>2026-04-26T09:08:14.093Z</time></trkpt><trkpt lat="45.7276043" lon="10.6087222"><ele>519.75</ele><time>2026-04-26T09:08:15.093Z</time></trkpt><trkpt lat="45.7275296" lon="10.6088953"><ele>518.0</ele><time>2026-04-26T09:08:16.093Z</time></trkpt><trkpt lat="45.7274731" lon="10.6090676"><ele>518.0</ele><time>2026-04-26T09:08:17.092Z</time></trkpt><trkpt lat="45.7274102" lon="10.6092328"><ele>518.0</ele><time>2026-04-26T09:08:18.093Z</time></trkpt><trkpt lat="45.72733" lon="10.6093812"><ele>518.0</ele><time>2026-04-26T09:08:19.093Z</time></trkpt><trkpt lat="45.7272316" lon="10.6095005"><ele>518.0</ele><time>2026-04-26T09:08:20.093Z</time></trkpt><trkpt lat="45.7271176" lon="10.6095881"><ele>519.5</ele><time>2026-04-26T09:08:21.093Z</time></trkpt><trkpt lat="45.7270499" lon="10.6097248"><ele>521.0</ele><time>2026-04-26T09:08:22.093Z</time></trkpt><trkpt lat="45.7269709" lon="10.6098585"><ele>522.5</ele><time>2026-04-26T09:08:23.092Z</time></trkpt><trkpt lat="45.7268842" lon="10.6099837"><ele>524.0</ele><time>2026-04-26T09:08:24.093Z</time></trkpt><trkpt lat="45.726761" lon="10.6100707"><ele>524.0</ele><time>2026-04-26T09:08:25.092Z</time></trkpt><trkpt lat="45.7266437" lon="10.6101733"><ele>524.0</ele><time>2026-04-26T09:08:26.093Z</time></trkpt><trkpt lat="45.7264954" lon="10.6102551"><ele>524.0</ele><time>2026-04-26T09:08:27.092Z</time></trkpt><trkpt lat="45.7263502" lon="10.610312"><ele>524.0</ele><time>2026-04-26T09:08:28.093Z</time></trkpt><trkpt lat="45.7261976" lon="10.6103558"><ele>528.5</ele><time>2026-04-26T09:08:29.093Z</time></trkpt><trkpt lat="45.7260488" lon="10.6103695"><ele>533.0</ele><time>2026-04-26T09:08:30.092Z</time></trkpt><trkpt lat="45.7258948" lon="10.6103812"><ele>537.5</ele><time>2026-04-26T09:08:31.093Z</time></trkpt><trkpt lat="45.7257495" lon="10.6104018"><ele>542.0</ele><time>2026-04-26T09:08:32.093Z</time></trkpt><trkpt lat="45.7256198" lon="10.6103853"><ele>542.0</ele><time>2026-04-26T09:08:33.092Z</time></trkpt><trkpt lat="45.7254916" lon="10.610381"><ele>542.0</ele><time>2026-04-26T09:08:34.093Z</time></trkpt><trkpt lat="45.7253548" lon="10.6104078"><ele>542.0</ele><time>2026-04-26T09:08:35.093Z</time></trkpt><trkpt lat="45.7252184" lon="10.6104767"><ele>542.0</ele><time>2026-04-26T09:08:36.093Z</time></trkpt><trkpt lat="45.7250909" lon="10.6105343"><ele>537.1666666666666</ele><time>2026-04-26T09:08:37.093Z</time></trkpt><trkpt lat="45.7249986" lon="10.6105879"><ele>532.3333333333333</ele><time>2026-04-26T09:08:38.093Z</time></trkpt><trkpt lat="45.7249354" lon="10.6106701"><ele>527.5</ele><time>2026-04-26T09:08:39.093Z</time></trkpt><trkpt lat="45.7248995" lon="10.6107633"><ele>522.6666666666666</ele><time>2026-04-26T09:08:40.093Z</time></trkpt><trkpt lat="45.7249075" lon="10.6108861"><ele>517.8333333333334</ele><time>2026-04-26T09:08:41.093Z</time></trkpt><trkpt lat="45.7249124" lon="10.6110094"><ele>513.0</ele><time>2026-04-26T09:08:42.093Z</time></trkpt><trkpt lat="45.7248757" lon="10.611117"><ele>521.25</ele><time>2026-04-26T09:08:43.093Z</time></trkpt><trkpt lat="45.7248013" lon="10.6112042"><ele>529.5</ele><time>2026-04-26T09:08:44.093Z</time></trkpt><trkpt lat="45.7247083" lon="10.6112802"><ele>537.75</ele><time>2026-04-26T09:08:45.093Z</time></trkpt><trkpt lat="45.7245943" lon="10.6113291"><ele>546.0</ele><time>2026-04-26T09:08:46.093Z</time></trkpt><trkpt lat="45.7244652" lon="10.611373"><ele>537.5</ele><time>2026-04-26T09:08:47.092Z</time></trkpt><trkpt lat="45.7243511" lon="10.6114424"><ele>529.0</ele><time>2026-04-26T09:08:48.093Z</time></trkpt><trkpt lat="45.7242525" lon="10.6115485"><ele>520.5</ele><time>2026-04-26T09:08:49.092Z</time></trkpt><trkpt lat="45.7241839" lon="10.6116793"><ele>512.0</ele><time>2026-04-26T09:08:50.093Z</time></trkpt><trkpt lat="45.7241199" lon="10.6118299"><ele>518.5</ele><time>2026-04-26T09:08:51.093Z</time></trkpt><trkpt lat="45.7240684" lon="10.6120004"><ele>525.0</ele><time>2026-04-26T09:08:52.092Z</time></trkpt><trkpt lat="45.7240032" lon="10.6121514"><ele>531.5</ele><time>2026-04-26T09:08:53.093Z</time></trkpt><trkpt lat="45.7239152" lon="10.6122718"><ele>538.0</ele><time>2026-04-26T09:08:54.093Z</time></trkpt><trkpt lat="45.7238139" lon="10.6123616"><ele>538.0</ele><time>2026-04-26T09:08:55.092Z</time></trkpt><trkpt lat="45.723702" lon="10.6124328"><ele>538.0</ele><time>2026-04-26T09:08:56.093Z</time></trkpt><trkpt lat="45.7235759" lon="10.6124727"><ele>538.0</ele><time>2026-04-26T09:08:57.093Z</time></trkpt><trkpt lat="45.7234545" lon="10.6124768"><ele>538.0</ele><time>2026-04-26T09:08:58.093Z</time></trkpt><trkpt lat="45.7233507" lon="10.6124673"><ele>533.4</ele><time>2026-04-26T09:08:59.093Z</time></trkpt><trkpt lat="45.7232665" lon="10.6124595"><ele>528.8</ele><time>2026-04-26T09:09:00.092Z</time></trkpt><trkpt lat="45.7231984" lon="10.6124532"><ele>524.2</ele><time>2026-04-26T09:09:01.093Z</time></trkpt><trkpt lat="45.7231169" lon="10.6124436"><ele>519.6</ele><time>2026-04-26T09:09:03.093Z</time></trkpt><trkpt lat="45.7230117" lon="10.6123527"><ele>515.0</ele><time>2026-04-26T09:10:11.093Z</time></trkpt><trkpt lat="45.7228967" lon="10.6124018"><ele>515.0</ele><time>2026-04-26T09:10:13.092Z</time></trkpt><trkpt lat="45.7228275" lon="10.6124694"><ele>515.0</ele><time>2026-04-26T09:10:14.092Z</time></trkpt><trkpt lat="45.72277" lon="10.6125603"><ele>515.0</ele><time>2026-04-26T09:10:15.093Z</time></trkpt><trkpt lat="45.7227087" lon="10.6126384"><ele>515.0</ele><time>2026-04-26T09:10:16.093Z</time></trkpt><trkpt lat="45.7226428" lon="10.6126926"><ele>515.0</ele><time>2026-04-26T09:10:17.093Z</time></trkpt><trkpt lat="45.7225746" lon="10.612725"><ele>515.0</ele><time>2026-04-26T09:10:18.092Z</time></trkpt><trkpt lat="45.7224973" lon="10.6127105"><ele>511.49999999999994</ele><time>2026-04-26T09:10:19.092Z</time></trkpt><trkpt lat="45.7224257" lon="10.6126828"><ele>508.0</ele><time>2026-04-26T09:10:20.092Z</time></trkpt><trkpt lat="45.7223378" lon="10.6126533"><ele>504.5</ele><time>2026-04-26T09:10:21.093Z</time></trkpt><trkpt lat="45.7222439" lon="10.6126201"><ele>501.0</ele><time>2026-04-26T09:10:22.093Z</time></trkpt><trkpt lat="45.7221579" lon="10.6125843"><ele>497.49999999999994</ele><time>2026-04-26T09:10:23.093Z</time></trkpt><trkpt lat="45.7220642" lon="10.6125493"><ele>494.0</ele><time>2026-04-26T09:10:24.093Z</time></trkpt><trkpt lat="45.7219625" lon="10.6125149"><ele>493.0</ele><time>2026-04-26T09:10:25.093Z</time></trkpt><trkpt lat="45.7218595" lon="10.6124777"><ele>492.0</ele><time>2026-04-26T09:10:26.093Z</time></trkpt><trkpt lat="45.7217468" lon="10.6124417"><ele>491.0</ele><time>2026-04-26T09:10:27.092Z</time></trkpt><trkpt lat="45.7216323" lon="10.6123938"><ele>490.0</ele><time>2026-04-26T09:10:28.093Z</time></trkpt><trkpt lat="45.7215131" lon="10.6123453"><ele>490.0</ele><time>2026-04-26T09:10:29.093Z</time></trkpt><trkpt lat="45.7213874" lon="10.6122947"><ele>490.0</ele><time>2026-04-26T09:10:30.093Z</time></trkpt><trkpt lat="45.72126" lon="10.6122488"><ele>490.0</ele><time>2026-04-26T09:10:31.092Z</time></trkpt><trkpt lat="45.7211288" lon="10.6122008"><ele>490.0</ele><time>2026-04-26T09:10:32.093Z</time></trkpt><trkpt lat="45.7210016" lon="10.6121502"><ele>491.75</ele><time>2026-04-26T09:10:33.093Z</time></trkpt><trkpt lat="45.7208656" lon="10.6121062"><ele>493.5</ele><time>2026-04-26T09:10:34.093Z</time></trkpt><trkpt lat="45.7207318" lon="10.6120607"><ele>495.25</ele><time>2026-04-26T09:10:35.093Z</time></trkpt><trkpt lat="45.7206072" lon="10.6120124"><ele>497.0</ele><time>2026-04-26T09:10:36.093Z</time></trkpt><trkpt lat="45.7205056" lon="10.611954"><ele>496.99999999999994</ele><time>2026-04-26T09:10:37.093Z</time></trkpt><trkpt lat="45.720421" lon="10.6119093"><ele>497.0</ele><time>2026-04-26T09:10:38.092Z</time></trkpt><trkpt lat="45.720338" lon="10.6119188"><ele>497.0</ele><time>2026-04-26T09:10:39.093Z</time></trkpt><trkpt lat="45.7202627" lon="10.6119723"><ele>497.0</ele><time>2026-04-26T09:10:40.092Z</time></trkpt><trkpt lat="45.7201831" lon="10.6120306"><ele>496.99999999999994</ele><time>2026-04-26T09:10:41.093Z</time></trkpt><trkpt lat="45.7200886" lon="10.6120506"><ele>497.0</ele><time>2026-04-26T09:10:42.093Z</time></trkpt><trkpt lat="45.7199782" lon="10.6120226"><ele>498.0</ele><time>2026-04-26T09:10:43.093Z</time></trkpt><trkpt lat="45.7198666" lon="10.6119722"><ele>499.0</ele><time>2026-04-26T09:10:44.093Z</time></trkpt><trkpt lat="45.7197564" lon="10.6119333"><ele>500.0</ele><time>2026-04-26T09:10:45.093Z</time></trkpt><trkpt lat="45.7196434" lon="10.6119368"><ele>501.0</ele><time>2026-04-26T09:10:46.093Z</time></trkpt><trkpt lat="45.719531" lon="10.6119626"><ele>507.6</ele><time>2026-04-26T09:10:47.093Z</time></trkpt><trkpt lat="45.7194452" lon="10.612025"><ele>514.2</ele><time>2026-04-26T09:10:48.092Z</time></trkpt><trkpt lat="45.7193781" lon="10.612113"><ele>520.8</ele><time>2026-04-26T09:10:49.093Z</time></trkpt><trkpt lat="45.7193042" lon="10.6121897"><ele>527.4</ele><time>2026-04-26T09:10:50.093Z</time></trkpt><trkpt lat="45.7192149" lon="10.6122292"><ele>534.0</ele><time>2026-04-26T09:10:51.093Z</time></trkpt><trkpt lat="45.7191309" lon="10.6122523"><ele>534.8333333333334</ele><time>2026-04-26T09:10:52.093Z</time></trkpt><trkpt lat="45.7190628" lon="10.6122483"><ele>535.6666666666666</ele><time>2026-04-26T09:10:53.092Z</time></trkpt><trkpt lat="45.7190084" lon="10.6121781"><ele>536.5</ele><time>2026-04-26T09:10:54.093Z</time></trkpt><trkpt lat="45.7189819" lon="10.6120816"><ele>537.3333333333333</ele><time>2026-04-26T09:10:55.093Z</time></trkpt><trkpt lat="45.7189816" lon="10.6119595"><ele>538.1666666666666</ele><time>2026-04-26T09:10:56.093Z</time></trkpt><trkpt lat="45.7189675" lon="10.6118366"><ele>539.0</ele><time>2026-04-26T09:10:57.093Z</time></trkpt><trkpt lat="45.7189355" lon="10.6117451"><ele>535.4</ele><time>2026-04-26T09:10:58.093Z</time></trkpt><trkpt lat="45.7188694" lon="10.611694"><ele>531.8</ele><time>2026-04-26T09:10:59.093Z</time></trkpt><trkpt lat="45.7187771" lon="10.6116916"><ele>528.2</ele><time>2026-04-26T09:11:00.093Z</time></trkpt><trkpt lat="45.7186491" lon="10.6116944"><ele>524.6</ele><time>2026-04-26T09:11:01.093Z</time></trkpt><trkpt lat="45.7185192" lon="10.6116642"><ele>521.0</ele><time>2026-04-26T09:11:02.093Z</time></trkpt><trkpt lat="45.7184019" lon="10.6116263"><ele>521.0</ele><time>2026-04-26T09:11:03.093Z</time></trkpt><trkpt lat="45.7183014" lon="10.6115778"><ele>521.0</ele><time>2026-04-26T09:11:04.093Z</time></trkpt><trkpt lat="45.7182054" lon="10.6115717"><ele>521.0</ele><time>2026-04-26T09:11:05.093Z</time></trkpt><trkpt lat="45.7181061" lon="10.6116244"><ele>521.0</ele><time>2026-04-26T09:11:06.092Z</time></trkpt><trkpt lat="45.7180075" lon="10.6116943"><ele>521.0</ele><time>2026-04-26T09:11:07.093Z</time></trkpt><trkpt lat="45.7179022" lon="10.6117393"><ele>521.0</ele><time>2026-04-26T09:11:08.093Z</time></trkpt><trkpt lat="45.7177857" lon="10.6117405"><ele>521.0</ele><time>2026-04-26T09:11:09.093Z</time></trkpt><trkpt lat="45.7176802" lon="10.6117079"><ele>521.0</ele><time>2026-04-26T09:11:10.093Z</time></trkpt><trkpt lat="45.7175953" lon="10.6116245"><ele>521.0</ele><time>2026-04-26T09:11:11.093Z</time></trkpt><trkpt lat="45.717536" lon="10.6115038"><ele>521.0</ele><time>2026-04-26T09:11:12.092Z</time></trkpt><trkpt lat="45.7174779" lon="10.6114078"><ele>522.0</ele><time>2026-04-26T09:11:13.093Z</time></trkpt><trkpt lat="45.717401" lon="10.6113796"><ele>523.0</ele><time>2026-04-26T09:11:14.093Z</time></trkpt><trkpt lat="45.7173209" lon="10.6114088"><ele>524.0</ele><time>2026-04-26T09:11:15.093Z</time></trkpt><trkpt lat="45.7172389" lon="10.6114616"><ele>525.0</ele><time>2026-04-26T09:11:16.093Z</time></trkpt><trkpt lat="45.7171457" lon="10.6114779"><ele>526.0</ele><time>2026-04-26T09:11:17.093Z</time></trkpt><trkpt lat="45.7170471" lon="10.6114114"><ele>526.0</ele><time>2026-04-26T09:11:18.092Z</time></trkpt><trkpt lat="45.7169583" lon="10.6113266"><ele>526.0</ele><time>2026-04-26T09:11:19.092Z</time></trkpt><trkpt lat="45.7168568" lon="10.6112485"><ele>526.0</ele><time>2026-04-26T09:11:20.093Z</time></trkpt><trkpt lat="45.7167375" lon="10.6112306"><ele>526.0</ele><time>2026-04-26T09:11:21.092Z</time></trkpt><trkpt lat="45.7166159" lon="10.6112221"><ele>527.4</ele><time>2026-04-26T09:11:22.092Z</time></trkpt><trkpt lat="45.7164996" lon="10.6111895"><ele>528.8</ele><time>2026-04-26T09:11:23.093Z</time></trkpt><trkpt lat="45.7164045" lon="10.611192"><ele>530.1999999999999</ele><time>2026-04-26T09:11:24.092Z</time></trkpt><trkpt lat="45.7163177" lon="10.6112667"><ele>531.6</ele><time>2026-04-26T09:11:25.092Z</time></trkpt><trkpt lat="45.7162288" lon="10.6113751"><ele>533.0</ele><time>2026-04-26T09:11:26.093Z</time></trkpt><trkpt lat="45.7161206" lon="10.6114685"><ele>532.5</ele><time>2026-04-26T09:11:27.093Z</time></trkpt><trkpt lat="45.7160273" lon="10.6115513"><ele>532.0</ele><time>2026-04-26T09:11:28.092Z</time></trkpt><trkpt lat="45.7159585" lon="10.6116145"><ele>531.5</ele><time>2026-04-26T09:11:29.092Z</time></trkpt><trkpt lat="45.7158833" lon="10.6116439"><ele>531.0</ele><time>2026-04-26T09:11:30.092Z</time></trkpt><trkpt lat="45.7158073" lon="10.6116065"><ele>530.5</ele><time>2026-04-26T09:11:31.093Z</time></trkpt><trkpt lat="45.7157375" lon="10.6115193"><ele>530.0</ele><time>2026-04-26T09:11:32.093Z</time></trkpt><trkpt lat="45.7156418" lon="10.6114566"><ele>530.0</ele><time>2026-04-26T09:11:33.093Z</time></trkpt><trkpt lat="45.7155217" lon="10.6114205"><ele>530.0</ele><time>2026-04-26T09:11:34.093Z</time></trkpt><trkpt lat="45.715431" lon="10.6113279"><ele>530.0</ele><time>2026-04-26T09:11:35.092Z</time></trkpt><trkpt lat="45.7153462" lon="10.6112251"><ele>530.0</ele><time>2026-04-26T09:11:36.093Z</time></trkpt><trkpt lat="45.7152504" lon="10.6111286"><ele>525.75</ele><time>2026-04-26T09:11:37.093Z</time></trkpt><trkpt lat="45.7151348" lon="10.6110788"><ele>521.5</ele><time>2026-04-26T09:11:38.093Z</time></trkpt><trkpt lat="45.7150014" lon="10.6110658"><ele>517.25</ele><time>2026-04-26T09:11:39.093Z</time></trkpt><trkpt lat="45.7148572" lon="10.6110787"><ele>513.0</ele><time>2026-04-26T09:11:40.093Z</time></trkpt><trkpt lat="45.71472" lon="10.6110708"><ele>513.0</ele><time>2026-04-26T09:11:41.092Z</time></trkpt><trkpt lat="45.7146083" lon="10.61105"><ele>513.0</ele><time>2026-04-26T09:11:42.093Z</time></trkpt><trkpt lat="45.7145162" lon="10.6109809"><ele>513.0</ele><time>2026-04-26T09:11:43.093Z</time></trkpt><trkpt lat="45.7144662" lon="10.6108734"><ele>513.0</ele><time>2026-04-26T09:11:44.093Z</time></trkpt><trkpt lat="45.7144119" lon="10.6107507"><ele>513.0</ele><time>2026-04-26T09:11:45.093Z</time></trkpt><trkpt lat="45.7143298" lon="10.610651"><ele>517.5</ele><time>2026-04-26T09:11:46.093Z</time></trkpt><trkpt lat="45.7142336" lon="10.6105488"><ele>522.0</ele><time>2026-04-26T09:11:47.093Z</time></trkpt><trkpt lat="45.714132" lon="10.6104702"><ele>526.5</ele><time>2026-04-26T09:11:48.092Z</time></trkpt><trkpt lat="45.7139904" lon="10.6104291"><ele>531.0</ele><time>2026-04-26T09:11:49.093Z</time></trkpt><trkpt lat="45.7138625" lon="10.6104004"><ele>531.0</ele><time>2026-04-26T09:11:50.092Z</time></trkpt><trkpt lat="45.7137667" lon="10.6104181"><ele>531.0</ele><time>2026-04-26T09:11:51.093Z</time></trkpt><trkpt lat="45.7136836" lon="10.6104786"><ele>531.0</ele><time>2026-04-26T09:11:52.093Z</time></trkpt><trkpt lat="45.7136081" lon="10.6105926"><ele>531.0</ele><time>2026-04-26T09:11:53.093Z</time></trkpt><trkpt lat="45.7135221" lon="10.6107324"><ele>531.0</ele><time>2026-04-26T09:11:54.093Z</time></trkpt><trkpt lat="45.7134298" lon="10.6108831"><ele>533.0</ele><time>2026-04-26T09:11:55.093Z</time></trkpt><trkpt lat="45.7133519" lon="10.611037"><ele>535.0</ele><time>2026-04-26T09:11:56.093Z</time></trkpt><trkpt lat="45.7132743" lon="10.6111645"><ele>537.0</ele><time>2026-04-26T09:11:57.093Z</time></trkpt><trkpt lat="45.7131789" lon="10.6112584"><ele>539.0</ele><time>2026-04-26T09:11:58.093Z</time></trkpt><trkpt lat="45.7130695" lon="10.6113098"><ele>539.0</ele><time>2026-04-26T09:11:59.093Z</time></trkpt><trkpt lat="45.7129769" lon="10.6113958"><ele>539.0</ele><time>2026-04-26T09:12:00.093Z</time></trkpt><trkpt lat="45.71289" lon="10.6115347"><ele>539.0</ele><time>2026-04-26T09:12:01.093Z</time></trkpt><trkpt lat="45.7128179" lon="10.6117576"><ele>539.0</ele><time>2026-04-26T09:12:02.093Z</time></trkpt><trkpt lat="45.7127269" lon="10.6119605"><ele>537.5</ele><time>2026-04-26T09:12:03.093Z</time></trkpt><trkpt lat="45.7126508" lon="10.6121255"><ele>536.0</ele><time>2026-04-26T09:12:04.093Z</time></trkpt><trkpt lat="45.7125682" lon="10.6122635"><ele>534.5</ele><time>2026-04-26T09:12:05.093Z</time></trkpt><trkpt lat="45.712448" lon="10.6123442"><ele>533.0</ele><time>2026-04-26T09:12:06.093Z</time></trkpt><trkpt lat="45.7123402" lon="10.6124326"><ele>533.0</ele><time>2026-04-26T09:12:07.092Z</time></trkpt><trkpt lat="45.7121557" lon="10.6124539"><ele>533.0</ele><time>2026-04-26T09:12:08.092Z</time></trkpt><trkpt lat="45.7120069" lon="10.612519"><ele>533.0</ele><time>2026-04-26T09:12:09.093Z</time></trkpt><trkpt lat="45.711869" lon="10.612599"><ele>532.3333333333333</ele><time>2026-04-26T09:12:10.093Z</time></trkpt><trkpt lat="45.7117292" lon="10.6127407"><ele>531.6666666666666</ele><time>2026-04-26T09:12:11.093Z</time></trkpt><trkpt lat="45.7115879" lon="10.612902"><ele>531.0</ele><time>2026-04-26T09:12:12.093Z</time></trkpt><trkpt lat="45.7114674" lon="10.6130186"><ele>531.0</ele><time>2026-04-26T09:12:13.092Z</time></trkpt><trkpt lat="45.7113814" lon="10.6131563"><ele>531.0</ele><time>2026-04-26T09:12:14.093Z</time></trkpt><trkpt lat="45.7113317" lon="10.6133149"><ele>531.0</ele><time>2026-04-26T09:12:15.093Z</time></trkpt><trkpt lat="45.7113359" lon="10.6134849"><ele>531.0</ele><time>2026-04-26T09:12:16.092Z</time></trkpt><trkpt lat="45.7113509" lon="10.6136548"><ele>528.6</ele><time>2026-04-26T09:12:17.093Z</time></trkpt><trkpt lat="45.7113469" lon="10.6137836"><ele>526.2</ele><time>2026-04-26T09:12:18.093Z</time></trkpt><trkpt lat="45.7112923" lon="10.6138828"><ele>523.8</ele><time>2026-04-26T09:12:19.093Z</time></trkpt><trkpt lat="45.7111913" lon="10.6139517"><ele>521.4</ele><time>2026-04-26T09:12:20.093Z</time></trkpt><trkpt lat="45.7110834" lon="10.6140308"><ele>519.0</ele><time>2026-04-26T09:12:21.093Z</time></trkpt><trkpt lat="45.7109621" lon="10.6140716"><ele>519.0</ele><time>2026-04-26T09:12:22.093Z</time></trkpt><trkpt lat="45.7108655" lon="10.6141087"><ele>519.0</ele><time>2026-04-26T09:12:23.093Z</time></trkpt><trkpt lat="45.7108112" lon="10.6142058"><ele>519.0</ele><time>2026-04-26T09:12:24.093Z</time></trkpt><trkpt lat="45.710803" lon="10.6143323"><ele>519.0</ele><time>2026-04-26T09:12:25.093Z</time></trkpt><trkpt lat="45.710792" lon="10.61446"><ele>519.0</ele><time>2026-04-26T09:12:26.093Z</time></trkpt><trkpt lat="45.7107435" lon="10.6145793"><ele>529.5</ele><time>2026-04-26T09:12:27.093Z</time></trkpt><trkpt lat="45.7106567" lon="10.6146549"><ele>540.0</ele><time>2026-04-26T09:12:28.093Z</time></trkpt><trkpt lat="45.7105383" lon="10.614676"><ele>550.5</ele><time>2026-04-26T09:12:29.093Z</time></trkpt><trkpt lat="45.7103969" lon="10.6146835"><ele>561.0</ele><time>2026-04-26T09:12:30.092Z</time></trkpt><trkpt lat="45.7102586" lon="10.6147005"><ele>553.0</ele><time>2026-04-26T09:12:31.093Z</time></trkpt><trkpt lat="45.7101271" lon="10.6147109"><ele>545.0</ele><time>2026-04-26T09:12:32.093Z</time></trkpt><trkpt lat="45.7100458" lon="10.6147419"><ele>537.0</ele><time>2026-04-26T09:12:33.092Z</time></trkpt><trkpt lat="45.7099689" lon="10.6148183"><ele>529.0</ele><time>2026-04-26T09:12:34.092Z</time></trkpt><trkpt lat="45.7099266" lon="10.6149175"><ele>521.0</ele><time>2026-04-26T09:12:35.093Z</time></trkpt><trkpt lat="45.709902" lon="10.6150366"><ele>521.0</ele><time>2026-04-26T09:12:36.093Z</time></trkpt><trkpt lat="45.7099125" lon="10.6151742"><ele>521.0</ele><time>2026-04-26T09:12:37.092Z</time></trkpt><trkpt lat="45.7098676" lon="10.6152697"><ele>521.0</ele><time>2026-04-26T09:12:38.092Z</time></trkpt><trkpt lat="45.7097881" lon="10.6153205"><ele>521.0</ele><time>2026-04-26T09:12:39.093Z</time></trkpt><trkpt lat="45.7096893" lon="10.6153414"><ele>521.0</ele><time>2026-04-26T09:12:40.092Z</time></trkpt><trkpt lat="45.7095989" lon="10.6153285"><ele>521.0</ele><time>2026-04-26T09:12:41.093Z</time></trkpt><trkpt lat="45.7095269" lon="10.6152707"><ele>521.0</ele><time>2026-04-26T09:12:42.093Z</time></trkpt><trkpt lat="45.7094839" lon="10.6151677"><ele>521.0</ele><time>2026-04-26T09:12:43.093Z</time></trkpt><trkpt lat="45.7094464" lon="10.615045"><ele>521.0</ele><time>2026-04-26T09:12:44.092Z</time></trkpt><trkpt lat="45.7094041" lon="10.6149234"><ele>521.0</ele><time>2026-04-26T09:12:45.093Z</time></trkpt><trkpt lat="45.7093275" lon="10.614829"><ele>523.5</ele><time>2026-04-26T09:12:46.093Z</time></trkpt><trkpt lat="45.7092209" lon="10.6147793"><ele>526.0</ele><time>2026-04-26T09:12:47.093Z</time></trkpt><trkpt lat="45.7090952" lon="10.6147407"><ele>528.5</ele><time>2026-04-26T09:12:48.093Z</time></trkpt><trkpt lat="45.7089842" lon="10.6146851"><ele>531.0</ele><time>2026-04-26T09:12:49.093Z</time></trkpt><trkpt lat="45.708896" lon="10.6146051"><ele>531.0</ele><time>2026-04-26T09:12:50.093Z</time></trkpt><trkpt lat="45.708839" lon="10.6144916"><ele>531.0</ele><time>2026-04-26T09:12:51.093Z</time></trkpt><trkpt lat="45.7088141" lon="10.6143672"><ele>531.0</ele><time>2026-04-26T09:12:52.093Z</time></trkpt><trkpt lat="45.7087605" lon="10.6142704"><ele>531.0</ele><time>2026-04-26T09:12:53.092Z</time></trkpt><trkpt lat="45.708676" lon="10.6142136"><ele>531.0</ele><time>2026-04-26T09:12:54.093Z</time></trkpt><trkpt lat="45.7085624" lon="10.6141672"><ele>526.5</ele><time>2026-04-26T09:12:55.093Z</time></trkpt><trkpt lat="45.7084374" lon="10.6141234"><ele>522.0</ele><time>2026-04-26T09:12:56.093Z</time></trkpt><trkpt lat="45.7082971" lon="10.6141077"><ele>517.5</ele><time>2026-04-26T09:12:57.093Z</time></trkpt><trkpt lat="45.708155" lon="10.614141"><ele>513.0</ele><time>2026-04-26T09:12:58.093Z</time></trkpt><trkpt lat="45.7080254" lon="10.6141712"><ele>513.0</ele><time>2026-04-26T09:12:59.092Z</time></trkpt><trkpt lat="45.7078771" lon="10.6141713"><ele>513.0</ele><time>2026-04-26T09:13:00.093Z</time></trkpt><trkpt lat="45.7077229" lon="10.6141354"><ele>513.0</ele><time>2026-04-26T09:13:01.093Z</time></trkpt><trkpt lat="45.7075561" lon="10.614039"><ele>512.3333333333334</ele><time>2026-04-26T09:13:02.092Z</time></trkpt><trkpt lat="45.7073811" lon="10.6139683"><ele>511.6666666666667</ele><time>2026-04-26T09:13:03.093Z</time></trkpt><trkpt lat="45.7071986" lon="10.6139166"><ele>511.0</ele><time>2026-04-26T09:13:04.093Z</time></trkpt><trkpt lat="45.7070294" lon="10.6138691"><ele>508.0</ele><time>2026-04-26T09:13:05.093Z</time></trkpt><trkpt lat="45.7068899" lon="10.6138258"><ele>505.0</ele><time>2026-04-26T09:13:06.093Z</time></trkpt><trkpt lat="45.7067632" lon="10.613801"><ele>502.0</ele><time>2026-04-26T09:13:07.093Z</time></trkpt><trkpt lat="45.7066508" lon="10.6137987"><ele>499.0</ele><time>2026-04-26T09:13:08.093Z</time></trkpt><trkpt lat="45.7065536" lon="10.6138366"><ele>499.0</ele><time>2026-04-26T09:13:09.093Z</time></trkpt><trkpt lat="45.706487" lon="10.6139266"><ele>499.0</ele><time>2026-04-26T09:13:10.093Z</time></trkpt><trkpt lat="45.7064376" lon="10.6140679"><ele>499.0</ele><time>2026-04-26T09:13:11.093Z</time></trkpt><trkpt lat="45.7064087" lon="10.6142331"><ele>499.0</ele><time>2026-04-26T09:13:12.093Z</time></trkpt><trkpt lat="45.7064191" lon="10.6144454"><ele>501.0</ele><time>2026-04-26T09:13:13.092Z</time></trkpt><trkpt lat="45.7064359" lon="10.6146768"><ele>503.0</ele><time>2026-04-26T09:13:14.092Z</time></trkpt><trkpt lat="45.7064372" lon="10.6149142"><ele>505.0</ele><time>2026-04-26T09:13:15.092Z</time></trkpt><trkpt lat="45.706423" lon="10.6151246"><ele>505.0</ele><time>2026-04-26T09:13:16.093Z</time></trkpt><trkpt lat="45.706415" lon="10.6153042"><ele>505.0</ele><time>2026-04-26T09:13:17.093Z</time></trkpt><trkpt lat="45.7063852" lon="10.6154758"><ele>505.0</ele><time>2026-04-26T09:13:18.093Z</time></trkpt><trkpt lat="45.7063168" lon="10.6156235"><ele>505.0</ele><time>2026-04-26T09:13:19.093Z</time></trkpt><trkpt lat="45.7062431" lon="10.6157266"><ele>505.85714285714283</ele><time>2026-04-26T09:13:20.093Z</time></trkpt><trkpt lat="45.7061826" lon="10.6157769"><ele>506.71428571428567</ele><time>2026-04-26T09:13:21.093Z</time></trkpt><trkpt lat="45.7061107" lon="10.6158343"><ele>507.57142857142856</ele><time>2026-04-26T09:13:23.093Z</time></trkpt><trkpt lat="45.7060494" lon="10.6159098"><ele>508.42857142857144</ele><time>2026-04-26T09:13:26.092Z</time></trkpt><trkpt lat="45.7059878" lon="10.6159598"><ele>509.2857142857143</ele><time>2026-04-26T09:16:30.093Z</time></trkpt><trkpt lat="45.7059333" lon="10.616031"><ele>510.1428571428571</ele><time>2026-04-26T09:16:31.092Z</time></trkpt><trkpt lat="45.7058846" lon="10.6160919"><ele>511.0</ele><time>2026-04-26T09:16:32.093Z</time></trkpt><trkpt lat="45.7058151" lon="10.6161738"><ele>507.6</ele><time>2026-04-26T09:16:33.093Z</time></trkpt><trkpt lat="45.7057462" lon="10.6162479"><ele>504.20000000000005</ele><time>2026-04-26T09:16:34.093Z</time></trkpt><trkpt lat="45.7056731" lon="10.6163294"><ele>500.79999999999995</ele><time>2026-04-26T09:16:35.093Z</time></trkpt><trkpt lat="45.7056003" lon="10.6164279"><ele>497.4</ele><time>2026-04-26T09:16:36.093Z</time></trkpt><trkpt lat="45.7055389" lon="10.6165469"><ele>494.0</ele><time>2026-04-26T09:16:37.093Z</time></trkpt><trkpt lat="45.7054891" lon="10.6166693"><ele>493.99999999999994</ele><time>2026-04-26T09:16:38.093Z</time></trkpt><trkpt lat="45.705444" lon="10.6167834"><ele>494.0</ele><time>2026-04-26T09:16:39.093Z</time></trkpt><trkpt lat="45.705382" lon="10.6168614"><ele>494.0</ele><time>2026-04-26T09:16:40.093Z</time></trkpt><trkpt lat="45.7053107" lon="10.6169012"><ele>494.0</ele><time>2026-04-26T09:16:41.093Z</time></trkpt><trkpt lat="45.7052348" lon="10.6168795"><ele>493.99999999999994</ele><time>2026-04-26T09:16:42.093Z</time></trkpt><trkpt lat="45.705161" lon="10.616871"><ele>494.0</ele><time>2026-04-26T09:16:43.093Z</time></trkpt><trkpt lat="45.7050854" lon="10.6168601"><ele>490.66666666666663</ele><time>2026-04-26T09:16:44.093Z</time></trkpt><trkpt lat="45.7050038" lon="10.6168451"><ele>487.3333333333333</ele><time>2026-04-26T09:16:45.093Z</time></trkpt><trkpt lat="45.7049142" lon="10.6168324"><ele>484.0</ele><time>2026-04-26T09:16:46.093Z</time></trkpt><trkpt lat="45.7048331" lon="10.6168106"><ele>480.66666666666663</ele><time>2026-04-26T09:16:47.093Z</time></trkpt><trkpt lat="45.7047635" lon="10.6167741"><ele>477.3333333333333</ele><time>2026-04-26T09:16:48.093Z</time></trkpt><trkpt lat="45.7047057" lon="10.6167083"><ele>474.0</ele><time>2026-04-26T09:16:49.093Z</time></trkpt><trkpt lat="45.7046422" lon="10.6166148"><ele>474.0</ele><time>2026-04-26T09:16:50.093Z</time></trkpt><trkpt lat="45.7045941" lon="10.616515"><ele>474.0</ele><time>2026-04-26T09:16:51.093Z</time></trkpt><trkpt lat="45.7045587" lon="10.6164027"><ele>474.0</ele><time>2026-04-26T09:16:52.092Z</time></trkpt><trkpt lat="45.704543" lon="10.6162907"><ele>474.0</ele><time>2026-04-26T09:16:53.093Z</time></trkpt><trkpt lat="45.7045601" lon="10.6161911"><ele>474.0</ele><time>2026-04-26T09:16:54.093Z</time></trkpt><trkpt lat="45.7046008" lon="10.6161018"><ele>474.0</ele><time>2026-04-26T09:16:55.093Z</time></trkpt><trkpt lat="45.7046557" lon="10.6159989"><ele>473.0</ele><time>2026-04-26T09:16:56.093Z</time></trkpt><trkpt lat="45.7047175" lon="10.6159005"><ele>472.0</ele><time>2026-04-26T09:16:57.093Z</time></trkpt><trkpt lat="45.7047857" lon="10.615795"><ele>471.0</ele><time>2026-04-26T09:16:58.093Z</time></trkpt><trkpt lat="45.7048599" lon="10.6156996"><ele>470.0</ele><time>2026-04-26T09:16:59.093Z</time></trkpt><trkpt lat="45.7049459" lon="10.615595"><ele>469.0</ele><time>2026-04-26T09:17:00.093Z</time></trkpt><trkpt lat="45.7049865" lon="10.6154603"><ele>469.0</ele><time>2026-04-26T09:17:01.093Z</time></trkpt><trkpt lat="45.7050288" lon="10.6153391"><ele>469.0</ele><time>2026-04-26T09:17:02.093Z</time></trkpt><trkpt lat="45.7050463" lon="10.6152153"><ele>469.0</ele><time>2026-04-26T09:17:03.093Z</time></trkpt><trkpt lat="45.7050441" lon="10.61509"><ele>469.0</ele><time>2026-04-26T09:17:04.092Z</time></trkpt><trkpt lat="45.7050078" lon="10.6149653"><ele>469.0</ele><time>2026-04-26T09:17:05.093Z</time></trkpt><trkpt lat="45.7049676" lon="10.6148547"><ele>471.33333333333337</ele><time>2026-04-26T09:17:06.093Z</time></trkpt><trkpt lat="45.7049458" lon="10.6147457"><ele>473.6666666666667</ele><time>2026-04-26T09:17:07.092Z</time></trkpt><trkpt lat="45.7049537" lon="10.6146322"><ele>476.0</ele><time>2026-04-26T09:17:08.093Z</time></trkpt><trkpt lat="45.704978" lon="10.6145283"><ele>478.33333333333337</ele><time>2026-04-26T09:17:09.092Z</time></trkpt><trkpt lat="45.7050298" lon="10.6144102"><ele>480.6666666666667</ele><time>2026-04-26T09:17:10.093Z</time></trkpt><trkpt lat="45.7050549" lon="10.6142738"><ele>483.0</ele><time>2026-04-26T09:17:11.093Z</time></trkpt><trkpt lat="45.7050756" lon="10.614129"><ele>483.0</ele><time>2026-04-26T09:17:12.093Z</time></trkpt><trkpt lat="45.7050955" lon="10.6139863"><ele>483.0</ele><time>2026-04-26T09:17:13.093Z</time></trkpt><trkpt lat="45.7051246" lon="10.6138761"><ele>483.0</ele><time>2026-04-26T09:17:14.093Z</time></trkpt><trkpt lat="45.7051293" lon="10.6137647"><ele>483.0</ele><time>2026-04-26T09:17:15.093Z</time></trkpt><trkpt lat="45.7051029" lon="10.6136498"><ele>483.0</ele><time>2026-04-26T09:17:16.093Z</time></trkpt><trkpt lat="45.705061" lon="10.6135498"><ele>483.0</ele><time>2026-04-26T09:17:17.093Z</time></trkpt><trkpt lat="45.704998" lon="10.6134788"><ele>478.6666666666667</ele><time>2026-04-26T09:17:18.093Z</time></trkpt><trkpt lat="45.7049262" lon="10.6134434"><ele>474.33333333333337</ele><time>2026-04-26T09:17:19.093Z</time></trkpt><trkpt lat="45.7048535" lon="10.613408"><ele>470.0</ele><time>2026-04-26T09:17:20.093Z</time></trkpt><trkpt lat="45.704791" lon="10.6133461"><ele>465.6666666666667</ele><time>2026-04-26T09:17:21.092Z</time></trkpt><trkpt lat="45.7047648" lon="10.61324"><ele>461.33333333333337</ele><time>2026-04-26T09:17:22.092Z</time></trkpt><trkpt lat="45.7047445" lon="10.6131295"><ele>457.0</ele><time>2026-04-26T09:17:23.093Z</time></trkpt><trkpt lat="45.7046926" lon="10.6130137"><ele>457.0</ele><time>2026-04-26T09:17:24.093Z</time></trkpt><trkpt lat="45.7046405" lon="10.6129004"><ele>457.00000000000006</ele><time>2026-04-26T09:17:25.093Z</time></trkpt><trkpt lat="45.7045705" lon="10.6128045"><ele>457.00000000000006</ele><time>2026-04-26T09:17:26.093Z</time></trkpt><trkpt lat="45.7045013" lon="10.6127224"><ele>457.0</ele><time>2026-04-26T09:17:27.093Z</time></trkpt><trkpt lat="45.7043827" lon="10.6127538"><ele>457.0</ele><time>2026-04-26T09:17:28.093Z</time></trkpt><trkpt lat="45.7042906" lon="10.6127663"><ele>456.8</ele><time>2026-04-26T09:17:29.093Z</time></trkpt><trkpt lat="45.7042104" lon="10.6127406"><ele>456.6</ele><time>2026-04-26T09:17:30.093Z</time></trkpt><trkpt lat="45.7041288" lon="10.6126649"><ele>456.40000000000003</ele><time>2026-04-26T09:17:31.093Z</time></trkpt><trkpt lat="45.7040492" lon="10.6125534"><ele>456.20000000000005</ele><time>2026-04-26T09:17:32.092Z</time></trkpt><trkpt lat="45.7039774" lon="10.6124539"><ele>456.0</ele><time>2026-04-26T09:17:33.093Z</time></trkpt><trkpt lat="45.7039047" lon="10.6124088"><ele>456.0</ele><time>2026-04-26T09:17:34.093Z</time></trkpt><trkpt lat="45.7038143" lon="10.6124261"><ele>456.0</ele><time>2026-04-26T09:17:35.093Z</time></trkpt><trkpt lat="45.7037238" lon="10.6124286"><ele>456.0</ele><time>2026-04-26T09:17:36.092Z</time></trkpt><trkpt lat="45.7036524" lon="10.6123838"><ele>456.0</ele><time>2026-04-26T09:17:37.093Z</time></trkpt><trkpt lat="45.7035919" lon="10.6123059"><ele>456.0</ele><time>2026-04-26T09:17:38.093Z</time></trkpt><trkpt lat="45.7035616" lon="10.6121939"><ele>456.0</ele><time>2026-04-26T09:17:39.092Z</time></trkpt><trkpt lat="45.7035261" lon="10.6120766"><ele>453.75</ele><time>2026-04-26T09:17:40.092Z</time></trkpt><trkpt lat="45.7034749" lon="10.6119469"><ele>451.5</ele><time>2026-04-26T09:17:41.092Z</time></trkpt><trkpt lat="45.7033573" lon="10.6118496"><ele>449.25</ele><time>2026-04-26T09:17:42.092Z</time></trkpt><trkpt lat="45.7032506" lon="10.6117738"><ele>447.0</ele><time>2026-04-26T09:17:43.093Z</time></trkpt><trkpt lat="45.7031062" lon="10.6117461"><ele>447.0</ele><time>2026-04-26T09:17:44.093Z</time></trkpt><trkpt lat="45.7029467" lon="10.6117289"><ele>447.0</ele><time>2026-04-26T09:17:45.092Z</time></trkpt><trkpt lat="45.7027856" lon="10.611681"><ele>447.0</ele><time>2026-04-26T09:17:46.093Z</time></trkpt><trkpt lat="45.7026251" lon="10.6116028"><ele>453.0</ele><time>2026-04-26T09:17:47.093Z</time></trkpt><trkpt lat="45.7024845" lon="10.6115104"><ele>459.0</ele><time>2026-04-26T09:17:48.093Z</time></trkpt><trkpt lat="45.7023723" lon="10.6114308"><ele>465.0</ele><time>2026-04-26T09:17:49.092Z</time></trkpt><trkpt lat="45.7022459" lon="10.6113854"><ele>471.0</ele><time>2026-04-26T09:17:50.093Z</time></trkpt><trkpt lat="45.7021189" lon="10.6113475"><ele>471.0</ele><time>2026-04-26T09:17:51.093Z</time></trkpt><trkpt lat="45.7019848" lon="10.6113403"><ele>471.0</ele><time>2026-04-26T09:17:52.093Z</time></trkpt><trkpt lat="45.7017921" lon="10.61132"><ele>471.0</ele><time>2026-04-26T09:17:53.093Z</time></trkpt><trkpt lat="45.7015095" lon="10.6113375"><ele>473.66666666666663</ele><time>2026-04-26T09:17:54.093Z</time></trkpt><trkpt lat="45.7012936" lon="10.6113344"><ele>476.3333333333333</ele><time>2026-04-26T09:17:55.092Z</time></trkpt><trkpt lat="45.7011326" lon="10.6113358"><ele>479.0</ele><time>2026-04-26T09:17:56.093Z</time></trkpt><trkpt lat="45.7010041" lon="10.61131"><ele>479.0</ele><time>2026-04-26T09:17:57.093Z</time></trkpt><trkpt lat="45.7008879" lon="10.6112551"><ele>479.0</ele><time>2026-04-26T09:17:58.092Z</time></trkpt><trkpt lat="45.7007802" lon="10.6112482"><ele>479.0</ele><time>2026-04-26T09:17:59.093Z</time></trkpt><trkpt lat="45.7006791" lon="10.611294"><ele>479.0</ele><time>2026-04-26T09:18:00.092Z</time></trkpt><trkpt lat="45.7006003" lon="10.6113898"><ele>479.0</ele><time>2026-04-26T09:18:01.093Z</time></trkpt><trkpt lat="45.7005145" lon="10.611483"><ele>479.0</ele><time>2026-04-26T09:18:02.093Z</time></trkpt><trkpt lat="45.7004132" lon="10.6115591"><ele>479.0</ele><time>2026-04-26T09:18:03.093Z</time></trkpt><trkpt lat="45.7003023" lon="10.6115582"><ele>479.0</ele><time>2026-04-26T09:18:04.093Z</time></trkpt><trkpt lat="45.7002005" lon="10.6115476"><ele>479.0</ele><time>2026-04-26T09:18:05.093Z</time></trkpt><trkpt lat="45.7001126" lon="10.6115648"><ele>479.0</ele><time>2026-04-26T09:18:06.093Z</time></trkpt><trkpt lat="45.7000417" lon="10.6115829"><ele>478.16666666666663</ele><time>2026-04-26T09:18:07.093Z</time></trkpt><trkpt lat="45.6999701" lon="10.6116152"><ele>477.3333333333333</ele><time>2026-04-26T09:18:09.092Z</time></trkpt><trkpt lat="45.6999084" lon="10.6116396"><ele>476.5</ele><time>2026-04-26T09:18:39.093Z</time></trkpt><trkpt lat="45.6998407" lon="10.6116542"><ele>475.66666666666663</ele><time>2026-04-26T09:18:40.093Z</time></trkpt><trkpt lat="45.6997628" lon="10.6116485"><ele>474.8333333333333</ele><time>2026-04-26T09:18:41.093Z</time></trkpt><trkpt lat="45.6996775" lon="10.6116485"><ele>474.0</ele><time>2026-04-26T09:18:42.093Z</time></trkpt><trkpt lat="45.6995951" lon="10.6116744"><ele>474.0</ele><time>2026-04-26T09:18:43.093Z</time></trkpt><trkpt lat="45.6995239" lon="10.6117423"><ele>474.0</ele><time>2026-04-26T09:18:44.093Z</time></trkpt><trkpt lat="45.6994624" lon="10.611807"><ele>474.0</ele><time>2026-04-26T09:18:45.092Z</time></trkpt><trkpt lat="45.6993467" lon="10.6118424"><ele>474.0</ele><time>2026-04-26T09:18:47.092Z</time></trkpt><trkpt lat="45.6992693" lon="10.611805"><ele>474.0</ele><time>2026-04-26T09:18:48.093Z</time></trkpt><trkpt lat="45.6991909" lon="10.6117583"><ele>474.0</ele><time>2026-04-26T09:18:49.093Z</time></trkpt><trkpt lat="45.6990929" lon="10.6116721"><ele>472.75</ele><time>2026-04-26T09:18:50.092Z</time></trkpt><trkpt lat="45.6989819" lon="10.6115539"><ele>471.5</ele><time>2026-04-26T09:18:51.093Z</time></trkpt><trkpt lat="45.6988835" lon="10.6114402"><ele>470.25</ele><time>2026-04-26T09:18:52.093Z</time></trkpt><trkpt lat="45.6987946" lon="10.611362"><ele>469.0</ele><time>2026-04-26T09:18:53.093Z</time></trkpt><trkpt lat="45.6987067" lon="10.6113159"><ele>469.0</ele><time>2026-04-26T09:18:54.093Z</time></trkpt><trkpt lat="45.6986093" lon="10.6113389"><ele>469.0</ele><time>2026-04-26T09:18:55.093Z</time></trkpt><trkpt lat="45.6985147" lon="10.6114086"><ele>469.0</ele><time>2026-04-26T09:18:56.093Z</time></trkpt><trkpt lat="45.6984097" lon="10.6114672"><ele>469.0</ele><time>2026-04-26T09:18:57.092Z</time></trkpt><trkpt lat="45.6982969" lon="10.6114754"><ele>469.0</ele><time>2026-04-26T09:18:58.093Z</time></trkpt><trkpt lat="45.6981861" lon="10.6114864"><ele>470.75</ele><time>2026-04-26T09:18:59.093Z</time></trkpt><trkpt lat="45.6980814" lon="10.6115675"><ele>472.5</ele><time>2026-04-26T09:19:00.093Z</time></trkpt><trkpt lat="45.6979697" lon="10.6116931"><ele>474.25</ele><time>2026-04-26T09:19:01.093Z</time></trkpt><trkpt lat="45.6978375" lon="10.6118072"><ele>476.0</ele><time>2026-04-26T09:19:02.093Z</time></trkpt><trkpt lat="45.6977169" lon="10.6118865"><ele>478.25</ele><time>2026-04-26T09:19:03.093Z</time></trkpt><trkpt lat="45.6976206" lon="10.6119712"><ele>480.5</ele><time>2026-04-26T09:19:04.093Z</time></trkpt><trkpt lat="45.6975413" lon="10.6120998"><ele>482.75</ele><time>2026-04-26T09:19:05.093Z</time></trkpt><trkpt lat="45.6974617" lon="10.6122521"><ele>485.0</ele><time>2026-04-26T09:19:06.093Z</time></trkpt><trkpt lat="45.6973281" lon="10.6123829"><ele>485.0</ele><time>2026-04-26T09:19:07.092Z</time></trkpt><trkpt lat="45.6972071" lon="10.6125312"><ele>485.0</ele><time>2026-04-26T09:19:08.093Z</time></trkpt><trkpt lat="45.6970696" lon="10.6126757"><ele>485.0</ele><time>2026-04-26T09:19:09.093Z</time></trkpt><trkpt lat="45.6969823" lon="10.612774"><ele>485.0</ele><time>2026-04-26T09:19:10.093Z</time></trkpt><trkpt lat="45.6968945" lon="10.6128661"><ele>482.6</ele><time>2026-04-26T09:19:11.092Z</time></trkpt><trkpt lat="45.6968149" lon="10.6128457"><ele>480.2</ele><time>2026-04-26T09:19:12.093Z</time></trkpt><trkpt lat="45.6967441" lon="10.6127852"><ele>477.79999999999995</ele><time>2026-04-26T09:19:13.092Z</time></trkpt><trkpt lat="45.6966902" lon="10.6126615"><ele>475.4</ele><time>2026-04-26T09:19:14.092Z</time></trkpt><trkpt lat="45.6966263" lon="10.612517"><ele>473.0</ele><time>2026-04-26T09:19:15.093Z</time></trkpt><trkpt lat="45.696538" lon="10.6123968"><ele>473.0</ele><time>2026-04-26T09:19:16.093Z</time></trkpt><trkpt lat="45.6964015" lon="10.6123158"><ele>473.0</ele><time>2026-04-26T09:19:17.092Z</time></trkpt><trkpt lat="45.6962631" lon="10.6122251"><ele>473.0</ele><time>2026-04-26T09:19:18.093Z</time></trkpt><trkpt lat="45.6961161" lon="10.6121186"><ele>468.0</ele><time>2026-04-26T09:19:19.093Z</time></trkpt><trkpt lat="45.695993" lon="10.611953"><ele>463.0</ele><time>2026-04-26T09:19:20.093Z</time></trkpt><trkpt lat="45.6958718" lon="10.6117921"><ele>458.0</ele><time>2026-04-26T09:19:21.093Z</time></trkpt><trkpt lat="45.6957617" lon="10.6116913"><ele>458.0</ele><time>2026-04-26T09:19:22.092Z</time></trkpt><trkpt lat="45.6956622" lon="10.61165"><ele>458.0</ele><time>2026-04-26T09:19:23.093Z</time></trkpt><trkpt lat="45.6955476" lon="10.6116652"><ele>458.0</ele><time>2026-04-26T09:19:24.093Z</time></trkpt><trkpt lat="45.6954381" lon="10.6117573"><ele>458.0</ele><time>2026-04-26T09:19:25.093Z</time></trkpt><trkpt lat="45.6953151" lon="10.6118625"><ele>468.0</ele><time>2026-04-26T09:19:26.092Z</time></trkpt><trkpt lat="45.6951919" lon="10.6120023"><ele>478.0</ele><time>2026-04-26T09:19:27.093Z</time></trkpt><trkpt lat="45.6950772" lon="10.6121322"><ele>488.0</ele><time>2026-04-26T09:19:28.093Z</time></trkpt><trkpt lat="45.6950162" lon="10.6122115"><ele>498.0</ele><time>2026-04-26T09:19:29.093Z</time></trkpt><trkpt lat="45.6949269" lon="10.6122406"><ele>498.0</ele><time>2026-04-26T09:19:30.092Z</time></trkpt><trkpt lat="45.6948614" lon="10.6122063"><ele>497.99999999999994</ele><time>2026-04-26T09:19:31.093Z</time></trkpt><trkpt lat="45.6948253" lon="10.612122"><ele>497.99999999999994</ele><time>2026-04-26T09:19:32.093Z</time></trkpt><trkpt lat="45.6948154" lon="10.6119771"><ele>498.0</ele><time>2026-04-26T09:19:33.093Z</time></trkpt><trkpt lat="45.6948129" lon="10.6117804"><ele>498.0</ele><time>2026-04-26T09:19:34.093Z</time></trkpt><trkpt lat="45.6948449" lon="10.6115871"><ele>492.59999999999997</ele><time>2026-04-26T09:19:35.093Z</time></trkpt><trkpt lat="45.6948527" lon="10.6114531"><ele>487.19999999999993</ele><time>2026-04-26T09:19:36.093Z</time></trkpt><trkpt lat="45.6948201" lon="10.6113227"><ele>481.8</ele><time>2026-04-26T09:19:37.093Z</time></trkpt><trkpt lat="45.6947289" lon="10.6112192"><ele>476.4</ele><time>2026-04-26T09:19:38.093Z</time></trkpt><trkpt lat="45.6946444" lon="10.6110878"><ele>471.0</ele><time>2026-04-26T09:19:39.093Z</time></trkpt><trkpt lat="45.6945349" lon="10.6109641"><ele>469.75</ele><time>2026-04-26T09:19:40.093Z</time></trkpt><trkpt lat="45.6944416" lon="10.6108841"><ele>468.5</ele><time>2026-04-26T09:19:41.093Z</time></trkpt><trkpt lat="45.6943147" lon="10.6108618"><ele>467.25</ele><time>2026-04-26T09:19:42.093Z</time></trkpt><trkpt lat="45.6941615" lon="10.6109018"><ele>466.0</ele><time>2026-04-26T09:19:43.092Z</time></trkpt><trkpt lat="45.6939904" lon="10.6109139"><ele>466.0</ele><time>2026-04-26T09:19:44.093Z</time></trkpt><trkpt lat="45.693833" lon="10.6109056"><ele>466.0</ele><time>2026-04-26T09:19:45.092Z</time></trkpt><trkpt lat="45.6937025" lon="10.6109243"><ele>466.0</ele><time>2026-04-26T09:19:46.093Z</time></trkpt><trkpt lat="45.693589" lon="10.6109395"><ele>466.0</ele><time>2026-04-26T09:19:47.093Z</time></trkpt><trkpt lat="45.693484" lon="10.6109028"><ele>468.5</ele><time>2026-04-26T09:19:48.093Z</time></trkpt><trkpt lat="45.6934156" lon="10.6108019"><ele>471.0</ele><time>2026-04-26T09:19:49.093Z</time></trkpt><trkpt lat="45.6933404" lon="10.610704"><ele>473.5</ele><time>2026-04-26T09:19:50.093Z</time></trkpt><trkpt lat="45.6932292" lon="10.6106476"><ele>476.0</ele><time>2026-04-26T09:19:51.093Z</time></trkpt><trkpt lat="45.6930819" lon="10.6106185"><ele>476.0</ele><time>2026-04-26T09:19:52.093Z</time></trkpt><trkpt lat="45.6929327" lon="10.6106124"><ele>476.0</ele><time>2026-04-26T09:19:53.092Z</time></trkpt><trkpt lat="45.6928071" lon="10.6106492"><ele>476.0</ele><time>2026-04-26T09:19:54.093Z</time></trkpt><trkpt lat="45.6926783" lon="10.6107621"><ele>476.0</ele><time>2026-04-26T09:19:55.093Z</time></trkpt><trkpt lat="45.6925713" lon="10.6109007"><ele>475.20000000000005</ele><time>2026-04-26T09:19:56.092Z</time></trkpt><trkpt lat="45.692491" lon="10.6110032"><ele>474.40000000000003</ele><time>2026-04-26T09:19:57.093Z</time></trkpt><trkpt lat="45.6924143" lon="10.6110853"><ele>473.6</ele><time>2026-04-26T09:19:58.093Z</time></trkpt><trkpt lat="45.6923217" lon="10.6110864"><ele>472.8</ele><time>2026-04-26T09:19:59.093Z</time></trkpt><trkpt lat="45.6922501" lon="10.6110053"><ele>472.0</ele><time>2026-04-26T09:20:00.093Z</time></trkpt><trkpt lat="45.6921594" lon="10.6109355"><ele>472.0</ele><time>2026-04-26T09:20:01.093Z</time></trkpt><trkpt lat="45.6920186" lon="10.6108856"><ele>472.0</ele><time>2026-04-26T09:20:02.093Z</time></trkpt><trkpt lat="45.6918398" lon="10.6108622"><ele>472.0</ele><time>2026-04-26T09:20:03.093Z</time></trkpt><trkpt lat="45.691638" lon="10.6108827"><ele>473.0</ele><time>2026-04-26T09:20:04.093Z</time></trkpt><trkpt lat="45.6914458" lon="10.6109119"><ele>474.0</ele><time>2026-04-26T09:20:05.093Z</time></trkpt><trkpt lat="45.6912874" lon="10.6109372"><ele>475.0</ele><time>2026-04-26T09:20:06.093Z</time></trkpt><trkpt lat="45.6911541" lon="10.6109463"><ele>478.0</ele><time>2026-04-26T09:20:07.093Z</time></trkpt><trkpt lat="45.6910377" lon="10.6109274"><ele>481.0</ele><time>2026-04-26T09:20:08.092Z</time></trkpt><trkpt lat="45.6909548" lon="10.6108475"><ele>484.0</ele><time>2026-04-26T09:20:09.093Z</time></trkpt><trkpt lat="45.6909052" lon="10.6107283"><ele>487.0</ele><time>2026-04-26T09:20:10.092Z</time></trkpt><trkpt lat="45.690854" lon="10.6106298"><ele>490.0</ele><time>2026-04-26T09:20:11.092Z</time></trkpt><trkpt lat="45.690747" lon="10.6105467"><ele>490.0</ele><time>2026-04-26T09:20:12.093Z</time></trkpt><trkpt lat="45.6906193" lon="10.6104957"><ele>490.0</ele><time>2026-04-26T09:20:13.093Z</time></trkpt><trkpt lat="45.6904656" lon="10.6104553"><ele>490.0</ele><time>2026-04-26T09:20:14.092Z</time></trkpt><trkpt lat="45.6903085" lon="10.6104111"><ele>490.0</ele><time>2026-04-26T09:20:15.093Z</time></trkpt><trkpt lat="45.6901618" lon="10.6103568"><ele>493.5</ele><time>2026-04-26T09:20:16.093Z</time></trkpt><trkpt lat="45.6900568" lon="10.6104006"><ele>497.0</ele><time>2026-04-26T09:20:17.093Z</time></trkpt><trkpt lat="45.6899404" lon="10.6104415"><ele>500.5</ele><time>2026-04-26T09:20:18.093Z</time></trkpt><trkpt lat="45.6898276" lon="10.6104415"><ele>504.0</ele><time>2026-04-26T09:20:19.092Z</time></trkpt><trkpt lat="45.6896911" lon="10.6104013"><ele>504.0</ele><time>2026-04-26T09:20:20.093Z</time></trkpt><trkpt lat="45.6895584" lon="10.6103468"><ele>504.0</ele><time>2026-04-26T09:20:21.093Z</time></trkpt><trkpt lat="45.689407" lon="10.610352"><ele>504.0</ele><time>2026-04-26T09:20:22.092Z</time></trkpt><trkpt lat="45.6892482" lon="10.6103709"><ele>504.0</ele><time>2026-04-26T09:20:23.092Z</time></trkpt><trkpt lat="45.689108" lon="10.6103631"><ele>503.0</ele><time>2026-04-26T09:20:24.093Z</time></trkpt><trkpt lat="45.688974" lon="10.6104145"><ele>502.0</ele><time>2026-04-26T09:20:25.093Z</time></trkpt><trkpt lat="45.6888395" lon="10.6105173"><ele>501.0</ele><time>2026-04-26T09:20:26.093Z</time></trkpt><trkpt lat="45.6886852" lon="10.6105821"><ele>491.66666666666663</ele><time>2026-04-26T09:20:27.092Z</time></trkpt><trkpt lat="45.6885338" lon="10.6106409"><ele>482.3333333333333</ele><time>2026-04-26T09:20:28.093Z</time></trkpt><trkpt lat="45.6883713" lon="10.6107673"><ele>473.0</ele><time>2026-04-26T09:20:29.093Z</time></trkpt><trkpt lat="45.6882162" lon="10.6109516"><ele>483.66666666666663</ele><time>2026-04-26T09:20:30.093Z</time></trkpt><trkpt lat="45.6880541" lon="10.6111631"><ele>494.33333333333337</ele><time>2026-04-26T09:20:31.093Z</time></trkpt><trkpt lat="45.687909" lon="10.611361"><ele>505.0</ele><time>2026-04-26T09:20:32.093Z</time></trkpt><trkpt lat="45.6877696" lon="10.611557"><ele>503.6666666666667</ele><time>2026-04-26T09:20:33.093Z</time></trkpt><trkpt lat="45.6876146" lon="10.6117283"><ele>502.33333333333337</ele><time>2026-04-26T09:20:34.093Z</time></trkpt><trkpt lat="45.687434" lon="10.6118851"><ele>501.0</ele><time>2026-04-26T09:20:35.093Z</time></trkpt><trkpt lat="45.6872545" lon="10.6120302"><ele>501.0</ele><time>2026-04-26T09:20:36.093Z</time></trkpt><trkpt lat="45.6870863" lon="10.6122503"><ele>501.0</ele><time>2026-04-26T09:20:37.093Z</time></trkpt><trkpt lat="45.6869134" lon="10.612479"><ele>496.66666666666663</ele><time>2026-04-26T09:20:38.092Z</time></trkpt><trkpt lat="45.6867632" lon="10.6126836"><ele>492.3333333333333</ele><time>2026-04-26T09:20:39.093Z</time></trkpt><trkpt lat="45.6866342" lon="10.6128692"><ele>488.0</ele><time>2026-04-26T09:20:40.093Z</time></trkpt><trkpt lat="45.686516" lon="10.61303"><ele>488.0</ele><time>2026-04-26T09:20:41.093Z</time></trkpt><trkpt lat="45.6864165" lon="10.6131739"><ele>488.0</ele><time>2026-04-26T09:20:42.093Z</time></trkpt><trkpt lat="45.6863374" lon="10.6133163"><ele>488.0</ele><time>2026-04-26T09:20:43.093Z</time></trkpt><trkpt lat="45.686303" lon="10.613477"><ele>488.0</ele><time>2026-04-26T09:20:44.093Z</time></trkpt><trkpt lat="45.6863167" lon="10.613655"><ele>487.66666666666663</ele><time>2026-04-26T09:20:45.093Z</time></trkpt><trkpt lat="45.6863684" lon="10.6138676"><ele>487.33333333333337</ele><time>2026-04-26T09:20:46.093Z</time></trkpt><trkpt lat="45.686442" lon="10.614104"><ele>487.0</ele><time>2026-04-26T09:20:47.092Z</time></trkpt><trkpt lat="45.6865628" lon="10.6143501"><ele>488.25</ele><time>2026-04-26T09:20:48.093Z</time></trkpt><trkpt lat="45.6866766" lon="10.6145375"><ele>489.5</ele><time>2026-04-26T09:20:49.093Z</time></trkpt><trkpt lat="45.6867623" lon="10.6146836"><ele>490.75</ele><time>2026-04-26T09:20:50.092Z</time></trkpt><trkpt lat="45.6868351" lon="10.6148318"><ele>492.0</ele><time>2026-04-26T09:20:51.093Z</time></trkpt><trkpt lat="45.6868695" lon="10.6149729"><ele>492.0</ele><time>2026-04-26T09:20:52.093Z</time></trkpt><trkpt lat="45.6868705" lon="10.6150815"><ele>492.00000000000006</ele><time>2026-04-26T09:20:53.093Z</time></trkpt><trkpt lat="45.6867724" lon="10.6151457"><ele>492.00000000000006</ele><time>2026-04-26T09:20:55.093Z</time></trkpt><trkpt lat="45.6867196" lon="10.6150751"><ele>492.0</ele><time>2026-04-26T09:20:56.093Z</time></trkpt><trkpt lat="45.6866442" lon="10.6149619"><ele>492.0</ele><time>2026-04-26T09:20:57.093Z</time></trkpt><trkpt lat="45.686527" lon="10.6148457"><ele>492.0</ele><time>2026-04-26T09:20:58.092Z</time></trkpt><trkpt lat="45.6863785" lon="10.6147008"><ele>492.0</ele><time>2026-04-26T09:20:59.093Z</time></trkpt><trkpt lat="45.6862084" lon="10.6145295"><ele>492.0</ele><time>2026-04-26T09:21:00.093Z</time></trkpt><trkpt lat="45.6860363" lon="10.6143253"><ele>492.66666666666663</ele><time>2026-04-26T09:21:01.092Z</time></trkpt><trkpt lat="45.6858736" lon="10.6141266"><ele>493.3333333333333</ele><time>2026-04-26T09:21:02.093Z</time></trkpt><trkpt lat="45.6857399" lon="10.6139811"><ele>494.0</ele><time>2026-04-26T09:21:03.093Z</time></trkpt><trkpt lat="45.6856137" lon="10.6138698"><ele>494.0</ele><time>2026-04-26T09:21:04.093Z</time></trkpt><trkpt lat="45.6854568" lon="10.6138095"><ele>494.0</ele><time>2026-04-26T09:21:05.093Z</time></trkpt><trkpt lat="45.6852744" lon="10.6137858"><ele>494.0</ele><time>2026-04-26T09:21:06.093Z</time></trkpt><trkpt lat="45.6850812" lon="10.6138148"><ele>494.0</ele><time>2026-04-26T09:21:07.093Z</time></trkpt><trkpt lat="45.684873" lon="10.6138866"><ele>494.0</ele><time>2026-04-26T09:21:08.093Z</time></trkpt><trkpt lat="45.6847063" lon="10.6139468"><ele>494.0</ele><time>2026-04-26T09:21:09.092Z</time></trkpt><trkpt lat="45.6845689" lon="10.6140144"><ele>494.0</ele><time>2026-04-26T09:21:10.093Z</time></trkpt><trkpt lat="45.6844488" lon="10.6141389"><ele>494.0</ele><time>2026-04-26T09:21:11.092Z</time></trkpt><trkpt lat="45.6843342" lon="10.6143238"><ele>494.0</ele><time>2026-04-26T09:21:12.093Z</time></trkpt><trkpt lat="45.6842045" lon="10.6145229"><ele>495.0</ele><time>2026-04-26T09:21:13.093Z</time></trkpt><trkpt lat="45.6840983" lon="10.614723"><ele>496.0</ele><time>2026-04-26T09:21:14.092Z</time></trkpt><trkpt lat="45.6840212" lon="10.6149238"><ele>497.0</ele><time>2026-04-26T09:21:15.092Z</time></trkpt><trkpt lat="45.6839737" lon="10.6151607"><ele>505.3333333333333</ele><time>2026-04-26T09:21:16.093Z</time></trkpt><trkpt lat="45.683937" lon="10.6154321"><ele>513.6666666666666</ele><time>2026-04-26T09:21:17.093Z</time></trkpt><trkpt lat="45.6838977" lon="10.6156823"><ele>522.0</ele><time>2026-04-26T09:21:18.093Z</time></trkpt><trkpt lat="45.6838734" lon="10.6159167"><ele>521.3333333333334</ele><time>2026-04-26T09:21:19.093Z</time></trkpt><trkpt lat="45.6838941" lon="10.6161607"><ele>520.6666666666667</ele><time>2026-04-26T09:21:20.093Z</time></trkpt><trkpt lat="45.6839376" lon="10.6164279"><ele>520.0</ele><time>2026-04-26T09:21:21.093Z</time></trkpt><trkpt lat="45.6839753" lon="10.6167164"><ele>519.5</ele><time>2026-04-26T09:21:22.093Z</time></trkpt><trkpt lat="45.6840086" lon="10.6170472"><ele>519.0</ele><time>2026-04-26T09:21:23.093Z</time></trkpt><trkpt lat="45.6839821" lon="10.6174224"><ele>519.0</ele><time>2026-04-26T09:21:24.093Z</time></trkpt><trkpt lat="45.6839468" lon="10.6178067"><ele>519.0</ele><time>2026-04-26T09:21:25.092Z</time></trkpt><trkpt lat="45.6839162" lon="10.618224"><ele>521.0</ele><time>2026-04-26T09:21:26.093Z</time></trkpt><trkpt lat="45.6838838" lon="10.6186339"><ele>523.0</ele><time>2026-04-26T09:21:27.092Z</time></trkpt><trkpt lat="45.6838463" lon="10.618984"><ele>523.5</ele><time>2026-04-26T09:21:28.093Z</time></trkpt><trkpt lat="45.6838285" lon="10.6193286"><ele>524.0</ele><time>2026-04-26T09:21:29.092Z</time></trkpt><trkpt lat="45.6838268" lon="10.6196469"><ele>524.0</ele><time>2026-04-26T09:21:30.092Z</time></trkpt><trkpt lat="45.6838441" lon="10.6199641"><ele>524.0</ele><time>2026-04-26T09:21:31.093Z</time></trkpt><trkpt lat="45.6838634" lon="10.6202754"><ele>524.0</ele><time>2026-04-26T09:21:32.092Z</time></trkpt><trkpt lat="45.6838806" lon="10.6205627"><ele>522.6666666666666</ele><time>2026-04-26T09:21:33.092Z</time></trkpt><trkpt lat="45.6838727" lon="10.6208079"><ele>521.3333333333334</ele><time>2026-04-26T09:21:34.092Z</time></trkpt><trkpt lat="45.6838544" lon="10.621032"><ele>520.0</ele><time>2026-04-26T09:21:35.093Z</time></trkpt><trkpt lat="45.683851" lon="10.6212436"><ele>518.75</ele><time>2026-04-26T09:21:36.093Z</time></trkpt><trkpt lat="45.6838687" lon="10.6214482"><ele>517.5</ele><time>2026-04-26T09:21:37.093Z</time></trkpt><trkpt lat="45.6839203" lon="10.6216386"><ele>516.25</ele><time>2026-04-26T09:21:38.093Z</time></trkpt><trkpt lat="45.6839614" lon="10.6218418"><ele>515.0</ele><time>2026-04-26T09:21:39.093Z</time></trkpt><trkpt lat="45.6839778" lon="10.6220689"><ele>514.6666666666666</ele><time>2026-04-26T09:21:40.093Z</time></trkpt><trkpt lat="45.6839724" lon="10.6223275"><ele>514.3333333333334</ele><time>2026-04-26T09:21:41.093Z</time></trkpt><trkpt lat="45.6839883" lon="10.622618"><ele>514.0</ele><time>2026-04-26T09:21:42.093Z</time></trkpt><trkpt lat="45.6840072" lon="10.6228814"><ele>514.0</ele><time>2026-04-26T09:21:43.093Z</time></trkpt><trkpt lat="45.6840068" lon="10.6231055"><ele>514.0</ele><time>2026-04-26T09:21:44.093Z</time></trkpt><trkpt lat="45.6839695" lon="10.6233333"><ele>514.0</ele><time>2026-04-26T09:21:45.093Z</time></trkpt><trkpt lat="45.6839003" lon="10.6235594"><ele>514.6666666666667</ele><time>2026-04-26T09:21:46.093Z</time></trkpt><trkpt lat="45.6838365" lon="10.6237761"><ele>515.3333333333334</ele><time>2026-04-26T09:21:47.092Z</time></trkpt><trkpt lat="45.6837984" lon="10.6239858"><ele>516.0</ele><time>2026-04-26T09:21:48.093Z</time></trkpt><trkpt lat="45.6837309" lon="10.6241948"><ele>516.0</ele><time>2026-04-26T09:21:49.093Z</time></trkpt><trkpt lat="45.6836238" lon="10.6244038"><ele>516.0</ele><time>2026-04-26T09:21:50.092Z</time></trkpt><trkpt lat="45.6834993" lon="10.6246034"><ele>516.0</ele><time>2026-04-26T09:21:51.092Z</time></trkpt><trkpt lat="45.6833799" lon="10.6247847"><ele>515.6666666666666</ele><time>2026-04-26T09:21:52.092Z</time></trkpt><trkpt lat="45.6832514" lon="10.6249377"><ele>515.3333333333333</ele><time>2026-04-26T09:21:53.092Z</time></trkpt><trkpt lat="45.683115" lon="10.6250502"><ele>515.0</ele><time>2026-04-26T09:21:54.093Z</time></trkpt><trkpt lat="45.6829657" lon="10.6251274"><ele>515.0</ele><time>2026-04-26T09:21:55.093Z</time></trkpt><trkpt lat="45.6828175" lon="10.6251485"><ele>515.0</ele><time>2026-04-26T09:21:56.092Z</time></trkpt><trkpt lat="45.6826921" lon="10.6251431"><ele>515.0</ele><time>2026-04-26T09:21:57.093Z</time></trkpt><trkpt lat="45.6825826" lon="10.6251609"><ele>515.0</ele><time>2026-04-26T09:21:58.093Z</time></trkpt><trkpt lat="45.682495" lon="10.6252309"><ele>514.25</ele><time>2026-04-26T09:21:59.092Z</time></trkpt><trkpt lat="45.6824354" lon="10.6253587"><ele>513.5</ele><time>2026-04-26T09:22:00.093Z</time></trkpt><trkpt lat="45.6823843" lon="10.6255358"><ele>512.75</ele><time>2026-04-26T09:22:01.092Z</time></trkpt><trkpt lat="45.6823054" lon="10.6257385"><ele>512.0</ele><time>2026-04-26T09:22:02.093Z</time></trkpt><trkpt lat="45.6821944" lon="10.6259519"><ele>506.66666666666663</ele><time>2026-04-26T09:22:03.093Z</time></trkpt><trkpt lat="45.6820573" lon="10.6261628"><ele>501.33333333333337</ele><time>2026-04-26T09:22:04.092Z</time></trkpt><trkpt lat="45.6819333" lon="10.6263637"><ele>496.0</ele><time>2026-04-26T09:22:05.093Z</time></trkpt><trkpt lat="45.6818096" lon="10.6265653"><ele>496.0</ele><time>2026-04-26T09:22:06.093Z</time></trkpt><trkpt lat="45.6817509" lon="10.6267905"><ele>496.0</ele><time>2026-04-26T09:22:07.093Z</time></trkpt><trkpt lat="45.6816891" lon="10.6270027"><ele>496.0</ele><time>2026-04-26T09:22:08.093Z</time></trkpt><trkpt lat="45.6816624" lon="10.6272254"><ele>497.33333333333337</ele><time>2026-04-26T09:22:09.093Z</time></trkpt><trkpt lat="45.6816525" lon="10.6274584"><ele>498.66666666666663</ele><time>2026-04-26T09:22:10.092Z</time></trkpt><trkpt lat="45.6816528" lon="10.6277068"><ele>500.0</ele><time>2026-04-26T09:22:11.092Z</time></trkpt><trkpt lat="45.6816607" lon="10.6279793"><ele>500.0</ele><time>2026-04-26T09:22:12.093Z</time></trkpt><trkpt lat="45.6816786" lon="10.6282565"><ele>500.0</ele><time>2026-04-26T09:22:13.092Z</time></trkpt><trkpt lat="45.6817026" lon="10.6285553"><ele>500.0</ele><time>2026-04-26T09:22:14.093Z</time></trkpt><trkpt lat="45.6817284" lon="10.6288059"><ele>498.25</ele><time>2026-04-26T09:22:15.093Z</time></trkpt><trkpt lat="45.681757" lon="10.629019"><ele>496.5</ele><time>2026-04-26T09:22:16.093Z</time></trkpt><trkpt lat="45.6817943" lon="10.6292131"><ele>494.75</ele><time>2026-04-26T09:22:17.093Z</time></trkpt><trkpt lat="45.6818426" lon="10.6293843"><ele>493.0</ele><time>2026-04-26T09:22:18.092Z</time></trkpt><trkpt lat="45.6819001" lon="10.6295453"><ele>495.0</ele><time>2026-04-26T09:22:19.093Z</time></trkpt><trkpt lat="45.6819833" lon="10.6296828"><ele>497.0</ele><time>2026-04-26T09:22:20.092Z</time></trkpt><trkpt lat="45.6820808" lon="10.6298141"><ele>499.0</ele><time>2026-04-26T09:22:21.093Z</time></trkpt><trkpt lat="45.6821958" lon="10.6299237"><ele>501.0</ele><time>2026-04-26T09:22:22.093Z</time></trkpt><trkpt lat="45.682333" lon="10.6300141"><ele>501.0</ele><time>2026-04-26T09:22:23.093Z</time></trkpt><trkpt lat="45.6824834" lon="10.630098"><ele>501.0</ele><time>2026-04-26T09:22:24.092Z</time></trkpt><trkpt lat="45.6826425" lon="10.6301738"><ele>501.0</ele><time>2026-04-26T09:22:25.093Z</time></trkpt><trkpt lat="45.6828149" lon="10.6302423"><ele>505.66666666666663</ele><time>2026-04-26T09:22:26.092Z</time></trkpt><trkpt lat="45.6830015" lon="10.6302977"><ele>510.3333333333333</ele><time>2026-04-26T09:22:27.092Z</time></trkpt><trkpt lat="45.6832001" lon="10.6303529"><ele>515.0</ele><time>2026-04-26T09:22:28.093Z</time></trkpt><trkpt lat="45.6833847" lon="10.6304141"><ele>508.0</ele><time>2026-04-26T09:22:29.093Z</time></trkpt><trkpt lat="45.6835512" lon="10.6304939"><ele>501.0</ele><time>2026-04-26T09:22:30.093Z</time></trkpt><trkpt lat="45.6836963" lon="10.6305721"><ele>494.0</ele><time>2026-04-26T09:22:31.093Z</time></trkpt><trkpt lat="45.6838118" lon="10.6306771"><ele>494.0</ele><time>2026-04-26T09:22:32.093Z</time></trkpt><trkpt lat="45.6838871" lon="10.6308324"><ele>494.0</ele><time>2026-04-26T09:22:33.093Z</time></trkpt><trkpt lat="45.6839363" lon="10.6310273"><ele>494.0</ele><time>2026-04-26T09:22:34.092Z</time></trkpt><trkpt lat="45.6839593" lon="10.6312549"><ele>494.0</ele><time>2026-04-26T09:22:35.093Z</time></trkpt><trkpt lat="45.6839872" lon="10.6314721"><ele>490.66666666666663</ele><time>2026-04-26T09:22:36.093Z</time></trkpt><trkpt lat="45.6840341" lon="10.6316822"><ele>487.33333333333337</ele><time>2026-04-26T09:22:37.093Z</time></trkpt><trkpt lat="45.684106" lon="10.6318905"><ele>484.0</ele><time>2026-04-26T09:22:38.093Z</time></trkpt><trkpt lat="45.6841878" lon="10.6320947"><ele>483.33333333333337</ele><time>2026-04-26T09:22:39.093Z</time></trkpt><trkpt lat="45.6842734" lon="10.6323029"><ele>482.66666666666663</ele><time>2026-04-26T09:22:40.093Z</time></trkpt><trkpt lat="45.6843575" lon="10.632511"><ele>482.0</ele><time>2026-04-26T09:22:41.093Z</time></trkpt><trkpt lat="45.6844335" lon="10.6327158"><ele>484.0</ele><time>2026-04-26T09:22:42.093Z</time></trkpt><trkpt lat="45.6845013" lon="10.6329104"><ele>486.0</ele><time>2026-04-26T09:22:43.093Z</time></trkpt><trkpt lat="45.684562" lon="10.6330982"><ele>488.0</ele><time>2026-04-26T09:22:44.092Z</time></trkpt><trkpt lat="45.6846204" lon="10.6332709"><ele>490.0</ele><time>2026-04-26T09:22:45.093Z</time></trkpt><trkpt lat="45.6846817" lon="10.6334297"><ele>490.0</ele><time>2026-04-26T09:22:46.093Z</time></trkpt><trkpt lat="45.6847326" lon="10.6335723"><ele>490.0</ele><time>2026-04-26T09:22:47.093Z</time></trkpt><trkpt lat="45.6847769" lon="10.6336911"><ele>490.0</ele><time>2026-04-26T09:22:48.092Z</time></trkpt><trkpt lat="45.6848168" lon="10.6338105"><ele>490.0</ele><time>2026-04-26T09:22:49.092Z</time></trkpt><trkpt lat="45.6848282" lon="10.6339308"><ele>490.0</ele><time>2026-04-26T09:22:50.093Z</time></trkpt><trkpt lat="45.6848214" lon="10.6340376"><ele>489.6</ele><time>2026-04-26T09:22:51.092Z</time></trkpt><trkpt lat="45.6848147" lon="10.6341289"><ele>489.2</ele><time>2026-04-26T09:22:52.093Z</time></trkpt><trkpt lat="45.6848142" lon="10.6343142"><ele>488.79999999999995</ele><time>2026-04-26T09:22:54.093Z</time></trkpt><trkpt lat="45.684782" lon="10.6344366"><ele>488.4</ele><time>2026-04-26T09:22:55.093Z</time></trkpt><trkpt lat="45.6847667" lon="10.6345798"><ele>488.0</ele><time>2026-04-26T09:22:56.093Z</time></trkpt><trkpt lat="45.6847237" lon="10.6347431"><ele>489.0</ele><time>2026-04-26T09:22:57.092Z</time></trkpt><trkpt lat="45.6846884" lon="10.6348822"><ele>489.99999999999994</ele><time>2026-04-26T09:22:58.092Z</time></trkpt><trkpt lat="45.6846559" lon="10.635016"><ele>490.99999999999994</ele><time>2026-04-26T09:22:59.093Z</time></trkpt><trkpt lat="45.684652" lon="10.6351259"><ele>492.0</ele><time>2026-04-26T09:23:00.093Z</time></trkpt><trkpt lat="45.6846513" lon="10.6352463"><ele>493.0</ele><time>2026-04-26T09:23:02.093Z</time></trkpt><trkpt lat="45.6846558" lon="10.6353718"><ele>494.2</ele><time>2026-04-26T09:23:05.093Z</time></trkpt><trkpt lat="45.6846613" lon="10.6354693"><ele>495.4</ele><time>2026-04-26T09:23:06.093Z</time></trkpt><trkpt lat="45.6846643" lon="10.6355899"><ele>496.59999999999997</ele><time>2026-04-26T09:23:07.093Z</time></trkpt><trkpt lat="45.6846632" lon="10.6357289"><ele>497.79999999999995</ele><time>2026-04-26T09:23:08.092Z</time></trkpt><trkpt lat="45.6846646" lon="10.6358767"><ele>499.0</ele><time>2026-04-26T09:23:09.092Z</time></trkpt><trkpt lat="45.6846657" lon="10.6360256"><ele>494.5</ele><time>2026-04-26T09:23:10.093Z</time></trkpt><trkpt lat="45.6846783" lon="10.6361795"><ele>490.0</ele><time>2026-04-26T09:23:11.092Z</time></trkpt><trkpt lat="45.6847237" lon="10.6363272"><ele>485.5</ele><time>2026-04-26T09:23:12.093Z</time></trkpt><trkpt lat="45.6848083" lon="10.6364579"><ele>481.0</ele><time>2026-04-26T09:23:13.093Z</time></trkpt><trkpt lat="45.6849245" lon="10.6365814"><ele>481.0</ele><time>2026-04-26T09:23:14.093Z</time></trkpt><trkpt lat="45.6850578" lon="10.6367046"><ele>481.0</ele><time>2026-04-26T09:23:15.093Z</time></trkpt><trkpt lat="45.6852057" lon="10.6368269"><ele>481.0</ele><time>2026-04-26T09:23:16.093Z</time></trkpt><trkpt lat="45.6853597" lon="10.63693"><ele>478.6666666666667</ele><time>2026-04-26T09:23:17.092Z</time></trkpt><trkpt lat="45.6855236" lon="10.637009"><ele>476.33333333333337</ele><time>2026-04-26T09:23:18.093Z</time></trkpt><trkpt lat="45.6856924" lon="10.6370718"><ele>474.0</ele><time>2026-04-26T09:23:19.093Z</time></trkpt><trkpt lat="45.6858722" lon="10.6370746"><ele>474.0</ele><time>2026-04-26T09:23:20.093Z</time></trkpt><trkpt lat="45.6860343" lon="10.6370906"><ele>474.0</ele><time>2026-04-26T09:23:21.093Z</time></trkpt><trkpt lat="45.6861813" lon="10.6371187"><ele>474.0</ele><time>2026-04-26T09:23:22.093Z</time></trkpt><trkpt lat="45.6863059" lon="10.6371744"><ele>474.0</ele><time>2026-04-26T09:23:23.093Z</time></trkpt><trkpt lat="45.6863954" lon="10.6372712"><ele>476.25</ele><time>2026-04-26T09:23:24.093Z</time></trkpt><trkpt lat="45.6864516" lon="10.6374071"><ele>478.5</ele><time>2026-04-26T09:23:25.093Z</time></trkpt><trkpt lat="45.6865051" lon="10.6375719"><ele>480.75</ele><time>2026-04-26T09:23:26.093Z</time></trkpt><trkpt lat="45.6865553" lon="10.6377588"><ele>483.0</ele><time>2026-04-26T09:23:27.093Z</time></trkpt><trkpt lat="45.686621" lon="10.6379346"><ele>483.0</ele><time>2026-04-26T09:23:28.093Z</time></trkpt><trkpt lat="45.6867025" lon="10.6381031"><ele>483.0</ele><time>2026-04-26T09:23:29.092Z</time></trkpt><trkpt lat="45.6868012" lon="10.6382609"><ele>483.0</ele><time>2026-04-26T09:23:30.093Z</time></trkpt><trkpt lat="45.6868992" lon="10.6384259"><ele>483.0</ele><time>2026-04-26T09:23:31.093Z</time></trkpt><trkpt lat="45.6869939" lon="10.6385916"><ele>490.0</ele><time>2026-04-26T09:23:32.093Z</time></trkpt><trkpt lat="45.6870789" lon="10.6387747"><ele>497.0</ele><time>2026-04-26T09:23:33.092Z</time></trkpt><trkpt lat="45.6871381" lon="10.6389965"><ele>504.0</ele><time>2026-04-26T09:23:34.093Z</time></trkpt><trkpt lat="45.6871928" lon="10.6392343"><ele>502.66666666666663</ele><time>2026-04-26T09:23:35.093Z</time></trkpt><trkpt lat="45.6872483" lon="10.6394839"><ele>501.3333333333333</ele><time>2026-04-26T09:23:36.092Z</time></trkpt><trkpt lat="45.687295" lon="10.6397133"><ele>500.0</ele><time>2026-04-26T09:23:37.093Z</time></trkpt><trkpt lat="45.6873274" lon="10.6399096"><ele>500.0</ele><time>2026-04-26T09:23:38.093Z</time></trkpt><trkpt lat="45.6873555" lon="10.6400867"><ele>500.0</ele><time>2026-04-26T09:23:39.093Z</time></trkpt><trkpt lat="45.6873536" lon="10.6402436"><ele>500.0</ele><time>2026-04-26T09:23:40.093Z</time></trkpt><trkpt lat="45.6873083" lon="10.6403892"><ele>500.0</ele><time>2026-04-26T09:23:41.093Z</time></trkpt><trkpt lat="45.6872159" lon="10.6405072"><ele>498.25</ele><time>2026-04-26T09:23:42.093Z</time></trkpt><trkpt lat="45.6870947" lon="10.6405978"><ele>496.5</ele><time>2026-04-26T09:23:43.092Z</time></trkpt><trkpt lat="45.6869527" lon="10.6406687"><ele>494.75</ele><time>2026-04-26T09:23:44.093Z</time></trkpt><trkpt lat="45.6868167" lon="10.6407312"><ele>493.0</ele><time>2026-04-26T09:23:45.093Z</time></trkpt><trkpt lat="45.6866887" lon="10.6407958"><ele>488.79999999999995</ele><time>2026-04-26T09:23:46.093Z</time></trkpt><trkpt lat="45.6865635" lon="10.6408537"><ele>484.59999999999997</ele><time>2026-04-26T09:23:47.093Z</time></trkpt><trkpt lat="45.6864443" lon="10.6409075"><ele>480.40000000000003</ele><time>2026-04-26T09:23:48.093Z</time></trkpt><trkpt lat="45.6863459" lon="10.6409549"><ele>476.20000000000005</ele><time>2026-04-26T09:23:49.093Z</time></trkpt><trkpt lat="45.6862683" lon="10.6409924"><ele>472.0</ele><time>2026-04-26T09:23:50.092Z</time></trkpt><trkpt lat="45.6862084" lon="10.6410207"><ele>472.0</ele><time>2026-04-26T09:23:51.093Z</time></trkpt><trkpt lat="45.6861264" lon="10.6410765"><ele>472.00000000000006</ele><time>2026-04-26T09:23:53.093Z</time></trkpt><trkpt lat="45.6860886" lon="10.6411631"><ele>472.00000000000006</ele><time>2026-04-26T09:23:55.092Z</time></trkpt><trkpt lat="45.6861007" lon="10.6413024"><ele>472.0</ele><time>2026-04-26T09:23:58.093Z</time></trkpt><trkpt lat="45.6861573" lon="10.6414117"><ele>472.0</ele><time>2026-04-26T09:24:00.093Z</time></trkpt><trkpt lat="45.6862548" lon="10.641508"><ele>471.6666666666667</ele><time>2026-04-26T09:24:02.093Z</time></trkpt><trkpt lat="45.6863594" lon="10.6416139"><ele>471.33333333333337</ele><time>2026-04-26T09:24:04.093Z</time></trkpt><trkpt lat="45.6864071" lon="10.6416818"><ele>471.0</ele><time>2026-04-26T09:24:05.092Z</time></trkpt><trkpt lat="45.6864457" lon="10.6417669"><ele>470.66666666666663</ele><time>2026-04-26T09:24:06.093Z</time></trkpt><trkpt lat="45.6864859" lon="10.6418613"><ele>470.3333333333333</ele><time>2026-04-26T09:24:07.093Z</time></trkpt><trkpt lat="45.686523" lon="10.6419609"><ele>470.0</ele><time>2026-04-26T09:24:08.093Z</time></trkpt><trkpt lat="45.6865538" lon="10.6420768"><ele>469.6</ele><time>2026-04-26T09:24:09.093Z</time></trkpt><trkpt lat="45.6865727" lon="10.6422184"><ele>469.2</ele><time>2026-04-26T09:24:10.093Z</time></trkpt><trkpt lat="45.6865779" lon="10.6423757"><ele>468.79999999999995</ele><time>2026-04-26T09:24:11.093Z</time></trkpt><trkpt lat="45.6865747" lon="10.6425437"><ele>468.4</ele><time>2026-04-26T09:24:12.092Z</time></trkpt><trkpt lat="45.6865718" lon="10.642711"><ele>468.0</ele><time>2026-04-26T09:24:13.093Z</time></trkpt><trkpt lat="45.686564" lon="10.6428609"><ele>468.0</ele><time>2026-04-26T09:24:14.093Z</time></trkpt><trkpt lat="45.6865482" lon="10.6429932"><ele>467.99999999999994</ele><time>2026-04-26T09:24:15.093Z</time></trkpt><trkpt lat="45.6865271" lon="10.643124"><ele>467.99999999999994</ele><time>2026-04-26T09:24:16.093Z</time></trkpt><trkpt lat="45.6864926" lon="10.6432609"><ele>468.0</ele><time>2026-04-26T09:24:17.093Z</time></trkpt><trkpt lat="45.6864435" lon="10.6434046"><ele>468.0</ele><time>2026-04-26T09:24:18.093Z</time></trkpt><trkpt lat="45.6863879" lon="10.6435417"><ele>468.59999999999997</ele><time>2026-04-26T09:24:19.093Z</time></trkpt><trkpt lat="45.6863288" lon="10.6436936"><ele>469.19999999999993</ele><time>2026-04-26T09:24:20.093Z</time></trkpt><trkpt lat="45.6862864" lon="10.6438409"><ele>469.8</ele><time>2026-04-26T09:24:21.092Z</time></trkpt><trkpt lat="45.6862537" lon="10.6439915"><ele>470.4</ele><time>2026-04-26T09:24:22.093Z</time></trkpt><trkpt lat="45.6862449" lon="10.6441417"><ele>471.0</ele><time>2026-04-26T09:24:23.093Z</time></trkpt><trkpt lat="45.6862536" lon="10.6442885"><ele>471.0</ele><time>2026-04-26T09:24:24.093Z</time></trkpt><trkpt lat="45.6862774" lon="10.6444331"><ele>471.0</ele><time>2026-04-26T09:24:25.093Z</time></trkpt><trkpt lat="45.6862959" lon="10.6445864"><ele>471.0</ele><time>2026-04-26T09:24:26.093Z</time></trkpt><trkpt lat="45.6862996" lon="10.6447394"><ele>471.0</ele><time>2026-04-26T09:24:27.093Z</time></trkpt><trkpt lat="45.6862885" lon="10.6448923"><ele>471.0</ele><time>2026-04-26T09:24:28.093Z</time></trkpt><trkpt lat="45.6862521" lon="10.6450363"><ele>471.20000000000005</ele><time>2026-04-26T09:24:29.093Z</time></trkpt><trkpt lat="45.6862048" lon="10.64517"><ele>471.40000000000003</ele><time>2026-04-26T09:24:30.093Z</time></trkpt><trkpt lat="45.6861464" lon="10.6452966"><ele>471.6</ele><time>2026-04-26T09:24:31.093Z</time></trkpt><trkpt lat="45.6860891" lon="10.6454155"><ele>471.8</ele><time>2026-04-26T09:24:32.093Z</time></trkpt><trkpt lat="45.686032" lon="10.6455333"><ele>472.0</ele><time>2026-04-26T09:24:33.093Z</time></trkpt><trkpt lat="45.6859882" lon="10.6456561"><ele>465.0</ele><time>2026-04-26T09:24:34.093Z</time></trkpt><trkpt lat="45.68595" lon="10.6457811"><ele>458.00000000000006</ele><time>2026-04-26T09:24:35.093Z</time></trkpt><trkpt lat="45.68596" lon="10.645916"><ele>451.00000000000006</ele><time>2026-04-26T09:24:36.093Z</time></trkpt><trkpt lat="45.6859793" lon="10.6460412"><ele>444.0</ele><time>2026-04-26T09:24:37.093Z</time></trkpt><trkpt lat="45.6860044" lon="10.6461615"><ele>437.0</ele><time>2026-04-26T09:24:38.093Z</time></trkpt><trkpt lat="45.6860397" lon="10.6462742"><ele>433.40000000000003</ele><time>2026-04-26T09:24:39.093Z</time></trkpt><trkpt lat="45.6860779" lon="10.6463911"><ele>429.80000000000007</ele><time>2026-04-26T09:24:40.093Z</time></trkpt><trkpt lat="45.6861228" lon="10.6465133"><ele>426.2</ele><time>2026-04-26T09:24:41.093Z</time></trkpt><trkpt lat="45.6861697" lon="10.6466339"><ele>422.6</ele><time>2026-04-26T09:24:42.093Z</time></trkpt><trkpt lat="45.6862158" lon="10.6467513"><ele>419.0</ele><time>2026-04-26T09:24:43.092Z</time></trkpt><trkpt lat="45.686268" lon="10.6468635"><ele>422.4</ele><time>2026-04-26T09:24:44.093Z</time></trkpt><trkpt lat="45.6863253" lon="10.6469748"><ele>425.79999999999995</ele><time>2026-04-26T09:24:45.093Z</time></trkpt><trkpt lat="45.6863839" lon="10.6470845"><ele>429.20000000000005</ele><time>2026-04-26T09:24:46.093Z</time></trkpt><trkpt lat="45.6864441" lon="10.6471934"><ele>432.6</ele><time>2026-04-26T09:24:47.093Z</time></trkpt><trkpt lat="45.6865179" lon="10.6472942"><ele>436.0</ele><time>2026-04-26T09:24:48.093Z</time></trkpt><trkpt lat="45.6865947" lon="10.6473984"><ele>436.0</ele><time>2026-04-26T09:24:49.093Z</time></trkpt><trkpt lat="45.6866746" lon="10.6475137"><ele>436.0</ele><time>2026-04-26T09:24:50.092Z</time></trkpt><trkpt lat="45.6867553" lon="10.6476271"><ele>436.0</ele><time>2026-04-26T09:24:51.093Z</time></trkpt><trkpt lat="45.6868391" lon="10.6477389"><ele>436.0</ele><time>2026-04-26T09:24:52.092Z</time></trkpt><trkpt lat="45.6869215" lon="10.6478444"><ele>432.8</ele><time>2026-04-26T09:24:53.093Z</time></trkpt><trkpt lat="45.6870103" lon="10.6479397"><ele>429.6</ele><time>2026-04-26T09:24:54.092Z</time></trkpt><trkpt lat="45.6871007" lon="10.6480214"><ele>426.4</ele><time>2026-04-26T09:24:55.093Z</time></trkpt><trkpt lat="45.6872004" lon="10.6480728"><ele>423.2</ele><time>2026-04-26T09:24:56.093Z</time></trkpt><trkpt lat="45.6873087" lon="10.6481071"><ele>420.0</ele><time>2026-04-26T09:24:57.093Z</time></trkpt><trkpt lat="45.6874133" lon="10.6481405"><ele>420.0</ele><time>2026-04-26T09:24:58.092Z</time></trkpt><trkpt lat="45.6875183" lon="10.6481677"><ele>420.0</ele><time>2026-04-26T09:24:59.092Z</time></trkpt><trkpt lat="45.687621" lon="10.6481825"><ele>420.0</ele><time>2026-04-26T09:25:00.093Z</time></trkpt><trkpt lat="45.6877223" lon="10.6481743"><ele>420.0</ele><time>2026-04-26T09:25:01.093Z</time></trkpt><trkpt lat="45.6878204" lon="10.6481465"><ele>420.0</ele><time>2026-04-26T09:25:02.093Z</time></trkpt><trkpt lat="45.6879233" lon="10.6481038"><ele>418.5</ele><time>2026-04-26T09:25:03.093Z</time></trkpt><trkpt lat="45.6880253" lon="10.6480599"><ele>417.0</ele><time>2026-04-26T09:25:04.093Z</time></trkpt><trkpt lat="45.6881389" lon="10.6480103"><ele>415.5</ele><time>2026-04-26T09:25:05.092Z</time></trkpt><trkpt lat="45.6882526" lon="10.6479776"><ele>414.0</ele><time>2026-04-26T09:25:06.093Z</time></trkpt><trkpt lat="45.6883706" lon="10.6479846"><ele>414.0</ele><time>2026-04-26T09:25:07.092Z</time></trkpt><trkpt lat="45.6884748" lon="10.6480318"><ele>414.0</ele><time>2026-04-26T09:25:08.092Z</time></trkpt><trkpt lat="45.6885649" lon="10.6480935"><ele>414.0</ele><time>2026-04-26T09:25:09.093Z</time></trkpt><trkpt lat="45.6886304" lon="10.6481625"><ele>414.0</ele><time>2026-04-26T09:25:10.093Z</time></trkpt><trkpt lat="45.688667" lon="10.6482588"><ele>414.0</ele><time>2026-04-26T09:25:11.093Z</time></trkpt><trkpt lat="45.6886551" lon="10.6483523"><ele>414.0</ele><time>2026-04-26T09:25:12.093Z</time></trkpt><trkpt lat="45.6886031" lon="10.6484165"><ele>414.0</ele><time>2026-04-26T09:25:13.093Z</time></trkpt><trkpt lat="45.6885223" lon="10.6484318"><ele>414.0</ele><time>2026-04-26T09:25:14.093Z</time></trkpt><trkpt lat="45.6884359" lon="10.6483948"><ele>414.0</ele><time>2026-04-26T09:25:15.092Z</time></trkpt><trkpt lat="45.6883405" lon="10.6483282"><ele>414.0</ele><time>2026-04-26T09:25:16.093Z</time></trkpt><trkpt lat="45.6882449" lon="10.6482696"><ele>414.0</ele><time>2026-04-26T09:25:17.092Z</time></trkpt><trkpt lat="45.6881355" lon="10.6482515"><ele>414.0</ele><time>2026-04-26T09:25:18.092Z</time></trkpt><trkpt lat="45.6880212" lon="10.6482775"><ele>414.0</ele><time>2026-04-26T09:25:19.093Z</time></trkpt><trkpt lat="45.6879196" lon="10.648351"><ele>414.0</ele><time>2026-04-26T09:25:20.093Z</time></trkpt><trkpt lat="45.6878104" lon="10.6484303"><ele>414.0</ele><time>2026-04-26T09:25:21.093Z</time></trkpt><trkpt lat="45.6876861" lon="10.6485031"><ele>415.5</ele><time>2026-04-26T09:25:22.092Z</time></trkpt><trkpt lat="45.6875578" lon="10.6485646"><ele>417.0</ele><time>2026-04-26T09:25:23.093Z</time></trkpt><trkpt lat="45.6874218" lon="10.6486269"><ele>418.5</ele><time>2026-04-26T09:25:24.093Z</time></trkpt><trkpt lat="45.6872807" lon="10.6486811"><ele>420.0</ele><time>2026-04-26T09:25:25.093Z</time></trkpt><trkpt lat="45.687143" lon="10.6487321"><ele>417.0</ele><time>2026-04-26T09:25:26.093Z</time></trkpt><trkpt lat="45.6870177" lon="10.648768"><ele>414.0</ele><time>2026-04-26T09:25:27.093Z</time></trkpt><trkpt lat="45.6869092" lon="10.6487781"><ele>411.0</ele><time>2026-04-26T09:25:28.093Z</time></trkpt><trkpt lat="45.6868123" lon="10.6487476"><ele>408.0</ele><time>2026-04-26T09:25:29.093Z</time></trkpt><trkpt lat="45.6867231" lon="10.6486732"><ele>405.0</ele><time>2026-04-26T09:25:30.093Z</time></trkpt><trkpt lat="45.686644" lon="10.6485614"><ele>405.0</ele><time>2026-04-26T09:25:31.093Z</time></trkpt><trkpt lat="45.686557" lon="10.6484306"><ele>405.0</ele><time>2026-04-26T09:25:32.092Z</time></trkpt><trkpt lat="45.6864617" lon="10.6482883"><ele>405.0</ele><time>2026-04-26T09:25:33.093Z</time></trkpt><trkpt lat="45.6863663" lon="10.6481325"><ele>405.0</ele><time>2026-04-26T09:25:34.093Z</time></trkpt><trkpt lat="45.6862642" lon="10.6479627"><ele>402.33333333333337</ele><time>2026-04-26T09:25:35.093Z</time></trkpt><trkpt lat="45.6861637" lon="10.6477912"><ele>399.6666666666667</ele><time>2026-04-26T09:25:36.093Z</time></trkpt><trkpt lat="45.6860568" lon="10.6476215"><ele>397.0</ele><time>2026-04-26T09:25:37.093Z</time></trkpt><trkpt lat="45.6859491" lon="10.6474572"><ele>397.0</ele><time>2026-04-26T09:25:38.093Z</time></trkpt><trkpt lat="45.6858375" lon="10.6473061"><ele>397.0</ele><time>2026-04-26T09:25:39.092Z</time></trkpt><trkpt lat="45.6857296" lon="10.647163"><ele>397.0</ele><time>2026-04-26T09:25:40.093Z</time></trkpt><trkpt lat="45.685618" lon="10.6470235"><ele>397.0</ele><time>2026-04-26T09:25:41.092Z</time></trkpt><trkpt lat="45.6855068" lon="10.6468897"><ele>391.75</ele><time>2026-04-26T09:25:42.093Z</time></trkpt><trkpt lat="45.6854023" lon="10.6467535"><ele>386.5</ele><time>2026-04-26T09:25:43.093Z</time></trkpt><trkpt lat="45.6853132" lon="10.6465929"><ele>381.25</ele><time>2026-04-26T09:25:44.093Z</time></trkpt><trkpt lat="45.6852467" lon="10.6464071"><ele>376.0</ele><time>2026-04-26T09:25:45.092Z</time></trkpt><trkpt lat="45.685193" lon="10.646203"><ele>379.5</ele><time>2026-04-26T09:25:46.093Z</time></trkpt><trkpt lat="45.6851429" lon="10.6460078"><ele>383.0</ele><time>2026-04-26T09:25:47.092Z</time></trkpt><trkpt lat="45.6850974" lon="10.6458269"><ele>386.5</ele><time>2026-04-26T09:25:48.092Z</time></trkpt><trkpt lat="45.6850575" lon="10.6456503"><ele>390.0</ele><time>2026-04-26T09:25:49.093Z</time></trkpt><trkpt lat="45.6850272" lon="10.6454889"><ele>390.0</ele><time>2026-04-26T09:25:50.093Z</time></trkpt><trkpt lat="45.6850095" lon="10.6453362"><ele>390.0</ele><time>2026-04-26T09:25:51.092Z</time></trkpt><trkpt lat="45.6849862" lon="10.645197"><ele>390.0</ele><time>2026-04-26T09:25:52.093Z</time></trkpt><trkpt lat="45.6849293" lon="10.6450823"><ele>390.0</ele><time>2026-04-26T09:25:53.093Z</time></trkpt><trkpt lat="45.6848495" lon="10.6449847"><ele>390.0</ele><time>2026-04-26T09:25:54.093Z</time></trkpt><trkpt lat="45.6847633" lon="10.6448698"><ele>392.2</ele><time>2026-04-26T09:25:55.093Z</time></trkpt><trkpt lat="45.6846892" lon="10.6447394"><ele>394.4</ele><time>2026-04-26T09:25:56.092Z</time></trkpt><trkpt lat="45.6846185" lon="10.6446218"><ele>396.6</ele><time>2026-04-26T09:25:57.093Z</time></trkpt><trkpt lat="45.6845471" lon="10.6445117"><ele>398.8</ele><time>2026-04-26T09:25:58.093Z</time></trkpt><trkpt lat="45.6844894" lon="10.6443916"><ele>401.0</ele><time>2026-04-26T09:25:59.093Z</time></trkpt><trkpt lat="45.684449" lon="10.6442436"><ele>401.4</ele><time>2026-04-26T09:26:00.092Z</time></trkpt><trkpt lat="45.6844327" lon="10.6440813"><ele>401.8</ele><time>2026-04-26T09:26:01.093Z</time></trkpt><trkpt lat="45.6844243" lon="10.6439121"><ele>402.2</ele><time>2026-04-26T09:26:02.093Z</time></trkpt><trkpt lat="45.6844153" lon="10.6437637"><ele>402.59999999999997</ele><time>2026-04-26T09:26:03.093Z</time></trkpt><trkpt lat="45.6843906" lon="10.6436447"><ele>403.0</ele><time>2026-04-26T09:26:04.093Z</time></trkpt><trkpt lat="45.6843291" lon="10.6435725"><ele>400.6666666666667</ele><time>2026-04-26T09:26:05.092Z</time></trkpt><trkpt lat="45.6842483" lon="10.6435591"><ele>398.33333333333337</ele><time>2026-04-26T09:26:06.093Z</time></trkpt><trkpt lat="45.6841906" lon="10.6436144"><ele>396.0</ele><time>2026-04-26T09:26:07.093Z</time></trkpt><trkpt lat="45.6841587" lon="10.6437222"><ele>393.66666666666663</ele><time>2026-04-26T09:26:08.093Z</time></trkpt><trkpt lat="45.6841745" lon="10.6438432"><ele>391.3333333333333</ele><time>2026-04-26T09:26:09.093Z</time></trkpt><trkpt lat="45.6842173" lon="10.6439899"><ele>389.0</ele><time>2026-04-26T09:26:10.093Z</time></trkpt><trkpt lat="45.6842613" lon="10.6441611"><ele>393.0</ele><time>2026-04-26T09:26:11.093Z</time></trkpt><trkpt lat="45.6843121" lon="10.6443451"><ele>397.0</ele><time>2026-04-26T09:26:12.093Z</time></trkpt><trkpt lat="45.6843802" lon="10.6445451"><ele>401.0</ele><time>2026-04-26T09:26:13.093Z</time></trkpt><trkpt lat="45.6844513" lon="10.6447507"><ele>401.0</ele><time>2026-04-26T09:26:14.093Z</time></trkpt><trkpt lat="45.6845099" lon="10.6449549"><ele>401.0</ele><time>2026-04-26T09:26:15.093Z</time></trkpt><trkpt lat="45.684582" lon="10.6451264"><ele>401.0</ele><time>2026-04-26T09:26:16.092Z</time></trkpt><trkpt lat="45.6846594" lon="10.6452592"><ele>401.0</ele><time>2026-04-26T09:26:17.093Z</time></trkpt><trkpt lat="45.6847251" lon="10.6453971"><ele>398.25</ele><time>2026-04-26T09:26:18.093Z</time></trkpt><trkpt lat="45.6847664" lon="10.6455556"><ele>395.5</ele><time>2026-04-26T09:26:19.093Z</time></trkpt><trkpt lat="45.6847788" lon="10.6457382"><ele>392.75</ele><time>2026-04-26T09:26:20.093Z</time></trkpt><trkpt lat="45.6847877" lon="10.6459347"><ele>390.0</ele><time>2026-04-26T09:26:21.092Z</time></trkpt><trkpt lat="45.6848025" lon="10.6461444"><ele>385.3333333333333</ele><time>2026-04-26T09:26:22.093Z</time></trkpt><trkpt lat="45.6848205" lon="10.6463511"><ele>380.66666666666663</ele><time>2026-04-26T09:26:23.093Z</time></trkpt><trkpt lat="45.684851" lon="10.6465943"><ele>376.0</ele><time>2026-04-26T09:26:24.093Z</time></trkpt><trkpt lat="45.6848754" lon="10.6468176"><ele>370.5</ele><time>2026-04-26T09:26:25.093Z</time></trkpt><trkpt lat="45.6848947" lon="10.6470385"><ele>365.0</ele><time>2026-04-26T09:26:26.092Z</time></trkpt><trkpt lat="45.6849484" lon="10.6472142"><ele>359.5</ele><time>2026-04-26T09:26:27.093Z</time></trkpt><trkpt lat="45.6850194" lon="10.6473824"><ele>354.0</ele><time>2026-04-26T09:26:28.093Z</time></trkpt><trkpt lat="45.6851298" lon="10.6475282"><ele>354.0</ele><time>2026-04-26T09:26:29.092Z</time></trkpt><trkpt lat="45.6852528" lon="10.6476556"><ele>354.0</ele><time>2026-04-26T09:26:30.093Z</time></trkpt><trkpt lat="45.6853607" lon="10.6477851"><ele>354.0</ele><time>2026-04-26T09:26:31.093Z</time></trkpt><trkpt lat="45.6854372" lon="10.647921"><ele>354.0</ele><time>2026-04-26T09:26:32.092Z</time></trkpt><trkpt lat="45.6854903" lon="10.6480719"><ele>352.79999999999995</ele><time>2026-04-26T09:26:33.093Z</time></trkpt><trkpt lat="45.6854967" lon="10.6482387"><ele>351.59999999999997</ele><time>2026-04-26T09:26:34.093Z</time></trkpt><trkpt lat="45.685502" lon="10.6483933"><ele>350.4</ele><time>2026-04-26T09:26:35.093Z</time></trkpt><trkpt lat="45.6855596" lon="10.6485147"><ele>349.2</ele><time>2026-04-26T09:26:36.093Z</time></trkpt><trkpt lat="45.6856397" lon="10.6486354"><ele>348.0</ele><time>2026-04-26T09:26:37.092Z</time></trkpt><trkpt lat="45.6857045" lon="10.6487972"><ele>348.0</ele><time>2026-04-26T09:26:38.092Z</time></trkpt><trkpt lat="45.6857484" lon="10.6489829"><ele>348.0</ele><time>2026-04-26T09:26:39.093Z</time></trkpt><trkpt lat="45.6857906" lon="10.6491715"><ele>348.0</ele><time>2026-04-26T09:26:40.093Z</time></trkpt><trkpt lat="45.6858434" lon="10.6493266"><ele>348.0</ele><time>2026-04-26T09:26:41.093Z</time></trkpt><trkpt lat="45.6858837" lon="10.6494492"><ele>348.0</ele><time>2026-04-26T09:26:42.093Z</time></trkpt><trkpt lat="45.6859027" lon="10.6495545"><ele>348.0</ele><time>2026-04-26T09:26:43.093Z</time></trkpt><trkpt lat="45.6858305" lon="10.6496507"><ele>348.0</ele><time>2026-04-26T09:26:45.093Z</time></trkpt><trkpt lat="45.6857595" lon="10.6495123"><ele>348.0</ele><time>2026-04-26T09:26:47.093Z</time></trkpt><trkpt lat="45.6857214" lon="10.6493853"><ele>348.0</ele><time>2026-04-26T09:26:48.093Z</time></trkpt><trkpt lat="45.6856744" lon="10.6492368"><ele>348.0</ele><time>2026-04-26T09:26:49.093Z</time></trkpt><trkpt lat="45.685614" lon="10.6490794"><ele>348.0</ele><time>2026-04-26T09:26:50.093Z</time></trkpt><trkpt lat="45.6855395" lon="10.6489133"><ele>348.0</ele><time>2026-04-26T09:26:51.092Z</time></trkpt><trkpt lat="45.6854628" lon="10.6487314"><ele>348.0</ele><time>2026-04-26T09:26:52.092Z</time></trkpt><trkpt lat="45.6853912" lon="10.6485488"><ele>343.75</ele><time>2026-04-26T09:26:53.093Z</time></trkpt><trkpt lat="45.6853403" lon="10.6483753"><ele>339.5</ele><time>2026-04-26T09:26:54.093Z</time></trkpt><trkpt lat="45.6852889" lon="10.6482206"><ele>335.25</ele><time>2026-04-26T09:26:55.093Z</time></trkpt><trkpt lat="45.685188" lon="10.6480957"><ele>331.0</ele><time>2026-04-26T09:26:56.093Z</time></trkpt><trkpt lat="45.6850783" lon="10.647981"><ele>331.0</ele><time>2026-04-26T09:26:57.093Z</time></trkpt><trkpt lat="45.6849549" lon="10.6478748"><ele>331.0</ele><time>2026-04-26T09:26:58.093Z</time></trkpt><trkpt lat="45.6848396" lon="10.647762"><ele>331.0</ele><time>2026-04-26T09:26:59.093Z</time></trkpt><trkpt lat="45.6847446" lon="10.6476307"><ele>331.0</ele><time>2026-04-26T09:27:00.093Z</time></trkpt><trkpt lat="45.6846682" lon="10.6474827"><ele>330.5</ele><time>2026-04-26T09:27:01.093Z</time></trkpt><trkpt lat="45.6846029" lon="10.6473187"><ele>330.0</ele><time>2026-04-26T09:27:02.093Z</time></trkpt><trkpt lat="45.6845322" lon="10.6471642"><ele>329.5</ele><time>2026-04-26T09:27:03.092Z</time></trkpt><trkpt lat="45.6844526" lon="10.6470252"><ele>329.0</ele><time>2026-04-26T09:27:04.093Z</time></trkpt><trkpt lat="45.6843868" lon="10.6468785"><ele>329.0</ele><time>2026-04-26T09:27:05.093Z</time></trkpt><trkpt lat="45.684338" lon="10.6467283"><ele>329.0</ele><time>2026-04-26T09:27:06.093Z</time></trkpt><trkpt lat="45.6843186" lon="10.6465725"><ele>329.0</ele><time>2026-04-26T09:27:07.093Z</time></trkpt><trkpt lat="45.6843233" lon="10.6464279"><ele>329.0</ele><time>2026-04-26T09:27:08.093Z</time></trkpt><trkpt lat="45.6843289" lon="10.6462959"><ele>329.0</ele><time>2026-04-26T09:27:09.093Z</time></trkpt><trkpt lat="45.6843098" lon="10.6461997"><ele>329.0</ele><time>2026-04-26T09:27:10.093Z</time></trkpt><trkpt lat="45.6842684" lon="10.6461229"><ele>329.0</ele><time>2026-04-26T09:27:11.092Z</time></trkpt><trkpt lat="45.6841566" lon="10.6461148"><ele>329.0</ele><time>2026-04-26T09:27:13.093Z</time></trkpt><trkpt lat="45.6841062" lon="10.6462672"><ele>329.0</ele><time>2026-04-26T09:27:15.093Z</time></trkpt><trkpt lat="45.6841217" lon="10.6463785"><ele>329.0</ele><time>2026-04-26T09:27:16.093Z</time></trkpt><trkpt lat="45.6841561" lon="10.6465162"><ele>329.0</ele><time>2026-04-26T09:27:17.093Z</time></trkpt><trkpt lat="45.6841901" lon="10.6466756"><ele>329.0</ele><time>2026-04-26T09:27:18.093Z</time></trkpt><trkpt lat="45.6842245" lon="10.6468546"><ele>329.0</ele><time>2026-04-26T09:27:19.093Z</time></trkpt><trkpt lat="45.6842721" lon="10.6470409"><ele>329.0</ele><time>2026-04-26T09:27:20.093Z</time></trkpt><trkpt lat="45.6843305" lon="10.6472253"><ele>329.5</ele><time>2026-04-26T09:27:21.093Z</time></trkpt><trkpt lat="45.6843778" lon="10.6474033"><ele>330.0</ele><time>2026-04-26T09:27:22.093Z</time></trkpt><trkpt lat="45.6844199" lon="10.6475617"><ele>330.5</ele><time>2026-04-26T09:27:23.092Z</time></trkpt><trkpt lat="45.6844645" lon="10.6477195"><ele>331.0</ele><time>2026-04-26T09:27:24.093Z</time></trkpt><trkpt lat="45.6845119" lon="10.6478589"><ele>331.0</ele><time>2026-04-26T09:27:25.093Z</time></trkpt><trkpt lat="45.6845723" lon="10.6479848"><ele>331.0</ele><time>2026-04-26T09:27:26.093Z</time></trkpt><trkpt lat="45.6846416" lon="10.6480902"><ele>331.0</ele><time>2026-04-26T09:27:27.093Z</time></trkpt><trkpt lat="45.6847172" lon="10.6481739"><ele>331.0</ele><time>2026-04-26T09:27:28.093Z</time></trkpt><trkpt lat="45.6847923" lon="10.6482558"><ele>331.0</ele><time>2026-04-26T09:27:29.092Z</time></trkpt><trkpt lat="45.684865" lon="10.6483459"><ele>331.0</ele><time>2026-04-26T09:27:30.093Z</time></trkpt><trkpt lat="45.6849316" lon="10.6484495"><ele>331.0</ele><time>2026-04-26T09:27:31.093Z</time></trkpt><trkpt lat="45.68499" lon="10.6485709"><ele>331.0</ele><time>2026-04-26T09:27:32.092Z</time></trkpt><trkpt lat="45.6850227" lon="10.6487226"><ele>331.0</ele><time>2026-04-26T09:27:33.093Z</time></trkpt><trkpt lat="45.6850444" lon="10.6488744"><ele>331.0</ele><time>2026-04-26T09:27:34.093Z</time></trkpt><trkpt lat="45.6850666" lon="10.6490205"><ele>330.8</ele><time>2026-04-26T09:27:35.093Z</time></trkpt><trkpt lat="45.6850856" lon="10.6491582"><ele>330.6</ele><time>2026-04-26T09:27:36.092Z</time></trkpt><trkpt lat="45.6851208" lon="10.6492872"><ele>330.4</ele><time>2026-04-26T09:27:37.093Z</time></trkpt><trkpt lat="45.6851762" lon="10.6494209"><ele>330.2</ele><time>2026-04-26T09:27:38.093Z</time></trkpt><trkpt lat="45.6852437" lon="10.6495558"><ele>330.0</ele><time>2026-04-26T09:27:39.093Z</time></trkpt><trkpt lat="45.6853129" lon="10.64968"><ele>330.0</ele><time>2026-04-26T09:27:40.093Z</time></trkpt><trkpt lat="45.6853793" lon="10.6498097"><ele>330.0</ele><time>2026-04-26T09:27:41.093Z</time></trkpt><trkpt lat="45.685439" lon="10.6499552"><ele>330.0</ele><time>2026-04-26T09:27:42.093Z</time></trkpt><trkpt lat="45.6854911" lon="10.6501097"><ele>330.0</ele><time>2026-04-26T09:27:43.093Z</time></trkpt><trkpt lat="45.6855394" lon="10.6502608"><ele>324.25</ele><time>2026-04-26T09:27:44.093Z</time></trkpt><trkpt lat="45.6856035" lon="10.6504148"><ele>318.5</ele><time>2026-04-26T09:27:45.093Z</time></trkpt><trkpt lat="45.6856886" lon="10.650572"><ele>312.75</ele><time>2026-04-26T09:27:46.093Z</time></trkpt><trkpt lat="45.6858015" lon="10.6507453"><ele>307.0</ele><time>2026-04-26T09:27:47.093Z</time></trkpt><trkpt lat="45.6859283" lon="10.6509469"><ele>306.3333333333333</ele><time>2026-04-26T09:27:48.093Z</time></trkpt><trkpt lat="45.6860532" lon="10.651153"><ele>305.6666666666667</ele><time>2026-04-26T09:27:49.093Z</time></trkpt><trkpt lat="45.686189" lon="10.6513387"><ele>305.0</ele><time>2026-04-26T09:27:50.093Z</time></trkpt><trkpt lat="45.6863397" lon="10.6514784"><ele>305.0</ele><time>2026-04-26T09:27:51.093Z</time></trkpt><trkpt lat="45.6864907" lon="10.6515983"><ele>305.0</ele><time>2026-04-26T09:27:52.093Z</time></trkpt><trkpt lat="45.6866309" lon="10.6517167"><ele>305.0</ele><time>2026-04-26T09:27:53.093Z</time></trkpt><trkpt lat="45.6867738" lon="10.651815"><ele>305.0</ele><time>2026-04-26T09:27:54.093Z</time></trkpt><trkpt lat="45.6869106" lon="10.6518604"><ele>305.0</ele><time>2026-04-26T09:27:55.093Z</time></trkpt><trkpt lat="45.6870537" lon="10.6518768"><ele>305.0</ele><time>2026-04-26T09:27:56.093Z</time></trkpt><trkpt lat="45.6871834" lon="10.6518907"><ele>305.0</ele><time>2026-04-26T09:27:57.093Z</time></trkpt><trkpt lat="45.6872978" lon="10.6519297"><ele>302.75</ele><time>2026-04-26T09:27:58.093Z</time></trkpt><trkpt lat="45.6874096" lon="10.6520145"><ele>300.5</ele><time>2026-04-26T09:27:59.093Z</time></trkpt><trkpt lat="45.6875235" lon="10.652105"><ele>298.25</ele><time>2026-04-26T09:28:00.092Z</time></trkpt><trkpt lat="45.6876394" lon="10.6522027"><ele>296.0</ele><time>2026-04-26T09:28:01.093Z</time></trkpt><trkpt lat="45.6877418" lon="10.6523301"><ele>295.33333333333337</ele><time>2026-04-26T09:28:02.093Z</time></trkpt><trkpt lat="45.6878332" lon="10.6525026"><ele>294.6666666666667</ele><time>2026-04-26T09:28:03.092Z</time></trkpt><trkpt lat="45.6879256" lon="10.6526996"><ele>294.0</ele><time>2026-04-26T09:28:04.092Z</time></trkpt><trkpt lat="45.6880402" lon="10.6528953"><ele>294.0</ele><time>2026-04-26T09:28:05.093Z</time></trkpt><trkpt lat="45.6881675" lon="10.6530863"><ele>294.0</ele><time>2026-04-26T09:28:06.093Z</time></trkpt><trkpt lat="45.6882878" lon="10.6532992"><ele>294.0</ele><time>2026-04-26T09:28:07.093Z</time></trkpt><trkpt lat="45.6883991" lon="10.6535283"><ele>297.0</ele><time>2026-04-26T09:28:08.093Z</time></trkpt><trkpt lat="45.688529" lon="10.6537389"><ele>300.0</ele><time>2026-04-26T09:28:09.093Z</time></trkpt><trkpt lat="45.6886681" lon="10.6539347"><ele>303.0</ele><time>2026-04-26T09:28:10.093Z</time></trkpt><trkpt lat="45.6888028" lon="10.6541342"><ele>303.0</ele><time>2026-04-26T09:28:11.093Z</time></trkpt><trkpt lat="45.6889308" lon="10.6543309"><ele>303.0</ele><time>2026-04-26T09:28:12.093Z</time></trkpt><trkpt lat="45.6890518" lon="10.6545242"><ele>303.0</ele><time>2026-04-26T09:28:13.093Z</time></trkpt><trkpt lat="45.6891608" lon="10.6547204"><ele>297.75</ele><time>2026-04-26T09:28:14.093Z</time></trkpt><trkpt lat="45.6892549" lon="10.6549139"><ele>292.5</ele><time>2026-04-26T09:28:15.093Z</time></trkpt><trkpt lat="45.6893342" lon="10.6550742"><ele>287.25</ele><time>2026-04-26T09:28:16.093Z</time></trkpt><trkpt lat="45.6894168" lon="10.6552221"><ele>282.0</ele><time>2026-04-26T09:28:17.093Z</time></trkpt><trkpt lat="45.6895439" lon="10.6552937"><ele>281.25</ele><time>2026-04-26T09:28:18.093Z</time></trkpt><trkpt lat="45.6896646" lon="10.6553765"><ele>280.5</ele><time>2026-04-26T09:28:19.093Z</time></trkpt><trkpt lat="45.6898086" lon="10.6554332"><ele>279.75</ele><time>2026-04-26T09:28:20.092Z</time></trkpt><trkpt lat="45.6899328" lon="10.6554928"><ele>279.0</ele><time>2026-04-26T09:28:21.093Z</time></trkpt><trkpt lat="45.6900271" lon="10.6556021"><ele>279.0</ele><time>2026-04-26T09:28:22.093Z</time></trkpt><trkpt lat="45.6901037" lon="10.6557406"><ele>279.0</ele><time>2026-04-26T09:28:23.093Z</time></trkpt><trkpt lat="45.6901442" lon="10.6558981"><ele>279.0</ele><time>2026-04-26T09:28:24.093Z</time></trkpt><trkpt lat="45.6901959" lon="10.6560422"><ele>279.0</ele><time>2026-04-26T09:28:25.093Z</time></trkpt><trkpt lat="45.6902877" lon="10.6561745"><ele>282.6666666666667</ele><time>2026-04-26T09:28:26.093Z</time></trkpt><trkpt lat="45.6903856" lon="10.6563234"><ele>286.33333333333337</ele><time>2026-04-26T09:28:27.093Z</time></trkpt><trkpt lat="45.6904734" lon="10.6564992"><ele>290.0</ele><time>2026-04-26T09:28:28.093Z</time></trkpt><trkpt lat="45.6905648" lon="10.6566875"><ele>290.0</ele><time>2026-04-26T09:28:29.092Z</time></trkpt><trkpt lat="45.6906557" lon="10.6568528"><ele>290.0</ele><time>2026-04-26T09:28:30.093Z</time></trkpt><trkpt lat="45.6907475" lon="10.656981"><ele>290.0</ele><time>2026-04-26T09:28:31.093Z</time></trkpt><trkpt lat="45.6908296" lon="10.6570815"><ele>290.0</ele><time>2026-04-26T09:28:32.093Z</time></trkpt><trkpt lat="45.6908825" lon="10.6571658"><ele>286.33333333333337</ele><time>2026-04-26T09:28:33.093Z</time></trkpt><trkpt lat="45.6909097" lon="10.6572523"><ele>282.6666666666667</ele><time>2026-04-26T09:28:34.092Z</time></trkpt><trkpt lat="45.6908624" lon="10.6573715"><ele>279.0</ele><time>2026-04-26T09:28:36.093Z</time></trkpt><trkpt lat="45.6907543" lon="10.6573264"><ele>275.3333333333333</ele><time>2026-04-26T09:28:38.093Z</time></trkpt><trkpt lat="45.6907035" lon="10.657256"><ele>271.66666666666663</ele><time>2026-04-26T09:28:39.093Z</time></trkpt><trkpt lat="45.6906463" lon="10.6571884"><ele>268.0</ele><time>2026-04-26T09:28:40.093Z</time></trkpt><trkpt lat="45.6905987" lon="10.6571257"><ele>268.0</ele><time>2026-04-26T09:28:41.092Z</time></trkpt><trkpt lat="45.6905484" lon="10.6570584"><ele>268.0</ele><time>2026-04-26T09:28:42.093Z</time></trkpt><trkpt lat="45.6904942" lon="10.6569864"><ele>268.0</ele><time>2026-04-26T09:28:43.093Z</time></trkpt><trkpt lat="45.6904396" lon="10.6569065"><ele>268.0</ele><time>2026-04-26T09:28:44.093Z</time></trkpt><trkpt lat="45.6903828" lon="10.6568236"><ele>268.0</ele><time>2026-04-26T09:28:45.093Z</time></trkpt><trkpt lat="45.6903172" lon="10.6567508"><ele>268.0</ele><time>2026-04-26T09:28:46.092Z</time></trkpt><trkpt lat="45.6902362" lon="10.656703"><ele>266.66666666666663</ele><time>2026-04-26T09:28:47.093Z</time></trkpt><trkpt lat="45.6901471" lon="10.6566949"><ele>265.3333333333333</ele><time>2026-04-26T09:28:48.093Z</time></trkpt><trkpt lat="45.6900595" lon="10.6566969"><ele>264.0</ele><time>2026-04-26T09:28:49.093Z</time></trkpt><trkpt lat="45.6899798" lon="10.6567129"><ele>262.6666666666667</ele><time>2026-04-26T09:28:50.093Z</time></trkpt><trkpt lat="45.6899074" lon="10.6567053"><ele>261.33333333333337</ele><time>2026-04-26T09:28:51.093Z</time></trkpt><trkpt lat="45.6898389" lon="10.6566738"><ele>260.0</ele><time>2026-04-26T09:28:52.093Z</time></trkpt><trkpt lat="45.6897785" lon="10.6566009"><ele>260.0</ele><time>2026-04-26T09:28:53.093Z</time></trkpt><trkpt lat="45.6897239" lon="10.6565081"><ele>260.0</ele><time>2026-04-26T09:28:54.093Z</time></trkpt><trkpt lat="45.6896606" lon="10.656424"><ele>260.0</ele><time>2026-04-26T09:28:55.093Z</time></trkpt><trkpt lat="45.6895762" lon="10.6563727"><ele>260.0</ele><time>2026-04-26T09:28:56.093Z</time></trkpt><trkpt lat="45.6894891" lon="10.6563379"><ele>260.0</ele><time>2026-04-26T09:28:57.093Z</time></trkpt><trkpt lat="45.6893971" lon="10.6563048"><ele>260.0</ele><time>2026-04-26T09:28:58.093Z</time></trkpt><trkpt lat="45.6893104" lon="10.6562762"><ele>261.0</ele><time>2026-04-26T09:28:59.093Z</time></trkpt><trkpt lat="45.6892203" lon="10.6562477"><ele>262.0</ele><time>2026-04-26T09:29:00.093Z</time></trkpt><trkpt lat="45.6891239" lon="10.656196"><ele>263.0</ele><time>2026-04-26T09:29:01.093Z</time></trkpt><trkpt lat="45.6890339" lon="10.6561201"><ele>264.0</ele><time>2026-04-26T09:29:02.092Z</time></trkpt><trkpt lat="45.6889484" lon="10.6560429"><ele>265.0</ele><time>2026-04-26T09:29:03.093Z</time></trkpt><trkpt lat="45.6888579" lon="10.6559773"><ele>265.0</ele><time>2026-04-26T09:29:04.093Z</time></trkpt><trkpt lat="45.6887652" lon="10.6559168"><ele>265.0</ele><time>2026-04-26T09:29:05.093Z</time></trkpt><trkpt lat="45.68867" lon="10.6558711"><ele>265.0</ele><time>2026-04-26T09:29:06.092Z</time></trkpt><trkpt lat="45.6885739" lon="10.6558244"><ele>265.0</ele><time>2026-04-26T09:29:07.092Z</time></trkpt><trkpt lat="45.6884815" lon="10.6557498"><ele>265.0</ele><time>2026-04-26T09:29:08.093Z</time></trkpt><trkpt lat="45.6884024" lon="10.6556469"><ele>263.6</ele><time>2026-04-26T09:29:09.092Z</time></trkpt><trkpt lat="45.6883374" lon="10.6555208"><ele>262.2</ele><time>2026-04-26T09:29:10.093Z</time></trkpt><trkpt lat="45.6882757" lon="10.6554037"><ele>260.8</ele><time>2026-04-26T09:29:11.093Z</time></trkpt><trkpt lat="45.6882034" lon="10.6553028"><ele>259.4</ele><time>2026-04-26T09:29:12.093Z</time></trkpt><trkpt lat="45.6881265" lon="10.6552193"><ele>258.0</ele><time>2026-04-26T09:29:13.093Z</time></trkpt><trkpt lat="45.6880622" lon="10.6551166"><ele>258.0</ele><time>2026-04-26T09:29:14.093Z</time></trkpt><trkpt lat="45.68802" lon="10.6549922"><ele>258.0</ele><time>2026-04-26T09:29:15.093Z</time></trkpt><trkpt lat="45.6879909" lon="10.6548943"><ele>258.0</ele><time>2026-04-26T09:29:16.093Z</time></trkpt><trkpt lat="45.6879512" lon="10.6548102"><ele>258.0</ele><time>2026-04-26T09:29:17.092Z</time></trkpt><trkpt lat="45.6878993" lon="10.6547493"><ele>258.0</ele><time>2026-04-26T09:29:18.093Z</time></trkpt><trkpt lat="45.6877858" lon="10.6547272"><ele>258.0</ele><time>2026-04-26T09:29:20.093Z</time></trkpt><trkpt lat="45.68765" lon="10.6547045"><ele>255.8</ele><time>2026-04-26T09:29:22.093Z</time></trkpt><trkpt lat="45.6875766" lon="10.6546472"><ele>253.60000000000002</ele><time>2026-04-26T09:29:23.093Z</time></trkpt><trkpt lat="45.6875068" lon="10.6545634"><ele>251.39999999999998</ele><time>2026-04-26T09:29:24.093Z</time></trkpt><trkpt lat="45.6874453" lon="10.6544581"><ele>249.2</ele><time>2026-04-26T09:29:25.093Z</time></trkpt><trkpt lat="45.6873788" lon="10.6543597"><ele>247.0</ele><time>2026-04-26T09:29:26.093Z</time></trkpt><trkpt lat="45.6873024" lon="10.6542823"><ele>247.0</ele><time>2026-04-26T09:29:27.093Z</time></trkpt><trkpt lat="45.6872106" lon="10.6542502"><ele>247.0</ele><time>2026-04-26T09:29:28.093Z</time></trkpt><trkpt lat="45.6871148" lon="10.6542446"><ele>247.0</ele><time>2026-04-26T09:29:29.092Z</time></trkpt><trkpt lat="45.6870187" lon="10.6542377"><ele>247.0</ele><time>2026-04-26T09:29:30.092Z</time></trkpt><trkpt lat="45.6869378" lon="10.6542268"><ele>247.0</ele><time>2026-04-26T09:29:31.093Z</time></trkpt><trkpt lat="45.6868316" lon="10.6541475"><ele>245.8</ele><time>2026-04-26T09:29:33.093Z</time></trkpt><trkpt lat="45.6867952" lon="10.6539591"><ele>244.6</ele><time>2026-04-26T09:29:35.093Z</time></trkpt><trkpt lat="45.6867842" lon="10.6538396"><ele>243.40000000000003</ele><time>2026-04-26T09:29:36.093Z</time></trkpt><trkpt lat="45.6867574" lon="10.6537195"><ele>242.20000000000002</ele><time>2026-04-26T09:29:37.093Z</time></trkpt><trkpt lat="45.6867229" lon="10.6535923"><ele>241.0</ele><time>2026-04-26T09:29:38.093Z</time></trkpt><trkpt lat="45.6866894" lon="10.6534717"><ele>241.0</ele><time>2026-04-26T09:29:39.093Z</time></trkpt><trkpt lat="45.6866417" lon="10.6533495"><ele>241.00000000000003</ele><time>2026-04-26T09:29:40.093Z</time></trkpt><trkpt lat="45.6865695" lon="10.6532646"><ele>241.00000000000003</ele><time>2026-04-26T09:29:41.092Z</time></trkpt><trkpt lat="45.6864864" lon="10.6531967"><ele>241.0</ele><time>2026-04-26T09:29:42.093Z</time></trkpt><trkpt lat="45.6864072" lon="10.6531377"><ele>241.0</ele><time>2026-04-26T09:29:43.093Z</time></trkpt><trkpt lat="45.6862906" lon="10.6531959"><ele>241.0</ele><time>2026-04-26T09:29:44.092Z</time></trkpt><trkpt lat="45.6861745" lon="10.6531915"><ele>241.00000000000003</ele><time>2026-04-26T09:29:45.093Z</time></trkpt><trkpt lat="45.6860608" lon="10.6532023"><ele>241.00000000000003</ele><time>2026-04-26T09:29:46.093Z</time></trkpt><trkpt lat="45.6859688" lon="10.6532097"><ele>241.0</ele><time>2026-04-26T09:29:47.093Z</time></trkpt><trkpt lat="45.6858894" lon="10.653222"><ele>241.0</ele><time>2026-04-26T09:29:48.093Z</time></trkpt><trkpt lat="45.6858235" lon="10.6532148"><ele>242.16666666666666</ele><time>2026-04-26T09:29:49.093Z</time></trkpt><trkpt lat="45.6857621" lon="10.6531705"><ele>243.33333333333331</ele><time>2026-04-26T09:29:50.092Z</time></trkpt><trkpt lat="45.6857189" lon="10.6530966"><ele>244.5</ele><time>2026-04-26T09:29:51.092Z</time></trkpt><trkpt lat="45.6856901" lon="10.6530124"><ele>245.66666666666669</ele><time>2026-04-26T09:29:52.093Z</time></trkpt><trkpt lat="45.6856496" lon="10.6529277"><ele>246.83333333333334</ele><time>2026-04-26T09:29:53.093Z</time></trkpt><trkpt lat="45.6855801" lon="10.652837"><ele>248.0</ele><time>2026-04-26T09:29:54.093Z</time></trkpt><trkpt lat="45.6855008" lon="10.6527191"><ele>248.0</ele><time>2026-04-26T09:29:55.093Z</time></trkpt><trkpt lat="45.6854158" lon="10.6526014"><ele>248.0</ele><time>2026-04-26T09:29:56.093Z</time></trkpt><trkpt lat="45.6853181" lon="10.6524638"><ele>248.0</ele><time>2026-04-26T09:29:57.093Z</time></trkpt><trkpt lat="45.6852118" lon="10.6522981"><ele>248.0</ele><time>2026-04-26T09:29:58.093Z</time></trkpt><trkpt lat="45.6850894" lon="10.6521468"><ele>241.33333333333334</ele><time>2026-04-26T09:29:59.093Z</time></trkpt><trkpt lat="45.684983" lon="10.6519918"><ele>234.66666666666669</ele><time>2026-04-26T09:30:00.093Z</time></trkpt><trkpt lat="45.6848758" lon="10.6518131"><ele>228.0</ele><time>2026-04-26T09:30:01.093Z</time></trkpt><trkpt lat="45.6847896" lon="10.6516283"><ele>228.0</ele><time>2026-04-26T09:30:02.092Z</time></trkpt><trkpt lat="45.6847148" lon="10.6514418"><ele>228.0</ele><time>2026-04-26T09:30:03.092Z</time></trkpt><trkpt lat="45.6846366" lon="10.6512811"><ele>228.0</ele><time>2026-04-26T09:30:04.093Z</time></trkpt><trkpt lat="45.6845521" lon="10.6511513"><ele>228.0</ele><time>2026-04-26T09:30:05.093Z</time></trkpt><trkpt lat="45.6844537" lon="10.6510716"><ele>223.0</ele><time>2026-04-26T09:30:06.093Z</time></trkpt><trkpt lat="45.6843513" lon="10.6510115"><ele>218.0</ele><time>2026-04-26T09:30:07.092Z</time></trkpt><trkpt lat="45.6842428" lon="10.6509233"><ele>213.0</ele><time>2026-04-26T09:30:08.092Z</time></trkpt><trkpt lat="45.6841354" lon="10.6507977"><ele>208.0</ele><time>2026-04-26T09:30:09.093Z</time></trkpt><trkpt lat="45.6840219" lon="10.6506753"><ele>208.0</ele><time>2026-04-26T09:30:10.092Z</time></trkpt><trkpt lat="45.6839219" lon="10.6505442"><ele>208.0</ele><time>2026-04-26T09:30:11.093Z</time></trkpt><trkpt lat="45.6838541" lon="10.6504046"><ele>208.0</ele><time>2026-04-26T09:30:12.093Z</time></trkpt><trkpt lat="45.6837897" lon="10.6502799"><ele>208.0</ele><time>2026-04-26T09:30:13.093Z</time></trkpt><trkpt lat="45.6837102" lon="10.6501965"><ele>207.75</ele><time>2026-04-26T09:30:14.093Z</time></trkpt><trkpt lat="45.6836168" lon="10.6501599"><ele>207.5</ele><time>2026-04-26T09:30:15.093Z</time></trkpt><trkpt lat="45.6834993" lon="10.650166"><ele>207.25</ele><time>2026-04-26T09:30:16.093Z</time></trkpt><trkpt lat="45.6833918" lon="10.6501855"><ele>207.0</ele><time>2026-04-26T09:30:17.093Z</time></trkpt><trkpt lat="45.6832669" lon="10.6502382"><ele>207.0</ele><time>2026-04-26T09:30:18.092Z</time></trkpt><trkpt lat="45.6831634" lon="10.6502233"><ele>207.0</ele><time>2026-04-26T09:30:19.093Z</time></trkpt><trkpt lat="45.6830586" lon="10.6501502"><ele>207.0</ele><time>2026-04-26T09:30:20.093Z</time></trkpt><trkpt lat="45.682946" lon="10.650081"><ele>207.0</ele><time>2026-04-26T09:30:21.093Z</time></trkpt><trkpt lat="45.6828245" lon="10.6500592"><ele>201.0</ele><time>2026-04-26T09:30:22.093Z</time></trkpt><trkpt lat="45.6827093" lon="10.6500341"><ele>195.0</ele><time>2026-04-26T09:30:23.093Z</time></trkpt><trkpt lat="45.6826013" lon="10.6499592"><ele>189.0</ele><time>2026-04-26T09:30:24.093Z</time></trkpt><trkpt lat="45.682511" lon="10.6498452"><ele>183.0</ele><time>2026-04-26T09:30:25.092Z</time></trkpt><trkpt lat="45.6824592" lon="10.6497107"><ele>183.0</ele><time>2026-04-26T09:30:26.093Z</time></trkpt><trkpt lat="45.6824289" lon="10.64957"><ele>183.0</ele><time>2026-04-26T09:30:27.093Z</time></trkpt><trkpt lat="45.6823768" lon="10.6494685"><ele>183.0</ele><time>2026-04-26T09:30:28.092Z</time></trkpt><trkpt lat="45.6823007" lon="10.6493791"><ele>183.0</ele><time>2026-04-26T09:30:29.093Z</time></trkpt><trkpt lat="45.6821839" lon="10.6493757"><ele>183.0</ele><time>2026-04-26T09:30:30.093Z</time></trkpt><trkpt lat="45.6820457" lon="10.6494052"><ele>185.25</ele><time>2026-04-26T09:30:31.093Z</time></trkpt><trkpt lat="45.6819074" lon="10.6494104"><ele>187.5</ele><time>2026-04-26T09:30:32.093Z</time></trkpt><trkpt lat="45.6817903" lon="10.6494065"><ele>189.75</ele><time>2026-04-26T09:30:33.092Z</time></trkpt><trkpt lat="45.6816916" lon="10.6493846"><ele>192.0</ele><time>2026-04-26T09:30:34.093Z</time></trkpt><trkpt lat="45.6815839" lon="10.6492998"><ele>192.0</ele><time>2026-04-26T09:30:35.093Z</time></trkpt><trkpt lat="45.6814874" lon="10.6491669"><ele>192.0</ele><time>2026-04-26T09:30:36.093Z</time></trkpt><trkpt lat="45.6813966" lon="10.6490593"><ele>192.0</ele><time>2026-04-26T09:30:37.093Z</time></trkpt><trkpt lat="45.6812905" lon="10.6489996"><ele>192.0</ele><time>2026-04-26T09:30:38.093Z</time></trkpt><trkpt lat="45.6811663" lon="10.6490037"><ele>187.75</ele><time>2026-04-26T09:30:39.093Z</time></trkpt><trkpt lat="45.6810437" lon="10.6490405"><ele>183.5</ele><time>2026-04-26T09:30:40.093Z</time></trkpt><trkpt lat="45.6809287" lon="10.6490569"><ele>179.25</ele><time>2026-04-26T09:30:41.092Z</time></trkpt><trkpt lat="45.6808114" lon="10.6490317"><ele>175.0</ele><time>2026-04-26T09:30:42.093Z</time></trkpt><trkpt lat="45.6806867" lon="10.648954"><ele>175.0</ele><time>2026-04-26T09:30:43.093Z</time></trkpt><trkpt lat="45.6805561" lon="10.6488666"><ele>175.0</ele><time>2026-04-26T09:30:44.093Z</time></trkpt><trkpt lat="45.6804263" lon="10.6487647"><ele>175.0</ele><time>2026-04-26T09:30:45.093Z</time></trkpt><trkpt lat="45.6802942" lon="10.6486427"><ele>175.0</ele><time>2026-04-26T09:30:46.093Z</time></trkpt><trkpt lat="45.68017" lon="10.6485183"><ele>175.0</ele><time>2026-04-26T09:30:47.093Z</time></trkpt><trkpt lat="45.6800569" lon="10.6483862"><ele>175.0</ele><time>2026-04-26T09:30:48.093Z</time></trkpt><trkpt lat="45.6799743" lon="10.648246"><ele>175.0</ele><time>2026-04-26T09:30:49.092Z</time></trkpt><trkpt lat="45.6799113" lon="10.6481293"><ele>175.0</ele><time>2026-04-26T09:30:50.093Z</time></trkpt><trkpt lat="45.6798412" lon="10.6480656"><ele>175.0</ele><time>2026-04-26T09:30:51.093Z</time></trkpt><trkpt lat="45.6797639" lon="10.6480636"><ele>175.0</ele><time>2026-04-26T09:30:52.092Z</time></trkpt><trkpt lat="45.679718" lon="10.6481354"><ele>175.0</ele><time>2026-04-26T09:30:53.092Z</time></trkpt><trkpt lat="45.679718" lon="10.6482475"><ele>175.0</ele><time>2026-04-26T09:30:54.093Z</time></trkpt><trkpt lat="45.6797728" lon="10.6483642"><ele>175.0</ele><time>2026-04-26T09:30:55.092Z</time></trkpt><trkpt lat="45.6798606" lon="10.6484875"><ele>175.0</ele><time>2026-04-26T09:30:56.093Z</time></trkpt><trkpt lat="45.6799643" lon="10.6486261"><ele>175.0</ele><time>2026-04-26T09:30:57.093Z</time></trkpt><trkpt lat="45.6800796" lon="10.6487818"><ele>175.0</ele><time>2026-04-26T09:30:58.093Z</time></trkpt><trkpt lat="45.6802021" lon="10.6489402"><ele>175.0</ele><time>2026-04-26T09:30:59.093Z</time></trkpt><trkpt lat="45.6803377" lon="10.6490895"><ele>175.0</ele><time>2026-04-26T09:31:00.092Z</time></trkpt><trkpt lat="45.6804685" lon="10.6492303"><ele>175.0</ele><time>2026-04-26T09:31:01.093Z</time></trkpt><trkpt lat="45.6805838" lon="10.649354"><ele>175.0</ele><time>2026-04-26T09:31:02.093Z</time></trkpt><trkpt lat="45.6806973" lon="10.6494362"><ele>175.0</ele><time>2026-04-26T09:31:03.092Z</time></trkpt><trkpt lat="45.6808197" lon="10.6494494"><ele>175.0</ele><time>2026-04-26T09:31:04.093Z</time></trkpt><trkpt lat="45.6809231" lon="10.6494244"><ele>175.0</ele><time>2026-04-26T09:31:05.093Z</time></trkpt><trkpt lat="45.6810065" lon="10.6494339"><ele>175.0</ele><time>2026-04-26T09:31:06.093Z</time></trkpt><trkpt lat="45.6810791" lon="10.6495168"><ele>175.0</ele><time>2026-04-26T09:31:07.093Z</time></trkpt><trkpt lat="45.6811438" lon="10.6496566"><ele>175.0</ele><time>2026-04-26T09:31:08.093Z</time></trkpt><trkpt lat="45.6812035" lon="10.6498266"><ele>173.25</ele><time>2026-04-26T09:31:09.093Z</time></trkpt><trkpt lat="45.6812563" lon="10.6500029"><ele>171.5</ele><time>2026-04-26T09:31:10.093Z</time></trkpt><trkpt lat="45.6813151" lon="10.6501677"><ele>169.75</ele><time>2026-04-26T09:31:11.093Z</time></trkpt><trkpt lat="45.6813802" lon="10.6503222"><ele>168.0</ele><time>2026-04-26T09:31:12.092Z</time></trkpt><trkpt lat="45.6814799" lon="10.6503852"><ele>168.0</ele><time>2026-04-26T09:31:13.093Z</time></trkpt><trkpt lat="45.6815841" lon="10.6504035"><ele>168.0</ele><time>2026-04-26T09:31:14.093Z</time></trkpt><trkpt lat="45.6816874" lon="10.6503717"><ele>168.0</ele><time>2026-04-26T09:31:15.092Z</time></trkpt><trkpt lat="45.6817626" lon="10.6502878"><ele>168.0</ele><time>2026-04-26T09:31:16.093Z</time></trkpt><trkpt lat="45.6818312" lon="10.6501805"><ele>168.0</ele><time>2026-04-26T09:31:17.093Z</time></trkpt><trkpt lat="45.6819025" lon="10.6501023"><ele>166.4</ele><time>2026-04-26T09:31:18.093Z</time></trkpt><trkpt lat="45.6819684" lon="10.6500739"><ele>164.8</ele><time>2026-04-26T09:31:19.093Z</time></trkpt><trkpt lat="45.6820521" lon="10.650074"><ele>163.2</ele><time>2026-04-26T09:31:20.093Z</time></trkpt><trkpt lat="45.6820814" lon="10.6502075"><ele>161.6</ele><time>2026-04-26T09:31:21.093Z</time></trkpt><trkpt lat="45.682121" lon="10.6503307"><ele>160.0</ele><time>2026-04-26T09:31:22.093Z</time></trkpt><trkpt lat="45.6821679" lon="10.6504691"><ele>160.0</ele><time>2026-04-26T09:31:23.092Z</time></trkpt><trkpt lat="45.6822078" lon="10.6506321"><ele>160.0</ele><time>2026-04-26T09:31:24.092Z</time></trkpt><trkpt lat="45.6822247" lon="10.6507928"><ele>160.0</ele><time>2026-04-26T09:31:25.093Z</time></trkpt><trkpt lat="45.6822611" lon="10.6509306"><ele>160.0</ele><time>2026-04-26T09:31:26.092Z</time></trkpt><trkpt lat="45.6823244" lon="10.6510437"><ele>160.0</ele><time>2026-04-26T09:31:27.093Z</time></trkpt><trkpt lat="45.6824118" lon="10.6510987"><ele>160.0</ele><time>2026-04-26T09:31:28.093Z</time></trkpt><trkpt lat="45.6825197" lon="10.6511022"><ele>160.0</ele><time>2026-04-26T09:31:29.093Z</time></trkpt><trkpt lat="45.6826213" lon="10.6511141"><ele>160.0</ele><time>2026-04-26T09:31:30.093Z</time></trkpt><trkpt lat="45.682722" lon="10.6511779"><ele>160.0</ele><time>2026-04-26T09:31:31.093Z</time></trkpt><trkpt lat="45.6828023" lon="10.6512755"><ele>160.0</ele><time>2026-04-26T09:31:32.093Z</time></trkpt><trkpt lat="45.6828853" lon="10.6513749"><ele>157.8</ele><time>2026-04-26T09:31:33.093Z</time></trkpt><trkpt lat="45.6829883" lon="10.6514561"><ele>155.6</ele><time>2026-04-26T09:31:34.093Z</time></trkpt><trkpt lat="45.6830837" lon="10.6515073"><ele>153.4</ele><time>2026-04-26T09:31:35.093Z</time></trkpt><trkpt lat="45.6831793" lon="10.6515104"><ele>151.2</ele><time>2026-04-26T09:31:36.092Z</time></trkpt><trkpt lat="45.6832654" lon="10.6514584"><ele>149.0</ele><time>2026-04-26T09:31:37.092Z</time></trkpt><trkpt lat="45.6833451" lon="10.6513906"><ele>149.0</ele><time>2026-04-26T09:31:38.092Z</time></trkpt><trkpt lat="45.6834251" lon="10.6513618"><ele>149.0</ele><time>2026-04-26T09:31:39.093Z</time></trkpt><trkpt lat="45.6835023" lon="10.6514084"><ele>149.0</ele><time>2026-04-26T09:31:40.093Z</time></trkpt><trkpt lat="45.6835609" lon="10.6515196"><ele>149.0</ele><time>2026-04-26T09:31:41.093Z</time></trkpt><trkpt lat="45.6835904" lon="10.651679"><ele>149.0</ele><time>2026-04-26T09:31:42.093Z</time></trkpt><trkpt lat="45.6836143" lon="10.6518713"><ele>154.0</ele><time>2026-04-26T09:31:43.093Z</time></trkpt><trkpt lat="45.6836477" lon="10.6520874"><ele>159.0</ele><time>2026-04-26T09:31:44.092Z</time></trkpt><trkpt lat="45.6836789" lon="10.6523154"><ele>164.0</ele><time>2026-04-26T09:31:45.093Z</time></trkpt><trkpt lat="45.6837073" lon="10.6525508"><ele>164.0</ele><time>2026-04-26T09:31:46.093Z</time></trkpt><trkpt lat="45.6837242" lon="10.6527859"><ele>164.0</ele><time>2026-04-26T09:31:47.093Z</time></trkpt><trkpt lat="45.6837248" lon="10.653016"><ele>164.0</ele><time>2026-04-26T09:31:48.092Z</time></trkpt><trkpt lat="45.6837128" lon="10.6532254"><ele>159.66666666666666</ele><time>2026-04-26T09:31:49.093Z</time></trkpt><trkpt lat="45.6837318" lon="10.6534222"><ele>155.33333333333334</ele><time>2026-04-26T09:31:50.093Z</time></trkpt><trkpt lat="45.6838012" lon="10.6536195"><ele>151.0</ele><time>2026-04-26T09:31:51.093Z</time></trkpt><trkpt lat="45.6838847" lon="10.6538275"><ele>145.33333333333334</ele><time>2026-04-26T09:31:52.093Z</time></trkpt><trkpt lat="45.6839686" lon="10.6540236"><ele>139.66666666666666</ele><time>2026-04-26T09:31:53.092Z</time></trkpt><trkpt lat="45.684046" lon="10.65421"><ele>134.0</ele><time>2026-04-26T09:31:54.093Z</time></trkpt><trkpt lat="45.6841037" lon="10.6544083"><ele>131.25</ele><time>2026-04-26T09:31:55.092Z</time></trkpt><trkpt lat="45.684141" lon="10.6546128"><ele>128.5</ele><time>2026-04-26T09:31:56.093Z</time></trkpt><trkpt lat="45.6841809" lon="10.6548175"><ele>125.75</ele><time>2026-04-26T09:31:57.093Z</time></trkpt><trkpt lat="45.6842329" lon="10.6550144"><ele>123.0</ele><time>2026-04-26T09:31:58.093Z</time></trkpt><trkpt lat="45.6842928" lon="10.6551916"><ele>123.5</ele><time>2026-04-26T09:31:59.093Z</time></trkpt><trkpt lat="45.684367" lon="10.6553242"><ele>124.0</ele><time>2026-04-26T09:32:00.093Z</time></trkpt><trkpt lat="45.6844623" lon="10.6554155"><ele>124.5</ele><time>2026-04-26T09:32:01.093Z</time></trkpt><trkpt lat="45.6845705" lon="10.6554563"><ele>125.0</ele><time>2026-04-26T09:32:02.093Z</time></trkpt><trkpt lat="45.6847058" lon="10.6554515"><ele>125.0</ele><time>2026-04-26T09:32:03.092Z</time></trkpt><trkpt lat="45.6848331" lon="10.655419"><ele>125.0</ele><time>2026-04-26T09:32:04.093Z</time></trkpt><trkpt lat="45.684971" lon="10.6554023"><ele>125.0</ele><time>2026-04-26T09:32:05.093Z</time></trkpt><trkpt lat="45.6851075" lon="10.6554115"><ele>125.0</ele><time>2026-04-26T09:32:06.093Z</time></trkpt><trkpt lat="45.6852252" lon="10.6554204"><ele>125.0</ele><time>2026-04-26T09:32:07.093Z</time></trkpt><trkpt lat="45.6852916" lon="10.6554496"><ele>125.0</ele><time>2026-04-26T09:32:08.093Z</time></trkpt><trkpt lat="45.6853477" lon="10.6555006"><ele>125.0</ele><time>2026-04-26T09:32:09.093Z</time></trkpt><trkpt lat="45.6853702" lon="10.6555854"><ele>125.0</ele><time>2026-04-26T09:32:10.093Z</time></trkpt><trkpt lat="45.6853601" lon="10.6556766"><ele>125.0</ele><time>2026-04-26T09:32:11.093Z</time></trkpt><trkpt lat="45.6853208" lon="10.6557481"><ele>125.0</ele><time>2026-04-26T09:32:12.093Z</time></trkpt><trkpt lat="45.6852643" lon="10.6558072"><ele>125.0</ele><time>2026-04-26T09:32:13.093Z</time></trkpt><trkpt lat="45.6851888" lon="10.6558519"><ele>124.99999999999999</ele><time>2026-04-26T09:32:14.093Z</time></trkpt><trkpt lat="45.6851277" lon="10.6559232"><ele>125.0</ele><time>2026-04-26T09:32:15.093Z</time></trkpt><trkpt lat="45.6850645" lon="10.6560147"><ele>125.0</ele><time>2026-04-26T09:32:16.093Z</time></trkpt><trkpt lat="45.6850044" lon="10.6561066"><ele>125.0</ele><time>2026-04-26T09:32:17.093Z</time></trkpt><trkpt lat="45.6849409" lon="10.656206"><ele>124.99999999999999</ele><time>2026-04-26T09:32:18.092Z</time></trkpt><trkpt lat="45.6848875" lon="10.6563008"><ele>125.0</ele><time>2026-04-26T09:32:19.093Z</time></trkpt><trkpt lat="45.6848403" lon="10.6563991"><ele>124.66666666666666</ele><time>2026-04-26T09:32:20.093Z</time></trkpt><trkpt lat="45.6848285" lon="10.6564978"><ele>124.33333333333333</ele><time>2026-04-26T09:32:21.092Z</time></trkpt><trkpt lat="45.6848799" lon="10.6566165"><ele>124.0</ele><time>2026-04-26T09:32:22.093Z</time></trkpt><trkpt lat="45.6849306" lon="10.6567245"><ele>123.66666666666666</ele><time>2026-04-26T09:32:23.093Z</time></trkpt><trkpt lat="45.684986" lon="10.6568333"><ele>123.33333333333333</ele><time>2026-04-26T09:32:24.092Z</time></trkpt><trkpt lat="45.6850402" lon="10.6569394"><ele>123.0</ele><time>2026-04-26T09:32:25.092Z</time></trkpt><trkpt lat="45.6851008" lon="10.6570535"><ele>124.4</ele><time>2026-04-26T09:32:26.093Z</time></trkpt><trkpt lat="45.6851547" lon="10.6571613"><ele>125.80000000000001</ele><time>2026-04-26T09:32:27.093Z</time></trkpt><trkpt lat="45.6852156" lon="10.6572622"><ele>127.2</ele><time>2026-04-26T09:32:28.093Z</time></trkpt><trkpt lat="45.6852742" lon="10.6573628"><ele>128.6</ele><time>2026-04-26T09:32:29.093Z</time></trkpt><trkpt lat="45.6853375" lon="10.6574608"><ele>130.0</ele><time>2026-04-26T09:32:30.093Z</time></trkpt><trkpt lat="45.6854062" lon="10.6575583"><ele>130.0</ele><time>2026-04-26T09:32:31.093Z</time></trkpt><trkpt lat="45.685486" lon="10.657649"><ele>130.0</ele><time>2026-04-26T09:32:32.093Z</time></trkpt><trkpt lat="45.6855602" lon="10.6577375"><ele>130.0</ele><time>2026-04-26T09:32:33.093Z</time></trkpt><trkpt lat="45.6856325" lon="10.6578215"><ele>130.0</ele><time>2026-04-26T09:32:34.093Z</time></trkpt><trkpt lat="45.6857039" lon="10.6578982"><ele>130.0</ele><time>2026-04-26T09:32:35.093Z</time></trkpt><trkpt lat="45.6857739" lon="10.6579696"><ele>129.16666666666669</ele><time>2026-04-26T09:32:36.093Z</time></trkpt><trkpt lat="45.6858409" lon="10.6580421"><ele>128.33333333333334</ele><time>2026-04-26T09:32:37.093Z</time></trkpt><trkpt lat="45.6859114" lon="10.6581164"><ele>127.5</ele><time>2026-04-26T09:32:38.093Z</time></trkpt><trkpt lat="45.6859868" lon="10.6581653"><ele>126.66666666666666</ele><time>2026-04-26T09:32:39.093Z</time></trkpt><trkpt lat="45.6860677" lon="10.6581932"><ele>125.83333333333333</ele><time>2026-04-26T09:32:40.093Z</time></trkpt><trkpt lat="45.6861549" lon="10.658214"><ele>125.0</ele><time>2026-04-26T09:32:41.093Z</time></trkpt><trkpt lat="45.6862343" lon="10.6582206"><ele>124.99999999999999</ele><time>2026-04-26T09:32:42.093Z</time></trkpt><trkpt lat="45.6863168" lon="10.6582289"><ele>125.0</ele><time>2026-04-26T09:32:43.093Z</time></trkpt><trkpt lat="45.686396" lon="10.658258"><ele>125.0</ele><time>2026-04-26T09:32:44.092Z</time></trkpt><trkpt lat="45.6864711" lon="10.6583015"><ele>125.0</ele><time>2026-04-26T09:32:45.093Z</time></trkpt><trkpt lat="45.6865278" lon="10.6583757"><ele>124.99999999999999</ele><time>2026-04-26T09:32:46.093Z</time></trkpt><trkpt lat="45.6865729" lon="10.6584816"><ele>125.0</ele><time>2026-04-26T09:32:47.092Z</time></trkpt><trkpt lat="45.6866109" lon="10.6585926"><ele>122.83333333333333</ele><time>2026-04-26T09:32:48.093Z</time></trkpt><trkpt lat="45.6866304" lon="10.6587111"><ele>120.66666666666666</ele><time>2026-04-26T09:32:49.093Z</time></trkpt><trkpt lat="45.6866257" lon="10.6588295"><ele>118.5</ele><time>2026-04-26T09:32:50.093Z</time></trkpt><trkpt lat="45.6865983" lon="10.6589354"><ele>116.33333333333334</ele><time>2026-04-26T09:32:51.092Z</time></trkpt><trkpt lat="45.6865946" lon="10.6590374"><ele>114.16666666666667</ele><time>2026-04-26T09:32:52.093Z</time></trkpt><trkpt lat="45.686633" lon="10.659134"><ele>112.0</ele><time>2026-04-26T09:32:53.092Z</time></trkpt><trkpt lat="45.6866895" lon="10.6592274"><ele>112.0</ele><time>2026-04-26T09:32:54.093Z</time></trkpt><trkpt lat="45.6867558" lon="10.6593134"><ele>111.99999999999999</ele><time>2026-04-26T09:32:55.093Z</time></trkpt><trkpt lat="45.6868229" lon="10.6593975"><ele>111.99999999999999</ele><time>2026-04-26T09:32:56.093Z</time></trkpt><trkpt lat="45.6868948" lon="10.6594718"><ele>112.0</ele><time>2026-04-26T09:32:57.093Z</time></trkpt><trkpt lat="45.6869756" lon="10.6595371"><ele>112.0</ele><time>2026-04-26T09:32:58.093Z</time></trkpt><trkpt lat="45.6870653" lon="10.6595955"><ele>110.16666666666667</ele><time>2026-04-26T09:32:59.092Z</time></trkpt><trkpt lat="45.6871421" lon="10.6596682"><ele>108.33333333333334</ele><time>2026-04-26T09:33:00.093Z</time></trkpt><trkpt lat="45.6872161" lon="10.6597448"><ele>106.5</ele><time>2026-04-26T09:33:01.093Z</time></trkpt><trkpt lat="45.6872893" lon="10.6598169"><ele>104.66666666666666</ele><time>2026-04-26T09:33:02.092Z</time></trkpt><trkpt lat="45.6873611" lon="10.6598807"><ele>102.83333333333333</ele><time>2026-04-26T09:33:03.092Z</time></trkpt><trkpt lat="45.6874346" lon="10.6599298"><ele>101.0</ele><time>2026-04-26T09:33:04.093Z</time></trkpt><trkpt lat="45.6875173" lon="10.6599374"><ele>101.0</ele><time>2026-04-26T09:33:05.092Z</time></trkpt><trkpt lat="45.6875901" lon="10.6599146"><ele>101.0</ele><time>2026-04-26T09:33:06.092Z</time></trkpt><trkpt lat="45.6876649" lon="10.6598787"><ele>101.0</ele><time>2026-04-26T09:33:07.093Z</time></trkpt><trkpt lat="45.6877398" lon="10.6598661"><ele>101.0</ele><time>2026-04-26T09:33:08.092Z</time></trkpt><trkpt lat="45.6878411" lon="10.659928"><ele>101.0</ele><time>2026-04-26T09:33:10.093Z</time></trkpt><trkpt lat="45.6878289" lon="10.6600869"><ele>101.19999999999999</ele><time>2026-04-26T09:33:12.093Z</time></trkpt><trkpt lat="45.6877862" lon="10.6602229"><ele>101.39999999999999</ele><time>2026-04-26T09:33:14.093Z</time></trkpt><trkpt lat="45.687782" lon="10.660358"><ele>101.6</ele><time>2026-04-26T09:33:16.093Z</time></trkpt><trkpt lat="45.6878325" lon="10.6604916"><ele>101.8</ele><time>2026-04-26T09:33:18.093Z</time></trkpt><trkpt lat="45.6878969" lon="10.6605966"><ele>102.0</ele><time>2026-04-26T09:33:20.093Z</time></trkpt><trkpt lat="45.6879728" lon="10.6607183"><ele>102.0</ele><time>2026-04-26T09:33:22.093Z</time></trkpt><trkpt lat="45.6880557" lon="10.6608518"><ele>102.0</ele><time>2026-04-26T09:33:24.093Z</time></trkpt><trkpt lat="45.6880957" lon="10.6609233"><ele>102.0</ele><time>2026-04-26T09:33:25.092Z</time></trkpt><trkpt lat="45.688139" lon="10.6610008"><ele>102.0</ele><time>2026-04-26T09:33:26.093Z</time></trkpt><trkpt lat="45.6881849" lon="10.661089"><ele>102.0</ele><time>2026-04-26T09:33:27.092Z</time></trkpt><trkpt lat="45.6882321" lon="10.6611759"><ele>102.0</ele><time>2026-04-26T09:33:28.093Z</time></trkpt><trkpt lat="45.6882791" lon="10.6612592"><ele>101.85714285714286</ele><time>2026-04-26T09:33:29.093Z</time></trkpt><trkpt lat="45.688329" lon="10.6613446"><ele>101.71428571428572</ele><time>2026-04-26T09:33:30.092Z</time></trkpt><trkpt lat="45.6883752" lon="10.6614254"><ele>101.57142857142857</ele><time>2026-04-26T09:33:31.092Z</time></trkpt><trkpt lat="45.688422" lon="10.6615047"><ele>101.42857142857143</ele><time>2026-04-26T09:33:32.093Z</time></trkpt><trkpt lat="45.6884671" lon="10.6615915"><ele>101.28571428571428</ele><time>2026-04-26T09:33:33.093Z</time></trkpt><trkpt lat="45.6885146" lon="10.6616697"><ele>101.14285714285714</ele><time>2026-04-26T09:33:34.093Z</time></trkpt><trkpt lat="45.68856" lon="10.6617566"><ele>101.0</ele><time>2026-04-26T09:33:35.093Z</time></trkpt><trkpt lat="45.6885951" lon="10.6618362"><ele>100.99999999999999</ele><time>2026-04-26T09:33:36.093Z</time></trkpt><trkpt lat="45.688634" lon="10.6619213"><ele>101.0</ele><time>2026-04-26T09:33:37.092Z</time></trkpt><trkpt lat="45.6886701" lon="10.6619961"><ele>101.0</ele><time>2026-04-26T09:33:38.093Z</time></trkpt><trkpt lat="45.6887132" lon="10.6620714"><ele>101.0</ele><time>2026-04-26T09:33:39.093Z</time></trkpt><trkpt lat="45.6888003" lon="10.6621758"><ele>100.99999999999999</ele><time>2026-04-26T09:33:41.093Z</time></trkpt><trkpt lat="45.6888671" lon="10.6622351"><ele>101.0</ele><time>2026-04-26T09:33:43.092Z</time></trkpt><trkpt lat="45.688808" lon="10.6623055"><ele>99.4</ele><time>2026-04-26T09:34:55.093Z</time></trkpt><trkpt lat="45.6887215" lon="10.6622784"><ele>97.8</ele><time>2026-04-26T09:36:23.092Z</time></trkpt><trkpt lat="45.688683" lon="10.6622057"><ele>96.2</ele><time>2026-04-26T09:36:24.093Z</time></trkpt><trkpt lat="45.6886331" lon="10.6621017"><ele>94.60000000000001</ele><time>2026-04-26T09:36:25.093Z</time></trkpt><trkpt lat="45.6885722" lon="10.6619922"><ele>93.0</ele><time>2026-04-26T09:36:26.092Z</time></trkpt><trkpt lat="45.6884977" lon="10.6618701"><ele>91.75</ele><time>2026-04-26T09:36:27.093Z</time></trkpt><trkpt lat="45.6884126" lon="10.6617369"><ele>90.5</ele><time>2026-04-26T09:36:28.093Z</time></trkpt><trkpt lat="45.688321" lon="10.6615907"><ele>89.25</ele><time>2026-04-26T09:36:29.093Z</time></trkpt><trkpt lat="45.6882199" lon="10.6614443"><ele>88.0</ele><time>2026-04-26T09:36:30.092Z</time></trkpt><trkpt lat="45.6881145" lon="10.6612972"><ele>88.0</ele><time>2026-04-26T09:36:31.092Z</time></trkpt><trkpt lat="45.6879971" lon="10.6611644"><ele>88.0</ele><time>2026-04-26T09:36:32.093Z</time></trkpt><trkpt lat="45.6878857" lon="10.6610417"><ele>88.0</ele><time>2026-04-26T09:36:33.093Z</time></trkpt><trkpt lat="45.6877728" lon="10.6609338"><ele>88.0</ele><time>2026-04-26T09:36:34.093Z</time></trkpt><trkpt lat="45.6876552" lon="10.6608395"><ele>86.0</ele><time>2026-04-26T09:36:35.092Z</time></trkpt><trkpt lat="45.6875296" lon="10.6607511"><ele>84.0</ele><time>2026-04-26T09:36:36.092Z</time></trkpt><trkpt lat="45.6873954" lon="10.660669"><ele>82.0</ele><time>2026-04-26T09:36:37.093Z</time></trkpt><trkpt lat="45.6872706" lon="10.6605853"><ele>80.0</ele><time>2026-04-26T09:36:38.093Z</time></trkpt><trkpt lat="45.6871643" lon="10.6605129"><ele>80.0</ele><time>2026-04-26T09:36:39.093Z</time></trkpt><trkpt lat="45.6870811" lon="10.6604595"><ele>80.0</ele><time>2026-04-26T09:36:40.092Z</time></trkpt><trkpt lat="45.6870143" lon="10.6604313"><ele>80.0</ele><time>2026-04-26T09:36:41.093Z</time></trkpt><trkpt lat="45.6869468" lon="10.6604871"><ele>80.0</ele><time>2026-04-26T09:36:43.092Z</time></trkpt><trkpt lat="45.6869835" lon="10.6605649"><ele>80.0</ele><time>2026-04-26T09:36:45.093Z</time></trkpt><trkpt lat="45.6870575" lon="10.6606199"><ele>80.0</ele><time>2026-04-26T09:36:47.093Z</time></trkpt><trkpt lat="45.6871459" lon="10.6606841"><ele>80.0</ele><time>2026-04-26T09:36:49.092Z</time></trkpt><trkpt lat="45.6872618" lon="10.6607545"><ele>80.0</ele><time>2026-04-26T09:36:51.093Z</time></trkpt><trkpt lat="45.6873219" lon="10.6607978"><ele>80.0</ele><time>2026-04-26T09:36:52.093Z</time></trkpt><trkpt lat="45.6874243" lon="10.6608629"><ele>80.0</ele><time>2026-04-26T09:36:54.093Z</time></trkpt><trkpt lat="45.6875239" lon="10.6609475"><ele>80.0</ele><time>2026-04-26T09:36:56.093Z</time></trkpt><trkpt lat="45.6876092" lon="10.6610754"><ele>79.33333333333334</ele><time>2026-04-26T09:36:58.093Z</time></trkpt><trkpt lat="45.6876526" lon="10.6611527"><ele>78.66666666666667</ele><time>2026-04-26T09:36:59.093Z</time></trkpt><trkpt lat="45.6876939" lon="10.6612243"><ele>78.0</ele><time>2026-04-26T09:37:00.093Z</time></trkpt><trkpt lat="45.6877426" lon="10.6613385"><ele>77.33333333333333</ele><time>2026-04-26T09:37:02.093Z</time></trkpt><trkpt lat="45.6877261" lon="10.6614275"><ele>76.66666666666666</ele><time>2026-04-26T09:37:05.093Z</time></trkpt><trkpt lat="45.6876709" lon="10.6614974"><ele>76.0</ele><time>2026-04-26T09:37:11.093Z</time></trkpt><trkpt lat="45.6876081" lon="10.6615948"><ele>76.0</ele><time>2026-04-26T09:37:14.092Z</time></trkpt><trkpt lat="45.6875933" lon="10.6616833"><ele>76.0</ele><time>2026-04-26T09:37:16.093Z</time></trkpt><trkpt lat="45.6876231" lon="10.6618471"><ele>76.0</ele><time>2026-04-26T09:37:18.093Z</time></trkpt><trkpt lat="45.6876791" lon="10.661996"><ele>76.0</ele><time>2026-04-26T09:37:20.093Z</time></trkpt><trkpt lat="45.6877057" lon="10.6621366"><ele>76.0</ele><time>2026-04-26T09:37:22.092Z</time></trkpt><trkpt lat="45.6877421" lon="10.6622659"><ele>76.2</ele><time>2026-04-26T09:37:24.093Z</time></trkpt><trkpt lat="45.6877815" lon="10.6623847"><ele>76.39999999999999</ele><time>2026-04-26T09:37:26.093Z</time></trkpt><trkpt lat="45.6878162" lon="10.662497"><ele>76.6</ele><time>2026-04-26T09:37:28.093Z</time></trkpt><trkpt lat="45.6878626" lon="10.6626094"><ele>76.8</ele><time>2026-04-26T09:37:30.092Z</time></trkpt><trkpt lat="45.6879213" lon="10.6627232"><ele>77.0</ele><time>2026-04-26T09:37:32.093Z</time></trkpt><trkpt lat="45.6879661" lon="10.6628561"><ele>77.0</ele><time>2026-04-26T09:37:34.093Z</time></trkpt><trkpt lat="45.6880447" lon="10.662983"><ele>77.0</ele><time>2026-04-26T09:37:36.092Z</time></trkpt><trkpt lat="45.6881288" lon="10.6630964"><ele>77.0</ele><time>2026-04-26T09:37:38.093Z</time></trkpt><trkpt lat="45.6881785" lon="10.6632442"><ele>77.0</ele><time>2026-04-26T09:37:40.093Z</time></trkpt><trkpt lat="45.6882277" lon="10.6633862"><ele>77.0</ele><time>2026-04-26T09:37:42.093Z</time></trkpt><trkpt lat="45.6882667" lon="10.6635242"><ele>77.0</ele><time>2026-04-26T09:37:44.093Z</time></trkpt><trkpt lat="45.6883042" lon="10.6636669"><ele>77.0</ele><time>2026-04-26T09:37:46.093Z</time></trkpt><trkpt lat="45.688339" lon="10.6638232"><ele>77.0</ele><time>2026-04-26T09:37:48.093Z</time></trkpt><trkpt lat="45.6883675" lon="10.6639739"><ele>77.0</ele><time>2026-04-26T09:37:50.093Z</time></trkpt><trkpt lat="45.6884083" lon="10.6641269"><ele>77.0</ele><time>2026-04-26T09:37:52.092Z</time></trkpt><trkpt lat="45.6884554" lon="10.6642786"><ele>77.0</ele><time>2026-04-26T09:37:54.093Z</time></trkpt><trkpt lat="45.6885032" lon="10.6644173"><ele>77.0</ele><time>2026-04-26T09:37:56.093Z</time></trkpt><trkpt lat="45.6885382" lon="10.6645613"><ele>77.0</ele><time>2026-04-26T09:37:58.093Z</time></trkpt><trkpt lat="45.6885738" lon="10.6647219"><ele>77.0</ele><time>2026-04-26T09:38:00.093Z</time></trkpt><trkpt lat="45.6886083" lon="10.6648904"><ele>77.0</ele><time>2026-04-26T09:38:02.093Z</time></trkpt><trkpt lat="45.6886231" lon="10.6649782"><ele>77.0</ele><time>2026-04-26T09:38:03.093Z</time></trkpt><trkpt lat="45.6886463" lon="10.6650657"><ele>77.0</ele><time>2026-04-26T09:38:04.092Z</time></trkpt><trkpt lat="45.6886671" lon="10.6651617"><ele>77.0</ele><time>2026-04-26T09:38:05.093Z</time></trkpt><trkpt lat="45.6886949" lon="10.6652565"><ele>77.0</ele><time>2026-04-26T09:38:06.093Z</time></trkpt><trkpt lat="45.6887275" lon="10.6653493"><ele>77.0</ele><time>2026-04-26T09:38:07.093Z</time></trkpt><trkpt lat="45.6887541" lon="10.6654495"><ele>77.0</ele><time>2026-04-26T09:38:08.093Z</time></trkpt><trkpt lat="45.688779" lon="10.6655588"><ele>77.0</ele><time>2026-04-26T09:38:09.093Z</time></trkpt><trkpt lat="45.6888116" lon="10.6656659"><ele>77.0</ele><time>2026-04-26T09:38:10.092Z</time></trkpt><trkpt lat="45.6888441" lon="10.6657758"><ele>77.0</ele><time>2026-04-26T09:38:11.093Z</time></trkpt><trkpt lat="45.6888744" lon="10.6658758"><ele>77.0</ele><time>2026-04-26T09:38:12.092Z</time></trkpt><trkpt lat="45.6889053" lon="10.665972"><ele>77.0</ele><time>2026-04-26T09:38:13.092Z</time></trkpt><trkpt lat="45.6889306" lon="10.666062"><ele>77.0</ele><time>2026-04-26T09:38:14.093Z</time></trkpt><trkpt lat="45.6889713" lon="10.6661558"><ele>76.0</ele><time>2026-04-26T09:38:15.093Z</time></trkpt><trkpt lat="45.6890265" lon="10.6662487"><ele>75.0</ele><time>2026-04-26T09:38:16.093Z</time></trkpt><trkpt lat="45.6890889" lon="10.6663249"><ele>74.0</ele><time>2026-04-26T09:38:17.093Z</time></trkpt><trkpt lat="45.6891619" lon="10.6663803"><ele>73.0</ele><time>2026-04-26T09:38:18.093Z</time></trkpt><trkpt lat="45.6892403" lon="10.666433"><ele>72.0</ele><time>2026-04-26T09:38:19.093Z</time></trkpt><trkpt lat="45.6893121" lon="10.6664759"><ele>71.0</ele><time>2026-04-26T09:38:20.093Z</time></trkpt><trkpt lat="45.689379" lon="10.6665159"><ele>71.83333333333334</ele><time>2026-04-26T09:38:21.093Z</time></trkpt><trkpt lat="45.6894502" lon="10.6665614"><ele>72.66666666666667</ele><time>2026-04-26T09:38:22.093Z</time></trkpt><trkpt lat="45.689532" lon="10.666601"><ele>73.5</ele><time>2026-04-26T09:38:23.093Z</time></trkpt><trkpt lat="45.6896141" lon="10.6666517"><ele>74.33333333333333</ele><time>2026-04-26T09:38:24.093Z</time></trkpt><trkpt lat="45.6896965" lon="10.6666998"><ele>75.16666666666666</ele><time>2026-04-26T09:38:25.093Z</time></trkpt><trkpt lat="45.6897869" lon="10.6667435"><ele>76.0</ele><time>2026-04-26T09:38:26.092Z</time></trkpt><trkpt lat="45.6898691" lon="10.6667917"><ele>76.0</ele><time>2026-04-26T09:38:27.093Z</time></trkpt><trkpt lat="45.689949" lon="10.666842"><ele>76.0</ele><time>2026-04-26T09:38:28.093Z</time></trkpt><trkpt lat="45.6900354" lon="10.6668967"><ele>76.0</ele><time>2026-04-26T09:38:29.093Z</time></trkpt><trkpt lat="45.6901224" lon="10.6669533"><ele>76.0</ele><time>2026-04-26T09:38:30.093Z</time></trkpt><trkpt lat="45.6902087" lon="10.6670081"><ele>76.0</ele><time>2026-04-26T09:38:31.093Z</time></trkpt><trkpt lat="45.6902922" lon="10.6670595"><ele>76.66666666666666</ele><time>2026-04-26T09:38:32.093Z</time></trkpt><trkpt lat="45.6903739" lon="10.6671108"><ele>77.33333333333333</ele><time>2026-04-26T09:38:33.092Z</time></trkpt><trkpt lat="45.6904513" lon="10.6671487"><ele>78.0</ele><time>2026-04-26T09:38:34.093Z</time></trkpt><trkpt lat="45.6905241" lon="10.6671923"><ele>78.66666666666667</ele><time>2026-04-26T09:38:35.093Z</time></trkpt><trkpt lat="45.6906079" lon="10.6672052"><ele>79.33333333333334</ele><time>2026-04-26T09:38:36.093Z</time></trkpt><trkpt lat="45.6906899" lon="10.6672298"><ele>80.0</ele><time>2026-04-26T09:38:37.093Z</time></trkpt><trkpt lat="45.6907817" lon="10.667259"><ele>80.0</ele><time>2026-04-26T09:38:38.092Z</time></trkpt><trkpt lat="45.6908674" lon="10.6672846"><ele>80.0</ele><time>2026-04-26T09:38:39.093Z</time></trkpt><trkpt lat="45.6909296" lon="10.6673142"><ele>80.0</ele><time>2026-04-26T09:38:40.093Z</time></trkpt><trkpt lat="45.6910164" lon="10.66738"><ele>80.0</ele><time>2026-04-26T09:38:42.093Z</time></trkpt><trkpt lat="45.6910821" lon="10.6674419"><ele>80.0</ele><time>2026-04-26T09:38:44.092Z</time></trkpt><trkpt lat="45.6911323" lon="10.6674994"><ele>80.0</ele><time>2026-04-26T09:38:46.093Z</time></trkpt><trkpt lat="45.6911807" lon="10.6675642"><ele>80.0</ele><time>2026-04-26T09:38:48.092Z</time></trkpt><trkpt lat="45.6912308" lon="10.6676423"><ele>80.0</ele><time>2026-04-26T09:38:51.093Z</time></trkpt><trkpt lat="45.6912839" lon="10.6677081"><ele>80.0</ele><time>2026-04-26T09:39:24.092Z</time></trkpt><trkpt lat="45.6913484" lon="10.6678208"><ele>80.0</ele><time>2026-04-26T09:39:26.093Z</time></trkpt><trkpt lat="45.6914075" lon="10.6679194"><ele>80.0</ele><time>2026-04-26T09:39:28.092Z</time></trkpt><trkpt lat="45.6914533" lon="10.6679971"><ele>80.0</ele><time>2026-04-26T09:39:31.093Z</time></trkpt><trkpt lat="45.6915508" lon="10.6679854"><ele>80.0</ele><time>2026-04-26T09:40:26.093Z</time></trkpt><trkpt lat="45.6916154" lon="10.6679934"><ele>80.0</ele><time>2026-04-26T09:40:27.093Z</time></trkpt><trkpt lat="45.6916757" lon="10.6680225"><ele>80.0</ele><time>2026-04-26T09:40:28.092Z</time></trkpt><trkpt lat="45.6917445" lon="10.6680721"><ele>80.0</ele><time>2026-04-26T09:40:29.093Z</time></trkpt><trkpt lat="45.6918214" lon="10.6681158"><ele>80.0</ele><time>2026-04-26T09:40:30.092Z</time></trkpt><trkpt lat="45.6919046" lon="10.6681618"><ele>80.0</ele><time>2026-04-26T09:40:31.093Z</time></trkpt><trkpt lat="45.6920009" lon="10.6682025"><ele>81.6</ele><time>2026-04-26T09:40:32.092Z</time></trkpt><trkpt lat="45.6921048" lon="10.6682519"><ele>83.2</ele><time>2026-04-26T09:40:33.093Z</time></trkpt><trkpt lat="45.692202" lon="10.6683061"><ele>84.80000000000001</ele><time>2026-04-26T09:40:34.093Z</time></trkpt><trkpt lat="45.6923" lon="10.6683552"><ele>86.4</ele><time>2026-04-26T09:40:35.093Z</time></trkpt><trkpt lat="45.6923768" lon="10.6683873"><ele>88.0</ele><time>2026-04-26T09:40:36.093Z</time></trkpt><trkpt lat="45.6924691" lon="10.6683769"><ele>88.0</ele><time>2026-04-26T09:40:38.093Z</time></trkpt><trkpt lat="45.692531" lon="10.6683426"><ele>88.0</ele><time>2026-04-26T09:40:40.093Z</time></trkpt><trkpt lat="45.6925889" lon="10.6682641"><ele>88.0</ele><time>2026-04-26T09:40:42.093Z</time></trkpt><trkpt lat="45.6926614" lon="10.6681738"><ele>88.0</ele><time>2026-04-26T09:40:44.093Z</time></trkpt><trkpt lat="45.6927085" lon="10.6681103"><ele>88.0</ele><time>2026-04-26T09:40:45.093Z</time></trkpt><trkpt lat="45.6927485" lon="10.6680245"><ele>88.0</ele><time>2026-04-26T09:40:46.093Z</time></trkpt><trkpt lat="45.6927753" lon="10.6679359"><ele>88.0</ele><time>2026-04-26T09:40:47.093Z</time></trkpt><trkpt lat="45.6927358" lon="10.6678331"><ele>90.5</ele><time>2026-04-26T09:40:48.093Z</time></trkpt><trkpt lat="45.6926817" lon="10.6677651"><ele>93.0</ele><time>2026-04-26T09:40:49.093Z</time></trkpt><trkpt lat="45.6926059" lon="10.667711"><ele>95.5</ele><time>2026-04-26T09:40:50.092Z</time></trkpt><trkpt lat="45.6925227" lon="10.6676684"><ele>98.0</ele><time>2026-04-26T09:40:51.093Z</time></trkpt><trkpt lat="45.6924352" lon="10.667616"><ele>100.50000000000001</ele><time>2026-04-26T09:40:52.092Z</time></trkpt><trkpt lat="45.6923592" lon="10.6675602"><ele>103.0</ele><time>2026-04-26T09:40:53.093Z</time></trkpt><trkpt lat="45.6923035" lon="10.6674964"><ele>103.0</ele><time>2026-04-26T09:40:54.093Z</time></trkpt><trkpt lat="45.692254" lon="10.6673405"><ele>103.0</ele><time>2026-04-26T09:40:56.093Z</time></trkpt><trkpt lat="45.6922709" lon="10.6671886"><ele>103.0</ele><time>2026-04-26T09:40:58.092Z</time></trkpt><trkpt lat="45.6923048" lon="10.6671104"><ele>103.0</ele><time>2026-04-26T09:41:00.093Z</time></trkpt><trkpt lat="45.692393" lon="10.6670782"><ele>103.0</ele><time>2026-04-26T09:41:05.092Z</time></trkpt><trkpt lat="45.6925239" lon="10.6671374"><ele>103.0</ele><time>2026-04-26T09:41:07.093Z</time></trkpt><trkpt lat="45.692605" lon="10.6671559"><ele>103.0</ele><time>2026-04-26T09:41:08.093Z</time></trkpt><trkpt lat="45.6926987" lon="10.6671732"><ele>103.0</ele><time>2026-04-26T09:41:09.092Z</time></trkpt><trkpt lat="45.6928017" lon="10.6671872"><ele>103.0</ele><time>2026-04-26T09:41:10.093Z</time></trkpt><trkpt lat="45.692906" lon="10.6672026"><ele>103.0</ele><time>2026-04-26T09:41:11.093Z</time></trkpt><trkpt lat="45.6930118" lon="10.6672249"><ele>104.5</ele><time>2026-04-26T09:41:12.093Z</time></trkpt><trkpt lat="45.693119" lon="10.6672361"><ele>106.0</ele><time>2026-04-26T09:41:13.093Z</time></trkpt><trkpt lat="45.6932253" lon="10.6672584"><ele>107.5</ele><time>2026-04-26T09:41:14.093Z</time></trkpt><trkpt lat="45.693339" lon="10.6672888"><ele>109.0</ele><time>2026-04-26T09:41:15.093Z</time></trkpt><trkpt lat="45.6934594" lon="10.6673367"><ele>109.0</ele><time>2026-04-26T09:41:16.093Z</time></trkpt><trkpt lat="45.6935696" lon="10.6674187"><ele>109.0</ele><time>2026-04-26T09:41:17.092Z</time></trkpt><trkpt lat="45.693674" lon="10.6675298"><ele>109.0</ele><time>2026-04-26T09:41:18.093Z</time></trkpt><trkpt lat="45.6937667" lon="10.6676589"><ele>109.0</ele><time>2026-04-26T09:41:19.093Z</time></trkpt><trkpt lat="45.6938595" lon="10.6677796"><ele>108.25</ele><time>2026-04-26T09:41:20.093Z</time></trkpt><trkpt lat="45.6939559" lon="10.6678893"><ele>107.5</ele><time>2026-04-26T09:41:21.093Z</time></trkpt><trkpt lat="45.6940501" lon="10.6679652"><ele>106.75</ele><time>2026-04-26T09:41:22.093Z</time></trkpt><trkpt lat="45.6941509" lon="10.6680325"><ele>106.0</ele><time>2026-04-26T09:41:23.093Z</time></trkpt><trkpt lat="45.6942727" lon="10.6680856"><ele>106.0</ele><time>2026-04-26T09:41:24.093Z</time></trkpt><trkpt lat="45.6943928" lon="10.6681507"><ele>106.0</ele><time>2026-04-26T09:41:25.093Z</time></trkpt><trkpt lat="45.6945252" lon="10.6682028"><ele>106.0</ele><time>2026-04-26T09:41:26.093Z</time></trkpt><trkpt lat="45.6946548" lon="10.668267"><ele>106.0</ele><time>2026-04-26T09:41:27.093Z</time></trkpt><trkpt lat="45.6947762" lon="10.6683566"><ele>107.5</ele><time>2026-04-26T09:41:28.093Z</time></trkpt><trkpt lat="45.6948894" lon="10.668476"><ele>109.0</ele><time>2026-04-26T09:41:29.093Z</time></trkpt><trkpt lat="45.6949837" lon="10.6686337"><ele>110.5</ele><time>2026-04-26T09:41:30.093Z</time></trkpt><trkpt lat="45.6950641" lon="10.6688147"><ele>112.0</ele><time>2026-04-26T09:41:31.093Z</time></trkpt><trkpt lat="45.6951398" lon="10.6689944"><ele>112.0</ele><time>2026-04-26T09:41:32.093Z</time></trkpt><trkpt lat="45.6952236" lon="10.6691739"><ele>112.0</ele><time>2026-04-26T09:41:33.093Z</time></trkpt><trkpt lat="45.6953058" lon="10.6693626"><ele>112.0</ele><time>2026-04-26T09:41:34.092Z</time></trkpt><trkpt lat="45.69539" lon="10.669555"><ele>118.33333333333334</ele><time>2026-04-26T09:41:35.093Z</time></trkpt><trkpt lat="45.695473" lon="10.6697521"><ele>124.66666666666666</ele><time>2026-04-26T09:41:36.092Z</time></trkpt><trkpt lat="45.6955588" lon="10.6699471"><ele>131.0</ele><time>2026-04-26T09:41:37.093Z</time></trkpt><trkpt lat="45.6956404" lon="10.6701411"><ele>128.33333333333331</ele><time>2026-04-26T09:41:38.092Z</time></trkpt><trkpt lat="45.6957182" lon="10.6703354"><ele>125.66666666666666</ele><time>2026-04-26T09:41:39.093Z</time></trkpt><trkpt lat="45.6957843" lon="10.6705266"><ele>123.0</ele><time>2026-04-26T09:41:40.093Z</time></trkpt><trkpt lat="45.6958419" lon="10.6707174"><ele>123.0</ele><time>2026-04-26T09:41:41.093Z</time></trkpt><trkpt lat="45.6958964" lon="10.6708967"><ele>123.0</ele><time>2026-04-26T09:41:42.093Z</time></trkpt><trkpt lat="45.6959562" lon="10.6710534"><ele>123.0</ele><time>2026-04-26T09:41:43.093Z</time></trkpt><trkpt lat="45.696027" lon="10.6711925"><ele>123.0</ele><time>2026-04-26T09:41:44.093Z</time></trkpt><trkpt lat="45.6961015" lon="10.6713232"><ele>125.0</ele><time>2026-04-26T09:41:45.093Z</time></trkpt><trkpt lat="45.6961794" lon="10.671437"><ele>127.00000000000001</ele><time>2026-04-26T09:41:46.093Z</time></trkpt><trkpt lat="45.6962629" lon="10.6715356"><ele>129.0</ele><time>2026-04-26T09:41:47.093Z</time></trkpt><trkpt lat="45.6963408" lon="10.6716354"><ele>131.0</ele><time>2026-04-26T09:41:48.093Z</time></trkpt><trkpt lat="45.6964208" lon="10.6717375"><ele>133.0</ele><time>2026-04-26T09:41:49.093Z</time></trkpt><trkpt lat="45.6965005" lon="10.6718412"><ele>133.0</ele><time>2026-04-26T09:41:50.092Z</time></trkpt><trkpt lat="45.6965841" lon="10.6719349"><ele>133.0</ele><time>2026-04-26T09:41:51.092Z</time></trkpt><trkpt lat="45.6966619" lon="10.6720374"><ele>133.0</ele><time>2026-04-26T09:41:52.092Z</time></trkpt><trkpt lat="45.6967447" lon="10.6721395"><ele>133.0</ele><time>2026-04-26T09:41:53.093Z</time></trkpt><trkpt lat="45.696825" lon="10.6722387"><ele>133.0</ele><time>2026-04-26T09:41:54.093Z</time></trkpt><trkpt lat="45.6969034" lon="10.6723318"><ele>132.6</ele><time>2026-04-26T09:41:55.093Z</time></trkpt><trkpt lat="45.6969777" lon="10.6724287"><ele>132.20000000000002</ele><time>2026-04-26T09:41:56.093Z</time></trkpt><trkpt lat="45.6970525" lon="10.6725227"><ele>131.8</ele><time>2026-04-26T09:41:57.093Z</time></trkpt><trkpt lat="45.6971203" lon="10.6726228"><ele>131.4</ele><time>2026-04-26T09:41:58.093Z</time></trkpt><trkpt lat="45.6971868" lon="10.6727309"><ele>131.0</ele><time>2026-04-26T09:41:59.092Z</time></trkpt><trkpt lat="45.697249" lon="10.6728501"><ele>131.0</ele><time>2026-04-26T09:42:00.093Z</time></trkpt><trkpt lat="45.697308" lon="10.6729716"><ele>131.0</ele><time>2026-04-26T09:42:01.093Z</time></trkpt><trkpt lat="45.6973656" lon="10.6730968"><ele>131.0</ele><time>2026-04-26T09:42:02.093Z</time></trkpt><trkpt lat="45.6974212" lon="10.6732117"><ele>131.0</ele><time>2026-04-26T09:42:03.093Z</time></trkpt><trkpt lat="45.6974789" lon="10.6733326"><ele>131.0</ele><time>2026-04-26T09:42:04.093Z</time></trkpt><trkpt lat="45.6975351" lon="10.6734503"><ele>131.0</ele><time>2026-04-26T09:42:05.093Z</time></trkpt><trkpt lat="45.6975916" lon="10.6735681"><ele>131.0</ele><time>2026-04-26T09:42:06.093Z</time></trkpt><trkpt lat="45.6976555" lon="10.6736816"><ele>131.0</ele><time>2026-04-26T09:42:07.093Z</time></trkpt><trkpt lat="45.6977232" lon="10.6737915"><ele>131.0</ele><time>2026-04-26T09:42:08.093Z</time></trkpt><trkpt lat="45.6977915" lon="10.6739044"><ele>131.0</ele><time>2026-04-26T09:42:09.093Z</time></trkpt><trkpt lat="45.6978681" lon="10.6740176"><ele>131.25</ele><time>2026-04-26T09:42:10.093Z</time></trkpt><trkpt lat="45.6979513" lon="10.6741294"><ele>131.5</ele><time>2026-04-26T09:42:11.092Z</time></trkpt><trkpt lat="45.6980326" lon="10.674245"><ele>131.75</ele><time>2026-04-26T09:42:12.093Z</time></trkpt><trkpt lat="45.6981119" lon="10.6743622"><ele>132.0</ele><time>2026-04-26T09:42:13.093Z</time></trkpt><trkpt lat="45.6981906" lon="10.6744825"><ele>132.0</ele><time>2026-04-26T09:42:14.093Z</time></trkpt><trkpt lat="45.6982732" lon="10.6745977"><ele>132.0</ele><time>2026-04-26T09:42:15.092Z</time></trkpt><trkpt lat="45.6983549" lon="10.6747161"><ele>132.0</ele><time>2026-04-26T09:42:16.092Z</time></trkpt><trkpt lat="45.6984355" lon="10.6748376"><ele>132.0</ele><time>2026-04-26T09:42:17.093Z</time></trkpt><trkpt lat="45.6985197" lon="10.6749559"><ele>134.2</ele><time>2026-04-26T09:42:18.093Z</time></trkpt><trkpt lat="45.6985939" lon="10.6750747"><ele>136.39999999999998</ele><time>2026-04-26T09:42:19.093Z</time></trkpt><trkpt lat="45.6986738" lon="10.6751805"><ele>138.60000000000002</ele><time>2026-04-26T09:42:20.092Z</time></trkpt><trkpt lat="45.6987467" lon="10.675285"><ele>140.8</ele><time>2026-04-26T09:42:21.093Z</time></trkpt><trkpt lat="45.6988211" lon="10.675394"><ele>143.0</ele><time>2026-04-26T09:42:22.093Z</time></trkpt><trkpt lat="45.6988997" lon="10.6755041"><ele>143.0</ele><time>2026-04-26T09:42:23.093Z</time></trkpt><trkpt lat="45.6989777" lon="10.6756223"><ele>143.0</ele><time>2026-04-26T09:42:24.092Z</time></trkpt><trkpt lat="45.6990557" lon="10.6757398"><ele>143.0</ele><time>2026-04-26T09:42:25.093Z</time></trkpt><trkpt lat="45.6991324" lon="10.6758561"><ele>143.0</ele><time>2026-04-26T09:42:26.093Z</time></trkpt><trkpt lat="45.6992076" lon="10.6759754"><ele>143.0</ele><time>2026-04-26T09:42:27.093Z</time></trkpt><trkpt lat="45.699278" lon="10.6760999"><ele>143.0</ele><time>2026-04-26T09:42:28.093Z</time></trkpt><trkpt lat="45.6993453" lon="10.676232"><ele>143.0</ele><time>2026-04-26T09:42:29.093Z</time></trkpt><trkpt lat="45.6994076" lon="10.6763714"><ele>143.0</ele><time>2026-04-26T09:42:30.093Z</time></trkpt><trkpt lat="45.6994711" lon="10.676516"><ele>142.75</ele><time>2026-04-26T09:42:31.092Z</time></trkpt><trkpt lat="45.6995341" lon="10.6766612"><ele>142.5</ele><time>2026-04-26T09:42:32.093Z</time></trkpt><trkpt lat="45.6996017" lon="10.6768028"><ele>142.25</ele><time>2026-04-26T09:42:33.092Z</time></trkpt><trkpt lat="45.6996768" lon="10.6769432"><ele>142.0</ele><time>2026-04-26T09:42:34.093Z</time></trkpt><trkpt lat="45.6997573" lon="10.677075"><ele>142.0</ele><time>2026-04-26T09:42:35.092Z</time></trkpt><trkpt lat="45.6998452" lon="10.6772033"><ele>142.0</ele><time>2026-04-26T09:42:36.092Z</time></trkpt><trkpt lat="45.6999449" lon="10.6773203"><ele>142.0</ele><time>2026-04-26T09:42:37.093Z</time></trkpt><trkpt lat="45.7000481" lon="10.67743"><ele>142.0</ele><time>2026-04-26T09:42:38.093Z</time></trkpt><trkpt lat="45.7001606" lon="10.6775425"><ele>144.0</ele><time>2026-04-26T09:42:39.092Z</time></trkpt><trkpt lat="45.7002754" lon="10.6776513"><ele>146.0</ele><time>2026-04-26T09:42:40.093Z</time></trkpt><trkpt lat="45.7003942" lon="10.6777648"><ele>148.0</ele><time>2026-04-26T09:42:41.093Z</time></trkpt><trkpt lat="45.7005126" lon="10.6778808"><ele>150.0</ele><time>2026-04-26T09:42:42.093Z</time></trkpt><trkpt lat="45.7006322" lon="10.6779982"><ele>150.0</ele><time>2026-04-26T09:42:43.092Z</time></trkpt><trkpt lat="45.7007525" lon="10.6781179"><ele>150.0</ele><time>2026-04-26T09:42:44.092Z</time></trkpt><trkpt lat="45.700871" lon="10.6782391"><ele>150.0</ele><time>2026-04-26T09:42:45.093Z</time></trkpt><trkpt lat="45.7009915" lon="10.6783585"><ele>150.0</ele><time>2026-04-26T09:42:46.093Z</time></trkpt><trkpt lat="45.7011134" lon="10.6784868"><ele>155.33333333333334</ele><time>2026-04-26T09:42:47.092Z</time></trkpt><trkpt lat="45.7012381" lon="10.6786095"><ele>160.66666666666669</ele><time>2026-04-26T09:42:48.093Z</time></trkpt><trkpt lat="45.7013591" lon="10.6787383"><ele>166.0</ele><time>2026-04-26T09:42:49.093Z</time></trkpt><trkpt lat="45.7014711" lon="10.6788761"><ele>166.0</ele><time>2026-04-26T09:42:50.093Z</time></trkpt><trkpt lat="45.701572" lon="10.6790142"><ele>166.0</ele><time>2026-04-26T09:42:51.093Z</time></trkpt><trkpt lat="45.7016582" lon="10.6791526"><ele>166.0</ele><time>2026-04-26T09:42:52.092Z</time></trkpt><trkpt lat="45.7017385" lon="10.6792996"><ele>166.0</ele><time>2026-04-26T09:42:53.093Z</time></trkpt><trkpt lat="45.7018088" lon="10.6794473"><ele>169.4</ele><time>2026-04-26T09:42:54.092Z</time></trkpt><trkpt lat="45.7018782" lon="10.6795813"><ele>172.8</ele><time>2026-04-26T09:42:55.093Z</time></trkpt><trkpt lat="45.7019402" lon="10.6797035"><ele>176.20000000000002</ele><time>2026-04-26T09:42:56.093Z</time></trkpt><trkpt lat="45.7019971" lon="10.6798195"><ele>179.60000000000002</ele><time>2026-04-26T09:42:57.093Z</time></trkpt><trkpt lat="45.7020568" lon="10.6799302"><ele>183.0</ele><time>2026-04-26T09:42:58.093Z</time></trkpt><trkpt lat="45.7021219" lon="10.6800425"><ele>183.0</ele><time>2026-04-26T09:42:59.093Z</time></trkpt><trkpt lat="45.7021994" lon="10.6801548"><ele>183.0</ele><time>2026-04-26T09:43:00.093Z</time></trkpt><trkpt lat="45.7022889" lon="10.6802562"><ele>183.0</ele><time>2026-04-26T09:43:01.093Z</time></trkpt><trkpt lat="45.7023701" lon="10.6803383"><ele>183.0</ele><time>2026-04-26T09:43:02.093Z</time></trkpt><trkpt lat="45.7024553" lon="10.6803984"><ele>183.0</ele><time>2026-04-26T09:43:03.093Z</time></trkpt><trkpt lat="45.7025382" lon="10.6804498"><ele>185.8</ele><time>2026-04-26T09:43:04.093Z</time></trkpt><trkpt lat="45.7026217" lon="10.680508"><ele>188.60000000000002</ele><time>2026-04-26T09:43:05.093Z</time></trkpt><trkpt lat="45.7027067" lon="10.6805841"><ele>191.39999999999998</ele><time>2026-04-26T09:43:06.092Z</time></trkpt><trkpt lat="45.7027944" lon="10.6806862"><ele>194.2</ele><time>2026-04-26T09:43:07.093Z</time></trkpt><trkpt lat="45.7028677" lon="10.6808149"><ele>197.0</ele><time>2026-04-26T09:43:08.093Z</time></trkpt><trkpt lat="45.7029398" lon="10.6809547"><ele>197.0</ele><time>2026-04-26T09:43:09.093Z</time></trkpt><trkpt lat="45.7030008" lon="10.6810989"><ele>197.0</ele><time>2026-04-26T09:43:10.093Z</time></trkpt><trkpt lat="45.7030619" lon="10.6812329"><ele>197.0</ele><time>2026-04-26T09:43:11.092Z</time></trkpt><trkpt lat="45.7031217" lon="10.681363"><ele>197.0</ele><time>2026-04-26T09:43:12.093Z</time></trkpt><trkpt lat="45.7031694" lon="10.6814996"><ele>197.0</ele><time>2026-04-26T09:43:13.093Z</time></trkpt><trkpt lat="45.7032133" lon="10.6816361"><ele>190.0</ele><time>2026-04-26T09:43:14.092Z</time></trkpt><trkpt lat="45.7032596" lon="10.6817827"><ele>183.0</ele><time>2026-04-26T09:43:15.093Z</time></trkpt><trkpt lat="45.7033049" lon="10.6819253"><ele>176.0</ele><time>2026-04-26T09:43:16.093Z</time></trkpt><trkpt lat="45.7033465" lon="10.682074"><ele>169.0</ele><time>2026-04-26T09:43:17.093Z</time></trkpt><trkpt lat="45.7033874" lon="10.6822222"><ele>162.0</ele><time>2026-04-26T09:43:18.093Z</time></trkpt><trkpt lat="45.703434" lon="10.6823686"><ele>159.5</ele><time>2026-04-26T09:43:19.093Z</time></trkpt><trkpt lat="45.703477" lon="10.682517"><ele>157.0</ele><time>2026-04-26T09:43:20.093Z</time></trkpt><trkpt lat="45.7082837" lon="10.6920232"><ele>166.5</ele><time>2026-04-26T09:45:08.092Z</time></trkpt><trkpt lat="45.7082845" lon="10.6921463"><ele>176.0</ele><time>2026-04-26T09:45:09.093Z</time></trkpt><trkpt lat="45.708287" lon="10.6922662"><ele>185.5</ele><time>2026-04-26T09:45:10.093Z</time></trkpt><trkpt lat="45.7082983" lon="10.6923836"><ele>195.0</ele><time>2026-04-26T09:45:11.093Z</time></trkpt><trkpt lat="45.7083207" lon="10.6924862"><ele>204.49999999999997</ele><time>2026-04-26T09:45:12.093Z</time></trkpt><trkpt lat="45.7083443" lon="10.6925885"><ele>214.0</ele><time>2026-04-26T09:45:13.092Z</time></trkpt><trkpt lat="45.7083649" lon="10.6926917"><ele>214.0</ele><time>2026-04-26T09:45:14.093Z</time></trkpt><trkpt lat="45.7085172" lon="10.6932463"><ele>214.0</ele><time>2026-04-26T09:45:19.092Z</time></trkpt><trkpt lat="45.7085191" lon="10.693366"><ele>223.83333333333331</ele><time>2026-04-26T09:45:20.093Z</time></trkpt><trkpt lat="45.708528" lon="10.6934793"><ele>233.66666666666666</ele><time>2026-04-26T09:45:21.092Z</time></trkpt><trkpt lat="45.7085448" lon="10.6935825"><ele>243.5</ele><time>2026-04-26T09:45:22.093Z</time></trkpt><trkpt lat="45.708559" lon="10.6936914"><ele>253.33333333333331</ele><time>2026-04-26T09:45:23.093Z</time></trkpt><trkpt lat="45.7085909" lon="10.6937967"><ele>263.1666666666667</ele><time>2026-04-26T09:45:24.092Z</time></trkpt><trkpt lat="45.7086306" lon="10.6939089"><ele>273.0</ele><time>2026-04-26T09:45:25.093Z</time></trkpt><trkpt lat="45.7086746" lon="10.6940333"><ele>273.0</ele><time>2026-04-26T09:45:26.093Z</time></trkpt><trkpt lat="45.708723" lon="10.6941446"><ele>273.0</ele><time>2026-04-26T09:45:27.092Z</time></trkpt><trkpt lat="45.7087768" lon="10.6942476"><ele>273.0</ele><time>2026-04-26T09:45:28.092Z</time></trkpt><trkpt lat="45.7088292" lon="10.6943358"><ele>273.0</ele><time>2026-04-26T09:45:29.093Z</time></trkpt><trkpt lat="45.708883" lon="10.6944358"><ele>273.0</ele><time>2026-04-26T09:45:30.093Z</time></trkpt><trkpt lat="45.7089354" lon="10.6945369"><ele>273.0</ele><time>2026-04-26T09:45:31.093Z</time></trkpt><trkpt lat="45.7089892" lon="10.6946357"><ele>212.0</ele><time>2026-04-26T09:45:32.093Z</time></trkpt><trkpt lat="45.7090433" lon="10.6947348"><ele>151.0</ele><time>2026-04-26T09:45:33.093Z</time></trkpt><trkpt lat="45.7124726" lon="10.700343"><ele>151.0</ele><time>2026-04-26T09:46:15.092Z</time></trkpt><trkpt lat="45.7125465" lon="10.7004021"><ele>151.0</ele><time>2026-04-26T09:46:16.093Z</time></trkpt><trkpt lat="45.7126229" lon="10.7004408"><ele>151.0</ele><time>2026-04-26T09:46:17.093Z</time></trkpt><trkpt lat="45.7127012" lon="10.7005073"><ele>151.0</ele><time>2026-04-26T09:46:18.093Z</time></trkpt><trkpt lat="45.712785" lon="10.7005608"><ele>151.0</ele><time>2026-04-26T09:46:19.092Z</time></trkpt><trkpt lat="45.7128695" lon="10.700617"><ele>151.0</ele><time>2026-04-26T09:46:20.093Z</time></trkpt><trkpt lat="45.7129518" lon="10.7006733"><ele>156.6</ele><time>2026-04-26T09:46:21.093Z</time></trkpt><trkpt lat="45.7130373" lon="10.7007253"><ele>162.2</ele><time>2026-04-26T09:46:22.093Z</time></trkpt><trkpt lat="45.7131201" lon="10.7007758"><ele>167.79999999999998</ele><time>2026-04-26T09:46:23.092Z</time></trkpt><trkpt lat="45.7132048" lon="10.7008287"><ele>173.39999999999998</ele><time>2026-04-26T09:46:24.093Z</time></trkpt><trkpt lat="45.7132962" lon="10.7008788"><ele>179.0</ele><time>2026-04-26T09:46:25.092Z</time></trkpt><trkpt lat="45.7133895" lon="10.7009369"><ele>179.0</ele><time>2026-04-26T09:46:26.093Z</time></trkpt><trkpt lat="45.7134822" lon="10.7009958"><ele>179.0</ele><time>2026-04-26T09:46:27.093Z</time></trkpt><trkpt lat="45.7135709" lon="10.7010519"><ele>179.0</ele><time>2026-04-26T09:46:28.093Z</time></trkpt><trkpt lat="45.7136607" lon="10.7011016"><ele>179.0</ele><time>2026-04-26T09:46:29.093Z</time></trkpt><trkpt lat="45.7137471" lon="10.7011541"><ele>179.0</ele><time>2026-04-26T09:46:30.093Z</time></trkpt><trkpt lat="45.7138368" lon="10.7012091"><ele>176.6</ele><time>2026-04-26T09:46:31.093Z</time></trkpt><trkpt lat="45.7139329" lon="10.7012683"><ele>174.2</ele><time>2026-04-26T09:46:32.093Z</time></trkpt><trkpt lat="45.7140321" lon="10.7013321"><ele>171.79999999999998</ele><time>2026-04-26T09:46:33.093Z</time></trkpt><trkpt lat="45.7141328" lon="10.7014167"><ele>169.39999999999998</ele><time>2026-04-26T09:46:34.092Z</time></trkpt><trkpt lat="45.7142276" lon="10.7015187"><ele>167.0</ele><time>2026-04-26T09:46:35.092Z</time></trkpt><trkpt lat="45.7143151" lon="10.7016299"><ele>167.0</ele><time>2026-04-26T09:46:36.092Z</time></trkpt><trkpt lat="45.7144019" lon="10.7017438"><ele>167.0</ele><time>2026-04-26T09:46:37.093Z</time></trkpt><trkpt lat="45.714485" lon="10.7018548"><ele>167.0</ele><time>2026-04-26T09:46:38.093Z</time></trkpt><trkpt lat="45.7145633" lon="10.7019681"><ele>167.0</ele><time>2026-04-26T09:46:39.093Z</time></trkpt><trkpt lat="45.7146412" lon="10.7020758"><ele>166.25</ele><time>2026-04-26T09:46:40.093Z</time></trkpt><trkpt lat="45.7147212" lon="10.7021803"><ele>165.5</ele><time>2026-04-26T09:46:41.093Z</time></trkpt><trkpt lat="45.7148075" lon="10.7022931"><ele>164.75</ele><time>2026-04-26T09:46:42.093Z</time></trkpt><trkpt lat="45.7148992" lon="10.7024097"><ele>164.0</ele><time>2026-04-26T09:46:43.093Z</time></trkpt><trkpt lat="45.7150013" lon="10.7025143"><ele>164.0</ele><time>2026-04-26T09:46:44.093Z</time></trkpt><trkpt lat="45.715106" lon="10.7026222"><ele>164.0</ele><time>2026-04-26T09:46:45.093Z</time></trkpt><trkpt lat="45.7152075" lon="10.7027221"><ele>164.0</ele><time>2026-04-26T09:46:46.093Z</time></trkpt><trkpt lat="45.715305" lon="10.7028262"><ele>164.0</ele><time>2026-04-26T09:46:47.093Z</time></trkpt><trkpt lat="45.7154041" lon="10.7029292"><ele>163.75</ele><time>2026-04-26T09:46:48.093Z</time></trkpt><trkpt lat="45.715505" lon="10.703032"><ele>163.5</ele><time>2026-04-26T09:46:49.093Z</time></trkpt><trkpt lat="45.7156114" lon="10.7031361"><ele>163.25</ele><time>2026-04-26T09:46:50.093Z</time></trkpt><trkpt lat="45.7157226" lon="10.7032468"><ele>163.0</ele><time>2026-04-26T09:46:51.093Z</time></trkpt><trkpt lat="45.7158343" lon="10.7033578"><ele>163.0</ele><time>2026-04-26T09:46:52.093Z</time></trkpt><trkpt lat="45.7159453" lon="10.7034731"><ele>163.0</ele><time>2026-04-26T09:46:53.093Z</time></trkpt><trkpt lat="45.7160595" lon="10.7035853"><ele>163.0</ele><time>2026-04-26T09:46:54.093Z</time></trkpt><trkpt lat="45.716175" lon="10.7036993"><ele>163.0</ele><time>2026-04-26T09:46:55.093Z</time></trkpt><trkpt lat="45.7162957" lon="10.7038165"><ele>162.66666666666669</ele><time>2026-04-26T09:46:56.093Z</time></trkpt><trkpt lat="45.7164146" lon="10.7039479"><ele>162.33333333333334</ele><time>2026-04-26T09:46:57.093Z</time></trkpt><trkpt lat="45.7165315" lon="10.7040954"><ele>162.0</ele><time>2026-04-26T09:46:58.093Z</time></trkpt><trkpt lat="45.7166493" lon="10.7042551"><ele>164.33333333333334</ele><time>2026-04-26T09:46:59.093Z</time></trkpt><trkpt lat="45.7167556" lon="10.7044347"><ele>166.66666666666669</ele><time>2026-04-26T09:47:00.093Z</time></trkpt><trkpt lat="45.7168546" lon="10.7046031"><ele>169.0</ele><time>2026-04-26T09:47:01.092Z</time></trkpt><trkpt lat="45.716951" lon="10.7047639"><ele>169.0</ele><time>2026-04-26T09:47:02.093Z</time></trkpt><trkpt lat="45.717042" lon="10.7049203"><ele>169.0</ele><time>2026-04-26T09:47:03.092Z</time></trkpt><trkpt lat="45.7171284" lon="10.705065"><ele>169.0</ele><time>2026-04-26T09:47:04.093Z</time></trkpt><trkpt lat="45.7172094" lon="10.7052111"><ele>169.0</ele><time>2026-04-26T09:47:05.093Z</time></trkpt><trkpt lat="45.717295" lon="10.7053489"><ele>161.25</ele><time>2026-04-26T09:47:06.093Z</time></trkpt><trkpt lat="45.7173826" lon="10.7054834"><ele>153.5</ele><time>2026-04-26T09:47:07.093Z</time></trkpt><trkpt lat="45.7174703" lon="10.7056114"><ele>145.75</ele><time>2026-04-26T09:47:08.093Z</time></trkpt><trkpt lat="45.7175547" lon="10.7057303"><ele>138.0</ele><time>2026-04-26T09:47:09.093Z</time></trkpt><trkpt lat="45.7176391" lon="10.7058451"><ele>138.0</ele><time>2026-04-26T09:47:10.093Z</time></trkpt><trkpt lat="45.7177258" lon="10.7059563"><ele>138.0</ele><time>2026-04-26T09:47:11.093Z</time></trkpt><trkpt lat="45.7178119" lon="10.7060553"><ele>138.0</ele><time>2026-04-26T09:47:12.093Z</time></trkpt><trkpt lat="45.7179056" lon="10.7061537"><ele>138.0</ele><time>2026-04-26T09:47:13.093Z</time></trkpt><trkpt lat="45.7180049" lon="10.7062489"><ele>144.0</ele><time>2026-04-26T09:47:14.093Z</time></trkpt><trkpt lat="45.7181142" lon="10.7063476"><ele>150.0</ele><time>2026-04-26T09:47:15.093Z</time></trkpt><trkpt lat="45.7182239" lon="10.706444"><ele>156.0</ele><time>2026-04-26T09:47:16.093Z</time></trkpt><trkpt lat="45.7183348" lon="10.706548"><ele>162.0</ele><time>2026-04-26T09:47:17.093Z</time></trkpt><trkpt lat="45.7184473" lon="10.7066523"><ele>165.5</ele><time>2026-04-26T09:47:18.093Z</time></trkpt><trkpt lat="45.7185715" lon="10.7067538"><ele>169.0</ele><time>2026-04-26T09:47:19.093Z</time></trkpt><trkpt lat="45.7186871" lon="10.7068522"><ele>172.5</ele><time>2026-04-26T09:47:20.093Z</time></trkpt><trkpt lat="45.7188015" lon="10.7069525"><ele>176.0</ele><time>2026-04-26T09:47:21.093Z</time></trkpt><trkpt lat="45.7189223" lon="10.7070484"><ele>176.0</ele><time>2026-04-26T09:47:22.093Z</time></trkpt><trkpt lat="45.7190341" lon="10.7071419"><ele>176.0</ele><time>2026-04-26T09:47:23.093Z</time></trkpt><trkpt lat="45.7191467" lon="10.7072371"><ele>176.0</ele><time>2026-04-26T09:47:24.093Z</time></trkpt><trkpt lat="45.7192497" lon="10.7073247"><ele>176.0</ele><time>2026-04-26T09:47:25.092Z</time></trkpt><trkpt lat="45.71937" lon="10.7074183"><ele>184.75</ele><time>2026-04-26T09:47:26.093Z</time></trkpt><trkpt lat="45.7194754" lon="10.7074805"><ele>193.5</ele><time>2026-04-26T09:47:27.093Z</time></trkpt><trkpt lat="45.7196071" lon="10.7075595"><ele>202.25</ele><time>2026-04-26T09:47:28.093Z</time></trkpt><trkpt lat="45.7197468" lon="10.7076306"><ele>211.0</ele><time>2026-04-26T09:47:29.093Z</time></trkpt><trkpt lat="45.719876" lon="10.7076997"><ele>211.0</ele><time>2026-04-26T09:47:30.093Z</time></trkpt><trkpt lat="45.7200097" lon="10.7077669"><ele>211.0</ele><time>2026-04-26T09:47:31.093Z</time></trkpt><trkpt lat="45.7201442" lon="10.7078341"><ele>211.0</ele><time>2026-04-26T09:47:32.093Z</time></trkpt><trkpt lat="45.7202785" lon="10.7079018"><ele>211.0</ele><time>2026-04-26T09:47:33.092Z</time></trkpt><trkpt lat="45.7204105" lon="10.7079456"><ele>211.0</ele><time>2026-04-26T09:47:34.093Z</time></trkpt><trkpt lat="45.7205433" lon="10.7080111"><ele>211.0</ele><time>2026-04-26T09:47:35.092Z</time></trkpt><trkpt lat="45.7206768" lon="10.7080741"><ele>211.0</ele><time>2026-04-26T09:47:36.093Z</time></trkpt><trkpt lat="45.7279403" lon="10.7181106"><ele>181.25</ele><time>2026-04-26T09:48:56.093Z</time></trkpt><trkpt lat="45.7279537" lon="10.7183128"><ele>151.5</ele><time>2026-04-26T09:48:57.093Z</time></trkpt><trkpt lat="45.7279391" lon="10.7185152"><ele>121.75</ele><time>2026-04-26T09:48:58.092Z</time></trkpt><trkpt lat="45.727941" lon="10.7186909"><ele>92.0</ele><time>2026-04-26T09:48:59.093Z</time></trkpt><trkpt lat="45.7279342" lon="10.7188588"><ele>92.0</ele><time>2026-04-26T09:49:00.093Z</time></trkpt><trkpt lat="45.7279243" lon="10.7190226"><ele>92.0</ele><time>2026-04-26T09:49:01.093Z</time></trkpt><trkpt lat="45.7279191" lon="10.7191769"><ele>92.0</ele><time>2026-04-26T09:49:02.092Z</time></trkpt><trkpt lat="45.7279118" lon="10.7193233"><ele>92.0</ele><time>2026-04-26T09:49:03.092Z</time></trkpt><trkpt lat="45.7279198" lon="10.7194634"><ele>92.0</ele><time>2026-04-26T09:49:04.092Z</time></trkpt><trkpt lat="45.7279495" lon="10.7196141"><ele>88.75</ele><time>2026-04-26T09:49:05.093Z</time></trkpt><trkpt lat="45.7279926" lon="10.7197581"><ele>85.5</ele><time>2026-04-26T09:49:06.093Z</time></trkpt><trkpt lat="45.7280541" lon="10.7198947"><ele>82.25</ele><time>2026-04-26T09:49:07.093Z</time></trkpt><trkpt lat="45.7281324" lon="10.7200197"><ele>79.0</ele><time>2026-04-26T09:49:08.093Z</time></trkpt><trkpt lat="45.7282167" lon="10.7201228"><ele>79.0</ele><time>2026-04-26T09:49:09.092Z</time></trkpt><trkpt lat="45.7283124" lon="10.7201862"><ele>79.0</ele><time>2026-04-26T09:49:10.093Z</time></trkpt><trkpt lat="45.7284212" lon="10.720234"><ele>79.0</ele><time>2026-04-26T09:49:11.093Z</time></trkpt><trkpt lat="45.7285472" lon="10.7202755"><ele>79.0</ele><time>2026-04-26T09:49:12.093Z</time></trkpt><trkpt lat="45.7286875" lon="10.720325"><ele>83.75</ele><time>2026-04-26T09:49:13.093Z</time></trkpt><trkpt lat="45.7288177" lon="10.7203816"><ele>88.5</ele><time>2026-04-26T09:49:14.093Z</time></trkpt><trkpt lat="45.7289321" lon="10.7204457"><ele>93.25</ele><time>2026-04-26T09:49:15.093Z</time></trkpt><trkpt lat="45.7290263" lon="10.7205074"><ele>98.0</ele><time>2026-04-26T09:49:16.093Z</time></trkpt><trkpt lat="45.729112" lon="10.7205681"><ele>98.0</ele><time>2026-04-26T09:49:17.092Z</time></trkpt><trkpt lat="45.7291874" lon="10.7206397"><ele>98.0</ele><time>2026-04-26T09:49:18.093Z</time></trkpt><trkpt lat="45.7292648" lon="10.7207141"><ele>98.0</ele><time>2026-04-26T09:49:19.093Z</time></trkpt><trkpt lat="45.729533" lon="10.7210599"><ele>106.75</ele><time>2026-04-26T09:49:23.093Z</time></trkpt><trkpt lat="45.7296404" lon="10.7212079"><ele>115.5</ele><time>2026-04-26T09:49:24.093Z</time></trkpt><trkpt lat="45.7296641" lon="10.7214107"><ele>124.25</ele><time>2026-04-26T09:49:25.093Z</time></trkpt><trkpt lat="45.729747" lon="10.7215402"><ele>133.0</ele><time>2026-04-26T09:49:26.092Z</time></trkpt><trkpt lat="45.7298007" lon="10.7216568"><ele>133.0</ele><time>2026-04-26T09:49:27.093Z</time></trkpt><trkpt lat="45.729855" lon="10.7217763"><ele>133.0</ele><time>2026-04-26T09:49:28.093Z</time></trkpt><trkpt lat="45.7299082" lon="10.7218999"><ele>133.0</ele><time>2026-04-26T09:49:29.093Z</time></trkpt><trkpt lat="45.7299637" lon="10.722021"><ele>133.0</ele><time>2026-04-26T09:49:30.093Z</time></trkpt><trkpt lat="45.7300245" lon="10.7221518"><ele>133.0</ele><time>2026-04-26T09:49:31.093Z</time></trkpt><trkpt lat="45.7300864" lon="10.7222809"><ele>119.5</ele><time>2026-04-26T09:49:32.093Z</time></trkpt><trkpt lat="45.7301578" lon="10.7224068"><ele>106.0</ele><time>2026-04-26T09:49:33.093Z</time></trkpt><trkpt lat="45.7302228" lon="10.7225439"><ele>92.5</ele><time>2026-04-26T09:49:34.093Z</time></trkpt><trkpt lat="45.7302906" lon="10.7226803"><ele>79.0</ele><time>2026-04-26T09:49:35.092Z</time></trkpt><trkpt lat="45.7303646" lon="10.7228136"><ele>79.0</ele><time>2026-04-26T09:49:36.093Z</time></trkpt><trkpt lat="45.7304207" lon="10.7229426"><ele>79.0</ele><time>2026-04-26T09:49:37.092Z</time></trkpt><trkpt lat="45.7304808" lon="10.7230752"><ele>79.0</ele><time>2026-04-26T09:49:38.093Z</time></trkpt><trkpt lat="45.7305496" lon="10.723213"><ele>79.0</ele><time>2026-04-26T09:49:39.093Z</time></trkpt><trkpt lat="45.7306183" lon="10.7233519"><ele>79.0</ele><time>2026-04-26T09:49:40.093Z</time></trkpt><trkpt lat="45.7306888" lon="10.7235006"><ele>79.0</ele><time>2026-04-26T09:49:41.093Z</time></trkpt><trkpt lat="45.730756" lon="10.7236464"><ele>79.0</ele><time>2026-04-26T09:49:42.093Z</time></trkpt><trkpt lat="45.7308148" lon="10.7238008"><ele>79.0</ele><time>2026-04-26T09:49:43.092Z</time></trkpt><trkpt lat="45.7308793" lon="10.7239551"><ele>79.5</ele><time>2026-04-26T09:49:44.093Z</time></trkpt><trkpt lat="45.7309317" lon="10.7241027"><ele>80.0</ele><time>2026-04-26T09:49:45.093Z</time></trkpt><trkpt lat="45.7309847" lon="10.7242419"><ele>80.5</ele><time>2026-04-26T09:49:46.093Z</time></trkpt><trkpt lat="45.7310345" lon="10.7243813"><ele>81.0</ele><time>2026-04-26T09:49:47.093Z</time></trkpt><trkpt lat="45.7310824" lon="10.7245342"><ele>83.8</ele><time>2026-04-26T09:49:48.093Z</time></trkpt><trkpt lat="45.7311315" lon="10.7246833"><ele>86.6</ele><time>2026-04-26T09:49:49.093Z</time></trkpt><trkpt lat="45.7311748" lon="10.7248346"><ele>89.4</ele><time>2026-04-26T09:49:50.093Z</time></trkpt><trkpt lat="45.7312212" lon="10.724981"><ele>92.2</ele><time>2026-04-26T09:49:51.093Z</time></trkpt><trkpt lat="45.7312671" lon="10.7251174"><ele>95.0</ele><time>2026-04-26T09:49:52.093Z</time></trkpt><trkpt lat="45.7313098" lon="10.7252481"><ele>95.0</ele><time>2026-04-26T09:49:53.093Z</time></trkpt><trkpt lat="45.7313578" lon="10.7253795"><ele>95.0</ele><time>2026-04-26T09:49:54.093Z</time></trkpt><trkpt lat="45.7314132" lon="10.7255171"><ele>95.0</ele><time>2026-04-26T09:49:55.093Z</time></trkpt><trkpt lat="45.7314751" lon="10.7256524"><ele>95.0</ele><time>2026-04-26T09:49:56.093Z</time></trkpt><trkpt lat="45.7315357" lon="10.7257944"><ele>95.0</ele><time>2026-04-26T09:49:57.093Z</time></trkpt><trkpt lat="45.7315987" lon="10.7259323"><ele>92.4</ele><time>2026-04-26T09:49:58.093Z</time></trkpt><trkpt lat="45.7316693" lon="10.7260654"><ele>89.8</ele><time>2026-04-26T09:49:59.093Z</time></trkpt><trkpt lat="45.7317381" lon="10.7261972"><ele>87.19999999999999</ele><time>2026-04-26T09:50:00.093Z</time></trkpt><trkpt lat="45.7318052" lon="10.7263158"><ele>84.6</ele><time>2026-04-26T09:50:01.092Z</time></trkpt><trkpt lat="45.7318663" lon="10.7264291"><ele>82.0</ele><time>2026-04-26T09:50:02.092Z</time></trkpt><trkpt lat="45.7319263" lon="10.7265434"><ele>85.75</ele><time>2026-04-26T09:50:03.093Z</time></trkpt><trkpt lat="45.7319882" lon="10.7266682"><ele>89.5</ele><time>2026-04-26T09:50:04.093Z</time></trkpt><trkpt lat="45.7320516" lon="10.7267965"><ele>93.25</ele><time>2026-04-26T09:50:05.092Z</time></trkpt><trkpt lat="45.7321186" lon="10.7269384"><ele>97.0</ele><time>2026-04-26T09:50:06.093Z</time></trkpt><trkpt lat="45.7321911" lon="10.7270827"><ele>97.0</ele><time>2026-04-26T09:50:07.093Z</time></trkpt><trkpt lat="45.7322648" lon="10.7272238"><ele>97.0</ele><time>2026-04-26T09:50:08.093Z</time></trkpt><trkpt lat="45.7323378" lon="10.7273723"><ele>97.0</ele><time>2026-04-26T09:50:09.093Z</time></trkpt><trkpt lat="45.7324143" lon="10.7275316"><ele>97.0</ele><time>2026-04-26T09:50:10.093Z</time></trkpt><trkpt lat="45.7325001" lon="10.7276883"><ele>91.0</ele><time>2026-04-26T09:50:11.092Z</time></trkpt><trkpt lat="45.7325947" lon="10.7278498"><ele>85.0</ele><time>2026-04-26T09:50:12.093Z</time></trkpt><trkpt lat="45.7327078" lon="10.7280122"><ele>79.0</ele><time>2026-04-26T09:50:13.093Z</time></trkpt><trkpt lat="45.7328182" lon="10.7281787"><ele>83.0</ele><time>2026-04-26T09:50:14.093Z</time></trkpt><trkpt lat="45.7329257" lon="10.7283481"><ele>87.0</ele><time>2026-04-26T09:50:15.093Z</time></trkpt><trkpt lat="45.7330308" lon="10.7285052"><ele>91.0</ele><time>2026-04-26T09:50:16.093Z</time></trkpt><trkpt lat="45.7331272" lon="10.7286554"><ele>91.0</ele><time>2026-04-26T09:50:17.093Z</time></trkpt><trkpt lat="45.7332147" lon="10.7288099"><ele>91.0</ele><time>2026-04-26T09:50:18.093Z</time></trkpt><trkpt lat="45.7332875" lon="10.7289705"><ele>91.0</ele><time>2026-04-26T09:50:19.092Z</time></trkpt><trkpt lat="45.7333611" lon="10.7291249"><ele>91.0</ele><time>2026-04-26T09:50:20.092Z</time></trkpt><trkpt lat="45.7334187" lon="10.7292797"><ele>89.4</ele><time>2026-04-26T09:50:21.093Z</time></trkpt><trkpt lat="45.7334639" lon="10.7294328"><ele>87.8</ele><time>2026-04-26T09:50:22.093Z</time></trkpt><trkpt lat="45.7335131" lon="10.7295794"><ele>86.2</ele><time>2026-04-26T09:50:23.093Z</time></trkpt><trkpt lat="45.7335646" lon="10.7297147"><ele>84.60000000000001</ele><time>2026-04-26T09:50:24.093Z</time></trkpt><trkpt lat="45.7336214" lon="10.7298501"><ele>83.0</ele><time>2026-04-26T09:50:25.092Z</time></trkpt><trkpt lat="45.7336863" lon="10.7299822"><ele>83.5</ele><time>2026-04-26T09:50:26.093Z</time></trkpt><trkpt lat="45.7337634" lon="10.730123"><ele>84.0</ele><time>2026-04-26T09:50:27.093Z</time></trkpt><trkpt lat="45.7338474" lon="10.7302606"><ele>84.5</ele><time>2026-04-26T09:50:28.093Z</time></trkpt><trkpt lat="45.7339374" lon="10.7303974"><ele>85.0</ele><time>2026-04-26T09:50:29.093Z</time></trkpt><trkpt lat="45.7340277" lon="10.7305301"><ele>85.0</ele><time>2026-04-26T09:50:30.093Z</time></trkpt><trkpt lat="45.7341222" lon="10.7306607"><ele>85.0</ele><time>2026-04-26T09:50:31.093Z</time></trkpt><trkpt lat="45.7342178" lon="10.7307914"><ele>85.0</ele><time>2026-04-26T09:50:32.093Z</time></trkpt><trkpt lat="45.7343085" lon="10.7309203"><ele>85.0</ele><time>2026-04-26T09:50:33.093Z</time></trkpt><trkpt lat="45.7343945" lon="10.7310478"><ele>88.25</ele><time>2026-04-26T09:50:34.093Z</time></trkpt><trkpt lat="45.7344771" lon="10.7311698"><ele>91.5</ele><time>2026-04-26T09:50:35.093Z</time></trkpt><trkpt lat="45.7345573" lon="10.7312874"><ele>94.75</ele><time>2026-04-26T09:50:36.093Z</time></trkpt><trkpt lat="45.7346352" lon="10.7313937"><ele>98.0</ele><time>2026-04-26T09:50:37.093Z</time></trkpt><trkpt lat="45.7347132" lon="10.7315074"><ele>98.0</ele><time>2026-04-26T09:50:38.093Z</time></trkpt><trkpt lat="45.7347918" lon="10.7316191"><ele>98.0</ele><time>2026-04-26T09:50:39.093Z</time></trkpt><trkpt lat="45.7348737" lon="10.7317361"><ele>98.0</ele><time>2026-04-26T09:50:40.093Z</time></trkpt><trkpt lat="45.7353729" lon="10.7324272"><ele>98.25</ele><time>2026-04-26T09:50:45.093Z</time></trkpt><trkpt lat="45.7354664" lon="10.7325788"><ele>98.5</ele><time>2026-04-26T09:50:46.093Z</time></trkpt><trkpt lat="45.7355425" lon="10.7327435"><ele>98.75</ele><time>2026-04-26T09:50:47.093Z</time></trkpt><trkpt lat="45.7355897" lon="10.7329251"><ele>99.0</ele><time>2026-04-26T09:50:48.093Z</time></trkpt><trkpt lat="45.7356135" lon="10.7331116"><ele>99.0</ele><time>2026-04-26T09:50:49.093Z</time></trkpt><trkpt lat="45.7356152" lon="10.7332805"><ele>99.0</ele><time>2026-04-26T09:50:50.093Z</time></trkpt><trkpt lat="45.7356221" lon="10.7334211"><ele>99.0</ele><time>2026-04-26T09:50:51.093Z</time></trkpt><trkpt lat="45.7356359" lon="10.7335429"><ele>99.0</ele><time>2026-04-26T09:50:52.093Z</time></trkpt><trkpt lat="45.7356529" lon="10.7336719"><ele>99.0</ele><time>2026-04-26T09:50:53.093Z</time></trkpt><trkpt lat="45.7356727" lon="10.7337997"><ele>97.2</ele><time>2026-04-26T09:50:54.092Z</time></trkpt><trkpt lat="45.7357007" lon="10.7339314"><ele>95.4</ele><time>2026-04-26T09:50:55.093Z</time></trkpt><trkpt lat="45.7357322" lon="10.7340726"><ele>93.6</ele><time>2026-04-26T09:50:56.093Z</time></trkpt><trkpt lat="45.7357745" lon="10.7342173"><ele>91.8</ele><time>2026-04-26T09:50:57.093Z</time></trkpt><trkpt lat="45.7358316" lon="10.7343659"><ele>90.0</ele><time>2026-04-26T09:50:58.093Z</time></trkpt><trkpt lat="45.7358992" lon="10.7345079"><ele>87.75</ele><time>2026-04-26T09:50:59.093Z</time></trkpt><trkpt lat="45.7359809" lon="10.7346496"><ele>85.5</ele><time>2026-04-26T09:51:00.093Z</time></trkpt><trkpt lat="45.7360698" lon="10.7347828"><ele>83.25</ele><time>2026-04-26T09:51:01.092Z</time></trkpt><trkpt lat="45.7361698" lon="10.7349038"><ele>81.0</ele><time>2026-04-26T09:51:02.093Z</time></trkpt><trkpt lat="45.7362828" lon="10.7350145"><ele>81.25</ele><time>2026-04-26T09:51:03.093Z</time></trkpt><trkpt lat="45.7364002" lon="10.7351096"><ele>81.5</ele><time>2026-04-26T09:51:04.093Z</time></trkpt><trkpt lat="45.7365246" lon="10.7352098"><ele>81.75</ele><time>2026-04-26T09:51:05.093Z</time></trkpt><trkpt lat="45.7366539" lon="10.7352993"><ele>82.0</ele><time>2026-04-26T09:51:06.092Z</time></trkpt><trkpt lat="45.7367671" lon="10.7353799"><ele>82.0</ele><time>2026-04-26T09:51:07.092Z</time></trkpt><trkpt lat="45.7368726" lon="10.735461"><ele>82.0</ele><time>2026-04-26T09:51:08.093Z</time></trkpt><trkpt lat="45.7369771" lon="10.7355289"><ele>82.0</ele><time>2026-04-26T09:51:09.093Z</time></trkpt><trkpt lat="45.7370761" lon="10.7355896"><ele>82.0</ele><time>2026-04-26T09:51:10.093Z</time></trkpt><trkpt lat="45.7371817" lon="10.7356378"><ele>83.75</ele><time>2026-04-26T09:51:11.092Z</time></trkpt><trkpt lat="45.7372944" lon="10.735676"><ele>85.5</ele><time>2026-04-26T09:51:12.092Z</time></trkpt><trkpt lat="45.7374133" lon="10.7356981"><ele>87.25</ele><time>2026-04-26T09:51:13.093Z</time></trkpt><trkpt lat="45.7375362" lon="10.7357159"><ele>89.0</ele><time>2026-04-26T09:51:14.093Z</time></trkpt><trkpt lat="45.7376765" lon="10.7357296"><ele>94.5</ele><time>2026-04-26T09:51:15.093Z</time></trkpt><trkpt lat="45.7378185" lon="10.7357285"><ele>100.0</ele><time>2026-04-26T09:51:16.093Z</time></trkpt><trkpt lat="45.7379556" lon="10.7357167"><ele>105.5</ele><time>2026-04-26T09:51:17.093Z</time></trkpt><trkpt lat="45.7380857" lon="10.735719"><ele>111.0</ele><time>2026-04-26T09:51:18.093Z</time></trkpt><trkpt lat="45.7382079" lon="10.7357212"><ele>111.0</ele><time>2026-04-26T09:51:19.093Z</time></trkpt><trkpt lat="45.7383278" lon="10.735732"><ele>111.0</ele><time>2026-04-26T09:51:20.093Z</time></trkpt><trkpt lat="45.7618916" lon="10.7534805"><ele>111.0</ele><time>2026-04-26T09:54:30.092Z</time></trkpt><trkpt lat="45.7619383" lon="10.753569"><ele>111.0</ele><time>2026-04-26T09:54:31.092Z</time></trkpt><trkpt lat="45.7620254" lon="10.753702"><ele>111.0</ele><time>2026-04-26T09:54:33.093Z</time></trkpt><trkpt lat="45.7620626" lon="10.7538144"><ele>111.0</ele><time>2026-04-26T09:54:34.093Z</time></trkpt><trkpt lat="45.7621431" lon="10.7539566"><ele>111.0</ele><time>2026-04-26T09:54:36.093Z</time></trkpt><trkpt lat="45.762232" lon="10.7540823"><ele>111.0</ele><time>2026-04-26T09:54:38.093Z</time></trkpt><trkpt lat="45.7622789" lon="10.7541556"><ele>111.0</ele><time>2026-04-26T09:54:39.093Z</time></trkpt><trkpt lat="45.7623266" lon="10.7542287"><ele>111.0</ele><time>2026-04-26T09:54:40.093Z</time></trkpt><trkpt lat="45.7623767" lon="10.7543049"><ele>111.0</ele><time>2026-04-26T09:54:41.093Z</time></trkpt><trkpt lat="45.7624272" lon="10.7543799"><ele>111.0</ele><time>2026-04-26T09:54:42.093Z</time></trkpt><trkpt lat="45.762472" lon="10.7544631"><ele>111.0</ele><time>2026-04-26T09:54:43.093Z</time></trkpt><trkpt lat="45.7625148" lon="10.7545374"><ele>111.0</ele><time>2026-04-26T09:54:44.093Z</time></trkpt><trkpt lat="45.7625535" lon="10.7546251"><ele>148.28571428571428</ele><time>2026-04-26T09:54:45.092Z</time></trkpt><trkpt lat="45.7625894" lon="10.7547094"><ele>185.57142857142858</ele><time>2026-04-26T09:54:46.092Z</time></trkpt><trkpt lat="45.7626206" lon="10.7547914"><ele>222.8571428571429</ele><time>2026-04-26T09:54:47.093Z</time></trkpt><trkpt lat="45.7626514" lon="10.7548708"><ele>260.14285714285717</ele><time>2026-04-26T09:54:48.093Z</time></trkpt><trkpt lat="45.7626818" lon="10.7549615"><ele>297.42857142857144</ele><time>2026-04-26T09:54:49.092Z</time></trkpt><trkpt lat="45.7627069" lon="10.7550529"><ele>334.7142857142857</ele><time>2026-04-26T09:54:50.093Z</time></trkpt><trkpt lat="45.7627379" lon="10.7551419"><ele>372.0</ele><time>2026-04-26T09:54:51.093Z</time></trkpt><trkpt lat="45.7627697" lon="10.755248"><ele>375.14285714285717</ele><time>2026-04-26T09:54:52.093Z</time></trkpt><trkpt lat="45.7628035" lon="10.7553552"><ele>378.2857142857143</ele><time>2026-04-26T09:54:53.093Z</time></trkpt><trkpt lat="45.7628382" lon="10.755456"><ele>381.42857142857144</ele><time>2026-04-26T09:54:54.093Z</time></trkpt><trkpt lat="45.7628712" lon="10.7555528"><ele>384.57142857142856</ele><time>2026-04-26T09:54:55.092Z</time></trkpt><trkpt lat="45.7629014" lon="10.7556365"><ele>387.7142857142857</ele><time>2026-04-26T09:54:56.092Z</time></trkpt><trkpt lat="45.7629367" lon="10.7557167"><ele>390.8571428571429</ele><time>2026-04-26T09:54:57.092Z</time></trkpt><trkpt lat="45.7629719" lon="10.7558087"><ele>394.0</ele><time>2026-04-26T09:54:58.093Z</time></trkpt><trkpt lat="45.7630176" lon="10.7559033"><ele>394.00000000000006</ele><time>2026-04-26T09:54:59.093Z</time></trkpt><trkpt lat="45.763069" lon="10.7559959"><ele>394.0</ele><time>2026-04-26T09:55:00.093Z</time></trkpt><trkpt lat="45.7631128" lon="10.7560838"><ele>394.0</ele><time>2026-04-26T09:55:01.093Z</time></trkpt><trkpt lat="45.7631632" lon="10.7561672"><ele>394.0</ele><time>2026-04-26T09:55:02.093Z</time></trkpt><trkpt lat="45.7632166" lon="10.7562455"><ele>394.00000000000006</ele><time>2026-04-26T09:55:03.093Z</time></trkpt><trkpt lat="45.7632678" lon="10.7563267"><ele>394.0</ele><time>2026-04-26T09:55:04.093Z</time></trkpt><trkpt lat="45.7633201" lon="10.7564032"><ele>395.33333333333337</ele><time>2026-04-26T09:55:05.093Z</time></trkpt><trkpt lat="45.763371" lon="10.7564813"><ele>396.6666666666667</ele><time>2026-04-26T09:55:06.093Z</time></trkpt><trkpt lat="45.7634238" lon="10.7565496"><ele>398.0</ele><time>2026-04-26T09:55:07.093Z</time></trkpt><trkpt lat="45.7634719" lon="10.7566187"><ele>399.33333333333337</ele><time>2026-04-26T09:55:08.093Z</time></trkpt><trkpt lat="45.763517" lon="10.7566837"><ele>400.6666666666667</ele><time>2026-04-26T09:55:09.093Z</time></trkpt><trkpt lat="45.7636023" lon="10.756798"><ele>402.0</ele><time>2026-04-26T09:55:11.093Z</time></trkpt><trkpt lat="45.7636869" lon="10.7569031"><ele>402.0</ele><time>2026-04-26T09:55:13.093Z</time></trkpt><trkpt lat="45.7637759" lon="10.757025"><ele>402.0</ele><time>2026-04-26T09:55:15.092Z</time></trkpt><trkpt lat="45.7638603" lon="10.7571681"><ele>402.0</ele><time>2026-04-26T09:55:17.093Z</time></trkpt><trkpt lat="45.7639069" lon="10.7572537"><ele>402.0</ele><time>2026-04-26T09:55:18.092Z</time></trkpt><trkpt lat="45.7639506" lon="10.7573368"><ele>402.0</ele><time>2026-04-26T09:55:19.093Z</time></trkpt><trkpt lat="45.7639913" lon="10.7574233"><ele>402.0</ele><time>2026-04-26T09:55:20.093Z</time></trkpt><trkpt lat="45.764035" lon="10.7575216"><ele>402.0</ele><time>2026-04-26T09:55:21.093Z</time></trkpt><trkpt lat="45.7640853" lon="10.75762"><ele>402.0</ele><time>2026-04-26T09:55:22.093Z</time></trkpt><trkpt lat="45.7641317" lon="10.7577216"><ele>402.0</ele><time>2026-04-26T09:55:23.092Z</time></trkpt><trkpt lat="45.7641827" lon="10.7578219"><ele>402.0</ele><time>2026-04-26T09:55:24.093Z</time></trkpt><trkpt lat="45.764232" lon="10.75792"><ele>402.0</ele><time>2026-04-26T09:55:25.093Z</time></trkpt><trkpt lat="45.7642864" lon="10.758013"><ele>401.6666666666667</ele><time>2026-04-26T09:55:26.093Z</time></trkpt><trkpt lat="45.7643436" lon="10.7580931"><ele>401.33333333333337</ele><time>2026-04-26T09:55:27.093Z</time></trkpt><trkpt lat="45.764402" lon="10.7581684"><ele>401.0</ele><time>2026-04-26T09:55:28.093Z</time></trkpt><trkpt lat="45.7644581" lon="10.7582379"><ele>400.6666666666667</ele><time>2026-04-26T09:55:29.093Z</time></trkpt><trkpt lat="45.7645178" lon="10.7583012"><ele>400.33333333333337</ele><time>2026-04-26T09:55:30.093Z</time></trkpt><trkpt lat="45.7645795" lon="10.7583677"><ele>400.0</ele><time>2026-04-26T09:55:31.093Z</time></trkpt><trkpt lat="45.7646405" lon="10.7584347"><ele>399.50000000000006</ele><time>2026-04-26T09:55:32.093Z</time></trkpt><trkpt lat="45.7647065" lon="10.7585073"><ele>399.0</ele><time>2026-04-26T09:55:33.093Z</time></trkpt><trkpt lat="45.7647746" lon="10.7585731"><ele>398.5</ele><time>2026-04-26T09:55:34.092Z</time></trkpt><trkpt lat="45.76484" lon="10.7586301"><ele>398.0</ele><time>2026-04-26T09:55:35.093Z</time></trkpt><trkpt lat="45.7649164" lon="10.758684"><ele>397.50000000000006</ele><time>2026-04-26T09:55:36.092Z</time></trkpt><trkpt lat="45.7649981" lon="10.758727"><ele>397.0</ele><time>2026-04-26T09:55:37.093Z</time></trkpt><trkpt lat="45.7650809" lon="10.7587636"><ele>397.00000000000006</ele><time>2026-04-26T09:55:38.092Z</time></trkpt><trkpt lat="45.7651602" lon="10.7587903"><ele>397.0</ele><time>2026-04-26T09:55:39.093Z</time></trkpt><trkpt lat="45.7652335" lon="10.7588149"><ele>397.0</ele><time>2026-04-26T09:55:40.093Z</time></trkpt><trkpt lat="45.7653041" lon="10.7588442"><ele>397.0</ele><time>2026-04-26T09:55:41.093Z</time></trkpt><trkpt lat="45.765379" lon="10.7588892"><ele>397.00000000000006</ele><time>2026-04-26T09:55:42.093Z</time></trkpt><trkpt lat="45.7654595" lon="10.7589511"><ele>397.0</ele><time>2026-04-26T09:55:43.092Z</time></trkpt><trkpt lat="45.7655302" lon="10.7590303"><ele>397.85714285714283</ele><time>2026-04-26T09:55:44.093Z</time></trkpt><trkpt lat="45.7655892" lon="10.7591103"><ele>398.71428571428567</ele><time>2026-04-26T09:55:45.093Z</time></trkpt><trkpt lat="45.7656483" lon="10.7591839"><ele>399.57142857142856</ele><time>2026-04-26T09:55:46.093Z</time></trkpt><trkpt lat="45.7657114" lon="10.7592565"><ele>400.42857142857144</ele><time>2026-04-26T09:55:47.092Z</time></trkpt><trkpt lat="45.7657665" lon="10.7593225"><ele>401.2857142857143</ele><time>2026-04-26T09:55:48.093Z</time></trkpt><trkpt lat="45.7658255" lon="10.7593845"><ele>402.14285714285717</ele><time>2026-04-26T09:55:49.092Z</time></trkpt><trkpt lat="45.7658784" lon="10.7594357"><ele>403.0</ele><time>2026-04-26T09:55:50.093Z</time></trkpt><trkpt lat="45.7659394" lon="10.759475"><ele>403.0</ele><time>2026-04-26T09:55:51.093Z</time></trkpt><trkpt lat="45.7660074" lon="10.7595125"><ele>403.0</ele><time>2026-04-26T09:55:52.093Z</time></trkpt><trkpt lat="45.7660747" lon="10.759565"><ele>403.0</ele><time>2026-04-26T09:55:53.092Z</time></trkpt><trkpt lat="45.7661355" lon="10.7596282"><ele>403.0</ele><time>2026-04-26T09:55:54.092Z</time></trkpt><trkpt lat="45.7661913" lon="10.7596914"><ele>403.0</ele><time>2026-04-26T09:55:55.093Z</time></trkpt><trkpt lat="45.7662424" lon="10.7597536"><ele>403.0</ele><time>2026-04-26T09:55:56.092Z</time></trkpt><trkpt lat="45.7662923" lon="10.7598238"><ele>403.0</ele><time>2026-04-26T09:55:57.093Z</time></trkpt><trkpt lat="45.7663433" lon="10.7599029"><ele>403.6666666666667</ele><time>2026-04-26T09:55:58.093Z</time></trkpt><trkpt lat="45.7664037" lon="10.7599846"><ele>404.33333333333337</ele><time>2026-04-26T09:55:59.093Z</time></trkpt><trkpt lat="45.7664679" lon="10.7600607"><ele>405.0</ele><time>2026-04-26T09:56:00.093Z</time></trkpt><trkpt lat="45.7665355" lon="10.7601261"><ele>405.66666666666663</ele><time>2026-04-26T09:56:01.093Z</time></trkpt><trkpt lat="45.7666065" lon="10.7601761"><ele>406.3333333333333</ele><time>2026-04-26T09:56:02.093Z</time></trkpt><trkpt lat="45.7666771" lon="10.7602116"><ele>407.0</ele><time>2026-04-26T09:56:03.092Z</time></trkpt><trkpt lat="45.7667416" lon="10.7602591"><ele>406.99999999999994</ele><time>2026-04-26T09:56:04.093Z</time></trkpt><trkpt lat="45.7668071" lon="10.7603088"><ele>407.0</ele><time>2026-04-26T09:56:05.093Z</time></trkpt><trkpt lat="45.7668639" lon="10.7603715"><ele>407.0</ele><time>2026-04-26T09:56:06.093Z</time></trkpt><trkpt lat="45.7669281" lon="10.7604297"><ele>407.0</ele><time>2026-04-26T09:56:07.092Z</time></trkpt><trkpt lat="45.7669906" lon="10.7604874"><ele>406.99999999999994</ele><time>2026-04-26T09:56:08.093Z</time></trkpt><trkpt lat="45.7670569" lon="10.7605507"><ele>407.0</ele><time>2026-04-26T09:56:09.093Z</time></trkpt><trkpt lat="45.7671197" lon="10.7606126"><ele>414.8</ele><time>2026-04-26T09:56:10.093Z</time></trkpt><trkpt lat="45.7671857" lon="10.7606797"><ele>422.6</ele><time>2026-04-26T09:56:11.092Z</time></trkpt><trkpt lat="45.7672623" lon="10.7607484"><ele>430.40000000000003</ele><time>2026-04-26T09:56:12.093Z</time></trkpt><trkpt lat="45.7673445" lon="10.7608154"><ele>438.20000000000005</ele><time>2026-04-26T09:56:13.093Z</time></trkpt><trkpt lat="45.7674261" lon="10.7608841"><ele>446.0</ele><time>2026-04-26T09:56:14.092Z</time></trkpt><trkpt lat="45.767502" lon="10.7609519"><ele>445.99999999999994</ele><time>2026-04-26T09:56:15.093Z</time></trkpt><trkpt lat="45.7675733" lon="10.7610211"><ele>446.0</ele><time>2026-04-26T09:56:16.093Z</time></trkpt><trkpt lat="45.7676401" lon="10.7610938"><ele>446.0</ele><time>2026-04-26T09:56:17.093Z</time></trkpt><trkpt lat="45.7677014" lon="10.7611728"><ele>446.0</ele><time>2026-04-26T09:56:18.093Z</time></trkpt><trkpt lat="45.7677534" lon="10.7612505"><ele>445.99999999999994</ele><time>2026-04-26T09:56:19.092Z</time></trkpt><trkpt lat="45.7677991" lon="10.7613325"><ele>446.0</ele><time>2026-04-26T09:56:20.092Z</time></trkpt><trkpt lat="45.7678421" lon="10.7614066"><ele>445.99999999999994</ele><time>2026-04-26T09:56:21.092Z</time></trkpt><trkpt lat="45.7678877" lon="10.7614756"><ele>446.0</ele><time>2026-04-26T09:56:22.092Z</time></trkpt><trkpt lat="45.7679838" lon="10.761593"><ele>446.0</ele><time>2026-04-26T09:56:24.093Z</time></trkpt><trkpt lat="45.7680405" lon="10.761651"><ele>446.0</ele><time>2026-04-26T09:56:25.093Z</time></trkpt><trkpt lat="45.768099" lon="10.7617086"><ele>445.99999999999994</ele><time>2026-04-26T09:56:26.093Z</time></trkpt><trkpt lat="45.7681592" lon="10.7617612"><ele>446.0</ele><time>2026-04-26T09:56:27.093Z</time></trkpt><trkpt lat="45.7682454" lon="10.7618491"><ele>445.99999999999994</ele><time>2026-04-26T09:56:29.092Z</time></trkpt><trkpt lat="45.7683123" lon="10.7619218"><ele>446.0</ele><time>2026-04-26T09:56:31.093Z</time></trkpt><trkpt lat="45.7683888" lon="10.7619896"><ele>446.0</ele><time>2026-04-26T09:56:33.092Z</time></trkpt><trkpt lat="45.768447" lon="10.7620359"><ele>446.0</ele><time>2026-04-26T09:56:36.093Z</time></trkpt><trkpt lat="45.7685186" lon="10.7620979"><ele>445.99999999999994</ele><time>2026-04-26T09:56:44.093Z</time></trkpt><trkpt lat="45.7685875" lon="10.7621027"><ele>446.0</ele><time>2026-04-26T09:56:46.093Z</time></trkpt><trkpt lat="45.7686344" lon="10.7620357"><ele>446.0</ele><time>2026-04-26T09:56:49.093Z</time></trkpt><trkpt lat="45.7686552" lon="10.7619499"><ele>446.0</ele><time>2026-04-26T09:56:51.093Z</time></trkpt><trkpt lat="45.7686536" lon="10.7618507"><ele>446.0</ele><time>2026-04-26T09:56:53.093Z</time></trkpt><trkpt lat="45.7685536" lon="10.7616287"><ele>446.0</ele><time>2026-04-26T09:56:56.093Z</time></trkpt><trkpt lat="45.7685129" lon="10.7615507"><ele>446.0</ele><time>2026-04-26T09:56:57.093Z</time></trkpt><trkpt lat="45.7684513" lon="10.7614623"><ele>446.0</ele><time>2026-04-26T09:56:58.093Z</time></trkpt><trkpt lat="45.7682521" lon="10.7614976"><ele>446.0</ele><time>2026-04-26T09:56:59.093Z</time></trkpt><trkpt lat="45.7681061" lon="10.7614488"><ele>446.0</ele><time>2026-04-26T09:57:00.092Z</time></trkpt><trkpt lat="45.768006" lon="10.7613627"><ele>446.0</ele><time>2026-04-26T09:57:01.093Z</time></trkpt><trkpt lat="45.7679143" lon="10.7612485"><ele>446.0</ele><time>2026-04-26T09:57:02.093Z</time></trkpt><trkpt lat="45.767824" lon="10.7611409"><ele>446.0</ele><time>2026-04-26T09:57:03.093Z</time></trkpt><trkpt lat="45.7677493" lon="10.7610354"><ele>446.0</ele><time>2026-04-26T09:57:04.093Z</time></trkpt><trkpt lat="45.7676764" lon="10.7609428"><ele>446.0</ele><time>2026-04-26T09:57:05.093Z</time></trkpt><trkpt lat="45.7675991" lon="10.7608702"><ele>446.0</ele><time>2026-04-26T09:57:06.093Z</time></trkpt><trkpt lat="45.7675206" lon="10.7608052"><ele>446.0</ele><time>2026-04-26T09:57:07.093Z</time></trkpt><trkpt lat="45.7674387" lon="10.7607495"><ele>446.0</ele><time>2026-04-26T09:57:08.093Z</time></trkpt><trkpt lat="45.7673586" lon="10.7606926"><ele>446.0</ele><time>2026-04-26T09:57:09.092Z</time></trkpt><trkpt lat="45.7672811" lon="10.7606241"><ele>446.0</ele><time>2026-04-26T09:57:10.093Z</time></trkpt><trkpt lat="45.7672106" lon="10.7605427"><ele>445.99999999999994</ele><time>2026-04-26T09:57:11.093Z</time></trkpt><trkpt lat="45.7671409" lon="10.7604539"><ele>446.0</ele><time>2026-04-26T09:57:12.093Z</time></trkpt><trkpt lat="45.7670732" lon="10.7603791"><ele>446.0</ele><time>2026-04-26T09:57:13.093Z</time></trkpt><trkpt lat="45.7670076" lon="10.7603049"><ele>446.0</ele><time>2026-04-26T09:57:14.093Z</time></trkpt><trkpt lat="45.7669409" lon="10.760228"><ele>445.99999999999994</ele><time>2026-04-26T09:57:15.093Z</time></trkpt><trkpt lat="45.7668747" lon="10.7601512"><ele>446.0</ele><time>2026-04-26T09:57:16.093Z</time></trkpt><trkpt lat="45.7668081" lon="10.7600822"><ele>446.6</ele><time>2026-04-26T09:57:17.093Z</time></trkpt><trkpt lat="45.7667367" lon="10.7600371"><ele>447.20000000000005</ele><time>2026-04-26T09:57:18.093Z</time></trkpt><trkpt lat="45.7666772" lon="10.7599977"><ele>447.79999999999995</ele><time>2026-04-26T09:57:19.092Z</time></trkpt><trkpt lat="45.7665806" lon="10.7599014"><ele>448.4</ele><time>2026-04-26T09:57:21.092Z</time></trkpt><trkpt lat="45.7664895" lon="10.7597788"><ele>449.0</ele><time>2026-04-26T09:57:23.093Z</time></trkpt><trkpt lat="45.7664422" lon="10.7597056"><ele>448.99999999999994</ele><time>2026-04-26T09:57:24.093Z</time></trkpt><trkpt lat="45.7663902" lon="10.759624"><ele>449.0</ele><time>2026-04-26T09:57:25.093Z</time></trkpt><trkpt lat="45.766336" lon="10.7595406"><ele>449.0</ele><time>2026-04-26T09:57:26.093Z</time></trkpt><trkpt lat="45.7662832" lon="10.7594518"><ele>449.0</ele><time>2026-04-26T09:57:27.093Z</time></trkpt><trkpt lat="45.7662217" lon="10.7593719"><ele>448.99999999999994</ele><time>2026-04-26T09:57:28.092Z</time></trkpt><trkpt lat="45.7661537" lon="10.7592952"><ele>449.0</ele><time>2026-04-26T09:57:29.092Z</time></trkpt><trkpt lat="45.7660772" lon="10.7592418"><ele>446.49999999999994</ele><time>2026-04-26T09:57:30.093Z</time></trkpt><trkpt lat="45.7659975" lon="10.759205"><ele>444.0</ele><time>2026-04-26T09:57:31.093Z</time></trkpt><trkpt lat="45.7659326" lon="10.7591652"><ele>441.5</ele><time>2026-04-26T09:57:32.093Z</time></trkpt><trkpt lat="45.7658771" lon="10.7591152"><ele>439.0</ele><time>2026-04-26T09:57:33.092Z</time></trkpt><trkpt lat="45.7657927" lon="10.759039"><ele>436.49999999999994</ele><time>2026-04-26T09:57:35.093Z</time></trkpt><trkpt lat="45.7657249" lon="10.7589912"><ele>434.0</ele><time>2026-04-26T09:57:37.093Z</time></trkpt><trkpt lat="45.7656705" lon="10.7589409"><ele>433.99999999999994</ele><time>2026-04-26T09:57:39.093Z</time></trkpt><trkpt lat="45.7656088" lon="10.7588054"><ele>434.0</ele><time>2026-04-26T09:57:41.092Z</time></trkpt><trkpt lat="45.7655679" lon="10.7587272"><ele>434.0</ele><time>2026-04-26T09:57:42.093Z</time></trkpt><trkpt lat="45.765521" lon="10.7586448"><ele>434.0</ele><time>2026-04-26T09:57:43.093Z</time></trkpt><trkpt lat="45.7654786" lon="10.7585533"><ele>433.99999999999994</ele><time>2026-04-26T09:57:44.093Z</time></trkpt><trkpt lat="45.7654443" lon="10.7584602"><ele>434.0</ele><time>2026-04-26T09:57:45.093Z</time></trkpt><trkpt lat="45.7654016" lon="10.7583874"><ele>432.8333333333333</ele><time>2026-04-26T09:57:46.093Z</time></trkpt><trkpt lat="45.7652723" lon="10.7583798"><ele>431.66666666666663</ele><time>2026-04-26T09:57:48.092Z</time></trkpt><trkpt lat="45.7651924" lon="10.7583773"><ele>430.5</ele><time>2026-04-26T09:57:49.093Z</time></trkpt><trkpt lat="45.7651178" lon="10.7583587"><ele>429.33333333333337</ele><time>2026-04-26T09:57:50.093Z</time></trkpt><trkpt lat="45.7650456" lon="10.7583335"><ele>428.1666666666667</ele><time>2026-04-26T09:57:51.092Z</time></trkpt><trkpt lat="45.7649758" lon="10.7582852"><ele>427.0</ele><time>2026-04-26T09:57:52.093Z</time></trkpt><trkpt lat="45.7649056" lon="10.758221"><ele>427.0</ele><time>2026-04-26T09:57:53.092Z</time></trkpt><trkpt lat="45.7648287" lon="10.7581382"><ele>427.00000000000006</ele><time>2026-04-26T09:57:54.092Z</time></trkpt><trkpt lat="45.7647467" lon="10.7580407"><ele>427.00000000000006</ele><time>2026-04-26T09:57:55.093Z</time></trkpt><trkpt lat="45.7646643" lon="10.7579474"><ele>427.0</ele><time>2026-04-26T09:57:56.093Z</time></trkpt><trkpt lat="45.7645794" lon="10.7578349"><ele>427.0</ele><time>2026-04-26T09:57:57.093Z</time></trkpt><trkpt lat="45.7644927" lon="10.757718"><ele>420.75</ele><time>2026-04-26T09:57:58.093Z</time></trkpt><trkpt lat="45.7644192" lon="10.7575806"><ele>414.5</ele><time>2026-04-26T09:57:59.093Z</time></trkpt><trkpt lat="45.7643416" lon="10.7574368"><ele>408.25</ele><time>2026-04-26T09:58:00.093Z</time></trkpt><trkpt lat="45.764257" lon="10.7573019"><ele>402.0</ele><time>2026-04-26T09:58:01.092Z</time></trkpt><trkpt lat="45.7641714" lon="10.7571688"><ele>402.0</ele><time>2026-04-26T09:58:02.093Z</time></trkpt><trkpt lat="45.7640954" lon="10.7570629"><ele>402.0</ele><time>2026-04-26T09:58:03.093Z</time></trkpt><trkpt lat="45.7640196" lon="10.7569984"><ele>402.0</ele><time>2026-04-26T09:58:04.093Z</time></trkpt><trkpt lat="45.7639578" lon="10.7569563"><ele>402.0</ele><time>2026-04-26T09:58:05.092Z</time></trkpt><trkpt lat="45.7639021" lon="10.7569125"><ele>402.0</ele><time>2026-04-26T09:58:06.092Z</time></trkpt><trkpt lat="45.7638616" lon="10.7567815"><ele>402.0</ele><time>2026-04-26T09:58:08.093Z</time></trkpt><trkpt lat="45.7639382" lon="10.7566731"><ele>402.0</ele><time>2026-04-26T09:58:10.092Z</time></trkpt><trkpt lat="45.7640047" lon="10.7566827"><ele>402.0</ele><time>2026-04-26T09:58:11.093Z</time></trkpt><trkpt lat="45.764071" lon="10.756699"><ele>402.0</ele><time>2026-04-26T09:58:12.093Z</time></trkpt><trkpt lat="45.764106" lon="10.75687"><ele>402.0</ele><time>2026-04-26T09:58:13.093Z</time></trkpt><trkpt lat="45.7641803" lon="10.7569587"><ele>402.0</ele><time>2026-04-26T09:58:14.093Z</time></trkpt><trkpt lat="45.7642639" lon="10.7570578"><ele>402.0</ele><time>2026-04-26T09:58:15.093Z</time></trkpt><trkpt lat="45.7643567" lon="10.7571697"><ele>402.0</ele><time>2026-04-26T09:58:16.093Z</time></trkpt><trkpt lat="45.7644439" lon="10.7572945"><ele>402.0</ele><time>2026-04-26T09:58:17.093Z</time></trkpt><trkpt lat="45.7645327" lon="10.7574304"><ele>402.0</ele><time>2026-04-26T09:58:18.093Z</time></trkpt><trkpt lat="45.7646131" lon="10.7575496"><ele>407.0</ele><time>2026-04-26T09:58:19.092Z</time></trkpt><trkpt lat="45.7646897" lon="10.7576655"><ele>412.0</ele><time>2026-04-26T09:58:20.093Z</time></trkpt><trkpt lat="45.7647621" lon="10.7577701"><ele>417.00000000000006</ele><time>2026-04-26T09:58:21.092Z</time></trkpt><trkpt lat="45.7648308" lon="10.7578699"><ele>422.0</ele><time>2026-04-26T09:58:22.093Z</time></trkpt><trkpt lat="45.7649148" lon="10.7579465"><ele>427.0</ele><time>2026-04-26T09:58:23.093Z</time></trkpt><trkpt lat="45.7650072" lon="10.7579977"><ele>427.0</ele><time>2026-04-26T09:58:24.092Z</time></trkpt><trkpt lat="45.7651116" lon="10.7580272"><ele>427.00000000000006</ele><time>2026-04-26T09:58:25.093Z</time></trkpt><trkpt lat="45.7652091" lon="10.7580361"><ele>427.00000000000006</ele><time>2026-04-26T09:58:26.093Z</time></trkpt><trkpt lat="45.7653094" lon="10.7580234"><ele>427.0</ele><time>2026-04-26T09:58:27.093Z</time></trkpt><trkpt lat="45.7654117" lon="10.7580012"><ele>427.0</ele><time>2026-04-26T09:58:28.093Z</time></trkpt><trkpt lat="45.7655004" lon="10.757986"><ele>437.75</ele><time>2026-04-26T09:58:29.093Z</time></trkpt><trkpt lat="45.7655893" lon="10.7579719"><ele>448.5</ele><time>2026-04-26T09:58:30.093Z</time></trkpt><trkpt lat="45.7656771" lon="10.7579554"><ele>459.25</ele><time>2026-04-26T09:58:31.092Z</time></trkpt><trkpt lat="45.7657674" lon="10.7579451"><ele>470.0</ele><time>2026-04-26T09:58:32.093Z</time></trkpt><trkpt lat="45.7705074" lon="10.7625965"><ele>443.2</ele><time>2026-04-26T09:59:12.092Z</time></trkpt><trkpt lat="45.7705766" lon="10.7626623"><ele>416.4</ele><time>2026-04-26T09:59:13.093Z</time></trkpt><trkpt lat="45.7705632" lon="10.7628287"><ele>389.6</ele><time>2026-04-26T09:59:14.092Z</time></trkpt><trkpt lat="45.7706185" lon="10.7629831"><ele>362.8</ele><time>2026-04-26T09:59:15.093Z</time></trkpt><trkpt lat="45.7706901" lon="10.763086"><ele>336.0</ele><time>2026-04-26T09:59:16.092Z</time></trkpt><trkpt lat="45.7707654" lon="10.7632022"><ele>336.0</ele><time>2026-04-26T09:59:17.093Z</time></trkpt><trkpt lat="45.7708121" lon="10.7633133"><ele>336.0</ele><time>2026-04-26T09:59:18.093Z</time></trkpt><trkpt lat="45.77085" lon="10.7634325"><ele>336.0</ele><time>2026-04-26T09:59:19.093Z</time></trkpt><trkpt lat="45.7708791" lon="10.7635639"><ele>336.0</ele><time>2026-04-26T09:59:20.093Z</time></trkpt><trkpt lat="45.7709204" lon="10.7636937"><ele>336.0</ele><time>2026-04-26T09:59:21.093Z</time></trkpt><trkpt lat="45.7709097" lon="10.7638384"><ele>295.6666666666667</ele><time>2026-04-26T09:59:22.092Z</time></trkpt><trkpt lat="45.7709472" lon="10.7639576"><ele>255.33333333333334</ele><time>2026-04-26T09:59:23.093Z</time></trkpt><trkpt lat="45.7709736" lon="10.7640896"><ele>215.0</ele><time>2026-04-26T09:59:24.093Z</time></trkpt><trkpt lat="45.7710098" lon="10.7641909"><ele>174.66666666666666</ele><time>2026-04-26T09:59:25.093Z</time></trkpt><trkpt lat="45.7710071" lon="10.7642992"><ele>134.33333333333331</ele><time>2026-04-26T09:59:26.093Z</time></trkpt><trkpt lat="45.7710042" lon="10.7643929"><ele>94.0</ele><time>2026-04-26T09:59:27.093Z</time></trkpt><trkpt lat="45.7710316" lon="10.7644788"><ele>94.0</ele><time>2026-04-26T09:59:28.092Z</time></trkpt><trkpt lat="45.7710622" lon="10.7645899"><ele>94.0</ele><time>2026-04-26T09:59:29.093Z</time></trkpt><trkpt lat="45.7711074" lon="10.764692"><ele>94.0</ele><time>2026-04-26T09:59:30.093Z</time></trkpt><trkpt lat="45.7711548" lon="10.7647889"><ele>94.0</ele><time>2026-04-26T09:59:31.092Z</time></trkpt><trkpt lat="45.7712126" lon="10.7648809"><ele>94.0</ele><time>2026-04-26T09:59:32.093Z</time></trkpt><trkpt lat="45.7712869" lon="10.7649607"><ele>94.0</ele><time>2026-04-26T09:59:33.092Z</time></trkpt><trkpt lat="45.771393" lon="10.7649809"><ele>120.0</ele><time>2026-04-26T09:59:34.093Z</time></trkpt><trkpt lat="45.7714806" lon="10.7650409"><ele>146.0</ele><time>2026-04-26T09:59:35.093Z</time></trkpt><trkpt lat="45.7715639" lon="10.7651158"><ele>171.99999999999997</ele><time>2026-04-26T09:59:36.093Z</time></trkpt><trkpt lat="45.7716399" lon="10.7651798"><ele>198.0</ele><time>2026-04-26T09:59:37.092Z</time></trkpt><trkpt lat="45.7717154" lon="10.7652342"><ele>224.0</ele><time>2026-04-26T09:59:38.092Z</time></trkpt><trkpt lat="45.7718098" lon="10.7652403"><ele>235.2</ele><time>2026-04-26T09:59:39.093Z</time></trkpt><trkpt lat="45.7719088" lon="10.7652514"><ele>246.39999999999998</ele><time>2026-04-26T09:59:40.093Z</time></trkpt><trkpt lat="45.7720005" lon="10.7652967"><ele>257.6</ele><time>2026-04-26T09:59:41.093Z</time></trkpt><trkpt lat="45.7721" lon="10.7653599"><ele>268.8</ele><time>2026-04-26T09:59:42.093Z</time></trkpt><trkpt lat="45.7721833" lon="10.7654261"><ele>280.0</ele><time>2026-04-26T09:59:43.093Z</time></trkpt><trkpt lat="45.7722599" lon="10.7655012"><ele>280.0</ele><time>2026-04-26T09:59:44.093Z</time></trkpt><trkpt lat="45.7723162" lon="10.7656019"><ele>280.0</ele><time>2026-04-26T09:59:45.092Z</time></trkpt><trkpt lat="45.7723774" lon="10.7656789"><ele>280.0</ele><time>2026-04-26T09:59:46.093Z</time></trkpt><trkpt lat="45.7724944" lon="10.76576"><ele>280.0</ele><time>2026-04-26T09:59:48.092Z</time></trkpt><trkpt lat="45.7725676" lon="10.7657688"><ele>280.0</ele><time>2026-04-26T09:59:49.093Z</time></trkpt><trkpt lat="45.7726494" lon="10.765783"><ele>281.25</ele><time>2026-04-26T09:59:50.093Z</time></trkpt><trkpt lat="45.7727298" lon="10.7657925"><ele>282.5</ele><time>2026-04-26T09:59:51.093Z</time></trkpt><trkpt lat="45.7728029" lon="10.7657865"><ele>283.75</ele><time>2026-04-26T09:59:52.093Z</time></trkpt><trkpt lat="45.7730948" lon="10.765832"><ele>285.0</ele><time>2026-04-26T09:59:56.093Z</time></trkpt><trkpt lat="45.7732665" lon="10.7658702"><ele>285.0</ele><time>2026-04-26T09:59:57.093Z</time></trkpt><trkpt lat="45.7733406" lon="10.7659048"><ele>285.0</ele><time>2026-04-26T09:59:58.093Z</time></trkpt><trkpt lat="45.7734276" lon="10.7659234"><ele>285.0</ele><time>2026-04-26T09:59:59.093Z</time></trkpt><trkpt lat="45.7735145" lon="10.765942"><ele>285.0</ele><time>2026-04-26T10:00:00.093Z</time></trkpt><trkpt lat="45.7736013" lon="10.7659605"><ele>285.0</ele><time>2026-04-26T10:00:01.093Z</time></trkpt><trkpt lat="45.773688" lon="10.7659791"><ele>285.0</ele><time>2026-04-26T10:00:02.093Z</time></trkpt><trkpt lat="45.7737746" lon="10.7659976"><ele>292.0</ele><time>2026-04-26T10:00:03.093Z</time></trkpt><trkpt lat="45.7738823" lon="10.7659785"><ele>299.0</ele><time>2026-04-26T10:00:04.093Z</time></trkpt><trkpt lat="45.7736448" lon="10.7669811"><ele>288.0</ele><time>2026-04-26T10:00:06.093Z</time></trkpt><trkpt lat="45.7740671" lon="10.7663697"><ele>288.0</ele><time>2026-04-26T10:00:08.093Z</time></trkpt><trkpt lat="45.7741319" lon="10.7663314"><ele>288.0</ele><time>2026-04-26T10:00:09.093Z</time></trkpt><trkpt lat="45.7741864" lon="10.7661673"><ele>288.0</ele><time>2026-04-26T10:00:11.093Z</time></trkpt><trkpt lat="45.7741907" lon="10.7660496"><ele>288.0</ele><time>2026-04-26T10:00:12.092Z</time></trkpt><trkpt lat="45.7741904" lon="10.7659183"><ele>288.0</ele><time>2026-04-26T10:00:13.092Z</time></trkpt><trkpt lat="45.7741804" lon="10.7657941"><ele>288.42857142857144</ele><time>2026-04-26T10:00:14.093Z</time></trkpt><trkpt lat="45.7741686" lon="10.765684"><ele>288.8571428571429</ele><time>2026-04-26T10:00:15.093Z</time></trkpt><trkpt lat="45.7741596" lon="10.7655773"><ele>289.2857142857143</ele><time>2026-04-26T10:00:16.093Z</time></trkpt><trkpt lat="45.7741378" lon="10.7654775"><ele>289.7142857142857</ele><time>2026-04-26T10:00:17.093Z</time></trkpt><trkpt lat="45.7741108" lon="10.7653809"><ele>290.1428571428571</ele><time>2026-04-26T10:00:18.093Z</time></trkpt><trkpt lat="45.7740825" lon="10.7652825"><ele>290.57142857142856</ele><time>2026-04-26T10:00:19.093Z</time></trkpt><trkpt lat="45.7740624" lon="10.7651778"><ele>291.0</ele><time>2026-04-26T10:00:20.093Z</time></trkpt><trkpt lat="45.7740389" lon="10.7650695"><ele>291.0</ele><time>2026-04-26T10:00:21.092Z</time></trkpt><trkpt lat="45.7740151" lon="10.7649557"><ele>291.0</ele><time>2026-04-26T10:00:22.092Z</time></trkpt><trkpt lat="45.7740013" lon="10.7648422"><ele>291.0</ele><time>2026-04-26T10:00:23.093Z</time></trkpt><trkpt lat="45.7739913" lon="10.7647446"><ele>291.0</ele><time>2026-04-26T10:00:24.093Z</time></trkpt><trkpt lat="45.7739769" lon="10.764599"><ele>291.0</ele><time>2026-04-26T10:00:26.093Z</time></trkpt><trkpt lat="45.7739553" lon="10.7644853"><ele>291.0</ele><time>2026-04-26T10:00:28.093Z</time></trkpt><trkpt lat="45.7738666" lon="10.764464"><ele>291.0</ele><time>2026-04-26T10:00:30.092Z</time></trkpt><trkpt lat="45.7738223" lon="10.7645422"><ele>291.0</ele><time>2026-04-26T10:00:31.093Z</time></trkpt><trkpt lat="45.7738041" lon="10.7646401"><ele>291.0</ele><time>2026-04-26T10:00:32.093Z</time></trkpt><trkpt lat="45.7738062" lon="10.7647784"><ele>291.0</ele><time>2026-04-26T10:00:33.093Z</time></trkpt><trkpt lat="45.7738019" lon="10.7649198"><ele>291.0</ele><time>2026-04-26T10:00:34.092Z</time></trkpt><trkpt lat="45.7737932" lon="10.7650676"><ele>291.0</ele><time>2026-04-26T10:00:35.093Z</time></trkpt><trkpt lat="45.7738163" lon="10.7651959"><ele>292.3333333333333</ele><time>2026-04-26T10:00:36.093Z</time></trkpt><trkpt lat="45.7738558" lon="10.7653083"><ele>293.6666666666667</ele><time>2026-04-26T10:00:37.093Z</time></trkpt><trkpt lat="45.7738896" lon="10.7654254"><ele>295.0</ele><time>2026-04-26T10:00:38.092Z</time></trkpt><trkpt lat="45.773915" lon="10.7655515"><ele>296.33333333333337</ele><time>2026-04-26T10:00:39.093Z</time></trkpt><trkpt lat="45.7739527" lon="10.7656704"><ele>297.6666666666667</ele><time>2026-04-26T10:00:40.093Z</time></trkpt><trkpt lat="45.7739587" lon="10.7657696"><ele>299.0</ele><time>2026-04-26T10:00:41.093Z</time></trkpt><trkpt lat="45.7739274" lon="10.7659423"><ele>297.42857142857144</ele><time>2026-04-26T10:00:43.092Z</time></trkpt><trkpt lat="45.7739308" lon="10.7660427"><ele>295.8571428571429</ele><time>2026-04-26T10:00:45.092Z</time></trkpt><trkpt lat="45.7738997" lon="10.7661405"><ele>294.28571428571433</ele><time>2026-04-26T10:19:32.093Z</time></trkpt><trkpt lat="45.7738681" lon="10.7662304"><ele>292.7142857142857</ele><time>2026-04-26T10:19:34.093Z</time></trkpt><trkpt lat="45.7738544" lon="10.7663236"><ele>291.14285714285717</ele><time>2026-04-26T10:19:36.093Z</time></trkpt><trkpt lat="45.7737898" lon="10.7663553"><ele>289.5714285714286</ele><time>2026-04-26T10:19:38.093Z</time></trkpt><trkpt lat="45.7737617" lon="10.7662734"><ele>288.0</ele><time>2026-04-26T10:19:40.093Z</time></trkpt><trkpt lat="45.7737713" lon="10.7661456"><ele>288.00000000000006</ele><time>2026-04-26T10:19:42.093Z</time></trkpt><trkpt lat="45.7738023" lon="10.7660596"><ele>288.0</ele><time>2026-04-26T10:19:43.093Z</time></trkpt><trkpt lat="45.7738293" lon="10.7659666"><ele>288.0</ele><time>2026-04-26T10:19:44.093Z</time></trkpt><trkpt lat="45.7738505" lon="10.7658651"><ele>288.0</ele><time>2026-04-26T10:19:45.092Z</time></trkpt><trkpt lat="45.7738751" lon="10.7657628"><ele>288.0</ele><time>2026-04-26T10:19:46.093Z</time></trkpt><trkpt lat="45.7738759" lon="10.7656546"><ele>288.00000000000006</ele><time>2026-04-26T10:19:47.093Z</time></trkpt><trkpt lat="45.7738616" lon="10.7655516"><ele>288.0</ele><time>2026-04-26T10:19:48.092Z</time></trkpt><trkpt lat="45.7738508" lon="10.765453"><ele>288.5</ele><time>2026-04-26T10:19:49.093Z</time></trkpt><trkpt lat="45.7738225" lon="10.7653721"><ele>289.0</ele><time>2026-04-26T10:19:50.093Z</time></trkpt><trkpt lat="45.77373" lon="10.7652607"><ele>289.5</ele><time>2026-04-26T10:19:52.092Z</time></trkpt><trkpt lat="45.7736666" lon="10.7651083"><ele>290.0</ele><time>2026-04-26T10:19:54.093Z</time></trkpt><trkpt lat="45.773666" lon="10.7650168"><ele>290.5</ele><time>2026-04-26T10:19:55.093Z</time></trkpt><trkpt lat="45.7736662" lon="10.7649196"><ele>291.0</ele><time>2026-04-26T10:19:56.093Z</time></trkpt><trkpt lat="45.7736686" lon="10.7648218"><ele>291.0</ele><time>2026-04-26T10:19:57.093Z</time></trkpt><trkpt lat="45.7736747" lon="10.7647301"><ele>291.0</ele><time>2026-04-26T10:19:58.093Z</time></trkpt><trkpt lat="45.7736804" lon="10.7646371"><ele>291.0</ele><time>2026-04-26T10:19:59.093Z</time></trkpt><trkpt lat="45.7736894" lon="10.7644869"><ele>291.0</ele><time>2026-04-26T10:20:01.092Z</time></trkpt><trkpt lat="45.7737158" lon="10.7643271"><ele>291.0</ele><time>2026-04-26T10:20:03.093Z</time></trkpt><trkpt lat="45.7737309" lon="10.7641605"><ele>292.3333333333333</ele><time>2026-04-26T10:20:05.093Z</time></trkpt><trkpt lat="45.7737377" lon="10.7640665"><ele>293.6666666666667</ele><time>2026-04-26T10:20:06.093Z</time></trkpt><trkpt lat="45.7737477" lon="10.7639702"><ele>295.0</ele><time>2026-04-26T10:20:07.093Z</time></trkpt><trkpt lat="45.7737655" lon="10.763866"><ele>296.33333333333337</ele><time>2026-04-26T10:20:08.093Z</time></trkpt><trkpt lat="45.7737867" lon="10.7637694"><ele>297.6666666666667</ele><time>2026-04-26T10:20:09.092Z</time></trkpt><trkpt lat="45.7738054" lon="10.7636741"><ele>299.0</ele><time>2026-04-26T10:20:10.093Z</time></trkpt><trkpt lat="45.7738664" lon="10.7635062"><ele>301.33333333333337</ele><time>2026-04-26T10:20:12.093Z</time></trkpt><trkpt lat="45.7738664" lon="10.7634018"><ele>303.6666666666667</ele><time>2026-04-26T10:20:13.093Z</time></trkpt><trkpt lat="45.7738881" lon="10.7633077"><ele>306.0</ele><time>2026-04-26T10:20:14.093Z</time></trkpt><trkpt lat="45.773918" lon="10.7632186"><ele>308.3333333333333</ele><time>2026-04-26T10:20:15.093Z</time></trkpt><trkpt lat="45.7739329" lon="10.7630523"><ele>310.66666666666663</ele><time>2026-04-26T10:20:17.093Z</time></trkpt><trkpt lat="45.7739899" lon="10.7629656"><ele>313.0</ele><time>2026-04-26T10:20:19.093Z</time></trkpt><trkpt lat="45.7741214" lon="10.7628756"><ele>313.0</ele><time>2026-04-26T10:20:21.092Z</time></trkpt><trkpt lat="45.774214" lon="10.7628008"><ele>313.0</ele><time>2026-04-26T10:20:22.092Z</time></trkpt><trkpt lat="45.7742946" lon="10.762766"><ele>313.0</ele><time>2026-04-26T10:20:23.093Z</time></trkpt><trkpt lat="45.7743644" lon="10.7627071"><ele>313.0</ele><time>2026-04-26T10:20:24.093Z</time></trkpt><trkpt lat="45.7744356" lon="10.762665"><ele>313.0</ele><time>2026-04-26T10:20:26.093Z</time></trkpt><trkpt lat="45.7745233" lon="10.7626623"><ele>313.0</ele><time>2026-04-26T10:20:28.093Z</time></trkpt><trkpt lat="45.7745745" lon="10.7625894"><ele>315.8</ele><time>2026-04-26T10:20:29.093Z</time></trkpt><trkpt lat="45.7746237" lon="10.762509"><ele>318.6</ele><time>2026-04-26T10:20:31.092Z</time></trkpt><trkpt lat="45.7746947" lon="10.7624365"><ele>321.40000000000003</ele><time>2026-04-26T10:20:33.092Z</time></trkpt><trkpt lat="45.7747932" lon="10.7623716"><ele>324.20000000000005</ele><time>2026-04-26T10:20:35.093Z</time></trkpt><trkpt lat="45.7748754" lon="10.7623229"><ele>327.0</ele><time>2026-04-26T10:20:37.093Z</time></trkpt><trkpt lat="45.7757777" lon="10.7624381"><ele>329.8</ele><time>2026-04-26T10:20:48.093Z</time></trkpt><trkpt lat="45.7758435" lon="10.7624479"><ele>332.6</ele><time>2026-04-26T10:20:49.093Z</time></trkpt><trkpt lat="45.775917" lon="10.7624698"><ele>335.40000000000003</ele><time>2026-04-26T10:20:50.093Z</time></trkpt><trkpt lat="45.7759908" lon="10.7624909"><ele>338.20000000000005</ele><time>2026-04-26T10:20:51.093Z</time></trkpt><trkpt lat="45.7760645" lon="10.7625119"><ele>341.0</ele><time>2026-04-26T10:20:52.093Z</time></trkpt><trkpt lat="45.7766475" lon="10.762641"><ele>350.0</ele><time>2026-04-26T10:21:05.093Z</time></trkpt><trkpt lat="45.7765348" lon="10.7623716"><ele>359.0</ele><time>2026-04-26T10:21:07.093Z</time></trkpt><trkpt lat="45.776422" lon="10.7621887"><ele>368.0</ele><time>2026-04-26T10:21:08.093Z</time></trkpt><trkpt lat="45.776273" lon="10.7618689"><ele>358.75</ele><time>2026-04-26T10:21:09.093Z</time></trkpt><trkpt lat="45.7762658" lon="10.7617745"><ele>349.5</ele><time>2026-04-26T10:21:10.093Z</time></trkpt><trkpt lat="45.7762217" lon="10.7615462"><ele>340.25</ele><time>2026-04-26T10:21:11.093Z</time></trkpt><trkpt lat="45.7761929" lon="10.7613754"><ele>331.0</ele><time>2026-04-26T10:21:12.092Z</time></trkpt><trkpt lat="45.7762291" lon="10.7612264"><ele>331.0</ele><time>2026-04-26T10:21:14.092Z</time></trkpt><trkpt lat="45.7762873" lon="10.7611568"><ele>331.0</ele><time>2026-04-26T10:21:16.093Z</time></trkpt><trkpt lat="45.7763302" lon="10.7610715"><ele>331.0</ele><time>2026-04-26T10:21:18.093Z</time></trkpt><trkpt lat="45.7763558" lon="10.7609597"><ele>331.0</ele><time>2026-04-26T10:21:21.092Z</time></trkpt><trkpt lat="45.7763567" lon="10.7608435"><ele>331.0</ele><time>2026-04-26T10:21:23.093Z</time></trkpt><trkpt lat="45.7763892" lon="10.7607314"><ele>331.0</ele><time>2026-04-26T10:21:25.093Z</time></trkpt><trkpt lat="45.776451" lon="10.7606107"><ele>328.8</ele><time>2026-04-26T10:21:27.093Z</time></trkpt><trkpt lat="45.7765186" lon="10.7605066"><ele>326.6</ele><time>2026-04-26T10:21:29.093Z</time></trkpt><trkpt lat="45.7765907" lon="10.7604149"><ele>324.4</ele><time>2026-04-26T10:21:31.093Z</time></trkpt><trkpt lat="45.776683" lon="10.7603257"><ele>322.2</ele><time>2026-04-26T10:21:33.093Z</time></trkpt><trkpt lat="45.7767694" lon="10.7601993"><ele>320.0</ele><time>2026-04-26T10:21:35.093Z</time></trkpt><trkpt lat="45.7768193" lon="10.7601422"><ele>318.2</ele><time>2026-04-26T10:21:36.093Z</time></trkpt><trkpt lat="45.7769139" lon="10.7600269"><ele>316.4</ele><time>2026-04-26T10:21:38.093Z</time></trkpt><trkpt lat="45.777018" lon="10.7599356"><ele>314.6</ele><time>2026-04-26T10:21:40.093Z</time></trkpt><trkpt lat="45.7770819" lon="10.7599214"><ele>312.8</ele><time>2026-04-26T10:21:41.093Z</time></trkpt><trkpt lat="45.777166" lon="10.7599898"><ele>311.0</ele><time>2026-04-26T10:21:43.093Z</time></trkpt><trkpt lat="45.7771538" lon="10.7601168"><ele>311.0</ele><time>2026-04-26T10:21:45.093Z</time></trkpt><trkpt lat="45.7770961" lon="10.7602461"><ele>311.0</ele><time>2026-04-26T10:21:47.093Z</time></trkpt><trkpt lat="45.7770037" lon="10.7603809"><ele>311.0</ele><time>2026-04-26T10:21:49.093Z</time></trkpt><trkpt lat="45.776941" lon="10.7604328"><ele>311.0</ele><time>2026-04-26T10:21:50.093Z</time></trkpt><trkpt lat="45.7768843" lon="10.7604858"><ele>311.0</ele><time>2026-04-26T10:21:51.093Z</time></trkpt><trkpt lat="45.776819" lon="10.7605417"><ele>311.0</ele><time>2026-04-26T10:21:52.093Z</time></trkpt><trkpt lat="45.776751" lon="10.7605853"><ele>311.0</ele><time>2026-04-26T10:21:53.093Z</time></trkpt><trkpt lat="45.7766871" lon="10.7606335"><ele>311.0</ele><time>2026-04-26T10:21:54.092Z</time></trkpt><trkpt lat="45.7766298" lon="10.7606978"><ele>311.0</ele><time>2026-04-26T10:21:55.093Z</time></trkpt><trkpt lat="45.7765551" lon="10.7608394"><ele>311.0</ele><time>2026-04-26T10:21:57.092Z</time></trkpt><trkpt lat="45.7764614" lon="10.7609"><ele>311.0</ele><time>2026-04-26T10:21:59.093Z</time></trkpt><trkpt lat="45.7763859" lon="10.7608894"><ele>311.0</ele><time>2026-04-26T10:22:01.093Z</time></trkpt><trkpt lat="45.7762985" lon="10.7608492"><ele>311.0</ele><time>2026-04-26T10:22:03.093Z</time></trkpt><trkpt lat="45.7762656" lon="10.7607581"><ele>311.0</ele><time>2026-04-26T10:22:05.093Z</time></trkpt><trkpt lat="45.7762791" lon="10.7606289"><ele>311.0</ele><time>2026-04-26T10:22:07.093Z</time></trkpt><trkpt lat="45.7762955" lon="10.7605315"><ele>311.0</ele><time>2026-04-26T10:22:08.093Z</time></trkpt><trkpt lat="45.776305" lon="10.7604371"><ele>311.0</ele><time>2026-04-26T10:22:09.093Z</time></trkpt><trkpt lat="45.7763258" lon="10.7603397"><ele>311.0</ele><time>2026-04-26T10:22:10.093Z</time></trkpt><trkpt lat="45.7763461" lon="10.7602367"><ele>311.0</ele><time>2026-04-26T10:22:11.092Z</time></trkpt><trkpt lat="45.7763634" lon="10.7601406"><ele>311.0</ele><time>2026-04-26T10:22:12.093Z</time></trkpt><trkpt lat="45.7764191" lon="10.7600546"><ele>311.0</ele><time>2026-04-26T10:22:13.093Z</time></trkpt><trkpt lat="45.7764707" lon="10.7599728"><ele>311.0</ele><time>2026-04-26T10:22:14.092Z</time></trkpt><trkpt lat="45.7765337" lon="10.7599105"><ele>311.0</ele><time>2026-04-26T10:22:15.093Z</time></trkpt><trkpt lat="45.7766019" lon="10.7598509"><ele>311.0</ele><time>2026-04-26T10:22:16.092Z</time></trkpt><trkpt lat="45.7766771" lon="10.7597883"><ele>311.0</ele><time>2026-04-26T10:22:17.093Z</time></trkpt><trkpt lat="45.7767457" lon="10.7597151"><ele>311.0</ele><time>2026-04-26T10:22:18.093Z</time></trkpt><trkpt lat="45.776808" lon="10.7596358"><ele>311.0</ele><time>2026-04-26T10:22:20.093Z</time></trkpt><trkpt lat="45.7768755" lon="10.7594485"><ele>311.0</ele><time>2026-04-26T10:22:22.093Z</time></trkpt><trkpt lat="45.776929" lon="10.7593753"><ele>310.6666666666667</ele><time>2026-04-26T10:22:23.093Z</time></trkpt><trkpt lat="45.7770044" lon="10.7593234"><ele>310.33333333333337</ele><time>2026-04-26T10:22:24.093Z</time></trkpt><trkpt lat="45.7770676" lon="10.7592453"><ele>310.0</ele><time>2026-04-26T10:22:25.093Z</time></trkpt><trkpt lat="45.7771062" lon="10.7591532"><ele>309.6666666666667</ele><time>2026-04-26T10:22:26.093Z</time></trkpt><trkpt lat="45.7771542" lon="10.7590698"><ele>309.3333333333333</ele><time>2026-04-26T10:22:27.093Z</time></trkpt><trkpt lat="45.7772039" lon="10.7589868"><ele>309.0</ele><time>2026-04-26T10:22:28.093Z</time></trkpt><trkpt lat="45.7772503" lon="10.7589102"><ele>309.0</ele><time>2026-04-26T10:22:29.092Z</time></trkpt><trkpt lat="45.7772959" lon="10.7588445"><ele>309.0</ele><time>2026-04-26T10:22:30.092Z</time></trkpt><trkpt lat="45.7773764" lon="10.7587938"><ele>309.0</ele><time>2026-04-26T10:22:32.093Z</time></trkpt><trkpt lat="45.7774484" lon="10.7587149"><ele>309.0</ele><time>2026-04-26T10:22:33.093Z</time></trkpt><trkpt lat="45.7775045" lon="10.7586553"><ele>309.0</ele><time>2026-04-26T10:22:34.092Z</time></trkpt><trkpt lat="45.7776031" lon="10.7585351"><ele>309.0</ele><time>2026-04-26T10:22:36.093Z</time></trkpt><trkpt lat="45.777646" lon="10.7584658"><ele>312.4</ele><time>2026-04-26T10:22:37.093Z</time></trkpt><trkpt lat="45.7777289" lon="10.7583471"><ele>315.79999999999995</ele><time>2026-04-26T10:22:39.092Z</time></trkpt><trkpt lat="45.7778493" lon="10.7583006"><ele>319.20000000000005</ele><time>2026-04-26T10:22:41.093Z</time></trkpt><trkpt lat="45.7779207" lon="10.758313"><ele>322.6</ele><time>2026-04-26T10:22:42.093Z</time></trkpt><trkpt lat="45.7779857" lon="10.7583655"><ele>326.0</ele><time>2026-04-26T10:22:43.093Z</time></trkpt><trkpt lat="45.7780344" lon="10.7584533"><ele>324.0</ele><time>2026-04-26T10:22:44.093Z</time></trkpt><trkpt lat="45.7780554" lon="10.7585606"><ele>322.0</ele><time>2026-04-26T10:22:45.092Z</time></trkpt><trkpt lat="45.7780558" lon="10.7586782"><ele>320.0</ele><time>2026-04-26T10:22:46.093Z</time></trkpt><trkpt lat="45.7780284" lon="10.7587906"><ele>318.0</ele><time>2026-04-26T10:22:47.092Z</time></trkpt><trkpt lat="45.7779918" lon="10.758893"><ele>316.0</ele><time>2026-04-26T10:22:48.092Z</time></trkpt><trkpt lat="45.7779678" lon="10.758984"><ele>314.0</ele><time>2026-04-26T10:22:49.092Z</time></trkpt><trkpt lat="45.777991" lon="10.7591259"><ele>314.0</ele><time>2026-04-26T10:22:51.093Z</time></trkpt><trkpt lat="45.7780793" lon="10.759273"><ele>314.0</ele><time>2026-04-26T10:22:53.092Z</time></trkpt><trkpt lat="45.7781127" lon="10.7593653"><ele>314.0</ele><time>2026-04-26T10:22:54.093Z</time></trkpt><trkpt lat="45.7781641" lon="10.7594519"><ele>314.0</ele><time>2026-04-26T10:22:55.093Z</time></trkpt><trkpt lat="45.7781783" lon="10.7595454"><ele>314.0</ele><time>2026-04-26T10:22:56.092Z</time></trkpt><trkpt lat="45.7782194" lon="10.7596189"><ele>314.0</ele><time>2026-04-26T10:22:57.093Z</time></trkpt><trkpt lat="45.7783321" lon="10.7596753"><ele>317.75</ele><time>2026-04-26T10:22:59.093Z</time></trkpt><trkpt lat="45.7784657" lon="10.7596079"><ele>321.5</ele><time>2026-04-26T10:23:01.093Z</time></trkpt><trkpt lat="45.7785552" lon="10.7595636"><ele>325.25</ele><time>2026-04-26T10:23:02.093Z</time></trkpt><trkpt lat="45.7786672" lon="10.7595088"><ele>329.0</ele><time>2026-04-26T10:23:03.093Z</time></trkpt><trkpt lat="45.7787838" lon="10.7594514"><ele>328.5</ele><time>2026-04-26T10:23:04.092Z</time></trkpt><trkpt lat="45.778895" lon="10.7594132"><ele>328.0</ele><time>2026-04-26T10:23:05.093Z</time></trkpt><trkpt lat="45.7789958" lon="10.7593974"><ele>327.5</ele><time>2026-04-26T10:23:06.093Z</time></trkpt><trkpt lat="45.7790704" lon="10.7593663"><ele>327.0</ele><time>2026-04-26T10:23:07.093Z</time></trkpt><trkpt lat="45.7791367" lon="10.7593661"><ele>326.5</ele><time>2026-04-26T10:23:08.092Z</time></trkpt><trkpt lat="45.7792231" lon="10.7593667"><ele>326.0</ele><time>2026-04-26T10:23:10.093Z</time></trkpt><trkpt lat="45.77935" lon="10.7593989"><ele>327.0</ele><time>2026-04-26T10:23:12.093Z</time></trkpt><trkpt lat="45.779429" lon="10.7594315"><ele>328.0</ele><time>2026-04-26T10:23:13.093Z</time></trkpt><trkpt lat="45.7795134" lon="10.7594698"><ele>329.0</ele><time>2026-04-26T10:23:14.092Z</time></trkpt><trkpt lat="45.7795952" lon="10.759497"><ele>330.0</ele><time>2026-04-26T10:23:15.093Z</time></trkpt><trkpt lat="45.7796737" lon="10.7594904"><ele>331.0</ele><time>2026-04-26T10:23:16.093Z</time></trkpt><trkpt lat="45.7797321" lon="10.759435"><ele>332.0</ele><time>2026-04-26T10:23:17.093Z</time></trkpt><trkpt lat="45.7797652" lon="10.7593424"><ele>332.0</ele><time>2026-04-26T10:23:18.092Z</time></trkpt><trkpt lat="45.7797673" lon="10.7592351"><ele>332.0</ele><time>2026-04-26T10:23:19.093Z</time></trkpt><trkpt lat="45.7797354" lon="10.7591305"><ele>332.0</ele><time>2026-04-26T10:23:20.093Z</time></trkpt><trkpt lat="45.779674" lon="10.7590267"><ele>332.0</ele><time>2026-04-26T10:23:21.092Z</time></trkpt><trkpt lat="45.7795838" lon="10.7589687"><ele>332.0</ele><time>2026-04-26T10:23:22.093Z</time></trkpt><trkpt lat="45.7794842" lon="10.7589008"><ele>332.0</ele><time>2026-04-26T10:23:23.093Z</time></trkpt><trkpt lat="45.7793781" lon="10.7588284"><ele>332.0</ele><time>2026-04-26T10:23:24.093Z</time></trkpt><trkpt lat="45.7792724" lon="10.7587872"><ele>332.0</ele><time>2026-04-26T10:23:25.093Z</time></trkpt><trkpt lat="45.7791556" lon="10.7587574"><ele>332.0</ele><time>2026-04-26T10:23:26.093Z</time></trkpt><trkpt lat="45.7790352" lon="10.7587404"><ele>330.8</ele><time>2026-04-26T10:23:27.093Z</time></trkpt><trkpt lat="45.7789185" lon="10.7587393"><ele>329.6</ele><time>2026-04-26T10:23:28.093Z</time></trkpt><trkpt lat="45.7788133" lon="10.758723"><ele>328.40000000000003</ele><time>2026-04-26T10:23:29.092Z</time></trkpt><trkpt lat="45.7787232" lon="10.7586951"><ele>327.20000000000005</ele><time>2026-04-26T10:23:30.093Z</time></trkpt><trkpt lat="45.7786492" lon="10.7586498"><ele>326.0</ele><time>2026-04-26T10:23:31.093Z</time></trkpt><trkpt lat="45.7785809" lon="10.7585935"><ele>326.0</ele><time>2026-04-26T10:23:32.093Z</time></trkpt><trkpt lat="45.778524" lon="10.7585184"><ele>326.0</ele><time>2026-04-26T10:23:33.093Z</time></trkpt><trkpt lat="45.7784945" lon="10.7584186"><ele>326.0</ele><time>2026-04-26T10:23:34.093Z</time></trkpt><trkpt lat="45.7784929" lon="10.758309"><ele>326.0</ele><time>2026-04-26T10:23:35.093Z</time></trkpt><trkpt lat="45.7785051" lon="10.7581836"><ele>326.0</ele><time>2026-04-26T10:23:36.093Z</time></trkpt><trkpt lat="45.7785038" lon="10.7580598"><ele>326.0</ele><time>2026-04-26T10:23:37.093Z</time></trkpt><trkpt lat="45.7784761" lon="10.7579366"><ele>326.0</ele><time>2026-04-26T10:23:38.093Z</time></trkpt><trkpt lat="45.7784501" lon="10.7578077"><ele>326.0</ele><time>2026-04-26T10:23:39.093Z</time></trkpt><trkpt lat="45.7783256" lon="10.757753"><ele>326.0</ele><time>2026-04-26T10:23:40.093Z</time></trkpt><trkpt lat="45.7782435" lon="10.7576595"><ele>326.0</ele><time>2026-04-26T10:23:41.092Z</time></trkpt><trkpt lat="45.7781562" lon="10.7575727"><ele>326.0</ele><time>2026-04-26T10:23:42.093Z</time></trkpt><trkpt lat="45.7780982" lon="10.75747"><ele>331.1666666666667</ele><time>2026-04-26T10:23:43.093Z</time></trkpt><trkpt lat="45.7780744" lon="10.7573593"><ele>336.33333333333337</ele><time>2026-04-26T10:23:44.093Z</time></trkpt><trkpt lat="45.7780569" lon="10.7572415"><ele>341.5</ele><time>2026-04-26T10:23:45.093Z</time></trkpt><trkpt lat="45.7780041" lon="10.7571362"><ele>346.6666666666667</ele><time>2026-04-26T10:23:46.093Z</time></trkpt><trkpt lat="45.7779298" lon="10.7570699"><ele>351.8333333333333</ele><time>2026-04-26T10:23:47.093Z</time></trkpt><trkpt lat="45.7778404" lon="10.7570059"><ele>357.0</ele><time>2026-04-26T10:23:48.093Z</time></trkpt><trkpt lat="45.7777888" lon="10.7568853"><ele>357.0</ele><time>2026-04-26T10:23:49.093Z</time></trkpt><trkpt lat="45.7777302" lon="10.7567933"><ele>357.0</ele><time>2026-04-26T10:23:50.092Z</time></trkpt><trkpt lat="45.7776695" lon="10.7567622"><ele>357.0</ele><time>2026-04-26T10:23:51.093Z</time></trkpt><trkpt lat="45.7775642" lon="10.7567755"><ele>357.0</ele><time>2026-04-26T10:23:53.093Z</time></trkpt><trkpt lat="45.777544" lon="10.7569798"><ele>357.0</ele><time>2026-04-26T10:23:54.093Z</time></trkpt><trkpt lat="45.7775388" lon="10.7571153"><ele>357.0</ele><time>2026-04-26T10:23:55.093Z</time></trkpt><trkpt lat="45.7775403" lon="10.757275"><ele>357.0</ele><time>2026-04-26T10:23:56.092Z</time></trkpt><trkpt lat="45.7775427" lon="10.7574405"><ele>357.0</ele><time>2026-04-26T10:23:57.093Z</time></trkpt><trkpt lat="45.7775284" lon="10.7575965"><ele>357.0</ele><time>2026-04-26T10:23:58.093Z</time></trkpt><trkpt lat="45.7774978" lon="10.7577478"><ele>357.0</ele><time>2026-04-26T10:23:59.093Z</time></trkpt><trkpt lat="45.7774591" lon="10.7578889"><ele>353.0</ele><time>2026-04-26T10:24:00.093Z</time></trkpt><trkpt lat="45.7774013" lon="10.7580128"><ele>349.0</ele><time>2026-04-26T10:24:01.093Z</time></trkpt><trkpt lat="45.7773321" lon="10.758127"><ele>345.0</ele><time>2026-04-26T10:24:02.093Z</time></trkpt><trkpt lat="45.7772462" lon="10.7582162"><ele>341.0</ele><time>2026-04-26T10:24:03.093Z</time></trkpt><trkpt lat="45.7771497" lon="10.7583024"><ele>337.0</ele><time>2026-04-26T10:24:04.093Z</time></trkpt><trkpt lat="45.7770364" lon="10.7583832"><ele>337.0</ele><time>2026-04-26T10:24:05.093Z</time></trkpt><trkpt lat="45.7769097" lon="10.7584484"><ele>337.0</ele><time>2026-04-26T10:24:06.093Z</time></trkpt><trkpt lat="45.7767772" lon="10.7585094"><ele>337.0</ele><time>2026-04-26T10:24:07.093Z</time></trkpt><trkpt lat="45.7766452" lon="10.7585777"><ele>337.0</ele><time>2026-04-26T10:24:08.093Z</time></trkpt><trkpt lat="45.7765176" lon="10.7586431"><ele>338.0</ele><time>2026-04-26T10:24:09.093Z</time></trkpt><trkpt lat="45.7763884" lon="10.7586834"><ele>339.0</ele><time>2026-04-26T10:24:10.093Z</time></trkpt><trkpt lat="45.7762602" lon="10.7587018"><ele>340.0</ele><time>2026-04-26T10:24:11.093Z</time></trkpt><trkpt lat="45.7761453" lon="10.7587186"><ele>341.0</ele><time>2026-04-26T10:24:12.093Z</time></trkpt><trkpt lat="45.7760435" lon="10.7587379"><ele>345.0</ele><time>2026-04-26T10:24:13.093Z</time></trkpt><trkpt lat="45.7759638" lon="10.7587845"><ele>349.0</ele><time>2026-04-26T10:24:14.093Z</time></trkpt><trkpt lat="45.7759135" lon="10.7588574"><ele>353.0</ele><time>2026-04-26T10:24:15.092Z</time></trkpt><trkpt lat="45.775901" lon="10.7589704"><ele>357.0</ele><time>2026-04-26T10:24:16.092Z</time></trkpt><trkpt lat="45.775898" lon="10.7590976"><ele>361.0</ele><time>2026-04-26T10:24:17.093Z</time></trkpt><trkpt lat="45.7758761" lon="10.7592303"><ele>365.0</ele><time>2026-04-26T10:24:18.093Z</time></trkpt><trkpt lat="45.7758276" lon="10.7593615"><ele>362.75</ele><time>2026-04-26T10:24:19.093Z</time></trkpt><trkpt lat="45.7757649" lon="10.7594976"><ele>360.5</ele><time>2026-04-26T10:24:20.093Z</time></trkpt><trkpt lat="45.7757082" lon="10.7596512"><ele>358.25</ele><time>2026-04-26T10:24:21.092Z</time></trkpt><trkpt lat="45.7756501" lon="10.7598118"><ele>356.0</ele><time>2026-04-26T10:24:22.093Z</time></trkpt><trkpt lat="45.7755788" lon="10.7599623"><ele>356.0</ele><time>2026-04-26T10:24:23.093Z</time></trkpt><trkpt lat="45.7754987" lon="10.7601164"><ele>356.0</ele><time>2026-04-26T10:24:24.093Z</time></trkpt><trkpt lat="45.7754152" lon="10.760266"><ele>356.0</ele><time>2026-04-26T10:24:25.093Z</time></trkpt><trkpt lat="45.7753269" lon="10.7604209"><ele>356.0</ele><time>2026-04-26T10:24:26.093Z</time></trkpt><trkpt lat="45.7752386" lon="10.7605655"><ele>359.75</ele><time>2026-04-26T10:24:27.092Z</time></trkpt><trkpt lat="45.7751546" lon="10.7607064"><ele>363.5</ele><time>2026-04-26T10:24:28.093Z</time></trkpt><trkpt lat="45.7750706" lon="10.7608269"><ele>367.25</ele><time>2026-04-26T10:24:29.093Z</time></trkpt><trkpt lat="45.7749838" lon="10.7609065"><ele>371.0</ele><time>2026-04-26T10:24:30.093Z</time></trkpt><trkpt lat="45.7748867" lon="10.7609473"><ele>371.0</ele><time>2026-04-26T10:24:31.093Z</time></trkpt><trkpt lat="45.7747693" lon="10.7609731"><ele>371.0</ele><time>2026-04-26T10:24:32.093Z</time></trkpt><trkpt lat="45.7746485" lon="10.7610169"><ele>371.0</ele><time>2026-04-26T10:24:33.093Z</time></trkpt><trkpt lat="45.7745286" lon="10.7610883"><ele>371.0</ele><time>2026-04-26T10:24:34.093Z</time></trkpt><trkpt lat="45.7743969" lon="10.7611621"><ele>369.6666666666667</ele><time>2026-04-26T10:24:35.093Z</time></trkpt><trkpt lat="45.774257" lon="10.7612147"><ele>368.3333333333333</ele><time>2026-04-26T10:24:36.092Z</time></trkpt><trkpt lat="45.7741086" lon="10.7612705"><ele>367.0</ele><time>2026-04-26T10:24:37.092Z</time></trkpt><trkpt lat="45.7739572" lon="10.7613305"><ele>367.0</ele><time>2026-04-26T10:24:38.093Z</time></trkpt><trkpt lat="45.773817" lon="10.7614115"><ele>367.0</ele><time>2026-04-26T10:24:39.093Z</time></trkpt><trkpt lat="45.7736893" lon="10.7614845"><ele>367.0</ele><time>2026-04-26T10:24:40.093Z</time></trkpt><trkpt lat="45.7735745" lon="10.7615158"><ele>367.0</ele><time>2026-04-26T10:24:41.092Z</time></trkpt><trkpt lat="45.7734679" lon="10.7614955"><ele>369.75</ele><time>2026-04-26T10:24:42.093Z</time></trkpt><trkpt lat="45.773365" lon="10.761434"><ele>372.5</ele><time>2026-04-26T10:24:43.093Z</time></trkpt><trkpt lat="45.7732572" lon="10.7613665"><ele>375.25</ele><time>2026-04-26T10:24:44.093Z</time></trkpt><trkpt lat="45.7731457" lon="10.761286"><ele>378.0</ele><time>2026-04-26T10:24:45.093Z</time></trkpt><trkpt lat="45.7730381" lon="10.7611836"><ele>378.0</ele><time>2026-04-26T10:24:46.093Z</time></trkpt><trkpt lat="45.7729398" lon="10.7610723"><ele>378.0</ele><time>2026-04-26T10:24:47.093Z</time></trkpt><trkpt lat="45.7728448" lon="10.7609519"><ele>378.0</ele><time>2026-04-26T10:24:48.093Z</time></trkpt><trkpt lat="45.7727519" lon="10.7608339"><ele>378.0</ele><time>2026-04-26T10:24:49.093Z</time></trkpt><trkpt lat="45.7726562" lon="10.7607511"><ele>380.0</ele><time>2026-04-26T10:24:50.092Z</time></trkpt><trkpt lat="45.7725566" lon="10.7607313"><ele>382.0</ele><time>2026-04-26T10:24:51.093Z</time></trkpt><trkpt lat="45.7724629" lon="10.7607587"><ele>384.0</ele><time>2026-04-26T10:24:52.093Z</time></trkpt><trkpt lat="45.772384" lon="10.7608353"><ele>386.0</ele><time>2026-04-26T10:24:53.093Z</time></trkpt><trkpt lat="45.7723217" lon="10.7609568"><ele>388.0</ele><time>2026-04-26T10:24:54.092Z</time></trkpt><trkpt lat="45.7722666" lon="10.7610928"><ele>388.0</ele><time>2026-04-26T10:24:55.093Z</time></trkpt><trkpt lat="45.7722175" lon="10.7612523"><ele>388.0</ele><time>2026-04-26T10:24:56.093Z</time></trkpt><trkpt lat="45.7721865" lon="10.7614244"><ele>388.0</ele><time>2026-04-26T10:24:57.093Z</time></trkpt><trkpt lat="45.7721867" lon="10.7615903"><ele>388.0</ele><time>2026-04-26T10:24:58.093Z</time></trkpt><trkpt lat="45.7722161" lon="10.7617431"><ele>388.00000000000006</ele><time>2026-04-26T10:24:59.093Z</time></trkpt><trkpt lat="45.772238" lon="10.761869"><ele>388.0</ele><time>2026-04-26T10:25:00.092Z</time></trkpt><trkpt lat="45.7722206" lon="10.7619721"><ele>388.0</ele><time>2026-04-26T10:25:01.093Z</time></trkpt><trkpt lat="45.7721737" lon="10.7620335"><ele>388.0</ele><time>2026-04-26T10:25:02.093Z</time></trkpt><trkpt lat="45.7720706" lon="10.7619718"><ele>388.00000000000006</ele><time>2026-04-26T10:25:04.093Z</time></trkpt><trkpt lat="45.7720572" lon="10.7618757"><ele>388.0</ele><time>2026-04-26T10:25:05.093Z</time></trkpt><trkpt lat="45.772067" lon="10.7617569"><ele>388.0</ele><time>2026-04-26T10:25:06.093Z</time></trkpt><trkpt lat="45.7720863" lon="10.761624"><ele>388.0</ele><time>2026-04-26T10:25:07.092Z</time></trkpt><trkpt lat="45.7721065" lon="10.7614844"><ele>388.0</ele><time>2026-04-26T10:25:08.093Z</time></trkpt><trkpt lat="45.7721202" lon="10.7613554"><ele>388.0</ele><time>2026-04-26T10:25:09.093Z</time></trkpt><trkpt lat="45.772131" lon="10.7612252"><ele>388.0</ele><time>2026-04-26T10:25:10.093Z</time></trkpt><trkpt lat="45.7721295" lon="10.7610939"><ele>389.00000000000006</ele><time>2026-04-26T10:25:11.093Z</time></trkpt><trkpt lat="45.7721125" lon="10.7609627"><ele>390.0</ele><time>2026-04-26T10:25:12.093Z</time></trkpt><trkpt lat="45.7720785" lon="10.7608384"><ele>391.0</ele><time>2026-04-26T10:25:13.093Z</time></trkpt><trkpt lat="45.772041" lon="10.7607182"><ele>392.0</ele><time>2026-04-26T10:25:14.093Z</time></trkpt><trkpt lat="45.7720071" lon="10.7606041"><ele>393.00000000000006</ele><time>2026-04-26T10:25:15.093Z</time></trkpt><trkpt lat="45.7719792" lon="10.7605047"><ele>394.0</ele><time>2026-04-26T10:25:16.093Z</time></trkpt><trkpt lat="45.7719663" lon="10.7603624"><ele>394.00000000000006</ele><time>2026-04-26T10:25:18.093Z</time></trkpt><trkpt lat="45.7719954" lon="10.7602605"><ele>394.0</ele><time>2026-04-26T10:25:20.092Z</time></trkpt><trkpt lat="45.7720566" lon="10.7601812"><ele>394.0</ele><time>2026-04-26T10:25:22.093Z</time></trkpt><trkpt lat="45.7721638" lon="10.7601136"><ele>394.0</ele><time>2026-04-26T10:25:24.093Z</time></trkpt><trkpt lat="45.7722282" lon="10.7600872"><ele>394.00000000000006</ele><time>2026-04-26T10:25:25.092Z</time></trkpt><trkpt lat="45.772294" lon="10.7600618"><ele>394.0</ele><time>2026-04-26T10:25:26.092Z</time></trkpt><trkpt lat="45.7723664" lon="10.7600365"><ele>395.57142857142856</ele><time>2026-04-26T10:25:27.092Z</time></trkpt><trkpt lat="45.7724364" lon="10.7600103"><ele>397.14285714285717</ele><time>2026-04-26T10:25:28.093Z</time></trkpt><trkpt lat="45.7725028" lon="10.7599856"><ele>398.71428571428567</ele><time>2026-04-26T10:25:29.093Z</time></trkpt><trkpt lat="45.7725685" lon="10.7599617"><ele>400.2857142857143</ele><time>2026-04-26T10:25:30.093Z</time></trkpt><trkpt lat="45.7726311" lon="10.75994"><ele>401.85714285714283</ele><time>2026-04-26T10:25:31.093Z</time></trkpt><trkpt lat="45.7726991" lon="10.7599194"><ele>403.4285714285714</ele><time>2026-04-26T10:25:32.093Z</time></trkpt><trkpt lat="45.7727685" lon="10.7598903"><ele>405.0</ele><time>2026-04-26T10:25:33.093Z</time></trkpt><trkpt lat="45.7728431" lon="10.7598698"><ele>405.3333333333333</ele><time>2026-04-26T10:25:34.093Z</time></trkpt><trkpt lat="45.7729181" lon="10.7598498"><ele>405.66666666666663</ele><time>2026-04-26T10:25:35.092Z</time></trkpt><trkpt lat="45.7729918" lon="10.759824"><ele>406.0</ele><time>2026-04-26T10:25:36.093Z</time></trkpt><trkpt lat="45.7730661" lon="10.7597939"><ele>406.3333333333333</ele><time>2026-04-26T10:25:37.093Z</time></trkpt><trkpt lat="45.7731401" lon="10.7597591"><ele>406.66666666666663</ele><time>2026-04-26T10:25:38.092Z</time></trkpt><trkpt lat="45.7732106" lon="10.7597171"><ele>407.0</ele><time>2026-04-26T10:25:39.093Z</time></trkpt><trkpt lat="45.7732785" lon="10.7596633"><ele>406.99999999999994</ele><time>2026-04-26T10:25:40.092Z</time></trkpt><trkpt lat="45.7733494" lon="10.7596036"><ele>407.0</ele><time>2026-04-26T10:25:41.093Z</time></trkpt><trkpt lat="45.7734219" lon="10.7595336"><ele>407.0</ele><time>2026-04-26T10:25:42.093Z</time></trkpt><trkpt lat="45.7734933" lon="10.7594596"><ele>407.0</ele><time>2026-04-26T10:25:43.093Z</time></trkpt><trkpt lat="45.7735555" lon="10.7593822"><ele>406.99999999999994</ele><time>2026-04-26T10:25:44.093Z</time></trkpt><trkpt lat="45.7736188" lon="10.759308"><ele>407.0</ele><time>2026-04-26T10:25:45.093Z</time></trkpt><trkpt lat="45.7736756" lon="10.7592312"><ele>405.66666666666663</ele><time>2026-04-26T10:25:46.093Z</time></trkpt><trkpt lat="45.7737371" lon="10.7591561"><ele>404.3333333333333</ele><time>2026-04-26T10:25:47.093Z</time></trkpt><trkpt lat="45.7738006" lon="10.7590831"><ele>403.0</ele><time>2026-04-26T10:25:48.093Z</time></trkpt><trkpt lat="45.7738654" lon="10.759"><ele>401.66666666666663</ele><time>2026-04-26T10:25:49.093Z</time></trkpt><trkpt lat="45.7739298" lon="10.75891"><ele>400.3333333333333</ele><time>2026-04-26T10:25:50.093Z</time></trkpt><trkpt lat="45.773992" lon="10.7588098"><ele>399.0</ele><time>2026-04-26T10:25:51.093Z</time></trkpt><trkpt lat="45.7740554" lon="10.7587058"><ele>399.0</ele><time>2026-04-26T10:25:52.092Z</time></trkpt><trkpt lat="45.7741076" lon="10.7585903"><ele>399.0</ele><time>2026-04-26T10:25:53.092Z</time></trkpt><trkpt lat="45.7741534" lon="10.7584719"><ele>399.0</ele><time>2026-04-26T10:25:54.093Z</time></trkpt><trkpt lat="45.7741981" lon="10.7583546"><ele>399.0</ele><time>2026-04-26T10:25:55.093Z</time></trkpt><trkpt lat="45.7742443" lon="10.7582354"><ele>399.0</ele><time>2026-04-26T10:25:56.093Z</time></trkpt><trkpt lat="45.7742901" lon="10.7581177"><ele>400.2</ele><time>2026-04-26T10:25:57.093Z</time></trkpt><trkpt lat="45.7743401" lon="10.7580074"><ele>401.4</ele><time>2026-04-26T10:25:58.092Z</time></trkpt><trkpt lat="45.7743974" lon="10.7579032"><ele>402.6</ele><time>2026-04-26T10:25:59.093Z</time></trkpt><trkpt lat="45.7744582" lon="10.7578054"><ele>403.8</ele><time>2026-04-26T10:26:00.093Z</time></trkpt><trkpt lat="45.7745203" lon="10.757714"><ele>405.0</ele><time>2026-04-26T10:26:01.093Z</time></trkpt><trkpt lat="45.7745831" lon="10.75762"><ele>405.0</ele><time>2026-04-26T10:26:02.093Z</time></trkpt><trkpt lat="45.7746436" lon="10.7575239"><ele>405.0</ele><time>2026-04-26T10:26:03.093Z</time></trkpt><trkpt lat="45.7747036" lon="10.7574257"><ele>405.0</ele><time>2026-04-26T10:26:04.092Z</time></trkpt><trkpt lat="45.7747639" lon="10.757329"><ele>405.0</ele><time>2026-04-26T10:26:05.093Z</time></trkpt><trkpt lat="45.7748232" lon="10.7572227"><ele>405.0</ele><time>2026-04-26T10:26:06.093Z</time></trkpt><trkpt lat="45.7748783" lon="10.7571118"><ele>405.0</ele><time>2026-04-26T10:26:07.093Z</time></trkpt><trkpt lat="45.7749294" lon="10.7569946"><ele>405.0</ele><time>2026-04-26T10:26:08.093Z</time></trkpt><trkpt lat="45.774958" lon="10.7568624"><ele>405.0</ele><time>2026-04-26T10:26:09.093Z</time></trkpt><trkpt lat="45.7749796" lon="10.7567273"><ele>405.0</ele><time>2026-04-26T10:26:10.093Z</time></trkpt><trkpt lat="45.7749927" lon="10.7565958"><ele>405.0</ele><time>2026-04-26T10:26:11.092Z</time></trkpt><trkpt lat="45.7749934" lon="10.7564557"><ele>406.6666666666667</ele><time>2026-04-26T10:26:12.092Z</time></trkpt><trkpt lat="45.7749768" lon="10.756318"><ele>408.33333333333337</ele><time>2026-04-26T10:26:13.093Z</time></trkpt><trkpt lat="45.7749816" lon="10.7561847"><ele>410.0</ele><time>2026-04-26T10:26:14.093Z</time></trkpt><trkpt lat="45.775015" lon="10.7560693"><ele>411.6666666666667</ele><time>2026-04-26T10:26:15.093Z</time></trkpt><trkpt lat="45.7750736" lon="10.7559808"><ele>413.33333333333337</ele><time>2026-04-26T10:26:16.092Z</time></trkpt><trkpt lat="45.7751449" lon="10.7559122"><ele>415.0</ele><time>2026-04-26T10:26:17.092Z</time></trkpt><trkpt lat="45.7752268" lon="10.7558438"><ele>415.0</ele><time>2026-04-26T10:26:18.093Z</time></trkpt><trkpt lat="45.7752937" lon="10.7557537"><ele>415.0</ele><time>2026-04-26T10:26:19.093Z</time></trkpt><trkpt lat="45.7753098" lon="10.7556178"><ele>415.0</ele><time>2026-04-26T10:26:20.092Z</time></trkpt><trkpt lat="45.775328" lon="10.7554834"><ele>415.0</ele><time>2026-04-26T10:26:21.092Z</time></trkpt><trkpt lat="45.77533" lon="10.7553451"><ele>415.0</ele><time>2026-04-26T10:26:22.092Z</time></trkpt><trkpt lat="45.7753309" lon="10.755203"><ele>416.8571428571429</ele><time>2026-04-26T10:26:23.093Z</time></trkpt><trkpt lat="45.775352" lon="10.7550825"><ele>418.7142857142857</ele><time>2026-04-26T10:26:24.093Z</time></trkpt><trkpt lat="45.7754058" lon="10.7550127"><ele>420.57142857142856</ele><time>2026-04-26T10:26:25.093Z</time></trkpt><trkpt lat="45.7754681" lon="10.7549815"><ele>422.42857142857144</ele><time>2026-04-26T10:26:26.093Z</time></trkpt><trkpt lat="45.7755362" lon="10.7549734"><ele>424.2857142857143</ele><time>2026-04-26T10:26:27.093Z</time></trkpt><trkpt lat="45.7756091" lon="10.7549851"><ele>426.14285714285717</ele><time>2026-04-26T10:26:28.092Z</time></trkpt><trkpt lat="45.7756811" lon="10.7550092"><ele>428.0</ele><time>2026-04-26T10:26:29.093Z</time></trkpt><trkpt lat="45.7757633" lon="10.7550224"><ele>427.99999999999994</ele><time>2026-04-26T10:26:30.093Z</time></trkpt><trkpt lat="45.775846" lon="10.7550259"><ele>428.0</ele><time>2026-04-26T10:26:31.092Z</time></trkpt><trkpt lat="45.7759247" lon="10.7550272"><ele>428.0</ele><time>2026-04-26T10:26:32.093Z</time></trkpt><trkpt lat="45.7759936" lon="10.755013"><ele>428.0</ele><time>2026-04-26T10:26:33.093Z</time></trkpt><trkpt lat="45.7760952" lon="10.754958"><ele>427.99999999999994</ele><time>2026-04-26T10:26:35.093Z</time></trkpt><trkpt lat="45.7760292" lon="10.7549613"><ele>428.0</ele><time>2026-04-26T10:27:18.093Z</time></trkpt><trkpt lat="45.775915" lon="10.7550107"><ele>428.0</ele><time>2026-04-26T10:27:20.093Z</time></trkpt><trkpt lat="45.775838" lon="10.7550233"><ele>427.99999999999994</ele><time>2026-04-26T10:27:21.093Z</time></trkpt><trkpt lat="45.7757404" lon="10.7550124"><ele>427.99999999999994</ele><time>2026-04-26T10:27:22.093Z</time></trkpt><trkpt lat="45.775637" lon="10.7549893"><ele>428.0</ele><time>2026-04-26T10:27:23.093Z</time></trkpt><trkpt lat="45.7755382" lon="10.7549654"><ele>428.0</ele><time>2026-04-26T10:27:24.093Z</time></trkpt><trkpt lat="45.7754453" lon="10.7549648"><ele>427.99999999999994</ele><time>2026-04-26T10:27:25.092Z</time></trkpt><trkpt lat="45.7753741" lon="10.7550139"><ele>428.0</ele><time>2026-04-26T10:27:26.093Z</time></trkpt><trkpt lat="45.7753367" lon="10.7550956"><ele>428.0</ele><time>2026-04-26T10:27:27.093Z</time></trkpt><trkpt lat="45.7753242" lon="10.7552093"><ele>428.0</ele><time>2026-04-26T10:27:28.093Z</time></trkpt><trkpt lat="45.7753261" lon="10.755348"><ele>427.99999999999994</ele><time>2026-04-26T10:27:29.093Z</time></trkpt><trkpt lat="45.7753157" lon="10.7554984"><ele>428.0</ele><time>2026-04-26T10:27:30.093Z</time></trkpt><trkpt lat="45.7752907" lon="10.7556379"><ele>427.79999999999995</ele><time>2026-04-26T10:27:31.092Z</time></trkpt><trkpt lat="45.7752513" lon="10.7557559"><ele>427.59999999999997</ele><time>2026-04-26T10:27:32.093Z</time></trkpt><trkpt lat="45.7751848" lon="10.7558568"><ele>427.40000000000003</ele><time>2026-04-26T10:27:33.093Z</time></trkpt><trkpt lat="45.775101" lon="10.7559234"><ele>427.20000000000005</ele><time>2026-04-26T10:27:34.092Z</time></trkpt><trkpt lat="45.7750248" lon="10.7559956"><ele>427.0</ele><time>2026-04-26T10:27:35.092Z</time></trkpt><trkpt lat="45.7749671" lon="10.7561052"><ele>425.20000000000005</ele><time>2026-04-26T10:27:36.093Z</time></trkpt><trkpt lat="45.7749546" lon="10.756245"><ele>423.40000000000003</ele><time>2026-04-26T10:27:37.092Z</time></trkpt><trkpt lat="45.7749516" lon="10.756405"><ele>421.6</ele><time>2026-04-26T10:27:38.093Z</time></trkpt><trkpt lat="45.7749659" lon="10.756573"><ele>419.79999999999995</ele><time>2026-04-26T10:27:39.093Z</time></trkpt><trkpt lat="45.774952" lon="10.7567442"><ele>418.0</ele><time>2026-04-26T10:27:40.093Z</time></trkpt><trkpt lat="45.7749159" lon="10.7569096"><ele>414.75</ele><time>2026-04-26T10:27:41.093Z</time></trkpt><trkpt lat="45.7748607" lon="10.7570754"><ele>411.5</ele><time>2026-04-26T10:27:42.093Z</time></trkpt><trkpt lat="45.7747868" lon="10.757232"><ele>408.25</ele><time>2026-04-26T10:27:43.093Z</time></trkpt><trkpt lat="45.7746989" lon="10.7573794"><ele>405.0</ele><time>2026-04-26T10:27:44.093Z</time></trkpt><trkpt lat="45.7746047" lon="10.7575324"><ele>405.0</ele><time>2026-04-26T10:27:45.093Z</time></trkpt><trkpt lat="45.7745064" lon="10.7576956"><ele>405.0</ele><time>2026-04-26T10:27:46.093Z</time></trkpt><trkpt lat="45.7744105" lon="10.7578584"><ele>405.0</ele><time>2026-04-26T10:27:47.093Z</time></trkpt><trkpt lat="45.7743191" lon="10.7580275"><ele>405.0</ele><time>2026-04-26T10:27:48.092Z</time></trkpt><trkpt lat="45.7742376" lon="10.7582114"><ele>405.75</ele><time>2026-04-26T10:27:49.093Z</time></trkpt><trkpt lat="45.7741594" lon="10.7584042"><ele>406.5</ele><time>2026-04-26T10:27:50.092Z</time></trkpt><trkpt lat="45.7740827" lon="10.7585992"><ele>407.25</ele><time>2026-04-26T10:27:51.093Z</time></trkpt><trkpt lat="45.7740024" lon="10.7587546"><ele>408.0</ele><time>2026-04-26T10:27:52.093Z</time></trkpt><trkpt lat="45.7739102" lon="10.7588895"><ele>407.0</ele><time>2026-04-26T10:27:53.093Z</time></trkpt><trkpt lat="45.773813" lon="10.7590165"><ele>406.0</ele><time>2026-04-26T10:27:54.092Z</time></trkpt><trkpt lat="45.7737209" lon="10.7591428"><ele>405.0</ele><time>2026-04-26T10:27:55.092Z</time></trkpt><trkpt lat="45.7736298" lon="10.7592664"><ele>404.0</ele><time>2026-04-26T10:27:56.093Z</time></trkpt><trkpt lat="45.7735305" lon="10.7593826"><ele>404.49999999999994</ele><time>2026-04-26T10:27:57.093Z</time></trkpt><trkpt lat="45.7734403" lon="10.7594897"><ele>405.0</ele><time>2026-04-26T10:27:58.093Z</time></trkpt><trkpt lat="45.7733622" lon="10.7595659"><ele>405.5</ele><time>2026-04-26T10:27:59.093Z</time></trkpt><trkpt lat="45.7733037" lon="10.7596197"><ele>406.0</ele><time>2026-04-26T10:28:00.093Z</time></trkpt><trkpt lat="45.7732423" lon="10.7596938"><ele>406.49999999999994</ele><time>2026-04-26T10:28:02.092Z</time></trkpt><trkpt lat="45.7733275" lon="10.7597231"><ele>407.0</ele><time>2026-04-26T10:28:05.093Z</time></trkpt><trkpt lat="45.7734576" lon="10.7596309"><ele>406.99999999999994</ele><time>2026-04-26T10:28:07.093Z</time></trkpt><trkpt lat="45.7735307" lon="10.759585"><ele>407.0</ele><time>2026-04-26T10:28:08.092Z</time></trkpt><trkpt lat="45.7736301" lon="10.759531"><ele>407.0</ele><time>2026-04-26T10:28:10.093Z</time></trkpt><trkpt lat="45.773694" lon="10.7594786"><ele>407.0</ele><time>2026-04-26T10:28:12.093Z</time></trkpt><trkpt lat="45.7736492" lon="10.7593882"><ele>406.99999999999994</ele><time>2026-04-26T10:30:01.093Z</time></trkpt><trkpt lat="45.7735714" lon="10.7593677"><ele>407.0</ele><time>2026-04-26T10:30:04.093Z</time></trkpt><trkpt lat="45.773484" lon="10.7594335"><ele>406.99999999999994</ele><time>2026-04-26T10:30:06.093Z</time></trkpt><trkpt lat="45.7733751" lon="10.7595328"><ele>407.0</ele><time>2026-04-26T10:30:08.093Z</time></trkpt><trkpt lat="45.7733143" lon="10.7595886"><ele>407.0</ele><time>2026-04-26T10:30:09.093Z</time></trkpt><trkpt lat="45.7732522" lon="10.7596482"><ele>407.0</ele><time>2026-04-26T10:30:10.093Z</time></trkpt><trkpt lat="45.7731842" lon="10.7597035"><ele>406.99999999999994</ele><time>2026-04-26T10:30:11.093Z</time></trkpt><trkpt lat="45.7731123" lon="10.7597513"><ele>407.0</ele><time>2026-04-26T10:30:12.093Z</time></trkpt><trkpt lat="45.7730393" lon="10.7597929"><ele>406.99999999999994</ele><time>2026-04-26T10:30:13.093Z</time></trkpt><trkpt lat="45.772962" lon="10.759826"><ele>407.0</ele><time>2026-04-26T10:30:14.093Z</time></trkpt><trkpt lat="45.7728788" lon="10.7598558"><ele>407.0</ele><time>2026-04-26T10:30:15.093Z</time></trkpt><trkpt lat="45.7727937" lon="10.7598883"><ele>407.0</ele><time>2026-04-26T10:30:16.093Z</time></trkpt><trkpt lat="45.7727033" lon="10.7599163"><ele>406.99999999999994</ele><time>2026-04-26T10:30:17.093Z</time></trkpt><trkpt lat="45.772606" lon="10.75994"><ele>407.0</ele><time>2026-04-26T10:30:18.093Z</time></trkpt><trkpt lat="45.7725198" lon="10.7599736"><ele>406.66666666666663</ele><time>2026-04-26T10:30:19.093Z</time></trkpt><trkpt lat="45.7724401" lon="10.7600026"><ele>406.3333333333333</ele><time>2026-04-26T10:30:20.093Z</time></trkpt><trkpt lat="45.772366" lon="10.760029"><ele>406.0</ele><time>2026-04-26T10:30:21.093Z</time></trkpt><trkpt lat="45.7722961" lon="10.7600579"><ele>405.66666666666663</ele><time>2026-04-26T10:30:22.093Z</time></trkpt><trkpt lat="45.7722334" lon="10.7600809"><ele>405.3333333333333</ele><time>2026-04-26T10:30:23.093Z</time></trkpt><trkpt lat="45.7721208" lon="10.76012"><ele>405.0</ele><time>2026-04-26T10:30:25.093Z</time></trkpt><trkpt lat="45.7720319" lon="10.7601377"><ele>405.0</ele><time>2026-04-26T10:30:27.093Z</time></trkpt><trkpt lat="45.7719596" lon="10.7601466"><ele>405.0</ele><time>2026-04-26T10:30:33.093Z</time></trkpt><trkpt lat="45.7718807" lon="10.7601242"><ele>405.0</ele><time>2026-04-26T10:30:35.093Z</time></trkpt><trkpt lat="45.7717801" lon="10.7601075"><ele>405.0</ele><time>2026-04-26T10:30:37.092Z</time></trkpt><trkpt lat="45.7717045" lon="10.7601464"><ele>405.0</ele><time>2026-04-26T10:30:39.093Z</time></trkpt><trkpt lat="45.7716359" lon="10.7602217"><ele>405.0</ele><time>2026-04-26T10:30:42.093Z</time></trkpt><trkpt lat="45.7715671" lon="10.7602119"><ele>406.0</ele><time>2026-04-26T10:30:44.093Z</time></trkpt><trkpt lat="45.7715279" lon="10.7600716"><ele>407.0</ele><time>2026-04-26T10:30:46.093Z</time></trkpt><trkpt lat="45.7715104" lon="10.7598965"><ele>408.0</ele><time>2026-04-26T10:30:48.092Z</time></trkpt><trkpt lat="45.7715176" lon="10.7597957"><ele>409.0</ele><time>2026-04-26T10:30:49.092Z</time></trkpt><trkpt lat="45.7715309" lon="10.7596905"><ele>410.0</ele><time>2026-04-26T10:30:50.093Z</time></trkpt><trkpt lat="45.7715423" lon="10.7595793"><ele>409.99999999999994</ele><time>2026-04-26T10:30:51.093Z</time></trkpt><trkpt lat="45.7715429" lon="10.7594719"><ele>410.0</ele><time>2026-04-26T10:30:52.093Z</time></trkpt><trkpt lat="45.7715242" lon="10.7593715"><ele>410.0</ele><time>2026-04-26T10:30:53.092Z</time></trkpt><trkpt lat="45.7714832" lon="10.7592677"><ele>410.0</ele><time>2026-04-26T10:30:54.093Z</time></trkpt><trkpt lat="45.771435" lon="10.7591717"><ele>409.99999999999994</ele><time>2026-04-26T10:30:55.093Z</time></trkpt><trkpt lat="45.7713825" lon="10.7590854"><ele>410.0</ele><time>2026-04-26T10:30:56.093Z</time></trkpt><trkpt lat="45.7713203" lon="10.7590262"><ele>412.0</ele><time>2026-04-26T10:30:57.092Z</time></trkpt><trkpt lat="45.771245" lon="10.7589822"><ele>414.0</ele><time>2026-04-26T10:30:58.093Z</time></trkpt><trkpt lat="45.771153" lon="10.7589706"><ele>416.0</ele><time>2026-04-26T10:30:59.092Z</time></trkpt><trkpt lat="45.7710486" lon="10.7589841"><ele>418.0</ele><time>2026-04-26T10:31:00.093Z</time></trkpt><trkpt lat="45.7709379" lon="10.7590006"><ele>420.0</ele><time>2026-04-26T10:31:01.093Z</time></trkpt><trkpt lat="45.7708305" lon="10.7590106"><ele>420.8333333333333</ele><time>2026-04-26T10:31:02.092Z</time></trkpt><trkpt lat="45.7707372" lon="10.7590012"><ele>421.66666666666663</ele><time>2026-04-26T10:31:03.093Z</time></trkpt><trkpt lat="45.7706534" lon="10.7589704"><ele>422.5</ele><time>2026-04-26T10:31:04.093Z</time></trkpt><trkpt lat="45.7705745" lon="10.7589165"><ele>423.3333333333333</ele><time>2026-04-26T10:31:05.093Z</time></trkpt><trkpt lat="45.7704992" lon="10.7588527"><ele>424.16666666666663</ele><time>2026-04-26T10:31:06.093Z</time></trkpt><trkpt lat="45.7704271" lon="10.7587856"><ele>425.0</ele><time>2026-04-26T10:31:07.093Z</time></trkpt><trkpt lat="45.7703665" lon="10.7587398"><ele>425.0</ele><time>2026-04-26T10:31:08.093Z</time></trkpt><trkpt lat="45.7702621" lon="10.7586599"><ele>425.0</ele><time>2026-04-26T10:31:10.093Z</time></trkpt><trkpt lat="45.7701717" lon="10.758581"><ele>425.0</ele><time>2026-04-26T10:31:12.093Z</time></trkpt><trkpt lat="45.7700651" lon="10.758489"><ele>425.0</ele><time>2026-04-26T10:31:14.093Z</time></trkpt><trkpt lat="45.7700042" lon="10.7584381"><ele>425.0</ele><time>2026-04-26T10:31:15.093Z</time></trkpt><trkpt lat="45.7699381" lon="10.7583846"><ele>427.66666666666663</ele><time>2026-04-26T10:31:16.093Z</time></trkpt><trkpt lat="45.7698668" lon="10.7583299"><ele>430.3333333333333</ele><time>2026-04-26T10:31:17.093Z</time></trkpt><trkpt lat="45.7697917" lon="10.7582668"><ele>433.0</ele><time>2026-04-26T10:31:18.093Z</time></trkpt><trkpt lat="45.7697212" lon="10.7581867"><ele>435.66666666666663</ele><time>2026-04-26T10:31:19.093Z</time></trkpt><trkpt lat="45.7696519" lon="10.7580975"><ele>438.3333333333333</ele><time>2026-04-26T10:31:20.092Z</time></trkpt><trkpt lat="45.7695775" lon="10.7580136"><ele>441.0</ele><time>2026-04-26T10:31:21.093Z</time></trkpt><trkpt lat="45.769497" lon="10.7579388"><ele>441.0</ele><time>2026-04-26T10:31:22.093Z</time></trkpt><trkpt lat="45.7694139" lon="10.7578721"><ele>441.0</ele><time>2026-04-26T10:31:23.092Z</time></trkpt><trkpt lat="45.7693324" lon="10.7578127"><ele>441.0</ele><time>2026-04-26T10:31:24.093Z</time></trkpt><trkpt lat="45.7692603" lon="10.7577528"><ele>441.0</ele><time>2026-04-26T10:31:25.093Z</time></trkpt><trkpt lat="45.7692037" lon="10.7577008"><ele>441.0</ele><time>2026-04-26T10:31:26.093Z</time></trkpt><trkpt lat="45.7691142" lon="10.7576257"><ele>441.0</ele><time>2026-04-26T10:31:28.093Z</time></trkpt><trkpt lat="45.7690448" lon="10.7575468"><ele>441.0</ele><time>2026-04-26T10:31:30.093Z</time></trkpt><trkpt lat="45.7689644" lon="10.7575189"><ele>441.0</ele><time>2026-04-26T10:31:32.092Z</time></trkpt><trkpt lat="45.7688949" lon="10.757622"><ele>441.0</ele><time>2026-04-26T10:31:34.093Z</time></trkpt><trkpt lat="45.768827" lon="10.7577808"><ele>441.0</ele><time>2026-04-26T10:31:36.092Z</time></trkpt><trkpt lat="45.7687897" lon="10.7578688"><ele>441.0</ele><time>2026-04-26T10:31:37.092Z</time></trkpt><trkpt lat="45.7687547" lon="10.7579551"><ele>441.0</ele><time>2026-04-26T10:31:38.093Z</time></trkpt><trkpt lat="45.7687185" lon="10.7580424"><ele>441.0</ele><time>2026-04-26T10:31:39.093Z</time></trkpt><trkpt lat="45.7686837" lon="10.7581404"><ele>441.0</ele><time>2026-04-26T10:31:40.092Z</time></trkpt><trkpt lat="45.7686555" lon="10.758228"><ele>441.0</ele><time>2026-04-26T10:31:41.093Z</time></trkpt><trkpt lat="45.7685976" lon="10.7583626"><ele>441.0</ele><time>2026-04-26T10:31:43.093Z</time></trkpt><trkpt lat="45.7685475" lon="10.758489"><ele>441.0</ele><time>2026-04-26T10:31:45.092Z</time></trkpt><trkpt lat="45.7685119" lon="10.7585847"><ele>441.0</ele><time>2026-04-26T10:31:47.092Z</time></trkpt><trkpt lat="45.7684689" lon="10.7586844"><ele>441.0</ele><time>2026-04-26T10:31:50.093Z</time></trkpt><trkpt lat="45.7684578" lon="10.7587844"><ele>441.0</ele><time>2026-04-26T10:32:03.093Z</time></trkpt><trkpt lat="45.7685117" lon="10.7588416"><ele>441.0</ele><time>2026-04-26T10:32:05.093Z</time></trkpt></trkseg><trkseg><trkpt lat="45.7685239" lon="10.7587501"><ele>441.0</ele><time>2026-04-26T10:44:28.092Z</time></trkpt><trkpt lat="45.7685209" lon="10.7586419"><ele>441.0</ele><time>2026-04-26T10:46:46.093Z</time></trkpt><trkpt lat="45.7685216" lon="10.7585439"><ele>441.0</ele><time>2026-04-26T10:46:49.093Z</time></trkpt><trkpt lat="45.7685464" lon="10.7584535"><ele>441.0</ele><time>2026-04-26T10:46:51.093Z</time></trkpt><trkpt lat="45.7685928" lon="10.7583582"><ele>441.0</ele><time>2026-04-26T10:46:53.093Z</time></trkpt><trkpt lat="45.7686497" lon="10.7582387"><ele>441.0</ele><time>2026-04-26T10:46:55.093Z</time></trkpt><trkpt lat="45.768708" lon="10.7581021"><ele>441.0</ele><time>2026-04-26T10:46:57.092Z</time></trkpt><trkpt lat="45.7687646" lon="10.7579832"><ele>441.0</ele><time>2026-04-26T10:46:59.093Z</time></trkpt><trkpt lat="45.7688149" lon="10.7578815"><ele>441.0</ele><time>2026-04-26T10:47:01.093Z</time></trkpt><trkpt lat="45.7688617" lon="10.7577852"><ele>441.0</ele><time>2026-04-26T10:47:03.092Z</time></trkpt><trkpt lat="45.7689048" lon="10.7576682"><ele>441.0</ele><time>2026-04-26T10:47:05.093Z</time></trkpt><trkpt lat="45.7689399" lon="10.757575"><ele>441.0</ele><time>2026-04-26T10:47:07.093Z</time></trkpt><trkpt lat="45.7690018" lon="10.757538"><ele>441.0</ele><time>2026-04-26T10:47:15.093Z</time></trkpt><trkpt lat="45.7690636" lon="10.7575968"><ele>441.0</ele><time>2026-04-26T10:47:18.093Z</time></trkpt><trkpt lat="45.7691449" lon="10.7576773"><ele>441.0</ele><time>2026-04-26T10:47:20.093Z</time></trkpt><trkpt lat="45.7692022" lon="10.7577158"><ele>441.0</ele><time>2026-04-26T10:47:21.093Z</time></trkpt><trkpt lat="45.7692597" lon="10.7577575"><ele>441.0</ele><time>2026-04-26T10:47:22.092Z</time></trkpt><trkpt lat="45.7693176" lon="10.7578074"><ele>441.0</ele><time>2026-04-26T10:47:23.093Z</time></trkpt><trkpt lat="45.7693739" lon="10.7578567"><ele>441.0</ele><time>2026-04-26T10:47:24.092Z</time></trkpt><trkpt lat="45.7694281" lon="10.7579055"><ele>441.0</ele><time>2026-04-26T10:47:25.093Z</time></trkpt><trkpt lat="45.7695226" lon="10.7579965"><ele>441.0</ele><time>2026-04-26T10:47:27.093Z</time></trkpt><trkpt lat="45.7695777" lon="10.7580681"><ele>441.0</ele><time>2026-04-26T10:47:29.092Z</time></trkpt><trkpt lat="45.7696531" lon="10.7581535"><ele>441.0</ele><time>2026-04-26T10:47:39.093Z</time></trkpt><trkpt lat="45.7697413" lon="10.7582487"><ele>441.0</ele><time>2026-04-26T10:47:41.092Z</time></trkpt><trkpt lat="45.7698498" lon="10.758344"><ele>441.0</ele><time>2026-04-26T10:47:43.093Z</time></trkpt><trkpt lat="45.7699147" lon="10.7583941"><ele>441.0</ele><time>2026-04-26T10:47:44.093Z</time></trkpt><trkpt lat="45.7699866" lon="10.7584466"><ele>441.0</ele><time>2026-04-26T10:47:45.093Z</time></trkpt><trkpt lat="45.7700513" lon="10.7585055"><ele>441.0</ele><time>2026-04-26T10:47:46.093Z</time></trkpt><trkpt lat="45.7701122" lon="10.7585605"><ele>441.0</ele><time>2026-04-26T10:47:47.093Z</time></trkpt><trkpt lat="45.7701781" lon="10.7586102"><ele>441.0</ele><time>2026-04-26T10:47:48.093Z</time></trkpt><trkpt lat="45.7702435" lon="10.7586619"><ele>438.7142857142857</ele><time>2026-04-26T10:47:49.092Z</time></trkpt><trkpt lat="45.7702957" lon="10.7587143"><ele>436.42857142857144</ele><time>2026-04-26T10:47:50.093Z</time></trkpt><trkpt lat="45.770358" lon="10.7587564"><ele>434.1428571428571</ele><time>2026-04-26T10:47:51.093Z</time></trkpt><trkpt lat="45.7704162" lon="10.7588083"><ele>431.8571428571429</ele><time>2026-04-26T10:47:52.093Z</time></trkpt><trkpt lat="45.7704731" lon="10.7588584"><ele>429.57142857142856</ele><time>2026-04-26T10:47:53.093Z</time></trkpt><trkpt lat="45.7705318" lon="10.7589076"><ele>427.2857142857143</ele><time>2026-04-26T10:47:54.093Z</time></trkpt><trkpt lat="45.7705845" lon="10.7589583"><ele>425.0</ele><time>2026-04-26T10:47:55.092Z</time></trkpt><trkpt lat="45.7706431" lon="10.7590058"><ele>424.99999999999994</ele><time>2026-04-26T10:47:56.093Z</time></trkpt><trkpt lat="45.7707026" lon="10.7590399"><ele>425.0</ele><time>2026-04-26T10:47:57.093Z</time></trkpt><trkpt lat="45.7707752" lon="10.7590466"><ele>425.0</ele><time>2026-04-26T10:47:58.093Z</time></trkpt><trkpt lat="45.7708467" lon="10.7590521"><ele>425.0</ele><time>2026-04-26T10:47:59.092Z</time></trkpt><trkpt lat="45.7709257" lon="10.7590404"><ele>424.99999999999994</ele><time>2026-04-26T10:48:00.093Z</time></trkpt><trkpt lat="45.771008" lon="10.7590225"><ele>425.0</ele><time>2026-04-26T10:48:01.092Z</time></trkpt><trkpt lat="45.77109" lon="10.759009"><ele>424.16666666666663</ele><time>2026-04-26T10:48:02.093Z</time></trkpt><trkpt lat="45.7711716" lon="10.7590129"><ele>423.3333333333333</ele><time>2026-04-26T10:48:03.093Z</time></trkpt><trkpt lat="45.7712544" lon="10.7590298"><ele>422.5</ele><time>2026-04-26T10:48:04.093Z</time></trkpt><trkpt lat="45.7713302" lon="10.7590744"><ele>421.66666666666663</ele><time>2026-04-26T10:48:05.092Z</time></trkpt><trkpt lat="45.7713932" lon="10.759147"><ele>420.8333333333333</ele><time>2026-04-26T10:48:06.093Z</time></trkpt><trkpt lat="45.7714483" lon="10.7592418"><ele>420.0</ele><time>2026-04-26T10:48:07.093Z</time></trkpt><trkpt lat="45.7714938" lon="10.7593382"><ele>418.3333333333333</ele><time>2026-04-26T10:48:08.093Z</time></trkpt><trkpt lat="45.771528" lon="10.7594363"><ele>416.66666666666663</ele><time>2026-04-26T10:48:09.093Z</time></trkpt><trkpt lat="45.7715405" lon="10.7595458"><ele>415.0</ele><time>2026-04-26T10:48:10.093Z</time></trkpt><trkpt lat="45.7715311" lon="10.759661"><ele>413.3333333333333</ele><time>2026-04-26T10:48:11.093Z</time></trkpt><trkpt lat="45.7715182" lon="10.7597713"><ele>411.66666666666663</ele><time>2026-04-26T10:48:12.092Z</time></trkpt><trkpt lat="45.7715129" lon="10.7598842"><ele>410.0</ele><time>2026-04-26T10:48:13.093Z</time></trkpt><trkpt lat="45.7715112" lon="10.7600055"><ele>409.99999999999994</ele><time>2026-04-26T10:48:14.093Z</time></trkpt><trkpt lat="45.7715236" lon="10.7601115"><ele>410.0</ele><time>2026-04-26T10:48:15.093Z</time></trkpt><trkpt lat="45.7715621" lon="10.7602465"><ele>410.0</ele><time>2026-04-26T10:48:17.093Z</time></trkpt><trkpt lat="45.7716346" lon="10.7603006"><ele>410.0</ele><time>2026-04-26T10:48:19.093Z</time></trkpt><trkpt lat="45.7716798" lon="10.7602324"><ele>409.99999999999994</ele><time>2026-04-26T10:48:22.093Z</time></trkpt><trkpt lat="45.7717621" lon="10.7601737"><ele>410.0</ele><time>2026-04-26T10:48:28.093Z</time></trkpt><trkpt lat="45.7718371" lon="10.7601653"><ele>409.16666666666663</ele><time>2026-04-26T10:48:30.093Z</time></trkpt><trkpt lat="45.7719007" lon="10.7602506"><ele>408.3333333333333</ele><time>2026-04-26T10:48:32.093Z</time></trkpt><trkpt lat="45.7719592" lon="10.7603102"><ele>407.5</ele><time>2026-04-26T10:48:34.093Z</time></trkpt><trkpt lat="45.7720257" lon="10.7602752"><ele>406.66666666666663</ele><time>2026-04-26T10:48:36.093Z</time></trkpt><trkpt lat="45.7721145" lon="10.7601734"><ele>405.8333333333333</ele><time>2026-04-26T10:48:38.093Z</time></trkpt><trkpt lat="45.7721765" lon="10.7601395"><ele>405.0</ele><time>2026-04-26T10:48:39.093Z</time></trkpt><trkpt lat="45.7722426" lon="10.7601135"><ele>405.0</ele><time>2026-04-26T10:48:40.093Z</time></trkpt><trkpt lat="45.7723175" lon="10.7600837"><ele>405.0</ele><time>2026-04-26T10:48:41.093Z</time></trkpt><trkpt lat="45.7723937" lon="10.7600508"><ele>405.0</ele><time>2026-04-26T10:48:42.093Z</time></trkpt><trkpt lat="45.7724739" lon="10.7600159"><ele>405.0</ele><time>2026-04-26T10:48:43.093Z</time></trkpt><trkpt lat="45.7725563" lon="10.7599873"><ele>405.0</ele><time>2026-04-26T10:48:44.093Z</time></trkpt><trkpt lat="45.7726417" lon="10.7599475"><ele>405.0</ele><time>2026-04-26T10:48:45.092Z</time></trkpt><trkpt lat="45.7727236" lon="10.7599138"><ele>405.3333333333333</ele><time>2026-04-26T10:48:46.093Z</time></trkpt><trkpt lat="45.7728113" lon="10.7598921"><ele>405.66666666666663</ele><time>2026-04-26T10:48:47.093Z</time></trkpt><trkpt lat="45.7728986" lon="10.7598661"><ele>406.0</ele><time>2026-04-26T10:48:48.093Z</time></trkpt><trkpt lat="45.772984" lon="10.7598396"><ele>406.3333333333333</ele><time>2026-04-26T10:48:49.093Z</time></trkpt><trkpt lat="45.7730649" lon="10.7598093"><ele>406.66666666666663</ele><time>2026-04-26T10:48:50.092Z</time></trkpt><trkpt lat="45.7731407" lon="10.7597733"><ele>407.0</ele><time>2026-04-26T10:48:51.093Z</time></trkpt><trkpt lat="45.7732073" lon="10.7597335"><ele>406.99999999999994</ele><time>2026-04-26T10:48:52.093Z</time></trkpt><trkpt lat="45.7732697" lon="10.7596876"><ele>407.0</ele><time>2026-04-26T10:48:53.092Z</time></trkpt><trkpt lat="45.7733271" lon="10.7596406"><ele>407.0</ele><time>2026-04-26T10:48:54.093Z</time></trkpt><trkpt lat="45.7733797" lon="10.7595897"><ele>407.0</ele><time>2026-04-26T10:48:55.093Z</time></trkpt><trkpt lat="45.7734314" lon="10.7595368"><ele>406.99999999999994</ele><time>2026-04-26T10:48:56.093Z</time></trkpt><trkpt lat="45.7735245" lon="10.7594434"><ele>407.0</ele><time>2026-04-26T10:48:58.092Z</time></trkpt><trkpt lat="45.7736164" lon="10.7594395"><ele>406.49999999999994</ele><time>2026-04-26T10:49:00.092Z</time></trkpt><trkpt lat="45.7736827" lon="10.7594868"><ele>406.0</ele><time>2026-04-26T10:49:02.093Z</time></trkpt><trkpt lat="45.7737599" lon="10.7594901"><ele>405.5</ele><time>2026-04-26T10:49:10.093Z</time></trkpt><trkpt lat="45.7738126" lon="10.7596033"><ele>405.0</ele><time>2026-04-26T10:49:12.093Z</time></trkpt><trkpt lat="45.7738459" lon="10.7597506"><ele>404.49999999999994</ele><time>2026-04-26T10:49:14.093Z</time></trkpt><trkpt lat="45.7738813" lon="10.7598771"><ele>404.0</ele><time>2026-04-26T10:49:16.093Z</time></trkpt><trkpt lat="45.7739485" lon="10.7599861"><ele>403.99999999999994</ele><time>2026-04-26T10:49:18.093Z</time></trkpt><trkpt lat="45.774047" lon="10.7600126"><ele>404.0</ele><time>2026-04-26T10:49:20.093Z</time></trkpt><trkpt lat="45.7741366" lon="10.7600134"><ele>404.0</ele><time>2026-04-26T10:49:22.093Z</time></trkpt><trkpt lat="45.774194" lon="10.7600523"><ele>404.0</ele><time>2026-04-26T10:49:25.093Z</time></trkpt><trkpt lat="45.7742546" lon="10.7599683"><ele>403.99999999999994</ele><time>2026-04-26T10:53:34.093Z</time></trkpt><trkpt lat="45.7742328" lon="10.7598727"><ele>404.0</ele><time>2026-04-26T10:53:37.092Z</time></trkpt><trkpt lat="45.7741683" lon="10.7598748"><ele>404.0</ele><time>2026-04-26T10:53:40.093Z</time></trkpt><trkpt lat="45.7740862" lon="10.7598688"><ele>404.0</ele><time>2026-04-26T10:53:43.092Z</time></trkpt><trkpt lat="45.7740113" lon="10.7598698"><ele>404.0</ele><time>2026-04-26T10:53:45.093Z</time></trkpt><trkpt lat="45.7739193" lon="10.7599067"><ele>404.0</ele><time>2026-04-26T10:53:47.093Z</time></trkpt><trkpt lat="45.7738229" lon="10.7599427"><ele>404.0</ele><time>2026-04-26T10:53:49.092Z</time></trkpt><trkpt lat="45.7737257" lon="10.7599718"><ele>404.0</ele><time>2026-04-26T10:53:51.093Z</time></trkpt><trkpt lat="45.7736259" lon="10.7599998"><ele>404.0</ele><time>2026-04-26T10:53:53.093Z</time></trkpt><trkpt lat="45.7735333" lon="10.7599815"><ele>404.0</ele><time>2026-04-26T10:53:55.093Z</time></trkpt><trkpt lat="45.7734624" lon="10.7598782"><ele>404.0</ele><time>2026-04-26T10:53:57.093Z</time></trkpt><trkpt lat="45.7733985" lon="10.7597556"><ele>404.0</ele><time>2026-04-26T10:53:59.092Z</time></trkpt><trkpt lat="45.7733594" lon="10.7596602"><ele>403.99999999999994</ele><time>2026-04-26T10:54:09.093Z</time></trkpt><trkpt lat="45.7734044" lon="10.759561"><ele>404.0</ele><time>2026-04-26T10:54:12.093Z</time></trkpt><trkpt lat="45.7734585" lon="10.7595025"><ele>404.0</ele><time>2026-04-26T10:54:13.093Z</time></trkpt><trkpt lat="45.7735428" lon="10.7594184"><ele>404.0</ele><time>2026-04-26T10:54:15.093Z</time></trkpt><trkpt lat="45.7736284" lon="10.7593079"><ele>403.99999999999994</ele><time>2026-04-26T10:54:17.092Z</time></trkpt><trkpt lat="45.7736752" lon="10.7592418"><ele>404.0</ele><time>2026-04-26T10:54:18.092Z</time></trkpt><trkpt lat="45.7737266" lon="10.7591685"><ele>403.16666666666663</ele><time>2026-04-26T10:54:19.093Z</time></trkpt><trkpt lat="45.7737843" lon="10.7591002"><ele>402.3333333333333</ele><time>2026-04-26T10:54:20.093Z</time></trkpt><trkpt lat="45.7738447" lon="10.7590198"><ele>401.5</ele><time>2026-04-26T10:54:21.093Z</time></trkpt><trkpt lat="45.7739093" lon="10.7589306"><ele>400.66666666666663</ele><time>2026-04-26T10:54:22.093Z</time></trkpt><trkpt lat="45.7739759" lon="10.7588369"><ele>399.8333333333333</ele><time>2026-04-26T10:54:23.093Z</time></trkpt><trkpt lat="45.774038" lon="10.7587364"><ele>399.0</ele><time>2026-04-26T10:54:24.093Z</time></trkpt><trkpt lat="45.7740973" lon="10.7586254"><ele>400.79999999999995</ele><time>2026-04-26T10:54:25.093Z</time></trkpt><trkpt lat="45.7741464" lon="10.7585048"><ele>402.59999999999997</ele><time>2026-04-26T10:54:26.093Z</time></trkpt><trkpt lat="45.774194" lon="10.75838"><ele>404.4</ele><time>2026-04-26T10:54:27.092Z</time></trkpt><trkpt lat="45.7742379" lon="10.7582462"><ele>406.2</ele><time>2026-04-26T10:54:28.093Z</time></trkpt><trkpt lat="45.7742879" lon="10.758119"><ele>408.0</ele><time>2026-04-26T10:54:29.093Z</time></trkpt><trkpt lat="45.7743468" lon="10.7579941"><ele>407.4</ele><time>2026-04-26T10:54:30.092Z</time></trkpt><trkpt lat="45.7744104" lon="10.7578779"><ele>406.79999999999995</ele><time>2026-04-26T10:54:31.092Z</time></trkpt><trkpt lat="45.7744824" lon="10.7577709"><ele>406.2</ele><time>2026-04-26T10:54:32.092Z</time></trkpt><trkpt lat="45.7745522" lon="10.7576622"><ele>405.6</ele><time>2026-04-26T10:54:33.093Z</time></trkpt><trkpt lat="45.7746215" lon="10.7575559"><ele>405.0</ele><time>2026-04-26T10:54:34.093Z</time></trkpt><trkpt lat="45.7746898" lon="10.7574537"><ele>405.0</ele><time>2026-04-26T10:54:35.093Z</time></trkpt><trkpt lat="45.7747575" lon="10.7573498"><ele>405.0</ele><time>2026-04-26T10:54:36.093Z</time></trkpt><trkpt lat="45.7748203" lon="10.7572451"><ele>405.0</ele><time>2026-04-26T10:54:37.093Z</time></trkpt><trkpt lat="45.7748786" lon="10.7571314"><ele>405.0</ele><time>2026-04-26T10:54:38.093Z</time></trkpt><trkpt lat="45.7749268" lon="10.7570095"><ele>405.0</ele><time>2026-04-26T10:54:39.092Z</time></trkpt><trkpt lat="45.774968" lon="10.7568833"><ele>407.1666666666667</ele><time>2026-04-26T10:54:40.093Z</time></trkpt><trkpt lat="45.7749911" lon="10.7567512"><ele>409.33333333333337</ele><time>2026-04-26T10:54:41.093Z</time></trkpt><trkpt lat="45.7749981" lon="10.7566159"><ele>411.5</ele><time>2026-04-26T10:54:42.093Z</time></trkpt><trkpt lat="45.7749903" lon="10.7564802"><ele>413.6666666666667</ele><time>2026-04-26T10:54:43.092Z</time></trkpt><trkpt lat="45.7749764" lon="10.7563566"><ele>415.83333333333337</ele><time>2026-04-26T10:54:44.093Z</time></trkpt><trkpt lat="45.7749711" lon="10.7562497"><ele>418.0</ele><time>2026-04-26T10:54:45.093Z</time></trkpt><trkpt lat="45.7749828" lon="10.7561559"><ele>417.4</ele><time>2026-04-26T10:54:46.092Z</time></trkpt><trkpt lat="45.7750431" lon="10.7560235"><ele>416.79999999999995</ele><time>2026-04-26T10:54:48.092Z</time></trkpt><trkpt lat="45.7751455" lon="10.7559444"><ele>416.2</ele><time>2026-04-26T10:54:50.093Z</time></trkpt><trkpt lat="45.7752037" lon="10.7558993"><ele>415.6</ele><time>2026-04-26T10:54:51.093Z</time></trkpt><trkpt lat="45.7752612" lon="10.7558276"><ele>415.0</ele><time>2026-04-26T10:54:52.093Z</time></trkpt><trkpt lat="45.7752996" lon="10.7557232"><ele>415.0</ele><time>2026-04-26T10:54:53.093Z</time></trkpt><trkpt lat="45.7753252" lon="10.755596"><ele>415.0</ele><time>2026-04-26T10:54:54.093Z</time></trkpt><trkpt lat="45.7753389" lon="10.7554562"><ele>415.0</ele><time>2026-04-26T10:54:55.093Z</time></trkpt><trkpt lat="45.775337" lon="10.7553162"><ele>415.0</ele><time>2026-04-26T10:54:56.092Z</time></trkpt><trkpt lat="45.7753371" lon="10.755187"><ele>415.0</ele><time>2026-04-26T10:54:57.092Z</time></trkpt><trkpt lat="45.7753618" lon="10.7550814"><ele>417.1666666666667</ele><time>2026-04-26T10:54:58.093Z</time></trkpt><trkpt lat="45.7754096" lon="10.7550155"><ele>419.33333333333337</ele><time>2026-04-26T10:54:59.093Z</time></trkpt><trkpt lat="45.7754807" lon="10.7549837"><ele>421.5</ele><time>2026-04-26T10:55:00.093Z</time></trkpt><trkpt lat="45.7755702" lon="10.7549858"><ele>423.66666666666663</ele><time>2026-04-26T10:55:01.093Z</time></trkpt><trkpt lat="45.7756552" lon="10.7550095"><ele>425.8333333333333</ele><time>2026-04-26T10:55:02.093Z</time></trkpt><trkpt lat="45.7757404" lon="10.7550299"><ele>428.0</ele><time>2026-04-26T10:55:03.093Z</time></trkpt><trkpt lat="45.7758281" lon="10.7550379"><ele>427.99999999999994</ele><time>2026-04-26T10:55:04.092Z</time></trkpt><trkpt lat="45.775917" lon="10.755034"><ele>428.0</ele><time>2026-04-26T10:55:05.093Z</time></trkpt><trkpt lat="45.776" lon="10.7550162"><ele>428.0</ele><time>2026-04-26T10:55:06.093Z</time></trkpt><trkpt lat="45.7760683" lon="10.7549719"><ele>428.0</ele><time>2026-04-26T10:55:07.093Z</time></trkpt><trkpt lat="45.7761279" lon="10.7549053"><ele>427.99999999999994</ele><time>2026-04-26T10:55:08.093Z</time></trkpt><trkpt lat="45.7761773" lon="10.7548196"><ele>428.0</ele><time>2026-04-26T10:55:09.093Z</time></trkpt><trkpt lat="45.7762216" lon="10.7547311"><ele>427.3333333333333</ele><time>2026-04-26T10:55:10.093Z</time></trkpt><trkpt lat="45.7762681" lon="10.754637"><ele>426.66666666666663</ele><time>2026-04-26T10:55:11.093Z</time></trkpt><trkpt lat="45.7763153" lon="10.7545443"><ele>426.0</ele><time>2026-04-26T10:55:12.092Z</time></trkpt><trkpt lat="45.7763634" lon="10.7544676"><ele>425.33333333333337</ele><time>2026-04-26T10:55:13.093Z</time></trkpt><trkpt lat="45.7764039" lon="10.7543905"><ele>424.6666666666667</ele><time>2026-04-26T10:55:14.092Z</time></trkpt><trkpt lat="45.776441" lon="10.7543175"><ele>424.0</ele><time>2026-04-26T10:55:15.093Z</time></trkpt><trkpt lat="45.7764858" lon="10.7541722"><ele>424.0</ele><time>2026-04-26T10:55:17.092Z</time></trkpt><trkpt lat="45.7764826" lon="10.7539853"><ele>424.0</ele><time>2026-04-26T10:55:19.092Z</time></trkpt><trkpt lat="45.7764709" lon="10.753877"><ele>424.0</ele><time>2026-04-26T10:55:20.092Z</time></trkpt><trkpt lat="45.7764591" lon="10.7537559"><ele>424.0</ele><time>2026-04-26T10:55:21.093Z</time></trkpt><trkpt lat="45.7764543" lon="10.7536215"><ele>424.0</ele><time>2026-04-26T10:55:22.093Z</time></trkpt><trkpt lat="45.7764595" lon="10.7534815"><ele>425.0</ele><time>2026-04-26T10:55:23.093Z</time></trkpt><trkpt lat="45.7764734" lon="10.7533388"><ele>426.0</ele><time>2026-04-26T10:55:24.093Z</time></trkpt><trkpt lat="45.7765056" lon="10.7531965"><ele>427.0</ele><time>2026-04-26T10:55:25.092Z</time></trkpt><trkpt lat="45.7765568" lon="10.7530593"><ele>428.0</ele><time>2026-04-26T10:55:26.093Z</time></trkpt><trkpt lat="45.7766178" lon="10.752921"><ele>429.0</ele><time>2026-04-26T10:55:27.093Z</time></trkpt><trkpt lat="45.7766817" lon="10.7527851"><ele>431.79999999999995</ele><time>2026-04-26T10:55:28.093Z</time></trkpt><trkpt lat="45.776749" lon="10.7526599"><ele>434.59999999999997</ele><time>2026-04-26T10:55:29.093Z</time></trkpt><trkpt lat="45.7768151" lon="10.7525463"><ele>437.4</ele><time>2026-04-26T10:55:30.092Z</time></trkpt><trkpt lat="45.7768779" lon="10.7524533"><ele>440.2</ele><time>2026-04-26T10:55:31.093Z</time></trkpt><trkpt lat="45.7769433" lon="10.7523798"><ele>443.0</ele><time>2026-04-26T10:55:32.093Z</time></trkpt><trkpt lat="45.7770099" lon="10.7523218"><ele>443.57142857142856</ele><time>2026-04-26T10:55:33.093Z</time></trkpt><trkpt lat="45.7770795" lon="10.7522785"><ele>444.14285714285717</ele><time>2026-04-26T10:55:34.093Z</time></trkpt><trkpt lat="45.7771564" lon="10.752258"><ele>444.71428571428567</ele><time>2026-04-26T10:55:35.093Z</time></trkpt><trkpt lat="45.7772342" lon="10.7522624"><ele>445.2857142857143</ele><time>2026-04-26T10:55:36.093Z</time></trkpt><trkpt lat="45.7773072" lon="10.7522972"><ele>445.85714285714283</ele><time>2026-04-26T10:55:37.093Z</time></trkpt><trkpt lat="45.7773617" lon="10.7523634"><ele>446.4285714285714</ele><time>2026-04-26T10:55:38.093Z</time></trkpt><trkpt lat="45.7773864" lon="10.7524549"><ele>447.0</ele><time>2026-04-26T10:55:39.093Z</time></trkpt><trkpt lat="45.7773822" lon="10.7525513"><ele>447.0</ele><time>2026-04-26T10:55:40.092Z</time></trkpt><trkpt lat="45.7773822" lon="10.7526474"><ele>447.0</ele><time>2026-04-26T10:55:41.093Z</time></trkpt><trkpt lat="45.7773948" lon="10.7527586"><ele>447.0</ele><time>2026-04-26T10:55:42.093Z</time></trkpt><trkpt lat="45.7774293" lon="10.7528772"><ele>447.0</ele><time>2026-04-26T10:55:43.093Z</time></trkpt><trkpt lat="45.7774769" lon="10.7529985"><ele>447.0</ele><time>2026-04-26T10:55:44.093Z</time></trkpt><trkpt lat="45.7775316" lon="10.7531104"><ele>447.0</ele><time>2026-04-26T10:55:45.093Z</time></trkpt><trkpt lat="45.777592" lon="10.7532056"><ele>446.5</ele><time>2026-04-26T10:55:46.093Z</time></trkpt><trkpt lat="45.7776542" lon="10.7532801"><ele>446.0</ele><time>2026-04-26T10:55:47.093Z</time></trkpt><trkpt lat="45.77772" lon="10.7533478"><ele>445.5</ele><time>2026-04-26T10:55:48.093Z</time></trkpt><trkpt lat="45.7777938" lon="10.7533587"><ele>445.0</ele><time>2026-04-26T10:55:49.093Z</time></trkpt><trkpt lat="45.7778784" lon="10.7533666"><ele>444.5</ele><time>2026-04-26T10:55:50.093Z</time></trkpt><trkpt lat="45.7779934" lon="10.7533625"><ele>444.0</ele><time>2026-04-26T10:55:51.093Z</time></trkpt><trkpt lat="45.7781271" lon="10.7533666"><ele>444.0</ele><time>2026-04-26T10:55:52.093Z</time></trkpt><trkpt lat="45.778267" lon="10.7533786"><ele>444.0</ele><time>2026-04-26T10:55:53.093Z</time></trkpt><trkpt lat="45.7784131" lon="10.7533867"><ele>444.0</ele><time>2026-04-26T10:55:54.093Z</time></trkpt><trkpt lat="45.7785633" lon="10.7533978"><ele>444.0</ele><time>2026-04-26T10:55:55.093Z</time></trkpt><trkpt lat="45.7787071" lon="10.7534169"><ele>445.33333333333337</ele><time>2026-04-26T10:55:56.092Z</time></trkpt><trkpt lat="45.778852" lon="10.7534549"><ele>446.6666666666667</ele><time>2026-04-26T10:55:57.093Z</time></trkpt><trkpt lat="45.779001" lon="10.7535028"><ele>448.0</ele><time>2026-04-26T10:55:58.093Z</time></trkpt><trkpt lat="45.7791401" lon="10.7536051"><ele>447.25</ele><time>2026-04-26T10:55:59.092Z</time></trkpt><trkpt lat="45.779264" lon="10.7537254"><ele>446.5</ele><time>2026-04-26T10:56:00.093Z</time></trkpt><trkpt lat="45.7793737" lon="10.7538698"><ele>445.75</ele><time>2026-04-26T10:56:01.093Z</time></trkpt><trkpt lat="45.7794708" lon="10.7540281"><ele>445.0</ele><time>2026-04-26T10:56:02.093Z</time></trkpt><trkpt lat="45.7795534" lon="10.7541882"><ele>445.0</ele><time>2026-04-26T10:56:03.093Z</time></trkpt><trkpt lat="45.7796297" lon="10.7543203"><ele>445.0</ele><time>2026-04-26T10:56:04.092Z</time></trkpt><trkpt lat="45.7797081" lon="10.7544144"><ele>445.0</ele><time>2026-04-26T10:56:05.093Z</time></trkpt><trkpt lat="45.7798069" lon="10.7544619"><ele>445.0</ele><time>2026-04-26T10:56:06.093Z</time></trkpt><trkpt lat="45.7799242" lon="10.754474"><ele>445.0</ele><time>2026-04-26T10:56:07.092Z</time></trkpt><trkpt lat="45.7800498" lon="10.7544908"><ele>442.25</ele><time>2026-04-26T10:56:08.093Z</time></trkpt><trkpt lat="45.7801689" lon="10.7545152"><ele>439.5</ele><time>2026-04-26T10:56:09.093Z</time></trkpt><trkpt lat="45.7802905" lon="10.7545186"><ele>436.75</ele><time>2026-04-26T10:56:10.092Z</time></trkpt><trkpt lat="45.7804131" lon="10.7544981"><ele>434.0</ele><time>2026-04-26T10:56:11.093Z</time></trkpt><trkpt lat="45.7805411" lon="10.7544547"><ele>432.25</ele><time>2026-04-26T10:56:12.093Z</time></trkpt><trkpt lat="45.7806721" lon="10.754401"><ele>430.5</ele><time>2026-04-26T10:56:13.093Z</time></trkpt><trkpt lat="45.7808041" lon="10.7543429"><ele>428.75</ele><time>2026-04-26T10:56:14.093Z</time></trkpt><trkpt lat="45.7809334" lon="10.7542699"><ele>427.0</ele><time>2026-04-26T10:56:15.093Z</time></trkpt><trkpt lat="45.7810632" lon="10.7541678"><ele>427.0</ele><time>2026-04-26T10:56:16.093Z</time></trkpt><trkpt lat="45.7811861" lon="10.7540448"><ele>427.0</ele><time>2026-04-26T10:56:17.093Z</time></trkpt><trkpt lat="45.7813075" lon="10.7539133"><ele>427.0</ele><time>2026-04-26T10:56:18.093Z</time></trkpt><trkpt lat="45.7814298" lon="10.7537561"><ele>427.0</ele><time>2026-04-26T10:56:19.093Z</time></trkpt><trkpt lat="45.7815436" lon="10.7535829"><ele>427.0</ele><time>2026-04-26T10:56:20.093Z</time></trkpt><trkpt lat="45.7816512" lon="10.7533997"><ele>427.0</ele><time>2026-04-26T10:56:21.093Z</time></trkpt><trkpt lat="45.7817454" lon="10.7532031"><ele>430.0</ele><time>2026-04-26T10:56:22.093Z</time></trkpt><trkpt lat="45.781829" lon="10.7530013"><ele>433.0</ele><time>2026-04-26T10:56:23.093Z</time></trkpt><trkpt lat="45.7818977" lon="10.7527976"><ele>436.0</ele><time>2026-04-26T10:56:24.093Z</time></trkpt><trkpt lat="45.7819539" lon="10.7525854"><ele>436.0</ele><time>2026-04-26T10:56:25.092Z</time></trkpt><trkpt lat="45.7820016" lon="10.7523697"><ele>436.0</ele><time>2026-04-26T10:56:26.093Z</time></trkpt><trkpt lat="45.7820421" lon="10.7521581"><ele>436.0</ele><time>2026-04-26T10:56:27.092Z</time></trkpt><trkpt lat="45.7820767" lon="10.75197"><ele>436.0</ele><time>2026-04-26T10:56:28.093Z</time></trkpt><trkpt lat="45.7821134" lon="10.7518097"><ele>441.4</ele><time>2026-04-26T10:56:29.092Z</time></trkpt><trkpt lat="45.7821537" lon="10.7516917"><ele>446.8</ele><time>2026-04-26T10:56:30.093Z</time></trkpt><trkpt lat="45.7822078" lon="10.7516052"><ele>452.19999999999993</ele><time>2026-04-26T10:56:31.093Z</time></trkpt><trkpt lat="45.7822989" lon="10.7515622"><ele>457.59999999999997</ele><time>2026-04-26T10:56:32.093Z</time></trkpt><trkpt lat="45.7824044" lon="10.7515271"><ele>463.0</ele><time>2026-04-26T10:56:33.093Z</time></trkpt><trkpt lat="45.7825092" lon="10.7514789"><ele>463.0</ele><time>2026-04-26T10:56:34.093Z</time></trkpt><trkpt lat="45.7825964" lon="10.7514098"><ele>462.99999999999994</ele><time>2026-04-26T10:56:35.093Z</time></trkpt><trkpt lat="45.7826774" lon="10.7513298"><ele>462.99999999999994</ele><time>2026-04-26T10:56:36.093Z</time></trkpt><trkpt lat="45.7827264" lon="10.751162"><ele>463.0</ele><time>2026-04-26T10:56:37.093Z</time></trkpt><trkpt lat="45.7827833" lon="10.7510269"><ele>463.0</ele><time>2026-04-26T10:56:38.093Z</time></trkpt><trkpt lat="45.7827885" lon="10.7508725"><ele>467.5</ele><time>2026-04-26T10:56:39.092Z</time></trkpt><trkpt lat="45.7827746" lon="10.750731"><ele>472.0</ele><time>2026-04-26T10:56:40.093Z</time></trkpt><trkpt lat="45.7827492" lon="10.7505836"><ele>476.5</ele><time>2026-04-26T10:56:41.093Z</time></trkpt><trkpt lat="45.7826805" lon="10.7504335"><ele>481.0</ele><time>2026-04-26T10:56:42.093Z</time></trkpt><trkpt lat="45.7826327" lon="10.7502663"><ele>481.5</ele><time>2026-04-26T10:56:43.093Z</time></trkpt><trkpt lat="45.7825964" lon="10.7500919"><ele>482.0</ele><time>2026-04-26T10:56:44.092Z</time></trkpt><trkpt lat="45.7825853" lon="10.7499141"><ele>482.5</ele><time>2026-04-26T10:56:45.093Z</time></trkpt><trkpt lat="45.7825742" lon="10.7497371"><ele>483.0</ele><time>2026-04-26T10:56:46.092Z</time></trkpt><trkpt lat="45.782551" lon="10.7495657"><ele>483.0</ele><time>2026-04-26T10:56:47.092Z</time></trkpt><trkpt lat="45.7825102" lon="10.7493966"><ele>483.0</ele><time>2026-04-26T10:56:48.093Z</time></trkpt><trkpt lat="45.7824502" lon="10.7492388"><ele>483.0</ele><time>2026-04-26T10:56:49.093Z</time></trkpt><trkpt lat="45.7823876" lon="10.7490811"><ele>483.0</ele><time>2026-04-26T10:56:50.093Z</time></trkpt><trkpt lat="45.7823227" lon="10.7489391"><ele>482.0</ele><time>2026-04-26T10:56:51.093Z</time></trkpt><trkpt lat="45.7822832" lon="10.7488002"><ele>480.99999999999994</ele><time>2026-04-26T10:56:52.092Z</time></trkpt><trkpt lat="45.7822647" lon="10.7486662"><ele>479.99999999999994</ele><time>2026-04-26T10:56:53.093Z</time></trkpt><trkpt lat="45.7822812" lon="10.7485479"><ele>479.0</ele><time>2026-04-26T10:56:54.093Z</time></trkpt><trkpt lat="45.782336" lon="10.7484397"><ele>478.0</ele><time>2026-04-26T10:56:55.093Z</time></trkpt><trkpt lat="45.7824015" lon="10.7483344"><ele>478.0</ele><time>2026-04-26T10:56:56.093Z</time></trkpt><trkpt lat="45.7824423" lon="10.748213"><ele>477.99999999999994</ele><time>2026-04-26T10:56:57.092Z</time></trkpt><trkpt lat="45.7824779" lon="10.7481021"><ele>477.99999999999994</ele><time>2026-04-26T10:56:58.093Z</time></trkpt><trkpt lat="45.7824027" lon="10.7479884"><ele>478.0</ele><time>2026-04-26T10:56:59.093Z</time></trkpt><trkpt lat="45.7823302" lon="10.7478984"><ele>478.0</ele><time>2026-04-26T10:57:00.093Z</time></trkpt><trkpt lat="45.7822614" lon="10.7477864"><ele>478.59999999999997</ele><time>2026-04-26T10:57:01.093Z</time></trkpt><trkpt lat="45.7822324" lon="10.7476493"><ele>479.19999999999993</ele><time>2026-04-26T10:57:02.093Z</time></trkpt><trkpt lat="45.7822359" lon="10.7475071"><ele>479.8</ele><time>2026-04-26T10:57:03.093Z</time></trkpt><trkpt lat="45.7822715" lon="10.7473577"><ele>480.4</ele><time>2026-04-26T10:57:04.093Z</time></trkpt><trkpt lat="45.782334" lon="10.7472154"><ele>481.0</ele><time>2026-04-26T10:57:05.093Z</time></trkpt><trkpt lat="45.7824202" lon="10.7470779"><ele>481.0</ele><time>2026-04-26T10:57:06.092Z</time></trkpt><trkpt lat="45.7825192" lon="10.7469368"><ele>481.0</ele><time>2026-04-26T10:57:07.093Z</time></trkpt><trkpt lat="45.7826145" lon="10.746783"><ele>481.0</ele><time>2026-04-26T10:57:08.093Z</time></trkpt><trkpt lat="45.7827111" lon="10.74664"><ele>481.0</ele><time>2026-04-26T10:57:09.093Z</time></trkpt><trkpt lat="45.7828159" lon="10.7465084"><ele>480.5</ele><time>2026-04-26T10:57:10.093Z</time></trkpt><trkpt lat="45.7829324" lon="10.7464011"><ele>480.0</ele><time>2026-04-26T10:57:11.093Z</time></trkpt><trkpt lat="45.7830484" lon="10.7463194"><ele>479.5</ele><time>2026-04-26T10:57:12.093Z</time></trkpt><trkpt lat="45.783163" lon="10.7462642"><ele>479.0</ele><time>2026-04-26T10:57:13.092Z</time></trkpt><trkpt lat="45.7832662" lon="10.7462438"><ele>479.0</ele><time>2026-04-26T10:57:14.093Z</time></trkpt><trkpt lat="45.7833611" lon="10.7462231"><ele>479.0</ele><time>2026-04-26T10:57:15.093Z</time></trkpt><trkpt lat="45.7834453" lon="10.7461994"><ele>479.0</ele><time>2026-04-26T10:57:16.093Z</time></trkpt><trkpt lat="45.7835321" lon="10.7461397"><ele>479.0</ele><time>2026-04-26T10:57:17.093Z</time></trkpt><trkpt lat="45.7836109" lon="10.7460067"><ele>479.0</ele><time>2026-04-26T10:57:18.093Z</time></trkpt><trkpt lat="45.7836828" lon="10.7458662"><ele>477.0</ele><time>2026-04-26T10:57:19.092Z</time></trkpt><trkpt lat="45.7837606" lon="10.7457264"><ele>475.0</ele><time>2026-04-26T10:57:20.093Z</time></trkpt><trkpt lat="45.7838315" lon="10.7455958"><ele>473.0</ele><time>2026-04-26T10:57:21.093Z</time></trkpt><trkpt lat="45.7838809" lon="10.7454642"><ele>471.0</ele><time>2026-04-26T10:57:22.093Z</time></trkpt><trkpt lat="45.7839157" lon="10.7453202"><ele>472.20000000000005</ele><time>2026-04-26T10:57:23.093Z</time></trkpt><trkpt lat="45.7838961" lon="10.7451525"><ele>473.40000000000003</ele><time>2026-04-26T10:57:24.093Z</time></trkpt><trkpt lat="45.7838888" lon="10.74502"><ele>474.6</ele><time>2026-04-26T10:57:25.093Z</time></trkpt><trkpt lat="45.7838406" lon="10.744912"><ele>475.8</ele><time>2026-04-26T10:57:26.092Z</time></trkpt><trkpt lat="45.7837781" lon="10.7448296"><ele>477.0</ele><time>2026-04-26T10:57:27.093Z</time></trkpt><trkpt lat="45.7836595" lon="10.744782"><ele>477.0</ele><time>2026-04-26T10:57:28.093Z</time></trkpt><trkpt lat="45.7835524" lon="10.7447044"><ele>477.0</ele><time>2026-04-26T10:57:29.093Z</time></trkpt><trkpt lat="45.7834466" lon="10.744597"><ele>477.0</ele><time>2026-04-26T10:57:30.093Z</time></trkpt><trkpt lat="45.7833472" lon="10.7444797"><ele>477.0</ele><time>2026-04-26T10:57:31.093Z</time></trkpt><trkpt lat="45.7832654" lon="10.7443598"><ele>482.20000000000005</ele><time>2026-04-26T10:57:32.093Z</time></trkpt><trkpt lat="45.7832021" lon="10.744242"><ele>487.40000000000003</ele><time>2026-04-26T10:57:33.093Z</time></trkpt><trkpt lat="45.7831693" lon="10.744119"><ele>492.59999999999997</ele><time>2026-04-26T10:57:34.093Z</time></trkpt><trkpt lat="45.7831782" lon="10.7439954"><ele>497.79999999999995</ele><time>2026-04-26T10:57:35.093Z</time></trkpt><trkpt lat="45.7832277" lon="10.7438966"><ele>503.0</ele><time>2026-04-26T10:57:36.093Z</time></trkpt><trkpt lat="45.783309" lon="10.7438373"><ele>503.0</ele><time>2026-04-26T10:57:37.093Z</time></trkpt><trkpt lat="45.7834147" lon="10.7438138"><ele>502.99999999999994</ele><time>2026-04-26T10:57:38.092Z</time></trkpt><trkpt lat="45.7835137" lon="10.7437832"><ele>502.99999999999994</ele><time>2026-04-26T10:57:39.093Z</time></trkpt><trkpt lat="45.7835937" lon="10.7437201"><ele>503.0</ele><time>2026-04-26T10:57:40.093Z</time></trkpt><trkpt lat="45.7836511" lon="10.7436194"><ele>503.0</ele><time>2026-04-26T10:57:41.093Z</time></trkpt><trkpt lat="45.7836741" lon="10.7434852"><ele>501.25</ele><time>2026-04-26T10:57:42.093Z</time></trkpt><trkpt lat="45.783681" lon="10.7433281"><ele>499.5</ele><time>2026-04-26T10:57:43.093Z</time></trkpt><trkpt lat="45.7836763" lon="10.7431554"><ele>497.75</ele><time>2026-04-26T10:57:44.093Z</time></trkpt><trkpt lat="45.7836612" lon="10.7429756"><ele>496.0</ele><time>2026-04-26T10:57:45.092Z</time></trkpt><trkpt lat="45.7836082" lon="10.7427885"><ele>498.5</ele><time>2026-04-26T10:57:46.092Z</time></trkpt><trkpt lat="45.7835931" lon="10.7426095"><ele>501.0</ele><time>2026-04-26T10:57:47.093Z</time></trkpt><trkpt lat="45.7836096" lon="10.7424474"><ele>503.5</ele><time>2026-04-26T10:57:48.092Z</time></trkpt><trkpt lat="45.783661" lon="10.7423058"><ele>506.0</ele><time>2026-04-26T10:57:49.092Z</time></trkpt><trkpt lat="45.7837366" lon="10.7421898"><ele>506.0</ele><time>2026-04-26T10:57:50.093Z</time></trkpt><trkpt lat="45.7838416" lon="10.7421267"><ele>506.0</ele><time>2026-04-26T10:57:51.093Z</time></trkpt><trkpt lat="45.7839549" lon="10.7421063"><ele>506.0</ele><time>2026-04-26T10:57:52.093Z</time></trkpt><trkpt lat="45.7840674" lon="10.7421482"><ele>506.0</ele><time>2026-04-26T10:57:53.093Z</time></trkpt><trkpt lat="45.7841797" lon="10.7422354"><ele>506.0</ele><time>2026-04-26T10:57:54.093Z</time></trkpt><trkpt lat="45.784293" lon="10.7423356"><ele>506.0</ele><time>2026-04-26T10:57:55.093Z</time></trkpt><trkpt lat="45.784412" lon="10.7424492"><ele>506.0</ele><time>2026-04-26T10:57:56.093Z</time></trkpt><trkpt lat="45.7845354" lon="10.7425689"><ele>506.0</ele><time>2026-04-26T10:57:57.093Z</time></trkpt><trkpt lat="45.7846574" lon="10.742688"><ele>507.0</ele><time>2026-04-26T10:57:58.093Z</time></trkpt><trkpt lat="45.7847843" lon="10.7428062"><ele>508.0</ele><time>2026-04-26T10:57:59.092Z</time></trkpt><trkpt lat="45.7849021" lon="10.7429236"><ele>509.0</ele><time>2026-04-26T10:58:00.093Z</time></trkpt><trkpt lat="45.7850177" lon="10.743031"><ele>510.0</ele><time>2026-04-26T10:58:01.093Z</time></trkpt><trkpt lat="45.7851251" lon="10.7431399"><ele>505.0</ele><time>2026-04-26T10:58:02.093Z</time></trkpt><trkpt lat="45.7852731" lon="10.7431612"><ele>500.0</ele><time>2026-04-26T10:58:03.093Z</time></trkpt><trkpt lat="45.7853979" lon="10.7430179"><ele>495.0</ele><time>2026-04-26T10:58:06.093Z</time></trkpt><trkpt lat="45.7854733" lon="10.7428884"><ele>490.0</ele><time>2026-04-26T10:58:07.092Z</time></trkpt><trkpt lat="45.7855677" lon="10.7427541"><ele>495.5</ele><time>2026-04-26T10:58:08.093Z</time></trkpt><trkpt lat="45.7856812" lon="10.7426268"><ele>501.0</ele><time>2026-04-26T10:58:09.093Z</time></trkpt><trkpt lat="45.7857859" lon="10.7424856"><ele>506.5</ele><time>2026-04-26T10:58:10.093Z</time></trkpt><trkpt lat="45.7858833" lon="10.7423614"><ele>512.0</ele><time>2026-04-26T10:58:11.092Z</time></trkpt><trkpt lat="45.785974" lon="10.7422501"><ele>510.0</ele><time>2026-04-26T10:58:12.093Z</time></trkpt><trkpt lat="45.7860491" lon="10.7421241"><ele>508.0</ele><time>2026-04-26T10:58:13.092Z</time></trkpt><trkpt lat="45.7861002" lon="10.7419613"><ele>506.0</ele><time>2026-04-26T10:58:14.093Z</time></trkpt><trkpt lat="45.7861706" lon="10.7418103"><ele>504.0</ele><time>2026-04-26T10:58:15.093Z</time></trkpt><trkpt lat="45.7862454" lon="10.7416446"><ele>504.0</ele><time>2026-04-26T10:58:16.093Z</time></trkpt><trkpt lat="45.7863109" lon="10.7414652"><ele>504.0</ele><time>2026-04-26T10:58:17.093Z</time></trkpt><trkpt lat="45.7863784" lon="10.7412777"><ele>504.0</ele><time>2026-04-26T10:58:18.093Z</time></trkpt><trkpt lat="45.7864445" lon="10.7410926"><ele>504.0</ele><time>2026-04-26T10:58:19.093Z</time></trkpt><trkpt lat="45.7865258" lon="10.7409152"><ele>508.33333333333337</ele><time>2026-04-26T10:58:20.093Z</time></trkpt><trkpt lat="45.7866204" lon="10.7407501"><ele>512.6666666666667</ele><time>2026-04-26T10:58:21.093Z</time></trkpt><trkpt lat="45.7867093" lon="10.7405706"><ele>517.0</ele><time>2026-04-26T10:58:22.093Z</time></trkpt><trkpt lat="45.7867923" lon="10.7403754"><ele>518.5</ele><time>2026-04-26T10:58:23.093Z</time></trkpt><trkpt lat="45.7868682" lon="10.7401958"><ele>520.0</ele><time>2026-04-26T10:58:24.093Z</time></trkpt><trkpt lat="45.7869578" lon="10.7400469"><ele>521.5</ele><time>2026-04-26T10:58:25.093Z</time></trkpt><trkpt lat="45.7870537" lon="10.7399234"><ele>523.0</ele><time>2026-04-26T10:58:26.093Z</time></trkpt><trkpt lat="45.7871646" lon="10.7398323"><ele>523.0</ele><time>2026-04-26T10:58:27.093Z</time></trkpt><trkpt lat="45.7872877" lon="10.739788"><ele>523.0</ele><time>2026-04-26T10:58:28.093Z</time></trkpt><trkpt lat="45.787411" lon="10.7397917"><ele>523.0</ele><time>2026-04-26T10:58:29.093Z</time></trkpt><trkpt lat="45.7875307" lon="10.7398582"><ele>523.0</ele><time>2026-04-26T10:58:30.093Z</time></trkpt><trkpt lat="45.7876533" lon="10.7399481"><ele>527.5</ele><time>2026-04-26T10:58:31.093Z</time></trkpt><trkpt lat="45.7877846" lon="10.740033"><ele>532.0</ele><time>2026-04-26T10:58:32.093Z</time></trkpt><trkpt lat="45.7879188" lon="10.7401196"><ele>536.5</ele><time>2026-04-26T10:58:33.093Z</time></trkpt><trkpt lat="45.7880497" lon="10.7402056"><ele>541.0</ele><time>2026-04-26T10:58:34.093Z</time></trkpt><trkpt lat="45.788168" lon="10.7402782"><ele>541.2</ele><time>2026-04-26T10:58:35.093Z</time></trkpt><trkpt lat="45.7882549" lon="10.7403511"><ele>541.4000000000001</ele><time>2026-04-26T10:58:36.093Z</time></trkpt><trkpt lat="45.7883079" lon="10.7404552"><ele>541.6</ele><time>2026-04-26T10:58:37.093Z</time></trkpt><trkpt lat="45.7883199" lon="10.7405758"><ele>541.8000000000001</ele><time>2026-04-26T10:58:38.093Z</time></trkpt><trkpt lat="45.7882945" lon="10.7407149"><ele>542.0</ele><time>2026-04-26T10:58:39.093Z</time></trkpt><trkpt lat="45.7882569" lon="10.7408725"><ele>543.25</ele><time>2026-04-26T10:58:40.092Z</time></trkpt><trkpt lat="45.7882345" lon="10.7410621"><ele>544.5</ele><time>2026-04-26T10:58:41.093Z</time></trkpt><trkpt lat="45.7882146" lon="10.7412603"><ele>545.75</ele><time>2026-04-26T10:58:42.093Z</time></trkpt><trkpt lat="45.7881847" lon="10.7414698"><ele>547.0</ele><time>2026-04-26T10:58:43.093Z</time></trkpt><trkpt lat="45.788126" lon="10.7416779"><ele>546.3333333333334</ele><time>2026-04-26T10:58:44.093Z</time></trkpt><trkpt lat="45.7880674" lon="10.7418901"><ele>545.6666666666666</ele><time>2026-04-26T10:58:45.092Z</time></trkpt><trkpt lat="45.7880369" lon="10.7421078"><ele>545.0</ele><time>2026-04-26T10:58:46.093Z</time></trkpt><trkpt lat="45.7880189" lon="10.7423106"><ele>545.0</ele><time>2026-04-26T10:58:47.093Z</time></trkpt><trkpt lat="45.7880044" lon="10.7425001"><ele>545.0</ele><time>2026-04-26T10:58:48.093Z</time></trkpt><trkpt lat="45.7880016" lon="10.7426559"><ele>545.0</ele><time>2026-04-26T10:58:49.093Z</time></trkpt><trkpt lat="45.7880159" lon="10.7428026"><ele>545.0</ele><time>2026-04-26T10:58:50.093Z</time></trkpt><trkpt lat="45.7880646" lon="10.7429286"><ele>545.0</ele><time>2026-04-26T10:58:51.093Z</time></trkpt><trkpt lat="45.7881427" lon="10.7430313"><ele>544.4</ele><time>2026-04-26T10:58:52.093Z</time></trkpt><trkpt lat="45.7882479" lon="10.7431047"><ele>543.8</ele><time>2026-04-26T10:58:53.093Z</time></trkpt><trkpt lat="45.7883553" lon="10.7431501"><ele>543.2</ele><time>2026-04-26T10:58:54.093Z</time></trkpt><trkpt lat="45.7884478" lon="10.7431932"><ele>542.6</ele><time>2026-04-26T10:58:55.093Z</time></trkpt><trkpt lat="45.7885413" lon="10.7432249"><ele>542.0</ele><time>2026-04-26T10:58:56.093Z</time></trkpt><trkpt lat="45.7886329" lon="10.7432605"><ele>543.2</ele><time>2026-04-26T10:58:57.093Z</time></trkpt><trkpt lat="45.7887224" lon="10.7432985"><ele>544.4000000000001</ele><time>2026-04-26T10:58:58.093Z</time></trkpt><trkpt lat="45.7888115" lon="10.743346"><ele>545.5999999999999</ele><time>2026-04-26T10:58:59.093Z</time></trkpt><trkpt lat="45.788894" lon="10.7434062"><ele>546.8</ele><time>2026-04-26T10:59:00.093Z</time></trkpt><trkpt lat="45.7889622" lon="10.7434936"><ele>548.0</ele><time>2026-04-26T10:59:01.093Z</time></trkpt><trkpt lat="45.7890195" lon="10.7436068"><ele>548.0</ele><time>2026-04-26T10:59:02.092Z</time></trkpt><trkpt lat="45.7890678" lon="10.743736"><ele>548.0</ele><time>2026-04-26T10:59:03.093Z</time></trkpt><trkpt lat="45.7891186" lon="10.7438715"><ele>548.0</ele><time>2026-04-26T10:59:04.093Z</time></trkpt><trkpt lat="45.7891826" lon="10.744003"><ele>548.0</ele><time>2026-04-26T10:59:05.092Z</time></trkpt><trkpt lat="45.7892533" lon="10.7441381"><ele>548.0</ele><time>2026-04-26T10:59:06.093Z</time></trkpt><trkpt lat="45.789329" lon="10.7442765"><ele>551.25</ele><time>2026-04-26T10:59:07.093Z</time></trkpt><trkpt lat="45.7893996" lon="10.7444203"><ele>554.5</ele><time>2026-04-26T10:59:08.093Z</time></trkpt><trkpt lat="45.7894627" lon="10.7445681"><ele>557.75</ele><time>2026-04-26T10:59:09.093Z</time></trkpt><trkpt lat="45.7895178" lon="10.7447261"><ele>561.0</ele><time>2026-04-26T10:59:10.092Z</time></trkpt><trkpt lat="45.789562" lon="10.7448957"><ele>561.0</ele><time>2026-04-26T10:59:11.093Z</time></trkpt><trkpt lat="45.7896006" lon="10.7450738"><ele>561.0</ele><time>2026-04-26T10:59:12.093Z</time></trkpt><trkpt lat="45.7896331" lon="10.7452642"><ele>561.0</ele><time>2026-04-26T10:59:13.093Z</time></trkpt><trkpt lat="45.7896622" lon="10.7454684"><ele>561.0</ele><time>2026-04-26T10:59:14.092Z</time></trkpt><trkpt lat="45.7896916" lon="10.7456772"><ele>561.0</ele><time>2026-04-26T10:59:15.093Z</time></trkpt><trkpt lat="45.7897261" lon="10.7458863"><ele>561.0</ele><time>2026-04-26T10:59:16.093Z</time></trkpt><trkpt lat="45.7897549" lon="10.746095"><ele>561.0</ele><time>2026-04-26T10:59:17.092Z</time></trkpt><trkpt lat="45.7897796" lon="10.7462993"><ele>561.0</ele><time>2026-04-26T10:59:18.093Z</time></trkpt><trkpt lat="45.7897875" lon="10.7465114"><ele>563.3333333333334</ele><time>2026-04-26T10:59:19.093Z</time></trkpt><trkpt lat="45.7897723" lon="10.7467249"><ele>565.6666666666667</ele><time>2026-04-26T10:59:20.093Z</time></trkpt><trkpt lat="45.7897344" lon="10.7469352"><ele>568.0</ele><time>2026-04-26T10:59:21.093Z</time></trkpt><trkpt lat="45.7896759" lon="10.7471311"><ele>570.75</ele><time>2026-04-26T10:59:22.092Z</time></trkpt><trkpt lat="45.7895973" lon="10.7473122"><ele>573.5</ele><time>2026-04-26T10:59:23.093Z</time></trkpt><trkpt lat="45.7895252" lon="10.7474817"><ele>576.25</ele><time>2026-04-26T10:59:24.093Z</time></trkpt><trkpt lat="45.7894618" lon="10.7476394"><ele>579.0</ele><time>2026-04-26T10:59:25.093Z</time></trkpt><trkpt lat="45.7893983" lon="10.7477901"><ele>580.4</ele><time>2026-04-26T10:59:26.092Z</time></trkpt><trkpt lat="45.7893491" lon="10.7479372"><ele>581.8</ele><time>2026-04-26T10:59:27.093Z</time></trkpt><trkpt lat="45.7893186" lon="10.7480843"><ele>583.2</ele><time>2026-04-26T10:59:28.093Z</time></trkpt><trkpt lat="45.789306" lon="10.748224"><ele>584.6</ele><time>2026-04-26T10:59:29.092Z</time></trkpt><trkpt lat="45.7893312" lon="10.7483454"><ele>586.0</ele><time>2026-04-26T10:59:30.093Z</time></trkpt><trkpt lat="45.7893565" lon="10.7484502"><ele>587.5</ele><time>2026-04-26T10:59:31.092Z</time></trkpt><trkpt lat="45.7893709" lon="10.7485556"><ele>589.0</ele><time>2026-04-26T10:59:32.093Z</time></trkpt><trkpt lat="45.7893676" lon="10.7486617"><ele>590.5</ele><time>2026-04-26T10:59:33.093Z</time></trkpt><trkpt lat="45.7893536" lon="10.7487559"><ele>592.0</ele><time>2026-04-26T10:59:34.093Z</time></trkpt><trkpt lat="45.7893334" lon="10.74892"><ele>593.5</ele><time>2026-04-26T10:59:36.093Z</time></trkpt><trkpt lat="45.7893252" lon="10.7490139"><ele>595.0</ele><time>2026-04-26T10:59:37.093Z</time></trkpt><trkpt lat="45.7893156" lon="10.7491214"><ele>589.6666666666667</ele><time>2026-04-26T10:59:38.093Z</time></trkpt><trkpt lat="45.7892981" lon="10.7492263"><ele>584.3333333333334</ele><time>2026-04-26T10:59:39.093Z</time></trkpt><trkpt lat="45.7892751" lon="10.7493355"><ele>579.0</ele><time>2026-04-26T10:59:40.092Z</time></trkpt><trkpt lat="45.7892495" lon="10.749454"><ele>573.6666666666666</ele><time>2026-04-26T10:59:41.093Z</time></trkpt><trkpt lat="45.7892183" lon="10.7495754"><ele>568.3333333333333</ele><time>2026-04-26T10:59:42.093Z</time></trkpt><trkpt lat="45.7891841" lon="10.7496903"><ele>563.0</ele><time>2026-04-26T10:59:43.093Z</time></trkpt><trkpt lat="45.7891468" lon="10.749796"><ele>563.0</ele><time>2026-04-26T10:59:44.093Z</time></trkpt><trkpt lat="45.7891038" lon="10.7498909"><ele>563.0</ele><time>2026-04-26T10:59:45.093Z</time></trkpt><trkpt lat="45.7890597" lon="10.7499624"><ele>563.0</ele><time>2026-04-26T10:59:46.092Z</time></trkpt><trkpt lat="45.7890161" lon="10.7500291"><ele>563.0</ele><time>2026-04-26T10:59:47.093Z</time></trkpt><trkpt lat="45.7889654" lon="10.7500886"><ele>563.0</ele><time>2026-04-26T10:59:48.093Z</time></trkpt><trkpt lat="45.7888914" lon="10.7502128"><ele>563.0</ele><time>2026-04-26T10:59:50.093Z</time></trkpt><trkpt lat="45.7888582" lon="10.7503557"><ele>562.5</ele><time>2026-04-26T10:59:52.093Z</time></trkpt><trkpt lat="45.78889" lon="10.7504364"><ele>562.0</ele><time>2026-04-26T10:59:53.093Z</time></trkpt><trkpt lat="45.7889359" lon="10.7505158"><ele>561.5</ele><time>2026-04-26T10:59:54.092Z</time></trkpt><trkpt lat="45.788977" lon="10.7505982"><ele>561.0</ele><time>2026-04-26T10:59:55.093Z</time></trkpt><trkpt lat="45.7889926" lon="10.75071"><ele>560.5</ele><time>2026-04-26T10:59:56.093Z</time></trkpt><trkpt lat="45.7889927" lon="10.7508341"><ele>560.0</ele><time>2026-04-26T10:59:57.093Z</time></trkpt><trkpt lat="45.7889874" lon="10.7509713"><ele>558.0</ele><time>2026-04-26T10:59:58.093Z</time></trkpt><trkpt lat="45.7889954" lon="10.7511147"><ele>556.0</ele><time>2026-04-26T10:59:59.093Z</time></trkpt><trkpt lat="45.7890199" lon="10.7512488"><ele>554.0</ele><time>2026-04-26T11:00:00.093Z</time></trkpt><trkpt lat="45.7890464" lon="10.751374"><ele>552.0</ele><time>2026-04-26T11:00:01.093Z</time></trkpt><trkpt lat="45.7890707" lon="10.7514883"><ele>550.0</ele><time>2026-04-26T11:00:02.093Z</time></trkpt><trkpt lat="45.7890988" lon="10.7515727"><ele>548.0</ele><time>2026-04-26T11:00:03.092Z</time></trkpt><trkpt lat="45.7891399" lon="10.7516493"><ele>548.0</ele><time>2026-04-26T11:00:04.093Z</time></trkpt><trkpt lat="45.7892017" lon="10.7517066"><ele>548.0</ele><time>2026-04-26T11:00:05.093Z</time></trkpt><trkpt lat="45.7892781" lon="10.7517516"><ele>548.0</ele><time>2026-04-26T11:00:06.093Z</time></trkpt><trkpt lat="45.7893563" lon="10.7518074"><ele>548.0</ele><time>2026-04-26T11:00:07.093Z</time></trkpt><trkpt lat="45.7894261" lon="10.75187"><ele>548.0</ele><time>2026-04-26T11:00:08.093Z</time></trkpt><trkpt lat="45.7894854" lon="10.751948"><ele>548.0</ele><time>2026-04-26T11:00:09.092Z</time></trkpt><trkpt lat="45.789538" lon="10.7520509"><ele>553.5</ele><time>2026-04-26T11:00:10.093Z</time></trkpt><trkpt lat="45.7895827" lon="10.7521806"><ele>559.0</ele><time>2026-04-26T11:00:11.093Z</time></trkpt><trkpt lat="45.7896169" lon="10.7523286"><ele>564.5</ele><time>2026-04-26T11:00:12.093Z</time></trkpt><trkpt lat="45.7896504" lon="10.7524865"><ele>570.0</ele><time>2026-04-26T11:00:13.093Z</time></trkpt><trkpt lat="45.7896952" lon="10.7526569"><ele>566.5</ele><time>2026-04-26T11:00:14.093Z</time></trkpt><trkpt lat="45.789746" lon="10.7528281"><ele>563.0</ele><time>2026-04-26T11:00:15.093Z</time></trkpt><trkpt lat="45.7898018" lon="10.7529976"><ele>559.5</ele><time>2026-04-26T11:00:16.093Z</time></trkpt><trkpt lat="45.7898573" lon="10.7531603"><ele>556.0</ele><time>2026-04-26T11:00:17.093Z</time></trkpt><trkpt lat="45.7899069" lon="10.7533128"><ele>556.0</ele><time>2026-04-26T11:00:18.092Z</time></trkpt><trkpt lat="45.7899401" lon="10.753457"><ele>556.0</ele><time>2026-04-26T11:00:19.093Z</time></trkpt><trkpt lat="45.7899543" lon="10.7536036"><ele>556.0</ele><time>2026-04-26T11:00:20.092Z</time></trkpt><trkpt lat="45.7899428" lon="10.7537328"><ele>556.0</ele><time>2026-04-26T11:00:21.093Z</time></trkpt><trkpt lat="45.7899136" lon="10.7538503"><ele>556.0</ele><time>2026-04-26T11:00:22.093Z</time></trkpt><trkpt lat="45.789863" lon="10.75392"><ele>555.8</ele><time>2026-04-26T11:00:23.093Z</time></trkpt><trkpt lat="45.7897969" lon="10.753939"><ele>555.6</ele><time>2026-04-26T11:00:24.093Z</time></trkpt><trkpt lat="45.7897223" lon="10.7539165"><ele>555.4</ele><time>2026-04-26T11:00:25.093Z</time></trkpt><trkpt lat="45.7896344" lon="10.7538708"><ele>555.2</ele><time>2026-04-26T11:00:26.093Z</time></trkpt><trkpt lat="45.7895358" lon="10.7538157"><ele>555.0</ele><time>2026-04-26T11:00:27.093Z</time></trkpt><trkpt lat="45.7894284" lon="10.753735"><ele>554.25</ele><time>2026-04-26T11:00:28.093Z</time></trkpt><trkpt lat="45.7893178" lon="10.7536299"><ele>553.5</ele><time>2026-04-26T11:00:29.093Z</time></trkpt><trkpt lat="45.7892101" lon="10.7535088"><ele>552.75</ele><time>2026-04-26T11:00:30.092Z</time></trkpt><trkpt lat="45.7890951" lon="10.7533715"><ele>552.0</ele><time>2026-04-26T11:00:31.093Z</time></trkpt><trkpt lat="45.7889712" lon="10.7532502"><ele>552.0</ele><time>2026-04-26T11:00:32.093Z</time></trkpt><trkpt lat="45.7888233" lon="10.7531622"><ele>552.0</ele><time>2026-04-26T11:00:33.093Z</time></trkpt><trkpt lat="45.7886334" lon="10.7530995"><ele>552.0</ele><time>2026-04-26T11:00:34.093Z</time></trkpt><trkpt lat="45.7884254" lon="10.7530437"><ele>557.0</ele><time>2026-04-26T11:00:35.093Z</time></trkpt><trkpt lat="45.7882099" lon="10.7529716"><ele>562.0</ele><time>2026-04-26T11:00:36.093Z</time></trkpt><trkpt lat="45.7880248" lon="10.7529079"><ele>567.0</ele><time>2026-04-26T11:00:37.093Z</time></trkpt><trkpt lat="45.7878735" lon="10.7528705"><ele>567.0</ele><time>2026-04-26T11:00:38.093Z</time></trkpt><trkpt lat="45.787751" lon="10.752883"><ele>567.0</ele><time>2026-04-26T11:00:39.092Z</time></trkpt><trkpt lat="45.7876354" lon="10.7529392"><ele>567.0</ele><time>2026-04-26T11:00:40.092Z</time></trkpt><trkpt lat="45.7875284" lon="10.7530535"><ele>567.0</ele><time>2026-04-26T11:00:41.093Z</time></trkpt><trkpt lat="45.7874355" lon="10.7531882"><ele>567.0</ele><time>2026-04-26T11:00:42.093Z</time></trkpt><trkpt lat="45.7873738" lon="10.7533294"><ele>567.0</ele><time>2026-04-26T11:00:43.093Z</time></trkpt><trkpt lat="45.7873486" lon="10.7534964"><ele>567.0</ele><time>2026-04-26T11:00:44.092Z</time></trkpt><trkpt lat="45.7873284" lon="10.7536527"><ele>567.0</ele><time>2026-04-26T11:00:45.092Z</time></trkpt><trkpt lat="45.7872636" lon="10.7537724"><ele>567.0</ele><time>2026-04-26T11:00:46.093Z</time></trkpt><trkpt lat="45.7871717" lon="10.7538783"><ele>567.0</ele><time>2026-04-26T11:00:47.093Z</time></trkpt><trkpt lat="45.7870662" lon="10.7539789"><ele>567.0</ele><time>2026-04-26T11:00:48.092Z</time></trkpt><trkpt lat="45.7869787" lon="10.7541188"><ele>567.0</ele><time>2026-04-26T11:00:49.093Z</time></trkpt><trkpt lat="45.7869113" lon="10.7543016"><ele>565.3333333333334</ele><time>2026-04-26T11:00:50.093Z</time></trkpt><trkpt lat="45.7868343" lon="10.7545094"><ele>563.6666666666667</ele><time>2026-04-26T11:00:51.093Z</time></trkpt><trkpt lat="45.7867297" lon="10.7547095"><ele>562.0</ele><time>2026-04-26T11:00:52.093Z</time></trkpt><trkpt lat="45.7866026" lon="10.7549014"><ele>562.0</ele><time>2026-04-26T11:00:53.093Z</time></trkpt><trkpt lat="45.7864467" lon="10.7550904"><ele>562.0</ele><time>2026-04-26T11:00:54.093Z</time></trkpt><trkpt lat="45.7862708" lon="10.7552929"><ele>562.0</ele><time>2026-04-26T11:00:55.092Z</time></trkpt><trkpt lat="45.7860923" lon="10.7554765"><ele>558.0</ele><time>2026-04-26T11:00:56.093Z</time></trkpt><trkpt lat="45.785917" lon="10.7556164"><ele>554.0</ele><time>2026-04-26T11:00:57.093Z</time></trkpt><trkpt lat="45.7857604" lon="10.7557921"><ele>550.0</ele><time>2026-04-26T11:00:58.093Z</time></trkpt><trkpt lat="45.7856263" lon="10.756016"><ele>559.3333333333334</ele><time>2026-04-26T11:00:59.093Z</time></trkpt><trkpt lat="45.7855214" lon="10.7562639"><ele>568.6666666666666</ele><time>2026-04-26T11:01:00.093Z</time></trkpt><trkpt lat="45.7854523" lon="10.7565011"><ele>578.0</ele><time>2026-04-26T11:01:01.093Z</time></trkpt><trkpt lat="45.7854095" lon="10.7567175"><ele>583.1999999999999</ele><time>2026-04-26T11:01:02.093Z</time></trkpt><trkpt lat="45.78538" lon="10.7569009"><ele>588.4</ele><time>2026-04-26T11:01:03.093Z</time></trkpt><trkpt lat="45.7853453" lon="10.7570621"><ele>593.5999999999999</ele><time>2026-04-26T11:01:04.093Z</time></trkpt><trkpt lat="45.78531" lon="10.7572139"><ele>598.8</ele><time>2026-04-26T11:01:05.092Z</time></trkpt><trkpt lat="45.7852721" lon="10.757329"><ele>604.0</ele><time>2026-04-26T11:01:06.093Z</time></trkpt><trkpt lat="45.785238" lon="10.757424"><ele>604.0</ele><time>2026-04-26T11:01:07.093Z</time></trkpt><trkpt lat="45.7852072" lon="10.7575178"><ele>604.0</ele><time>2026-04-26T11:01:08.093Z</time></trkpt><trkpt lat="45.7851681" lon="10.7575962"><ele>604.0</ele><time>2026-04-26T11:01:09.092Z</time></trkpt><trkpt lat="45.7851202" lon="10.7576589"><ele>604.0</ele><time>2026-04-26T11:01:10.093Z</time></trkpt><trkpt lat="45.7850586" lon="10.7576898"><ele>604.0</ele><time>2026-04-26T11:01:11.093Z</time></trkpt><trkpt lat="45.7849505" lon="10.757755"><ele>604.0</ele><time>2026-04-26T11:01:13.093Z</time></trkpt><trkpt lat="45.7848689" lon="10.7578746"><ele>596.8</ele><time>2026-04-26T11:01:15.093Z</time></trkpt><trkpt lat="45.784826" lon="10.7579418"><ele>589.5999999999999</ele><time>2026-04-26T11:01:16.093Z</time></trkpt><trkpt lat="45.7847704" lon="10.7580824"><ele>582.4</ele><time>2026-04-26T11:01:18.093Z</time></trkpt><trkpt lat="45.7847657" lon="10.7582487"><ele>575.1999999999999</ele><time>2026-04-26T11:01:20.093Z</time></trkpt><trkpt lat="45.7848202" lon="10.7584105"><ele>568.0</ele><time>2026-04-26T11:01:22.093Z</time></trkpt><trkpt lat="45.7848624" lon="10.7584855"><ele>569.5</ele><time>2026-04-26T11:01:23.093Z</time></trkpt><trkpt lat="45.7849323" lon="10.7586382"><ele>571.0</ele><time>2026-04-26T11:01:25.093Z</time></trkpt><trkpt lat="45.7849461" lon="10.7587352"><ele>572.5</ele><time>2026-04-26T11:01:26.092Z</time></trkpt><trkpt lat="45.7849421" lon="10.7588299"><ele>574.0</ele><time>2026-04-26T11:01:27.093Z</time></trkpt><trkpt lat="45.7849217" lon="10.7589163"><ele>575.5</ele><time>2026-04-26T11:01:28.093Z</time></trkpt><trkpt lat="45.7848668" lon="10.7590582"><ele>577.0</ele><time>2026-04-26T11:01:30.093Z</time></trkpt><trkpt lat="45.7847875" lon="10.7592004"><ele>577.0</ele><time>2026-04-26T11:01:32.093Z</time></trkpt><trkpt lat="45.7847474" lon="10.7593071"><ele>577.0</ele><time>2026-04-26T11:01:33.092Z</time></trkpt><trkpt lat="45.7847091" lon="10.7594249"><ele>577.0</ele><time>2026-04-26T11:01:34.093Z</time></trkpt><trkpt lat="45.7846559" lon="10.7595393"><ele>577.0</ele><time>2026-04-26T11:01:35.093Z</time></trkpt><trkpt lat="45.7845707" lon="10.7596301"><ele>577.0</ele><time>2026-04-26T11:01:36.092Z</time></trkpt><trkpt lat="45.7844866" lon="10.7597146"><ele>580.75</ele><time>2026-04-26T11:01:37.093Z</time></trkpt><trkpt lat="45.78442" lon="10.7598387"><ele>584.5</ele><time>2026-04-26T11:01:38.093Z</time></trkpt><trkpt lat="45.7843835" lon="10.7599894"><ele>588.25</ele><time>2026-04-26T11:01:39.093Z</time></trkpt><trkpt lat="45.7843689" lon="10.7601588"><ele>592.0</ele><time>2026-04-26T11:01:40.093Z</time></trkpt><trkpt lat="45.7843462" lon="10.7603399"><ele>583.5</ele><time>2026-04-26T11:01:41.093Z</time></trkpt><trkpt lat="45.7842956" lon="10.7605223"><ele>575.0</ele><time>2026-04-26T11:01:42.093Z</time></trkpt><trkpt lat="45.78423" lon="10.7607025"><ele>566.5</ele><time>2026-04-26T11:01:43.093Z</time></trkpt><trkpt lat="45.7841587" lon="10.7608729"><ele>558.0</ele><time>2026-04-26T11:01:44.093Z</time></trkpt><trkpt lat="45.7840723" lon="10.7610306"><ele>561.5</ele><time>2026-04-26T11:01:45.093Z</time></trkpt><trkpt lat="45.7839752" lon="10.761177"><ele>565.0</ele><time>2026-04-26T11:01:46.093Z</time></trkpt><trkpt lat="45.7838693" lon="10.7613099"><ele>568.5</ele><time>2026-04-26T11:01:47.092Z</time></trkpt><trkpt lat="45.7837855" lon="10.7614453"><ele>572.0</ele><time>2026-04-26T11:01:48.093Z</time></trkpt><trkpt lat="45.7837253" lon="10.761591"><ele>572.0</ele><time>2026-04-26T11:01:49.093Z</time></trkpt><trkpt lat="45.7836787" lon="10.7617568"><ele>572.0</ele><time>2026-04-26T11:01:50.093Z</time></trkpt><trkpt lat="45.7836294" lon="10.7619327"><ele>572.0</ele><time>2026-04-26T11:01:51.093Z</time></trkpt><trkpt lat="45.7835715" lon="10.7621099"><ele>572.0</ele><time>2026-04-26T11:01:52.093Z</time></trkpt><trkpt lat="45.7835129" lon="10.7622809"><ele>569.75</ele><time>2026-04-26T11:01:53.093Z</time></trkpt><trkpt lat="45.7834461" lon="10.7624294"><ele>567.5</ele><time>2026-04-26T11:01:54.093Z</time></trkpt><trkpt lat="45.7833629" lon="10.7625526"><ele>565.25</ele><time>2026-04-26T11:01:55.093Z</time></trkpt><trkpt lat="45.7832619" lon="10.7626528"><ele>563.0</ele><time>2026-04-26T11:01:56.093Z</time></trkpt><trkpt lat="45.783153" lon="10.7627294"><ele>563.0</ele><time>2026-04-26T11:01:57.093Z</time></trkpt><trkpt lat="45.7830548" lon="10.762794"><ele>563.0</ele><time>2026-04-26T11:01:58.093Z</time></trkpt><trkpt lat="45.7829685" lon="10.7628354"><ele>563.0</ele><time>2026-04-26T11:01:59.093Z</time></trkpt><trkpt lat="45.7828981" lon="10.7628839"><ele>563.0</ele><time>2026-04-26T11:02:00.093Z</time></trkpt><trkpt lat="45.7828412" lon="10.7629383"><ele>563.0</ele><time>2026-04-26T11:02:01.093Z</time></trkpt><trkpt lat="45.7827592" lon="10.7630684"><ele>563.0</ele><time>2026-04-26T11:02:03.092Z</time></trkpt><trkpt lat="45.7827231" lon="10.7631604"><ele>563.0</ele><time>2026-04-26T11:02:04.093Z</time></trkpt><trkpt lat="45.7826854" lon="10.7632638"><ele>563.0</ele><time>2026-04-26T11:02:05.092Z</time></trkpt><trkpt lat="45.7826459" lon="10.7633896"><ele>563.0</ele><time>2026-04-26T11:02:06.093Z</time></trkpt><trkpt lat="45.7826039" lon="10.7635326"><ele>563.0</ele><time>2026-04-26T11:02:07.093Z</time></trkpt><trkpt lat="45.782561" lon="10.763688"><ele>561.0</ele><time>2026-04-26T11:02:08.093Z</time></trkpt><trkpt lat="45.7825148" lon="10.7638484"><ele>559.0</ele><time>2026-04-26T11:02:09.093Z</time></trkpt><trkpt lat="45.7824707" lon="10.7640047"><ele>557.0</ele><time>2026-04-26T11:02:10.092Z</time></trkpt><trkpt lat="45.7824244" lon="10.7641623"><ele>555.0</ele><time>2026-04-26T11:02:11.093Z</time></trkpt><trkpt lat="45.7823782" lon="10.764307"><ele>556.0</ele><time>2026-04-26T11:02:12.093Z</time></trkpt><trkpt lat="45.7823301" lon="10.7644369"><ele>557.0</ele><time>2026-04-26T11:02:13.093Z</time></trkpt><trkpt lat="45.7822652" lon="10.7645516"><ele>558.0</ele><time>2026-04-26T11:02:14.093Z</time></trkpt><trkpt lat="45.7821799" lon="10.7646444"><ele>559.0</ele><time>2026-04-26T11:02:15.092Z</time></trkpt><trkpt lat="45.7821017" lon="10.7647463"><ele>560.0</ele><time>2026-04-26T11:02:16.093Z</time></trkpt><trkpt lat="45.7820351" lon="10.7648695"><ele>560.0</ele><time>2026-04-26T11:02:17.093Z</time></trkpt><trkpt lat="45.7819783" lon="10.7650153"><ele>560.0</ele><time>2026-04-26T11:02:18.093Z</time></trkpt><trkpt lat="45.7819266" lon="10.7651739"><ele>560.0</ele><time>2026-04-26T11:02:19.093Z</time></trkpt><trkpt lat="45.7818759" lon="10.7653313"><ele>560.0</ele><time>2026-04-26T11:02:20.093Z</time></trkpt><trkpt lat="45.7818257" lon="10.7654934"><ele>554.0</ele><time>2026-04-26T11:02:21.093Z</time></trkpt><trkpt lat="45.7817668" lon="10.7656499"><ele>548.0</ele><time>2026-04-26T11:02:22.093Z</time></trkpt><trkpt lat="45.7817035" lon="10.7658056"><ele>542.0</ele><time>2026-04-26T11:02:23.093Z</time></trkpt><trkpt lat="45.7816518" lon="10.765965"><ele>536.0</ele><time>2026-04-26T11:02:24.092Z</time></trkpt><trkpt lat="45.7816046" lon="10.7661356"><ele>536.0</ele><time>2026-04-26T11:02:25.093Z</time></trkpt><trkpt lat="45.781573" lon="10.7663115"><ele>536.0</ele><time>2026-04-26T11:02:26.093Z</time></trkpt><trkpt lat="45.7815431" lon="10.7664864"><ele>536.0</ele><time>2026-04-26T11:02:27.093Z</time></trkpt><trkpt lat="45.7815084" lon="10.7666496"><ele>536.0</ele><time>2026-04-26T11:02:28.093Z</time></trkpt><trkpt lat="45.7814591" lon="10.7667864"><ele>534.6</ele><time>2026-04-26T11:02:29.093Z</time></trkpt><trkpt lat="45.781393" lon="10.7669126"><ele>533.2</ele><time>2026-04-26T11:02:30.093Z</time></trkpt><trkpt lat="45.7813477" lon="10.767038"><ele>531.8</ele><time>2026-04-26T11:02:31.093Z</time></trkpt><trkpt lat="45.7813215" lon="10.7671581"><ele>530.4</ele><time>2026-04-26T11:02:32.093Z</time></trkpt><trkpt lat="45.7813224" lon="10.7672868"><ele>529.0</ele><time>2026-04-26T11:02:33.093Z</time></trkpt><trkpt lat="45.7813559" lon="10.7674163"><ele>529.0</ele><time>2026-04-26T11:02:34.092Z</time></trkpt><trkpt lat="45.7814219" lon="10.7675225"><ele>529.0</ele><time>2026-04-26T11:02:35.093Z</time></trkpt><trkpt lat="45.7815041" lon="10.7676045"><ele>529.0</ele><time>2026-04-26T11:02:36.093Z</time></trkpt><trkpt lat="45.7816034" lon="10.7676644"><ele>529.0</ele><time>2026-04-26T11:02:37.093Z</time></trkpt><trkpt lat="45.7817019" lon="10.7677321"><ele>529.0</ele><time>2026-04-26T11:02:38.093Z</time></trkpt><trkpt lat="45.7817701" lon="10.7678518"><ele>531.4</ele><time>2026-04-26T11:02:39.093Z</time></trkpt><trkpt lat="45.7818189" lon="10.7679806"><ele>533.8</ele><time>2026-04-26T11:02:40.093Z</time></trkpt><trkpt lat="45.7818373" lon="10.7681315"><ele>536.2</ele><time>2026-04-26T11:02:41.093Z</time></trkpt><trkpt lat="45.7818466" lon="10.7682801"><ele>538.6</ele><time>2026-04-26T11:02:42.092Z</time></trkpt><trkpt lat="45.7818517" lon="10.7684208"><ele>541.0</ele><time>2026-04-26T11:02:43.093Z</time></trkpt><trkpt lat="45.7818359" lon="10.7685604"><ele>535.2</ele><time>2026-04-26T11:02:44.093Z</time></trkpt><trkpt lat="45.7817922" lon="10.7686922"><ele>529.4000000000001</ele><time>2026-04-26T11:02:45.093Z</time></trkpt><trkpt lat="45.7817414" lon="10.7688123"><ele>523.6</ele><time>2026-04-26T11:02:46.093Z</time></trkpt><trkpt lat="45.7817162" lon="10.7689439"><ele>517.8000000000001</ele><time>2026-04-26T11:02:47.093Z</time></trkpt><trkpt lat="45.7817084" lon="10.769097"><ele>512.0</ele><time>2026-04-26T11:02:48.093Z</time></trkpt><trkpt lat="45.7817325" lon="10.7692506"><ele>510.20000000000005</ele><time>2026-04-26T11:02:49.093Z</time></trkpt><trkpt lat="45.7817826" lon="10.769391"><ele>508.40000000000003</ele><time>2026-04-26T11:02:50.093Z</time></trkpt><trkpt lat="45.7818533" lon="10.7695104"><ele>506.59999999999997</ele><time>2026-04-26T11:02:51.093Z</time></trkpt><trkpt lat="45.7819361" lon="10.7696204"><ele>504.79999999999995</ele><time>2026-04-26T11:02:52.093Z</time></trkpt><trkpt lat="45.782006" lon="10.7697181"><ele>503.0</ele><time>2026-04-26T11:02:53.093Z</time></trkpt><trkpt lat="45.7820739" lon="10.7697945"><ele>501.3333333333333</ele><time>2026-04-26T11:02:54.093Z</time></trkpt><trkpt lat="45.7821351" lon="10.7698479"><ele>499.66666666666663</ele><time>2026-04-26T11:02:55.092Z</time></trkpt><trkpt lat="45.7822084" lon="10.7698582"><ele>498.0</ele><time>2026-04-26T11:02:56.093Z</time></trkpt><trkpt lat="45.7822767" lon="10.7698156"><ele>496.33333333333337</ele><time>2026-04-26T11:02:57.093Z</time></trkpt><trkpt lat="45.7823519" lon="10.7697364"><ele>494.6666666666667</ele><time>2026-04-26T11:02:58.093Z</time></trkpt><trkpt lat="45.7824429" lon="10.7696643"><ele>493.0</ele><time>2026-04-26T11:02:59.093Z</time></trkpt><trkpt lat="45.7825563" lon="10.7696178"><ele>493.0</ele><time>2026-04-26T11:03:00.093Z</time></trkpt><trkpt lat="45.7826784" lon="10.7695916"><ele>493.0</ele><time>2026-04-26T11:03:01.093Z</time></trkpt><trkpt lat="45.7828008" lon="10.7695708"><ele>493.0</ele><time>2026-04-26T11:03:02.093Z</time></trkpt><trkpt lat="45.7829262" lon="10.7695916"><ele>493.0</ele><time>2026-04-26T11:03:03.093Z</time></trkpt><trkpt lat="45.7830439" lon="10.7696519"><ele>493.0</ele><time>2026-04-26T11:03:04.092Z</time></trkpt><trkpt lat="45.7831589" lon="10.7697399"><ele>493.0</ele><time>2026-04-26T11:03:05.093Z</time></trkpt><trkpt lat="45.7832618" lon="10.7698643"><ele>493.0</ele><time>2026-04-26T11:03:06.093Z</time></trkpt><trkpt lat="45.7833533" lon="10.7700105"><ele>493.0</ele><time>2026-04-26T11:03:07.093Z</time></trkpt><trkpt lat="45.7834254" lon="10.7701735"><ele>489.5</ele><time>2026-04-26T11:03:08.093Z</time></trkpt><trkpt lat="45.7834978" lon="10.7703241"><ele>486.0</ele><time>2026-04-26T11:03:09.093Z</time></trkpt><trkpt lat="45.7835743" lon="10.7704281"><ele>482.5</ele><time>2026-04-26T11:03:10.093Z</time></trkpt><trkpt lat="45.7836751" lon="10.7705056"><ele>479.0</ele><time>2026-04-26T11:03:11.093Z</time></trkpt><trkpt lat="45.7837956" lon="10.7705544"><ele>479.0</ele><time>2026-04-26T11:03:12.093Z</time></trkpt><trkpt lat="45.783927" lon="10.7706108"><ele>479.0</ele><time>2026-04-26T11:03:13.093Z</time></trkpt><trkpt lat="45.7840654" lon="10.7706713"><ele>479.0</ele><time>2026-04-26T11:03:14.092Z</time></trkpt><trkpt lat="45.7842053" lon="10.7707234"><ele>479.0</ele><time>2026-04-26T11:03:15.093Z</time></trkpt><trkpt lat="45.7843506" lon="10.7707596"><ele>478.0</ele><time>2026-04-26T11:03:16.092Z</time></trkpt><trkpt lat="45.7844964" lon="10.7707715"><ele>477.0</ele><time>2026-04-26T11:03:17.093Z</time></trkpt><trkpt lat="45.7846244" lon="10.7707878"><ele>476.0</ele><time>2026-04-26T11:03:18.093Z</time></trkpt><trkpt lat="45.7847471" lon="10.7708234"><ele>475.0</ele><time>2026-04-26T11:03:19.093Z</time></trkpt><trkpt lat="45.7848703" lon="10.7708824"><ele>475.0</ele><time>2026-04-26T11:03:20.093Z</time></trkpt><trkpt lat="45.7849925" lon="10.7709637"><ele>475.0</ele><time>2026-04-26T11:03:21.093Z</time></trkpt><trkpt lat="45.7851108" lon="10.7710719"><ele>475.0</ele><time>2026-04-26T11:03:22.093Z</time></trkpt><trkpt lat="45.7852419" lon="10.7711682"><ele>475.0</ele><time>2026-04-26T11:03:23.093Z</time></trkpt><trkpt lat="45.7853833" lon="10.7712452"><ele>468.0</ele><time>2026-04-26T11:03:24.093Z</time></trkpt><trkpt lat="45.785525" lon="10.771327"><ele>461.0</ele><time>2026-04-26T11:03:25.093Z</time></trkpt><trkpt lat="45.7856619" lon="10.7714366"><ele>454.0</ele><time>2026-04-26T11:03:26.092Z</time></trkpt><trkpt lat="45.7857945" lon="10.7715544"><ele>454.0</ele><time>2026-04-26T11:03:27.093Z</time></trkpt><trkpt lat="45.7859285" lon="10.7716769"><ele>454.0</ele><time>2026-04-26T11:03:28.093Z</time></trkpt><trkpt lat="45.7860494" lon="10.7717996"><ele>454.0</ele><time>2026-04-26T11:03:29.093Z</time></trkpt><trkpt lat="45.786152" lon="10.7719199"><ele>454.0</ele><time>2026-04-26T11:03:30.093Z</time></trkpt><trkpt lat="45.7862444" lon="10.772026"><ele>452.6</ele><time>2026-04-26T11:03:31.093Z</time></trkpt><trkpt lat="45.7863247" lon="10.7721271"><ele>451.2</ele><time>2026-04-26T11:03:32.093Z</time></trkpt><trkpt lat="45.7863801" lon="10.7722436"><ele>449.80000000000007</ele><time>2026-04-26T11:03:33.093Z</time></trkpt><trkpt lat="45.7863956" lon="10.7723838"><ele>448.40000000000003</ele><time>2026-04-26T11:03:34.093Z</time></trkpt><trkpt lat="45.7864027" lon="10.7725258"><ele>447.0</ele><time>2026-04-26T11:03:35.093Z</time></trkpt><trkpt lat="45.7864193" lon="10.7726683"><ele>443.0</ele><time>2026-04-26T11:03:36.093Z</time></trkpt><trkpt lat="45.7864549" lon="10.7727933"><ele>439.00000000000006</ele><time>2026-04-26T11:03:37.093Z</time></trkpt><trkpt lat="45.7865184" lon="10.7728964"><ele>435.00000000000006</ele><time>2026-04-26T11:03:38.092Z</time></trkpt><trkpt lat="45.7865916" lon="10.7729697"><ele>431.0</ele><time>2026-04-26T11:03:39.093Z</time></trkpt><trkpt lat="45.7866841" lon="10.7729981"><ele>427.0</ele><time>2026-04-26T11:03:40.093Z</time></trkpt><trkpt lat="45.7867947" lon="10.7730111"><ele>425.75</ele><time>2026-04-26T11:03:41.093Z</time></trkpt><trkpt lat="45.7869168" lon="10.773024"><ele>424.5</ele><time>2026-04-26T11:03:42.093Z</time></trkpt><trkpt lat="45.7870397" lon="10.7730233"><ele>423.25</ele><time>2026-04-26T11:03:43.093Z</time></trkpt><trkpt lat="45.7871588" lon="10.7730137"><ele>422.0</ele><time>2026-04-26T11:03:44.093Z</time></trkpt><trkpt lat="45.7872748" lon="10.7730313"><ele>422.0</ele><time>2026-04-26T11:03:45.093Z</time></trkpt><trkpt lat="45.7873832" lon="10.7730831"><ele>422.0</ele><time>2026-04-26T11:03:46.093Z</time></trkpt><trkpt lat="45.7874927" lon="10.7731152"><ele>422.0</ele><time>2026-04-26T11:03:47.093Z</time></trkpt><trkpt lat="45.7876034" lon="10.7730948"><ele>422.0</ele><time>2026-04-26T11:03:48.093Z</time></trkpt><trkpt lat="45.7877106" lon="10.7730615"><ele>422.0</ele><time>2026-04-26T11:03:49.093Z</time></trkpt><trkpt lat="45.7878276" lon="10.7730126"><ele>420.75</ele><time>2026-04-26T11:03:50.092Z</time></trkpt><trkpt lat="45.7879573" lon="10.7730204"><ele>419.5</ele><time>2026-04-26T11:03:51.093Z</time></trkpt><trkpt lat="45.7880999" lon="10.7730713"><ele>418.25</ele><time>2026-04-26T11:03:52.093Z</time></trkpt><trkpt lat="45.7882486" lon="10.7731443"><ele>417.0</ele><time>2026-04-26T11:03:53.093Z</time></trkpt><trkpt lat="45.7884098" lon="10.7732191"><ele>418.66666666666663</ele><time>2026-04-26T11:03:54.093Z</time></trkpt><trkpt lat="45.7885678" lon="10.7732925"><ele>420.3333333333333</ele><time>2026-04-26T11:03:55.093Z</time></trkpt><trkpt lat="45.7887125" lon="10.7733597"><ele>422.0</ele><time>2026-04-26T11:03:56.093Z</time></trkpt><trkpt lat="45.7888455" lon="10.773417"><ele>422.0</ele><time>2026-04-26T11:03:57.093Z</time></trkpt><trkpt lat="45.7889776" lon="10.7734561"><ele>422.0</ele><time>2026-04-26T11:03:58.093Z</time></trkpt><trkpt lat="45.7891056" lon="10.7734806"><ele>422.0</ele><time>2026-04-26T11:03:59.093Z</time></trkpt><trkpt lat="45.7892227" lon="10.7734956"><ele>422.0</ele><time>2026-04-26T11:04:00.093Z</time></trkpt><trkpt lat="45.7893397" lon="10.7735008"><ele>419.5</ele><time>2026-04-26T11:04:01.093Z</time></trkpt><trkpt lat="45.789463" lon="10.7734847"><ele>417.0</ele><time>2026-04-26T11:04:02.093Z</time></trkpt><trkpt lat="45.7895916" lon="10.7734447"><ele>414.5</ele><time>2026-04-26T11:04:03.093Z</time></trkpt><trkpt lat="45.7897289" lon="10.7734072"><ele>412.0</ele><time>2026-04-26T11:04:04.093Z</time></trkpt><trkpt lat="45.7898703" lon="10.7733798"><ele>412.0</ele><time>2026-04-26T11:04:05.093Z</time></trkpt><trkpt lat="45.7900008" lon="10.773367"><ele>412.0</ele><time>2026-04-26T11:04:06.093Z</time></trkpt><trkpt lat="45.7901337" lon="10.7733746"><ele>412.0</ele><time>2026-04-26T11:04:07.092Z</time></trkpt><trkpt lat="45.7902556" lon="10.7733926"><ele>412.0</ele><time>2026-04-26T11:04:08.093Z</time></trkpt><trkpt lat="45.790354" lon="10.7734102"><ele>410.00000000000006</ele><time>2026-04-26T11:04:09.092Z</time></trkpt><trkpt lat="45.7904348" lon="10.7734273"><ele>408.0</ele><time>2026-04-26T11:04:10.093Z</time></trkpt><trkpt lat="45.7904983" lon="10.7734383"><ele>406.0</ele><time>2026-04-26T11:04:11.093Z</time></trkpt><trkpt lat="45.7905664" lon="10.7735005"><ele>404.0</ele><time>2026-04-26T11:04:13.093Z</time></trkpt><trkpt lat="45.7905455" lon="10.7736148"><ele>402.00000000000006</ele><time>2026-04-26T11:04:15.093Z</time></trkpt><trkpt lat="45.7904853" lon="10.7736618"><ele>400.0</ele><time>2026-04-26T11:04:16.093Z</time></trkpt><trkpt lat="45.790406" lon="10.7737209"><ele>398.1666666666667</ele><time>2026-04-26T11:04:17.093Z</time></trkpt><trkpt lat="45.7903244" lon="10.7738004"><ele>396.33333333333337</ele><time>2026-04-26T11:04:18.093Z</time></trkpt><trkpt lat="45.7902447" lon="10.773872"><ele>394.5</ele><time>2026-04-26T11:04:19.093Z</time></trkpt><trkpt lat="45.7901752" lon="10.7739334"><ele>392.66666666666663</ele><time>2026-04-26T11:04:20.093Z</time></trkpt><trkpt lat="45.7901172" lon="10.7739939"><ele>390.8333333333333</ele><time>2026-04-26T11:04:21.092Z</time></trkpt><trkpt lat="45.79008" lon="10.774071"><ele>389.0</ele><time>2026-04-26T11:04:22.092Z</time></trkpt><trkpt lat="45.7901193" lon="10.7742208"><ele>387.0</ele><time>2026-04-26T11:04:24.093Z</time></trkpt><trkpt lat="45.7901903" lon="10.7742455"><ele>385.0</ele><time>2026-04-26T11:04:25.092Z</time></trkpt><trkpt lat="45.7902905" lon="10.7742264"><ele>383.0</ele><time>2026-04-26T11:04:26.093Z</time></trkpt><trkpt lat="45.7903968" lon="10.7741788"><ele>381.0</ele><time>2026-04-26T11:04:27.092Z</time></trkpt><trkpt lat="45.7905048" lon="10.7741243"><ele>379.0</ele><time>2026-04-26T11:04:28.093Z</time></trkpt><trkpt lat="45.7906207" lon="10.7740469"><ele>379.0</ele><time>2026-04-26T11:04:29.093Z</time></trkpt><trkpt lat="45.7907268" lon="10.7739809"><ele>379.0</ele><time>2026-04-26T11:04:30.092Z</time></trkpt><trkpt lat="45.7908009" lon="10.7739441"><ele>379.0</ele><time>2026-04-26T11:04:31.093Z</time></trkpt><trkpt lat="45.7908982" lon="10.7739352"><ele>379.0</ele><time>2026-04-26T11:04:32.093Z</time></trkpt><trkpt lat="45.790998" lon="10.7739706"><ele>379.0</ele><time>2026-04-26T11:04:33.093Z</time></trkpt><trkpt lat="45.7910986" lon="10.7740357"><ele>380.5</ele><time>2026-04-26T11:04:34.092Z</time></trkpt><trkpt lat="45.7911967" lon="10.7741209"><ele>382.0</ele><time>2026-04-26T11:04:35.093Z</time></trkpt><trkpt lat="45.791283" lon="10.7742488"><ele>383.5</ele><time>2026-04-26T11:04:36.092Z</time></trkpt><trkpt lat="45.7913632" lon="10.7743902"><ele>385.0</ele><time>2026-04-26T11:04:37.093Z</time></trkpt><trkpt lat="45.7914457" lon="10.7745332"><ele>377.5</ele><time>2026-04-26T11:04:38.093Z</time></trkpt><trkpt lat="45.7915338" lon="10.7746469"><ele>370.0</ele><time>2026-04-26T11:04:39.093Z</time></trkpt><trkpt lat="45.7916262" lon="10.7747476"><ele>362.5</ele><time>2026-04-26T11:04:40.093Z</time></trkpt><trkpt lat="45.7917298" lon="10.7748239"><ele>355.0</ele><time>2026-04-26T11:04:41.092Z</time></trkpt><trkpt lat="45.7918572" lon="10.7748741"><ele>355.0</ele><time>2026-04-26T11:04:42.093Z</time></trkpt><trkpt lat="45.7919873" lon="10.7749301"><ele>355.0</ele><time>2026-04-26T11:04:43.093Z</time></trkpt><trkpt lat="45.7921147" lon="10.7749971"><ele>355.0</ele><time>2026-04-26T11:04:44.092Z</time></trkpt><trkpt lat="45.7922436" lon="10.7750655"><ele>355.0</ele><time>2026-04-26T11:04:45.093Z</time></trkpt><trkpt lat="45.7923656" lon="10.7751521"><ele>354.75</ele><time>2026-04-26T11:04:46.093Z</time></trkpt><trkpt lat="45.7924949" lon="10.775232"><ele>354.5</ele><time>2026-04-26T11:04:47.092Z</time></trkpt><trkpt lat="45.7926196" lon="10.7753193"><ele>354.25</ele><time>2026-04-26T11:04:48.093Z</time></trkpt><trkpt lat="45.7927338" lon="10.7754091"><ele>354.0</ele><time>2026-04-26T11:04:49.093Z</time></trkpt><trkpt lat="45.7928399" lon="10.7754912"><ele>354.0</ele><time>2026-04-26T11:04:50.093Z</time></trkpt><trkpt lat="45.7929405" lon="10.775567"><ele>354.0</ele><time>2026-04-26T11:04:51.093Z</time></trkpt><trkpt lat="45.7930237" lon="10.7756315"><ele>354.0</ele><time>2026-04-26T11:04:52.093Z</time></trkpt><trkpt lat="45.793092" lon="10.7757069"><ele>354.0</ele><time>2026-04-26T11:04:53.093Z</time></trkpt><trkpt lat="45.7931449" lon="10.7757941"><ele>354.0</ele><time>2026-04-26T11:04:54.092Z</time></trkpt><trkpt lat="45.7931672" lon="10.7759161"><ele>350.0</ele><time>2026-04-26T11:04:55.093Z</time></trkpt><trkpt lat="45.793169" lon="10.7760683"><ele>346.0</ele><time>2026-04-26T11:04:56.093Z</time></trkpt><trkpt lat="45.79315" lon="10.7762398"><ele>342.0</ele><time>2026-04-26T11:04:57.092Z</time></trkpt><trkpt lat="45.7931063" lon="10.7764103"><ele>338.0</ele><time>2026-04-26T11:04:58.093Z</time></trkpt><trkpt lat="45.7930566" lon="10.7765768"><ele>338.0</ele><time>2026-04-26T11:04:59.093Z</time></trkpt><trkpt lat="45.7930245" lon="10.7767551"><ele>338.0</ele><time>2026-04-26T11:05:00.092Z</time></trkpt><trkpt lat="45.7930286" lon="10.7769367"><ele>338.0</ele><time>2026-04-26T11:05:01.093Z</time></trkpt><trkpt lat="45.7930679" lon="10.7771068"><ele>338.0</ele><time>2026-04-26T11:05:02.092Z</time></trkpt><trkpt lat="45.7931282" lon="10.7772611"><ele>333.5</ele><time>2026-04-26T11:05:03.093Z</time></trkpt><trkpt lat="45.7932042" lon="10.7774012"><ele>329.0</ele><time>2026-04-26T11:05:04.093Z</time></trkpt><trkpt lat="45.7932832" lon="10.7775355"><ele>324.5</ele><time>2026-04-26T11:05:05.093Z</time></trkpt><trkpt lat="45.7933637" lon="10.7776662"><ele>320.0</ele><time>2026-04-26T11:05:06.093Z</time></trkpt><trkpt lat="45.7934553" lon="10.7777859"><ele>314.6</ele><time>2026-04-26T11:05:07.093Z</time></trkpt><trkpt lat="45.7935459" lon="10.7778934"><ele>309.2</ele><time>2026-04-26T11:05:08.093Z</time></trkpt><trkpt lat="45.7936266" lon="10.7779728"><ele>303.8</ele><time>2026-04-26T11:05:09.093Z</time></trkpt><trkpt lat="45.7937038" lon="10.7780348"><ele>298.4</ele><time>2026-04-26T11:05:10.093Z</time></trkpt><trkpt lat="45.7937884" lon="10.7780736"><ele>293.0</ele><time>2026-04-26T11:05:11.093Z</time></trkpt><trkpt lat="45.7938739" lon="10.7780888"><ele>293.0</ele><time>2026-04-26T11:05:12.093Z</time></trkpt><trkpt lat="45.79396" lon="10.778079"><ele>293.0</ele><time>2026-04-26T11:05:13.093Z</time></trkpt><trkpt lat="45.7940611" lon="10.7780241"><ele>293.0</ele><time>2026-04-26T11:05:14.093Z</time></trkpt><trkpt lat="45.7941637" lon="10.7779793"><ele>293.0</ele><time>2026-04-26T11:05:15.093Z</time></trkpt><trkpt lat="45.7942839" lon="10.7779516"><ele>293.0</ele><time>2026-04-26T11:05:16.093Z</time></trkpt><trkpt lat="45.7944047" lon="10.7779347"><ele>293.2</ele><time>2026-04-26T11:05:17.093Z</time></trkpt><trkpt lat="45.7945267" lon="10.7779142"><ele>293.4</ele><time>2026-04-26T11:05:18.093Z</time></trkpt><trkpt lat="45.7946317" lon="10.7778925"><ele>293.59999999999997</ele><time>2026-04-26T11:05:19.093Z</time></trkpt><trkpt lat="45.7947276" lon="10.7778762"><ele>293.8</ele><time>2026-04-26T11:05:20.093Z</time></trkpt><trkpt lat="45.7948376" lon="10.7778735"><ele>294.0</ele><time>2026-04-26T11:05:21.093Z</time></trkpt><trkpt lat="45.7949363" lon="10.7779258"><ele>294.0</ele><time>2026-04-26T11:05:22.093Z</time></trkpt><trkpt lat="45.7950215" lon="10.778015"><ele>294.0</ele><time>2026-04-26T11:05:23.093Z</time></trkpt><trkpt lat="45.7950882" lon="10.7781348"><ele>294.0</ele><time>2026-04-26T11:05:24.093Z</time></trkpt><trkpt lat="45.7951364" lon="10.778283"><ele>294.0</ele><time>2026-04-26T11:05:25.093Z</time></trkpt><trkpt lat="45.7951832" lon="10.7784498"><ele>291.75</ele><time>2026-04-26T11:05:26.093Z</time></trkpt><trkpt lat="45.7952408" lon="10.7786426"><ele>289.5</ele><time>2026-04-26T11:05:27.093Z</time></trkpt><trkpt lat="45.7953211" lon="10.7788183"><ele>287.25</ele><time>2026-04-26T11:05:28.093Z</time></trkpt><trkpt lat="45.7954112" lon="10.7789905"><ele>285.0</ele><time>2026-04-26T11:05:29.092Z</time></trkpt><trkpt lat="45.7955242" lon="10.7791362"><ele>285.0</ele><time>2026-04-26T11:05:30.092Z</time></trkpt><trkpt lat="45.7956494" lon="10.7792559"><ele>285.0</ele><time>2026-04-26T11:05:31.093Z</time></trkpt><trkpt lat="45.7957776" lon="10.7793624"><ele>285.0</ele><time>2026-04-26T11:05:32.093Z</time></trkpt><trkpt lat="45.7959129" lon="10.7794385"><ele>285.0</ele><time>2026-04-26T11:05:33.093Z</time></trkpt><trkpt lat="45.7960388" lon="10.7794254"><ele>284.0</ele><time>2026-04-26T11:05:34.092Z</time></trkpt><trkpt lat="45.7961449" lon="10.7794329"><ele>283.0</ele><time>2026-04-26T11:05:35.093Z</time></trkpt><trkpt lat="45.7962299" lon="10.7794807"><ele>282.0</ele><time>2026-04-26T11:05:36.093Z</time></trkpt><trkpt lat="45.7962895" lon="10.7795668"><ele>281.0</ele><time>2026-04-26T11:05:37.093Z</time></trkpt><trkpt lat="45.7963323" lon="10.7796728"><ele>280.0</ele><time>2026-04-26T11:05:38.093Z</time></trkpt><trkpt lat="45.7963336" lon="10.7798178"><ele>280.0</ele><time>2026-04-26T11:05:39.092Z</time></trkpt><trkpt lat="45.7963138" lon="10.7799778"><ele>280.0</ele><time>2026-04-26T11:05:40.093Z</time></trkpt><trkpt lat="45.7962819" lon="10.7801309"><ele>280.0</ele><time>2026-04-26T11:05:41.093Z</time></trkpt><trkpt lat="45.7962528" lon="10.7802819"><ele>280.0</ele><time>2026-04-26T11:05:42.093Z</time></trkpt><trkpt lat="45.7962322" lon="10.7804231"><ele>280.0</ele><time>2026-04-26T11:05:43.093Z</time></trkpt><trkpt lat="45.796246" lon="10.7805672"><ele>276.0</ele><time>2026-04-26T11:05:44.093Z</time></trkpt><trkpt lat="45.7962843" lon="10.7807107"><ele>272.0</ele><time>2026-04-26T11:05:45.093Z</time></trkpt><trkpt lat="45.7963455" lon="10.7808299"><ele>268.0</ele><time>2026-04-26T11:05:46.093Z</time></trkpt><trkpt lat="45.7964317" lon="10.7809163"><ele>264.0</ele><time>2026-04-26T11:05:47.093Z</time></trkpt><trkpt lat="45.7965099" lon="10.7809961"><ele>260.0</ele><time>2026-04-26T11:05:48.093Z</time></trkpt><trkpt lat="45.796662" lon="10.780964"><ele>260.0</ele><time>2026-04-26T11:05:49.093Z</time></trkpt><trkpt lat="45.7967959" lon="10.7809832"><ele>260.0</ele><time>2026-04-26T11:05:50.093Z</time></trkpt><trkpt lat="45.7969371" lon="10.780999"><ele>260.0</ele><time>2026-04-26T11:05:51.093Z</time></trkpt><trkpt lat="45.7970838" lon="10.7810078"><ele>260.0</ele><time>2026-04-26T11:05:52.093Z</time></trkpt><trkpt lat="45.7972343" lon="10.7810086"><ele>257.25</ele><time>2026-04-26T11:05:53.093Z</time></trkpt><trkpt lat="45.7973738" lon="10.7810073"><ele>254.5</ele><time>2026-04-26T11:05:54.093Z</time></trkpt><trkpt lat="45.7974975" lon="10.7810013"><ele>251.75</ele><time>2026-04-26T11:05:55.093Z</time></trkpt><trkpt lat="45.797612" lon="10.7809686"><ele>249.0</ele><time>2026-04-26T11:05:56.092Z</time></trkpt><trkpt lat="45.7977301" lon="10.7809285"><ele>246.75</ele><time>2026-04-26T11:05:57.093Z</time></trkpt><trkpt lat="45.7978486" lon="10.7808907"><ele>244.5</ele><time>2026-04-26T11:05:58.093Z</time></trkpt><trkpt lat="45.7979694" lon="10.7808854"><ele>242.25</ele><time>2026-04-26T11:05:59.093Z</time></trkpt><trkpt lat="45.798088" lon="10.7808803"><ele>240.0</ele><time>2026-04-26T11:06:00.093Z</time></trkpt><trkpt lat="45.798212" lon="10.7809019"><ele>240.0</ele><time>2026-04-26T11:06:01.093Z</time></trkpt><trkpt lat="45.7983317" lon="10.7809248"><ele>240.0</ele><time>2026-04-26T11:06:02.093Z</time></trkpt><trkpt lat="45.7984506" lon="10.7809624"><ele>240.0</ele><time>2026-04-26T11:06:03.093Z</time></trkpt><trkpt lat="45.7985623" lon="10.7810233"><ele>240.0</ele><time>2026-04-26T11:06:04.093Z</time></trkpt><trkpt lat="45.7986744" lon="10.7810926"><ele>235.0</ele><time>2026-04-26T11:06:05.092Z</time></trkpt><trkpt lat="45.798779" lon="10.7811668"><ele>230.0</ele><time>2026-04-26T11:06:06.093Z</time></trkpt><trkpt lat="45.7988686" lon="10.7812288"><ele>225.0</ele><time>2026-04-26T11:06:07.092Z</time></trkpt><trkpt lat="45.7989544" lon="10.7812908"><ele>220.0</ele><time>2026-04-26T11:06:08.092Z</time></trkpt><trkpt lat="45.7990484" lon="10.781301"><ele>215.0</ele><time>2026-04-26T11:06:09.093Z</time></trkpt><trkpt lat="45.7991364" lon="10.7812983"><ele>215.0</ele><time>2026-04-26T11:06:10.093Z</time></trkpt><trkpt lat="45.7992192" lon="10.781272"><ele>215.0</ele><time>2026-04-26T11:06:11.093Z</time></trkpt><trkpt lat="45.7992944" lon="10.7812403"><ele>215.0</ele><time>2026-04-26T11:06:12.093Z</time></trkpt><trkpt lat="45.7993553" lon="10.7811354"><ele>215.0</ele><time>2026-04-26T11:06:13.093Z</time></trkpt><trkpt lat="45.7994173" lon="10.7810159"><ele>215.0</ele><time>2026-04-26T11:06:14.093Z</time></trkpt><trkpt lat="45.7994769" lon="10.7808846"><ele>210.0</ele><time>2026-04-26T11:06:15.093Z</time></trkpt><trkpt lat="45.7995486" lon="10.7807591"><ele>205.0</ele><time>2026-04-26T11:06:16.093Z</time></trkpt><trkpt lat="45.7996372" lon="10.7806433"><ele>200.0</ele><time>2026-04-26T11:06:17.093Z</time></trkpt><trkpt lat="45.7997403" lon="10.7805498"><ele>195.0</ele><time>2026-04-26T11:06:18.092Z</time></trkpt><trkpt lat="45.7998526" lon="10.780479"><ele>195.0</ele><time>2026-04-26T11:06:19.093Z</time></trkpt><trkpt lat="45.799973" lon="10.7804207"><ele>195.0</ele><time>2026-04-26T11:06:20.093Z</time></trkpt><trkpt lat="45.8000978" lon="10.7803738"><ele>195.0</ele><time>2026-04-26T11:06:21.093Z</time></trkpt><trkpt lat="45.8002346" lon="10.7803299"><ele>195.0</ele><time>2026-04-26T11:06:22.093Z</time></trkpt><trkpt lat="45.8003796" lon="10.7802907"><ele>189.66666666666666</ele><time>2026-04-26T11:06:23.093Z</time></trkpt><trkpt lat="45.8005337" lon="10.780267"><ele>184.33333333333331</ele><time>2026-04-26T11:06:24.093Z</time></trkpt><trkpt lat="45.800688" lon="10.7802649"><ele>179.0</ele><time>2026-04-26T11:06:25.093Z</time></trkpt><trkpt lat="45.8008429" lon="10.7802747"><ele>178.75</ele><time>2026-04-26T11:06:26.093Z</time></trkpt><trkpt lat="45.801" lon="10.7802897"><ele>178.5</ele><time>2026-04-26T11:06:27.093Z</time></trkpt><trkpt lat="45.8011532" lon="10.7803174"><ele>178.25</ele><time>2026-04-26T11:06:28.093Z</time></trkpt><trkpt lat="45.8012872" lon="10.7803537"><ele>178.0</ele><time>2026-04-26T11:06:29.093Z</time></trkpt><trkpt lat="45.8014097" lon="10.7804001"><ele>178.0</ele><time>2026-04-26T11:06:30.093Z</time></trkpt><trkpt lat="45.8015289" lon="10.7804757"><ele>178.0</ele><time>2026-04-26T11:06:31.093Z</time></trkpt><trkpt lat="45.8016487" lon="10.7805631"><ele>178.0</ele><time>2026-04-26T11:06:32.093Z</time></trkpt><trkpt lat="45.8017761" lon="10.7806494"><ele>178.0</ele><time>2026-04-26T11:06:33.093Z</time></trkpt><trkpt lat="45.8019083" lon="10.7807417"><ele>179.25</ele><time>2026-04-26T11:06:34.093Z</time></trkpt><trkpt lat="45.8020385" lon="10.780835"><ele>180.5</ele><time>2026-04-26T11:06:35.093Z</time></trkpt><trkpt lat="45.8021663" lon="10.7809402"><ele>181.75</ele><time>2026-04-26T11:06:36.093Z</time></trkpt><trkpt lat="45.8022852" lon="10.7810462"><ele>183.0</ele><time>2026-04-26T11:06:37.092Z</time></trkpt><trkpt lat="45.8023908" lon="10.7811429"><ele>176.75</ele><time>2026-04-26T11:06:38.093Z</time></trkpt><trkpt lat="45.8025026" lon="10.7812209"><ele>170.5</ele><time>2026-04-26T11:06:39.093Z</time></trkpt><trkpt lat="45.8026156" lon="10.7812678"><ele>164.25</ele><time>2026-04-26T11:06:40.092Z</time></trkpt><trkpt lat="45.8027391" lon="10.7812669"><ele>158.0</ele><time>2026-04-26T11:06:41.092Z</time></trkpt><trkpt lat="45.8028618" lon="10.7812492"><ele>157.0</ele><time>2026-04-26T11:06:42.093Z</time></trkpt><trkpt lat="45.8029857" lon="10.781222"><ele>156.0</ele><time>2026-04-26T11:06:43.093Z</time></trkpt><trkpt lat="45.803112" lon="10.7812017"><ele>155.0</ele><time>2026-04-26T11:06:44.092Z</time></trkpt><trkpt lat="45.8032254" lon="10.7811971"><ele>154.0</ele><time>2026-04-26T11:06:45.093Z</time></trkpt><trkpt lat="45.8033358" lon="10.7812127"><ele>154.0</ele><time>2026-04-26T11:06:46.093Z</time></trkpt><trkpt lat="45.8034403" lon="10.7812713"><ele>154.0</ele><time>2026-04-26T11:06:47.093Z</time></trkpt><trkpt lat="45.803532" lon="10.7813651"><ele>154.0</ele><time>2026-04-26T11:06:48.092Z</time></trkpt><trkpt lat="45.803604" lon="10.7814781"><ele>154.0</ele><time>2026-04-26T11:06:49.093Z</time></trkpt><trkpt lat="45.8036464" lon="10.781595"><ele>154.0</ele><time>2026-04-26T11:06:50.093Z</time></trkpt><trkpt lat="45.8036545" lon="10.7817231"><ele>157.2</ele><time>2026-04-26T11:06:51.093Z</time></trkpt><trkpt lat="45.8036307" lon="10.7818482"><ele>160.4</ele><time>2026-04-26T11:06:52.093Z</time></trkpt><trkpt lat="45.8036102" lon="10.7819774"><ele>163.6</ele><time>2026-04-26T11:06:53.093Z</time></trkpt><trkpt lat="45.8035995" lon="10.7821254"><ele>166.8</ele><time>2026-04-26T11:06:54.093Z</time></trkpt><trkpt lat="45.8035934" lon="10.7822956"><ele>170.0</ele><time>2026-04-26T11:06:55.093Z</time></trkpt><trkpt lat="45.803584" lon="10.7824882"><ele>168.75</ele><time>2026-04-26T11:06:56.092Z</time></trkpt><trkpt lat="45.8035779" lon="10.7826929"><ele>167.5</ele><time>2026-04-26T11:06:57.092Z</time></trkpt><trkpt lat="45.8035766" lon="10.7829045"><ele>166.25</ele><time>2026-04-26T11:06:58.092Z</time></trkpt><trkpt lat="45.8035795" lon="10.7831043"><ele>165.0</ele><time>2026-04-26T11:06:59.093Z</time></trkpt><trkpt lat="45.80358" lon="10.7832839"><ele>165.0</ele><time>2026-04-26T11:07:00.093Z</time></trkpt><trkpt lat="45.803584" lon="10.783433"><ele>165.0</ele><time>2026-04-26T11:07:01.092Z</time></trkpt><trkpt lat="45.8035889" lon="10.7835489"><ele>165.0</ele><time>2026-04-26T11:07:02.093Z</time></trkpt><trkpt lat="45.8036215" lon="10.7836483"><ele>165.0</ele><time>2026-04-26T11:07:03.093Z</time></trkpt><trkpt lat="45.8036571" lon="10.7837311"><ele>165.0</ele><time>2026-04-26T11:07:04.093Z</time></trkpt><trkpt lat="45.8037293" lon="10.7837773"><ele>165.0</ele><time>2026-04-26T11:07:05.093Z</time></trkpt><trkpt lat="45.8037979" lon="10.7838358"><ele>162.6</ele><time>2026-04-26T11:07:06.093Z</time></trkpt><trkpt lat="45.8038681" lon="10.7839197"><ele>160.2</ele><time>2026-04-26T11:07:07.093Z</time></trkpt><trkpt lat="45.8039343" lon="10.784016"><ele>157.8</ele><time>2026-04-26T11:07:08.093Z</time></trkpt><trkpt lat="45.804" lon="10.7841088"><ele>155.4</ele><time>2026-04-26T11:07:09.093Z</time></trkpt><trkpt lat="45.8040666" lon="10.7841993"><ele>153.0</ele><time>2026-04-26T11:07:10.093Z</time></trkpt><trkpt lat="45.8041347" lon="10.7842843"><ele>153.0</ele><time>2026-04-26T11:07:11.093Z</time></trkpt><trkpt lat="45.8042305" lon="10.7843393"><ele>153.0</ele><time>2026-04-26T11:07:12.093Z</time></trkpt><trkpt lat="45.8043305" lon="10.7843845"><ele>153.0</ele><time>2026-04-26T11:07:13.092Z</time></trkpt><trkpt lat="45.8044404" lon="10.7844368"><ele>153.0</ele><time>2026-04-26T11:07:14.093Z</time></trkpt><trkpt lat="45.8045503" lon="10.7845006"><ele>153.0</ele><time>2026-04-26T11:07:15.092Z</time></trkpt><trkpt lat="45.8046542" lon="10.7845607"><ele>149.20000000000002</ele><time>2026-04-26T11:07:16.093Z</time></trkpt><trkpt lat="45.8047558" lon="10.784629"><ele>145.4</ele><time>2026-04-26T11:07:17.092Z</time></trkpt><trkpt lat="45.8048487" lon="10.7847105"><ele>141.60000000000002</ele><time>2026-04-26T11:07:18.093Z</time></trkpt><trkpt lat="45.8049469" lon="10.7847896"><ele>137.8</ele><time>2026-04-26T11:07:19.093Z</time></trkpt><trkpt lat="45.8050376" lon="10.7848506"><ele>134.0</ele><time>2026-04-26T11:07:20.093Z</time></trkpt><trkpt lat="45.8051289" lon="10.7848909"><ele>133.16666666666666</ele><time>2026-04-26T11:07:21.093Z</time></trkpt><trkpt lat="45.8052178" lon="10.78492"><ele>132.33333333333331</ele><time>2026-04-26T11:07:22.093Z</time></trkpt><trkpt lat="45.8052969" lon="10.784938"><ele>131.5</ele><time>2026-04-26T11:07:23.093Z</time></trkpt><trkpt lat="45.8053836" lon="10.7849577"><ele>130.66666666666666</ele><time>2026-04-26T11:07:24.093Z</time></trkpt><trkpt lat="45.8054695" lon="10.7849883"><ele>129.83333333333334</ele><time>2026-04-26T11:07:25.093Z</time></trkpt><trkpt lat="45.805556" lon="10.7850307"><ele>129.0</ele><time>2026-04-26T11:07:26.093Z</time></trkpt><trkpt lat="45.8056428" lon="10.7850907"><ele>129.0</ele><time>2026-04-26T11:07:27.093Z</time></trkpt><trkpt lat="45.8057298" lon="10.7851579"><ele>129.0</ele><time>2026-04-26T11:07:28.093Z</time></trkpt><trkpt lat="45.8058221" lon="10.7852295"><ele>129.0</ele><time>2026-04-26T11:07:29.093Z</time></trkpt><trkpt lat="45.8059193" lon="10.7853136"><ele>129.0</ele><time>2026-04-26T11:07:30.093Z</time></trkpt><trkpt lat="45.8060196" lon="10.7853994"><ele>129.0</ele><time>2026-04-26T11:07:31.093Z</time></trkpt><trkpt lat="45.8061232" lon="10.7854864"><ele>126.2</ele><time>2026-04-26T11:07:32.093Z</time></trkpt><trkpt lat="45.8062163" lon="10.7855608"><ele>123.4</ele><time>2026-04-26T11:07:33.093Z</time></trkpt><trkpt lat="45.8063094" lon="10.7856379"><ele>120.6</ele><time>2026-04-26T11:07:34.093Z</time></trkpt><trkpt lat="45.8064015" lon="10.785726"><ele>117.8</ele><time>2026-04-26T11:07:35.092Z</time></trkpt><trkpt lat="45.8064916" lon="10.7858279"><ele>115.0</ele><time>2026-04-26T11:07:36.093Z</time></trkpt><trkpt lat="45.8065778" lon="10.7859409"><ele>112.8</ele><time>2026-04-26T11:07:37.092Z</time></trkpt><trkpt lat="45.8066676" lon="10.7860563"><ele>110.6</ele><time>2026-04-26T11:07:38.092Z</time></trkpt><trkpt lat="45.806748" lon="10.7861614"><ele>108.4</ele><time>2026-04-26T11:07:39.092Z</time></trkpt><trkpt lat="45.8068173" lon="10.7862541"><ele>106.2</ele><time>2026-04-26T11:07:40.093Z</time></trkpt><trkpt lat="45.8068747" lon="10.7863326"><ele>104.0</ele><time>2026-04-26T11:07:41.093Z</time></trkpt><trkpt lat="45.8069358" lon="10.7864204"><ele>104.0</ele><time>2026-04-26T11:07:42.092Z</time></trkpt><trkpt lat="45.8069957" lon="10.7865093"><ele>104.0</ele><time>2026-04-26T11:07:43.093Z</time></trkpt><trkpt lat="45.8070574" lon="10.786604"><ele>104.0</ele><time>2026-04-26T11:07:44.093Z</time></trkpt><trkpt lat="45.8071229" lon="10.7866971"><ele>104.0</ele><time>2026-04-26T11:07:45.093Z</time></trkpt><trkpt lat="45.8071917" lon="10.7867869"><ele>104.0</ele><time>2026-04-26T11:07:46.093Z</time></trkpt><trkpt lat="45.8072649" lon="10.7868669"><ele>102.83333333333333</ele><time>2026-04-26T11:07:47.093Z</time></trkpt><trkpt lat="45.8073383" lon="10.7869464"><ele>101.66666666666666</ele><time>2026-04-26T11:07:48.093Z</time></trkpt><trkpt lat="45.8074122" lon="10.787021"><ele>100.5</ele><time>2026-04-26T11:07:49.093Z</time></trkpt><trkpt lat="45.8074837" lon="10.7870962"><ele>99.33333333333334</ele><time>2026-04-26T11:07:50.093Z</time></trkpt><trkpt lat="45.8075548" lon="10.7871804"><ele>98.16666666666667</ele><time>2026-04-26T11:07:51.093Z</time></trkpt><trkpt lat="45.8076161" lon="10.7872633"><ele>97.0</ele><time>2026-04-26T11:07:52.093Z</time></trkpt><trkpt lat="45.8076641" lon="10.7873253"><ele>97.0</ele><time>2026-04-26T11:07:53.093Z</time></trkpt><trkpt lat="45.8077577" lon="10.7874213"><ele>97.0</ele><time>2026-04-26T11:07:55.093Z</time></trkpt><trkpt lat="45.8077877" lon="10.7875435"><ele>97.0</ele><time>2026-04-26T11:07:57.093Z</time></trkpt><trkpt lat="45.8077661" lon="10.7876627"><ele>97.0</ele><time>2026-04-26T11:08:00.093Z</time></trkpt><trkpt lat="45.80774" lon="10.7877609"><ele>97.0</ele><time>2026-04-26T11:08:03.093Z</time></trkpt><trkpt lat="45.8076981" lon="10.7878747"><ele>96.33333333333334</ele><time>2026-04-26T11:08:06.092Z</time></trkpt><trkpt lat="45.807691" lon="10.7879678"><ele>95.66666666666667</ele><time>2026-04-26T11:08:44.092Z</time></trkpt><trkpt lat="45.8077476" lon="10.7880678"><ele>95.0</ele><time>2026-04-26T11:08:46.093Z</time></trkpt><trkpt lat="45.8078462" lon="10.7881764"><ele>94.33333333333334</ele><time>2026-04-26T11:08:48.093Z</time></trkpt><trkpt lat="45.8079018" lon="10.7882447"><ele>93.66666666666667</ele><time>2026-04-26T11:08:49.093Z</time></trkpt><trkpt lat="45.8079509" lon="10.7883107"><ele>93.0</ele><time>2026-04-26T11:08:50.093Z</time></trkpt><trkpt lat="45.8080122" lon="10.7884154"><ele>93.0</ele><time>2026-04-26T11:08:52.092Z</time></trkpt><trkpt lat="45.808057" lon="10.7884837"><ele>93.0</ele><time>2026-04-26T11:08:54.093Z</time></trkpt><trkpt lat="45.8081016" lon="10.7885674"><ele>93.0</ele><time>2026-04-26T11:08:56.093Z</time></trkpt><trkpt lat="45.8081454" lon="10.7886558"><ele>93.0</ele><time>2026-04-26T11:08:58.093Z</time></trkpt><trkpt lat="45.8082145" lon="10.7887897"><ele>93.0</ele><time>2026-04-26T11:09:00.093Z</time></trkpt><trkpt lat="45.808251" lon="10.788872"><ele>93.0</ele><time>2026-04-26T11:09:01.093Z</time></trkpt><trkpt lat="45.8082872" lon="10.7889673"><ele>93.33333333333333</ele><time>2026-04-26T11:09:02.093Z</time></trkpt><trkpt lat="45.8083271" lon="10.7890598"><ele>93.66666666666667</ele><time>2026-04-26T11:09:03.093Z</time></trkpt><trkpt lat="45.8083682" lon="10.789155"><ele>94.0</ele><time>2026-04-26T11:09:04.093Z</time></trkpt><trkpt lat="45.8084139" lon="10.7892503"><ele>94.33333333333334</ele><time>2026-04-26T11:09:05.093Z</time></trkpt><trkpt lat="45.8084593" lon="10.7893421"><ele>94.66666666666667</ele><time>2026-04-26T11:09:06.093Z</time></trkpt><trkpt lat="45.8085009" lon="10.7894277"><ele>95.0</ele><time>2026-04-26T11:09:07.093Z</time></trkpt><trkpt lat="45.8085419" lon="10.7895003"><ele>95.0</ele><time>2026-04-26T11:09:08.093Z</time></trkpt><trkpt lat="45.8086225" lon="10.7896318"><ele>95.0</ele><time>2026-04-26T11:09:10.093Z</time></trkpt><trkpt lat="45.808669" lon="10.7897056"><ele>95.0</ele><time>2026-04-26T11:09:11.093Z</time></trkpt><trkpt lat="45.8087181" lon="10.7897753"><ele>95.0</ele><time>2026-04-26T11:09:12.093Z</time></trkpt><trkpt lat="45.8087678" lon="10.7898405"><ele>95.0</ele><time>2026-04-26T11:09:13.093Z</time></trkpt><trkpt lat="45.808816" lon="10.7899048"><ele>95.0</ele><time>2026-04-26T11:09:14.093Z</time></trkpt><trkpt lat="45.8088636" lon="10.789969"><ele>95.0</ele><time>2026-04-26T11:09:15.093Z</time></trkpt><trkpt lat="45.8089158" lon="10.7900283"><ele>95.0</ele><time>2026-04-26T11:09:16.092Z</time></trkpt><trkpt lat="45.8089736" lon="10.7900866"><ele>95.0</ele><time>2026-04-26T11:09:17.093Z</time></trkpt><trkpt lat="45.8090384" lon="10.790147"><ele>95.0</ele><time>2026-04-26T11:09:18.092Z</time></trkpt><trkpt lat="45.8091109" lon="10.7902161"><ele>95.0</ele><time>2026-04-26T11:09:19.093Z</time></trkpt><trkpt lat="45.8091825" lon="10.7902864"><ele>95.0</ele><time>2026-04-26T11:09:20.093Z</time></trkpt><trkpt lat="45.8092575" lon="10.7903518"><ele>94.83333333333334</ele><time>2026-04-26T11:09:21.093Z</time></trkpt><trkpt lat="45.8093278" lon="10.7904099"><ele>94.66666666666667</ele><time>2026-04-26T11:09:22.093Z</time></trkpt><trkpt lat="45.8093901" lon="10.7904648"><ele>94.5</ele><time>2026-04-26T11:09:23.093Z</time></trkpt><trkpt lat="45.8094536" lon="10.7905181"><ele>94.33333333333333</ele><time>2026-04-26T11:09:24.092Z</time></trkpt><trkpt lat="45.8095167" lon="10.7905727"><ele>94.16666666666666</ele><time>2026-04-26T11:09:25.093Z</time></trkpt><trkpt lat="45.8095787" lon="10.7906276"><ele>94.0</ele><time>2026-04-26T11:09:26.093Z</time></trkpt><trkpt lat="45.8096458" lon="10.7906801"><ele>94.0</ele><time>2026-04-26T11:09:27.093Z</time></trkpt><trkpt lat="45.809708" lon="10.790732"><ele>94.0</ele><time>2026-04-26T11:09:28.093Z</time></trkpt><trkpt lat="45.8097642" lon="10.7907748"><ele>94.0</ele><time>2026-04-26T11:09:29.092Z</time></trkpt><trkpt lat="45.8098256" lon="10.7908221"><ele>94.0</ele><time>2026-04-26T11:09:30.093Z</time></trkpt><trkpt lat="45.8098871" lon="10.7908698"><ele>94.0</ele><time>2026-04-26T11:09:31.093Z</time></trkpt><trkpt lat="45.80999" lon="10.7909581"><ele>94.0</ele><time>2026-04-26T11:09:33.093Z</time></trkpt><trkpt lat="45.8100729" lon="10.7910278"><ele>94.4</ele><time>2026-04-26T11:09:35.093Z</time></trkpt><trkpt lat="45.8101281" lon="10.7910841"><ele>94.80000000000001</ele><time>2026-04-26T11:09:37.093Z</time></trkpt><trkpt lat="45.8101971" lon="10.7911447"><ele>95.19999999999999</ele><time>2026-04-26T11:09:39.093Z</time></trkpt><trkpt lat="45.8102909" lon="10.7912229"><ele>95.6</ele><time>2026-04-26T11:09:41.092Z</time></trkpt><trkpt lat="45.8104029" lon="10.7913194"><ele>96.0</ele><time>2026-04-26T11:09:43.093Z</time></trkpt><trkpt lat="45.8104649" lon="10.7913735"><ele>95.99999999999999</ele><time>2026-04-26T11:09:44.093Z</time></trkpt><trkpt lat="45.8105281" lon="10.7914227"><ele>96.0</ele><time>2026-04-26T11:09:45.093Z</time></trkpt><trkpt lat="45.8105874" lon="10.7914831"><ele>96.0</ele><time>2026-04-26T11:09:46.093Z</time></trkpt><trkpt lat="45.8106459" lon="10.7915432"><ele>96.0</ele><time>2026-04-26T11:09:47.093Z</time></trkpt><trkpt lat="45.8107056" lon="10.7915989"><ele>96.0</ele><time>2026-04-26T11:09:48.093Z</time></trkpt><trkpt lat="45.8107613" lon="10.7916478"><ele>95.99999999999999</ele><time>2026-04-26T11:09:49.093Z</time></trkpt><trkpt lat="45.8108145" lon="10.7917012"><ele>96.0</ele><time>2026-04-26T11:09:50.093Z</time></trkpt><trkpt lat="45.8108711" lon="10.7917626"><ele>96.0</ele><time>2026-04-26T11:09:51.093Z</time></trkpt><trkpt lat="45.8109381" lon="10.7918184"><ele>96.0</ele><time>2026-04-26T11:09:52.093Z</time></trkpt><trkpt lat="45.8110099" lon="10.7918674"><ele>96.0</ele><time>2026-04-26T11:09:53.093Z</time></trkpt><trkpt lat="45.8110893" lon="10.7919111"><ele>96.0</ele><time>2026-04-26T11:09:54.093Z</time></trkpt><trkpt lat="45.8111721" lon="10.7919534"><ele>96.0</ele><time>2026-04-26T11:09:55.093Z</time></trkpt><trkpt lat="45.8112524" lon="10.7919891"><ele>96.0</ele><time>2026-04-26T11:09:56.093Z</time></trkpt><trkpt lat="45.8113315" lon="10.7920208"><ele>95.99999999999999</ele><time>2026-04-26T11:09:57.093Z</time></trkpt><trkpt lat="45.8114057" lon="10.7920484"><ele>96.0</ele><time>2026-04-26T11:09:58.093Z</time></trkpt><trkpt lat="45.8114757" lon="10.7920712"><ele>96.0</ele><time>2026-04-26T11:09:59.093Z</time></trkpt><trkpt lat="45.811543" lon="10.792094"><ele>96.0</ele><time>2026-04-26T11:10:00.093Z</time></trkpt><trkpt lat="45.8116144" lon="10.7921187"><ele>96.0</ele><time>2026-04-26T11:10:01.093Z</time></trkpt><trkpt lat="45.8116879" lon="10.7921447"><ele>95.99999999999999</ele><time>2026-04-26T11:10:02.093Z</time></trkpt><trkpt lat="45.8117654" lon="10.7921705"><ele>96.0</ele><time>2026-04-26T11:10:03.093Z</time></trkpt><trkpt lat="45.8118491" lon="10.7921947"><ele>96.0</ele><time>2026-04-26T11:10:04.093Z</time></trkpt><trkpt lat="45.8119375" lon="10.7922222"><ele>96.0</ele><time>2026-04-26T11:10:05.093Z</time></trkpt><trkpt lat="45.8120299" lon="10.7922461"><ele>96.0</ele><time>2026-04-26T11:10:06.093Z</time></trkpt><trkpt lat="45.8121278" lon="10.7922646"><ele>96.0</ele><time>2026-04-26T11:10:07.093Z</time></trkpt><trkpt lat="45.8122261" lon="10.7922823"><ele>96.0</ele><time>2026-04-26T11:10:08.093Z</time></trkpt><trkpt lat="45.812325" lon="10.7922922"><ele>96.0</ele><time>2026-04-26T11:10:09.093Z</time></trkpt><trkpt lat="45.8124247" lon="10.7922976"><ele>96.0</ele><time>2026-04-26T11:10:10.093Z</time></trkpt><trkpt lat="45.812524" lon="10.7923024"><ele>96.0</ele><time>2026-04-26T11:10:11.093Z</time></trkpt><trkpt lat="45.8126238" lon="10.7922956"><ele>96.0</ele><time>2026-04-26T11:10:12.092Z</time></trkpt><trkpt lat="45.8127237" lon="10.7922812"><ele>96.0</ele><time>2026-04-26T11:10:13.093Z</time></trkpt><trkpt lat="45.8128264" lon="10.7922645"><ele>95.4</ele><time>2026-04-26T11:10:14.093Z</time></trkpt><trkpt lat="45.8129322" lon="10.7922433"><ele>94.8</ele><time>2026-04-26T11:10:15.093Z</time></trkpt><trkpt lat="45.8130342" lon="10.7922153"><ele>94.2</ele><time>2026-04-26T11:10:16.093Z</time></trkpt><trkpt lat="45.8131355" lon="10.7921831"><ele>93.60000000000001</ele><time>2026-04-26T11:10:17.093Z</time></trkpt><trkpt lat="45.8132342" lon="10.7921458"><ele>93.0</ele><time>2026-04-26T11:10:18.093Z</time></trkpt><trkpt lat="45.8133323" lon="10.7921055"><ele>93.0</ele><time>2026-04-26T11:10:19.093Z</time></trkpt><trkpt lat="45.8134266" lon="10.7920604"><ele>93.0</ele><time>2026-04-26T11:10:20.093Z</time></trkpt><trkpt lat="45.8135172" lon="10.792019"><ele>93.0</ele><time>2026-04-26T11:10:21.093Z</time></trkpt><trkpt lat="45.8136022" lon="10.7919754"><ele>93.0</ele><time>2026-04-26T11:10:22.093Z</time></trkpt><trkpt lat="45.8136823" lon="10.7919321"><ele>93.0</ele><time>2026-04-26T11:10:23.093Z</time></trkpt><trkpt lat="45.813759" lon="10.7918916"><ele>92.0</ele><time>2026-04-26T11:10:24.093Z</time></trkpt><trkpt lat="45.8138355" lon="10.7918528"><ele>91.0</ele><time>2026-04-26T11:10:25.093Z</time></trkpt><trkpt lat="45.8139113" lon="10.7918148"><ele>90.0</ele><time>2026-04-26T11:10:26.093Z</time></trkpt><trkpt lat="45.81399" lon="10.7917786"><ele>89.0</ele><time>2026-04-26T11:10:27.093Z</time></trkpt><trkpt lat="45.8140725" lon="10.7917323"><ele>88.0</ele><time>2026-04-26T11:10:28.093Z</time></trkpt><trkpt lat="45.8141567" lon="10.7916843"><ele>87.0</ele><time>2026-04-26T11:10:29.093Z</time></trkpt><trkpt lat="45.8142399" lon="10.7916379"><ele>89.16666666666667</ele><time>2026-04-26T11:10:30.093Z</time></trkpt><trkpt lat="45.814323" lon="10.7915984"><ele>91.33333333333334</ele><time>2026-04-26T11:10:31.093Z</time></trkpt><trkpt lat="45.8144041" lon="10.7915577"><ele>93.5</ele><time>2026-04-26T11:10:32.093Z</time></trkpt><trkpt lat="45.8144862" lon="10.7915141"><ele>95.66666666666667</ele><time>2026-04-26T11:10:33.093Z</time></trkpt><trkpt lat="45.8145715" lon="10.7914809"><ele>97.83333333333334</ele><time>2026-04-26T11:10:34.093Z</time></trkpt><trkpt lat="45.8146565" lon="10.7914542"><ele>100.0</ele><time>2026-04-26T11:10:35.093Z</time></trkpt><trkpt lat="45.814739" lon="10.7914344"><ele>100.00000000000001</ele><time>2026-04-26T11:10:36.093Z</time></trkpt><trkpt lat="45.8148175" lon="10.7914148"><ele>100.0</ele><time>2026-04-26T11:10:37.092Z</time></trkpt><trkpt lat="45.8148997" lon="10.7914031"><ele>100.0</ele><time>2026-04-26T11:10:38.093Z</time></trkpt><trkpt lat="45.8149834" lon="10.7913943"><ele>100.0</ele><time>2026-04-26T11:10:39.093Z</time></trkpt><trkpt lat="45.8150673" lon="10.7913915"><ele>100.00000000000001</ele><time>2026-04-26T11:10:40.093Z</time></trkpt><trkpt lat="45.8151486" lon="10.7913955"><ele>100.0</ele><time>2026-04-26T11:10:41.093Z</time></trkpt><trkpt lat="45.8152352" lon="10.7913954"><ele>103.83333333333334</ele><time>2026-04-26T11:10:42.093Z</time></trkpt><trkpt lat="45.8153181" lon="10.7913981"><ele>107.66666666666667</ele><time>2026-04-26T11:10:43.093Z</time></trkpt><trkpt lat="45.8154057" lon="10.7913999"><ele>111.5</ele><time>2026-04-26T11:10:44.093Z</time></trkpt><trkpt lat="45.8154912" lon="10.7914131"><ele>115.33333333333334</ele><time>2026-04-26T11:10:45.093Z</time></trkpt><trkpt lat="45.815572" lon="10.7914311"><ele>119.16666666666667</ele><time>2026-04-26T11:10:46.093Z</time></trkpt><trkpt lat="45.8156524" lon="10.7914536"><ele>123.0</ele><time>2026-04-26T11:10:47.092Z</time></trkpt><trkpt lat="45.8158813" lon="10.791581"><ele>123.0</ele><time>2026-04-26T11:10:50.093Z</time></trkpt><trkpt lat="45.8159533" lon="10.7916304"><ele>123.0</ele><time>2026-04-26T11:10:51.092Z</time></trkpt><trkpt lat="45.8160237" lon="10.7916852"><ele>123.0</ele><time>2026-04-26T11:10:52.093Z</time></trkpt><trkpt lat="45.8160914" lon="10.7917411"><ele>123.0</ele><time>2026-04-26T11:10:53.093Z</time></trkpt><trkpt lat="45.8161571" lon="10.7918007"><ele>123.0</ele><time>2026-04-26T11:10:54.093Z</time></trkpt><trkpt lat="45.8162129" lon="10.7918615"><ele>123.0</ele><time>2026-04-26T11:10:55.093Z</time></trkpt><trkpt lat="45.8164106" lon="10.7920737"><ele>125.2</ele><time>2026-04-26T11:10:56.093Z</time></trkpt><trkpt lat="45.8164796" lon="10.7921648"><ele>127.4</ele><time>2026-04-26T11:10:57.093Z</time></trkpt><trkpt lat="45.8165461" lon="10.7922606"><ele>129.60000000000002</ele><time>2026-04-26T11:10:58.093Z</time></trkpt><trkpt lat="45.8166029" lon="10.7923554"><ele>131.8</ele><time>2026-04-26T11:10:59.093Z</time></trkpt><trkpt lat="45.8166473" lon="10.7924481"><ele>134.0</ele><time>2026-04-26T11:11:00.093Z</time></trkpt><trkpt lat="45.816787" lon="10.7926534"><ele>138.0</ele><time>2026-04-26T11:11:01.093Z</time></trkpt><trkpt lat="45.8169865" lon="10.7929545"><ele>142.0</ele><time>2026-04-26T11:11:02.093Z</time></trkpt><trkpt lat="45.8170448" lon="10.7931292"><ele>146.0</ele><time>2026-04-26T11:11:03.093Z</time></trkpt><trkpt lat="45.8170786" lon="10.7932697"><ele>146.0</ele><time>2026-04-26T11:11:04.093Z</time></trkpt><trkpt lat="45.8171206" lon="10.7933891"><ele>146.0</ele><time>2026-04-26T11:11:05.093Z</time></trkpt><trkpt lat="45.8171566" lon="10.7935201"><ele>146.0</ele><time>2026-04-26T11:11:06.092Z</time></trkpt><trkpt lat="45.8171847" lon="10.7936155"><ele>146.0</ele><time>2026-04-26T11:11:07.092Z</time></trkpt><trkpt lat="45.8172237" lon="10.7937296"><ele>146.0</ele><time>2026-04-26T11:11:08.093Z</time></trkpt><trkpt lat="45.8172592" lon="10.7938451"><ele>146.0</ele><time>2026-04-26T11:11:09.093Z</time></trkpt><trkpt lat="45.8172972" lon="10.7939668"><ele>141.2</ele><time>2026-04-26T11:11:10.092Z</time></trkpt><trkpt lat="45.8173374" lon="10.7940786"><ele>136.39999999999998</ele><time>2026-04-26T11:11:11.092Z</time></trkpt><trkpt lat="45.817381" lon="10.7942033"><ele>131.6</ele><time>2026-04-26T11:11:12.093Z</time></trkpt><trkpt lat="45.817425" lon="10.7943307"><ele>126.8</ele><time>2026-04-26T11:11:13.093Z</time></trkpt><trkpt lat="45.8174775" lon="10.7944572"><ele>122.0</ele><time>2026-04-26T11:11:14.092Z</time></trkpt><trkpt lat="45.817539" lon="10.7945767"><ele>122.75</ele><time>2026-04-26T11:11:15.092Z</time></trkpt><trkpt lat="45.8176104" lon="10.7946959"><ele>123.5</ele><time>2026-04-26T11:11:16.093Z</time></trkpt><trkpt lat="45.8176823" lon="10.7948172"><ele>124.25</ele><time>2026-04-26T11:11:17.093Z</time></trkpt><trkpt lat="45.8177559" lon="10.7949459"><ele>125.0</ele><time>2026-04-26T11:11:18.093Z</time></trkpt><trkpt lat="45.8178347" lon="10.7950806"><ele>119.0</ele><time>2026-04-26T11:11:19.093Z</time></trkpt><trkpt lat="45.8179154" lon="10.7952205"><ele>113.0</ele><time>2026-04-26T11:11:20.093Z</time></trkpt><trkpt lat="45.8180025" lon="10.7953592"><ele>107.0</ele><time>2026-04-26T11:11:21.093Z</time></trkpt><trkpt lat="45.8180901" lon="10.7954892"><ele>101.0</ele><time>2026-04-26T11:11:22.092Z</time></trkpt><trkpt lat="45.8181758" lon="10.7956196"><ele>101.0</ele><time>2026-04-26T11:11:23.093Z</time></trkpt><trkpt lat="45.8182609" lon="10.795759"><ele>101.0</ele><time>2026-04-26T11:11:24.093Z</time></trkpt><trkpt lat="45.8183643" lon="10.7959019"><ele>101.0</ele><time>2026-04-26T11:11:25.093Z</time></trkpt><trkpt lat="45.8184926" lon="10.7960384"><ele>101.0</ele><time>2026-04-26T11:11:26.092Z</time></trkpt><trkpt lat="45.8186386" lon="10.7961644"><ele>105.66666666666666</ele><time>2026-04-26T11:11:27.093Z</time></trkpt><trkpt lat="45.8187855" lon="10.7962917"><ele>110.33333333333334</ele><time>2026-04-26T11:11:28.093Z</time></trkpt><trkpt lat="45.8189327" lon="10.7964194"><ele>115.0</ele><time>2026-04-26T11:11:29.093Z</time></trkpt><trkpt lat="45.8190674" lon="10.7965511"><ele>115.0</ele><time>2026-04-26T11:11:30.093Z</time></trkpt><trkpt lat="45.819193" lon="10.7967039"><ele>115.0</ele><time>2026-04-26T11:11:31.093Z</time></trkpt><trkpt lat="45.8193027" lon="10.7968796"><ele>115.0</ele><time>2026-04-26T11:11:32.093Z</time></trkpt><trkpt lat="45.8194035" lon="10.7970725"><ele>115.33333333333334</ele><time>2026-04-26T11:11:33.093Z</time></trkpt><trkpt lat="45.8195028" lon="10.7972745"><ele>115.66666666666666</ele><time>2026-04-26T11:11:34.093Z</time></trkpt><trkpt lat="45.819593" lon="10.7974797"><ele>116.0</ele><time>2026-04-26T11:11:35.093Z</time></trkpt><trkpt lat="45.8196991" lon="10.7976901"><ele>116.0</ele><time>2026-04-26T11:11:36.093Z</time></trkpt><trkpt lat="45.8198004" lon="10.7979083"><ele>116.0</ele><time>2026-04-26T11:11:37.093Z</time></trkpt><trkpt lat="45.8198983" lon="10.7981215"><ele>116.0</ele><time>2026-04-26T11:11:38.093Z</time></trkpt><trkpt lat="45.8199996" lon="10.7983278"><ele>126.0</ele><time>2026-04-26T11:11:39.093Z</time></trkpt><trkpt lat="45.820099" lon="10.7985347"><ele>136.0</ele><time>2026-04-26T11:11:40.093Z</time></trkpt><trkpt lat="45.8203965" lon="10.7991543"><ele>123.0</ele><time>2026-04-26T11:11:43.092Z</time></trkpt><trkpt lat="45.8204789" lon="10.7993352"><ele>110.0</ele><time>2026-04-26T11:11:44.092Z</time></trkpt><trkpt lat="45.8206206" lon="10.7995904"><ele>97.0</ele><time>2026-04-26T11:11:45.093Z</time></trkpt><trkpt lat="45.8207689" lon="10.7997427"><ele>97.0</ele><time>2026-04-26T11:11:46.093Z</time></trkpt><trkpt lat="45.8209348" lon="10.7998143"><ele>97.0</ele><time>2026-04-26T11:11:47.092Z</time></trkpt><trkpt lat="45.821075" lon="10.7999595"><ele>97.0</ele><time>2026-04-26T11:11:48.093Z</time></trkpt><trkpt lat="45.8212091" lon="10.8000981"><ele>102.33333333333334</ele><time>2026-04-26T11:11:49.093Z</time></trkpt><trkpt lat="45.8213221" lon="10.80027"><ele>107.66666666666666</ele><time>2026-04-26T11:11:50.093Z</time></trkpt><trkpt lat="45.8214203" lon="10.8004592"><ele>113.0</ele><time>2026-04-26T11:11:51.093Z</time></trkpt><trkpt lat="45.8215059" lon="10.8006674"><ele>113.0</ele><time>2026-04-26T11:11:52.092Z</time></trkpt><trkpt lat="45.8215818" lon="10.8008832"><ele>113.0</ele><time>2026-04-26T11:11:53.093Z</time></trkpt><trkpt lat="45.8216319" lon="10.8011196"><ele>113.0</ele><time>2026-04-26T11:11:54.093Z</time></trkpt><trkpt lat="45.8216641" lon="10.8013617"><ele>113.0</ele><time>2026-04-26T11:11:55.092Z</time></trkpt><trkpt lat="45.8216708" lon="10.8016116"><ele>113.0</ele><time>2026-04-26T11:11:56.093Z</time></trkpt><trkpt lat="45.8216562" lon="10.801851"><ele>113.0</ele><time>2026-04-26T11:11:57.093Z</time></trkpt><trkpt lat="45.8216425" lon="10.8020786"><ele>113.25</ele><time>2026-04-26T11:11:58.093Z</time></trkpt><trkpt lat="45.8216354" lon="10.8022943"><ele>113.5</ele><time>2026-04-26T11:11:59.092Z</time></trkpt><trkpt lat="45.8216415" lon="10.8024932"><ele>113.75</ele><time>2026-04-26T11:12:00.092Z</time></trkpt><trkpt lat="45.8216591" lon="10.8026887"><ele>114.0</ele><time>2026-04-26T11:12:01.092Z</time></trkpt><trkpt lat="45.8216882" lon="10.8028726"><ele>112.66666666666666</ele><time>2026-04-26T11:12:02.093Z</time></trkpt><trkpt lat="45.8217347" lon="10.8030665"><ele>111.33333333333333</ele><time>2026-04-26T11:12:03.092Z</time></trkpt><trkpt lat="45.8218008" lon="10.8032595"><ele>110.0</ele><time>2026-04-26T11:12:04.093Z</time></trkpt><trkpt lat="45.8218774" lon="10.8034606"><ele>116.75</ele><time>2026-04-26T11:12:05.093Z</time></trkpt><trkpt lat="45.8219517" lon="10.8036545"><ele>123.5</ele><time>2026-04-26T11:12:06.093Z</time></trkpt><trkpt lat="45.8220229" lon="10.8038382"><ele>130.25</ele><time>2026-04-26T11:12:07.093Z</time></trkpt><trkpt lat="45.8220912" lon="10.8040171"><ele>137.0</ele><time>2026-04-26T11:12:08.093Z</time></trkpt><trkpt lat="45.8221596" lon="10.8041972"><ele>132.75</ele><time>2026-04-26T11:12:09.093Z</time></trkpt><trkpt lat="45.8222325" lon="10.8043706"><ele>128.5</ele><time>2026-04-26T11:12:10.093Z</time></trkpt><trkpt lat="45.8223193" lon="10.8045346"><ele>124.25</ele><time>2026-04-26T11:12:11.093Z</time></trkpt><trkpt lat="45.8224107" lon="10.8046966"><ele>120.0</ele><time>2026-04-26T11:12:12.093Z</time></trkpt><trkpt lat="45.8225006" lon="10.8048575"><ele>120.0</ele><time>2026-04-26T11:12:13.093Z</time></trkpt><trkpt lat="45.8225953" lon="10.805024"><ele>120.0</ele><time>2026-04-26T11:12:14.093Z</time></trkpt><trkpt lat="45.8226387" lon="10.8052315"><ele>120.0</ele><time>2026-04-26T11:12:15.093Z</time></trkpt><trkpt lat="45.8227273" lon="10.8054758"><ele>136.66666666666666</ele><time>2026-04-26T11:12:16.093Z</time></trkpt><trkpt lat="45.8227911" lon="10.8056919"><ele>153.33333333333331</ele><time>2026-04-26T11:12:17.092Z</time></trkpt><trkpt lat="45.8228488" lon="10.8059134"><ele>170.0</ele><time>2026-04-26T11:12:18.093Z</time></trkpt><trkpt lat="45.8229045" lon="10.8061389"><ele>170.0</ele><time>2026-04-26T11:12:19.092Z</time></trkpt><trkpt lat="45.8229584" lon="10.8063648"><ele>170.0</ele><time>2026-04-26T11:12:20.093Z</time></trkpt><trkpt lat="45.823012" lon="10.8065904"><ele>170.0</ele><time>2026-04-26T11:12:21.093Z</time></trkpt><trkpt lat="45.8231963" lon="10.8075228"><ele>146.33333333333331</ele><time>2026-04-26T11:12:25.093Z</time></trkpt><trkpt lat="45.8232555" lon="10.807709"><ele>122.66666666666666</ele><time>2026-04-26T11:12:26.093Z</time></trkpt><trkpt lat="45.8233226" lon="10.8079321"><ele>99.0</ele><time>2026-04-26T11:12:27.093Z</time></trkpt><trkpt lat="45.8233943" lon="10.8081328"><ele>99.0</ele><time>2026-04-26T11:12:28.092Z</time></trkpt><trkpt lat="45.8234652" lon="10.8083298"><ele>99.0</ele><time>2026-04-26T11:12:29.093Z</time></trkpt><trkpt lat="45.8235954" lon="10.8085202"><ele>99.0</ele><time>2026-04-26T11:12:30.093Z</time></trkpt><trkpt lat="45.8237404" lon="10.8086147"><ele>107.33333333333334</ele><time>2026-04-26T11:12:31.093Z</time></trkpt><trkpt lat="45.8238717" lon="10.8087822"><ele>115.66666666666667</ele><time>2026-04-26T11:12:32.093Z</time></trkpt><trkpt lat="45.8239727" lon="10.8088998"><ele>124.0</ele><time>2026-04-26T11:12:33.092Z</time></trkpt><trkpt lat="45.8240673" lon="10.8090597"><ele>124.0</ele><time>2026-04-26T11:12:34.093Z</time></trkpt><trkpt lat="45.8241481" lon="10.8092149"><ele>124.0</ele><time>2026-04-26T11:12:35.093Z</time></trkpt><trkpt lat="45.8241987" lon="10.8093871"><ele>124.0</ele><time>2026-04-26T11:12:36.093Z</time></trkpt><trkpt lat="45.8242144" lon="10.8095571"><ele>124.0</ele><time>2026-04-26T11:12:37.093Z</time></trkpt><trkpt lat="45.8242159" lon="10.8097071"><ele>121.33333333333334</ele><time>2026-04-26T11:12:38.093Z</time></trkpt><trkpt lat="45.8242071" lon="10.8098342"><ele>118.66666666666667</ele><time>2026-04-26T11:12:39.093Z</time></trkpt><trkpt lat="45.8241962" lon="10.8099483"><ele>116.0</ele><time>2026-04-26T11:12:40.093Z</time></trkpt><trkpt lat="45.824187" lon="10.8100578"><ele>113.33333333333334</ele><time>2026-04-26T11:12:41.093Z</time></trkpt><trkpt lat="45.8241855" lon="10.8101681"><ele>110.66666666666667</ele><time>2026-04-26T11:12:42.092Z</time></trkpt><trkpt lat="45.8241856" lon="10.8102754"><ele>108.0</ele><time>2026-04-26T11:12:43.093Z</time></trkpt><trkpt lat="45.8241855" lon="10.8103854"><ele>107.80000000000001</ele><time>2026-04-26T11:12:44.092Z</time></trkpt><trkpt lat="45.8241924" lon="10.8105017"><ele>107.60000000000001</ele><time>2026-04-26T11:12:45.093Z</time></trkpt><trkpt lat="45.8242005" lon="10.8106242"><ele>107.39999999999999</ele><time>2026-04-26T11:12:46.093Z</time></trkpt><trkpt lat="45.8242212" lon="10.8107636"><ele>107.19999999999999</ele><time>2026-04-26T11:12:47.092Z</time></trkpt><trkpt lat="45.8242478" lon="10.8109125"><ele>107.0</ele><time>2026-04-26T11:12:48.093Z</time></trkpt><trkpt lat="45.8242785" lon="10.8110762"><ele>114.0</ele><time>2026-04-26T11:12:49.093Z</time></trkpt><trkpt lat="45.8243196" lon="10.811242"><ele>121.0</ele><time>2026-04-26T11:12:50.093Z</time></trkpt><trkpt lat="45.8243581" lon="10.8114221"><ele>128.0</ele><time>2026-04-26T11:12:51.093Z</time></trkpt><trkpt lat="45.8243991" lon="10.8116128"><ele>135.0</ele><time>2026-04-26T11:12:52.093Z</time></trkpt><trkpt lat="45.8244428" lon="10.8118028"><ele>133.5</ele><time>2026-04-26T11:12:53.093Z</time></trkpt><trkpt lat="45.8244908" lon="10.8119908"><ele>132.0</ele><time>2026-04-26T11:12:54.093Z</time></trkpt><trkpt lat="45.8245313" lon="10.8121646"><ele>130.5</ele><time>2026-04-26T11:12:55.093Z</time></trkpt><trkpt lat="45.8245696" lon="10.8123234"><ele>129.0</ele><time>2026-04-26T11:12:56.093Z</time></trkpt><trkpt lat="45.824601" lon="10.8124729"><ele>129.0</ele><time>2026-04-26T11:12:57.093Z</time></trkpt><trkpt lat="45.8246321" lon="10.8126185"><ele>129.0</ele><time>2026-04-26T11:12:58.093Z</time></trkpt><trkpt lat="45.8246705" lon="10.8127592"><ele>129.0</ele><time>2026-04-26T11:12:59.093Z</time></trkpt><trkpt lat="45.8247163" lon="10.8128939"><ele>129.0</ele><time>2026-04-26T11:13:00.093Z</time></trkpt><trkpt lat="45.8247693" lon="10.8130321"><ele>129.0</ele><time>2026-04-26T11:13:01.093Z</time></trkpt><trkpt lat="45.8248356" lon="10.8131731"><ele>128.75</ele><time>2026-04-26T11:13:02.093Z</time></trkpt><trkpt lat="45.8249183" lon="10.8133172"><ele>128.5</ele><time>2026-04-26T11:13:03.093Z</time></trkpt><trkpt lat="45.8250147" lon="10.813455"><ele>128.25</ele><time>2026-04-26T11:13:04.093Z</time></trkpt><trkpt lat="45.8251247" lon="10.8135881"><ele>128.0</ele><time>2026-04-26T11:13:05.093Z</time></trkpt><trkpt lat="45.8252366" lon="10.8137171"><ele>128.0</ele><time>2026-04-26T11:13:06.093Z</time></trkpt><trkpt lat="45.8253526" lon="10.813849"><ele>128.0</ele><time>2026-04-26T11:13:07.092Z</time></trkpt><trkpt lat="45.8254636" lon="10.813986"><ele>128.0</ele><time>2026-04-26T11:13:08.093Z</time></trkpt><trkpt lat="45.8255632" lon="10.8141288"><ele>128.0</ele><time>2026-04-26T11:13:09.093Z</time></trkpt><trkpt lat="45.8256518" lon="10.8142736"><ele>122.5</ele><time>2026-04-26T11:13:10.093Z</time></trkpt><trkpt lat="45.8257355" lon="10.8144208"><ele>117.0</ele><time>2026-04-26T11:13:11.093Z</time></trkpt><trkpt lat="45.8258059" lon="10.8145755"><ele>111.5</ele><time>2026-04-26T11:13:12.093Z</time></trkpt><trkpt lat="45.8258678" lon="10.8147351"><ele>106.0</ele><time>2026-04-26T11:13:13.093Z</time></trkpt><trkpt lat="45.8259304" lon="10.8148912"><ele>108.25</ele><time>2026-04-26T11:13:14.093Z</time></trkpt><trkpt lat="45.8259987" lon="10.8150416"><ele>110.5</ele><time>2026-04-26T11:13:15.093Z</time></trkpt><trkpt lat="45.8260692" lon="10.8151831"><ele>112.75</ele><time>2026-04-26T11:13:16.093Z</time></trkpt><trkpt lat="45.8261494" lon="10.8153208"><ele>115.0</ele><time>2026-04-26T11:13:17.093Z</time></trkpt><trkpt lat="45.8262441" lon="10.8154488"><ele>115.0</ele><time>2026-04-26T11:13:18.093Z</time></trkpt><trkpt lat="45.8263507" lon="10.8155675"><ele>115.0</ele><time>2026-04-26T11:13:19.092Z</time></trkpt><trkpt lat="45.8264634" lon="10.8156741"><ele>115.0</ele><time>2026-04-26T11:13:20.093Z</time></trkpt><trkpt lat="45.8265827" lon="10.8157775"><ele>115.0</ele><time>2026-04-26T11:13:21.093Z</time></trkpt><trkpt lat="45.8267046" lon="10.8158816"><ele>118.5</ele><time>2026-04-26T11:13:22.093Z</time></trkpt><trkpt lat="45.8268278" lon="10.8159908"><ele>122.0</ele><time>2026-04-26T11:13:23.093Z</time></trkpt><trkpt lat="45.8269527" lon="10.8161044"><ele>125.5</ele><time>2026-04-26T11:13:24.093Z</time></trkpt><trkpt lat="45.827071" lon="10.8162325"><ele>129.0</ele><time>2026-04-26T11:13:25.093Z</time></trkpt><trkpt lat="45.8271867" lon="10.8163763"><ele>129.0</ele><time>2026-04-26T11:13:26.093Z</time></trkpt><trkpt lat="45.8272962" lon="10.8165326"><ele>129.0</ele><time>2026-04-26T11:13:27.092Z</time></trkpt><trkpt lat="45.8273931" lon="10.8167066"><ele>129.0</ele><time>2026-04-26T11:13:28.093Z</time></trkpt><trkpt lat="45.827483" lon="10.8168911"><ele>122.33333333333334</ele><time>2026-04-26T11:13:29.093Z</time></trkpt><trkpt lat="45.8275623" lon="10.8170813"><ele>115.66666666666667</ele><time>2026-04-26T11:13:30.093Z</time></trkpt><trkpt lat="45.8276272" lon="10.81728"><ele>109.0</ele><time>2026-04-26T11:13:31.093Z</time></trkpt><trkpt lat="45.8276763" lon="10.8174845"><ele>117.25</ele><time>2026-04-26T11:13:32.093Z</time></trkpt><trkpt lat="45.8277041" lon="10.8176992"><ele>125.5</ele><time>2026-04-26T11:13:33.092Z</time></trkpt><trkpt lat="45.8277175" lon="10.8179068"><ele>133.75</ele><time>2026-04-26T11:13:34.093Z</time></trkpt><trkpt lat="45.8277206" lon="10.8181095"><ele>142.0</ele><time>2026-04-26T11:13:35.092Z</time></trkpt><trkpt lat="45.8277167" lon="10.8183081"><ele>140.5</ele><time>2026-04-26T11:13:36.093Z</time></trkpt><trkpt lat="45.8277107" lon="10.8184945"><ele>139.0</ele><time>2026-04-26T11:13:37.092Z</time></trkpt><trkpt lat="45.8277079" lon="10.8186814"><ele>137.5</ele><time>2026-04-26T11:13:38.092Z</time></trkpt><trkpt lat="45.8277043" lon="10.8188614"><ele>136.0</ele><time>2026-04-26T11:13:39.092Z</time></trkpt><trkpt lat="45.8277031" lon="10.8190385"><ele>136.0</ele><time>2026-04-26T11:13:40.093Z</time></trkpt><trkpt lat="45.8277067" lon="10.819206"><ele>136.0</ele><time>2026-04-26T11:13:41.093Z</time></trkpt><trkpt lat="45.8277202" lon="10.819366"><ele>136.0</ele><time>2026-04-26T11:13:42.093Z</time></trkpt><trkpt lat="45.8277355" lon="10.8195291"><ele>136.0</ele><time>2026-04-26T11:13:43.093Z</time></trkpt><trkpt lat="45.8277625" lon="10.8196968"><ele>133.25</ele><time>2026-04-26T11:13:44.093Z</time></trkpt><trkpt lat="45.8278009" lon="10.819862"><ele>130.5</ele><time>2026-04-26T11:13:45.093Z</time></trkpt><trkpt lat="45.8278506" lon="10.820033"><ele>127.75</ele><time>2026-04-26T11:13:46.093Z</time></trkpt><trkpt lat="45.8279094" lon="10.8202008"><ele>125.0</ele><time>2026-04-26T11:13:47.093Z</time></trkpt><trkpt lat="45.8279746" lon="10.8203599"><ele>119.0</ele><time>2026-04-26T11:13:48.093Z</time></trkpt><trkpt lat="45.8280455" lon="10.8205127"><ele>113.0</ele><time>2026-04-26T11:13:49.093Z</time></trkpt><trkpt lat="45.8281257" lon="10.8206623"><ele>107.0</ele><time>2026-04-26T11:13:50.092Z</time></trkpt><trkpt lat="45.8282164" lon="10.8208049"><ele>101.0</ele><time>2026-04-26T11:13:51.093Z</time></trkpt><trkpt lat="45.8283199" lon="10.8209437"><ele>103.75</ele><time>2026-04-26T11:13:52.093Z</time></trkpt><trkpt lat="45.8284287" lon="10.8210747"><ele>106.5</ele><time>2026-04-26T11:13:53.093Z</time></trkpt><trkpt lat="45.8285456" lon="10.8211921"><ele>109.25</ele><time>2026-04-26T11:13:54.093Z</time></trkpt><trkpt lat="45.8286622" lon="10.8213172"><ele>112.0</ele><time>2026-04-26T11:13:55.093Z</time></trkpt><trkpt lat="45.8287691" lon="10.8214428"><ele>112.0</ele><time>2026-04-26T11:13:56.093Z</time></trkpt><trkpt lat="45.8288701" lon="10.8215691"><ele>112.0</ele><time>2026-04-26T11:13:57.093Z</time></trkpt><trkpt lat="45.8289622" lon="10.8216982"><ele>112.0</ele><time>2026-04-26T11:13:58.093Z</time></trkpt><trkpt lat="45.8290515" lon="10.8218263"><ele>112.0</ele><time>2026-04-26T11:13:59.093Z</time></trkpt><trkpt lat="45.8291434" lon="10.8219559"><ele>110.75</ele><time>2026-04-26T11:14:00.092Z</time></trkpt><trkpt lat="45.8292334" lon="10.8220811"><ele>109.5</ele><time>2026-04-26T11:14:01.093Z</time></trkpt><trkpt lat="45.8293302" lon="10.8221907"><ele>108.25</ele><time>2026-04-26T11:14:02.093Z</time></trkpt><trkpt lat="45.8294287" lon="10.8222991"><ele>107.0</ele><time>2026-04-26T11:14:03.092Z</time></trkpt><trkpt lat="45.8295745" lon="10.8223791"><ele>107.0</ele><time>2026-04-26T11:14:04.093Z</time></trkpt><trkpt lat="45.8296375" lon="10.8224381"><ele>106.99999999999999</ele><time>2026-04-26T11:14:05.093Z</time></trkpt><trkpt lat="45.8297502" lon="10.8224937"><ele>106.99999999999999</ele><time>2026-04-26T11:14:06.093Z</time></trkpt><trkpt lat="45.82987" lon="10.822551"><ele>107.0</ele><time>2026-04-26T11:14:07.093Z</time></trkpt><trkpt lat="45.8299913" lon="10.822606"><ele>107.0</ele><time>2026-04-26T11:14:08.093Z</time></trkpt><trkpt lat="45.8301132" lon="10.8226777"><ele>102.5</ele><time>2026-04-26T11:14:09.093Z</time></trkpt><trkpt lat="45.8302411" lon="10.8227467"><ele>98.0</ele><time>2026-04-26T11:14:10.093Z</time></trkpt><trkpt lat="45.8303667" lon="10.8228045"><ele>93.5</ele><time>2026-04-26T11:14:11.093Z</time></trkpt><trkpt lat="45.8304952" lon="10.822878"><ele>89.0</ele><time>2026-04-26T11:14:12.093Z</time></trkpt><trkpt lat="45.8306237" lon="10.8229472"><ele>89.0</ele><time>2026-04-26T11:14:13.092Z</time></trkpt><trkpt lat="45.8307572" lon="10.8230154"><ele>89.0</ele><time>2026-04-26T11:14:14.093Z</time></trkpt><trkpt lat="45.830887" lon="10.8230907"><ele>89.0</ele><time>2026-04-26T11:14:15.093Z</time></trkpt><trkpt lat="45.8310152" lon="10.8231836"><ele>89.0</ele><time>2026-04-26T11:14:16.093Z</time></trkpt><trkpt lat="45.8311347" lon="10.8232949"><ele>89.25</ele><time>2026-04-26T11:14:17.093Z</time></trkpt><trkpt lat="45.8312471" lon="10.8234258"><ele>89.5</ele><time>2026-04-26T11:14:18.093Z</time></trkpt><trkpt lat="45.8313542" lon="10.8235704"><ele>89.75</ele><time>2026-04-26T11:14:19.092Z</time></trkpt><trkpt lat="45.8314563" lon="10.8237245"><ele>90.0</ele><time>2026-04-26T11:14:20.092Z</time></trkpt><trkpt lat="45.8315558" lon="10.8238683"><ele>90.0</ele><time>2026-04-26T11:14:21.092Z</time></trkpt><trkpt lat="45.8316506" lon="10.8240081"><ele>90.0</ele><time>2026-04-26T11:14:22.093Z</time></trkpt><trkpt lat="45.8317388" lon="10.8241466"><ele>90.0</ele><time>2026-04-26T11:14:23.093Z</time></trkpt><trkpt lat="45.8318275" lon="10.8242801"><ele>90.0</ele><time>2026-04-26T11:14:24.092Z</time></trkpt><trkpt lat="45.831915" lon="10.8244083"><ele>89.75</ele><time>2026-04-26T11:14:25.093Z</time></trkpt><trkpt lat="45.832002" lon="10.8245292"><ele>89.5</ele><time>2026-04-26T11:14:26.093Z</time></trkpt><trkpt lat="45.8320998" lon="10.824639"><ele>89.25</ele><time>2026-04-26T11:14:27.093Z</time></trkpt><trkpt lat="45.8322059" lon="10.8247326"><ele>89.0</ele><time>2026-04-26T11:14:28.093Z</time></trkpt><trkpt lat="45.8323231" lon="10.8248112"><ele>89.0</ele><time>2026-04-26T11:14:29.092Z</time></trkpt><trkpt lat="45.832448" lon="10.8248888"><ele>89.0</ele><time>2026-04-26T11:14:30.093Z</time></trkpt><trkpt lat="45.8325734" lon="10.8249678"><ele>89.0</ele><time>2026-04-26T11:14:31.093Z</time></trkpt><trkpt lat="45.8326998" lon="10.8250164"><ele>89.0</ele><time>2026-04-26T11:14:32.093Z</time></trkpt><trkpt lat="45.8328239" lon="10.825105"><ele>83.0</ele><time>2026-04-26T11:14:33.093Z</time></trkpt><trkpt lat="45.8329288" lon="10.8251664"><ele>77.0</ele><time>2026-04-26T11:14:34.093Z</time></trkpt><trkpt lat="45.8330493" lon="10.8252354"><ele>71.0</ele><time>2026-04-26T11:14:35.093Z</time></trkpt><trkpt lat="45.8331555" lon="10.8252592"><ele>65.0</ele><time>2026-04-26T11:14:36.093Z</time></trkpt><trkpt lat="45.8332699" lon="10.8252992"><ele>65.0</ele><time>2026-04-26T11:14:37.093Z</time></trkpt><trkpt lat="45.8333852" lon="10.8253353"><ele>65.0</ele><time>2026-04-26T11:14:38.093Z</time></trkpt><trkpt lat="45.8335009" lon="10.8253754"><ele>65.0</ele><time>2026-04-26T11:14:39.093Z</time></trkpt><trkpt lat="45.8336136" lon="10.8254088"><ele>65.0</ele><time>2026-04-26T11:14:40.092Z</time></trkpt><trkpt lat="45.8337221" lon="10.8254422"><ele>64.4</ele><time>2026-04-26T11:14:41.092Z</time></trkpt><trkpt lat="45.833827" lon="10.825467"><ele>63.8</ele><time>2026-04-26T11:14:42.093Z</time></trkpt><trkpt lat="45.8339336" lon="10.8254753"><ele>63.2</ele><time>2026-04-26T11:14:43.093Z</time></trkpt><trkpt lat="45.8340384" lon="10.8254799"><ele>62.6</ele><time>2026-04-26T11:14:44.093Z</time></trkpt><trkpt lat="45.8341411" lon="10.8254766"><ele>62.0</ele><time>2026-04-26T11:14:45.092Z</time></trkpt><trkpt lat="45.8342469" lon="10.825463"><ele>62.0</ele><time>2026-04-26T11:14:46.093Z</time></trkpt><trkpt lat="45.8343515" lon="10.8254435"><ele>62.0</ele><time>2026-04-26T11:14:47.093Z</time></trkpt><trkpt lat="45.8344618" lon="10.8254308"><ele>62.0</ele><time>2026-04-26T11:14:48.093Z</time></trkpt><trkpt lat="45.834554" lon="10.8254049"><ele>62.0</ele><time>2026-04-26T11:14:49.093Z</time></trkpt><trkpt lat="45.8346854" lon="10.8254134"><ele>62.0</ele><time>2026-04-26T11:14:50.092Z</time></trkpt><trkpt lat="45.8347938" lon="10.8253997"><ele>62.0</ele><time>2026-04-26T11:14:51.092Z</time></trkpt><trkpt lat="45.8349018" lon="10.8253838"><ele>62.0</ele><time>2026-04-26T11:14:52.093Z</time></trkpt><trkpt lat="45.8360682" lon="10.8251971"><ele>62.0</ele><time>2026-04-26T11:15:03.092Z</time></trkpt><trkpt lat="45.8361858" lon="10.8251903"><ele>62.0</ele><time>2026-04-26T11:15:04.093Z</time></trkpt><trkpt lat="45.8363029" lon="10.8251893"><ele>62.0</ele><time>2026-04-26T11:15:05.093Z</time></trkpt><trkpt lat="45.8376734" lon="10.8256172"><ele>62.0</ele><time>2026-04-26T11:15:15.093Z</time></trkpt><trkpt lat="45.8377801" lon="10.8256419"><ele>62.0</ele><time>2026-04-26T11:15:16.093Z</time></trkpt><trkpt lat="45.8378908" lon="10.825675"><ele>62.0</ele><time>2026-04-26T11:15:17.093Z</time></trkpt><trkpt lat="45.8380074" lon="10.8257098"><ele>62.0</ele><time>2026-04-26T11:15:18.093Z</time></trkpt><trkpt lat="45.8381282" lon="10.8257412"><ele>62.0</ele><time>2026-04-26T11:15:19.093Z</time></trkpt><trkpt lat="45.8382464" lon="10.8257704"><ele>62.0</ele><time>2026-04-26T11:15:20.093Z</time></trkpt><trkpt lat="45.8383654" lon="10.8258031"><ele>62.0</ele><time>2026-04-26T11:15:21.093Z</time></trkpt><trkpt lat="45.8384955" lon="10.8258382"><ele>62.0</ele><time>2026-04-26T11:15:22.092Z</time></trkpt><trkpt lat="45.8386264" lon="10.8258586"><ele>70.25</ele><time>2026-04-26T11:15:23.093Z</time></trkpt><trkpt lat="45.8387522" lon="10.8258752"><ele>78.5</ele><time>2026-04-26T11:15:24.093Z</time></trkpt><trkpt lat="45.8388755" lon="10.8258958"><ele>86.75</ele><time>2026-04-26T11:15:25.093Z</time></trkpt><trkpt lat="45.8389964" lon="10.8259302"><ele>95.0</ele><time>2026-04-26T11:15:26.092Z</time></trkpt><trkpt lat="45.8391209" lon="10.825952"><ele>84.0</ele><time>2026-04-26T11:15:27.093Z</time></trkpt><trkpt lat="45.8392888" lon="10.8259803"><ele>73.0</ele><time>2026-04-26T11:15:28.093Z</time></trkpt><trkpt lat="45.839451" lon="10.8259928"><ele>62.0</ele><time>2026-04-26T11:15:29.093Z</time></trkpt><trkpt lat="45.8396014" lon="10.826005"><ele>62.0</ele><time>2026-04-26T11:15:30.093Z</time></trkpt><trkpt lat="45.8397479" lon="10.8260018"><ele>62.0</ele><time>2026-04-26T11:15:31.093Z</time></trkpt><trkpt lat="45.8398946" lon="10.8259852"><ele>62.0</ele><time>2026-04-26T11:15:32.093Z</time></trkpt><trkpt lat="45.8400407" lon="10.8259636"><ele>62.0</ele><time>2026-04-26T11:15:33.093Z</time></trkpt><trkpt lat="45.8401872" lon="10.8259286"><ele>67.25</ele><time>2026-04-26T11:15:34.093Z</time></trkpt><trkpt lat="45.8403325" lon="10.8258799"><ele>72.5</ele><time>2026-04-26T11:15:35.093Z</time></trkpt><trkpt lat="45.8404707" lon="10.8258359"><ele>77.75</ele><time>2026-04-26T11:15:36.093Z</time></trkpt><trkpt lat="45.840603" lon="10.8257941"><ele>83.0</ele><time>2026-04-26T11:15:37.092Z</time></trkpt><trkpt lat="45.8407283" lon="10.8257596"><ele>83.0</ele><time>2026-04-26T11:15:38.092Z</time></trkpt><trkpt lat="45.8408494" lon="10.8257408"><ele>83.0</ele><time>2026-04-26T11:15:39.092Z</time></trkpt><trkpt lat="45.8409656" lon="10.8257477"><ele>83.0</ele><time>2026-04-26T11:15:40.093Z</time></trkpt><trkpt lat="45.8410815" lon="10.8257556"><ele>83.0</ele><time>2026-04-26T11:15:41.093Z</time></trkpt><trkpt lat="45.8411818" lon="10.8257874"><ele>85.25</ele><time>2026-04-26T11:15:42.093Z</time></trkpt><trkpt lat="45.8413063" lon="10.8258161"><ele>87.5</ele><time>2026-04-26T11:15:43.093Z</time></trkpt><trkpt lat="45.8414339" lon="10.8258366"><ele>89.75</ele><time>2026-04-26T11:15:44.093Z</time></trkpt><trkpt lat="45.8415494" lon="10.8258723"><ele>92.0</ele><time>2026-04-26T11:15:45.093Z</time></trkpt><trkpt lat="45.8416759" lon="10.8259049"><ele>95.0</ele><time>2026-04-26T11:15:46.092Z</time></trkpt><trkpt lat="45.8418024" lon="10.8259603"><ele>98.0</ele><time>2026-04-26T11:15:47.092Z</time></trkpt><trkpt lat="45.8419232" lon="10.8260343"><ele>101.0</ele><time>2026-04-26T11:15:48.093Z</time></trkpt><trkpt lat="45.8420417" lon="10.8261235"><ele>104.0</ele><time>2026-04-26T11:15:49.093Z</time></trkpt><trkpt lat="45.8421595" lon="10.8262194"><ele>101.25</ele><time>2026-04-26T11:15:50.092Z</time></trkpt><trkpt lat="45.8422793" lon="10.8263093"><ele>98.5</ele><time>2026-04-26T11:15:51.093Z</time></trkpt><trkpt lat="45.8424093" lon="10.8263721"><ele>95.75</ele><time>2026-04-26T11:15:52.093Z</time></trkpt><trkpt lat="45.8425495" lon="10.8264229"><ele>93.0</ele><time>2026-04-26T11:15:53.093Z</time></trkpt><trkpt lat="45.84269" lon="10.8264625"><ele>93.0</ele><time>2026-04-26T11:15:54.093Z</time></trkpt><trkpt lat="45.8428232" lon="10.8265064"><ele>93.0</ele><time>2026-04-26T11:15:55.093Z</time></trkpt><trkpt lat="45.842952" lon="10.8265615"><ele>93.0</ele><time>2026-04-26T11:15:56.093Z</time></trkpt><trkpt lat="45.8430813" lon="10.82664"><ele>93.0</ele><time>2026-04-26T11:15:57.093Z</time></trkpt><trkpt lat="45.8432119" lon="10.8267096"><ele>93.0</ele><time>2026-04-26T11:15:58.093Z</time></trkpt><trkpt lat="45.8433341" lon="10.8267827"><ele>93.0</ele><time>2026-04-26T11:15:59.093Z</time></trkpt><trkpt lat="45.843449" lon="10.8268512"><ele>93.0</ele><time>2026-04-26T11:16:00.093Z</time></trkpt><trkpt lat="45.8435577" lon="10.826927"><ele>93.0</ele><time>2026-04-26T11:16:01.092Z</time></trkpt><trkpt lat="45.843659" lon="10.8270158"><ele>91.0</ele><time>2026-04-26T11:16:02.093Z</time></trkpt><trkpt lat="45.8437556" lon="10.8271121"><ele>89.0</ele><time>2026-04-26T11:16:03.093Z</time></trkpt><trkpt lat="45.8438468" lon="10.8272241"><ele>87.0</ele><time>2026-04-26T11:16:04.093Z</time></trkpt><trkpt lat="45.8439396" lon="10.8273437"><ele>85.0</ele><time>2026-04-26T11:16:05.093Z</time></trkpt><trkpt lat="45.844028" lon="10.827467"><ele>85.0</ele><time>2026-04-26T11:16:06.093Z</time></trkpt><trkpt lat="45.8441048" lon="10.8275861"><ele>85.0</ele><time>2026-04-26T11:16:07.093Z</time></trkpt><trkpt lat="45.8441824" lon="10.8277003"><ele>85.0</ele><time>2026-04-26T11:16:08.093Z</time></trkpt><trkpt lat="45.8442614" lon="10.827813"><ele>85.0</ele><time>2026-04-26T11:16:09.092Z</time></trkpt><trkpt lat="45.8443327" lon="10.827919"><ele>85.0</ele><time>2026-04-26T11:16:10.093Z</time></trkpt><trkpt lat="45.8444109" lon="10.8280174"><ele>84.8</ele><time>2026-04-26T11:16:11.093Z</time></trkpt><trkpt lat="45.8444934" lon="10.8281109"><ele>84.6</ele><time>2026-04-26T11:16:12.093Z</time></trkpt><trkpt lat="45.8445797" lon="10.8282021"><ele>84.4</ele><time>2026-04-26T11:16:13.093Z</time></trkpt><trkpt lat="45.8446718" lon="10.8282837"><ele>84.2</ele><time>2026-04-26T11:16:14.093Z</time></trkpt><trkpt lat="45.8447677" lon="10.8283708"><ele>84.0</ele><time>2026-04-26T11:16:15.092Z</time></trkpt><trkpt lat="45.8448703" lon="10.8284508"><ele>81.2</ele><time>2026-04-26T11:16:16.093Z</time></trkpt><trkpt lat="45.8449734" lon="10.8285372"><ele>78.4</ele><time>2026-04-26T11:16:17.093Z</time></trkpt><trkpt lat="45.8450697" lon="10.8286213"><ele>75.6</ele><time>2026-04-26T11:16:18.093Z</time></trkpt><trkpt lat="45.8451603" lon="10.8287027"><ele>72.8</ele><time>2026-04-26T11:16:19.093Z</time></trkpt><trkpt lat="45.8452439" lon="10.8287888"><ele>70.0</ele><time>2026-04-26T11:16:20.092Z</time></trkpt><trkpt lat="45.8453217" lon="10.8288826"><ele>71.75</ele><time>2026-04-26T11:16:21.093Z</time></trkpt><trkpt lat="45.8453973" lon="10.8289962"><ele>73.5</ele><time>2026-04-26T11:16:22.093Z</time></trkpt><trkpt lat="45.8454761" lon="10.8291144"><ele>75.25</ele><time>2026-04-26T11:16:23.093Z</time></trkpt><trkpt lat="45.8455519" lon="10.8292416"><ele>77.0</ele><time>2026-04-26T11:16:24.092Z</time></trkpt><trkpt lat="45.8456251" lon="10.8293772"><ele>77.0</ele><time>2026-04-26T11:16:25.093Z</time></trkpt><trkpt lat="45.8456956" lon="10.8295197"><ele>77.0</ele><time>2026-04-26T11:16:26.093Z</time></trkpt><trkpt lat="45.8457739" lon="10.829658"><ele>77.0</ele><time>2026-04-26T11:16:27.093Z</time></trkpt><trkpt lat="45.8458548" lon="10.829785"><ele>77.0</ele><time>2026-04-26T11:16:28.093Z</time></trkpt><trkpt lat="45.845941" lon="10.8299088"><ele>74.0</ele><time>2026-04-26T11:16:29.093Z</time></trkpt><trkpt lat="45.8460582" lon="10.8300209"><ele>71.0</ele><time>2026-04-26T11:16:30.093Z</time></trkpt><trkpt lat="45.8461779" lon="10.8301098"><ele>68.0</ele><time>2026-04-26T11:16:31.092Z</time></trkpt><trkpt lat="45.8463037" lon="10.8301744"><ele>65.0</ele><time>2026-04-26T11:16:32.093Z</time></trkpt><trkpt lat="45.8464344" lon="10.830223"><ele>65.0</ele><time>2026-04-26T11:16:33.093Z</time></trkpt><trkpt lat="45.8465632" lon="10.830267"><ele>65.0</ele><time>2026-04-26T11:16:34.093Z</time></trkpt><trkpt lat="45.8466866" lon="10.8303074"><ele>65.0</ele><time>2026-04-26T11:16:35.092Z</time></trkpt><trkpt lat="45.8468034" lon="10.8303474"><ele>65.0</ele><time>2026-04-26T11:16:36.093Z</time></trkpt><trkpt lat="45.8469126" lon="10.8303821"><ele>65.25</ele><time>2026-04-26T11:16:37.093Z</time></trkpt><trkpt lat="45.847024" lon="10.8304032"><ele>65.5</ele><time>2026-04-26T11:16:38.093Z</time></trkpt><trkpt lat="45.8471343" lon="10.8304246"><ele>65.75</ele><time>2026-04-26T11:16:39.092Z</time></trkpt><trkpt lat="45.8472471" lon="10.830441"><ele>66.0</ele><time>2026-04-26T11:16:40.093Z</time></trkpt><trkpt lat="45.8473624" lon="10.8304574"><ele>66.0</ele><time>2026-04-26T11:16:41.093Z</time></trkpt><trkpt lat="45.8474798" lon="10.8304715"><ele>66.0</ele><time>2026-04-26T11:16:42.093Z</time></trkpt><trkpt lat="45.8475973" lon="10.8304821"><ele>66.0</ele><time>2026-04-26T11:16:43.093Z</time></trkpt><trkpt lat="45.8477078" lon="10.8304953"><ele>66.0</ele><time>2026-04-26T11:16:44.092Z</time></trkpt><trkpt lat="45.8478192" lon="10.8305045"><ele>67.6</ele><time>2026-04-26T11:16:45.093Z</time></trkpt><trkpt lat="45.8479294" lon="10.8305169"><ele>69.19999999999999</ele><time>2026-04-26T11:16:46.093Z</time></trkpt><trkpt lat="45.8480369" lon="10.8305375"><ele>70.80000000000001</ele><time>2026-04-26T11:16:47.093Z</time></trkpt><trkpt lat="45.8481478" lon="10.8305653"><ele>72.4</ele><time>2026-04-26T11:16:48.092Z</time></trkpt><trkpt lat="45.8482544" lon="10.8306038"><ele>74.0</ele><time>2026-04-26T11:16:49.092Z</time></trkpt><trkpt lat="45.8483615" lon="10.830656"><ele>79.75</ele><time>2026-04-26T11:16:50.093Z</time></trkpt><trkpt lat="45.8484728" lon="10.8307061"><ele>85.5</ele><time>2026-04-26T11:16:51.093Z</time></trkpt><trkpt lat="45.8485837" lon="10.8307534"><ele>91.25</ele><time>2026-04-26T11:16:52.093Z</time></trkpt><trkpt lat="45.8487022" lon="10.8308052"><ele>97.0</ele><time>2026-04-26T11:16:53.093Z</time></trkpt><trkpt lat="45.8488238" lon="10.8308683"><ele>97.0</ele><time>2026-04-26T11:16:54.093Z</time></trkpt><trkpt lat="45.8489487" lon="10.8309235"><ele>97.0</ele><time>2026-04-26T11:16:55.093Z</time></trkpt><trkpt lat="45.8490633" lon="10.8309761"><ele>97.0</ele><time>2026-04-26T11:16:56.093Z</time></trkpt><trkpt lat="45.8491744" lon="10.8310313"><ele>97.0</ele><time>2026-04-26T11:16:57.093Z</time></trkpt><trkpt lat="45.8492782" lon="10.83109"><ele>91.25</ele><time>2026-04-26T11:16:58.092Z</time></trkpt><trkpt lat="45.8493957" lon="10.8311533"><ele>85.5</ele><time>2026-04-26T11:16:59.093Z</time></trkpt><trkpt lat="45.8495097" lon="10.8312227"><ele>79.75</ele><time>2026-04-26T11:17:00.093Z</time></trkpt><trkpt lat="45.8496228" lon="10.8313031"><ele>74.0</ele><time>2026-04-26T11:17:01.093Z</time></trkpt><trkpt lat="45.8497422" lon="10.8313865"><ele>74.0</ele><time>2026-04-26T11:17:02.093Z</time></trkpt><trkpt lat="45.8498686" lon="10.8314844"><ele>74.0</ele><time>2026-04-26T11:17:03.093Z</time></trkpt><trkpt lat="45.8499991" lon="10.8315669"><ele>74.0</ele><time>2026-04-26T11:17:04.093Z</time></trkpt><trkpt lat="45.850122" lon="10.8316522"><ele>74.0</ele><time>2026-04-26T11:17:05.093Z</time></trkpt><trkpt lat="45.8502478" lon="10.8317243"><ele>74.5</ele><time>2026-04-26T11:17:06.093Z</time></trkpt><trkpt lat="45.8503781" lon="10.8317659"><ele>75.0</ele><time>2026-04-26T11:17:07.093Z</time></trkpt><trkpt lat="45.8505102" lon="10.8318134"><ele>75.5</ele><time>2026-04-26T11:17:08.093Z</time></trkpt><trkpt lat="45.850637" lon="10.8318489"><ele>76.0</ele><time>2026-04-26T11:17:09.092Z</time></trkpt><trkpt lat="45.8507861" lon="10.8319013"><ele>76.0</ele><time>2026-04-26T11:17:10.093Z</time></trkpt><trkpt lat="45.8509244" lon="10.8319795"><ele>76.0</ele><time>2026-04-26T11:17:11.093Z</time></trkpt><trkpt lat="45.8510766" lon="10.83202"><ele>76.0</ele><time>2026-04-26T11:17:12.093Z</time></trkpt><trkpt lat="45.8512243" lon="10.8320707"><ele>77.25</ele><time>2026-04-26T11:17:13.093Z</time></trkpt><trkpt lat="45.851372" lon="10.8321091"><ele>78.5</ele><time>2026-04-26T11:17:14.093Z</time></trkpt><trkpt lat="45.8515164" lon="10.8321561"><ele>79.75</ele><time>2026-04-26T11:17:15.093Z</time></trkpt><trkpt lat="45.8516531" lon="10.8321956"><ele>81.0</ele><time>2026-04-26T11:17:16.093Z</time></trkpt><trkpt lat="45.8517779" lon="10.8322418"><ele>86.0</ele><time>2026-04-26T11:17:17.092Z</time></trkpt><trkpt lat="45.8518946" lon="10.8322855"><ele>91.0</ele><time>2026-04-26T11:17:18.093Z</time></trkpt><trkpt lat="45.8520162" lon="10.8323439"><ele>96.0</ele><time>2026-04-26T11:17:19.093Z</time></trkpt><trkpt lat="45.8521315" lon="10.8324313"><ele>101.0</ele><time>2026-04-26T11:17:20.093Z</time></trkpt><trkpt lat="45.8522449" lon="10.832501"><ele>101.0</ele><time>2026-04-26T11:17:21.092Z</time></trkpt><trkpt lat="45.852357" lon="10.8325764"><ele>101.0</ele><time>2026-04-26T11:17:22.093Z</time></trkpt><trkpt lat="45.8533632" lon="10.8332708"><ele>101.33333333333333</ele><time>2026-04-26T11:17:29.093Z</time></trkpt><trkpt lat="45.8535059" lon="10.8333705"><ele>101.66666666666666</ele><time>2026-04-26T11:17:30.093Z</time></trkpt><trkpt lat="45.8536543" lon="10.8334755"><ele>102.0</ele><time>2026-04-26T11:17:31.093Z</time></trkpt><trkpt lat="45.8538455" lon="10.8335126"><ele>97.75</ele><time>2026-04-26T11:17:32.093Z</time></trkpt><trkpt lat="45.8539856" lon="10.8336087"><ele>93.5</ele><time>2026-04-26T11:17:33.093Z</time></trkpt><trkpt lat="45.8541294" lon="10.8336732"><ele>89.25</ele><time>2026-04-26T11:17:34.093Z</time></trkpt><trkpt lat="45.854262" lon="10.8337385"><ele>85.0</ele><time>2026-04-26T11:17:35.093Z</time></trkpt><trkpt lat="45.8543865" lon="10.8338004"><ele>84.5</ele><time>2026-04-26T11:17:36.093Z</time></trkpt><trkpt lat="45.8545014" lon="10.8338831"><ele>84.0</ele><time>2026-04-26T11:17:37.093Z</time></trkpt><trkpt lat="45.8546202" lon="10.833961"><ele>83.5</ele><time>2026-04-26T11:17:38.092Z</time></trkpt><trkpt lat="45.8547498" lon="10.8340343"><ele>83.0</ele><time>2026-04-26T11:17:39.093Z</time></trkpt><trkpt lat="45.8548939" lon="10.8340725"><ele>83.0</ele><time>2026-04-26T11:17:40.093Z</time></trkpt><trkpt lat="45.8550539" lon="10.8340975"><ele>83.0</ele><time>2026-04-26T11:17:41.093Z</time></trkpt><trkpt lat="45.855226" lon="10.8341143"><ele>83.0</ele><time>2026-04-26T11:17:42.093Z</time></trkpt><trkpt lat="45.8554129" lon="10.8341157"><ele>79.0</ele><time>2026-04-26T11:17:43.093Z</time></trkpt><trkpt lat="45.8556054" lon="10.8340693"><ele>75.0</ele><time>2026-04-26T11:17:44.093Z</time></trkpt><trkpt lat="45.8557919" lon="10.8340071"><ele>71.0</ele><time>2026-04-26T11:17:45.092Z</time></trkpt><trkpt lat="45.8559645" lon="10.8339264"><ele>68.75</ele><time>2026-04-26T11:17:46.093Z</time></trkpt><trkpt lat="45.8561094" lon="10.8338351"><ele>66.5</ele><time>2026-04-26T11:17:47.093Z</time></trkpt><trkpt lat="45.8562409" lon="10.8337457"><ele>64.25</ele><time>2026-04-26T11:17:48.093Z</time></trkpt><trkpt lat="45.8563766" lon="10.8336738"><ele>62.0</ele><time>2026-04-26T11:17:49.093Z</time></trkpt><trkpt lat="45.8576654" lon="10.8330976"><ele>62.0</ele><time>2026-04-26T11:17:59.093Z</time></trkpt><trkpt lat="45.8577593" lon="10.8329567"><ele>62.0</ele><time>2026-04-26T11:18:00.092Z</time></trkpt><trkpt lat="45.857864" lon="10.8329003"><ele>62.0</ele><time>2026-04-26T11:18:01.093Z</time></trkpt><trkpt lat="45.8579683" lon="10.8328776"><ele>62.0</ele><time>2026-04-26T11:18:02.093Z</time></trkpt><trkpt lat="45.8580719" lon="10.8328491"><ele>62.0</ele><time>2026-04-26T11:18:03.093Z</time></trkpt><trkpt lat="45.8581564" lon="10.8328098"><ele>62.0</ele><time>2026-04-26T11:18:04.093Z</time></trkpt><trkpt lat="45.8582695" lon="10.8327355"><ele>62.0</ele><time>2026-04-26T11:18:05.093Z</time></trkpt><trkpt lat="45.8584304" lon="10.8327009"><ele>62.0</ele><time>2026-04-26T11:18:06.093Z</time></trkpt><trkpt lat="45.8585421" lon="10.8326624"><ele>72.0</ele><time>2026-04-26T11:18:07.093Z</time></trkpt><trkpt lat="45.8586465" lon="10.8326116"><ele>82.0</ele><time>2026-04-26T11:18:08.092Z</time></trkpt><trkpt lat="45.8587458" lon="10.832569"><ele>91.99999999999999</ele><time>2026-04-26T11:18:09.092Z</time></trkpt><trkpt lat="45.8588428" lon="10.8325333"><ele>102.0</ele><time>2026-04-26T11:18:10.093Z</time></trkpt><trkpt lat="45.8589442" lon="10.8325041"><ele>112.0</ele><time>2026-04-26T11:18:11.093Z</time></trkpt><trkpt lat="45.8590478" lon="10.832492"><ele>112.0</ele><time>2026-04-26T11:18:12.093Z</time></trkpt><trkpt lat="45.8591437" lon="10.8325356"><ele>111.99999999999999</ele><time>2026-04-26T11:18:13.092Z</time></trkpt><trkpt lat="45.8592438" lon="10.8325743"><ele>111.99999999999999</ele><time>2026-04-26T11:18:14.092Z</time></trkpt><trkpt lat="45.8593479" lon="10.8326068"><ele>112.0</ele><time>2026-04-26T11:18:15.093Z</time></trkpt><trkpt lat="45.8594451" lon="10.8326442"><ele>112.0</ele><time>2026-04-26T11:18:16.092Z</time></trkpt><trkpt lat="45.8595281" lon="10.8326616"><ele>103.66666666666667</ele><time>2026-04-26T11:18:17.093Z</time></trkpt><trkpt lat="45.8596106" lon="10.8326742"><ele>95.33333333333334</ele><time>2026-04-26T11:18:18.092Z</time></trkpt><trkpt lat="45.8596816" lon="10.8326687"><ele>87.0</ele><time>2026-04-26T11:18:19.092Z</time></trkpt><trkpt lat="45.8597726" lon="10.8326706"><ele>78.66666666666667</ele><time>2026-04-26T11:18:20.093Z</time></trkpt><trkpt lat="45.8598625" lon="10.83267"><ele>70.33333333333334</ele><time>2026-04-26T11:18:21.092Z</time></trkpt><trkpt lat="45.8599462" lon="10.8326546"><ele>62.0</ele><time>2026-04-26T11:18:22.093Z</time></trkpt><trkpt lat="45.8600413" lon="10.8326308"><ele>62.0</ele><time>2026-04-26T11:18:23.093Z</time></trkpt><trkpt lat="45.8601387" lon="10.8326131"><ele>62.0</ele><time>2026-04-26T11:18:24.093Z</time></trkpt><trkpt lat="45.860237" lon="10.8325893"><ele>62.0</ele><time>2026-04-26T11:18:25.093Z</time></trkpt><trkpt lat="45.8603327" lon="10.832569"><ele>62.0</ele><time>2026-04-26T11:18:26.093Z</time></trkpt><trkpt lat="45.8604303" lon="10.8325504"><ele>62.0</ele><time>2026-04-26T11:18:27.093Z</time></trkpt><trkpt lat="45.860537" lon="10.8325343"><ele>62.0</ele><time>2026-04-26T11:18:28.093Z</time></trkpt><trkpt lat="45.860638" lon="10.8325155"><ele>62.0</ele><time>2026-04-26T11:18:29.093Z</time></trkpt><trkpt lat="45.8608142" lon="10.8324992"><ele>62.0</ele><time>2026-04-26T11:18:30.093Z</time></trkpt><trkpt lat="45.8609223" lon="10.8325038"><ele>62.0</ele><time>2026-04-26T11:18:31.093Z</time></trkpt><trkpt lat="45.8609924" lon="10.8325142"><ele>62.00000000000001</ele><time>2026-04-26T11:18:32.092Z</time></trkpt><trkpt lat="45.8610565" lon="10.8325261"><ele>62.0</ele><time>2026-04-26T11:18:33.093Z</time></trkpt><trkpt lat="45.8611555" lon="10.832546"><ele>62.0</ele><time>2026-04-26T11:18:34.093Z</time></trkpt><trkpt lat="45.8612565" lon="10.8326028"><ele>62.0</ele><time>2026-04-26T11:18:36.092Z</time></trkpt><trkpt lat="45.8613135" lon="10.8326419"><ele>62.00000000000001</ele><time>2026-04-26T11:18:37.093Z</time></trkpt><trkpt lat="45.861381" lon="10.8326728"><ele>62.0</ele><time>2026-04-26T11:18:38.093Z</time></trkpt><trkpt lat="45.8614609" lon="10.8327122"><ele>62.0</ele><time>2026-04-26T11:18:39.093Z</time></trkpt><trkpt lat="45.8615548" lon="10.832753"><ele>62.0</ele><time>2026-04-26T11:18:40.093Z</time></trkpt><trkpt lat="45.8616435" lon="10.8327812"><ele>62.0</ele><time>2026-04-26T11:18:41.093Z</time></trkpt><trkpt lat="45.8702275" lon="10.8351871"><ele>62.0</ele><time>2026-04-26T11:19:56.092Z</time></trkpt><trkpt lat="45.8703512" lon="10.8352755"><ele>62.0</ele><time>2026-04-26T11:19:57.093Z</time></trkpt><trkpt lat="45.8704749" lon="10.8353757"><ele>62.0</ele><time>2026-04-26T11:19:58.093Z</time></trkpt><trkpt lat="45.8705998" lon="10.8354569"><ele>62.0</ele><time>2026-04-26T11:19:59.093Z</time></trkpt><trkpt lat="45.8707287" lon="10.8355368"><ele>67.0</ele><time>2026-04-26T11:20:00.093Z</time></trkpt><trkpt lat="45.8798583" lon="10.8377911"><ele>67.0</ele><time>2026-04-26T11:20:58.093Z</time></trkpt><trkpt lat="45.879954" lon="10.8377927"><ele>67.0</ele><time>2026-04-26T11:20:59.093Z</time></trkpt><trkpt lat="45.8800421" lon="10.8378052"><ele>67.0</ele><time>2026-04-26T11:21:00.093Z</time></trkpt><trkpt lat="45.880134" lon="10.8378215"><ele>67.0</ele><time>2026-04-26T11:21:01.092Z</time></trkpt><trkpt lat="45.8802335" lon="10.8378427"><ele>67.0</ele><time>2026-04-26T11:21:02.093Z</time></trkpt><trkpt lat="45.8803338" lon="10.8378735"><ele>67.4</ele><time>2026-04-26T11:21:03.093Z</time></trkpt><trkpt lat="45.880433" lon="10.8378899"><ele>67.80000000000001</ele><time>2026-04-26T11:21:04.093Z</time></trkpt><trkpt lat="45.8805302" lon="10.8379116"><ele>68.2</ele><time>2026-04-26T11:21:05.093Z</time></trkpt><trkpt lat="45.8806302" lon="10.8379324"><ele>68.60000000000001</ele><time>2026-04-26T11:21:06.093Z</time></trkpt><trkpt lat="45.8807124" lon="10.837945"><ele>69.0</ele><time>2026-04-26T11:21:07.092Z</time></trkpt><trkpt lat="45.8807878" lon="10.8379668"><ele>69.0</ele><time>2026-04-26T11:21:08.093Z</time></trkpt><trkpt lat="45.8808678" lon="10.8379787"><ele>69.0</ele><time>2026-04-26T11:21:09.093Z</time></trkpt><trkpt lat="45.8809476" lon="10.837989"><ele>69.0</ele><time>2026-04-26T11:21:10.093Z</time></trkpt><trkpt lat="45.8810297" lon="10.8380032"><ele>69.0</ele><time>2026-04-26T11:21:11.092Z</time></trkpt><trkpt lat="45.8811142" lon="10.83802"><ele>69.0</ele><time>2026-04-26T11:21:12.092Z</time></trkpt><trkpt lat="45.8812079" lon="10.8380422"><ele>69.0</ele><time>2026-04-26T11:21:13.093Z</time></trkpt><trkpt lat="45.8813047" lon="10.838061"><ele>69.8</ele><time>2026-04-26T11:21:14.093Z</time></trkpt><trkpt lat="45.8814082" lon="10.8380767"><ele>70.60000000000001</ele><time>2026-04-26T11:21:15.093Z</time></trkpt><trkpt lat="45.8815135" lon="10.8380918"><ele>71.4</ele><time>2026-04-26T11:21:16.093Z</time></trkpt><trkpt lat="45.8816166" lon="10.838101"><ele>72.2</ele><time>2026-04-26T11:21:17.092Z</time></trkpt><trkpt lat="45.8817165" lon="10.8381126"><ele>73.0</ele><time>2026-04-26T11:21:18.092Z</time></trkpt><trkpt lat="45.8818108" lon="10.8381222"><ele>73.0</ele><time>2026-04-26T11:21:19.093Z</time></trkpt><trkpt lat="45.8819045" lon="10.8381357"><ele>73.0</ele><time>2026-04-26T11:21:20.093Z</time></trkpt><trkpt lat="45.8819963" lon="10.8381429"><ele>73.0</ele><time>2026-04-26T11:21:21.093Z</time></trkpt><trkpt lat="45.882093" lon="10.8381512"><ele>73.0</ele><time>2026-04-26T11:21:22.092Z</time></trkpt><trkpt lat="45.8821782" lon="10.8381612"><ele>73.0</ele><time>2026-04-26T11:21:23.093Z</time></trkpt><trkpt lat="45.8822608" lon="10.8381787"><ele>73.0</ele><time>2026-04-26T11:21:24.093Z</time></trkpt><trkpt lat="45.8823459" lon="10.8381961"><ele>73.0</ele><time>2026-04-26T11:21:25.093Z</time></trkpt><trkpt lat="45.8824259" lon="10.8382152"><ele>73.0</ele><time>2026-04-26T11:21:26.093Z</time></trkpt><trkpt lat="45.882498" lon="10.8382389"><ele>73.0</ele><time>2026-04-26T11:21:27.093Z</time></trkpt><trkpt lat="45.8825662" lon="10.8382577"><ele>73.0</ele><time>2026-04-26T11:21:28.092Z</time></trkpt><trkpt lat="45.8826307" lon="10.8382826"><ele>73.0</ele><time>2026-04-26T11:21:29.093Z</time></trkpt><trkpt lat="45.8827451" lon="10.8383164"><ele>73.5</ele><time>2026-04-26T11:21:31.093Z</time></trkpt><trkpt lat="45.8828555" lon="10.8383531"><ele>74.0</ele><time>2026-04-26T11:21:33.093Z</time></trkpt><trkpt lat="45.8829715" lon="10.8384001"><ele>74.5</ele><time>2026-04-26T11:21:35.093Z</time></trkpt><trkpt lat="45.8830833" lon="10.8384433"><ele>75.0</ele><time>2026-04-26T11:21:37.093Z</time></trkpt><trkpt lat="45.8831942" lon="10.8384893"><ele>74.0</ele><time>2026-04-26T11:21:39.093Z</time></trkpt><trkpt lat="45.8832691" lon="10.8385914"><ele>73.0</ele><time>2026-04-26T11:21:41.092Z</time></trkpt><trkpt lat="45.88334" lon="10.8386724"><ele>72.0</ele><time>2026-04-26T11:21:43.093Z</time></trkpt><trkpt lat="45.8834193" lon="10.8387242"><ele>71.0</ele><time>2026-04-26T11:21:45.093Z</time></trkpt><trkpt lat="45.8834871" lon="10.8387624"><ele>70.0</ele><time>2026-04-26T11:21:47.093Z</time></trkpt><trkpt lat="45.8835519" lon="10.8387874"><ele>69.0</ele><time>2026-04-26T11:21:49.093Z</time></trkpt><trkpt lat="45.8836172" lon="10.8387892"><ele>69.0</ele><time>2026-04-26T11:21:51.092Z</time></trkpt><trkpt lat="45.8836925" lon="10.8387657"><ele>69.0</ele><time>2026-04-26T11:21:54.092Z</time></trkpt><trkpt lat="45.8837384" lon="10.8386856"><ele>69.0</ele><time>2026-04-26T11:21:57.093Z</time></trkpt><trkpt lat="45.8837012" lon="10.8385884"><ele>69.0</ele><time>2026-04-26T11:22:00.093Z</time></trkpt><trkpt lat="45.8836362" lon="10.838557"><ele>69.0</ele><time>2026-04-26T11:22:02.092Z</time></trkpt><trkpt lat="45.8835676" lon="10.8385174"><ele>69.0</ele><time>2026-04-26T11:22:04.093Z</time></trkpt><trkpt lat="45.8834704" lon="10.8385158"><ele>68.4</ele><time>2026-04-26T11:22:06.092Z</time></trkpt><trkpt lat="45.8833547" lon="10.8384689"><ele>67.80000000000001</ele><time>2026-04-26T11:22:08.093Z</time></trkpt><trkpt lat="45.883254" lon="10.8384366"><ele>67.19999999999999</ele><time>2026-04-26T11:22:10.093Z</time></trkpt><trkpt lat="45.8831712" lon="10.8384114"><ele>66.6</ele><time>2026-04-26T11:22:12.093Z</time></trkpt><trkpt lat="45.8831029" lon="10.8383905"><ele>66.0</ele><time>2026-04-26T11:22:14.093Z</time></trkpt><trkpt lat="45.8830129" lon="10.8383597"><ele>67.0</ele><time>2026-04-26T11:22:17.093Z</time></trkpt><trkpt lat="45.8829424" lon="10.8383358"><ele>68.0</ele><time>2026-04-26T11:22:19.093Z</time></trkpt><trkpt lat="45.8828775" lon="10.8383143"><ele>69.0</ele><time>2026-04-26T11:22:21.093Z</time></trkpt><trkpt lat="45.882817" lon="10.8382889"><ele>70.0</ele><time>2026-04-26T11:22:23.092Z</time></trkpt><trkpt lat="45.882752" lon="10.8382706"><ele>71.0</ele><time>2026-04-26T11:22:25.093Z</time></trkpt><trkpt lat="45.8826859" lon="10.8382496"><ele>72.0</ele><time>2026-04-26T11:22:27.092Z</time></trkpt><trkpt lat="45.8826226" lon="10.838231"><ele>73.0</ele><time>2026-04-26T11:22:29.093Z</time></trkpt><trkpt lat="45.8825539" lon="10.8382135"><ele>73.0</ele><time>2026-04-26T11:22:31.093Z</time></trkpt><trkpt lat="45.8824813" lon="10.8381922"><ele>73.0</ele><time>2026-04-26T11:22:33.093Z</time></trkpt><trkpt lat="45.8823919" lon="10.8381671"><ele>73.0</ele><time>2026-04-26T11:22:35.092Z</time></trkpt><trkpt lat="45.8823101" lon="10.8381481"><ele>73.0</ele><time>2026-04-26T11:22:37.093Z</time></trkpt><trkpt lat="45.8822105" lon="10.8381228"><ele>73.0</ele><time>2026-04-26T11:23:00.093Z</time></trkpt><trkpt lat="45.8821353" lon="10.838108"><ele>73.0</ele><time>2026-04-26T11:23:02.093Z</time></trkpt><trkpt lat="45.8820721" lon="10.8380696"><ele>73.0</ele><time>2026-04-26T11:23:06.093Z</time></trkpt></trkseg><trkseg><trkpt lat="45.8819708" lon="10.8381249"><ele>73.0</ele><time>2026-04-26T13:15:04.102Z</time></trkpt><trkpt lat="45.8819023" lon="10.8381166"><ele>73.0</ele><time>2026-04-26T13:15:05.102Z</time></trkpt><trkpt lat="45.8818302" lon="10.8381106"><ele>73.0</ele><time>2026-04-26T13:15:06.102Z</time></trkpt><trkpt lat="45.8817461" lon="10.8380925"><ele>73.0</ele><time>2026-04-26T13:15:07.102Z</time></trkpt><trkpt lat="45.8816511" lon="10.8380798"><ele>73.0</ele><time>2026-04-26T13:15:08.102Z</time></trkpt><trkpt lat="45.8815511" lon="10.8380639"><ele>73.0</ele><time>2026-04-26T13:15:09.101Z</time></trkpt><trkpt lat="45.8814452" lon="10.8380492"><ele>74.25</ele><time>2026-04-26T13:15:10.102Z</time></trkpt><trkpt lat="45.8813335" lon="10.8380338"><ele>75.5</ele><time>2026-04-26T13:15:11.102Z</time></trkpt><trkpt lat="45.881222" lon="10.8380119"><ele>76.75</ele><time>2026-04-26T13:15:12.102Z</time></trkpt><trkpt lat="45.8811109" lon="10.837993"><ele>78.0</ele><time>2026-04-26T13:15:13.101Z</time></trkpt><trkpt lat="45.8809955" lon="10.8379722"><ele>75.75</ele><time>2026-04-26T13:15:14.101Z</time></trkpt><trkpt lat="45.8808779" lon="10.8379533"><ele>73.5</ele><time>2026-04-26T13:15:15.102Z</time></trkpt><trkpt lat="45.8807605" lon="10.8379338"><ele>71.25</ele><time>2026-04-26T13:15:16.102Z</time></trkpt><trkpt lat="45.8806433" lon="10.8379135"><ele>69.0</ele><time>2026-04-26T13:15:17.102Z</time></trkpt><trkpt lat="45.8805244" lon="10.8378926"><ele>69.0</ele><time>2026-04-26T13:15:18.102Z</time></trkpt><trkpt lat="45.8804048" lon="10.8378666"><ele>69.0</ele><time>2026-04-26T13:15:19.101Z</time></trkpt><trkpt lat="45.8802879" lon="10.8378396"><ele>69.0</ele><time>2026-04-26T13:15:20.102Z</time></trkpt><trkpt lat="45.8801677" lon="10.8378112"><ele>69.0</ele><time>2026-04-26T13:15:21.102Z</time></trkpt><trkpt lat="45.8800457" lon="10.8377834"><ele>68.5</ele><time>2026-04-26T13:15:22.101Z</time></trkpt><trkpt lat="45.8799213" lon="10.8377489"><ele>68.0</ele><time>2026-04-26T13:15:23.102Z</time></trkpt><trkpt lat="45.8797969" lon="10.8377143"><ele>67.5</ele><time>2026-04-26T13:15:24.101Z</time></trkpt><trkpt lat="45.8796688" lon="10.8376828"><ele>67.0</ele><time>2026-04-26T13:15:25.102Z</time></trkpt><trkpt lat="45.8795396" lon="10.8376524"><ele>77.0</ele><time>2026-04-26T13:15:26.102Z</time></trkpt><trkpt lat="45.8794096" lon="10.8376213"><ele>87.0</ele><time>2026-04-26T13:15:27.101Z</time></trkpt><trkpt lat="45.8792811" lon="10.8375912"><ele>97.0</ele><time>2026-04-26T13:15:28.102Z</time></trkpt><trkpt lat="45.8791479" lon="10.8375638"><ele>107.0</ele><time>2026-04-26T13:15:29.101Z</time></trkpt><trkpt lat="45.8790145" lon="10.8375331"><ele>92.0</ele><time>2026-04-26T13:15:30.101Z</time></trkpt><trkpt lat="45.8788858" lon="10.8374996"><ele>77.0</ele><time>2026-04-26T13:15:31.102Z</time></trkpt><trkpt lat="45.8787569" lon="10.8374658"><ele>62.0</ele><time>2026-04-26T13:15:32.102Z</time></trkpt><trkpt lat="45.8612223" lon="10.832666"><ele>62.0</ele><time>2026-04-26T13:17:31.102Z</time></trkpt><trkpt lat="45.8611101" lon="10.832593"><ele>62.0</ele><time>2026-04-26T13:17:32.102Z</time></trkpt><trkpt lat="45.8610161" lon="10.832541"><ele>62.0</ele><time>2026-04-26T13:17:33.102Z</time></trkpt><trkpt lat="45.8609189" lon="10.8325206"><ele>62.0</ele><time>2026-04-26T13:17:34.102Z</time></trkpt><trkpt lat="45.8608268" lon="10.8325149"><ele>62.0</ele><time>2026-04-26T13:17:35.101Z</time></trkpt><trkpt lat="45.8596469" lon="10.8326431"><ele>74.5</ele><time>2026-04-26T13:17:44.102Z</time></trkpt><trkpt lat="45.8594984" lon="10.8326204"><ele>87.0</ele><time>2026-04-26T13:17:45.102Z</time></trkpt><trkpt lat="45.8593844" lon="10.8325764"><ele>99.5</ele><time>2026-04-26T13:17:46.102Z</time></trkpt><trkpt lat="45.8592637" lon="10.8325363"><ele>112.0</ele><time>2026-04-26T13:17:47.101Z</time></trkpt><trkpt lat="45.8591454" lon="10.8325191"><ele>112.0</ele><time>2026-04-26T13:17:48.102Z</time></trkpt><trkpt lat="45.8590352" lon="10.8324965"><ele>112.0</ele><time>2026-04-26T13:17:49.102Z</time></trkpt><trkpt lat="45.8589269" lon="10.8324889"><ele>112.0</ele><time>2026-04-26T13:17:50.102Z</time></trkpt><trkpt lat="45.8588155" lon="10.8325108"><ele>112.0</ele><time>2026-04-26T13:17:51.102Z</time></trkpt><trkpt lat="45.8587001" lon="10.8325616"><ele>112.0</ele><time>2026-04-26T13:17:52.102Z</time></trkpt><trkpt lat="45.8585801" lon="10.8326233"><ele>112.0</ele><time>2026-04-26T13:17:53.102Z</time></trkpt><trkpt lat="45.8584546" lon="10.8326879"><ele>112.0</ele><time>2026-04-26T13:17:54.102Z</time></trkpt><trkpt lat="45.8583263" lon="10.832748"><ele>112.0</ele><time>2026-04-26T13:17:55.101Z</time></trkpt><trkpt lat="45.8581974" lon="10.8328116"><ele>95.33333333333334</ele><time>2026-04-26T13:17:56.102Z</time></trkpt><trkpt lat="45.8580658" lon="10.8328629"><ele>78.66666666666667</ele><time>2026-04-26T13:17:57.102Z</time></trkpt><trkpt lat="45.8579347" lon="10.8329061"><ele>62.0</ele><time>2026-04-26T13:17:58.102Z</time></trkpt><trkpt lat="45.857553" lon="10.8330019"><ele>62.0</ele><time>2026-04-26T13:18:01.101Z</time></trkpt><trkpt lat="45.8574263" lon="10.8330129"><ele>62.0</ele><time>2026-04-26T13:18:02.102Z</time></trkpt><trkpt lat="45.8572996" lon="10.8330386"><ele>62.0</ele><time>2026-04-26T13:18:03.102Z</time></trkpt><trkpt lat="45.8571772" lon="10.8330663"><ele>62.0</ele><time>2026-04-26T13:18:04.102Z</time></trkpt><trkpt lat="45.8570588" lon="10.8331113"><ele>83.0</ele><time>2026-04-26T13:18:05.102Z</time></trkpt><trkpt lat="45.854866" lon="10.8340726"><ele>83.0</ele><time>2026-04-26T13:18:22.102Z</time></trkpt><trkpt lat="45.8547139" lon="10.8339802"><ele>83.0</ele><time>2026-04-26T13:18:23.102Z</time></trkpt><trkpt lat="45.8546074" lon="10.8338652"><ele>83.0</ele><time>2026-04-26T13:18:24.102Z</time></trkpt><trkpt lat="45.854459" lon="10.8337487"><ele>83.0</ele><time>2026-04-26T13:18:25.102Z</time></trkpt><trkpt lat="45.854308" lon="10.8337243"><ele>83.0</ele><time>2026-04-26T13:18:26.102Z</time></trkpt><trkpt lat="45.854159" lon="10.8336662"><ele>83.0</ele><time>2026-04-26T13:18:27.102Z</time></trkpt><trkpt lat="45.8540352" lon="10.8335643"><ele>83.0</ele><time>2026-04-26T13:18:28.102Z</time></trkpt><trkpt lat="45.8538762" lon="10.8335002"><ele>80.66666666666667</ele><time>2026-04-26T13:18:29.102Z</time></trkpt><trkpt lat="45.853709" lon="10.8333714"><ele>78.33333333333333</ele><time>2026-04-26T13:18:30.101Z</time></trkpt><trkpt lat="45.8535366" lon="10.8333026"><ele>76.0</ele><time>2026-04-26T13:18:31.102Z</time></trkpt><trkpt lat="45.8533695" lon="10.8331817"><ele>76.0</ele><time>2026-04-26T13:18:32.102Z</time></trkpt><trkpt lat="45.853191" lon="10.8331014"><ele>76.0</ele><time>2026-04-26T13:18:33.102Z</time></trkpt><trkpt lat="45.8530526" lon="10.8329495"><ele>76.0</ele><time>2026-04-26T13:18:34.102Z</time></trkpt><trkpt lat="45.8528917" lon="10.8328633"><ele>76.0</ele><time>2026-04-26T13:18:35.102Z</time></trkpt><trkpt lat="45.8527218" lon="10.8327648"><ele>76.0</ele><time>2026-04-26T13:18:36.102Z</time></trkpt><trkpt lat="45.8502839" lon="10.8319792"><ele>76.0</ele><time>2026-04-26T13:18:52.102Z</time></trkpt><trkpt lat="45.8501871" lon="10.8319688"><ele>76.0</ele><time>2026-04-26T13:18:53.102Z</time></trkpt><trkpt lat="45.8500593" lon="10.8319115"><ele>76.0</ele><time>2026-04-26T13:18:54.102Z</time></trkpt><trkpt lat="45.8499535" lon="10.8318867"><ele>76.0</ele><time>2026-04-26T13:18:55.102Z</time></trkpt><trkpt lat="45.8498374" lon="10.8318054"><ele>75.33333333333333</ele><time>2026-04-26T13:18:56.102Z</time></trkpt><trkpt lat="45.849719" lon="10.8317371"><ele>74.66666666666667</ele><time>2026-04-26T13:18:57.102Z</time></trkpt><trkpt lat="45.8495708" lon="10.8316544"><ele>74.0</ele><time>2026-04-26T13:18:58.102Z</time></trkpt><trkpt lat="45.8494549" lon="10.831337"><ele>74.0</ele><time>2026-04-26T13:19:00.101Z</time></trkpt><trkpt lat="45.8493731" lon="10.8312606"><ele>74.0</ele><time>2026-04-26T13:19:01.102Z</time></trkpt><trkpt lat="45.8492903" lon="10.8311419"><ele>74.0</ele><time>2026-04-26T13:19:02.102Z</time></trkpt><trkpt lat="45.8492646" lon="10.831047"><ele>74.0</ele><time>2026-04-26T13:19:03.102Z</time></trkpt><trkpt lat="45.8491009" lon="10.8310057"><ele>78.6</ele><time>2026-04-26T13:19:04.102Z</time></trkpt><trkpt lat="45.8490108" lon="10.8309523"><ele>83.2</ele><time>2026-04-26T13:19:05.102Z</time></trkpt><trkpt lat="45.848915" lon="10.8308961"><ele>87.8</ele><time>2026-04-26T13:19:06.102Z</time></trkpt><trkpt lat="45.8488154" lon="10.8308452"><ele>92.39999999999999</ele><time>2026-04-26T13:19:07.102Z</time></trkpt><trkpt lat="45.8487238" lon="10.8307998"><ele>97.0</ele><time>2026-04-26T13:19:08.102Z</time></trkpt><trkpt lat="45.8486372" lon="10.8307546"><ele>97.0</ele><time>2026-04-26T13:19:09.102Z</time></trkpt><trkpt lat="45.8485469" lon="10.8307101"><ele>97.0</ele><time>2026-04-26T13:19:10.102Z</time></trkpt><trkpt lat="45.8484556" lon="10.8306694"><ele>97.0</ele><time>2026-04-26T13:19:11.102Z</time></trkpt><trkpt lat="45.8483619" lon="10.8306257"><ele>97.0</ele><time>2026-04-26T13:19:12.102Z</time></trkpt><trkpt lat="45.8482647" lon="10.8305831"><ele>97.0</ele><time>2026-04-26T13:19:13.102Z</time></trkpt><trkpt lat="45.8481674" lon="10.8305483"><ele>93.16666666666667</ele><time>2026-04-26T13:19:14.101Z</time></trkpt><trkpt lat="45.8480741" lon="10.8305266"><ele>89.33333333333334</ele><time>2026-04-26T13:19:15.102Z</time></trkpt><trkpt lat="45.8479869" lon="10.8305112"><ele>85.5</ele><time>2026-04-26T13:19:16.101Z</time></trkpt><trkpt lat="45.8479013" lon="10.8305"><ele>81.66666666666667</ele><time>2026-04-26T13:19:17.102Z</time></trkpt><trkpt lat="45.8478161" lon="10.83049"><ele>77.83333333333334</ele><time>2026-04-26T13:19:18.102Z</time></trkpt><trkpt lat="45.8477321" lon="10.8304815"><ele>74.0</ele><time>2026-04-26T13:19:19.102Z</time></trkpt><trkpt lat="45.8476446" lon="10.8304756"><ele>72.66666666666667</ele><time>2026-04-26T13:19:20.102Z</time></trkpt><trkpt lat="45.8475602" lon="10.8304678"><ele>71.33333333333334</ele><time>2026-04-26T13:19:21.102Z</time></trkpt><trkpt lat="45.8474785" lon="10.8304602"><ele>70.0</ele><time>2026-04-26T13:19:22.102Z</time></trkpt><trkpt lat="45.8473966" lon="10.830453"><ele>68.66666666666667</ele><time>2026-04-26T13:19:23.102Z</time></trkpt><trkpt lat="45.8473082" lon="10.830445"><ele>67.33333333333333</ele><time>2026-04-26T13:19:24.102Z</time></trkpt><trkpt lat="45.8472121" lon="10.8304292"><ele>66.0</ele><time>2026-04-26T13:19:25.102Z</time></trkpt><trkpt lat="45.8471107" lon="10.8304097"><ele>66.0</ele><time>2026-04-26T13:19:26.102Z</time></trkpt><trkpt lat="45.8470128" lon="10.830388"><ele>66.0</ele><time>2026-04-26T13:19:27.101Z</time></trkpt><trkpt lat="45.8469205" lon="10.8303675"><ele>66.0</ele><time>2026-04-26T13:19:28.102Z</time></trkpt><trkpt lat="45.8468309" lon="10.8303441"><ele>66.0</ele><time>2026-04-26T13:19:29.102Z</time></trkpt><trkpt lat="45.8467406" lon="10.8303154"><ele>66.0</ele><time>2026-04-26T13:19:30.102Z</time></trkpt><trkpt lat="45.8466472" lon="10.8302825"><ele>65.8</ele><time>2026-04-26T13:19:31.102Z</time></trkpt><trkpt lat="45.8465559" lon="10.8302508"><ele>65.6</ele><time>2026-04-26T13:19:32.101Z</time></trkpt><trkpt lat="45.8464622" lon="10.8302131"><ele>65.4</ele><time>2026-04-26T13:19:33.102Z</time></trkpt><trkpt lat="45.8463701" lon="10.8301762"><ele>65.2</ele><time>2026-04-26T13:19:34.102Z</time></trkpt><trkpt lat="45.8462777" lon="10.8301379"><ele>65.0</ele><time>2026-04-26T13:19:35.102Z</time></trkpt><trkpt lat="45.8461868" lon="10.8300976"><ele>67.4</ele><time>2026-04-26T13:19:36.101Z</time></trkpt><trkpt lat="45.8460992" lon="10.8300456"><ele>69.8</ele><time>2026-04-26T13:19:37.102Z</time></trkpt><trkpt lat="45.8460176" lon="10.8299761"><ele>72.2</ele><time>2026-04-26T13:19:38.101Z</time></trkpt><trkpt lat="45.8459303" lon="10.8299009"><ele>74.6</ele><time>2026-04-26T13:19:39.102Z</time></trkpt><trkpt lat="45.845854" lon="10.8298213"><ele>77.0</ele><time>2026-04-26T13:19:40.101Z</time></trkpt><trkpt lat="45.845796" lon="10.8297326"><ele>77.0</ele><time>2026-04-26T13:19:41.102Z</time></trkpt><trkpt lat="45.84575" lon="10.8296252"><ele>77.0</ele><time>2026-04-26T13:19:42.102Z</time></trkpt><trkpt lat="45.8457042" lon="10.8295297"><ele>77.0</ele><time>2026-04-26T13:19:43.102Z</time></trkpt><trkpt lat="45.8456587" lon="10.8294334"><ele>77.0</ele><time>2026-04-26T13:19:44.102Z</time></trkpt><trkpt lat="45.8456082" lon="10.8293407"><ele>77.0</ele><time>2026-04-26T13:19:45.102Z</time></trkpt><trkpt lat="45.8455563" lon="10.8292451"><ele>77.0</ele><time>2026-04-26T13:19:46.102Z</time></trkpt><trkpt lat="45.8455044" lon="10.8291474"><ele>82.33333333333334</ele><time>2026-04-26T13:19:47.101Z</time></trkpt><trkpt lat="45.8454579" lon="10.8290496"><ele>87.66666666666667</ele><time>2026-04-26T13:19:48.102Z</time></trkpt><trkpt lat="45.8454006" lon="10.828966"><ele>93.0</ele><time>2026-04-26T13:19:49.102Z</time></trkpt><trkpt lat="45.8453364" lon="10.8288847"><ele>98.33333333333334</ele><time>2026-04-26T13:19:50.102Z</time></trkpt><trkpt lat="45.8452714" lon="10.8288109"><ele>103.66666666666667</ele><time>2026-04-26T13:19:51.102Z</time></trkpt><trkpt lat="45.8452068" lon="10.8287393"><ele>109.0</ele><time>2026-04-26T13:19:52.102Z</time></trkpt><trkpt lat="45.8451374" lon="10.8286681"><ele>104.83333333333334</ele><time>2026-04-26T13:19:53.102Z</time></trkpt><trkpt lat="45.8450635" lon="10.8286039"><ele>100.66666666666667</ele><time>2026-04-26T13:19:54.102Z</time></trkpt><trkpt lat="45.8449925" lon="10.8285421"><ele>96.5</ele><time>2026-04-26T13:19:55.102Z</time></trkpt><trkpt lat="45.844919" lon="10.8284879"><ele>92.33333333333334</ele><time>2026-04-26T13:19:56.102Z</time></trkpt><trkpt lat="45.8448444" lon="10.8284318"><ele>88.16666666666667</ele><time>2026-04-26T13:19:57.102Z</time></trkpt><trkpt lat="45.844773" lon="10.8283728"><ele>84.0</ele><time>2026-04-26T13:19:58.101Z</time></trkpt><trkpt lat="45.8447" lon="10.8283117"><ele>84.0</ele><time>2026-04-26T13:19:59.102Z</time></trkpt><trkpt lat="45.8446305" lon="10.8282495"><ele>84.0</ele><time>2026-04-26T13:20:00.101Z</time></trkpt><trkpt lat="45.8445584" lon="10.8281758"><ele>84.0</ele><time>2026-04-26T13:20:01.101Z</time></trkpt><trkpt lat="45.8444823" lon="10.8280911"><ele>84.0</ele><time>2026-04-26T13:20:02.102Z</time></trkpt><trkpt lat="45.8444055" lon="10.8279948"><ele>84.0</ele><time>2026-04-26T13:20:03.102Z</time></trkpt><trkpt lat="45.8443265" lon="10.8278836"><ele>84.25</ele><time>2026-04-26T13:20:04.102Z</time></trkpt><trkpt lat="45.8442468" lon="10.8277574"><ele>84.5</ele><time>2026-04-26T13:20:05.102Z</time></trkpt><trkpt lat="45.8441638" lon="10.8276318"><ele>84.75</ele><time>2026-04-26T13:20:06.102Z</time></trkpt><trkpt lat="45.8440789" lon="10.8275004"><ele>85.0</ele><time>2026-04-26T13:20:07.101Z</time></trkpt><trkpt lat="45.8439881" lon="10.8273701"><ele>85.0</ele><time>2026-04-26T13:20:08.102Z</time></trkpt><trkpt lat="45.8438957" lon="10.8272516"><ele>85.0</ele><time>2026-04-26T13:20:09.102Z</time></trkpt><trkpt lat="45.8437954" lon="10.8271327"><ele>85.0</ele><time>2026-04-26T13:20:10.102Z</time></trkpt><trkpt lat="45.8436926" lon="10.8270261"><ele>85.0</ele><time>2026-04-26T13:20:11.102Z</time></trkpt><trkpt lat="45.8435785" lon="10.8269313"><ele>87.0</ele><time>2026-04-26T13:20:12.102Z</time></trkpt><trkpt lat="45.8434588" lon="10.8268476"><ele>89.0</ele><time>2026-04-26T13:20:13.102Z</time></trkpt><trkpt lat="45.8433388" lon="10.8267702"><ele>91.0</ele><time>2026-04-26T13:20:14.102Z</time></trkpt><trkpt lat="45.8432131" lon="10.826696"><ele>93.0</ele><time>2026-04-26T13:20:15.102Z</time></trkpt><trkpt lat="45.8430859" lon="10.8266237"><ele>93.0</ele><time>2026-04-26T13:20:16.102Z</time></trkpt><trkpt lat="45.8429577" lon="10.826555"><ele>93.0</ele><time>2026-04-26T13:20:17.102Z</time></trkpt><trkpt lat="45.8428323" lon="10.8264925"><ele>93.0</ele><time>2026-04-26T13:20:18.101Z</time></trkpt><trkpt lat="45.8427141" lon="10.8264434"><ele>93.0</ele><time>2026-04-26T13:20:19.102Z</time></trkpt><trkpt lat="45.8425948" lon="10.8264005"><ele>87.75</ele><time>2026-04-26T13:20:20.102Z</time></trkpt><trkpt lat="45.8424817" lon="10.8263579"><ele>82.5</ele><time>2026-04-26T13:20:21.102Z</time></trkpt><trkpt lat="45.8423695" lon="10.8263115"><ele>77.25</ele><time>2026-04-26T13:20:22.102Z</time></trkpt><trkpt lat="45.842257" lon="10.8262469"><ele>72.0</ele><time>2026-04-26T13:20:23.102Z</time></trkpt><trkpt lat="45.8421507" lon="10.8261646"><ele>72.0</ele><time>2026-04-26T13:20:24.102Z</time></trkpt><trkpt lat="45.8420538" lon="10.8260822"><ele>72.0</ele><time>2026-04-26T13:20:25.102Z</time></trkpt><trkpt lat="45.8419435" lon="10.8260001"><ele>72.0</ele><time>2026-04-26T13:20:26.102Z</time></trkpt><trkpt lat="45.8418259" lon="10.8259284"><ele>72.0</ele><time>2026-04-26T13:20:27.101Z</time></trkpt><trkpt lat="45.8417068" lon="10.825873"><ele>77.0</ele><time>2026-04-26T13:20:28.102Z</time></trkpt><trkpt lat="45.8415865" lon="10.8258279"><ele>82.0</ele><time>2026-04-26T13:20:29.102Z</time></trkpt><trkpt lat="45.841457" lon="10.8258019"><ele>87.0</ele><time>2026-04-26T13:20:30.102Z</time></trkpt><trkpt lat="45.8413352" lon="10.825775"><ele>92.0</ele><time>2026-04-26T13:20:31.102Z</time></trkpt><trkpt lat="45.8412142" lon="10.825748"><ele>92.0</ele><time>2026-04-26T13:20:32.102Z</time></trkpt><trkpt lat="45.8411037" lon="10.8257081"><ele>92.0</ele><time>2026-04-26T13:20:33.101Z</time></trkpt><trkpt lat="45.8409767" lon="10.8256851"><ele>92.0</ele><time>2026-04-26T13:20:34.102Z</time></trkpt><trkpt lat="45.8408532" lon="10.8256999"><ele>92.0</ele><time>2026-04-26T13:20:35.101Z</time></trkpt><trkpt lat="45.8407413" lon="10.8257271"><ele>89.75</ele><time>2026-04-26T13:20:36.102Z</time></trkpt><trkpt lat="45.8406253" lon="10.8257649"><ele>87.5</ele><time>2026-04-26T13:20:37.101Z</time></trkpt><trkpt lat="45.8405081" lon="10.8258101"><ele>85.25</ele><time>2026-04-26T13:20:38.102Z</time></trkpt><trkpt lat="45.8403871" lon="10.8258585"><ele>83.0</ele><time>2026-04-26T13:20:39.102Z</time></trkpt><trkpt lat="45.8402638" lon="10.825904"><ele>83.0</ele><time>2026-04-26T13:20:40.101Z</time></trkpt><trkpt lat="45.840141" lon="10.825947"><ele>83.0</ele><time>2026-04-26T13:20:41.102Z</time></trkpt><trkpt lat="45.8400198" lon="10.8259792"><ele>83.0</ele><time>2026-04-26T13:20:42.102Z</time></trkpt><trkpt lat="45.8398959" lon="10.8260041"><ele>83.0</ele><time>2026-04-26T13:20:43.102Z</time></trkpt><trkpt lat="45.8397718" lon="10.826018"><ele>86.0</ele><time>2026-04-26T13:20:44.101Z</time></trkpt><trkpt lat="45.8396473" lon="10.8260216"><ele>89.0</ele><time>2026-04-26T13:20:45.101Z</time></trkpt><trkpt lat="45.8395198" lon="10.8260183"><ele>92.0</ele><time>2026-04-26T13:20:46.102Z</time></trkpt><trkpt lat="45.839389" lon="10.8259991"><ele>95.0</ele><time>2026-04-26T13:20:47.102Z</time></trkpt><trkpt lat="45.8392607" lon="10.8259777"><ele>95.0</ele><time>2026-04-26T13:20:48.101Z</time></trkpt><trkpt lat="45.8391351" lon="10.8259538"><ele>95.0</ele><time>2026-04-26T13:20:49.102Z</time></trkpt><trkpt lat="45.8390107" lon="10.8259269"><ele>95.0</ele><time>2026-04-26T13:20:50.102Z</time></trkpt><trkpt lat="45.8388742" lon="10.8259028"><ele>95.0</ele><time>2026-04-26T13:20:51.102Z</time></trkpt><trkpt lat="45.8385449" lon="10.8258383"><ele>95.0</ele><time>2026-04-26T13:20:54.102Z</time></trkpt><trkpt lat="45.8384772" lon="10.8257907"><ele>95.0</ele><time>2026-04-26T13:20:55.102Z</time></trkpt><trkpt lat="45.8383859" lon="10.8257616"><ele>95.0</ele><time>2026-04-26T13:20:56.102Z</time></trkpt><trkpt lat="45.838282" lon="10.8257215"><ele>95.0</ele><time>2026-04-26T13:20:57.102Z</time></trkpt><trkpt lat="45.8381797" lon="10.8256951"><ele>95.0</ele><time>2026-04-26T13:20:58.101Z</time></trkpt><trkpt lat="45.838074" lon="10.8256716"><ele>86.75</ele><time>2026-04-26T13:20:59.102Z</time></trkpt><trkpt lat="45.8379649" lon="10.8256386"><ele>78.5</ele><time>2026-04-26T13:21:00.102Z</time></trkpt><trkpt lat="45.8378537" lon="10.8256113"><ele>70.25</ele><time>2026-04-26T13:21:01.102Z</time></trkpt><trkpt lat="45.837738" lon="10.8255716"><ele>62.0</ele><time>2026-04-26T13:21:02.102Z</time></trkpt><trkpt lat="45.8376203" lon="10.8255377"><ele>62.0</ele><time>2026-04-26T13:21:03.102Z</time></trkpt><trkpt lat="45.837507" lon="10.8254918"><ele>62.0</ele><time>2026-04-26T13:21:04.102Z</time></trkpt><trkpt lat="45.8373862" lon="10.8254451"><ele>62.0</ele><time>2026-04-26T13:21:05.102Z</time></trkpt><trkpt lat="45.8372644" lon="10.8254015"><ele>62.0</ele><time>2026-04-26T13:21:06.101Z</time></trkpt><trkpt lat="45.8371426" lon="10.8253614"><ele>62.0</ele><time>2026-04-26T13:21:07.102Z</time></trkpt><trkpt lat="45.8339298" lon="10.8254633"><ele>62.0</ele><time>2026-04-26T13:21:31.102Z</time></trkpt><trkpt lat="45.8338087" lon="10.8254302"><ele>62.0</ele><time>2026-04-26T13:21:32.102Z</time></trkpt><trkpt lat="45.8337005" lon="10.8253896"><ele>62.0</ele><time>2026-04-26T13:21:33.102Z</time></trkpt><trkpt lat="45.8335946" lon="10.8253662"><ele>62.0</ele><time>2026-04-26T13:21:34.101Z</time></trkpt><trkpt lat="45.8334956" lon="10.8253372"><ele>62.0</ele><time>2026-04-26T13:21:35.102Z</time></trkpt><trkpt lat="45.8334017" lon="10.8253068"><ele>62.6</ele><time>2026-04-26T13:21:36.101Z</time></trkpt><trkpt lat="45.8333049" lon="10.8252758"><ele>63.2</ele><time>2026-04-26T13:21:37.102Z</time></trkpt><trkpt lat="45.833202" lon="10.8252429"><ele>63.8</ele><time>2026-04-26T13:21:38.102Z</time></trkpt><trkpt lat="45.8330982" lon="10.8252089"><ele>64.4</ele><time>2026-04-26T13:21:39.102Z</time></trkpt><trkpt lat="45.8329906" lon="10.8251618"><ele>65.0</ele><time>2026-04-26T13:21:40.101Z</time></trkpt><trkpt lat="45.8328798" lon="10.8251039"><ele>71.0</ele><time>2026-04-26T13:21:41.102Z</time></trkpt><trkpt lat="45.8327702" lon="10.8250373"><ele>77.0</ele><time>2026-04-26T13:21:42.102Z</time></trkpt><trkpt lat="45.8326552" lon="10.824971"><ele>83.0</ele><time>2026-04-26T13:21:43.102Z</time></trkpt><trkpt lat="45.832538" lon="10.824905"><ele>89.0</ele><time>2026-04-26T13:21:44.102Z</time></trkpt><trkpt lat="45.8324224" lon="10.824844"><ele>89.0</ele><time>2026-04-26T13:21:45.102Z</time></trkpt><trkpt lat="45.832316" lon="10.8247828"><ele>89.0</ele><time>2026-04-26T13:21:46.102Z</time></trkpt><trkpt lat="45.8322216" lon="10.8247122"><ele>89.0</ele><time>2026-04-26T13:21:47.102Z</time></trkpt><trkpt lat="45.832124" lon="10.8246272"><ele>89.0</ele><time>2026-04-26T13:21:48.101Z</time></trkpt><trkpt lat="45.832032" lon="10.8245234"><ele>89.0</ele><time>2026-04-26T13:21:49.102Z</time></trkpt><trkpt lat="45.8319455" lon="10.8244082"><ele>89.0</ele><time>2026-04-26T13:21:50.101Z</time></trkpt><trkpt lat="45.8318613" lon="10.8242874"><ele>89.0</ele><time>2026-04-26T13:21:51.102Z</time></trkpt><trkpt lat="45.8317724" lon="10.8241637"><ele>89.0</ele><time>2026-04-26T13:21:52.101Z</time></trkpt><trkpt lat="45.8316835" lon="10.8240296"><ele>89.2</ele><time>2026-04-26T13:21:53.102Z</time></trkpt><trkpt lat="45.831599" lon="10.8239055"><ele>89.4</ele><time>2026-04-26T13:21:54.102Z</time></trkpt><trkpt lat="45.8315226" lon="10.8237886"><ele>89.6</ele><time>2026-04-26T13:21:55.102Z</time></trkpt><trkpt lat="45.8314508" lon="10.8236791"><ele>89.8</ele><time>2026-04-26T13:21:56.102Z</time></trkpt><trkpt lat="45.8313827" lon="10.8235714"><ele>90.0</ele><time>2026-04-26T13:21:57.102Z</time></trkpt><trkpt lat="45.8313096" lon="10.8234616"><ele>89.75</ele><time>2026-04-26T13:21:58.102Z</time></trkpt><trkpt lat="45.8312286" lon="10.8233607"><ele>89.5</ele><time>2026-04-26T13:21:59.102Z</time></trkpt><trkpt lat="45.8311393" lon="10.8232624"><ele>89.25</ele><time>2026-04-26T13:22:00.102Z</time></trkpt><trkpt lat="45.831042" lon="10.8231719"><ele>89.0</ele><time>2026-04-26T13:22:01.101Z</time></trkpt><trkpt lat="45.8309403" lon="10.8230933"><ele>89.0</ele><time>2026-04-26T13:22:02.101Z</time></trkpt><trkpt lat="45.8308327" lon="10.8230248"><ele>89.0</ele><time>2026-04-26T13:22:03.102Z</time></trkpt><trkpt lat="45.8307217" lon="10.8229641"><ele>89.0</ele><time>2026-04-26T13:22:04.102Z</time></trkpt><trkpt lat="45.8306091" lon="10.8229074"><ele>89.0</ele><time>2026-04-26T13:22:05.102Z</time></trkpt><trkpt lat="45.8304942" lon="10.8228538"><ele>89.0</ele><time>2026-04-26T13:22:06.102Z</time></trkpt><trkpt lat="45.8303826" lon="10.8227974"><ele>89.0</ele><time>2026-04-26T13:22:07.102Z</time></trkpt><trkpt lat="45.8302704" lon="10.8227464"><ele>89.0</ele><time>2026-04-26T13:22:08.101Z</time></trkpt><trkpt lat="45.8301613" lon="10.822693"><ele>89.0</ele><time>2026-04-26T13:22:09.101Z</time></trkpt><trkpt lat="45.8300492" lon="10.82264"><ele>93.5</ele><time>2026-04-26T13:22:10.102Z</time></trkpt><trkpt lat="45.8299344" lon="10.8225841"><ele>98.0</ele><time>2026-04-26T13:22:11.102Z</time></trkpt><trkpt lat="45.8298156" lon="10.8225272"><ele>102.5</ele><time>2026-04-26T13:22:12.102Z</time></trkpt><trkpt lat="45.8296995" lon="10.8224621"><ele>107.0</ele><time>2026-04-26T13:22:13.102Z</time></trkpt><trkpt lat="45.8295815" lon="10.8223872"><ele>107.0</ele><time>2026-04-26T13:22:14.102Z</time></trkpt><trkpt lat="45.8294682" lon="10.8223046"><ele>107.0</ele><time>2026-04-26T13:22:15.102Z</time></trkpt><trkpt lat="45.829366" lon="10.8221984"><ele>107.0</ele><time>2026-04-26T13:22:16.102Z</time></trkpt><trkpt lat="45.8292501" lon="10.8221159"><ele>107.0</ele><time>2026-04-26T13:22:17.102Z</time></trkpt><trkpt lat="45.8291431" lon="10.8220285"><ele>109.5</ele><time>2026-04-26T13:22:18.102Z</time></trkpt><trkpt lat="45.8288674" lon="10.8215491"><ele>112.0</ele><time>2026-04-26T13:22:22.102Z</time></trkpt><trkpt lat="45.8287939" lon="10.8214303"><ele>112.0</ele><time>2026-04-26T13:22:23.102Z</time></trkpt><trkpt lat="45.8287146" lon="10.8213351"><ele>111.99999999999999</ele><time>2026-04-26T13:22:24.102Z</time></trkpt><trkpt lat="45.8286318" lon="10.8212486"><ele>111.99999999999999</ele><time>2026-04-26T13:22:25.102Z</time></trkpt><trkpt lat="45.8285504" lon="10.8211619"><ele>112.0</ele><time>2026-04-26T13:22:26.102Z</time></trkpt><trkpt lat="45.8284681" lon="10.8210724"><ele>112.0</ele><time>2026-04-26T13:22:27.102Z</time></trkpt><trkpt lat="45.8283863" lon="10.8209775"><ele>109.25</ele><time>2026-04-26T13:22:28.102Z</time></trkpt><trkpt lat="45.8283063" lon="10.8208794"><ele>106.5</ele><time>2026-04-26T13:22:29.102Z</time></trkpt><trkpt lat="45.8282243" lon="10.8207691"><ele>103.75</ele><time>2026-04-26T13:22:30.102Z</time></trkpt><trkpt lat="45.8281469" lon="10.8206472"><ele>101.0</ele><time>2026-04-26T13:22:31.101Z</time></trkpt><trkpt lat="45.8280738" lon="10.8205086"><ele>101.0</ele><time>2026-04-26T13:22:32.102Z</time></trkpt><trkpt lat="45.8280085" lon="10.8203724"><ele>101.0</ele><time>2026-04-26T13:22:33.102Z</time></trkpt><trkpt lat="45.8279501" lon="10.820224"><ele>101.0</ele><time>2026-04-26T13:22:34.101Z</time></trkpt><trkpt lat="45.827896" lon="10.820074"><ele>101.0</ele><time>2026-04-26T13:22:35.102Z</time></trkpt><trkpt lat="45.8278496" lon="10.819919"><ele>107.0</ele><time>2026-04-26T13:22:36.102Z</time></trkpt><trkpt lat="45.8278115" lon="10.8197613"><ele>113.0</ele><time>2026-04-26T13:22:37.101Z</time></trkpt><trkpt lat="45.8277808" lon="10.8196064"><ele>119.0</ele><time>2026-04-26T13:22:38.102Z</time></trkpt><trkpt lat="45.8277569" lon="10.8194415"><ele>125.0</ele><time>2026-04-26T13:22:39.102Z</time></trkpt><trkpt lat="45.8277419" lon="10.8192825"><ele>127.2</ele><time>2026-04-26T13:22:40.101Z</time></trkpt><trkpt lat="45.8277322" lon="10.8191269"><ele>129.4</ele><time>2026-04-26T13:22:41.102Z</time></trkpt><trkpt lat="45.8277294" lon="10.8189638"><ele>131.6</ele><time>2026-04-26T13:22:42.102Z</time></trkpt><trkpt lat="45.8277305" lon="10.8188005"><ele>133.8</ele><time>2026-04-26T13:22:43.102Z</time></trkpt><trkpt lat="45.8277358" lon="10.8186531"><ele>136.0</ele><time>2026-04-26T13:22:44.102Z</time></trkpt><trkpt lat="45.8277401" lon="10.8185113"><ele>137.2</ele><time>2026-04-26T13:22:45.102Z</time></trkpt><trkpt lat="45.8277445" lon="10.8183812"><ele>138.39999999999998</ele><time>2026-04-26T13:22:46.101Z</time></trkpt><trkpt lat="45.8277474" lon="10.8182532"><ele>139.6</ele><time>2026-04-26T13:22:47.102Z</time></trkpt><trkpt lat="45.8277507" lon="10.8181227"><ele>140.79999999999998</ele><time>2026-04-26T13:22:48.102Z</time></trkpt><trkpt lat="45.827753" lon="10.8179907"><ele>142.0</ele><time>2026-04-26T13:22:49.102Z</time></trkpt><trkpt lat="45.8277505" lon="10.8178561"><ele>142.0</ele><time>2026-04-26T13:22:50.102Z</time></trkpt><trkpt lat="45.8277431" lon="10.8177291"><ele>142.0</ele><time>2026-04-26T13:22:51.102Z</time></trkpt><trkpt lat="45.8277255" lon="10.8176012"><ele>142.0</ele><time>2026-04-26T13:22:52.102Z</time></trkpt><trkpt lat="45.8277042" lon="10.8174814"><ele>142.0</ele><time>2026-04-26T13:22:53.102Z</time></trkpt><trkpt lat="45.827677" lon="10.8173623"><ele>142.0</ele><time>2026-04-26T13:22:54.102Z</time></trkpt><trkpt lat="45.8276481" lon="10.8172438"><ele>142.0</ele><time>2026-04-26T13:22:55.102Z</time></trkpt><trkpt lat="45.8276112" lon="10.8171342"><ele>139.83333333333334</ele><time>2026-04-26T13:22:56.102Z</time></trkpt><trkpt lat="45.8275711" lon="10.8170307"><ele>137.66666666666669</ele><time>2026-04-26T13:22:57.102Z</time></trkpt><trkpt lat="45.8275241" lon="10.816933"><ele>135.5</ele><time>2026-04-26T13:22:58.102Z</time></trkpt><trkpt lat="45.8274754" lon="10.8168371"><ele>133.33333333333334</ele><time>2026-04-26T13:22:59.102Z</time></trkpt><trkpt lat="45.8274349" lon="10.8167491"><ele>131.16666666666666</ele><time>2026-04-26T13:23:00.101Z</time></trkpt><trkpt lat="45.8273984" lon="10.8166693"><ele>129.0</ele><time>2026-04-26T13:23:01.102Z</time></trkpt><trkpt lat="45.8273603" lon="10.8165956"><ele>129.0</ele><time>2026-04-26T13:23:02.102Z</time></trkpt><trkpt lat="45.8272816" lon="10.8164655"><ele>129.0</ele><time>2026-04-26T13:23:04.102Z</time></trkpt><trkpt lat="45.8271999" lon="10.8163397"><ele>129.0</ele><time>2026-04-26T13:23:06.102Z</time></trkpt><trkpt lat="45.8271092" lon="10.8162237"><ele>129.0</ele><time>2026-04-26T13:23:08.101Z</time></trkpt><trkpt lat="45.8270564" lon="10.8161661"><ele>129.0</ele><time>2026-04-26T13:23:09.102Z</time></trkpt><trkpt lat="45.826995" lon="10.8161083"><ele>129.0</ele><time>2026-04-26T13:23:10.102Z</time></trkpt><trkpt lat="45.8269309" lon="10.8160434"><ele>129.0</ele><time>2026-04-26T13:23:11.102Z</time></trkpt><trkpt lat="45.8268622" lon="10.815979"><ele>129.0</ele><time>2026-04-26T13:23:12.102Z</time></trkpt><trkpt lat="45.8267871" lon="10.815914"><ele>129.0</ele><time>2026-04-26T13:23:13.102Z</time></trkpt><trkpt lat="45.8267031" lon="10.8158483"><ele>129.0</ele><time>2026-04-26T13:23:14.102Z</time></trkpt><trkpt lat="45.8266206" lon="10.815781"><ele>129.0</ele><time>2026-04-26T13:23:15.102Z</time></trkpt><trkpt lat="45.8265391" lon="10.815714"><ele>126.66666666666667</ele><time>2026-04-26T13:23:16.102Z</time></trkpt><trkpt lat="45.8264626" lon="10.8156489"><ele>124.33333333333334</ele><time>2026-04-26T13:23:17.102Z</time></trkpt><trkpt lat="45.8263964" lon="10.8155815"><ele>122.0</ele><time>2026-04-26T13:23:18.102Z</time></trkpt><trkpt lat="45.8263339" lon="10.815514"><ele>119.66666666666667</ele><time>2026-04-26T13:23:19.102Z</time></trkpt><trkpt lat="45.8262725" lon="10.8154434"><ele>117.33333333333334</ele><time>2026-04-26T13:23:20.102Z</time></trkpt><trkpt lat="45.8262057" lon="10.8153626"><ele>115.0</ele><time>2026-04-26T13:23:21.102Z</time></trkpt><trkpt lat="45.8261495" lon="10.81528"><ele>114.99999999999999</ele><time>2026-04-26T13:23:22.102Z</time></trkpt><trkpt lat="45.8261005" lon="10.8151956"><ele>115.0</ele><time>2026-04-26T13:23:23.102Z</time></trkpt><trkpt lat="45.8260577" lon="10.8151158"><ele>114.99999999999999</ele><time>2026-04-26T13:23:24.101Z</time></trkpt><trkpt lat="45.8260218" lon="10.815033"><ele>114.99999999999999</ele><time>2026-04-26T13:23:25.102Z</time></trkpt><trkpt lat="45.8259869" lon="10.8149502"><ele>115.0</ele><time>2026-04-26T13:23:26.102Z</time></trkpt><trkpt lat="45.8259531" lon="10.8148635"><ele>114.99999999999999</ele><time>2026-04-26T13:23:27.102Z</time></trkpt><trkpt lat="45.825916" lon="10.8147692"><ele>114.99999999999999</ele><time>2026-04-26T13:23:28.102Z</time></trkpt><trkpt lat="45.8258791" lon="10.8146686"><ele>113.50000000000001</ele><time>2026-04-26T13:23:29.102Z</time></trkpt><trkpt lat="45.8258419" lon="10.8145698"><ele>112.0</ele><time>2026-04-26T13:23:30.102Z</time></trkpt><trkpt lat="45.8257998" lon="10.8144738"><ele>110.5</ele><time>2026-04-26T13:23:31.101Z</time></trkpt><trkpt lat="45.8257548" lon="10.814381"><ele>109.0</ele><time>2026-04-26T13:23:32.101Z</time></trkpt><trkpt lat="45.8257068" lon="10.8142919"><ele>107.50000000000001</ele><time>2026-04-26T13:23:33.102Z</time></trkpt><trkpt lat="45.825657" lon="10.8142064"><ele>106.0</ele><time>2026-04-26T13:23:34.102Z</time></trkpt><trkpt lat="45.8256077" lon="10.814127"><ele>109.14285714285714</ele><time>2026-04-26T13:23:35.102Z</time></trkpt><trkpt lat="45.8255603" lon="10.8140499"><ele>112.28571428571428</ele><time>2026-04-26T13:23:36.102Z</time></trkpt><trkpt lat="45.825505" lon="10.8139756"><ele>115.42857142857142</ele><time>2026-04-26T13:23:37.102Z</time></trkpt><trkpt lat="45.8254464" lon="10.8139042"><ele>118.57142857142857</ele><time>2026-04-26T13:23:38.102Z</time></trkpt><trkpt lat="45.8253862" lon="10.8138355"><ele>121.7142857142857</ele><time>2026-04-26T13:23:39.102Z</time></trkpt><trkpt lat="45.8253316" lon="10.8137741"><ele>124.85714285714285</ele><time>2026-04-26T13:23:40.102Z</time></trkpt><trkpt lat="45.8252795" lon="10.8137151"><ele>128.0</ele><time>2026-04-26T13:23:41.101Z</time></trkpt><trkpt lat="45.8252287" lon="10.8136579"><ele>128.0</ele><time>2026-04-26T13:23:42.101Z</time></trkpt><trkpt lat="45.8251778" lon="10.8136039"><ele>127.99999999999999</ele><time>2026-04-26T13:23:43.102Z</time></trkpt><trkpt lat="45.8251268" lon="10.8135473"><ele>128.0</ele><time>2026-04-26T13:23:44.102Z</time></trkpt><trkpt lat="45.8250728" lon="10.8134864"><ele>128.0</ele><time>2026-04-26T13:23:45.102Z</time></trkpt><trkpt lat="45.825019" lon="10.8134153"><ele>127.99999999999999</ele><time>2026-04-26T13:23:46.102Z</time></trkpt><trkpt lat="45.8249641" lon="10.8133401"><ele>128.0</ele><time>2026-04-26T13:23:47.102Z</time></trkpt><trkpt lat="45.8249113" lon="10.813253"><ele>128.0</ele><time>2026-04-26T13:23:48.102Z</time></trkpt><trkpt lat="45.824863" lon="10.8131625"><ele>128.16666666666666</ele><time>2026-04-26T13:23:49.102Z</time></trkpt><trkpt lat="45.8248132" lon="10.8130672"><ele>128.33333333333331</ele><time>2026-04-26T13:23:50.101Z</time></trkpt><trkpt lat="45.8247738" lon="10.8129731"><ele>128.5</ele><time>2026-04-26T13:23:51.102Z</time></trkpt><trkpt lat="45.8247426" lon="10.8128859"><ele>128.66666666666666</ele><time>2026-04-26T13:23:52.102Z</time></trkpt><trkpt lat="45.8247172" lon="10.8128014"><ele>128.83333333333334</ele><time>2026-04-26T13:23:53.102Z</time></trkpt><trkpt lat="45.8246732" lon="10.8126337"><ele>129.0</ele><time>2026-04-26T13:23:55.102Z</time></trkpt><trkpt lat="45.8246497" lon="10.8125389"><ele>128.99999999999997</ele><time>2026-04-26T13:23:56.102Z</time></trkpt><trkpt lat="45.8246317" lon="10.812445"><ele>129.0</ele><time>2026-04-26T13:23:57.101Z</time></trkpt><trkpt lat="45.8246134" lon="10.8123484"><ele>129.0</ele><time>2026-04-26T13:23:58.102Z</time></trkpt><trkpt lat="45.8245936" lon="10.8122514"><ele>129.0</ele><time>2026-04-26T13:23:59.102Z</time></trkpt><trkpt lat="45.8245712" lon="10.8121566"><ele>129.0</ele><time>2026-04-26T13:24:00.101Z</time></trkpt><trkpt lat="45.8245516" lon="10.8120597"><ele>128.99999999999997</ele><time>2026-04-26T13:24:01.102Z</time></trkpt><trkpt lat="45.8245241" lon="10.8119573"><ele>129.0</ele><time>2026-04-26T13:24:02.102Z</time></trkpt><trkpt lat="45.8244966" lon="10.8118491"><ele>130.0</ele><time>2026-04-26T13:24:03.102Z</time></trkpt><trkpt lat="45.8244745" lon="10.8117432"><ele>131.0</ele><time>2026-04-26T13:24:04.102Z</time></trkpt><trkpt lat="45.8244515" lon="10.8116419"><ele>132.0</ele><time>2026-04-26T13:24:05.102Z</time></trkpt><trkpt lat="45.8244284" lon="10.8115422"><ele>133.0</ele><time>2026-04-26T13:24:06.101Z</time></trkpt><trkpt lat="45.8244032" lon="10.8114319"><ele>134.0</ele><time>2026-04-26T13:24:07.102Z</time></trkpt><trkpt lat="45.8243737" lon="10.8113114"><ele>135.0</ele><time>2026-04-26T13:24:08.102Z</time></trkpt><trkpt lat="45.8243459" lon="10.8111832"><ele>135.0</ele><time>2026-04-26T13:24:09.102Z</time></trkpt><trkpt lat="45.8243229" lon="10.8110661"><ele>135.0</ele><time>2026-04-26T13:24:10.102Z</time></trkpt><trkpt lat="45.8243013" lon="10.8109607"><ele>135.0</ele><time>2026-04-26T13:24:11.102Z</time></trkpt><trkpt lat="45.8242842" lon="10.8108664"><ele>135.0</ele><time>2026-04-26T13:24:12.102Z</time></trkpt><trkpt lat="45.8242546" lon="10.810707"><ele>135.0</ele><time>2026-04-26T13:24:14.102Z</time></trkpt><trkpt lat="45.8242442" lon="10.810616"><ele>135.0</ele><time>2026-04-26T13:24:15.102Z</time></trkpt><trkpt lat="45.8242364" lon="10.8105213"><ele>130.5</ele><time>2026-04-26T13:24:16.102Z</time></trkpt><trkpt lat="45.824227" lon="10.8104197"><ele>126.0</ele><time>2026-04-26T13:24:17.102Z</time></trkpt><trkpt lat="45.8242232" lon="10.810308"><ele>121.5</ele><time>2026-04-26T13:24:18.102Z</time></trkpt><trkpt lat="45.8242228" lon="10.8101914"><ele>117.0</ele><time>2026-04-26T13:24:19.102Z</time></trkpt><trkpt lat="45.8242261" lon="10.8100735"><ele>112.5</ele><time>2026-04-26T13:24:20.102Z</time></trkpt><trkpt lat="45.8242338" lon="10.8099501"><ele>108.0</ele><time>2026-04-26T13:24:21.102Z</time></trkpt><trkpt lat="45.824243" lon="10.8098233"><ele>108.0</ele><time>2026-04-26T13:24:22.102Z</time></trkpt><trkpt lat="45.8242515" lon="10.8096986"><ele>108.0</ele><time>2026-04-26T13:24:23.102Z</time></trkpt><trkpt lat="45.8242532" lon="10.809578"><ele>108.0</ele><time>2026-04-26T13:24:24.102Z</time></trkpt><trkpt lat="45.8242443" lon="10.8094475"><ele>108.0</ele><time>2026-04-26T13:24:25.101Z</time></trkpt><trkpt lat="45.8242182" lon="10.8093184"><ele>108.0</ele><time>2026-04-26T13:24:26.101Z</time></trkpt><trkpt lat="45.82418" lon="10.8091979"><ele>108.0</ele><time>2026-04-26T13:24:27.102Z</time></trkpt><trkpt lat="45.824132" lon="10.8090821"><ele>111.2</ele><time>2026-04-26T13:24:28.102Z</time></trkpt><trkpt lat="45.8240729" lon="10.8089758"><ele>114.4</ele><time>2026-04-26T13:24:29.101Z</time></trkpt><trkpt lat="45.8240024" lon="10.8088777"><ele>117.60000000000001</ele><time>2026-04-26T13:24:30.102Z</time></trkpt><trkpt lat="45.8239284" lon="10.8087842"><ele>120.80000000000001</ele><time>2026-04-26T13:24:31.101Z</time></trkpt><trkpt lat="45.8238539" lon="10.808692"><ele>124.0</ele><time>2026-04-26T13:24:32.101Z</time></trkpt><trkpt lat="45.8237679" lon="10.8085891"><ele>119.0</ele><time>2026-04-26T13:24:33.102Z</time></trkpt><trkpt lat="45.8236827" lon="10.8084818"><ele>114.0</ele><time>2026-04-26T13:24:34.101Z</time></trkpt><trkpt lat="45.8236007" lon="10.8083637"><ele>109.0</ele><time>2026-04-26T13:24:35.102Z</time></trkpt><trkpt lat="45.8235333" lon="10.8082493"><ele>104.0</ele><time>2026-04-26T13:24:36.102Z</time></trkpt><trkpt lat="45.823469" lon="10.8081314"><ele>99.0</ele><time>2026-04-26T13:24:37.102Z</time></trkpt><trkpt lat="45.8234059" lon="10.8079955"><ele>99.0</ele><time>2026-04-26T13:24:38.101Z</time></trkpt><trkpt lat="45.8233368" lon="10.8078396"><ele>99.0</ele><time>2026-04-26T13:24:39.102Z</time></trkpt><trkpt lat="45.8232848" lon="10.8077138"><ele>99.0</ele><time>2026-04-26T13:24:40.102Z</time></trkpt><trkpt lat="45.8232388" lon="10.8075761"><ele>99.0</ele><time>2026-04-26T13:24:41.102Z</time></trkpt><trkpt lat="45.8232105" lon="10.8074418"><ele>99.0</ele><time>2026-04-26T13:24:42.102Z</time></trkpt><trkpt lat="45.8231793" lon="10.8073078"><ele>108.0</ele><time>2026-04-26T13:24:43.101Z</time></trkpt><trkpt lat="45.8231492" lon="10.8071724"><ele>117.0</ele><time>2026-04-26T13:24:44.102Z</time></trkpt><trkpt lat="45.8231143" lon="10.807036"><ele>126.0</ele><time>2026-04-26T13:24:45.102Z</time></trkpt><trkpt lat="45.8230823" lon="10.8068995"><ele>135.0</ele><time>2026-04-26T13:24:46.102Z</time></trkpt><trkpt lat="45.8228267" lon="10.8057251"><ele>132.0</ele><time>2026-04-26T13:24:55.102Z</time></trkpt><trkpt lat="45.8227835" lon="10.8055849"><ele>129.0</ele><time>2026-04-26T13:24:56.102Z</time></trkpt><trkpt lat="45.822739" lon="10.805433"><ele>126.0</ele><time>2026-04-26T13:24:57.102Z</time></trkpt><trkpt lat="45.8226915" lon="10.8052988"><ele>123.0</ele><time>2026-04-26T13:24:58.102Z</time></trkpt><trkpt lat="45.8226502" lon="10.805163"><ele>120.0</ele><time>2026-04-26T13:24:59.102Z</time></trkpt><trkpt lat="45.822599" lon="10.8050175"><ele>120.0</ele><time>2026-04-26T13:25:00.102Z</time></trkpt><trkpt lat="45.8225542" lon="10.8048889"><ele>120.0</ele><time>2026-04-26T13:25:01.102Z</time></trkpt><trkpt lat="45.8225026" lon="10.8047677"><ele>120.0</ele><time>2026-04-26T13:25:02.102Z</time></trkpt><trkpt lat="45.8224434" lon="10.8046596"><ele>120.0</ele><time>2026-04-26T13:25:03.102Z</time></trkpt><trkpt lat="45.8223727" lon="10.804545"><ele>120.0</ele><time>2026-04-26T13:25:04.102Z</time></trkpt><trkpt lat="45.8222964" lon="10.8043944"><ele>124.25</ele><time>2026-04-26T13:25:05.102Z</time></trkpt><trkpt lat="45.8222214" lon="10.8042403"><ele>128.5</ele><time>2026-04-26T13:25:06.102Z</time></trkpt><trkpt lat="45.8221607" lon="10.8041033"><ele>132.75</ele><time>2026-04-26T13:25:07.102Z</time></trkpt><trkpt lat="45.822109" lon="10.8039488"><ele>137.0</ele><time>2026-04-26T13:25:08.102Z</time></trkpt><trkpt lat="45.8220536" lon="10.8037899"><ele>137.0</ele><time>2026-04-26T13:25:09.101Z</time></trkpt><trkpt lat="45.8219933" lon="10.8036279"><ele>137.0</ele><time>2026-04-26T13:25:10.102Z</time></trkpt><trkpt lat="45.8219322" lon="10.803466"><ele>137.0</ele><time>2026-04-26T13:25:11.102Z</time></trkpt><trkpt lat="45.8218731" lon="10.8033023"><ele>137.0</ele><time>2026-04-26T13:25:12.102Z</time></trkpt><trkpt lat="45.8218187" lon="10.8031443"><ele>132.4</ele><time>2026-04-26T13:25:13.101Z</time></trkpt><trkpt lat="45.8217698" lon="10.8029923"><ele>127.79999999999998</ele><time>2026-04-26T13:25:14.102Z</time></trkpt><trkpt lat="45.8217329" lon="10.8028454"><ele>123.2</ele><time>2026-04-26T13:25:15.101Z</time></trkpt><trkpt lat="45.8217053" lon="10.802692"><ele>118.6</ele><time>2026-04-26T13:25:16.102Z</time></trkpt><trkpt lat="45.821684" lon="10.8025361"><ele>114.0</ele><time>2026-04-26T13:25:17.102Z</time></trkpt><trkpt lat="45.8216719" lon="10.802377"><ele>114.0</ele><time>2026-04-26T13:25:18.102Z</time></trkpt><trkpt lat="45.821673" lon="10.8022216"><ele>114.0</ele><time>2026-04-26T13:25:19.102Z</time></trkpt><trkpt lat="45.821678" lon="10.8020745"><ele>114.0</ele><time>2026-04-26T13:25:20.102Z</time></trkpt><trkpt lat="45.821685" lon="10.8019212"><ele>114.0</ele><time>2026-04-26T13:25:21.102Z</time></trkpt><trkpt lat="45.8216938" lon="10.8017677"><ele>114.0</ele><time>2026-04-26T13:25:22.102Z</time></trkpt><trkpt lat="45.8216984" lon="10.8016116"><ele>113.80000000000001</ele><time>2026-04-26T13:25:23.101Z</time></trkpt><trkpt lat="45.8216973" lon="10.8014616"><ele>113.60000000000001</ele><time>2026-04-26T13:25:24.102Z</time></trkpt><trkpt lat="45.8216856" lon="10.8013106"><ele>113.4</ele><time>2026-04-26T13:25:25.101Z</time></trkpt><trkpt lat="45.8216567" lon="10.8011561"><ele>113.2</ele><time>2026-04-26T13:25:26.101Z</time></trkpt><trkpt lat="45.8216241" lon="10.8009984"><ele>113.0</ele><time>2026-04-26T13:25:27.102Z</time></trkpt><trkpt lat="45.8215849" lon="10.8008443"><ele>113.0</ele><time>2026-04-26T13:25:28.102Z</time></trkpt><trkpt lat="45.8215407" lon="10.8006871"><ele>113.0</ele><time>2026-04-26T13:25:29.102Z</time></trkpt><trkpt lat="45.8214863" lon="10.8005355"><ele>113.0</ele><time>2026-04-26T13:25:30.102Z</time></trkpt><trkpt lat="45.821426" lon="10.8003911"><ele>113.0</ele><time>2026-04-26T13:25:31.102Z</time></trkpt><trkpt lat="45.8213576" lon="10.8002585"><ele>117.25</ele><time>2026-04-26T13:25:32.102Z</time></trkpt><trkpt lat="45.8212786" lon="10.8001349"><ele>121.5</ele><time>2026-04-26T13:25:33.102Z</time></trkpt><trkpt lat="45.8211903" lon="10.8000199"><ele>125.75</ele><time>2026-04-26T13:25:34.102Z</time></trkpt><trkpt lat="45.8210975" lon="10.7999164"><ele>130.0</ele><time>2026-04-26T13:25:35.102Z</time></trkpt><trkpt lat="45.820998" lon="10.7998226"><ele>121.75</ele><time>2026-04-26T13:25:36.101Z</time></trkpt><trkpt lat="45.8209002" lon="10.7997302"><ele>113.5</ele><time>2026-04-26T13:25:37.101Z</time></trkpt><trkpt lat="45.8208042" lon="10.7996394"><ele>105.25</ele><time>2026-04-26T13:25:38.102Z</time></trkpt><trkpt lat="45.8207124" lon="10.7995398"><ele>97.0</ele><time>2026-04-26T13:25:39.102Z</time></trkpt><trkpt lat="45.8206271" lon="10.7994395"><ele>103.33333333333334</ele><time>2026-04-26T13:25:40.101Z</time></trkpt><trkpt lat="45.8205487" lon="10.7993263"><ele>109.66666666666666</ele><time>2026-04-26T13:25:41.102Z</time></trkpt><trkpt lat="45.8204776" lon="10.7992056"><ele>116.0</ele><time>2026-04-26T13:25:42.101Z</time></trkpt><trkpt lat="45.8197476" lon="10.7977926"><ele>127.0</ele><time>2026-04-26T13:25:50.101Z</time></trkpt><trkpt lat="45.8196925" lon="10.7976471"><ele>138.0</ele><time>2026-04-26T13:25:51.102Z</time></trkpt><trkpt lat="45.8196134" lon="10.7974744"><ele>149.0</ele><time>2026-04-26T13:25:52.102Z</time></trkpt><trkpt lat="45.8195288" lon="10.7973108"><ele>160.0</ele><time>2026-04-26T13:25:53.102Z</time></trkpt><trkpt lat="45.8194517" lon="10.797148"><ele>160.0</ele><time>2026-04-26T13:25:54.102Z</time></trkpt><trkpt lat="45.819382" lon="10.7969929"><ele>160.0</ele><time>2026-04-26T13:25:55.102Z</time></trkpt><trkpt lat="45.8193161" lon="10.7968491"><ele>160.0</ele><time>2026-04-26T13:25:56.101Z</time></trkpt><trkpt lat="45.8192555" lon="10.7967503"><ele>160.0</ele><time>2026-04-26T13:25:57.102Z</time></trkpt><trkpt lat="45.8191984" lon="10.7966633"><ele>160.0</ele><time>2026-04-26T13:25:58.101Z</time></trkpt><trkpt lat="45.8191493" lon="10.7965968"><ele>152.5</ele><time>2026-04-26T13:25:59.102Z</time></trkpt><trkpt lat="45.8190993" lon="10.7965394"><ele>145.0</ele><time>2026-04-26T13:26:00.102Z</time></trkpt><trkpt lat="45.8190053" lon="10.79644"><ele>137.5</ele><time>2026-04-26T13:26:02.101Z</time></trkpt><trkpt lat="45.8189456" lon="10.7963927"><ele>130.0</ele><time>2026-04-26T13:26:03.102Z</time></trkpt><trkpt lat="45.8188798" lon="10.7963429"><ele>122.50000000000001</ele><time>2026-04-26T13:26:04.102Z</time></trkpt><trkpt lat="45.8188162" lon="10.7962872"><ele>115.0</ele><time>2026-04-26T13:26:05.102Z</time></trkpt><trkpt lat="45.8187574" lon="10.79623"><ele>114.99999999999999</ele><time>2026-04-26T13:26:06.102Z</time></trkpt><trkpt lat="45.8186931" lon="10.7961736"><ele>115.0</ele><time>2026-04-26T13:26:07.102Z</time></trkpt><trkpt lat="45.8186262" lon="10.7961195"><ele>114.99999999999999</ele><time>2026-04-26T13:26:08.102Z</time></trkpt><trkpt lat="45.8185674" lon="10.7960689"><ele>114.99999999999999</ele><time>2026-04-26T13:26:09.102Z</time></trkpt><trkpt lat="45.8185077" lon="10.7960129"><ele>115.0</ele><time>2026-04-26T13:26:10.102Z</time></trkpt><trkpt lat="45.8184464" lon="10.7959535"><ele>114.99999999999999</ele><time>2026-04-26T13:26:11.102Z</time></trkpt><trkpt lat="45.8183827" lon="10.7958873"><ele>114.99999999999999</ele><time>2026-04-26T13:26:12.102Z</time></trkpt><trkpt lat="45.8183201" lon="10.7958087"><ele>112.2</ele><time>2026-04-26T13:26:13.102Z</time></trkpt><trkpt lat="45.8182555" lon="10.7957147"><ele>109.4</ele><time>2026-04-26T13:26:14.102Z</time></trkpt><trkpt lat="45.8181853" lon="10.7956039"><ele>106.6</ele><time>2026-04-26T13:26:15.102Z</time></trkpt><trkpt lat="45.81811" lon="10.7954808"><ele>103.8</ele><time>2026-04-26T13:26:16.101Z</time></trkpt><trkpt lat="45.8180326" lon="10.7953492"><ele>101.0</ele><time>2026-04-26T13:26:17.101Z</time></trkpt><trkpt lat="45.8179567" lon="10.7952163"><ele>107.0</ele><time>2026-04-26T13:26:18.102Z</time></trkpt><trkpt lat="45.8178805" lon="10.7950858"><ele>113.0</ele><time>2026-04-26T13:26:19.102Z</time></trkpt><trkpt lat="45.8178043" lon="10.7949621"><ele>119.0</ele><time>2026-04-26T13:26:20.102Z</time></trkpt><trkpt lat="45.817729" lon="10.794844"><ele>125.0</ele><time>2026-04-26T13:26:21.102Z</time></trkpt><trkpt lat="45.8176583" lon="10.794727"><ele>124.4</ele><time>2026-04-26T13:26:22.102Z</time></trkpt><trkpt lat="45.8175965" lon="10.794613"><ele>123.8</ele><time>2026-04-26T13:26:23.101Z</time></trkpt><trkpt lat="45.817543" lon="10.7945081"><ele>123.19999999999999</ele><time>2026-04-26T13:26:24.102Z</time></trkpt><trkpt lat="45.8174937" lon="10.7944054"><ele>122.6</ele><time>2026-04-26T13:26:25.102Z</time></trkpt><trkpt lat="45.8174461" lon="10.7942966"><ele>122.0</ele><time>2026-04-26T13:26:26.102Z</time></trkpt><trkpt lat="45.8173996" lon="10.7941777"><ele>122.0</ele><time>2026-04-26T13:26:27.101Z</time></trkpt><trkpt lat="45.8173546" lon="10.794054"><ele>121.99999999999999</ele><time>2026-04-26T13:26:28.102Z</time></trkpt><trkpt lat="45.8173117" lon="10.7939294"><ele>121.99999999999999</ele><time>2026-04-26T13:26:29.101Z</time></trkpt><trkpt lat="45.8172663" lon="10.793806"><ele>122.0</ele><time>2026-04-26T13:26:30.101Z</time></trkpt><trkpt lat="45.8172269" lon="10.7936775"><ele>122.0</ele><time>2026-04-26T13:26:31.102Z</time></trkpt><trkpt lat="45.8171844" lon="10.7935516"><ele>125.99999999999999</ele><time>2026-04-26T13:26:32.102Z</time></trkpt><trkpt lat="45.8171438" lon="10.7934326"><ele>130.0</ele><time>2026-04-26T13:26:33.101Z</time></trkpt><trkpt lat="45.8171047" lon="10.7933203"><ele>134.0</ele><time>2026-04-26T13:26:34.102Z</time></trkpt><trkpt lat="45.8170697" lon="10.7932178"><ele>138.0</ele><time>2026-04-26T13:26:35.101Z</time></trkpt><trkpt lat="45.8170367" lon="10.7931186"><ele>142.0</ele><time>2026-04-26T13:26:36.102Z</time></trkpt><trkpt lat="45.817" lon="10.7930295"><ele>146.0</ele><time>2026-04-26T13:26:37.102Z</time></trkpt><trkpt lat="45.8169601" lon="10.7929437"><ele>146.0</ele><time>2026-04-26T13:26:38.102Z</time></trkpt><trkpt lat="45.8169262" lon="10.7928601"><ele>146.0</ele><time>2026-04-26T13:26:39.102Z</time></trkpt><trkpt lat="45.8168909" lon="10.7927797"><ele>146.0</ele><time>2026-04-26T13:26:40.102Z</time></trkpt><trkpt lat="45.8153135" lon="10.7914145"><ele>141.4</ele><time>2026-04-26T13:26:55.102Z</time></trkpt><trkpt lat="45.81522" lon="10.7913919"><ele>136.8</ele><time>2026-04-26T13:26:56.102Z</time></trkpt><trkpt lat="45.8151238" lon="10.7913963"><ele>132.20000000000002</ele><time>2026-04-26T13:26:57.102Z</time></trkpt><trkpt lat="45.815039" lon="10.7913944"><ele>127.60000000000001</ele><time>2026-04-26T13:26:58.102Z</time></trkpt><trkpt lat="45.8149516" lon="10.791409"><ele>123.0</ele><time>2026-04-26T13:26:59.102Z</time></trkpt><trkpt lat="45.8148643" lon="10.7914167"><ele>119.16666666666667</ele><time>2026-04-26T13:27:00.102Z</time></trkpt><trkpt lat="45.8147733" lon="10.7914346"><ele>115.33333333333334</ele><time>2026-04-26T13:27:01.102Z</time></trkpt><trkpt lat="45.814684" lon="10.7914448"><ele>111.5</ele><time>2026-04-26T13:27:02.101Z</time></trkpt><trkpt lat="45.8145939" lon="10.791462"><ele>107.66666666666667</ele><time>2026-04-26T13:27:03.102Z</time></trkpt><trkpt lat="45.8145072" lon="10.7914897"><ele>103.83333333333334</ele><time>2026-04-26T13:27:04.102Z</time></trkpt><trkpt lat="45.8144229" lon="10.7915212"><ele>100.0</ele><time>2026-04-26T13:27:05.101Z</time></trkpt><trkpt lat="45.8143416" lon="10.7915529"><ele>99.83333333333334</ele><time>2026-04-26T13:27:06.102Z</time></trkpt><trkpt lat="45.8142617" lon="10.7915925"><ele>99.66666666666667</ele><time>2026-04-26T13:27:07.102Z</time></trkpt><trkpt lat="45.8141846" lon="10.7916343"><ele>99.5</ele><time>2026-04-26T13:27:08.102Z</time></trkpt><trkpt lat="45.8141094" lon="10.7916701"><ele>99.33333333333334</ele><time>2026-04-26T13:27:09.102Z</time></trkpt><trkpt lat="45.8140354" lon="10.7917113"><ele>99.16666666666667</ele><time>2026-04-26T13:27:10.102Z</time></trkpt><trkpt lat="45.8139583" lon="10.7917511"><ele>99.0</ele><time>2026-04-26T13:27:11.102Z</time></trkpt><trkpt lat="45.8138773" lon="10.7917943"><ele>99.0</ele><time>2026-04-26T13:27:12.102Z</time></trkpt><trkpt lat="45.8137952" lon="10.7918349"><ele>99.0</ele><time>2026-04-26T13:27:13.102Z</time></trkpt><trkpt lat="45.813713" lon="10.791875"><ele>99.0</ele><time>2026-04-26T13:27:14.102Z</time></trkpt><trkpt lat="45.8136273" lon="10.7919161"><ele>99.0</ele><time>2026-04-26T13:27:15.102Z</time></trkpt><trkpt lat="45.8135392" lon="10.7919631"><ele>99.0</ele><time>2026-04-26T13:27:16.102Z</time></trkpt><trkpt lat="45.8134538" lon="10.7920072"><ele>99.0</ele><time>2026-04-26T13:27:17.101Z</time></trkpt><trkpt lat="45.8133666" lon="10.7920542"><ele>97.80000000000001</ele><time>2026-04-26T13:27:18.102Z</time></trkpt><trkpt lat="45.8132769" lon="10.7920975"><ele>96.60000000000001</ele><time>2026-04-26T13:27:19.102Z</time></trkpt><trkpt lat="45.8131852" lon="10.7921322"><ele>95.4</ele><time>2026-04-26T13:27:20.102Z</time></trkpt><trkpt lat="45.8130848" lon="10.792164"><ele>94.2</ele><time>2026-04-26T13:27:21.101Z</time></trkpt><trkpt lat="45.8129844" lon="10.7921929"><ele>93.0</ele><time>2026-04-26T13:27:22.102Z</time></trkpt><trkpt lat="45.8128863" lon="10.7922154"><ele>93.0</ele><time>2026-04-26T13:27:23.102Z</time></trkpt><trkpt lat="45.8127948" lon="10.7922288"><ele>93.0</ele><time>2026-04-26T13:27:24.102Z</time></trkpt><trkpt lat="45.8127087" lon="10.7922425"><ele>93.0</ele><time>2026-04-26T13:27:25.101Z</time></trkpt><trkpt lat="45.8126315" lon="10.7922445"><ele>93.0</ele><time>2026-04-26T13:27:26.102Z</time></trkpt><trkpt lat="45.8125602" lon="10.7922527"><ele>93.0</ele><time>2026-04-26T13:27:27.102Z</time></trkpt><trkpt lat="45.8124625" lon="10.7922546"><ele>93.0</ele><time>2026-04-26T13:27:29.101Z</time></trkpt><trkpt lat="45.8123923" lon="10.7922518"><ele>93.5</ele><time>2026-04-26T13:27:31.102Z</time></trkpt><trkpt lat="45.8123077" lon="10.792241"><ele>94.0</ele><time>2026-04-26T13:27:34.102Z</time></trkpt><trkpt lat="45.8122224" lon="10.7922361"><ele>94.5</ele><time>2026-04-26T13:27:37.102Z</time></trkpt><trkpt lat="45.8121462" lon="10.7922197"><ele>95.0</ele><time>2026-04-26T13:27:39.102Z</time></trkpt><trkpt lat="45.8120799" lon="10.7922057"><ele>95.5</ele><time>2026-04-26T13:27:41.102Z</time></trkpt><trkpt lat="45.8119756" lon="10.7921867"><ele>96.0</ele><time>2026-04-26T13:27:44.102Z</time></trkpt><trkpt lat="45.8118596" lon="10.7921569"><ele>95.66666666666667</ele><time>2026-04-26T13:27:46.101Z</time></trkpt><trkpt lat="45.8117901" lon="10.7921318"><ele>95.33333333333333</ele><time>2026-04-26T13:27:47.102Z</time></trkpt><trkpt lat="45.8117125" lon="10.7921108"><ele>95.0</ele><time>2026-04-26T13:27:48.102Z</time></trkpt><trkpt lat="45.8116291" lon="10.7920847"><ele>94.66666666666666</ele><time>2026-04-26T13:27:49.102Z</time></trkpt><trkpt lat="45.811545" lon="10.7920543"><ele>94.33333333333333</ele><time>2026-04-26T13:27:50.102Z</time></trkpt><trkpt lat="45.81146" lon="10.7920277"><ele>94.0</ele><time>2026-04-26T13:27:51.101Z</time></trkpt><trkpt lat="45.8113755" lon="10.7920052"><ele>94.0</ele><time>2026-04-26T13:27:52.101Z</time></trkpt><trkpt lat="45.811295" lon="10.7919788"><ele>94.0</ele><time>2026-04-26T13:27:53.102Z</time></trkpt><trkpt lat="45.8112148" lon="10.7919474"><ele>94.0</ele><time>2026-04-26T13:27:54.102Z</time></trkpt><trkpt lat="45.8111369" lon="10.7919131"><ele>94.0</ele><time>2026-04-26T13:27:55.101Z</time></trkpt><trkpt lat="45.8110631" lon="10.7918749"><ele>94.0</ele><time>2026-04-26T13:27:56.102Z</time></trkpt><trkpt lat="45.8109911" lon="10.7918291"><ele>94.0</ele><time>2026-04-26T13:27:57.102Z</time></trkpt><trkpt lat="45.8109162" lon="10.7917768"><ele>94.4</ele><time>2026-04-26T13:27:58.102Z</time></trkpt><trkpt lat="45.8108371" lon="10.7917153"><ele>94.80000000000001</ele><time>2026-04-26T13:27:59.101Z</time></trkpt><trkpt lat="45.8107555" lon="10.7916478"><ele>95.19999999999999</ele><time>2026-04-26T13:28:00.102Z</time></trkpt><trkpt lat="45.8106763" lon="10.7915763"><ele>95.6</ele><time>2026-04-26T13:28:01.101Z</time></trkpt><trkpt lat="45.8106048" lon="10.7914888"><ele>96.0</ele><time>2026-04-26T13:28:02.101Z</time></trkpt><trkpt lat="45.8105349" lon="10.7914111"><ele>96.0</ele><time>2026-04-26T13:28:03.102Z</time></trkpt><trkpt lat="45.8104636" lon="10.7913396"><ele>96.0</ele><time>2026-04-26T13:28:04.102Z</time></trkpt><trkpt lat="45.8103962" lon="10.7912671"><ele>96.0</ele><time>2026-04-26T13:28:05.102Z</time></trkpt><trkpt lat="45.8103268" lon="10.7912058"><ele>96.0</ele><time>2026-04-26T13:28:06.102Z</time></trkpt><trkpt lat="45.8102613" lon="10.7911476"><ele>96.0</ele><time>2026-04-26T13:28:07.102Z</time></trkpt><trkpt lat="45.8101979" lon="10.7910904"><ele>96.0</ele><time>2026-04-26T13:28:08.102Z</time></trkpt><trkpt lat="45.810132" lon="10.7910364"><ele>95.66666666666667</ele><time>2026-04-26T13:28:09.102Z</time></trkpt><trkpt lat="45.8100616" lon="10.7909812"><ele>95.33333333333333</ele><time>2026-04-26T13:28:10.102Z</time></trkpt><trkpt lat="45.8099882" lon="10.7909238"><ele>95.0</ele><time>2026-04-26T13:28:11.102Z</time></trkpt><trkpt lat="45.8099188" lon="10.79087"><ele>94.66666666666666</ele><time>2026-04-26T13:28:12.102Z</time></trkpt><trkpt lat="45.8098573" lon="10.790818"><ele>94.33333333333333</ele><time>2026-04-26T13:28:13.102Z</time></trkpt><trkpt lat="45.8097932" lon="10.7907685"><ele>94.0</ele><time>2026-04-26T13:28:14.102Z</time></trkpt><trkpt lat="45.809732" lon="10.7907191"><ele>94.0</ele><time>2026-04-26T13:28:15.102Z</time></trkpt><trkpt lat="45.8096675" lon="10.7906667"><ele>94.0</ele><time>2026-04-26T13:28:16.102Z</time></trkpt><trkpt lat="45.8096017" lon="10.7906143"><ele>94.0</ele><time>2026-04-26T13:28:17.102Z</time></trkpt><trkpt lat="45.8095358" lon="10.7905618"><ele>94.0</ele><time>2026-04-26T13:28:18.102Z</time></trkpt><trkpt lat="45.8094682" lon="10.7905099"><ele>94.0</ele><time>2026-04-26T13:28:19.101Z</time></trkpt><trkpt lat="45.8094036" lon="10.7904589"><ele>94.0</ele><time>2026-04-26T13:28:20.101Z</time></trkpt><trkpt lat="45.8093455" lon="10.790408"><ele>94.0</ele><time>2026-04-26T13:28:21.102Z</time></trkpt><trkpt lat="45.8092442" lon="10.7903184"><ele>94.16666666666666</ele><time>2026-04-26T13:28:23.102Z</time></trkpt><trkpt lat="45.8091403" lon="10.7902276"><ele>94.33333333333333</ele><time>2026-04-26T13:28:25.102Z</time></trkpt><trkpt lat="45.8090504" lon="10.7901276"><ele>94.5</ele><time>2026-04-26T13:28:27.102Z</time></trkpt><trkpt lat="45.8090027" lon="10.7900684"><ele>94.66666666666667</ele><time>2026-04-26T13:28:28.102Z</time></trkpt><trkpt lat="45.8089498" lon="10.7900063"><ele>94.83333333333334</ele><time>2026-04-26T13:28:29.102Z</time></trkpt><trkpt lat="45.8088947" lon="10.7899502"><ele>95.0</ele><time>2026-04-26T13:28:30.102Z</time></trkpt><trkpt lat="45.8088383" lon="10.7898858"><ele>95.0</ele><time>2026-04-26T13:28:31.102Z</time></trkpt><trkpt lat="45.8087856" lon="10.7898157"><ele>95.0</ele><time>2026-04-26T13:28:32.102Z</time></trkpt><trkpt lat="45.8087342" lon="10.7897397"><ele>95.0</ele><time>2026-04-26T13:28:33.102Z</time></trkpt><trkpt lat="45.808685" lon="10.7896643"><ele>95.0</ele><time>2026-04-26T13:28:34.102Z</time></trkpt><trkpt lat="45.8086387" lon="10.7895831"><ele>95.0</ele><time>2026-04-26T13:28:35.102Z</time></trkpt><trkpt lat="45.8085914" lon="10.7895005"><ele>95.0</ele><time>2026-04-26T13:28:36.101Z</time></trkpt><trkpt lat="45.8085389" lon="10.7894092"><ele>95.0</ele><time>2026-04-26T13:28:37.102Z</time></trkpt><trkpt lat="45.808488" lon="10.7893128"><ele>94.16666666666667</ele><time>2026-04-26T13:28:38.101Z</time></trkpt><trkpt lat="45.8084404" lon="10.7892135"><ele>93.33333333333334</ele><time>2026-04-26T13:28:39.101Z</time></trkpt><trkpt lat="45.8083902" lon="10.7891119"><ele>92.5</ele><time>2026-04-26T13:28:40.101Z</time></trkpt><trkpt lat="45.808343" lon="10.7890086"><ele>91.66666666666667</ele><time>2026-04-26T13:28:41.102Z</time></trkpt><trkpt lat="45.8083002" lon="10.7889062"><ele>90.83333333333333</ele><time>2026-04-26T13:28:42.102Z</time></trkpt><trkpt lat="45.8082563" lon="10.7888153"><ele>90.0</ele><time>2026-04-26T13:28:43.102Z</time></trkpt><trkpt lat="45.8082178" lon="10.7887236"><ele>90.0</ele><time>2026-04-26T13:28:44.102Z</time></trkpt><trkpt lat="45.8081789" lon="10.7886365"><ele>90.0</ele><time>2026-04-26T13:28:45.102Z</time></trkpt><trkpt lat="45.8081376" lon="10.7885506"><ele>90.0</ele><time>2026-04-26T13:28:46.102Z</time></trkpt><trkpt lat="45.8080937" lon="10.7884696"><ele>90.0</ele><time>2026-04-26T13:28:47.102Z</time></trkpt><trkpt lat="45.8080495" lon="10.7883952"><ele>90.0</ele><time>2026-04-26T13:28:48.102Z</time></trkpt><trkpt lat="45.8079968" lon="10.7883186"><ele>90.0</ele><time>2026-04-26T13:28:49.101Z</time></trkpt><trkpt lat="45.8079416" lon="10.7882404"><ele>90.0</ele><time>2026-04-26T13:28:50.102Z</time></trkpt><trkpt lat="45.8078846" lon="10.7881668"><ele>90.42857142857143</ele><time>2026-04-26T13:28:51.102Z</time></trkpt><trkpt lat="45.80783" lon="10.7881018"><ele>90.85714285714286</ele><time>2026-04-26T13:28:52.102Z</time></trkpt><trkpt lat="45.8077778" lon="10.7880412"><ele>91.28571428571429</ele><time>2026-04-26T13:28:53.102Z</time></trkpt><trkpt lat="45.8077209" lon="10.7879834"><ele>91.71428571428572</ele><time>2026-04-26T13:28:54.101Z</time></trkpt><trkpt lat="45.8076601" lon="10.7879276"><ele>92.14285714285714</ele><time>2026-04-26T13:28:55.101Z</time></trkpt><trkpt lat="45.8075912" lon="10.7878713"><ele>92.57142857142858</ele><time>2026-04-26T13:28:56.102Z</time></trkpt><trkpt lat="45.8075174" lon="10.7878118"><ele>93.0</ele><time>2026-04-26T13:28:57.102Z</time></trkpt><trkpt lat="45.8074293" lon="10.7877538"><ele>93.5</ele><time>2026-04-26T13:28:58.102Z</time></trkpt><trkpt lat="45.8073262" lon="10.7876988"><ele>94.0</ele><time>2026-04-26T13:28:59.102Z</time></trkpt><trkpt lat="45.8071961" lon="10.7876481"><ele>94.5</ele><time>2026-04-26T13:29:00.102Z</time></trkpt><trkpt lat="45.8070403" lon="10.7875911"><ele>95.0</ele><time>2026-04-26T13:29:01.102Z</time></trkpt><trkpt lat="45.8068704" lon="10.7875279"><ele>93.33333333333334</ele><time>2026-04-26T13:29:02.102Z</time></trkpt><trkpt lat="45.8067107" lon="10.7874691"><ele>91.66666666666667</ele><time>2026-04-26T13:29:03.102Z</time></trkpt><trkpt lat="45.8065628" lon="10.7874247"><ele>90.0</ele><time>2026-04-26T13:29:04.102Z</time></trkpt><trkpt lat="45.8064162" lon="10.7873916"><ele>90.0</ele><time>2026-04-26T13:29:05.102Z</time></trkpt><trkpt lat="45.8062633" lon="10.7873734"><ele>90.0</ele><time>2026-04-26T13:29:06.102Z</time></trkpt><trkpt lat="45.8060901" lon="10.7873604"><ele>90.0</ele><time>2026-04-26T13:29:07.101Z</time></trkpt><trkpt lat="45.8059093" lon="10.7873525"><ele>89.0</ele><time>2026-04-26T13:29:08.102Z</time></trkpt><trkpt lat="45.8057181" lon="10.7873468"><ele>88.0</ele><time>2026-04-26T13:29:09.101Z</time></trkpt><trkpt lat="45.805537" lon="10.7873497"><ele>87.0</ele><time>2026-04-26T13:29:10.102Z</time></trkpt><trkpt lat="45.8053723" lon="10.7873595"><ele>87.0</ele><time>2026-04-26T13:29:11.102Z</time></trkpt><trkpt lat="45.8052279" lon="10.7873675"><ele>87.0</ele><time>2026-04-26T13:29:12.102Z</time></trkpt><trkpt lat="45.8050925" lon="10.7873703"><ele>87.0</ele><time>2026-04-26T13:29:13.102Z</time></trkpt><trkpt lat="45.8049633" lon="10.7873768"><ele>87.0</ele><time>2026-04-26T13:29:14.102Z</time></trkpt><trkpt lat="45.8048385" lon="10.787382"><ele>86.75</ele><time>2026-04-26T13:29:15.102Z</time></trkpt><trkpt lat="45.8047197" lon="10.787396"><ele>86.5</ele><time>2026-04-26T13:29:16.102Z</time></trkpt><trkpt lat="45.8045977" lon="10.7874022"><ele>86.25</ele><time>2026-04-26T13:29:17.102Z</time></trkpt><trkpt lat="45.8044751" lon="10.7874059"><ele>86.0</ele><time>2026-04-26T13:29:18.101Z</time></trkpt><trkpt lat="45.8043563" lon="10.7874032"><ele>85.75</ele><time>2026-04-26T13:29:19.102Z</time></trkpt><trkpt lat="45.8042455" lon="10.7873955"><ele>85.5</ele><time>2026-04-26T13:29:20.102Z</time></trkpt><trkpt lat="45.8041395" lon="10.7873828"><ele>85.25</ele><time>2026-04-26T13:29:21.102Z</time></trkpt><trkpt lat="45.8040225" lon="10.7873658"><ele>85.0</ele><time>2026-04-26T13:29:22.102Z</time></trkpt><trkpt lat="45.8038917" lon="10.7873319"><ele>85.0</ele><time>2026-04-26T13:29:23.102Z</time></trkpt><trkpt lat="45.803745" lon="10.7872836"><ele>85.0</ele><time>2026-04-26T13:29:24.102Z</time></trkpt><trkpt lat="45.8036029" lon="10.7872222"><ele>85.0</ele><time>2026-04-26T13:29:25.101Z</time></trkpt><trkpt lat="45.8034729" lon="10.7871601"><ele>85.0</ele><time>2026-04-26T13:29:26.101Z</time></trkpt><trkpt lat="45.8033496" lon="10.7871106"><ele>84.2</ele><time>2026-04-26T13:29:27.102Z</time></trkpt><trkpt lat="45.80324" lon="10.7870644"><ele>83.4</ele><time>2026-04-26T13:29:28.102Z</time></trkpt><trkpt lat="45.8031417" lon="10.7870276"><ele>82.6</ele><time>2026-04-26T13:29:29.102Z</time></trkpt><trkpt lat="45.8030481" lon="10.7869927"><ele>81.8</ele><time>2026-04-26T13:29:30.102Z</time></trkpt><trkpt lat="45.8029606" lon="10.7869531"><ele>81.0</ele><time>2026-04-26T13:29:31.102Z</time></trkpt><trkpt lat="45.80287" lon="10.7869217"><ele>81.0</ele><time>2026-04-26T13:29:32.102Z</time></trkpt><trkpt lat="45.8027626" lon="10.7868857"><ele>81.0</ele><time>2026-04-26T13:29:33.102Z</time></trkpt><trkpt lat="45.8026459" lon="10.7868351"><ele>81.0</ele><time>2026-04-26T13:29:34.102Z</time></trkpt><trkpt lat="45.8025229" lon="10.7867795"><ele>81.0</ele><time>2026-04-26T13:29:35.102Z</time></trkpt><trkpt lat="45.8024019" lon="10.7867212"><ele>82.0</ele><time>2026-04-26T13:29:36.102Z</time></trkpt><trkpt lat="45.8022854" lon="10.7866614"><ele>83.0</ele><time>2026-04-26T13:29:37.102Z</time></trkpt><trkpt lat="45.8021732" lon="10.7866002"><ele>84.0</ele><time>2026-04-26T13:29:38.102Z</time></trkpt><trkpt lat="45.8020601" lon="10.7865376"><ele>85.0</ele><time>2026-04-26T13:29:39.101Z</time></trkpt><trkpt lat="45.8019388" lon="10.7864671"><ele>82.75</ele><time>2026-04-26T13:29:40.102Z</time></trkpt><trkpt lat="45.8018111" lon="10.7863776"><ele>80.5</ele><time>2026-04-26T13:29:41.101Z</time></trkpt><trkpt lat="45.8016862" lon="10.7862665"><ele>78.25</ele><time>2026-04-26T13:29:42.101Z</time></trkpt><trkpt lat="45.8015714" lon="10.7861447"><ele>76.0</ele><time>2026-04-26T13:29:43.102Z</time></trkpt><trkpt lat="45.801465" lon="10.7860265"><ele>77.8</ele><time>2026-04-26T13:29:44.101Z</time></trkpt><trkpt lat="45.8013667" lon="10.7859147"><ele>79.6</ele><time>2026-04-26T13:29:45.102Z</time></trkpt><trkpt lat="45.8012724" lon="10.7858155"><ele>81.4</ele><time>2026-04-26T13:29:46.102Z</time></trkpt><trkpt lat="45.8011878" lon="10.785725"><ele>83.2</ele><time>2026-04-26T13:29:47.102Z</time></trkpt><trkpt lat="45.8011124" lon="10.7856393"><ele>85.0</ele><time>2026-04-26T13:29:48.102Z</time></trkpt><trkpt lat="45.8010428" lon="10.7855467"><ele>84.4</ele><time>2026-04-26T13:29:49.102Z</time></trkpt><trkpt lat="45.8009726" lon="10.7854418"><ele>83.8</ele><time>2026-04-26T13:29:50.102Z</time></trkpt><trkpt lat="45.8009044" lon="10.7853235"><ele>83.19999999999999</ele><time>2026-04-26T13:29:51.102Z</time></trkpt><trkpt lat="45.8008411" lon="10.7851978"><ele>82.6</ele><time>2026-04-26T13:29:52.102Z</time></trkpt><trkpt lat="45.8007858" lon="10.7850727"><ele>82.0</ele><time>2026-04-26T13:29:53.102Z</time></trkpt><trkpt lat="45.8007334" lon="10.7849393"><ele>82.0</ele><time>2026-04-26T13:29:54.102Z</time></trkpt><trkpt lat="45.8006893" lon="10.7847986"><ele>82.0</ele><time>2026-04-26T13:29:55.102Z</time></trkpt><trkpt lat="45.8006522" lon="10.7846666"><ele>82.0</ele><time>2026-04-26T13:29:56.102Z</time></trkpt><trkpt lat="45.8006186" lon="10.7845379"><ele>82.0</ele><time>2026-04-26T13:29:57.102Z</time></trkpt><trkpt lat="45.8005787" lon="10.7844063"><ele>82.0</ele><time>2026-04-26T13:29:58.102Z</time></trkpt><trkpt lat="45.8005388" lon="10.7842728"><ele>84.0</ele><time>2026-04-26T13:29:59.102Z</time></trkpt><trkpt lat="45.8005009" lon="10.7841375"><ele>86.0</ele><time>2026-04-26T13:30:00.102Z</time></trkpt><trkpt lat="45.800463" lon="10.7839967"><ele>88.0</ele><time>2026-04-26T13:30:01.101Z</time></trkpt><trkpt lat="45.8004211" lon="10.783862"><ele>90.0</ele><time>2026-04-26T13:30:02.101Z</time></trkpt><trkpt lat="45.8003683" lon="10.7837303"><ele>92.0</ele><time>2026-04-26T13:30:03.101Z</time></trkpt><trkpt lat="45.8003041" lon="10.7836063"><ele>95.8</ele><time>2026-04-26T13:30:04.102Z</time></trkpt><trkpt lat="45.8002228" lon="10.7835011"><ele>99.6</ele><time>2026-04-26T13:30:05.102Z</time></trkpt><trkpt lat="45.8001323" lon="10.7834212"><ele>103.39999999999999</ele><time>2026-04-26T13:30:06.102Z</time></trkpt><trkpt lat="45.8000313" lon="10.7833807"><ele>107.19999999999999</ele><time>2026-04-26T13:30:07.102Z</time></trkpt><trkpt lat="45.7999204" lon="10.7833637"><ele>111.0</ele><time>2026-04-26T13:30:08.102Z</time></trkpt><trkpt lat="45.7998127" lon="10.7833553"><ele>111.0</ele><time>2026-04-26T13:30:09.102Z</time></trkpt><trkpt lat="45.7997068" lon="10.7833424"><ele>111.0</ele><time>2026-04-26T13:30:10.101Z</time></trkpt><trkpt lat="45.7996026" lon="10.7833225"><ele>111.0</ele><time>2026-04-26T13:30:11.101Z</time></trkpt><trkpt lat="45.7994998" lon="10.783299"><ele>111.0</ele><time>2026-04-26T13:30:12.102Z</time></trkpt><trkpt lat="45.7988075" lon="10.7830724"><ele>103.0</ele><time>2026-04-26T13:30:18.102Z</time></trkpt><trkpt lat="45.7986488" lon="10.783026"><ele>95.0</ele><time>2026-04-26T13:30:19.102Z</time></trkpt><trkpt lat="45.7985179" lon="10.7829855"><ele>87.0</ele><time>2026-04-26T13:30:20.101Z</time></trkpt><trkpt lat="45.7983966" lon="10.7829328"><ele>79.0</ele><time>2026-04-26T13:30:21.102Z</time></trkpt><trkpt lat="45.7982822" lon="10.7828787"><ele>78.8</ele><time>2026-04-26T13:30:22.101Z</time></trkpt><trkpt lat="45.7981664" lon="10.7828505"><ele>78.60000000000001</ele><time>2026-04-26T13:30:23.101Z</time></trkpt><trkpt lat="45.7980563" lon="10.7828409"><ele>78.4</ele><time>2026-04-26T13:30:24.102Z</time></trkpt><trkpt lat="45.7979491" lon="10.7828504"><ele>78.2</ele><time>2026-04-26T13:30:25.102Z</time></trkpt><trkpt lat="45.7978432" lon="10.7828652"><ele>78.0</ele><time>2026-04-26T13:30:26.102Z</time></trkpt><trkpt lat="45.7977386" lon="10.7828807"><ele>78.0</ele><time>2026-04-26T13:30:27.101Z</time></trkpt><trkpt lat="45.797628" lon="10.7828884"><ele>78.0</ele><time>2026-04-26T13:30:28.102Z</time></trkpt><trkpt lat="45.7975141" lon="10.7828766"><ele>78.0</ele><time>2026-04-26T13:30:29.102Z</time></trkpt><trkpt lat="45.7973934" lon="10.7828593"><ele>78.0</ele><time>2026-04-26T13:30:30.101Z</time></trkpt><trkpt lat="45.7972761" lon="10.7828437"><ele>78.0</ele><time>2026-04-26T13:30:31.102Z</time></trkpt><trkpt lat="45.7971537" lon="10.7828284"><ele>78.0</ele><time>2026-04-26T13:30:32.102Z</time></trkpt><trkpt lat="45.7970344" lon="10.7828274"><ele>78.0</ele><time>2026-04-26T13:30:33.101Z</time></trkpt><trkpt lat="45.7966977" lon="10.782858"><ele>78.0</ele><time>2026-04-26T13:30:36.101Z</time></trkpt><trkpt lat="45.7965872" lon="10.7828636"><ele>78.0</ele><time>2026-04-26T13:30:37.102Z</time></trkpt><trkpt lat="45.7964793" lon="10.7828591"><ele>78.0</ele><time>2026-04-26T13:30:38.102Z</time></trkpt><trkpt lat="45.7963785" lon="10.7828571"><ele>78.0</ele><time>2026-04-26T13:30:39.102Z</time></trkpt><trkpt lat="45.7962757" lon="10.7828493"><ele>78.0</ele><time>2026-04-26T13:30:40.102Z</time></trkpt><trkpt lat="45.7961771" lon="10.7828198"><ele>78.0</ele><time>2026-04-26T13:30:41.102Z</time></trkpt><trkpt lat="45.7960767" lon="10.7827683"><ele>78.0</ele><time>2026-04-26T13:30:42.102Z</time></trkpt><trkpt lat="45.7959701" lon="10.7827045"><ele>78.0</ele><time>2026-04-26T13:30:43.102Z</time></trkpt><trkpt lat="45.7958498" lon="10.7826371"><ele>78.0</ele><time>2026-04-26T13:30:44.102Z</time></trkpt><trkpt lat="45.7957101" lon="10.7825584"><ele>78.0</ele><time>2026-04-26T13:30:45.102Z</time></trkpt><trkpt lat="45.7955637" lon="10.7824844"><ele>78.0</ele><time>2026-04-26T13:30:46.102Z</time></trkpt><trkpt lat="45.7954244" lon="10.782424"><ele>78.0</ele><time>2026-04-26T13:30:47.102Z</time></trkpt><trkpt lat="45.7952928" lon="10.7823712"><ele>78.0</ele><time>2026-04-26T13:30:48.102Z</time></trkpt><trkpt lat="45.7951728" lon="10.7823209"><ele>78.0</ele><time>2026-04-26T13:30:49.102Z</time></trkpt><trkpt lat="45.7950579" lon="10.7822709"><ele>78.0</ele><time>2026-04-26T13:30:50.102Z</time></trkpt><trkpt lat="45.7949426" lon="10.7822149"><ele>78.0</ele><time>2026-04-26T13:30:51.101Z</time></trkpt><trkpt lat="45.7948348" lon="10.7821472"><ele>78.0</ele><time>2026-04-26T13:30:52.102Z</time></trkpt><trkpt lat="45.7947355" lon="10.7820689"><ele>103.5</ele><time>2026-04-26T13:30:53.101Z</time></trkpt><trkpt lat="45.7946411" lon="10.7819815"><ele>129.0</ele><time>2026-04-26T13:30:54.102Z</time></trkpt><trkpt lat="45.7945326" lon="10.7818724"><ele>154.5</ele><time>2026-04-26T13:30:55.101Z</time></trkpt><trkpt lat="45.7944019" lon="10.7817484"><ele>180.0</ele><time>2026-04-26T13:30:56.102Z</time></trkpt><trkpt lat="45.7942556" lon="10.7816057"><ele>180.0</ele><time>2026-04-26T13:30:57.102Z</time></trkpt><trkpt lat="45.7940971" lon="10.7814496"><ele>180.0</ele><time>2026-04-26T13:30:58.102Z</time></trkpt><trkpt lat="45.7939341" lon="10.781289"><ele>180.0</ele><time>2026-04-26T13:30:59.102Z</time></trkpt><trkpt lat="45.7937621" lon="10.781136"><ele>198.33333333333331</ele><time>2026-04-26T13:31:00.102Z</time></trkpt><trkpt lat="45.7935924" lon="10.7809697"><ele>216.66666666666666</ele><time>2026-04-26T13:31:01.102Z</time></trkpt><trkpt lat="45.7934247" lon="10.7808111"><ele>235.0</ele><time>2026-04-26T13:31:02.102Z</time></trkpt><trkpt lat="45.7929106" lon="10.7804127"><ele>239.66666666666666</ele><time>2026-04-26T13:31:05.101Z</time></trkpt><trkpt lat="45.7927406" lon="10.7802774"><ele>244.33333333333331</ele><time>2026-04-26T13:31:06.101Z</time></trkpt><trkpt lat="45.7925702" lon="10.7801622"><ele>249.0</ele><time>2026-04-26T13:31:07.102Z</time></trkpt><trkpt lat="45.7923928" lon="10.7800547"><ele>249.0</ele><time>2026-04-26T13:31:08.102Z</time></trkpt><trkpt lat="45.7922157" lon="10.7799451"><ele>249.0</ele><time>2026-04-26T13:31:09.102Z</time></trkpt><trkpt lat="45.7841634" lon="10.7776298"><ele>210.5</ele><time>2026-04-26T13:32:11.102Z</time></trkpt><trkpt lat="45.7840322" lon="10.7776091"><ele>172.0</ele><time>2026-04-26T13:32:12.102Z</time></trkpt><trkpt lat="45.7838988" lon="10.7776223"><ele>133.5</ele><time>2026-04-26T13:32:13.102Z</time></trkpt><trkpt lat="45.7837511" lon="10.7776278"><ele>95.0</ele><time>2026-04-26T13:32:14.102Z</time></trkpt><trkpt lat="45.783586" lon="10.7776263"><ele>93.0</ele><time>2026-04-26T13:32:15.101Z</time></trkpt><trkpt lat="45.783404" lon="10.7775896"><ele>91.0</ele><time>2026-04-26T13:32:16.102Z</time></trkpt><trkpt lat="45.7832123" lon="10.777541"><ele>89.0</ele><time>2026-04-26T13:32:17.102Z</time></trkpt><trkpt lat="45.7830205" lon="10.777479"><ele>89.0</ele><time>2026-04-26T13:32:18.102Z</time></trkpt><trkpt lat="45.7828361" lon="10.7774132"><ele>89.0</ele><time>2026-04-26T13:32:19.102Z</time></trkpt><trkpt lat="45.7826627" lon="10.7773604"><ele>89.0</ele><time>2026-04-26T13:32:20.101Z</time></trkpt><trkpt lat="45.7824799" lon="10.7773095"><ele>88.0</ele><time>2026-04-26T13:32:21.102Z</time></trkpt><trkpt lat="45.7823146" lon="10.7772678"><ele>87.0</ele><time>2026-04-26T13:32:22.101Z</time></trkpt><trkpt lat="45.7821744" lon="10.7772212"><ele>86.0</ele><time>2026-04-26T13:32:23.102Z</time></trkpt><trkpt lat="45.7820463" lon="10.7771496"><ele>85.0</ele><time>2026-04-26T13:32:24.102Z</time></trkpt><trkpt lat="45.7819288" lon="10.777083"><ele>87.25</ele><time>2026-04-26T13:32:25.102Z</time></trkpt><trkpt lat="45.7818191" lon="10.7770041"><ele>89.5</ele><time>2026-04-26T13:32:26.101Z</time></trkpt><trkpt lat="45.7817047" lon="10.7769018"><ele>91.75</ele><time>2026-04-26T13:32:27.102Z</time></trkpt><trkpt lat="45.7816247" lon="10.7767697"><ele>94.0</ele><time>2026-04-26T13:32:28.102Z</time></trkpt><trkpt lat="45.7815365" lon="10.776623"><ele>94.0</ele><time>2026-04-26T13:32:29.102Z</time></trkpt><trkpt lat="45.7814684" lon="10.7764526"><ele>94.0</ele><time>2026-04-26T13:32:30.102Z</time></trkpt><trkpt lat="45.7814182" lon="10.7762599"><ele>94.0</ele><time>2026-04-26T13:32:31.102Z</time></trkpt><trkpt lat="45.7813739" lon="10.7760662"><ele>94.0</ele><time>2026-04-26T13:32:32.102Z</time></trkpt><trkpt lat="45.7813393" lon="10.7758867"><ele>100.25</ele><time>2026-04-26T13:32:33.102Z</time></trkpt><trkpt lat="45.7813011" lon="10.7757086"><ele>106.5</ele><time>2026-04-26T13:32:34.101Z</time></trkpt><trkpt lat="45.7812607" lon="10.7755212"><ele>112.75</ele><time>2026-04-26T13:32:35.102Z</time></trkpt><trkpt lat="45.7812149" lon="10.7753232"><ele>119.0</ele><time>2026-04-26T13:32:36.102Z</time></trkpt><trkpt lat="45.7811562" lon="10.7751277"><ele>116.0</ele><time>2026-04-26T13:32:37.102Z</time></trkpt><trkpt lat="45.7810983" lon="10.77493"><ele>113.0</ele><time>2026-04-26T13:32:38.102Z</time></trkpt><trkpt lat="45.7810363" lon="10.7747522"><ele>110.0</ele><time>2026-04-26T13:32:39.102Z</time></trkpt><trkpt lat="45.7809634" lon="10.774583"><ele>107.0</ele><time>2026-04-26T13:32:40.102Z</time></trkpt><trkpt lat="45.7808864" lon="10.7744298"><ele>108.0</ele><time>2026-04-26T13:32:41.102Z</time></trkpt><trkpt lat="45.780789" lon="10.7742943"><ele>109.0</ele><time>2026-04-26T13:32:42.102Z</time></trkpt><trkpt lat="45.780712" lon="10.7741679"><ele>110.0</ele><time>2026-04-26T13:32:43.102Z</time></trkpt><trkpt lat="45.7805831" lon="10.7740711"><ele>111.0</ele><time>2026-04-26T13:32:44.102Z</time></trkpt><trkpt lat="45.7804396" lon="10.7739708"><ele>111.0</ele><time>2026-04-26T13:32:45.102Z</time></trkpt><trkpt lat="45.7802801" lon="10.7738573"><ele>111.0</ele><time>2026-04-26T13:32:46.102Z</time></trkpt><trkpt lat="45.7801517" lon="10.7737467"><ele>111.0</ele><time>2026-04-26T13:32:47.101Z</time></trkpt><trkpt lat="45.7800032" lon="10.7736707"><ele>110.75</ele><time>2026-04-26T13:32:48.102Z</time></trkpt><trkpt lat="45.7799009" lon="10.7735634"><ele>110.5</ele><time>2026-04-26T13:32:49.102Z</time></trkpt><trkpt lat="45.7798045" lon="10.7734449"><ele>110.25</ele><time>2026-04-26T13:32:50.102Z</time></trkpt><trkpt lat="45.7796988" lon="10.7733404"><ele>110.0</ele><time>2026-04-26T13:32:51.102Z</time></trkpt><trkpt lat="45.7795818" lon="10.7732246"><ele>110.0</ele><time>2026-04-26T13:32:52.102Z</time></trkpt><trkpt lat="45.7794643" lon="10.77308"><ele>110.0</ele><time>2026-04-26T13:32:53.102Z</time></trkpt><trkpt lat="45.7793406" lon="10.772914"><ele>110.0</ele><time>2026-04-26T13:32:54.101Z</time></trkpt><trkpt lat="45.7792143" lon="10.7727611"><ele>106.33333333333333</ele><time>2026-04-26T13:32:55.102Z</time></trkpt><trkpt lat="45.7790895" lon="10.7726063"><ele>102.66666666666666</ele><time>2026-04-26T13:32:56.102Z</time></trkpt><trkpt lat="45.7789146" lon="10.7723209"><ele>99.0</ele><time>2026-04-26T13:32:57.102Z</time></trkpt><trkpt lat="45.7787766" lon="10.7720217"><ele>94.0</ele><time>2026-04-26T13:32:58.102Z</time></trkpt><trkpt lat="45.7785933" lon="10.771761"><ele>89.0</ele><time>2026-04-26T13:32:59.102Z</time></trkpt><trkpt lat="45.7784346" lon="10.7714769"><ele>89.0</ele><time>2026-04-26T13:33:00.102Z</time></trkpt><trkpt lat="45.7782542" lon="10.7712005"><ele>89.0</ele><time>2026-04-26T13:33:01.102Z</time></trkpt><trkpt lat="45.7780614" lon="10.7709289"><ele>115.5</ele><time>2026-04-26T13:33:02.102Z</time></trkpt><trkpt lat="45.77788" lon="10.7706673"><ele>142.0</ele><time>2026-04-26T13:33:03.102Z</time></trkpt><trkpt lat="45.7777054" lon="10.7704244"><ele>142.0</ele><time>2026-04-26T13:33:04.102Z</time></trkpt><trkpt lat="45.7775118" lon="10.7701667"><ele>142.0</ele><time>2026-04-26T13:33:05.102Z</time></trkpt><trkpt lat="45.7773012" lon="10.7699463"><ele>142.0</ele><time>2026-04-26T13:33:06.102Z</time></trkpt><trkpt lat="45.7770939" lon="10.7697152"><ele>142.0</ele><time>2026-04-26T13:33:07.102Z</time></trkpt><trkpt lat="45.7769012" lon="10.769474"><ele>142.0</ele><time>2026-04-26T13:33:08.102Z</time></trkpt><trkpt lat="45.776693" lon="10.7692534"><ele>142.0</ele><time>2026-04-26T13:33:09.102Z</time></trkpt><trkpt lat="45.7764673" lon="10.7690979"><ele>142.0</ele><time>2026-04-26T13:33:10.102Z</time></trkpt><trkpt lat="45.7762679" lon="10.7689098"><ele>142.0</ele><time>2026-04-26T13:33:11.102Z</time></trkpt><trkpt lat="45.776076" lon="10.7687362"><ele>142.0</ele><time>2026-04-26T13:33:12.102Z</time></trkpt><trkpt lat="45.7758893" lon="10.7685567"><ele>142.0</ele><time>2026-04-26T13:33:13.102Z</time></trkpt><trkpt lat="45.7757129" lon="10.7683593"><ele>142.0</ele><time>2026-04-26T13:33:14.102Z</time></trkpt><trkpt lat="45.7694878" lon="10.763082"><ele>192.0</ele><time>2026-04-26T13:34:07.102Z</time></trkpt><trkpt lat="45.7694082" lon="10.7629936"><ele>242.0</ele><time>2026-04-26T13:34:08.102Z</time></trkpt><trkpt lat="45.7693244" lon="10.7629128"><ele>292.0</ele><time>2026-04-26T13:34:09.102Z</time></trkpt><trkpt lat="45.7692412" lon="10.7628218"><ele>342.0</ele><time>2026-04-26T13:34:10.101Z</time></trkpt><trkpt lat="45.769157" lon="10.7627332"><ele>392.0</ele><time>2026-04-26T13:34:11.102Z</time></trkpt><trkpt lat="45.7690773" lon="10.7626459"><ele>392.0</ele><time>2026-04-26T13:34:12.102Z</time></trkpt><trkpt lat="45.7689969" lon="10.7625584"><ele>392.0</ele><time>2026-04-26T13:34:13.102Z</time></trkpt><trkpt lat="45.7689154" lon="10.7624681"><ele>392.0</ele><time>2026-04-26T13:34:14.102Z</time></trkpt><trkpt lat="45.7688357" lon="10.7623872"><ele>392.0</ele><time>2026-04-26T13:34:15.102Z</time></trkpt><trkpt lat="45.7687586" lon="10.762308"><ele>392.0</ele><time>2026-04-26T13:34:16.102Z</time></trkpt><trkpt lat="45.7686767" lon="10.7622309"><ele>392.0</ele><time>2026-04-26T13:34:17.102Z</time></trkpt><trkpt lat="45.7685976" lon="10.7621537"><ele>392.0</ele><time>2026-04-26T13:34:18.102Z</time></trkpt><trkpt lat="45.768522" lon="10.7620865"><ele>392.0</ele><time>2026-04-26T13:34:19.102Z</time></trkpt><trkpt lat="45.7684457" lon="10.7620161"><ele>392.0</ele><time>2026-04-26T13:34:20.102Z</time></trkpt><trkpt lat="45.7683703" lon="10.7619478"><ele>392.0</ele><time>2026-04-26T13:34:21.102Z</time></trkpt><trkpt lat="45.7682908" lon="10.7618734"><ele>392.0</ele><time>2026-04-26T13:34:22.102Z</time></trkpt><trkpt lat="45.7682065" lon="10.7617977"><ele>392.0</ele><time>2026-04-26T13:34:23.102Z</time></trkpt><trkpt lat="45.7681218" lon="10.7617127"><ele>392.0</ele><time>2026-04-26T13:34:24.102Z</time></trkpt><trkpt lat="45.7680347" lon="10.761626"><ele>392.0</ele><time>2026-04-26T13:34:25.102Z</time></trkpt><trkpt lat="45.7679469" lon="10.7615218"><ele>392.0</ele><time>2026-04-26T13:34:26.102Z</time></trkpt><trkpt lat="45.7678682" lon="10.7614046"><ele>382.5</ele><time>2026-04-26T13:34:27.102Z</time></trkpt><trkpt lat="45.7677939" lon="10.7612736"><ele>373.0</ele><time>2026-04-26T13:34:28.102Z</time></trkpt><trkpt lat="45.7677175" lon="10.7611459"><ele>363.5</ele><time>2026-04-26T13:34:29.102Z</time></trkpt><trkpt lat="45.7676307" lon="10.7610397"><ele>354.0</ele><time>2026-04-26T13:34:30.102Z</time></trkpt><trkpt lat="45.7675448" lon="10.760953"><ele>372.4</ele><time>2026-04-26T13:34:31.102Z</time></trkpt><trkpt lat="45.7674533" lon="10.7608763"><ele>390.79999999999995</ele><time>2026-04-26T13:34:32.102Z</time></trkpt><trkpt lat="45.7673623" lon="10.7607956"><ele>409.20000000000005</ele><time>2026-04-26T13:34:33.102Z</time></trkpt><trkpt lat="45.7672651" lon="10.7607136"><ele>427.6</ele><time>2026-04-26T13:34:34.102Z</time></trkpt><trkpt lat="45.767171" lon="10.7606253"><ele>446.0</ele><time>2026-04-26T13:34:35.101Z</time></trkpt><trkpt lat="45.7670774" lon="10.7605303"><ele>446.0</ele><time>2026-04-26T13:34:36.102Z</time></trkpt><trkpt lat="45.7669932" lon="10.7604326"><ele>446.0</ele><time>2026-04-26T13:34:37.102Z</time></trkpt><trkpt lat="45.7669091" lon="10.7603444"><ele>446.0</ele><time>2026-04-26T13:34:38.102Z</time></trkpt><trkpt lat="45.7668261" lon="10.7602681"><ele>446.0</ele><time>2026-04-26T13:34:39.102Z</time></trkpt><trkpt lat="45.7667486" lon="10.7602079"><ele>446.0</ele><time>2026-04-26T13:34:40.102Z</time></trkpt><trkpt lat="45.7666753" lon="10.7601605"><ele>446.6</ele><time>2026-04-26T13:34:41.102Z</time></trkpt><trkpt lat="45.7666007" lon="10.7601126"><ele>447.20000000000005</ele><time>2026-04-26T13:34:42.101Z</time></trkpt><trkpt lat="45.7665227" lon="10.7600396"><ele>447.79999999999995</ele><time>2026-04-26T13:34:43.102Z</time></trkpt><trkpt lat="45.7664409" lon="10.7599508"><ele>448.4</ele><time>2026-04-26T13:34:44.102Z</time></trkpt><trkpt lat="45.766362" lon="10.7598395"><ele>449.0</ele><time>2026-04-26T13:34:45.101Z</time></trkpt><trkpt lat="45.7662827" lon="10.7597223"><ele>449.0</ele><time>2026-04-26T13:34:46.102Z</time></trkpt><trkpt lat="45.7661988" lon="10.759617"><ele>449.0</ele><time>2026-04-26T13:34:47.102Z</time></trkpt><trkpt lat="45.7661093" lon="10.7595338"><ele>449.0</ele><time>2026-04-26T13:34:48.102Z</time></trkpt><trkpt lat="45.76602" lon="10.7594702"><ele>449.0</ele><time>2026-04-26T13:34:49.102Z</time></trkpt><trkpt lat="45.7659344" lon="10.7594096"><ele>449.0</ele><time>2026-04-26T13:34:50.102Z</time></trkpt><trkpt lat="45.7658583" lon="10.759346"><ele>446.0</ele><time>2026-04-26T13:34:51.102Z</time></trkpt><trkpt lat="45.7657857" lon="10.7592681"><ele>443.0</ele><time>2026-04-26T13:34:52.102Z</time></trkpt><trkpt lat="45.7657141" lon="10.7591782"><ele>440.0</ele><time>2026-04-26T13:34:53.102Z</time></trkpt><trkpt lat="45.7656444" lon="10.7590847"><ele>437.0</ele><time>2026-04-26T13:34:54.102Z</time></trkpt><trkpt lat="45.7655739" lon="10.7589931"><ele>434.0</ele><time>2026-04-26T13:34:55.102Z</time></trkpt><trkpt lat="45.7655027" lon="10.7589156"><ele>434.0</ele><time>2026-04-26T13:34:56.102Z</time></trkpt><trkpt lat="45.765416" lon="10.7588533"><ele>434.0</ele><time>2026-04-26T13:34:57.102Z</time></trkpt><trkpt lat="45.7653238" lon="10.7587998"><ele>434.0</ele><time>2026-04-26T13:34:58.102Z</time></trkpt><trkpt lat="45.76522" lon="10.7587565"><ele>434.0</ele><time>2026-04-26T13:34:59.102Z</time></trkpt><trkpt lat="45.7651108" lon="10.7587205"><ele>434.0</ele><time>2026-04-26T13:35:00.102Z</time></trkpt><trkpt lat="45.7650069" lon="10.7586767"><ele>432.6</ele><time>2026-04-26T13:35:01.102Z</time></trkpt><trkpt lat="45.7649125" lon="10.7586181"><ele>431.2</ele><time>2026-04-26T13:35:02.102Z</time></trkpt><trkpt lat="45.7648162" lon="10.7585511"><ele>429.80000000000007</ele><time>2026-04-26T13:35:03.101Z</time></trkpt><trkpt lat="45.7647186" lon="10.758466"><ele>428.40000000000003</ele><time>2026-04-26T13:35:04.102Z</time></trkpt><trkpt lat="45.7646248" lon="10.7583726"><ele>427.0</ele><time>2026-04-26T13:35:05.102Z</time></trkpt><trkpt lat="45.7645306" lon="10.7582764"><ele>427.0</ele><time>2026-04-26T13:35:06.102Z</time></trkpt><trkpt lat="45.7644396" lon="10.7581746"><ele>427.0</ele><time>2026-04-26T13:35:07.102Z</time></trkpt><trkpt lat="45.7643559" lon="10.7580629"><ele>427.0</ele><time>2026-04-26T13:35:08.101Z</time></trkpt><trkpt lat="45.7642762" lon="10.757943"><ele>427.0</ele><time>2026-04-26T13:35:09.101Z</time></trkpt><trkpt lat="45.764204" lon="10.7578129"><ele>420.75</ele><time>2026-04-26T13:35:10.102Z</time></trkpt><trkpt lat="45.7641382" lon="10.7576715"><ele>414.5</ele><time>2026-04-26T13:35:11.102Z</time></trkpt><trkpt lat="45.764072" lon="10.757525"><ele>408.25</ele><time>2026-04-26T13:35:12.101Z</time></trkpt><trkpt lat="45.7639949" lon="10.7573677"><ele>402.0</ele><time>2026-04-26T13:35:13.102Z</time></trkpt><trkpt lat="45.7638986" lon="10.7571933"><ele>402.0</ele><time>2026-04-26T13:35:14.102Z</time></trkpt><trkpt lat="45.7637763" lon="10.7570078"><ele>402.0</ele><time>2026-04-26T13:35:15.102Z</time></trkpt><trkpt lat="45.7636493" lon="10.7568291"><ele>402.0</ele><time>2026-04-26T13:35:16.101Z</time></trkpt><trkpt lat="45.7635293" lon="10.7566657"><ele>396.75</ele><time>2026-04-26T13:35:17.101Z</time></trkpt><trkpt lat="45.7634243" lon="10.7565134"><ele>391.5</ele><time>2026-04-26T13:35:18.102Z</time></trkpt><trkpt lat="45.7633337" lon="10.7563767"><ele>386.25</ele><time>2026-04-26T13:35:19.102Z</time></trkpt><trkpt lat="45.7632524" lon="10.7562455"><ele>381.0</ele><time>2026-04-26T13:35:20.102Z</time></trkpt><trkpt lat="45.7631755" lon="10.756123"><ele>384.25</ele><time>2026-04-26T13:35:21.102Z</time></trkpt><trkpt lat="45.7630988" lon="10.7559934"><ele>387.5</ele><time>2026-04-26T13:35:22.102Z</time></trkpt><trkpt lat="45.7630206" lon="10.7558484"><ele>390.75</ele><time>2026-04-26T13:35:23.102Z</time></trkpt><trkpt lat="45.7629427" lon="10.755683"><ele>394.0</ele><time>2026-04-26T13:35:24.102Z</time></trkpt><trkpt lat="45.762865" lon="10.7554988"><ele>394.0</ele><time>2026-04-26T13:35:25.102Z</time></trkpt><trkpt lat="45.7627829" lon="10.7552285"><ele>394.0</ele><time>2026-04-26T13:35:26.102Z</time></trkpt><trkpt lat="45.7627051" lon="10.7549907"><ele>394.0</ele><time>2026-04-26T13:35:27.102Z</time></trkpt><trkpt lat="45.7626208" lon="10.7547803"><ele>394.0</ele><time>2026-04-26T13:35:28.102Z</time></trkpt><trkpt lat="45.7625152" lon="10.7545862"><ele>394.0</ele><time>2026-04-26T13:35:29.102Z</time></trkpt><trkpt lat="45.7624104" lon="10.7544162"><ele>394.0</ele><time>2026-04-26T13:35:30.102Z</time></trkpt><trkpt lat="45.7623044" lon="10.7542637"><ele>394.0</ele><time>2026-04-26T13:35:31.102Z</time></trkpt><trkpt lat="45.7622058" lon="10.7541197"><ele>394.0</ele><time>2026-04-26T13:35:32.101Z</time></trkpt><trkpt lat="45.7620974" lon="10.7539784"><ele>394.0</ele><time>2026-04-26T13:35:33.102Z</time></trkpt><trkpt lat="45.7619892" lon="10.7538223"><ele>394.0</ele><time>2026-04-26T13:35:34.102Z</time></trkpt><trkpt lat="45.7618754" lon="10.7536777"><ele>361.33333333333337</ele><time>2026-04-26T13:35:35.102Z</time></trkpt><trkpt lat="45.761763" lon="10.7535419"><ele>328.6666666666667</ele><time>2026-04-26T13:35:36.102Z</time></trkpt><trkpt lat="45.7616457" lon="10.7533756"><ele>296.0</ele><time>2026-04-26T13:35:37.102Z</time></trkpt><trkpt lat="45.7615284" lon="10.7532118"><ele>296.0</ele><time>2026-04-26T13:35:38.102Z</time></trkpt><trkpt lat="45.76141" lon="10.7530536"><ele>296.0</ele><time>2026-04-26T13:35:39.101Z</time></trkpt><trkpt lat="45.7612919" lon="10.7528961"><ele>296.0</ele><time>2026-04-26T13:35:40.102Z</time></trkpt><trkpt lat="45.7370534" lon="10.7355133"><ele>227.0</ele><time>2026-04-26T13:38:34.102Z</time></trkpt><trkpt lat="45.7369077" lon="10.7354427"><ele>158.0</ele><time>2026-04-26T13:38:35.102Z</time></trkpt><trkpt lat="45.736761" lon="10.7353426"><ele>89.0</ele><time>2026-04-26T13:38:36.101Z</time></trkpt><trkpt lat="45.7366302" lon="10.7352363"><ele>93.0</ele><time>2026-04-26T13:38:37.102Z</time></trkpt><trkpt lat="45.7365028" lon="10.7351463"><ele>97.0</ele><time>2026-04-26T13:38:38.101Z</time></trkpt><trkpt lat="45.7363663" lon="10.735055"><ele>101.0</ele><time>2026-04-26T13:38:39.102Z</time></trkpt><trkpt lat="45.736248" lon="10.7349534"><ele>105.0</ele><time>2026-04-26T13:38:40.102Z</time></trkpt><trkpt lat="45.7361499" lon="10.7348499"><ele>105.0</ele><time>2026-04-26T13:38:41.102Z</time></trkpt><trkpt lat="45.7360618" lon="10.7347276"><ele>105.0</ele><time>2026-04-26T13:38:42.101Z</time></trkpt><trkpt lat="45.7359791" lon="10.7345858"><ele>105.0</ele><time>2026-04-26T13:38:43.102Z</time></trkpt><trkpt lat="45.7359022" lon="10.7344409"><ele>105.0</ele><time>2026-04-26T13:38:44.102Z</time></trkpt><trkpt lat="45.7358399" lon="10.7343029"><ele>102.0</ele><time>2026-04-26T13:38:45.102Z</time></trkpt><trkpt lat="45.7357921" lon="10.7341753"><ele>99.0</ele><time>2026-04-26T13:38:46.102Z</time></trkpt><trkpt lat="45.7357565" lon="10.7340447"><ele>96.0</ele><time>2026-04-26T13:38:47.102Z</time></trkpt><trkpt lat="45.7357247" lon="10.733907"><ele>93.0</ele><time>2026-04-26T13:38:48.102Z</time></trkpt><trkpt lat="45.735697" lon="10.733766"><ele>90.0</ele><time>2026-04-26T13:38:49.102Z</time></trkpt><trkpt lat="45.7356797" lon="10.7336274"><ele>91.5</ele><time>2026-04-26T13:38:50.101Z</time></trkpt><trkpt lat="45.7356717" lon="10.7334921"><ele>93.0</ele><time>2026-04-26T13:38:51.101Z</time></trkpt><trkpt lat="45.7356626" lon="10.7333668"><ele>94.5</ele><time>2026-04-26T13:38:52.102Z</time></trkpt><trkpt lat="45.7356541" lon="10.7332502"><ele>96.0</ele><time>2026-04-26T13:38:53.102Z</time></trkpt><trkpt lat="45.7356506" lon="10.7331424"><ele>97.5</ele><time>2026-04-26T13:38:54.102Z</time></trkpt><trkpt lat="45.7356427" lon="10.7330343"><ele>99.0</ele><time>2026-04-26T13:38:55.102Z</time></trkpt><trkpt lat="45.7356264" lon="10.7329203"><ele>99.0</ele><time>2026-04-26T13:38:56.102Z</time></trkpt><trkpt lat="45.7355967" lon="10.7328029"><ele>99.0</ele><time>2026-04-26T13:38:57.102Z</time></trkpt><trkpt lat="45.7355518" lon="10.7326902"><ele>99.0</ele><time>2026-04-26T13:38:58.102Z</time></trkpt><trkpt lat="45.7354983" lon="10.7325794"><ele>99.0</ele><time>2026-04-26T13:38:59.102Z</time></trkpt><trkpt lat="45.7354297" lon="10.7324677"><ele>99.0</ele><time>2026-04-26T13:39:00.102Z</time></trkpt><trkpt lat="45.7353489" lon="10.7323501"><ele>98.75</ele><time>2026-04-26T13:39:01.102Z</time></trkpt><trkpt lat="45.7352614" lon="10.7322246"><ele>98.5</ele><time>2026-04-26T13:39:02.102Z</time></trkpt><trkpt lat="45.7351729" lon="10.7320944"><ele>98.25</ele><time>2026-04-26T13:39:03.102Z</time></trkpt><trkpt lat="45.7350849" lon="10.7319645"><ele>98.0</ele><time>2026-04-26T13:39:04.102Z</time></trkpt><trkpt lat="45.734485" lon="10.7311121"><ele>94.75</ele><time>2026-04-26T13:39:10.102Z</time></trkpt><trkpt lat="45.7343975" lon="10.7309821"><ele>91.5</ele><time>2026-04-26T13:39:11.102Z</time></trkpt><trkpt lat="45.7343101" lon="10.7308562"><ele>88.25</ele><time>2026-04-26T13:39:12.102Z</time></trkpt><trkpt lat="45.7342246" lon="10.7307348"><ele>85.0</ele><time>2026-04-26T13:39:13.102Z</time></trkpt><trkpt lat="45.7341408" lon="10.7306102"><ele>85.0</ele><time>2026-04-26T13:39:14.102Z</time></trkpt><trkpt lat="45.734056" lon="10.7304925"><ele>85.0</ele><time>2026-04-26T13:39:15.102Z</time></trkpt><trkpt lat="45.7339652" lon="10.7303742"><ele>85.0</ele><time>2026-04-26T13:39:16.102Z</time></trkpt><trkpt lat="45.7338757" lon="10.7302476"><ele>85.0</ele><time>2026-04-26T13:39:17.101Z</time></trkpt><trkpt lat="45.7337866" lon="10.7301184"><ele>84.5</ele><time>2026-04-26T13:39:18.102Z</time></trkpt><trkpt lat="45.73371" lon="10.7299844"><ele>84.0</ele><time>2026-04-26T13:39:19.102Z</time></trkpt><trkpt lat="45.7336453" lon="10.7298495"><ele>83.5</ele><time>2026-04-26T13:39:20.101Z</time></trkpt><trkpt lat="45.733592" lon="10.7297084"><ele>83.0</ele><time>2026-04-26T13:39:21.102Z</time></trkpt><trkpt lat="45.7335429" lon="10.7295627"><ele>83.0</ele><time>2026-04-26T13:39:22.101Z</time></trkpt><trkpt lat="45.7334955" lon="10.7294189"><ele>83.0</ele><time>2026-04-26T13:39:23.101Z</time></trkpt><trkpt lat="45.7334494" lon="10.7292783"><ele>83.0</ele><time>2026-04-26T13:39:24.102Z</time></trkpt><trkpt lat="45.7333977" lon="10.7291409"><ele>83.0</ele><time>2026-04-26T13:39:25.102Z</time></trkpt><trkpt lat="45.7333458" lon="10.7290085"><ele>83.0</ele><time>2026-04-26T13:39:26.101Z</time></trkpt><trkpt lat="45.7332846" lon="10.7288667"><ele>85.0</ele><time>2026-04-26T13:39:27.102Z</time></trkpt><trkpt lat="45.7332159" lon="10.7287295"><ele>87.0</ele><time>2026-04-26T13:39:28.102Z</time></trkpt><trkpt lat="45.7331411" lon="10.7285878"><ele>89.0</ele><time>2026-04-26T13:39:29.102Z</time></trkpt><trkpt lat="45.7330616" lon="10.7284514"><ele>91.0</ele><time>2026-04-26T13:39:30.102Z</time></trkpt><trkpt lat="45.7329763" lon="10.7283176"><ele>88.0</ele><time>2026-04-26T13:39:31.102Z</time></trkpt><trkpt lat="45.7328859" lon="10.728188"><ele>85.0</ele><time>2026-04-26T13:39:32.101Z</time></trkpt><trkpt lat="45.732795" lon="10.7280558"><ele>82.0</ele><time>2026-04-26T13:39:33.102Z</time></trkpt><trkpt lat="45.7327043" lon="10.7279228"><ele>79.0</ele><time>2026-04-26T13:39:34.102Z</time></trkpt><trkpt lat="45.7326102" lon="10.7277864"><ele>85.0</ele><time>2026-04-26T13:39:35.102Z</time></trkpt><trkpt lat="45.7325203" lon="10.7276398"><ele>91.0</ele><time>2026-04-26T13:39:36.101Z</time></trkpt><trkpt lat="45.7324237" lon="10.727477"><ele>97.0</ele><time>2026-04-26T13:39:37.102Z</time></trkpt><trkpt lat="45.7323219" lon="10.7272899"><ele>97.0</ele><time>2026-04-26T13:39:38.102Z</time></trkpt><trkpt lat="45.7322137" lon="10.727073"><ele>97.0</ele><time>2026-04-26T13:39:39.102Z</time></trkpt><trkpt lat="45.7321084" lon="10.7268405"><ele>97.0</ele><time>2026-04-26T13:39:40.102Z</time></trkpt><trkpt lat="45.7320007" lon="10.7266068"><ele>96.33333333333334</ele><time>2026-04-26T13:39:41.102Z</time></trkpt><trkpt lat="45.7318945" lon="10.7263823"><ele>95.66666666666667</ele><time>2026-04-26T13:39:42.102Z</time></trkpt><trkpt lat="45.7317904" lon="10.726176"><ele>95.0</ele><time>2026-04-26T13:39:43.102Z</time></trkpt><trkpt lat="45.7316895" lon="10.7259826"><ele>95.0</ele><time>2026-04-26T13:39:44.102Z</time></trkpt><trkpt lat="45.731597" lon="10.725796"><ele>95.0</ele><time>2026-04-26T13:39:45.102Z</time></trkpt><trkpt lat="45.7315146" lon="10.7256188"><ele>95.0</ele><time>2026-04-26T13:39:46.102Z</time></trkpt><trkpt lat="45.7314367" lon="10.7254384"><ele>95.0</ele><time>2026-04-26T13:39:47.102Z</time></trkpt><trkpt lat="45.7313631" lon="10.7252461"><ele>95.0</ele><time>2026-04-26T13:39:48.101Z</time></trkpt><trkpt lat="45.7312961" lon="10.7250471"><ele>95.0</ele><time>2026-04-26T13:39:49.102Z</time></trkpt><trkpt lat="45.7312289" lon="10.7248396"><ele>99.33333333333334</ele><time>2026-04-26T13:39:50.102Z</time></trkpt><trkpt lat="45.7311618" lon="10.7246323"><ele>103.66666666666667</ele><time>2026-04-26T13:39:51.102Z</time></trkpt><trkpt lat="45.7310964" lon="10.7244342"><ele>108.0</ele><time>2026-04-26T13:39:52.102Z</time></trkpt><trkpt lat="45.7310338" lon="10.7242418"><ele>101.25</ele><time>2026-04-26T13:39:53.102Z</time></trkpt><trkpt lat="45.7309708" lon="10.7240573"><ele>94.5</ele><time>2026-04-26T13:39:54.101Z</time></trkpt><trkpt lat="45.7309051" lon="10.7238803"><ele>87.75</ele><time>2026-04-26T13:39:55.102Z</time></trkpt><trkpt lat="45.7308346" lon="10.7237094"><ele>81.0</ele><time>2026-04-26T13:39:56.102Z</time></trkpt><trkpt lat="45.7307616" lon="10.7235358"><ele>80.5</ele><time>2026-04-26T13:39:57.102Z</time></trkpt><trkpt lat="45.7306814" lon="10.7233701"><ele>80.0</ele><time>2026-04-26T13:39:58.102Z</time></trkpt><trkpt lat="45.7306029" lon="10.7232056"><ele>79.5</ele><time>2026-04-26T13:39:59.102Z</time></trkpt><trkpt lat="45.7305254" lon="10.7230462"><ele>79.0</ele><time>2026-04-26T13:40:00.102Z</time></trkpt><trkpt lat="45.7304472" lon="10.7228903"><ele>79.0</ele><time>2026-04-26T13:40:01.102Z</time></trkpt><trkpt lat="45.7303699" lon="10.7227376"><ele>79.0</ele><time>2026-04-26T13:40:02.102Z</time></trkpt><trkpt lat="45.7302949" lon="10.7225885"><ele>79.0</ele><time>2026-04-26T13:40:03.102Z</time></trkpt><trkpt lat="45.7302231" lon="10.722441"><ele>79.0</ele><time>2026-04-26T13:40:04.102Z</time></trkpt><trkpt lat="45.7301456" lon="10.7222926"><ele>77.75</ele><time>2026-04-26T13:40:05.102Z</time></trkpt><trkpt lat="45.7300695" lon="10.7221354"><ele>76.5</ele><time>2026-04-26T13:40:06.102Z</time></trkpt><trkpt lat="45.7299936" lon="10.72198"><ele>75.25</ele><time>2026-04-26T13:40:07.102Z</time></trkpt><trkpt lat="45.7299112" lon="10.7218255"><ele>74.0</ele><time>2026-04-26T13:40:08.102Z</time></trkpt><trkpt lat="45.7298321" lon="10.7216739"><ele>85.80000000000001</ele><time>2026-04-26T13:40:09.102Z</time></trkpt><trkpt lat="45.7297611" lon="10.7215366"><ele>97.60000000000001</ele><time>2026-04-26T13:40:10.102Z</time></trkpt><trkpt lat="45.7297034" lon="10.7214238"><ele>109.4</ele><time>2026-04-26T13:40:11.102Z</time></trkpt><trkpt lat="45.7296482" lon="10.7213309"><ele>121.2</ele><time>2026-04-26T13:40:12.102Z</time></trkpt><trkpt lat="45.7296072" lon="10.7212455"><ele>133.0</ele><time>2026-04-26T13:40:13.102Z</time></trkpt><trkpt lat="45.7295478" lon="10.7210978"><ele>137.8</ele><time>2026-04-26T13:40:15.101Z</time></trkpt><trkpt lat="45.7294605" lon="10.7209267"><ele>142.60000000000002</ele><time>2026-04-26T13:40:17.102Z</time></trkpt><trkpt lat="45.729416" lon="10.7208503"><ele>147.39999999999998</ele><time>2026-04-26T13:40:18.102Z</time></trkpt><trkpt lat="45.7293633" lon="10.7207681"><ele>152.2</ele><time>2026-04-26T13:40:19.102Z</time></trkpt><trkpt lat="45.7292755" lon="10.7206371"><ele>157.0</ele><time>2026-04-26T13:40:20.102Z</time></trkpt><trkpt lat="45.7292007" lon="10.7205668"><ele>142.25</ele><time>2026-04-26T13:40:21.102Z</time></trkpt><trkpt lat="45.7291206" lon="10.7204807"><ele>127.5</ele><time>2026-04-26T13:40:22.102Z</time></trkpt><trkpt lat="45.7289973" lon="10.7204157"><ele>112.75</ele><time>2026-04-26T13:40:23.102Z</time></trkpt><trkpt lat="45.7288449" lon="10.7203459"><ele>98.0</ele><time>2026-04-26T13:40:24.102Z</time></trkpt><trkpt lat="45.7287377" lon="10.7202935"><ele>98.0</ele><time>2026-04-26T13:40:25.102Z</time></trkpt><trkpt lat="45.7286199" lon="10.7202467"><ele>98.0</ele><time>2026-04-26T13:40:26.102Z</time></trkpt><trkpt lat="45.7285141" lon="10.7202076"><ele>98.0</ele><time>2026-04-26T13:40:27.102Z</time></trkpt><trkpt lat="45.7284151" lon="10.7201676"><ele>98.0</ele><time>2026-04-26T13:40:28.102Z</time></trkpt><trkpt lat="45.7283206" lon="10.7201122"><ele>98.0</ele><time>2026-04-26T13:40:29.102Z</time></trkpt><trkpt lat="45.7282308" lon="10.7200316"><ele>93.25</ele><time>2026-04-26T13:40:30.102Z</time></trkpt><trkpt lat="45.7281462" lon="10.7199237"><ele>88.5</ele><time>2026-04-26T13:40:31.102Z</time></trkpt><trkpt lat="45.7280788" lon="10.7197928"><ele>83.75</ele><time>2026-04-26T13:40:32.102Z</time></trkpt><trkpt lat="45.7280208" lon="10.7196496"><ele>79.0</ele><time>2026-04-26T13:40:33.102Z</time></trkpt><trkpt lat="45.7279826" lon="10.7194918"><ele>82.25</ele><time>2026-04-26T13:40:34.102Z</time></trkpt><trkpt lat="45.7279591" lon="10.7193285"><ele>85.5</ele><time>2026-04-26T13:40:35.102Z</time></trkpt><trkpt lat="45.7279527" lon="10.7191651"><ele>88.75</ele><time>2026-04-26T13:40:36.101Z</time></trkpt><trkpt lat="45.7279524" lon="10.7189921"><ele>92.0</ele><time>2026-04-26T13:40:37.101Z</time></trkpt><trkpt lat="45.7279606" lon="10.7188156"><ele>92.0</ele><time>2026-04-26T13:40:38.102Z</time></trkpt><trkpt lat="45.7279731" lon="10.7186552"><ele>92.0</ele><time>2026-04-26T13:40:39.102Z</time></trkpt><trkpt lat="45.7279748" lon="10.7185037"><ele>92.0</ele><time>2026-04-26T13:40:40.101Z</time></trkpt><trkpt lat="45.7279775" lon="10.7183531"><ele>92.0</ele><time>2026-04-26T13:40:41.101Z</time></trkpt><trkpt lat="45.7279765" lon="10.7181907"><ele>92.0</ele><time>2026-04-26T13:40:42.102Z</time></trkpt><trkpt lat="45.7279631" lon="10.7180232"><ele>90.5</ele><time>2026-04-26T13:40:43.102Z</time></trkpt><trkpt lat="45.7279415" lon="10.7178569"><ele>89.0</ele><time>2026-04-26T13:40:44.101Z</time></trkpt><trkpt lat="45.7279146" lon="10.7176901"><ele>87.5</ele><time>2026-04-26T13:40:45.102Z</time></trkpt><trkpt lat="45.7278852" lon="10.7175147"><ele>86.0</ele><time>2026-04-26T13:40:46.102Z</time></trkpt><trkpt lat="45.7278682" lon="10.71736"><ele>122.66666666666666</ele><time>2026-04-26T13:40:47.102Z</time></trkpt><trkpt lat="45.7278361" lon="10.7172027"><ele>159.33333333333331</ele><time>2026-04-26T13:40:48.102Z</time></trkpt><trkpt lat="45.7277943" lon="10.7170421"><ele>196.0</ele><time>2026-04-26T13:40:49.102Z</time></trkpt><trkpt lat="45.7186007" lon="10.7064409"><ele>184.66666666666666</ele><time>2026-04-26T13:42:04.102Z</time></trkpt><trkpt lat="45.7184134" lon="10.7064182"><ele>173.33333333333331</ele><time>2026-04-26T13:42:05.102Z</time></trkpt><trkpt lat="45.7182125" lon="10.7063579"><ele>162.0</ele><time>2026-04-26T13:42:06.102Z</time></trkpt><trkpt lat="45.7180624" lon="10.706232"><ele>162.0</ele><time>2026-04-26T13:42:07.102Z</time></trkpt><trkpt lat="45.7179259" lon="10.7060892"><ele>162.0</ele><time>2026-04-26T13:42:08.102Z</time></trkpt><trkpt lat="45.717794" lon="10.7059373"><ele>162.0</ele><time>2026-04-26T13:42:09.102Z</time></trkpt><trkpt lat="45.7176618" lon="10.705778"><ele>164.33333333333334</ele><time>2026-04-26T13:42:10.101Z</time></trkpt><trkpt lat="45.7175358" lon="10.7056012"><ele>166.66666666666669</ele><time>2026-04-26T13:42:11.102Z</time></trkpt><trkpt lat="45.7174113" lon="10.7054212"><ele>169.0</ele><time>2026-04-26T13:42:12.101Z</time></trkpt><trkpt lat="45.71729" lon="10.705234"><ele>169.0</ele><time>2026-04-26T13:42:13.102Z</time></trkpt><trkpt lat="45.717172" lon="10.705053"><ele>169.0</ele><time>2026-04-26T13:42:14.102Z</time></trkpt><trkpt lat="45.7170638" lon="10.7048756"><ele>169.0</ele><time>2026-04-26T13:42:15.102Z</time></trkpt><trkpt lat="45.7169636" lon="10.7047061"><ele>166.66666666666669</ele><time>2026-04-26T13:42:16.101Z</time></trkpt><trkpt lat="45.7168653" lon="10.704537"><ele>164.33333333333334</ele><time>2026-04-26T13:42:17.102Z</time></trkpt><trkpt lat="45.7167677" lon="10.7043679"><ele>162.0</ele><time>2026-04-26T13:42:18.102Z</time></trkpt><trkpt lat="45.7166688" lon="10.7042042"><ele>162.0</ele><time>2026-04-26T13:42:19.102Z</time></trkpt><trkpt lat="45.7165613" lon="10.7040516"><ele>162.0</ele><time>2026-04-26T13:42:20.102Z</time></trkpt><trkpt lat="45.7164434" lon="10.7039135"><ele>162.0</ele><time>2026-04-26T13:42:21.101Z</time></trkpt><trkpt lat="45.7163265" lon="10.7037902"><ele>162.0</ele><time>2026-04-26T13:42:22.102Z</time></trkpt><trkpt lat="45.716218" lon="10.7036746"><ele>162.2</ele><time>2026-04-26T13:42:23.102Z</time></trkpt><trkpt lat="45.7161167" lon="10.7035717"><ele>162.39999999999998</ele><time>2026-04-26T13:42:24.102Z</time></trkpt><trkpt lat="45.7160234" lon="10.7034768"><ele>162.60000000000002</ele><time>2026-04-26T13:42:25.102Z</time></trkpt><trkpt lat="45.7159402" lon="10.7033908"><ele>162.8</ele><time>2026-04-26T13:42:26.101Z</time></trkpt><trkpt lat="45.715859" lon="10.7033117"><ele>163.0</ele><time>2026-04-26T13:42:27.102Z</time></trkpt><trkpt lat="45.7157783" lon="10.7032286"><ele>163.0</ele><time>2026-04-26T13:42:28.102Z</time></trkpt><trkpt lat="45.715697" lon="10.7031535"><ele>163.0</ele><time>2026-04-26T13:42:29.102Z</time></trkpt><trkpt lat="45.7156156" lon="10.7030778"><ele>163.0</ele><time>2026-04-26T13:42:30.102Z</time></trkpt><trkpt lat="45.7155335" lon="10.7030015"><ele>163.0</ele><time>2026-04-26T13:42:31.101Z</time></trkpt><trkpt lat="45.715452" lon="10.7029182"><ele>163.0</ele><time>2026-04-26T13:42:32.102Z</time></trkpt><trkpt lat="45.7153682" lon="10.7028297"><ele>163.25</ele><time>2026-04-26T13:42:33.101Z</time></trkpt><trkpt lat="45.7152814" lon="10.7027399"><ele>163.5</ele><time>2026-04-26T13:42:34.102Z</time></trkpt><trkpt lat="45.7151889" lon="10.7026457"><ele>163.75</ele><time>2026-04-26T13:42:35.102Z</time></trkpt><trkpt lat="45.7150897" lon="10.7025458"><ele>164.0</ele><time>2026-04-26T13:42:36.101Z</time></trkpt><trkpt lat="45.7149894" lon="10.702442"><ele>164.0</ele><time>2026-04-26T13:42:37.101Z</time></trkpt><trkpt lat="45.7148926" lon="10.7023275"><ele>164.0</ele><time>2026-04-26T13:42:38.102Z</time></trkpt><trkpt lat="45.7147996" lon="10.7022127"><ele>164.0</ele><time>2026-04-26T13:42:39.102Z</time></trkpt><trkpt lat="45.7147133" lon="10.7021016"><ele>164.0</ele><time>2026-04-26T13:42:40.102Z</time></trkpt><trkpt lat="45.7146299" lon="10.7019909"><ele>164.6</ele><time>2026-04-26T13:42:41.101Z</time></trkpt><trkpt lat="45.714551" lon="10.7018826"><ele>165.2</ele><time>2026-04-26T13:42:42.102Z</time></trkpt><trkpt lat="45.7144733" lon="10.7017822"><ele>165.79999999999998</ele><time>2026-04-26T13:42:43.102Z</time></trkpt><trkpt lat="45.7144039" lon="10.701685"><ele>166.39999999999998</ele><time>2026-04-26T13:42:44.102Z</time></trkpt><trkpt lat="45.7143351" lon="10.7015896"><ele>167.0</ele><time>2026-04-26T13:42:45.102Z</time></trkpt><trkpt lat="45.7142656" lon="10.7015017"><ele>167.0</ele><time>2026-04-26T13:42:46.102Z</time></trkpt><trkpt lat="45.7142014" lon="10.7014289"><ele>167.0</ele><time>2026-04-26T13:42:47.101Z</time></trkpt><trkpt lat="45.7141418" lon="10.7013686"><ele>167.0</ele><time>2026-04-26T13:42:48.102Z</time></trkpt><trkpt lat="45.7140862" lon="10.7013151"><ele>167.0</ele><time>2026-04-26T13:42:49.102Z</time></trkpt><trkpt lat="45.71398" lon="10.7012371"><ele>167.0</ele><time>2026-04-26T13:42:51.102Z</time></trkpt><trkpt lat="45.7139164" lon="10.7012077"><ele>167.0</ele><time>2026-04-26T13:42:52.102Z</time></trkpt><trkpt lat="45.7138432" lon="10.7011789"><ele>167.0</ele><time>2026-04-26T13:42:53.102Z</time></trkpt><trkpt lat="45.7137651" lon="10.7011401"><ele>167.0</ele><time>2026-04-26T13:42:54.102Z</time></trkpt><trkpt lat="45.7136838" lon="10.7010876"><ele>167.0</ele><time>2026-04-26T13:42:55.102Z</time></trkpt><trkpt lat="45.7135924" lon="10.7010348"><ele>167.0</ele><time>2026-04-26T13:42:56.102Z</time></trkpt><trkpt lat="45.7134971" lon="10.7009789"><ele>167.0</ele><time>2026-04-26T13:42:57.102Z</time></trkpt><trkpt lat="45.7133988" lon="10.700921"><ele>169.0</ele><time>2026-04-26T13:42:58.102Z</time></trkpt><trkpt lat="45.713304" lon="10.7008639"><ele>171.0</ele><time>2026-04-26T13:42:59.101Z</time></trkpt><trkpt lat="45.7132125" lon="10.7008086"><ele>173.0</ele><time>2026-04-26T13:43:00.102Z</time></trkpt><trkpt lat="45.7131324" lon="10.7007604"><ele>175.0</ele><time>2026-04-26T13:43:01.102Z</time></trkpt><trkpt lat="45.7130671" lon="10.7007239"><ele>177.0</ele><time>2026-04-26T13:43:02.102Z</time></trkpt><trkpt lat="45.7129956" lon="10.7006751"><ele>179.0</ele><time>2026-04-26T13:43:04.102Z</time></trkpt><trkpt lat="45.712934" lon="10.7006287"><ele>179.0</ele><time>2026-04-26T13:43:15.101Z</time></trkpt><trkpt lat="45.7128485" lon="10.7005541"><ele>179.0</ele><time>2026-04-26T13:43:17.102Z</time></trkpt><trkpt lat="45.7127766" lon="10.7005048"><ele>179.0</ele><time>2026-04-26T13:43:18.102Z</time></trkpt><trkpt lat="45.7126965" lon="10.7004554"><ele>179.0</ele><time>2026-04-26T13:43:19.101Z</time></trkpt><trkpt lat="45.7126115" lon="10.7003997"><ele>179.0</ele><time>2026-04-26T13:43:20.101Z</time></trkpt><trkpt lat="45.7125265" lon="10.7003293"><ele>178.79999999999998</ele><time>2026-04-26T13:43:21.102Z</time></trkpt><trkpt lat="45.7124594" lon="10.700242"><ele>178.6</ele><time>2026-04-26T13:43:22.101Z</time></trkpt><trkpt lat="45.7124085" lon="10.7001541"><ele>178.4</ele><time>2026-04-26T13:43:23.102Z</time></trkpt><trkpt lat="45.7124254" lon="10.7000381"><ele>178.2</ele><time>2026-04-26T13:43:24.102Z</time></trkpt><trkpt lat="45.712317" lon="10.6999658"><ele>178.0</ele><time>2026-04-26T13:43:25.102Z</time></trkpt><trkpt lat="45.712267" lon="10.6998622"><ele>178.0</ele><time>2026-04-26T13:43:26.102Z</time></trkpt><trkpt lat="45.7084706" lon="10.6927793"><ele>190.0</ele><time>2026-04-26T13:44:04.102Z</time></trkpt><trkpt lat="45.7084111" lon="10.6925354"><ele>202.0</ele><time>2026-04-26T13:44:05.102Z</time></trkpt><trkpt lat="45.7083515" lon="10.6922931"><ele>214.0</ele><time>2026-04-26T13:44:06.102Z</time></trkpt><trkpt lat="45.7082736" lon="10.6921627"><ele>214.0</ele><time>2026-04-26T13:44:07.102Z</time></trkpt><trkpt lat="45.7082173" lon="10.6919294"><ele>214.0</ele><time>2026-04-26T13:44:08.102Z</time></trkpt><trkpt lat="45.7081791" lon="10.6916958"><ele>214.0</ele><time>2026-04-26T13:44:09.102Z</time></trkpt><trkpt lat="45.7081136" lon="10.6914527"><ele>235.0</ele><time>2026-04-26T13:44:10.102Z</time></trkpt><trkpt lat="45.7080559" lon="10.6912121"><ele>256.0</ele><time>2026-04-26T13:44:11.102Z</time></trkpt><trkpt lat="45.7031831" lon="10.6814802"><ele>236.33333333333331</ele><time>2026-04-26T13:44:56.102Z</time></trkpt><trkpt lat="45.7030978" lon="10.681272"><ele>216.66666666666669</ele><time>2026-04-26T13:44:57.102Z</time></trkpt><trkpt lat="45.7030286" lon="10.6810773"><ele>197.0</ele><time>2026-04-26T13:44:58.102Z</time></trkpt><trkpt lat="45.7029576" lon="10.680903"><ele>197.0</ele><time>2026-04-26T13:44:59.102Z</time></trkpt><trkpt lat="45.7028893" lon="10.6807372"><ele>197.0</ele><time>2026-04-26T13:45:00.102Z</time></trkpt><trkpt lat="45.7028061" lon="10.6806002"><ele>197.0</ele><time>2026-04-26T13:45:01.101Z</time></trkpt><trkpt lat="45.7027063" lon="10.6804951"><ele>197.0</ele><time>2026-04-26T13:45:02.102Z</time></trkpt><trkpt lat="45.7025959" lon="10.6804184"><ele>193.5</ele><time>2026-04-26T13:45:03.102Z</time></trkpt><trkpt lat="45.7024935" lon="10.6803576"><ele>190.0</ele><time>2026-04-26T13:45:04.101Z</time></trkpt><trkpt lat="45.7023952" lon="10.6802889"><ele>186.5</ele><time>2026-04-26T13:45:05.101Z</time></trkpt><trkpt lat="45.7023002" lon="10.6802009"><ele>183.0</ele><time>2026-04-26T13:45:06.102Z</time></trkpt><trkpt lat="45.7022085" lon="10.6800923"><ele>183.0</ele><time>2026-04-26T13:45:07.102Z</time></trkpt><trkpt lat="45.7021236" lon="10.6799626"><ele>183.0</ele><time>2026-04-26T13:45:08.102Z</time></trkpt><trkpt lat="45.7020476" lon="10.679822"><ele>183.0</ele><time>2026-04-26T13:45:09.102Z</time></trkpt><trkpt lat="45.7019721" lon="10.67968"><ele>183.0</ele><time>2026-04-26T13:45:10.102Z</time></trkpt><trkpt lat="45.7018966" lon="10.6795377"><ele>178.75</ele><time>2026-04-26T13:45:11.101Z</time></trkpt><trkpt lat="45.7018223" lon="10.6793944"><ele>174.5</ele><time>2026-04-26T13:45:12.102Z</time></trkpt><trkpt lat="45.7017471" lon="10.6792486"><ele>170.25</ele><time>2026-04-26T13:45:13.102Z</time></trkpt><trkpt lat="45.7016681" lon="10.6790941"><ele>166.0</ele><time>2026-04-26T13:45:14.102Z</time></trkpt><trkpt lat="45.7015847" lon="10.6789511"><ele>166.0</ele><time>2026-04-26T13:45:15.102Z</time></trkpt><trkpt lat="45.7014967" lon="10.6788229"><ele>166.0</ele><time>2026-04-26T13:45:16.102Z</time></trkpt><trkpt lat="45.7014052" lon="10.6787076"><ele>166.0</ele><time>2026-04-26T13:45:17.101Z</time></trkpt><trkpt lat="45.7013029" lon="10.6786071"><ele>166.0</ele><time>2026-04-26T13:45:18.102Z</time></trkpt><trkpt lat="45.7011944" lon="10.6784984"><ele>162.0</ele><time>2026-04-26T13:45:19.102Z</time></trkpt><trkpt lat="45.7010796" lon="10.678384"><ele>158.0</ele><time>2026-04-26T13:45:20.102Z</time></trkpt><trkpt lat="45.7009656" lon="10.6782644"><ele>154.0</ele><time>2026-04-26T13:45:21.102Z</time></trkpt><trkpt lat="45.7008496" lon="10.6781476"><ele>150.0</ele><time>2026-04-26T13:45:22.102Z</time></trkpt><trkpt lat="45.7007342" lon="10.6780364"><ele>150.0</ele><time>2026-04-26T13:45:23.102Z</time></trkpt><trkpt lat="45.7006312" lon="10.677927"><ele>150.0</ele><time>2026-04-26T13:45:24.102Z</time></trkpt><trkpt lat="45.7005332" lon="10.6778227"><ele>150.0</ele><time>2026-04-26T13:45:25.102Z</time></trkpt><trkpt lat="45.7004363" lon="10.6777229"><ele>150.0</ele><time>2026-04-26T13:45:26.102Z</time></trkpt><trkpt lat="45.7003368" lon="10.6776182"><ele>148.0</ele><time>2026-04-26T13:45:27.102Z</time></trkpt><trkpt lat="45.7002377" lon="10.677521"><ele>146.0</ele><time>2026-04-26T13:45:28.102Z</time></trkpt><trkpt lat="45.7001414" lon="10.6774286"><ele>144.0</ele><time>2026-04-26T13:45:29.102Z</time></trkpt><trkpt lat="45.7000485" lon="10.6773349"><ele>142.0</ele><time>2026-04-26T13:45:30.102Z</time></trkpt><trkpt lat="45.6999552" lon="10.677236"><ele>142.0</ele><time>2026-04-26T13:45:31.102Z</time></trkpt><trkpt lat="45.6998661" lon="10.6771288"><ele>142.0</ele><time>2026-04-26T13:45:32.102Z</time></trkpt><trkpt lat="45.6997819" lon="10.6770113"><ele>142.0</ele><time>2026-04-26T13:45:33.102Z</time></trkpt><trkpt lat="45.6996997" lon="10.6768843"><ele>142.0</ele><time>2026-04-26T13:45:34.102Z</time></trkpt><trkpt lat="45.6996241" lon="10.6767415"><ele>142.25</ele><time>2026-04-26T13:45:35.102Z</time></trkpt><trkpt lat="45.6995478" lon="10.6765909"><ele>142.5</ele><time>2026-04-26T13:45:36.102Z</time></trkpt><trkpt lat="45.6994671" lon="10.6764313"><ele>142.75</ele><time>2026-04-26T13:45:37.102Z</time></trkpt><trkpt lat="45.6993906" lon="10.6762676"><ele>143.0</ele><time>2026-04-26T13:45:38.102Z</time></trkpt><trkpt lat="45.6993069" lon="10.676099"><ele>143.0</ele><time>2026-04-26T13:45:39.101Z</time></trkpt><trkpt lat="45.6992045" lon="10.6759242"><ele>143.0</ele><time>2026-04-26T13:45:40.102Z</time></trkpt><trkpt lat="45.6990814" lon="10.6757512"><ele>143.0</ele><time>2026-04-26T13:45:41.102Z</time></trkpt><trkpt lat="45.6989531" lon="10.675562"><ele>143.0</ele><time>2026-04-26T13:45:42.102Z</time></trkpt><trkpt lat="45.6988247" lon="10.6753603"><ele>143.0</ele><time>2026-04-26T13:45:43.102Z</time></trkpt><trkpt lat="45.698691" lon="10.6751562"><ele>143.0</ele><time>2026-04-26T13:45:44.102Z</time></trkpt><trkpt lat="45.6985538" lon="10.6749514"><ele>143.33333333333331</ele><time>2026-04-26T13:45:45.102Z</time></trkpt><trkpt lat="45.6984223" lon="10.6747528"><ele>143.66666666666666</ele><time>2026-04-26T13:45:46.102Z</time></trkpt><trkpt lat="45.698294" lon="10.6745615"><ele>144.0</ele><time>2026-04-26T13:45:47.102Z</time></trkpt><trkpt lat="45.6981685" lon="10.6743766"><ele>144.0</ele><time>2026-04-26T13:45:48.102Z</time></trkpt><trkpt lat="45.6980505" lon="10.6742052"><ele>144.0</ele><time>2026-04-26T13:45:49.102Z</time></trkpt><trkpt lat="45.6979425" lon="10.6740473"><ele>144.0</ele><time>2026-04-26T13:45:50.102Z</time></trkpt><trkpt lat="45.6978357" lon="10.6738946"><ele>140.75</ele><time>2026-04-26T13:45:51.102Z</time></trkpt><trkpt lat="45.6977385" lon="10.6737427"><ele>137.5</ele><time>2026-04-26T13:45:52.102Z</time></trkpt><trkpt lat="45.6976509" lon="10.6735881"><ele>134.25</ele><time>2026-04-26T13:45:53.102Z</time></trkpt><trkpt lat="45.6975655" lon="10.6734311"><ele>131.0</ele><time>2026-04-26T13:45:54.102Z</time></trkpt><trkpt lat="45.6974805" lon="10.6732676"><ele>131.0</ele><time>2026-04-26T13:45:55.102Z</time></trkpt><trkpt lat="45.6973923" lon="10.6730942"><ele>131.0</ele><time>2026-04-26T13:45:56.102Z</time></trkpt><trkpt lat="45.6973066" lon="10.6729257"><ele>131.0</ele><time>2026-04-26T13:45:57.101Z</time></trkpt><trkpt lat="45.697235" lon="10.6727832"><ele>131.0</ele><time>2026-04-26T13:45:58.102Z</time></trkpt><trkpt lat="45.6971566" lon="10.6726456"><ele>132.25</ele><time>2026-04-26T13:45:59.102Z</time></trkpt><trkpt lat="45.697074" lon="10.672518"><ele>133.5</ele><time>2026-04-26T13:46:00.102Z</time></trkpt><trkpt lat="45.6969812" lon="10.6723935"><ele>134.75</ele><time>2026-04-26T13:46:01.102Z</time></trkpt><trkpt lat="45.6968848" lon="10.6722704"><ele>136.0</ele><time>2026-04-26T13:46:02.102Z</time></trkpt><trkpt lat="45.6967853" lon="10.6721426"><ele>135.25</ele><time>2026-04-26T13:46:03.102Z</time></trkpt><trkpt lat="45.6966866" lon="10.6720174"><ele>134.5</ele><time>2026-04-26T13:46:04.102Z</time></trkpt><trkpt lat="45.6965915" lon="10.6718931"><ele>133.75</ele><time>2026-04-26T13:46:05.102Z</time></trkpt><trkpt lat="45.6964979" lon="10.6717771"><ele>133.0</ele><time>2026-04-26T13:46:06.102Z</time></trkpt><trkpt lat="45.6964103" lon="10.6716589"><ele>133.0</ele><time>2026-04-26T13:46:07.102Z</time></trkpt><trkpt lat="45.6963186" lon="10.6715437"><ele>133.0</ele><time>2026-04-26T13:46:08.102Z</time></trkpt><trkpt lat="45.6962229" lon="10.6714267"><ele>133.0</ele><time>2026-04-26T13:46:09.101Z</time></trkpt><trkpt lat="45.6961351" lon="10.6712962"><ele>133.0</ele><time>2026-04-26T13:46:10.102Z</time></trkpt><trkpt lat="45.6960562" lon="10.6711587"><ele>130.5</ele><time>2026-04-26T13:46:11.102Z</time></trkpt><trkpt lat="45.6959834" lon="10.671006"><ele>128.0</ele><time>2026-04-26T13:46:12.101Z</time></trkpt><trkpt lat="45.695915" lon="10.6708286"><ele>125.5</ele><time>2026-04-26T13:46:13.102Z</time></trkpt><trkpt lat="45.6958547" lon="10.6706399"><ele>123.0</ele><time>2026-04-26T13:46:14.102Z</time></trkpt><trkpt lat="45.6957822" lon="10.670436"><ele>125.66666666666666</ele><time>2026-04-26T13:46:15.102Z</time></trkpt><trkpt lat="45.6956898" lon="10.6702109"><ele>128.33333333333331</ele><time>2026-04-26T13:46:16.102Z</time></trkpt><trkpt lat="45.6955905" lon="10.6699678"><ele>131.0</ele><time>2026-04-26T13:46:17.102Z</time></trkpt><trkpt lat="45.6954905" lon="10.6697219"><ele>131.0</ele><time>2026-04-26T13:46:18.102Z</time></trkpt><trkpt lat="45.6953921" lon="10.6694846"><ele>131.0</ele><time>2026-04-26T13:46:19.102Z</time></trkpt><trkpt lat="45.6953006" lon="10.6692607"><ele>131.0</ele><time>2026-04-26T13:46:20.102Z</time></trkpt><trkpt lat="45.6952164" lon="10.6690614"><ele>130.5</ele><time>2026-04-26T13:46:21.102Z</time></trkpt><trkpt lat="45.695145" lon="10.6688815"><ele>130.0</ele><time>2026-04-26T13:46:22.102Z</time></trkpt><trkpt lat="45.6950794" lon="10.6687214"><ele>129.5</ele><time>2026-04-26T13:46:23.101Z</time></trkpt><trkpt lat="45.6950159" lon="10.6685673"><ele>129.0</ele><time>2026-04-26T13:46:24.102Z</time></trkpt><trkpt lat="45.694937" lon="10.6684525"><ele>129.0</ele><time>2026-04-26T13:46:25.102Z</time></trkpt><trkpt lat="45.694849" lon="10.6683463"><ele>129.0</ele><time>2026-04-26T13:46:26.102Z</time></trkpt><trkpt lat="45.6947507" lon="10.6682633"><ele>129.0</ele><time>2026-04-26T13:46:27.102Z</time></trkpt><trkpt lat="45.694641" lon="10.6681963"><ele>129.0</ele><time>2026-04-26T13:46:28.102Z</time></trkpt><trkpt lat="45.6945199" lon="10.668139"><ele>123.25</ele><time>2026-04-26T13:46:29.102Z</time></trkpt><trkpt lat="45.6944028" lon="10.6680884"><ele>117.5</ele><time>2026-04-26T13:46:30.102Z</time></trkpt><trkpt lat="45.6942881" lon="10.6680368"><ele>111.75</ele><time>2026-04-26T13:46:31.102Z</time></trkpt><trkpt lat="45.6941741" lon="10.6679871"><ele>106.0</ele><time>2026-04-26T13:46:32.102Z</time></trkpt><trkpt lat="45.6940658" lon="10.6679222"><ele>106.0</ele><time>2026-04-26T13:46:33.102Z</time></trkpt><trkpt lat="45.6939632" lon="10.6678346"><ele>106.0</ele><time>2026-04-26T13:46:34.102Z</time></trkpt><trkpt lat="45.6938745" lon="10.6677332"><ele>106.0</ele><time>2026-04-26T13:46:35.101Z</time></trkpt><trkpt lat="45.6937909" lon="10.6676209"><ele>106.0</ele><time>2026-04-26T13:46:36.102Z</time></trkpt><trkpt lat="45.6937183" lon="10.6675241"><ele>106.0</ele><time>2026-04-26T13:46:37.102Z</time></trkpt><trkpt lat="45.6936583" lon="10.6674511"><ele>106.50000000000001</ele><time>2026-04-26T13:46:38.102Z</time></trkpt><trkpt lat="45.6935759" lon="10.6673807"><ele>107.0</ele><time>2026-04-26T13:46:40.102Z</time></trkpt><trkpt lat="45.6935073" lon="10.6673298"><ele>107.5</ele><time>2026-04-26T13:46:42.102Z</time></trkpt><trkpt lat="45.6934086" lon="10.6672965"><ele>108.0</ele><time>2026-04-26T13:46:44.101Z</time></trkpt><trkpt lat="45.6933387" lon="10.6672726"><ele>108.50000000000001</ele><time>2026-04-26T13:46:45.102Z</time></trkpt><trkpt lat="45.6932526" lon="10.6672559"><ele>109.0</ele><time>2026-04-26T13:46:46.102Z</time></trkpt><trkpt lat="45.6931622" lon="10.6672361"><ele>109.00000000000001</ele><time>2026-04-26T13:46:47.102Z</time></trkpt><trkpt lat="45.6930753" lon="10.6672111"><ele>109.0</ele><time>2026-04-26T13:46:48.102Z</time></trkpt><trkpt lat="45.6929908" lon="10.6671995"><ele>109.0</ele><time>2026-04-26T13:46:49.102Z</time></trkpt><trkpt lat="45.6929084" lon="10.6671861"><ele>109.0</ele><time>2026-04-26T13:46:50.101Z</time></trkpt><trkpt lat="45.6928328" lon="10.667177"><ele>109.00000000000001</ele><time>2026-04-26T13:46:51.102Z</time></trkpt><trkpt lat="45.6927693" lon="10.6671638"><ele>109.0</ele><time>2026-04-26T13:46:52.101Z</time></trkpt><trkpt lat="45.6926591" lon="10.667132"><ele>109.80000000000001</ele><time>2026-04-26T13:46:54.102Z</time></trkpt><trkpt lat="45.6925619" lon="10.6671102"><ele>110.60000000000001</ele><time>2026-04-26T13:46:56.102Z</time></trkpt><trkpt lat="45.6924735" lon="10.6670869"><ele>111.4</ele><time>2026-04-26T13:46:58.102Z</time></trkpt><trkpt lat="45.6923934" lon="10.6670462"><ele>112.2</ele><time>2026-04-26T13:47:00.101Z</time></trkpt><trkpt lat="45.6922781" lon="10.6669716"><ele>113.0</ele><time>2026-04-26T13:47:02.102Z</time></trkpt><trkpt lat="45.6922248" lon="10.6669178"><ele>112.99999999999999</ele><time>2026-04-26T13:47:03.102Z</time></trkpt><trkpt lat="45.692174" lon="10.6668601"><ele>113.0</ele><time>2026-04-26T13:47:04.102Z</time></trkpt><trkpt lat="45.6921239" lon="10.6667932"><ele>113.0</ele><time>2026-04-26T13:47:05.102Z</time></trkpt><trkpt lat="45.6920748" lon="10.6667174"><ele>113.0</ele><time>2026-04-26T13:47:06.102Z</time></trkpt><trkpt lat="45.6920341" lon="10.66664"><ele>112.99999999999999</ele><time>2026-04-26T13:47:07.101Z</time></trkpt><trkpt lat="45.6919528" lon="10.6665081"><ele>113.0</ele><time>2026-04-26T13:47:09.102Z</time></trkpt><trkpt lat="45.6918761" lon="10.666372"><ele>112.0</ele><time>2026-04-26T13:47:11.102Z</time></trkpt><trkpt lat="45.6918074" lon="10.6662532"><ele>111.00000000000001</ele><time>2026-04-26T13:47:13.102Z</time></trkpt><trkpt lat="45.6917602" lon="10.6661777"><ele>110.00000000000001</ele><time>2026-04-26T13:47:16.102Z</time></trkpt><trkpt lat="45.6917019" lon="10.6660929"><ele>109.0</ele><time>2026-04-26T13:47:19.102Z</time></trkpt><trkpt lat="45.6916082" lon="10.6659427"><ele>108.0</ele><time>2026-04-26T13:47:21.102Z</time></trkpt><trkpt lat="45.6915523" lon="10.6658515"><ele>108.0</ele><time>2026-04-26T13:47:22.102Z</time></trkpt><trkpt lat="45.6914953" lon="10.6657545"><ele>108.0</ele><time>2026-04-26T13:47:23.101Z</time></trkpt><trkpt lat="45.6914392" lon="10.665657"><ele>108.0</ele><time>2026-04-26T13:47:24.102Z</time></trkpt><trkpt lat="45.6913815" lon="10.6655614"><ele>108.0</ele><time>2026-04-26T13:47:25.102Z</time></trkpt><trkpt lat="45.6913233" lon="10.6654634"><ele>108.0</ele><time>2026-04-26T13:47:26.101Z</time></trkpt><trkpt lat="45.691261" lon="10.6653646"><ele>108.0</ele><time>2026-04-26T13:47:27.101Z</time></trkpt><trkpt lat="45.6911964" lon="10.6652573"><ele>109.0</ele><time>2026-04-26T13:47:28.102Z</time></trkpt><trkpt lat="45.6911327" lon="10.6651518"><ele>110.0</ele><time>2026-04-26T13:47:29.102Z</time></trkpt><trkpt lat="45.6910738" lon="10.6650568"><ele>111.0</ele><time>2026-04-26T13:47:30.102Z</time></trkpt><trkpt lat="45.6910204" lon="10.6649667"><ele>112.0</ele><time>2026-04-26T13:47:31.102Z</time></trkpt><trkpt lat="45.6909693" lon="10.6648871"><ele>113.0</ele><time>2026-04-26T13:47:32.102Z</time></trkpt><trkpt lat="45.6909224" lon="10.6648117"><ele>114.0</ele><time>2026-04-26T13:47:33.102Z</time></trkpt><trkpt lat="45.6908463" lon="10.6647003"><ele>112.5</ele><time>2026-04-26T13:47:35.102Z</time></trkpt><trkpt lat="45.6907837" lon="10.6645988"><ele>111.0</ele><time>2026-04-26T13:47:37.102Z</time></trkpt><trkpt lat="45.6907354" lon="10.6645288"><ele>109.5</ele><time>2026-04-26T13:47:39.101Z</time></trkpt><trkpt lat="45.6906529" lon="10.6644351"><ele>108.0</ele><time>2026-04-26T13:47:57.102Z</time></trkpt><trkpt lat="45.6905878" lon="10.6643691"><ele>106.5</ele><time>2026-04-26T13:47:58.102Z</time></trkpt><trkpt lat="45.6905034" lon="10.6643142"><ele>105.0</ele><time>2026-04-26T13:47:59.102Z</time></trkpt><trkpt lat="45.690398" lon="10.6642682"><ele>105.0</ele><time>2026-04-26T13:48:00.102Z</time></trkpt><trkpt lat="45.6902774" lon="10.6642228"><ele>105.0</ele><time>2026-04-26T13:48:01.102Z</time></trkpt><trkpt lat="45.6901487" lon="10.6641813"><ele>105.0</ele><time>2026-04-26T13:48:02.102Z</time></trkpt><trkpt lat="45.6900236" lon="10.6641357"><ele>105.0</ele><time>2026-04-26T13:48:03.101Z</time></trkpt><trkpt lat="45.6898999" lon="10.6640796"><ele>103.5</ele><time>2026-04-26T13:48:04.102Z</time></trkpt><trkpt lat="45.6897782" lon="10.6640116"><ele>102.0</ele><time>2026-04-26T13:48:05.101Z</time></trkpt><trkpt lat="45.6896649" lon="10.663918"><ele>100.5</ele><time>2026-04-26T13:48:06.102Z</time></trkpt><trkpt lat="45.6895639" lon="10.6637939"><ele>99.0</ele><time>2026-04-26T13:48:07.101Z</time></trkpt><trkpt lat="45.6894721" lon="10.6636491"><ele>96.0</ele><time>2026-04-26T13:48:08.102Z</time></trkpt><trkpt lat="45.689384" lon="10.6634902"><ele>93.0</ele><time>2026-04-26T13:48:09.102Z</time></trkpt><trkpt lat="45.6893009" lon="10.6633286"><ele>90.0</ele><time>2026-04-26T13:48:10.102Z</time></trkpt><trkpt lat="45.6892206" lon="10.6631708"><ele>87.0</ele><time>2026-04-26T13:48:11.101Z</time></trkpt><trkpt lat="45.6891406" lon="10.6630117"><ele>87.0</ele><time>2026-04-26T13:48:12.102Z</time></trkpt><trkpt lat="45.6890614" lon="10.6628547"><ele>87.0</ele><time>2026-04-26T13:48:13.102Z</time></trkpt><trkpt lat="45.6889817" lon="10.6626969"><ele>87.0</ele><time>2026-04-26T13:48:14.102Z</time></trkpt><trkpt lat="45.688906" lon="10.662538"><ele>87.0</ele><time>2026-04-26T13:48:15.102Z</time></trkpt><trkpt lat="45.6888246" lon="10.6623836"><ele>87.25</ele><time>2026-04-26T13:48:16.101Z</time></trkpt><trkpt lat="45.688737" lon="10.6622292"><ele>87.5</ele><time>2026-04-26T13:48:17.102Z</time></trkpt><trkpt lat="45.6886464" lon="10.6620698"><ele>87.75</ele><time>2026-04-26T13:48:18.102Z</time></trkpt><trkpt lat="45.6885541" lon="10.6619141"><ele>88.0</ele><time>2026-04-26T13:48:19.102Z</time></trkpt><trkpt lat="45.6884573" lon="10.6617544"><ele>88.0</ele><time>2026-04-26T13:48:20.102Z</time></trkpt><trkpt lat="45.6883536" lon="10.6615882"><ele>88.0</ele><time>2026-04-26T13:48:21.102Z</time></trkpt><trkpt lat="45.6882365" lon="10.6614151"><ele>88.0</ele><time>2026-04-26T13:48:22.102Z</time></trkpt><trkpt lat="45.688108" lon="10.6612416"><ele>85.33333333333333</ele><time>2026-04-26T13:48:23.102Z</time></trkpt><trkpt lat="45.6879663" lon="10.6610808"><ele>82.66666666666667</ele><time>2026-04-26T13:48:24.102Z</time></trkpt><trkpt lat="45.687813" lon="10.6609357"><ele>80.0</ele><time>2026-04-26T13:48:25.102Z</time></trkpt><trkpt lat="45.6876495" lon="10.6608082"><ele>80.0</ele><time>2026-04-26T13:48:26.102Z</time></trkpt><trkpt lat="45.6874836" lon="10.6606914"><ele>80.0</ele><time>2026-04-26T13:48:27.102Z</time></trkpt><trkpt lat="45.6873248" lon="10.660583"><ele>80.0</ele><time>2026-04-26T13:48:28.101Z</time></trkpt><trkpt lat="45.68717" lon="10.660483"><ele>80.0</ele><time>2026-04-26T13:48:29.102Z</time></trkpt><trkpt lat="45.6870177" lon="10.660391"><ele>80.0</ele><time>2026-04-26T13:48:30.102Z</time></trkpt><trkpt lat="45.686869" lon="10.6602994"><ele>80.0</ele><time>2026-04-26T13:48:31.102Z</time></trkpt><trkpt lat="45.6867183" lon="10.660209"><ele>81.33333333333334</ele><time>2026-04-26T13:48:32.101Z</time></trkpt><trkpt lat="45.6865713" lon="10.6601192"><ele>82.66666666666667</ele><time>2026-04-26T13:48:33.102Z</time></trkpt><trkpt lat="45.6864297" lon="10.6600276"><ele>84.0</ele><time>2026-04-26T13:48:34.102Z</time></trkpt><trkpt lat="45.686298" lon="10.6599374"><ele>84.0</ele><time>2026-04-26T13:48:35.102Z</time></trkpt><trkpt lat="45.6861765" lon="10.6598393"><ele>84.0</ele><time>2026-04-26T13:48:36.101Z</time></trkpt><trkpt lat="45.6860588" lon="10.6597469"><ele>84.0</ele><time>2026-04-26T13:48:37.102Z</time></trkpt><trkpt lat="45.6859511" lon="10.6596483"><ele>84.0</ele><time>2026-04-26T13:48:38.102Z</time></trkpt><trkpt lat="45.6858443" lon="10.6595479"><ele>84.75</ele><time>2026-04-26T13:48:39.101Z</time></trkpt><trkpt lat="45.6857344" lon="10.6594415"><ele>85.5</ele><time>2026-04-26T13:48:40.102Z</time></trkpt><trkpt lat="45.6856249" lon="10.6593359"><ele>86.25</ele><time>2026-04-26T13:48:41.101Z</time></trkpt><trkpt lat="45.6855173" lon="10.6592265"><ele>87.0</ele><time>2026-04-26T13:48:42.102Z</time></trkpt><trkpt lat="45.6854058" lon="10.6591211"><ele>87.0</ele><time>2026-04-26T13:48:43.101Z</time></trkpt><trkpt lat="45.6852945" lon="10.6590132"><ele>87.0</ele><time>2026-04-26T13:48:44.102Z</time></trkpt><trkpt lat="45.6851801" lon="10.6589031"><ele>87.0</ele><time>2026-04-26T13:48:45.101Z</time></trkpt><trkpt lat="45.6850743" lon="10.6588003"><ele>87.0</ele><time>2026-04-26T13:48:46.102Z</time></trkpt><trkpt lat="45.6849805" lon="10.6587145"><ele>87.33333333333333</ele><time>2026-04-26T13:48:47.102Z</time></trkpt><trkpt lat="45.6849037" lon="10.6586382"><ele>87.66666666666667</ele><time>2026-04-26T13:48:48.101Z</time></trkpt><trkpt lat="45.6848491" lon="10.6585671"><ele>88.0</ele><time>2026-04-26T13:48:49.102Z</time></trkpt><trkpt lat="45.6848013" lon="10.6584645"><ele>88.33333333333334</ele><time>2026-04-26T13:48:51.102Z</time></trkpt><trkpt lat="45.6847439" lon="10.6584029"><ele>88.66666666666667</ele><time>2026-04-26T13:48:57.102Z</time></trkpt><trkpt lat="45.6846672" lon="10.6583498"><ele>89.0</ele><time>2026-04-26T13:49:04.102Z</time></trkpt><trkpt lat="45.6846006" lon="10.6582735"><ele>89.0</ele><time>2026-04-26T13:55:48.102Z</time></trkpt><trkpt lat="45.6845149" lon="10.6582292"><ele>89.0</ele><time>2026-04-26T13:55:52.102Z</time></trkpt><trkpt lat="45.6844226" lon="10.6581785"><ele>89.0</ele><time>2026-04-26T13:55:54.102Z</time></trkpt><trkpt lat="45.6843692" lon="10.658127"><ele>89.0</ele><time>2026-04-26T13:55:55.102Z</time></trkpt><trkpt lat="45.6843118" lon="10.6580662"><ele>89.0</ele><time>2026-04-26T13:55:56.102Z</time></trkpt><trkpt lat="45.6842454" lon="10.6580076"><ele>89.0</ele><time>2026-04-26T13:55:57.102Z</time></trkpt><trkpt lat="45.6841728" lon="10.6579448"><ele>88.6</ele><time>2026-04-26T13:55:58.102Z</time></trkpt><trkpt lat="45.6840999" lon="10.6578751"><ele>88.2</ele><time>2026-04-26T13:55:59.102Z</time></trkpt><trkpt lat="45.6840215" lon="10.657798"><ele>87.8</ele><time>2026-04-26T13:56:00.102Z</time></trkpt><trkpt lat="45.6839467" lon="10.657727"><ele>87.39999999999999</ele><time>2026-04-26T13:56:01.102Z</time></trkpt><trkpt lat="45.6838764" lon="10.657658"><ele>87.0</ele><time>2026-04-26T13:56:02.101Z</time></trkpt><trkpt lat="45.6838007" lon="10.6575833"><ele>87.0</ele><time>2026-04-26T13:56:03.101Z</time></trkpt><trkpt lat="45.6837219" lon="10.6574978"><ele>87.0</ele><time>2026-04-26T13:56:04.102Z</time></trkpt><trkpt lat="45.6836434" lon="10.657397"><ele>87.0</ele><time>2026-04-26T13:56:05.102Z</time></trkpt><trkpt lat="45.6835652" lon="10.6572865"><ele>87.0</ele><time>2026-04-26T13:56:06.102Z</time></trkpt><trkpt lat="45.6834839" lon="10.6571751"><ele>87.0</ele><time>2026-04-26T13:56:07.101Z</time></trkpt><trkpt lat="45.6834023" lon="10.6570633"><ele>86.19999999999999</ele><time>2026-04-26T13:56:08.101Z</time></trkpt><trkpt lat="45.6833225" lon="10.6569492"><ele>85.4</ele><time>2026-04-26T13:56:09.102Z</time></trkpt><trkpt lat="45.6832425" lon="10.6568353"><ele>84.6</ele><time>2026-04-26T13:56:10.102Z</time></trkpt><trkpt lat="45.6831631" lon="10.6567251"><ele>83.80000000000001</ele><time>2026-04-26T13:56:11.101Z</time></trkpt><trkpt lat="45.6830832" lon="10.6566149"><ele>83.0</ele><time>2026-04-26T13:56:12.102Z</time></trkpt><trkpt lat="45.6830054" lon="10.6565041"><ele>83.0</ele><time>2026-04-26T13:56:13.102Z</time></trkpt><trkpt lat="45.6829282" lon="10.6563906"><ele>83.0</ele><time>2026-04-26T13:56:14.102Z</time></trkpt><trkpt lat="45.6828538" lon="10.6562813"><ele>83.0</ele><time>2026-04-26T13:56:15.101Z</time></trkpt><trkpt lat="45.682778" lon="10.6561728"><ele>83.0</ele><time>2026-04-26T13:56:16.102Z</time></trkpt><trkpt lat="45.6826983" lon="10.6560626"><ele>83.0</ele><time>2026-04-26T13:56:17.102Z</time></trkpt><trkpt lat="45.6826187" lon="10.6559514"><ele>82.0</ele><time>2026-04-26T13:56:18.102Z</time></trkpt><trkpt lat="45.682537" lon="10.6558325"><ele>81.0</ele><time>2026-04-26T13:56:19.102Z</time></trkpt><trkpt lat="45.6824543" lon="10.6557152"><ele>80.0</ele><time>2026-04-26T13:56:20.102Z</time></trkpt><trkpt lat="45.6823718" lon="10.6555983"><ele>79.0</ele><time>2026-04-26T13:56:21.102Z</time></trkpt><trkpt lat="45.6822916" lon="10.6554793"><ele>79.0</ele><time>2026-04-26T13:56:22.101Z</time></trkpt><trkpt lat="45.6822085" lon="10.6553575"><ele>79.0</ele><time>2026-04-26T13:56:23.102Z</time></trkpt><trkpt lat="45.6821217" lon="10.6552404"><ele>79.0</ele><time>2026-04-26T13:56:24.101Z</time></trkpt><trkpt lat="45.6820359" lon="10.6551188"><ele>79.0</ele><time>2026-04-26T13:56:25.102Z</time></trkpt><trkpt lat="45.6819469" lon="10.6550023"><ele>77.75</ele><time>2026-04-26T13:56:26.102Z</time></trkpt><trkpt lat="45.6818581" lon="10.6548991"><ele>76.5</ele><time>2026-04-26T13:56:27.102Z</time></trkpt><trkpt lat="45.6817713" lon="10.6548014"><ele>75.25</ele><time>2026-04-26T13:56:28.102Z</time></trkpt><trkpt lat="45.6816767" lon="10.6547102"><ele>74.0</ele><time>2026-04-26T13:56:29.101Z</time></trkpt><trkpt lat="45.6815769" lon="10.654623"><ele>74.0</ele><time>2026-04-26T13:56:30.102Z</time></trkpt><trkpt lat="45.6814667" lon="10.6545417"><ele>74.0</ele><time>2026-04-26T13:56:31.101Z</time></trkpt><trkpt lat="45.6813522" lon="10.6544654"><ele>74.0</ele><time>2026-04-26T13:56:32.102Z</time></trkpt><trkpt lat="45.6812368" lon="10.6543973"><ele>74.0</ele><time>2026-04-26T13:56:33.102Z</time></trkpt><trkpt lat="45.6811148" lon="10.6543387"><ele>74.25</ele><time>2026-04-26T13:56:34.102Z</time></trkpt><trkpt lat="45.6809974" lon="10.6542945"><ele>74.5</ele><time>2026-04-26T13:56:35.102Z</time></trkpt><trkpt lat="45.6808802" lon="10.6542554"><ele>74.75</ele><time>2026-04-26T13:56:36.102Z</time></trkpt><trkpt lat="45.6807678" lon="10.6542231"><ele>75.0</ele><time>2026-04-26T13:56:37.102Z</time></trkpt><trkpt lat="45.6806595" lon="10.6542021"><ele>75.0</ele><time>2026-04-26T13:56:38.101Z</time></trkpt><trkpt lat="45.6805568" lon="10.6541791"><ele>75.0</ele><time>2026-04-26T13:56:39.102Z</time></trkpt><trkpt lat="45.6804644" lon="10.6541588"><ele>75.0</ele><time>2026-04-26T13:56:40.102Z</time></trkpt><trkpt lat="45.6803852" lon="10.65414"><ele>75.0</ele><time>2026-04-26T13:56:41.102Z</time></trkpt><trkpt lat="45.6803186" lon="10.6541288"><ele>75.0</ele><time>2026-04-26T13:56:42.102Z</time></trkpt><trkpt lat="45.6802409" lon="10.6541188"><ele>75.0</ele><time>2026-04-26T13:56:44.101Z</time></trkpt><trkpt lat="45.6801755" lon="10.6541164"><ele>74.28571428571428</ele><time>2026-04-26T13:56:50.102Z</time></trkpt><trkpt lat="45.6801221" lon="10.6541696"><ele>73.57142857142857</ele><time>2026-04-26T13:56:53.102Z</time></trkpt><trkpt lat="45.6800614" lon="10.6542038"><ele>72.85714285714286</ele><time>2026-04-26T13:56:56.102Z</time></trkpt><trkpt lat="45.6800324" lon="10.6541071"><ele>72.14285714285714</ele><time>2026-04-26T14:10:08.102Z</time></trkpt><trkpt lat="45.6799612" lon="10.6540685"><ele>71.42857142857143</ele><time>2026-04-26T14:10:10.102Z</time></trkpt><trkpt lat="45.6798637" lon="10.6540141"><ele>70.71428571428571</ele><time>2026-04-26T14:10:12.102Z</time></trkpt><trkpt lat="45.6797998" lon="10.654003"><ele>70.0</ele><time>2026-04-26T14:10:13.102Z</time></trkpt><trkpt lat="45.6797277" lon="10.6539826"><ele>70.0</ele><time>2026-04-26T14:10:14.102Z</time></trkpt><trkpt lat="45.6796472" lon="10.6539602"><ele>70.0</ele><time>2026-04-26T14:10:15.102Z</time></trkpt><trkpt lat="45.6795631" lon="10.6539384"><ele>70.0</ele><time>2026-04-26T14:10:16.102Z</time></trkpt><trkpt lat="45.6794717" lon="10.653919"><ele>70.0</ele><time>2026-04-26T14:10:17.102Z</time></trkpt><trkpt lat="45.6793769" lon="10.6538947"><ele>70.0</ele><time>2026-04-26T14:10:18.102Z</time></trkpt><trkpt lat="45.6792812" lon="10.6538702"><ele>69.4</ele><time>2026-04-26T14:10:19.102Z</time></trkpt><trkpt lat="45.6791908" lon="10.6538504"><ele>68.8</ele><time>2026-04-26T14:10:20.102Z</time></trkpt><trkpt lat="45.6790993" lon="10.6538305"><ele>68.2</ele><time>2026-04-26T14:10:21.102Z</time></trkpt><trkpt lat="45.6790071" lon="10.6538129"><ele>67.6</ele><time>2026-04-26T14:10:22.102Z</time></trkpt><trkpt lat="45.6789165" lon="10.6537939"><ele>67.0</ele><time>2026-04-26T14:10:23.102Z</time></trkpt><trkpt lat="45.6788258" lon="10.6537737"><ele>67.0</ele><time>2026-04-26T14:10:24.102Z</time></trkpt><trkpt lat="45.6787368" lon="10.6537564"><ele>67.0</ele><time>2026-04-26T14:10:25.102Z</time></trkpt><trkpt lat="45.6786452" lon="10.6537367"><ele>67.0</ele><time>2026-04-26T14:10:26.101Z</time></trkpt><trkpt lat="45.678552" lon="10.653715"><ele>67.0</ele><time>2026-04-26T14:10:27.102Z</time></trkpt><trkpt lat="45.6784598" lon="10.6536956"><ele>67.0</ele><time>2026-04-26T14:10:28.102Z</time></trkpt><trkpt lat="45.6783633" lon="10.6536765"><ele>66.4</ele><time>2026-04-26T14:10:29.102Z</time></trkpt><trkpt lat="45.6782676" lon="10.6536506"><ele>65.80000000000001</ele><time>2026-04-26T14:10:30.102Z</time></trkpt><trkpt lat="45.6781756" lon="10.6536167"><ele>65.2</ele><time>2026-04-26T14:10:31.102Z</time></trkpt><trkpt lat="45.678081" lon="10.6535787"><ele>64.60000000000001</ele><time>2026-04-26T14:10:32.101Z</time></trkpt><trkpt lat="45.6779827" lon="10.653535"><ele>64.0</ele><time>2026-04-26T14:10:33.102Z</time></trkpt><trkpt lat="45.6778853" lon="10.6534797"><ele>65.5</ele><time>2026-04-26T14:10:34.102Z</time></trkpt><trkpt lat="45.6777826" lon="10.6534252"><ele>67.0</ele><time>2026-04-26T14:10:35.102Z</time></trkpt><trkpt lat="45.6776807" lon="10.6533593"><ele>68.5</ele><time>2026-04-26T14:10:36.101Z</time></trkpt><trkpt lat="45.6775727" lon="10.6532887"><ele>70.0</ele><time>2026-04-26T14:10:37.102Z</time></trkpt><trkpt lat="45.6774678" lon="10.6532121"><ele>70.0</ele><time>2026-04-26T14:10:38.102Z</time></trkpt><trkpt lat="45.6773611" lon="10.6531314"><ele>70.0</ele><time>2026-04-26T14:10:39.101Z</time></trkpt><trkpt lat="45.6772504" lon="10.6530582"><ele>70.0</ele><time>2026-04-26T14:10:40.102Z</time></trkpt><trkpt lat="45.6771407" lon="10.6529845"><ele>70.0</ele><time>2026-04-26T14:10:41.102Z</time></trkpt><trkpt lat="45.677032" lon="10.6529153"><ele>69.25</ele><time>2026-04-26T14:10:42.101Z</time></trkpt><trkpt lat="45.6769204" lon="10.6528395"><ele>68.5</ele><time>2026-04-26T14:10:43.102Z</time></trkpt><trkpt lat="45.6768122" lon="10.6527558"><ele>67.75</ele><time>2026-04-26T14:10:44.102Z</time></trkpt><trkpt lat="45.6767024" lon="10.6526653"><ele>67.0</ele><time>2026-04-26T14:10:45.102Z</time></trkpt><trkpt lat="45.6766001" lon="10.6525505"><ele>68.75</ele><time>2026-04-26T14:10:46.101Z</time></trkpt><trkpt lat="45.6764965" lon="10.6524327"><ele>70.5</ele><time>2026-04-26T14:10:47.102Z</time></trkpt><trkpt lat="45.6763995" lon="10.6523028"><ele>72.25</ele><time>2026-04-26T14:10:48.102Z</time></trkpt><trkpt lat="45.6763015" lon="10.6521791"><ele>74.0</ele><time>2026-04-26T14:10:49.101Z</time></trkpt><trkpt lat="45.6762049" lon="10.6520575"><ele>74.5</ele><time>2026-04-26T14:10:50.102Z</time></trkpt><trkpt lat="45.6761046" lon="10.6519375"><ele>75.0</ele><time>2026-04-26T14:10:51.102Z</time></trkpt><trkpt lat="45.6760077" lon="10.6518144"><ele>75.5</ele><time>2026-04-26T14:10:52.102Z</time></trkpt><trkpt lat="45.6759061" lon="10.6516911"><ele>76.0</ele><time>2026-04-26T14:10:53.102Z</time></trkpt><trkpt lat="45.6758059" lon="10.6515589"><ele>76.0</ele><time>2026-04-26T14:10:54.102Z</time></trkpt><trkpt lat="45.6757057" lon="10.6514295"><ele>76.0</ele><time>2026-04-26T14:10:55.102Z</time></trkpt><trkpt lat="45.6756029" lon="10.6513023"><ele>76.0</ele><time>2026-04-26T14:10:56.102Z</time></trkpt><trkpt lat="45.6755001" lon="10.651174"><ele>76.0</ele><time>2026-04-26T14:10:57.101Z</time></trkpt><trkpt lat="45.6753985" lon="10.6510462"><ele>76.5</ele><time>2026-04-26T14:10:58.102Z</time></trkpt><trkpt lat="45.6752978" lon="10.6509143"><ele>77.0</ele><time>2026-04-26T14:10:59.102Z</time></trkpt><trkpt lat="45.6751937" lon="10.650794"><ele>77.5</ele><time>2026-04-26T14:11:00.102Z</time></trkpt><trkpt lat="45.6750836" lon="10.6506849"><ele>78.0</ele><time>2026-04-26T14:11:01.102Z</time></trkpt><trkpt lat="45.6749728" lon="10.650583"><ele>78.0</ele><time>2026-04-26T14:11:02.102Z</time></trkpt><trkpt lat="45.6748608" lon="10.6505048"><ele>78.0</ele><time>2026-04-26T14:11:03.102Z</time></trkpt><trkpt lat="45.674763" lon="10.650443"><ele>78.0</ele><time>2026-04-26T14:11:04.101Z</time></trkpt><trkpt lat="45.6746762" lon="10.6503967"><ele>78.0</ele><time>2026-04-26T14:11:05.102Z</time></trkpt><trkpt lat="45.6746002" lon="10.6503506"><ele>78.0</ele><time>2026-04-26T14:11:06.102Z</time></trkpt><trkpt lat="45.6745333" lon="10.6502906"><ele>78.16666666666667</ele><time>2026-04-26T14:11:07.102Z</time></trkpt><trkpt lat="45.6744722" lon="10.6502271"><ele>78.33333333333333</ele><time>2026-04-26T14:11:08.102Z</time></trkpt><trkpt lat="45.6744048" lon="10.6501942"><ele>78.5</ele><time>2026-04-26T14:11:09.102Z</time></trkpt><trkpt lat="45.6743349" lon="10.6502141"><ele>78.66666666666666</ele><time>2026-04-26T14:11:10.102Z</time></trkpt><trkpt lat="45.6742688" lon="10.6502732"><ele>78.83333333333333</ele><time>2026-04-26T14:11:11.102Z</time></trkpt><trkpt lat="45.6741967" lon="10.6503433"><ele>79.0</ele><time>2026-04-26T14:11:12.101Z</time></trkpt><trkpt lat="45.6741061" lon="10.6503865"><ele>78.0</ele><time>2026-04-26T14:11:13.102Z</time></trkpt><trkpt lat="45.6740031" lon="10.6504343"><ele>77.0</ele><time>2026-04-26T14:11:14.102Z</time></trkpt><trkpt lat="45.6738988" lon="10.6504901"><ele>76.0</ele><time>2026-04-26T14:11:15.102Z</time></trkpt><trkpt lat="45.6737876" lon="10.6505511"><ele>75.0</ele><time>2026-04-26T14:11:16.102Z</time></trkpt><trkpt lat="45.6736689" lon="10.6506138"><ele>75.25</ele><time>2026-04-26T14:11:17.102Z</time></trkpt><trkpt lat="45.6735453" lon="10.6506791"><ele>75.5</ele><time>2026-04-26T14:11:18.101Z</time></trkpt><trkpt lat="45.6734234" lon="10.6507434"><ele>75.75</ele><time>2026-04-26T14:11:19.102Z</time></trkpt><trkpt lat="45.673301" lon="10.6508092"><ele>76.0</ele><time>2026-04-26T14:11:20.102Z</time></trkpt><trkpt lat="45.6731771" lon="10.6508726"><ele>76.0</ele><time>2026-04-26T14:11:21.102Z</time></trkpt><trkpt lat="45.6730523" lon="10.6509397"><ele>76.0</ele><time>2026-04-26T14:11:22.102Z</time></trkpt><trkpt lat="45.6729258" lon="10.6510041"><ele>76.0</ele><time>2026-04-26T14:11:23.102Z</time></trkpt><trkpt lat="45.6727995" lon="10.6510732"><ele>76.0</ele><time>2026-04-26T14:11:24.102Z</time></trkpt><trkpt lat="45.6726671" lon="10.6511431"><ele>75.5</ele><time>2026-04-26T14:11:25.102Z</time></trkpt><trkpt lat="45.6725374" lon="10.6512113"><ele>75.0</ele><time>2026-04-26T14:11:26.102Z</time></trkpt><trkpt lat="45.6724057" lon="10.6512816"><ele>74.5</ele><time>2026-04-26T14:11:27.102Z</time></trkpt><trkpt lat="45.6722692" lon="10.6513503"><ele>74.0</ele><time>2026-04-26T14:11:28.102Z</time></trkpt><trkpt lat="45.6721378" lon="10.651412"><ele>74.0</ele><time>2026-04-26T14:11:29.101Z</time></trkpt><trkpt lat="45.6720043" lon="10.6514587"><ele>74.0</ele><time>2026-04-26T14:11:30.102Z</time></trkpt><trkpt lat="45.6718641" lon="10.6514903"><ele>74.0</ele><time>2026-04-26T14:11:31.102Z</time></trkpt><trkpt lat="45.671716" lon="10.6515063"><ele>74.0</ele><time>2026-04-26T14:11:32.101Z</time></trkpt><trkpt lat="45.6715677" lon="10.6515171"><ele>74.5</ele><time>2026-04-26T14:11:33.102Z</time></trkpt><trkpt lat="45.6714205" lon="10.6515075"><ele>75.0</ele><time>2026-04-26T14:11:34.102Z</time></trkpt><trkpt lat="45.6712751" lon="10.6514698"><ele>75.5</ele><time>2026-04-26T14:11:35.102Z</time></trkpt><trkpt lat="45.6711318" lon="10.6514233"><ele>76.0</ele><time>2026-04-26T14:11:36.102Z</time></trkpt><trkpt lat="45.670994" lon="10.6513762"><ele>76.0</ele><time>2026-04-26T14:11:37.102Z</time></trkpt><trkpt lat="45.6708591" lon="10.6513184"><ele>76.0</ele><time>2026-04-26T14:11:38.102Z</time></trkpt><trkpt lat="45.6707307" lon="10.6512372"><ele>76.0</ele><time>2026-04-26T14:11:39.102Z</time></trkpt><trkpt lat="45.6706121" lon="10.6511276"><ele>76.0</ele><time>2026-04-26T14:11:40.101Z</time></trkpt><trkpt lat="45.6704956" lon="10.6509963"><ele>76.75</ele><time>2026-04-26T14:11:41.102Z</time></trkpt><trkpt lat="45.6703864" lon="10.6508525"><ele>77.5</ele><time>2026-04-26T14:11:42.101Z</time></trkpt><trkpt lat="45.6702734" lon="10.650711"><ele>78.25</ele><time>2026-04-26T14:11:43.102Z</time></trkpt><trkpt lat="45.6701579" lon="10.65058"><ele>79.0</ele><time>2026-04-26T14:11:44.102Z</time></trkpt><trkpt lat="45.6700442" lon="10.6504677"><ele>79.0</ele><time>2026-04-26T14:11:45.102Z</time></trkpt><trkpt lat="45.6699322" lon="10.6503687"><ele>79.0</ele><time>2026-04-26T14:11:46.102Z</time></trkpt><trkpt lat="45.6698216" lon="10.650278"><ele>79.0</ele><time>2026-04-26T14:11:47.102Z</time></trkpt><trkpt lat="45.6697067" lon="10.6502073"><ele>79.0</ele><time>2026-04-26T14:11:48.102Z</time></trkpt><trkpt lat="45.6695983" lon="10.6501424"><ele>78.75</ele><time>2026-04-26T14:11:49.102Z</time></trkpt><trkpt lat="45.6694876" lon="10.6500742"><ele>78.5</ele><time>2026-04-26T14:11:50.101Z</time></trkpt><trkpt lat="45.6693585" lon="10.6500135"><ele>78.25</ele><time>2026-04-26T14:11:51.102Z</time></trkpt><trkpt lat="45.6692238" lon="10.649946"><ele>78.0</ele><time>2026-04-26T14:11:52.101Z</time></trkpt><trkpt lat="45.66909" lon="10.6498705"><ele>78.0</ele><time>2026-04-26T14:11:53.102Z</time></trkpt><trkpt lat="45.6689529" lon="10.6497951"><ele>78.0</ele><time>2026-04-26T14:11:54.102Z</time></trkpt><trkpt lat="45.6688158" lon="10.6497249"><ele>78.0</ele><time>2026-04-26T14:11:55.102Z</time></trkpt><trkpt lat="45.6686836" lon="10.6496522"><ele>78.0</ele><time>2026-04-26T14:11:56.102Z</time></trkpt><trkpt lat="45.6685504" lon="10.6495791"><ele>76.5</ele><time>2026-04-26T14:11:57.102Z</time></trkpt><trkpt lat="45.6684223" lon="10.6495103"><ele>75.0</ele><time>2026-04-26T14:11:58.101Z</time></trkpt><trkpt lat="45.6682955" lon="10.6494408"><ele>73.5</ele><time>2026-04-26T14:11:59.102Z</time></trkpt><trkpt lat="45.6681712" lon="10.649372"><ele>72.0</ele><time>2026-04-26T14:12:00.102Z</time></trkpt><trkpt lat="45.6680481" lon="10.6492991"><ele>73.5</ele><time>2026-04-26T14:12:01.102Z</time></trkpt><trkpt lat="45.6679293" lon="10.649214"><ele>75.0</ele><time>2026-04-26T14:12:02.102Z</time></trkpt><trkpt lat="45.6678168" lon="10.6491045"><ele>76.5</ele><time>2026-04-26T14:12:03.102Z</time></trkpt><trkpt lat="45.6677095" lon="10.6489826"><ele>78.0</ele><time>2026-04-26T14:12:04.102Z</time></trkpt><trkpt lat="45.6676033" lon="10.6488551"><ele>78.0</ele><time>2026-04-26T14:12:05.102Z</time></trkpt><trkpt lat="45.6674962" lon="10.6487195"><ele>78.0</ele><time>2026-04-26T14:12:06.102Z</time></trkpt><trkpt lat="45.6673906" lon="10.6485842"><ele>78.0</ele><time>2026-04-26T14:12:07.102Z</time></trkpt><trkpt lat="45.6672855" lon="10.6484512"><ele>78.0</ele><time>2026-04-26T14:12:08.102Z</time></trkpt><trkpt lat="45.6671843" lon="10.6483209"><ele>79.25</ele><time>2026-04-26T14:12:09.102Z</time></trkpt><trkpt lat="45.6670773" lon="10.6481938"><ele>80.5</ele><time>2026-04-26T14:12:10.102Z</time></trkpt><trkpt lat="45.6669706" lon="10.6480719"><ele>81.75</ele><time>2026-04-26T14:12:11.101Z</time></trkpt><trkpt lat="45.6668563" lon="10.6479804"><ele>83.0</ele><time>2026-04-26T14:12:12.102Z</time></trkpt><trkpt lat="45.666739" lon="10.6478847"><ele>83.0</ele><time>2026-04-26T14:12:13.102Z</time></trkpt><trkpt lat="45.6666113" lon="10.647828"><ele>83.0</ele><time>2026-04-26T14:12:14.102Z</time></trkpt><trkpt lat="45.6664932" lon="10.6477439"><ele>83.0</ele><time>2026-04-26T14:12:15.102Z</time></trkpt><trkpt lat="45.6663746" lon="10.6476523"><ele>83.0</ele><time>2026-04-26T14:12:16.102Z</time></trkpt><trkpt lat="45.6662536" lon="10.6475542"><ele>83.25</ele><time>2026-04-26T14:12:17.102Z</time></trkpt><trkpt lat="45.6661334" lon="10.6474534"><ele>83.5</ele><time>2026-04-26T14:12:18.102Z</time></trkpt><trkpt lat="45.666008" lon="10.6473549"><ele>83.75</ele><time>2026-04-26T14:12:19.102Z</time></trkpt><trkpt lat="45.6658878" lon="10.6472489"><ele>84.0</ele><time>2026-04-26T14:12:20.102Z</time></trkpt><trkpt lat="45.6657661" lon="10.6471531"><ele>84.0</ele><time>2026-04-26T14:12:21.102Z</time></trkpt><trkpt lat="45.6656418" lon="10.6470429"><ele>84.0</ele><time>2026-04-26T14:12:22.102Z</time></trkpt><trkpt lat="45.665532" lon="10.6469231"><ele>84.0</ele><time>2026-04-26T14:12:23.101Z</time></trkpt><trkpt lat="45.665428" lon="10.6468041"><ele>84.0</ele><time>2026-04-26T14:12:24.102Z</time></trkpt><trkpt lat="45.6653302" lon="10.6466753"><ele>82.5</ele><time>2026-04-26T14:12:25.102Z</time></trkpt><trkpt lat="45.665238" lon="10.6465265"><ele>81.0</ele><time>2026-04-26T14:12:26.101Z</time></trkpt><trkpt lat="45.6651535" lon="10.6463611"><ele>79.5</ele><time>2026-04-26T14:12:27.102Z</time></trkpt><trkpt lat="45.665068" lon="10.6461858"><ele>78.0</ele><time>2026-04-26T14:12:28.102Z</time></trkpt><trkpt lat="45.6649725" lon="10.6460112"><ele>84.33333333333334</ele><time>2026-04-26T14:12:29.102Z</time></trkpt><trkpt lat="45.6648742" lon="10.6458382"><ele>90.66666666666667</ele><time>2026-04-26T14:12:30.102Z</time></trkpt><trkpt lat="45.6647735" lon="10.6456721"><ele>97.0</ele><time>2026-04-26T14:12:31.102Z</time></trkpt><trkpt lat="45.6646635" lon="10.6455236"><ele>97.0</ele><time>2026-04-26T14:12:32.102Z</time></trkpt><trkpt lat="45.6645411" lon="10.6453936"><ele>97.0</ele><time>2026-04-26T14:12:33.102Z</time></trkpt><trkpt lat="45.6644105" lon="10.6452896"><ele>97.0</ele><time>2026-04-26T14:12:34.102Z</time></trkpt><trkpt lat="45.6642674" lon="10.6452219"><ele>99.66666666666667</ele><time>2026-04-26T14:12:35.102Z</time></trkpt><trkpt lat="45.6641195" lon="10.6451541"><ele>102.33333333333334</ele><time>2026-04-26T14:12:36.102Z</time></trkpt><trkpt lat="45.6639724" lon="10.6450866"><ele>105.0</ele><time>2026-04-26T14:12:37.102Z</time></trkpt><trkpt lat="45.6638293" lon="10.6449857"><ele>105.0</ele><time>2026-04-26T14:12:38.102Z</time></trkpt><trkpt lat="45.6636857" lon="10.6448937"><ele>105.0</ele><time>2026-04-26T14:12:39.102Z</time></trkpt><trkpt lat="45.6635501" lon="10.6447839"><ele>105.0</ele><time>2026-04-26T14:12:40.102Z</time></trkpt><trkpt lat="45.663425" lon="10.6446562"><ele>106.0</ele><time>2026-04-26T14:12:41.102Z</time></trkpt><trkpt lat="45.6633058" lon="10.6445167"><ele>107.0</ele><time>2026-04-26T14:12:42.102Z</time></trkpt><trkpt lat="45.6631843" lon="10.6443778"><ele>108.0</ele><time>2026-04-26T14:12:43.102Z</time></trkpt><trkpt lat="45.6630624" lon="10.6442377"><ele>108.0</ele><time>2026-04-26T14:12:44.102Z</time></trkpt><trkpt lat="45.662942" lon="10.6440899"><ele>108.0</ele><time>2026-04-26T14:12:45.102Z</time></trkpt><trkpt lat="45.6628229" lon="10.6439376"><ele>108.0</ele><time>2026-04-26T14:12:46.102Z</time></trkpt><trkpt lat="45.6627019" lon="10.6437873"><ele>104.33333333333334</ele><time>2026-04-26T14:12:47.102Z</time></trkpt><trkpt lat="45.6625727" lon="10.6436448"><ele>100.66666666666667</ele><time>2026-04-26T14:12:48.102Z</time></trkpt><trkpt lat="45.6624425" lon="10.6435112"><ele>97.0</ele><time>2026-04-26T14:12:49.102Z</time></trkpt><trkpt lat="45.6623167" lon="10.6433684"><ele>97.0</ele><time>2026-04-26T14:12:50.102Z</time></trkpt><trkpt lat="45.6621898" lon="10.6432267"><ele>97.0</ele><time>2026-04-26T14:12:51.102Z</time></trkpt><trkpt lat="45.662063" lon="10.6430868"><ele>97.0</ele><time>2026-04-26T14:12:52.102Z</time></trkpt><trkpt lat="45.661936" lon="10.6429483"><ele>94.66666666666667</ele><time>2026-04-26T14:12:53.102Z</time></trkpt><trkpt lat="45.6618071" lon="10.6428049"><ele>92.33333333333334</ele><time>2026-04-26T14:12:54.102Z</time></trkpt><trkpt lat="45.6616801" lon="10.6426668"><ele>90.0</ele><time>2026-04-26T14:12:55.102Z</time></trkpt><trkpt lat="45.661553" lon="10.6425324"><ele>90.0</ele><time>2026-04-26T14:12:56.102Z</time></trkpt><trkpt lat="45.6614294" lon="10.642395"><ele>90.0</ele><time>2026-04-26T14:12:57.102Z</time></trkpt><trkpt lat="45.6613109" lon="10.6422503"><ele>90.0</ele><time>2026-04-26T14:12:58.102Z</time></trkpt><trkpt lat="45.6611936" lon="10.6420979"><ele>87.66666666666667</ele><time>2026-04-26T14:12:59.102Z</time></trkpt><trkpt lat="45.6610842" lon="10.6419348"><ele>85.33333333333334</ele><time>2026-04-26T14:13:00.102Z</time></trkpt><trkpt lat="45.6609794" lon="10.6417624"><ele>83.0</ele><time>2026-04-26T14:13:01.102Z</time></trkpt><trkpt lat="45.6608657" lon="10.6415941"><ele>83.0</ele><time>2026-04-26T14:13:02.102Z</time></trkpt><trkpt lat="45.6607507" lon="10.6414277"><ele>83.0</ele><time>2026-04-26T14:13:03.102Z</time></trkpt><trkpt lat="45.6606363" lon="10.6412668"><ele>83.0</ele><time>2026-04-26T14:13:04.102Z</time></trkpt><trkpt lat="45.6605268" lon="10.6411027"><ele>79.33333333333334</ele><time>2026-04-26T14:13:05.102Z</time></trkpt><trkpt lat="45.6604198" lon="10.6409352"><ele>75.66666666666667</ele><time>2026-04-26T14:13:06.102Z</time></trkpt><trkpt lat="45.6603139" lon="10.6407646"><ele>72.0</ele><time>2026-04-26T14:13:07.101Z</time></trkpt><trkpt lat="45.6602113" lon="10.6405954"><ele>72.0</ele><time>2026-04-26T14:13:08.102Z</time></trkpt><trkpt lat="45.6601089" lon="10.6404246"><ele>72.0</ele><time>2026-04-26T14:13:09.102Z</time></trkpt><trkpt lat="45.6600042" lon="10.6402588"><ele>72.0</ele><time>2026-04-26T14:13:10.102Z</time></trkpt><trkpt lat="45.6599012" lon="10.6400921"><ele>77.33333333333333</ele><time>2026-04-26T14:13:11.102Z</time></trkpt><trkpt lat="45.6598029" lon="10.6399238"><ele>82.66666666666666</ele><time>2026-04-26T14:13:12.102Z</time></trkpt><trkpt lat="45.6597041" lon="10.6397548"><ele>88.0</ele><time>2026-04-26T14:13:13.102Z</time></trkpt><trkpt lat="45.6596089" lon="10.6395836"><ele>86.33333333333333</ele><time>2026-04-26T14:13:14.102Z</time></trkpt><trkpt lat="45.6595317" lon="10.6393964"><ele>84.66666666666667</ele><time>2026-04-26T14:13:15.102Z</time></trkpt><trkpt lat="45.6594737" lon="10.6391996"><ele>83.0</ele><time>2026-04-26T14:13:16.102Z</time></trkpt><trkpt lat="45.659398" lon="10.6390112"><ele>83.0</ele><time>2026-04-26T14:13:17.101Z</time></trkpt><trkpt lat="45.6593007" lon="10.6388468"><ele>83.0</ele><time>2026-04-26T14:13:18.102Z</time></trkpt><trkpt lat="45.6591892" lon="10.638702"><ele>83.0</ele><time>2026-04-26T14:13:19.102Z</time></trkpt><trkpt lat="45.6590678" lon="10.6385634"><ele>86.33333333333334</ele><time>2026-04-26T14:13:20.102Z</time></trkpt><trkpt lat="45.658948" lon="10.6384217"><ele>89.66666666666667</ele><time>2026-04-26T14:13:21.102Z</time></trkpt><trkpt lat="45.6588312" lon="10.6382752"><ele>93.0</ele><time>2026-04-26T14:13:22.102Z</time></trkpt><trkpt lat="45.6587176" lon="10.6381239"><ele>91.33333333333333</ele><time>2026-04-26T14:13:23.102Z</time></trkpt><trkpt lat="45.6586127" lon="10.6379602"><ele>89.66666666666666</ele><time>2026-04-26T14:13:24.101Z</time></trkpt><trkpt lat="45.6585087" lon="10.6377939"><ele>88.0</ele><time>2026-04-26T14:13:25.102Z</time></trkpt><trkpt lat="45.6583991" lon="10.6376406"><ele>88.0</ele><time>2026-04-26T14:13:26.102Z</time></trkpt><trkpt lat="45.6582813" lon="10.6374973"><ele>88.0</ele><time>2026-04-26T14:13:27.102Z</time></trkpt><trkpt lat="45.6581623" lon="10.6373635"><ele>88.0</ele><time>2026-04-26T14:13:28.102Z</time></trkpt><trkpt lat="45.6580424" lon="10.6372232"><ele>88.0</ele><time>2026-04-26T14:13:29.102Z</time></trkpt><trkpt lat="45.6579258" lon="10.6370794"><ele>88.0</ele><time>2026-04-26T14:13:30.102Z</time></trkpt><trkpt lat="45.6578151" lon="10.6369303"><ele>88.0</ele><time>2026-04-26T14:13:31.102Z</time></trkpt><trkpt lat="45.6577043" lon="10.6367837"><ele>85.5</ele><time>2026-04-26T14:13:32.101Z</time></trkpt><trkpt lat="45.6575981" lon="10.6366385"><ele>83.0</ele><time>2026-04-26T14:13:33.102Z</time></trkpt><trkpt lat="45.6574977" lon="10.6365019"><ele>80.5</ele><time>2026-04-26T14:13:34.102Z</time></trkpt><trkpt lat="45.6574025" lon="10.6363695"><ele>78.0</ele><time>2026-04-26T14:13:35.101Z</time></trkpt><trkpt lat="45.6573034" lon="10.6362363"><ele>80.5</ele><time>2026-04-26T14:13:36.102Z</time></trkpt><trkpt lat="45.6572018" lon="10.6361129"><ele>83.0</ele><time>2026-04-26T14:13:37.102Z</time></trkpt><trkpt lat="45.6570927" lon="10.636001"><ele>85.5</ele><time>2026-04-26T14:13:38.102Z</time></trkpt><trkpt lat="45.6569776" lon="10.6359041"><ele>88.0</ele><time>2026-04-26T14:13:39.102Z</time></trkpt><trkpt lat="45.656855" lon="10.6358066"><ele>88.0</ele><time>2026-04-26T14:13:40.102Z</time></trkpt><trkpt lat="45.6567385" lon="10.6356992"><ele>88.0</ele><time>2026-04-26T14:13:41.102Z</time></trkpt><trkpt lat="45.6566318" lon="10.6355959"><ele>88.0</ele><time>2026-04-26T14:13:42.102Z</time></trkpt><trkpt lat="45.6565287" lon="10.6354877"><ele>88.0</ele><time>2026-04-26T14:13:43.102Z</time></trkpt><trkpt lat="45.6564237" lon="10.6353831"><ele>89.5</ele><time>2026-04-26T14:13:44.102Z</time></trkpt><trkpt lat="45.656312" lon="10.6352588"><ele>91.0</ele><time>2026-04-26T14:13:45.102Z</time></trkpt><trkpt lat="45.6562008" lon="10.6351305"><ele>92.5</ele><time>2026-04-26T14:13:46.102Z</time></trkpt><trkpt lat="45.6560953" lon="10.6349977"><ele>94.0</ele><time>2026-04-26T14:13:47.102Z</time></trkpt><trkpt lat="45.6559908" lon="10.6348561"><ele>94.75</ele><time>2026-04-26T14:13:48.102Z</time></trkpt><trkpt lat="45.6558907" lon="10.6347079"><ele>95.5</ele><time>2026-04-26T14:13:49.102Z</time></trkpt><trkpt lat="45.6558053" lon="10.6345453"><ele>96.25</ele><time>2026-04-26T14:13:50.102Z</time></trkpt><trkpt lat="45.6557256" lon="10.6343768"><ele>97.0</ele><time>2026-04-26T14:13:51.102Z</time></trkpt><trkpt lat="45.655648" lon="10.6342136"><ele>97.0</ele><time>2026-04-26T14:13:52.102Z</time></trkpt><trkpt lat="45.6555638" lon="10.634059"><ele>97.0</ele><time>2026-04-26T14:13:53.102Z</time></trkpt><trkpt lat="45.6554708" lon="10.633927"><ele>97.0</ele><time>2026-04-26T14:13:54.102Z</time></trkpt><trkpt lat="45.6553795" lon="10.6337917"><ele>97.0</ele><time>2026-04-26T14:13:55.102Z</time></trkpt><trkpt lat="45.6552911" lon="10.6336557"><ele>94.25</ele><time>2026-04-26T14:13:56.101Z</time></trkpt><trkpt lat="45.6552033" lon="10.6335229"><ele>91.5</ele><time>2026-04-26T14:13:57.102Z</time></trkpt><trkpt lat="45.6551174" lon="10.6333929"><ele>88.75</ele><time>2026-04-26T14:13:58.101Z</time></trkpt><trkpt lat="45.6550349" lon="10.6332656"><ele>86.0</ele><time>2026-04-26T14:13:59.102Z</time></trkpt><trkpt lat="45.6549521" lon="10.6331444"><ele>86.0</ele><time>2026-04-26T14:14:00.102Z</time></trkpt><trkpt lat="45.6548675" lon="10.633021"><ele>86.0</ele><time>2026-04-26T14:14:01.102Z</time></trkpt><trkpt lat="45.6547843" lon="10.6328965"><ele>86.0</ele><time>2026-04-26T14:14:02.102Z</time></trkpt><trkpt lat="45.6547055" lon="10.6327683"><ele>86.0</ele><time>2026-04-26T14:14:03.102Z</time></trkpt><trkpt lat="45.6546254" lon="10.6326401"><ele>89.0</ele><time>2026-04-26T14:14:04.102Z</time></trkpt><trkpt lat="45.6545763" lon="10.6324727"><ele>92.0</ele><time>2026-04-26T14:14:05.101Z</time></trkpt><trkpt lat="45.6545202" lon="10.6323122"><ele>95.0</ele><time>2026-04-26T14:14:06.102Z</time></trkpt><trkpt lat="45.6544627" lon="10.6321471"><ele>98.0</ele><time>2026-04-26T14:14:07.102Z</time></trkpt><trkpt lat="45.6544036" lon="10.6319772"><ele>94.25</ele><time>2026-04-26T14:14:08.102Z</time></trkpt><trkpt lat="45.6543298" lon="10.6317957"><ele>90.5</ele><time>2026-04-26T14:14:09.102Z</time></trkpt><trkpt lat="45.6542622" lon="10.6316192"><ele>86.75</ele><time>2026-04-26T14:14:10.102Z</time></trkpt><trkpt lat="45.6541949" lon="10.6314317"><ele>83.0</ele><time>2026-04-26T14:14:11.102Z</time></trkpt><trkpt lat="45.6541267" lon="10.6312552"><ele>86.75</ele><time>2026-04-26T14:14:12.102Z</time></trkpt><trkpt lat="45.6540517" lon="10.6310783"><ele>90.5</ele><time>2026-04-26T14:14:13.102Z</time></trkpt><trkpt lat="45.6539772" lon="10.6309127"><ele>94.25</ele><time>2026-04-26T14:14:14.102Z</time></trkpt><trkpt lat="45.6539113" lon="10.6307583"><ele>98.0</ele><time>2026-04-26T14:14:15.102Z</time></trkpt><trkpt lat="45.6538472" lon="10.6306101"><ele>98.0</ele><time>2026-04-26T14:14:16.102Z</time></trkpt><trkpt lat="45.65378" lon="10.6304755"><ele>98.0</ele><time>2026-04-26T14:14:17.102Z</time></trkpt><trkpt lat="45.6537143" lon="10.6303399"><ele>98.0</ele><time>2026-04-26T14:14:18.102Z</time></trkpt><trkpt lat="45.6536462" lon="10.6302102"><ele>98.0</ele><time>2026-04-26T14:14:19.102Z</time></trkpt><trkpt lat="45.6535811" lon="10.6300812"><ele>95.80000000000001</ele><time>2026-04-26T14:14:20.102Z</time></trkpt><trkpt lat="45.6535146" lon="10.6299526"><ele>93.6</ele><time>2026-04-26T14:14:21.102Z</time></trkpt><trkpt lat="45.6534514" lon="10.6298343"><ele>91.4</ele><time>2026-04-26T14:14:22.102Z</time></trkpt><trkpt lat="45.6534" lon="10.6297368"><ele>89.19999999999999</ele><time>2026-04-26T14:14:23.102Z</time></trkpt><trkpt lat="45.6533584" lon="10.6296511"><ele>87.0</ele><time>2026-04-26T14:14:24.101Z</time></trkpt><trkpt lat="45.6532986" lon="10.6295356"><ele>89.83333333333333</ele><time>2026-04-26T14:14:26.102Z</time></trkpt><trkpt lat="45.6532505" lon="10.629433"><ele>92.66666666666666</ele><time>2026-04-26T14:14:28.102Z</time></trkpt><trkpt lat="45.6531936" lon="10.6293302"><ele>95.5</ele><time>2026-04-26T14:14:30.102Z</time></trkpt><trkpt lat="45.6531249" lon="10.6292211"><ele>98.33333333333333</ele><time>2026-04-26T14:14:32.102Z</time></trkpt><trkpt lat="45.6530632" lon="10.6291263"><ele>101.16666666666666</ele><time>2026-04-26T14:14:34.102Z</time></trkpt><trkpt lat="45.6530238" lon="10.6290559"><ele>104.0</ele><time>2026-04-26T14:14:36.102Z</time></trkpt><trkpt lat="45.6529608" lon="10.6290071"><ele>103.99999999999999</ele><time>2026-04-26T14:14:41.102Z</time></trkpt><trkpt lat="45.6528806" lon="10.6288783"><ele>104.0</ele><time>2026-04-26T14:14:43.102Z</time></trkpt><trkpt lat="45.652832" lon="10.6288081"><ele>104.0</ele><time>2026-04-26T14:14:44.102Z</time></trkpt><trkpt lat="45.6527774" lon="10.6287377"><ele>104.0</ele><time>2026-04-26T14:14:45.102Z</time></trkpt><trkpt lat="45.6527211" lon="10.6286784"><ele>103.99999999999999</ele><time>2026-04-26T14:14:46.101Z</time></trkpt><trkpt lat="45.6526653" lon="10.6286247"><ele>104.0</ele><time>2026-04-26T14:14:47.102Z</time></trkpt><trkpt lat="45.6525634" lon="10.6285431"><ele>104.6</ele><time>2026-04-26T14:14:49.102Z</time></trkpt><trkpt lat="45.6524584" lon="10.6284708"><ele>105.2</ele><time>2026-04-26T14:14:51.102Z</time></trkpt><trkpt lat="45.6523629" lon="10.6283924"><ele>105.79999999999998</ele><time>2026-04-26T14:14:53.102Z</time></trkpt><trkpt lat="45.6522713" lon="10.6283251"><ele>106.39999999999999</ele><time>2026-04-26T14:14:55.101Z</time></trkpt><trkpt lat="45.6521794" lon="10.6282603"><ele>107.0</ele><time>2026-04-26T14:14:57.102Z</time></trkpt><trkpt lat="45.6521276" lon="10.6282088"><ele>106.99999999999999</ele><time>2026-04-26T14:14:58.102Z</time></trkpt><trkpt lat="45.6520717" lon="10.6281579"><ele>107.0</ele><time>2026-04-26T14:14:59.102Z</time></trkpt><trkpt lat="45.6520072" lon="10.6280884"><ele>107.0</ele><time>2026-04-26T14:15:00.102Z</time></trkpt><trkpt lat="45.6519463" lon="10.6280253"><ele>107.0</ele><time>2026-04-26T14:15:01.102Z</time></trkpt><trkpt lat="45.6518873" lon="10.6279576"><ele>106.99999999999999</ele><time>2026-04-26T14:15:02.102Z</time></trkpt><trkpt lat="45.6518346" lon="10.6278962"><ele>107.0</ele><time>2026-04-26T14:15:03.102Z</time></trkpt><trkpt lat="45.6517419" lon="10.6277841"><ele>105.5</ele><time>2026-04-26T14:15:05.102Z</time></trkpt><trkpt lat="45.6516537" lon="10.627688"><ele>104.0</ele><time>2026-04-26T14:15:07.102Z</time></trkpt><trkpt lat="45.6515697" lon="10.6275971"><ele>102.5</ele><time>2026-04-26T14:15:09.102Z</time></trkpt><trkpt lat="45.6514705" lon="10.6274797"><ele>101.0</ele><time>2026-04-26T14:15:11.102Z</time></trkpt><trkpt lat="45.6513697" lon="10.6273695"><ele>101.0</ele><time>2026-04-26T14:15:13.102Z</time></trkpt><trkpt lat="45.6513139" lon="10.6273148"><ele>101.0</ele><time>2026-04-26T14:15:14.102Z</time></trkpt><trkpt lat="45.6512602" lon="10.6272531"><ele>101.0</ele><time>2026-04-26T14:15:15.101Z</time></trkpt><trkpt lat="45.6512085" lon="10.6271792"><ele>101.0</ele><time>2026-04-26T14:15:16.102Z</time></trkpt><trkpt lat="45.6511552" lon="10.627097"><ele>101.0</ele><time>2026-04-26T14:15:17.102Z</time></trkpt><trkpt lat="45.6511074" lon="10.6270112"><ele>101.0</ele><time>2026-04-26T14:15:18.102Z</time></trkpt><trkpt lat="45.6510619" lon="10.626932"><ele>101.0</ele><time>2026-04-26T14:15:19.102Z</time></trkpt><trkpt lat="45.6510165" lon="10.6268482"><ele>98.42857142857143</ele><time>2026-04-26T14:15:20.102Z</time></trkpt><trkpt lat="45.6509751" lon="10.6267612"><ele>95.85714285714286</ele><time>2026-04-26T14:15:21.102Z</time></trkpt><trkpt lat="45.6509315" lon="10.6266785"><ele>93.28571428571428</ele><time>2026-04-26T14:15:22.101Z</time></trkpt><trkpt lat="45.6508892" lon="10.6266051"><ele>90.71428571428572</ele><time>2026-04-26T14:15:23.102Z</time></trkpt><trkpt lat="45.6508489" lon="10.626532"><ele>88.14285714285715</ele><time>2026-04-26T14:15:24.102Z</time></trkpt><trkpt lat="45.6508085" lon="10.6264591"><ele>85.57142857142857</ele><time>2026-04-26T14:15:25.102Z</time></trkpt><trkpt lat="45.6507677" lon="10.6263757"><ele>83.0</ele><time>2026-04-26T14:15:26.102Z</time></trkpt><trkpt lat="45.6507203" lon="10.6262873"><ele>83.0</ele><time>2026-04-26T14:15:27.101Z</time></trkpt><trkpt lat="45.6506685" lon="10.6261979"><ele>83.0</ele><time>2026-04-26T14:15:28.102Z</time></trkpt><trkpt lat="45.6506171" lon="10.6261038"><ele>83.0</ele><time>2026-04-26T14:15:29.102Z</time></trkpt><trkpt lat="45.6505658" lon="10.6260116"><ele>83.0</ele><time>2026-04-26T14:15:30.102Z</time></trkpt><trkpt lat="45.6505121" lon="10.6259243"><ele>83.0</ele><time>2026-04-26T14:15:31.102Z</time></trkpt><trkpt lat="45.6504595" lon="10.6258376"><ele>83.0</ele><time>2026-04-26T14:15:32.102Z</time></trkpt><trkpt lat="45.6504011" lon="10.6257492"><ele>83.16666666666667</ele><time>2026-04-26T14:15:33.102Z</time></trkpt><trkpt lat="45.6503418" lon="10.6256598"><ele>83.33333333333334</ele><time>2026-04-26T14:15:34.102Z</time></trkpt><trkpt lat="45.6502813" lon="10.6255713"><ele>83.5</ele><time>2026-04-26T14:15:35.102Z</time></trkpt><trkpt lat="45.6502215" lon="10.6254887"><ele>83.66666666666667</ele><time>2026-04-26T14:15:36.102Z</time></trkpt><trkpt lat="45.650164" lon="10.6254098"><ele>83.83333333333333</ele><time>2026-04-26T14:15:37.101Z</time></trkpt><trkpt lat="45.6501044" lon="10.6253279"><ele>84.0</ele><time>2026-04-26T14:15:38.102Z</time></trkpt><trkpt lat="45.650042" lon="10.6252465"><ele>84.0</ele><time>2026-04-26T14:15:39.102Z</time></trkpt><trkpt lat="45.6499803" lon="10.6251689"><ele>84.0</ele><time>2026-04-26T14:15:40.102Z</time></trkpt><trkpt lat="45.6499181" lon="10.6250861"><ele>84.0</ele><time>2026-04-26T14:15:41.102Z</time></trkpt><trkpt lat="45.6498532" lon="10.6250003"><ele>84.0</ele><time>2026-04-26T14:15:42.102Z</time></trkpt><trkpt lat="45.6497887" lon="10.6249026"><ele>84.0</ele><time>2026-04-26T14:15:43.102Z</time></trkpt><trkpt lat="45.6497291" lon="10.6247988"><ele>84.0</ele><time>2026-04-26T14:15:44.102Z</time></trkpt><trkpt lat="45.6496683" lon="10.6246849"><ele>84.0</ele><time>2026-04-26T14:15:45.102Z</time></trkpt><trkpt lat="45.6496031" lon="10.6245714"><ele>84.0</ele><time>2026-04-26T14:15:46.101Z</time></trkpt><trkpt lat="45.649541" lon="10.6244541"><ele>84.0</ele><time>2026-04-26T14:15:47.102Z</time></trkpt><trkpt lat="45.6494791" lon="10.624331"><ele>84.0</ele><time>2026-04-26T14:15:48.102Z</time></trkpt><trkpt lat="45.6494197" lon="10.6242092"><ele>84.0</ele><time>2026-04-26T14:15:49.102Z</time></trkpt><trkpt lat="45.6493624" lon="10.6240867"><ele>85.0</ele><time>2026-04-26T14:15:50.102Z</time></trkpt><trkpt lat="45.6493048" lon="10.6239632"><ele>86.0</ele><time>2026-04-26T14:15:51.102Z</time></trkpt><trkpt lat="45.649251" lon="10.6238407"><ele>87.0</ele><time>2026-04-26T14:15:52.102Z</time></trkpt><trkpt lat="45.6492005" lon="10.6237255"><ele>88.0</ele><time>2026-04-26T14:15:53.102Z</time></trkpt><trkpt lat="45.6491513" lon="10.6236097"><ele>89.0</ele><time>2026-04-26T14:15:54.101Z</time></trkpt><trkpt lat="45.6491041" lon="10.623485"><ele>89.0</ele><time>2026-04-26T14:15:55.102Z</time></trkpt><trkpt lat="45.6490533" lon="10.6233603"><ele>89.0</ele><time>2026-04-26T14:15:56.102Z</time></trkpt><trkpt lat="45.6490025" lon="10.6232414"><ele>89.0</ele><time>2026-04-26T14:15:57.101Z</time></trkpt><trkpt lat="45.6489491" lon="10.6231244"><ele>89.0</ele><time>2026-04-26T14:15:58.102Z</time></trkpt><trkpt lat="45.6488899" lon="10.6230115"><ele>89.0</ele><time>2026-04-26T14:15:59.102Z</time></trkpt><trkpt lat="45.6488292" lon="10.6229044"><ele>86.4</ele><time>2026-04-26T14:16:00.102Z</time></trkpt><trkpt lat="45.6487692" lon="10.6227966"><ele>83.80000000000001</ele><time>2026-04-26T14:16:01.102Z</time></trkpt><trkpt lat="45.648705" lon="10.6226935"><ele>81.19999999999999</ele><time>2026-04-26T14:16:02.102Z</time></trkpt><trkpt lat="45.6486376" lon="10.6225986"><ele>78.6</ele><time>2026-04-26T14:16:03.102Z</time></trkpt><trkpt lat="45.6485713" lon="10.6225082"><ele>76.0</ele><time>2026-04-26T14:16:04.102Z</time></trkpt><trkpt lat="45.648511" lon="10.6224271"><ele>76.0</ele><time>2026-04-26T14:16:05.102Z</time></trkpt><trkpt lat="45.6484529" lon="10.6223478"><ele>76.0</ele><time>2026-04-26T14:16:06.102Z</time></trkpt><trkpt lat="45.6483923" lon="10.6222711"><ele>76.0</ele><time>2026-04-26T14:16:07.102Z</time></trkpt><trkpt lat="45.6483389" lon="10.6221982"><ele>76.0</ele><time>2026-04-26T14:16:08.101Z</time></trkpt><trkpt lat="45.64829" lon="10.6221372"><ele>76.0</ele><time>2026-04-26T14:16:09.102Z</time></trkpt><trkpt lat="45.6482455" lon="10.6220692"><ele>76.0</ele><time>2026-04-26T14:16:10.101Z</time></trkpt><trkpt lat="45.6481927" lon="10.6220011"><ele>76.0</ele><time>2026-04-26T14:16:11.102Z</time></trkpt><trkpt lat="45.6481327" lon="10.6219176"><ele>80.6</ele><time>2026-04-26T14:16:12.101Z</time></trkpt><trkpt lat="45.6480736" lon="10.6218113"><ele>85.19999999999999</ele><time>2026-04-26T14:16:13.101Z</time></trkpt><trkpt lat="45.6480152" lon="10.6216909"><ele>89.80000000000001</ele><time>2026-04-26T14:16:14.101Z</time></trkpt><trkpt lat="45.647954" lon="10.6215653"><ele>94.4</ele><time>2026-04-26T14:16:15.101Z</time></trkpt><trkpt lat="45.6478926" lon="10.6214406"><ele>99.0</ele><time>2026-04-26T14:16:16.102Z</time></trkpt><trkpt lat="45.6478311" lon="10.6213204"><ele>95.4</ele><time>2026-04-26T14:16:17.101Z</time></trkpt><trkpt lat="45.6477728" lon="10.6211959"><ele>91.80000000000001</ele><time>2026-04-26T14:16:18.102Z</time></trkpt><trkpt lat="45.6477176" lon="10.6210722"><ele>88.19999999999999</ele><time>2026-04-26T14:16:19.102Z</time></trkpt><trkpt lat="45.6476649" lon="10.6209404"><ele>84.6</ele><time>2026-04-26T14:16:20.102Z</time></trkpt><trkpt lat="45.6476115" lon="10.6208181"><ele>81.0</ele><time>2026-04-26T14:16:21.102Z</time></trkpt><trkpt lat="45.6475669" lon="10.6207116"><ele>81.0</ele><time>2026-04-26T14:16:22.102Z</time></trkpt><trkpt lat="45.6475294" lon="10.6206285"><ele>81.0</ele><time>2026-04-26T14:16:23.102Z</time></trkpt><trkpt lat="45.6474826" lon="10.6205197"><ele>81.0</ele><time>2026-04-26T14:16:25.101Z</time></trkpt><trkpt lat="45.6474518" lon="10.6204327"><ele>81.0</ele><time>2026-04-26T14:16:30.102Z</time></trkpt><trkpt lat="45.6474107" lon="10.6203531"><ele>81.0</ele><time>2026-04-26T14:16:57.102Z</time></trkpt><trkpt lat="45.6473769" lon="10.6202756"><ele>81.0</ele><time>2026-04-26T14:17:11.102Z</time></trkpt><trkpt lat="45.6473333" lon="10.6201883"><ele>81.0</ele><time>2026-04-26T14:17:24.102Z</time></trkpt><trkpt lat="45.6472804" lon="10.6201151"><ele>86.8</ele><time>2026-04-26T14:17:26.102Z</time></trkpt><trkpt lat="45.6472311" lon="10.6199693"><ele>92.6</ele><time>2026-04-26T14:17:28.102Z</time></trkpt><trkpt lat="45.6471634" lon="10.6198011"><ele>98.4</ele><time>2026-04-26T14:17:30.102Z</time></trkpt><trkpt lat="45.6471218" lon="10.6196962"><ele>104.2</ele><time>2026-04-26T14:17:31.101Z</time></trkpt><trkpt lat="45.647077" lon="10.6195866"><ele>110.0</ele><time>2026-04-26T14:17:32.102Z</time></trkpt><trkpt lat="45.647027" lon="10.6194785"><ele>105.33333333333333</ele><time>2026-04-26T14:17:33.102Z</time></trkpt><trkpt lat="45.6469795" lon="10.6193739"><ele>100.66666666666666</ele><time>2026-04-26T14:17:34.102Z</time></trkpt><trkpt lat="45.6469376" lon="10.6192757"><ele>96.0</ele><time>2026-04-26T14:17:35.102Z</time></trkpt><trkpt lat="45.6468922" lon="10.6191777"><ele>91.33333333333333</ele><time>2026-04-26T14:17:36.102Z</time></trkpt><trkpt lat="45.6468434" lon="10.6190783"><ele>86.66666666666666</ele><time>2026-04-26T14:17:37.102Z</time></trkpt><trkpt lat="45.6467905" lon="10.6189733"><ele>82.0</ele><time>2026-04-26T14:17:38.102Z</time></trkpt><trkpt lat="45.6467284" lon="10.6188663"><ele>82.0</ele><time>2026-04-26T14:17:39.102Z</time></trkpt><trkpt lat="45.6466583" lon="10.618755"><ele>82.0</ele><time>2026-04-26T14:17:40.102Z</time></trkpt><trkpt lat="45.6465853" lon="10.618638"><ele>82.0</ele><time>2026-04-26T14:17:41.102Z</time></trkpt><trkpt lat="45.6465103" lon="10.6185151"><ele>82.0</ele><time>2026-04-26T14:17:42.102Z</time></trkpt><trkpt lat="45.6464346" lon="10.6183904"><ele>82.0</ele><time>2026-04-26T14:17:43.102Z</time></trkpt><trkpt lat="45.6463632" lon="10.6182658"><ele>83.8</ele><time>2026-04-26T14:17:44.102Z</time></trkpt><trkpt lat="45.6462937" lon="10.6181432"><ele>85.6</ele><time>2026-04-26T14:17:45.102Z</time></trkpt><trkpt lat="45.64623" lon="10.6180191"><ele>87.39999999999999</ele><time>2026-04-26T14:17:46.102Z</time></trkpt><trkpt lat="45.6461761" lon="10.6178933"><ele>89.19999999999999</ele><time>2026-04-26T14:17:47.102Z</time></trkpt><trkpt lat="45.6461243" lon="10.6177707"><ele>91.0</ele><time>2026-04-26T14:17:48.102Z</time></trkpt><trkpt lat="45.6460722" lon="10.6176676"><ele>91.0</ele><time>2026-04-26T14:17:49.102Z</time></trkpt><trkpt lat="45.6460258" lon="10.6175872"><ele>91.0</ele><time>2026-04-26T14:17:50.102Z</time></trkpt><trkpt lat="45.6459394" lon="10.6174808"><ele>91.0</ele><time>2026-04-26T14:17:52.102Z</time></trkpt><trkpt lat="45.6458404" lon="10.6174265"><ele>91.0</ele><time>2026-04-26T14:17:54.102Z</time></trkpt><trkpt lat="45.6457158" lon="10.6173992"><ele>91.0</ele><time>2026-04-26T14:17:56.102Z</time></trkpt><trkpt lat="45.6456284" lon="10.6173744"><ele>91.0</ele><time>2026-04-26T14:17:57.102Z</time></trkpt><trkpt lat="45.6455332" lon="10.6173405"><ele>91.0</ele><time>2026-04-26T14:17:58.102Z</time></trkpt><trkpt lat="45.6454282" lon="10.6172983"><ele>91.0</ele><time>2026-04-26T14:17:59.101Z</time></trkpt><trkpt lat="45.6453198" lon="10.6172589"><ele>91.0</ele><time>2026-04-26T14:18:00.102Z</time></trkpt><trkpt lat="45.6452076" lon="10.6172212"><ele>91.0</ele><time>2026-04-26T14:18:01.101Z</time></trkpt><trkpt lat="45.6451003" lon="10.6171835"><ele>88.2</ele><time>2026-04-26T14:18:02.102Z</time></trkpt><trkpt lat="45.6449995" lon="10.6171485"><ele>85.39999999999999</ele><time>2026-04-26T14:18:03.102Z</time></trkpt><trkpt lat="45.6449039" lon="10.6171123"><ele>82.6</ele><time>2026-04-26T14:18:04.102Z</time></trkpt><trkpt lat="45.6448143" lon="10.6170728"><ele>79.8</ele><time>2026-04-26T14:18:05.101Z</time></trkpt><trkpt lat="45.6447314" lon="10.6170346"><ele>77.0</ele><time>2026-04-26T14:18:06.102Z</time></trkpt><trkpt lat="45.6446566" lon="10.6169952"><ele>77.5</ele><time>2026-04-26T14:18:07.102Z</time></trkpt><trkpt lat="45.6445866" lon="10.6169581"><ele>78.0</ele><time>2026-04-26T14:18:08.102Z</time></trkpt><trkpt lat="45.6445224" lon="10.6169178"><ele>78.5</ele><time>2026-04-26T14:18:09.101Z</time></trkpt><trkpt lat="45.6444638" lon="10.6168748"><ele>79.0</ele><time>2026-04-26T14:18:10.102Z</time></trkpt><trkpt lat="45.6444069" lon="10.616829"><ele>79.5</ele><time>2026-04-26T14:18:11.102Z</time></trkpt><trkpt lat="45.6443012" lon="10.616743"><ele>80.0</ele><time>2026-04-26T14:18:13.102Z</time></trkpt><trkpt lat="45.6442424" lon="10.6166862"><ele>80.2</ele><time>2026-04-26T14:18:14.102Z</time></trkpt><trkpt lat="45.644181" lon="10.6166116"><ele>80.4</ele><time>2026-04-26T14:18:15.102Z</time></trkpt><trkpt lat="45.6441171" lon="10.6165263"><ele>80.6</ele><time>2026-04-26T14:18:16.101Z</time></trkpt><trkpt lat="45.6440493" lon="10.6164414"><ele>80.8</ele><time>2026-04-26T14:18:17.102Z</time></trkpt><trkpt lat="45.6439788" lon="10.6163481"><ele>81.0</ele><time>2026-04-26T14:18:18.102Z</time></trkpt><trkpt lat="45.6439091" lon="10.6162496"><ele>81.19999999999999</ele><time>2026-04-26T14:18:19.102Z</time></trkpt><trkpt lat="45.6438417" lon="10.6161486"><ele>81.39999999999999</ele><time>2026-04-26T14:18:20.102Z</time></trkpt><trkpt lat="45.6437731" lon="10.6160504"><ele>81.6</ele><time>2026-04-26T14:18:21.102Z</time></trkpt><trkpt lat="45.6437084" lon="10.6159536"><ele>81.8</ele><time>2026-04-26T14:18:22.101Z</time></trkpt><trkpt lat="45.6436402" lon="10.6158584"><ele>82.0</ele><time>2026-04-26T14:18:23.102Z</time></trkpt><trkpt lat="45.6435683" lon="10.6157573"><ele>81.8</ele><time>2026-04-26T14:18:24.102Z</time></trkpt><trkpt lat="45.6434951" lon="10.6156569"><ele>81.6</ele><time>2026-04-26T14:18:25.102Z</time></trkpt><trkpt lat="45.6434208" lon="10.6155532"><ele>81.39999999999999</ele><time>2026-04-26T14:18:26.102Z</time></trkpt><trkpt lat="45.6433462" lon="10.6154469"><ele>81.19999999999999</ele><time>2026-04-26T14:18:27.102Z</time></trkpt><trkpt lat="45.6432703" lon="10.61534"><ele>81.0</ele><time>2026-04-26T14:18:28.102Z</time></trkpt><trkpt lat="45.6431937" lon="10.6152364"><ele>81.0</ele><time>2026-04-26T14:18:29.102Z</time></trkpt><trkpt lat="45.6431209" lon="10.6151389"><ele>81.0</ele><time>2026-04-26T14:18:30.102Z</time></trkpt><trkpt lat="45.6430487" lon="10.6150355"><ele>81.0</ele><time>2026-04-26T14:18:31.101Z</time></trkpt><trkpt lat="45.6429796" lon="10.6149263"><ele>81.0</ele><time>2026-04-26T14:18:32.102Z</time></trkpt><trkpt lat="45.6429087" lon="10.6148181"><ele>81.0</ele><time>2026-04-26T14:18:33.102Z</time></trkpt><trkpt lat="45.6428349" lon="10.6147139"><ele>80.8</ele><time>2026-04-26T14:18:34.101Z</time></trkpt><trkpt lat="45.6427621" lon="10.6146062"><ele>80.6</ele><time>2026-04-26T14:18:35.102Z</time></trkpt><trkpt lat="45.6426957" lon="10.6145034"><ele>80.4</ele><time>2026-04-26T14:18:36.102Z</time></trkpt><trkpt lat="45.6426298" lon="10.6143952"><ele>80.2</ele><time>2026-04-26T14:18:37.102Z</time></trkpt><trkpt lat="45.6425683" lon="10.6142821"><ele>80.0</ele><time>2026-04-26T14:18:38.102Z</time></trkpt><trkpt lat="45.6425157" lon="10.6141642"><ele>80.0</ele><time>2026-04-26T14:18:39.101Z</time></trkpt><trkpt lat="45.6424612" lon="10.614036"><ele>80.0</ele><time>2026-04-26T14:18:40.102Z</time></trkpt><trkpt lat="45.6424095" lon="10.6139097"><ele>80.0</ele><time>2026-04-26T14:18:41.102Z</time></trkpt><trkpt lat="45.6423714" lon="10.6138065"><ele>80.0</ele><time>2026-04-26T14:18:42.102Z</time></trkpt><trkpt lat="45.6423388" lon="10.6137247"><ele>80.0</ele><time>2026-04-26T14:18:43.101Z</time></trkpt><trkpt lat="45.6422995" lon="10.6136306"><ele>80.0</ele><time>2026-04-26T14:18:45.102Z</time></trkpt><trkpt lat="45.6422611" lon="10.6134937"><ele>80.33333333333334</ele><time>2026-04-26T14:18:48.102Z</time></trkpt><trkpt lat="45.6422214" lon="10.6133813"><ele>80.66666666666667</ele><time>2026-04-26T14:18:50.101Z</time></trkpt><trkpt lat="45.642206" lon="10.6132931"><ele>81.0</ele><time>2026-04-26T14:18:52.102Z</time></trkpt><trkpt lat="45.6421861" lon="10.6132004"><ele>81.33333333333333</ele><time>2026-04-26T14:18:54.102Z</time></trkpt><trkpt lat="45.642132" lon="10.6130466"><ele>81.66666666666666</ele><time>2026-04-26T14:18:56.102Z</time></trkpt><trkpt lat="45.6421017" lon="10.612951"><ele>82.0</ele><time>2026-04-26T14:18:57.102Z</time></trkpt><trkpt lat="45.6420747" lon="10.6128584"><ele>81.83333333333333</ele><time>2026-04-26T14:18:58.102Z</time></trkpt><trkpt lat="45.6420236" lon="10.6126922"><ele>81.66666666666666</ele><time>2026-04-26T14:19:00.102Z</time></trkpt><trkpt lat="45.6419895" lon="10.612597"><ele>81.5</ele><time>2026-04-26T14:19:01.102Z</time></trkpt><trkpt lat="45.6419525" lon="10.6124966"><ele>81.33333333333333</ele><time>2026-04-26T14:19:02.102Z</time></trkpt><trkpt lat="45.6419219" lon="10.6123974"><ele>81.16666666666667</ele><time>2026-04-26T14:19:03.102Z</time></trkpt><trkpt lat="45.6418877" lon="10.6122978"><ele>81.0</ele><time>2026-04-26T14:19:04.102Z</time></trkpt><trkpt lat="45.6418488" lon="10.6121971"><ele>81.0</ele><time>2026-04-26T14:19:05.102Z</time></trkpt><trkpt lat="45.6418127" lon="10.6120889"><ele>81.0</ele><time>2026-04-26T14:19:06.102Z</time></trkpt><trkpt lat="45.641775" lon="10.6119763"><ele>81.0</ele><time>2026-04-26T14:19:07.102Z</time></trkpt><trkpt lat="45.6417341" lon="10.6118549"><ele>81.0</ele><time>2026-04-26T14:19:08.102Z</time></trkpt><trkpt lat="45.6416969" lon="10.6117303"><ele>81.0</ele><time>2026-04-26T14:19:09.101Z</time></trkpt><trkpt lat="45.6416555" lon="10.6116073"><ele>81.6</ele><time>2026-04-26T14:19:10.102Z</time></trkpt><trkpt lat="45.6416137" lon="10.6114814"><ele>82.19999999999999</ele><time>2026-04-26T14:19:11.101Z</time></trkpt><trkpt lat="45.6415708" lon="10.6113513"><ele>82.80000000000001</ele><time>2026-04-26T14:19:12.102Z</time></trkpt><trkpt lat="45.6415303" lon="10.6112228"><ele>83.4</ele><time>2026-04-26T14:19:13.102Z</time></trkpt><trkpt lat="45.6414926" lon="10.6110979"><ele>84.0</ele><time>2026-04-26T14:19:14.102Z</time></trkpt><trkpt lat="45.6414512" lon="10.6109763"><ele>84.80000000000001</ele><time>2026-04-26T14:19:15.102Z</time></trkpt><trkpt lat="45.6414111" lon="10.6108584"><ele>85.60000000000001</ele><time>2026-04-26T14:19:16.102Z</time></trkpt><trkpt lat="45.641375" lon="10.6107463"><ele>86.4</ele><time>2026-04-26T14:19:17.102Z</time></trkpt><trkpt lat="45.6413376" lon="10.6106303"><ele>87.2</ele><time>2026-04-26T14:19:18.102Z</time></trkpt><trkpt lat="45.6412998" lon="10.6105117"><ele>88.0</ele><time>2026-04-26T14:19:19.102Z</time></trkpt><trkpt lat="45.6412636" lon="10.6103893"><ele>88.0</ele><time>2026-04-26T14:19:20.102Z</time></trkpt><trkpt lat="45.6412247" lon="10.6102597"><ele>88.0</ele><time>2026-04-26T14:19:21.102Z</time></trkpt><trkpt lat="45.6411907" lon="10.610121"><ele>88.0</ele><time>2026-04-26T14:19:22.102Z</time></trkpt><trkpt lat="45.6411515" lon="10.6099918"><ele>88.0</ele><time>2026-04-26T14:19:23.101Z</time></trkpt><trkpt lat="45.6411138" lon="10.6098749"><ele>88.0</ele><time>2026-04-26T14:19:24.102Z</time></trkpt><trkpt lat="45.6410646" lon="10.6097172"><ele>86.66666666666666</ele><time>2026-04-26T14:19:26.101Z</time></trkpt><trkpt lat="45.6410278" lon="10.6095836"><ele>85.33333333333333</ele><time>2026-04-26T14:19:28.101Z</time></trkpt><trkpt lat="45.6409941" lon="10.6094748"><ele>84.0</ele><time>2026-04-26T14:19:30.101Z</time></trkpt><trkpt lat="45.6409551" lon="10.6093528"><ele>82.66666666666667</ele><time>2026-04-26T14:19:33.101Z</time></trkpt><trkpt lat="45.6409208" lon="10.6092512"><ele>81.33333333333334</ele><time>2026-04-26T14:19:36.102Z</time></trkpt><trkpt lat="45.6408855" lon="10.609144"><ele>80.0</ele><time>2026-04-26T14:19:39.102Z</time></trkpt><trkpt lat="45.6408521" lon="10.6090567"><ele>80.0</ele><time>2026-04-26T14:19:46.102Z</time></trkpt><trkpt lat="45.6408202" lon="10.6089473"><ele>80.0</ele><time>2026-04-26T14:19:49.102Z</time></trkpt><trkpt lat="45.6408067" lon="10.6087854"><ele>80.0</ele><time>2026-04-26T14:19:51.102Z</time></trkpt><trkpt lat="45.6407518" lon="10.6086681"><ele>80.0</ele><time>2026-04-26T14:19:53.101Z</time></trkpt><trkpt lat="45.6406536" lon="10.6085983"><ele>80.0</ele><time>2026-04-26T14:19:55.102Z</time></trkpt><trkpt lat="45.6405416" lon="10.6085079"><ele>80.66666666666667</ele><time>2026-04-26T14:19:57.102Z</time></trkpt><trkpt lat="45.6404785" lon="10.6084563"><ele>81.33333333333334</ele><time>2026-04-26T14:19:58.102Z</time></trkpt><trkpt lat="45.6404133" lon="10.6083949"><ele>82.0</ele><time>2026-04-26T14:19:59.102Z</time></trkpt><trkpt lat="45.6403438" lon="10.6083391"><ele>82.66666666666667</ele><time>2026-04-26T14:20:00.102Z</time></trkpt><trkpt lat="45.6402744" lon="10.6082862"><ele>83.33333333333333</ele><time>2026-04-26T14:20:01.101Z</time></trkpt><trkpt lat="45.6402083" lon="10.608237"><ele>84.0</ele><time>2026-04-26T14:20:02.102Z</time></trkpt><trkpt lat="45.6401441" lon="10.6081881"><ele>84.0</ele><time>2026-04-26T14:20:03.101Z</time></trkpt><trkpt lat="45.6400739" lon="10.6081457"><ele>84.0</ele><time>2026-04-26T14:20:04.101Z</time></trkpt><trkpt lat="45.6399975" lon="10.6081071"><ele>84.0</ele><time>2026-04-26T14:20:05.102Z</time></trkpt><trkpt lat="45.6399207" lon="10.6080731"><ele>84.0</ele><time>2026-04-26T14:20:06.102Z</time></trkpt><trkpt lat="45.6398432" lon="10.6080338"><ele>84.0</ele><time>2026-04-26T14:20:07.102Z</time></trkpt><trkpt lat="45.63976" lon="10.6079943"><ele>84.0</ele><time>2026-04-26T14:20:08.102Z</time></trkpt><trkpt lat="45.6396745" lon="10.6079551"><ele>84.0</ele><time>2026-04-26T14:20:09.102Z</time></trkpt><trkpt lat="45.6395906" lon="10.6079102"><ele>84.0</ele><time>2026-04-26T14:20:10.102Z</time></trkpt><trkpt lat="45.6395046" lon="10.6078651"><ele>84.0</ele><time>2026-04-26T14:20:11.102Z</time></trkpt><trkpt lat="45.639417" lon="10.6078216"><ele>84.0</ele><time>2026-04-26T14:20:12.102Z</time></trkpt><trkpt lat="45.6393274" lon="10.6077833"><ele>84.0</ele><time>2026-04-26T14:20:13.102Z</time></trkpt><trkpt lat="45.6392358" lon="10.6077403"><ele>83.6</ele><time>2026-04-26T14:20:14.102Z</time></trkpt><trkpt lat="45.6391426" lon="10.6076953"><ele>83.2</ele><time>2026-04-26T14:20:15.102Z</time></trkpt><trkpt lat="45.6390455" lon="10.6076493"><ele>82.8</ele><time>2026-04-26T14:20:16.102Z</time></trkpt><trkpt lat="45.6389541" lon="10.6076011"><ele>82.39999999999999</ele><time>2026-04-26T14:20:17.102Z</time></trkpt><trkpt lat="45.6388634" lon="10.6075569"><ele>82.0</ele><time>2026-04-26T14:20:18.101Z</time></trkpt><trkpt lat="45.6387765" lon="10.6075135"><ele>82.0</ele><time>2026-04-26T14:20:19.102Z</time></trkpt><trkpt lat="45.6386969" lon="10.6074771"><ele>82.0</ele><time>2026-04-26T14:20:20.102Z</time></trkpt><trkpt lat="45.638619" lon="10.6074422"><ele>82.0</ele><time>2026-04-26T14:20:21.102Z</time></trkpt><trkpt lat="45.6385545" lon="10.6074096"><ele>82.0</ele><time>2026-04-26T14:20:22.102Z</time></trkpt><trkpt lat="45.6384928" lon="10.6073811"><ele>82.0</ele><time>2026-04-26T14:20:24.102Z</time></trkpt><trkpt lat="45.6384268" lon="10.6073446"><ele>82.0</ele><time>2026-04-26T14:20:28.102Z</time></trkpt><trkpt lat="45.6383274" lon="10.6072956"><ele>81.39999999999999</ele><time>2026-04-26T14:20:30.102Z</time></trkpt><trkpt lat="45.6382537" lon="10.6072454"><ele>80.8</ele><time>2026-04-26T14:20:31.102Z</time></trkpt><trkpt lat="45.6381762" lon="10.6071865"><ele>80.2</ele><time>2026-04-26T14:20:32.102Z</time></trkpt><trkpt lat="45.6380919" lon="10.6071142"><ele>79.6</ele><time>2026-04-26T14:20:33.102Z</time></trkpt><trkpt lat="45.6380042" lon="10.6070325"><ele>79.0</ele><time>2026-04-26T14:20:34.101Z</time></trkpt><trkpt lat="45.6379242" lon="10.6069399"><ele>79.0</ele><time>2026-04-26T14:20:35.101Z</time></trkpt><trkpt lat="45.6378467" lon="10.6068407"><ele>79.0</ele><time>2026-04-26T14:20:36.102Z</time></trkpt><trkpt lat="45.6377703" lon="10.6067426"><ele>79.0</ele><time>2026-04-26T14:20:37.102Z</time></trkpt><trkpt lat="45.6376997" lon="10.6066481"><ele>79.0</ele><time>2026-04-26T14:20:38.102Z</time></trkpt><trkpt lat="45.6376294" lon="10.6065518"><ele>79.0</ele><time>2026-04-26T14:20:39.102Z</time></trkpt><trkpt lat="45.6375628" lon="10.6064549"><ele>78.66666666666666</ele><time>2026-04-26T14:20:40.102Z</time></trkpt><trkpt lat="45.6374998" lon="10.6063602"><ele>78.33333333333333</ele><time>2026-04-26T14:20:41.102Z</time></trkpt><trkpt lat="45.6374425" lon="10.6062705"><ele>78.0</ele><time>2026-04-26T14:20:42.102Z</time></trkpt><trkpt lat="45.6373919" lon="10.6061894"><ele>77.66666666666667</ele><time>2026-04-26T14:20:43.102Z</time></trkpt><trkpt lat="45.6373429" lon="10.6061167"><ele>77.33333333333334</ele><time>2026-04-26T14:20:44.102Z</time></trkpt><trkpt lat="45.6372902" lon="10.6060481"><ele>77.0</ele><time>2026-04-26T14:20:45.102Z</time></trkpt><trkpt lat="45.6372381" lon="10.6059516"><ele>76.66666666666667</ele><time>2026-04-26T14:20:46.102Z</time></trkpt><trkpt lat="45.6371872" lon="10.6058632"><ele>76.33333333333334</ele><time>2026-04-26T14:20:47.102Z</time></trkpt><trkpt lat="45.6371417" lon="10.6057746"><ele>76.0</ele><time>2026-04-26T14:20:48.101Z</time></trkpt><trkpt lat="45.6370983" lon="10.605685"><ele>75.66666666666667</ele><time>2026-04-26T14:20:49.102Z</time></trkpt><trkpt lat="45.6370505" lon="10.6056025"><ele>75.33333333333333</ele><time>2026-04-26T14:20:50.102Z</time></trkpt><trkpt lat="45.6370085" lon="10.6055224"><ele>75.0</ele><time>2026-04-26T14:20:51.102Z</time></trkpt><trkpt lat="45.6369464" lon="10.6054057"><ele>74.6</ele><time>2026-04-26T14:20:53.102Z</time></trkpt><trkpt lat="45.636912" lon="10.605317"><ele>74.2</ele><time>2026-04-26T14:20:56.102Z</time></trkpt><trkpt lat="45.6368711" lon="10.6051976"><ele>73.8</ele><time>2026-04-26T14:20:59.102Z</time></trkpt><trkpt lat="45.6368289" lon="10.6050906"><ele>73.4</ele><time>2026-04-26T14:21:02.102Z</time></trkpt><trkpt lat="45.6367577" lon="10.6050036"><ele>73.0</ele><time>2026-04-26T14:21:04.102Z</time></trkpt><trkpt lat="45.6366703" lon="10.6048714"><ele>73.0</ele><time>2026-04-26T14:21:06.102Z</time></trkpt><trkpt lat="45.6366263" lon="10.6047888"><ele>73.0</ele><time>2026-04-26T14:21:07.102Z</time></trkpt><trkpt lat="45.6365831" lon="10.6047073"><ele>73.0</ele><time>2026-04-26T14:21:08.102Z</time></trkpt><trkpt lat="45.636538" lon="10.6046247"><ele>73.0</ele><time>2026-04-26T14:21:09.102Z</time></trkpt><trkpt lat="45.6364972" lon="10.6045431"><ele>73.0</ele><time>2026-04-26T14:21:10.102Z</time></trkpt><trkpt lat="45.6364594" lon="10.6044609"><ele>73.0</ele><time>2026-04-26T14:21:11.101Z</time></trkpt><trkpt lat="45.6364231" lon="10.6043824"><ele>73.0</ele><time>2026-04-26T14:21:12.102Z</time></trkpt><trkpt lat="45.6363544" lon="10.6042552"><ele>72.83333333333333</ele><time>2026-04-26T14:21:14.102Z</time></trkpt><trkpt lat="45.6362875" lon="10.6041277"><ele>72.66666666666666</ele><time>2026-04-26T14:21:16.102Z</time></trkpt><trkpt lat="45.6362466" lon="10.6040553"><ele>72.5</ele><time>2026-04-26T14:21:17.102Z</time></trkpt><trkpt lat="45.6362063" lon="10.6039843"><ele>72.33333333333333</ele><time>2026-04-26T14:21:18.102Z</time></trkpt><trkpt lat="45.6361336" lon="10.6038295"><ele>72.16666666666667</ele><time>2026-04-26T14:21:20.102Z</time></trkpt><trkpt lat="45.6360891" lon="10.6037485"><ele>72.0</ele><time>2026-04-26T14:21:21.102Z</time></trkpt><trkpt lat="45.6360396" lon="10.6036625"><ele>71.66666666666667</ele><time>2026-04-26T14:21:22.102Z</time></trkpt><trkpt lat="45.6359901" lon="10.6035699"><ele>71.33333333333333</ele><time>2026-04-26T14:21:23.102Z</time></trkpt><trkpt lat="45.6359403" lon="10.6034675"><ele>71.0</ele><time>2026-04-26T14:21:24.101Z</time></trkpt><trkpt lat="45.6358872" lon="10.6033677"><ele>70.66666666666666</ele><time>2026-04-26T14:21:25.102Z</time></trkpt><trkpt lat="45.6358342" lon="10.6032647"><ele>70.33333333333333</ele><time>2026-04-26T14:21:26.101Z</time></trkpt><trkpt lat="45.6357828" lon="10.6031635"><ele>70.0</ele><time>2026-04-26T14:21:27.102Z</time></trkpt><trkpt lat="45.6357329" lon="10.6030644"><ele>70.0</ele><time>2026-04-26T14:21:28.102Z</time></trkpt><trkpt lat="45.635685" lon="10.6029732"><ele>70.0</ele><time>2026-04-26T14:21:29.101Z</time></trkpt><trkpt lat="45.6356389" lon="10.6028853"><ele>70.0</ele><time>2026-04-26T14:21:30.102Z</time></trkpt><trkpt lat="45.6355957" lon="10.6028058"><ele>70.0</ele><time>2026-04-26T14:21:31.102Z</time></trkpt><trkpt lat="45.6355581" lon="10.6027294"><ele>70.0</ele><time>2026-04-26T14:21:32.102Z</time></trkpt><trkpt lat="45.6354855" lon="10.6025925"><ele>70.0</ele><time>2026-04-26T14:21:34.102Z</time></trkpt><trkpt lat="45.6354148" lon="10.6024575"><ele>70.16666666666666</ele><time>2026-04-26T14:21:36.102Z</time></trkpt><trkpt lat="45.6353763" lon="10.6023814"><ele>70.33333333333333</ele><time>2026-04-26T14:21:37.102Z</time></trkpt><trkpt lat="45.6353381" lon="10.6023087"><ele>70.5</ele><time>2026-04-26T14:21:38.102Z</time></trkpt><trkpt lat="45.6352978" lon="10.6022379"><ele>70.66666666666667</ele><time>2026-04-26T14:21:39.102Z</time></trkpt><trkpt lat="45.6352313" lon="10.6021111"><ele>70.83333333333334</ele><time>2026-04-26T14:21:41.102Z</time></trkpt><trkpt lat="45.6351673" lon="10.6019968"><ele>71.0</ele><time>2026-04-26T14:21:43.102Z</time></trkpt><trkpt lat="45.6351316" lon="10.6019225"><ele>70.66666666666667</ele><time>2026-04-26T14:21:44.102Z</time></trkpt><trkpt lat="45.6350948" lon="10.6018487"><ele>70.33333333333334</ele><time>2026-04-26T14:21:45.102Z</time></trkpt><trkpt lat="45.6350597" lon="10.601773"><ele>70.0</ele><time>2026-04-26T14:21:46.102Z</time></trkpt><trkpt lat="45.6349941" lon="10.6016312"><ele>69.66666666666667</ele><time>2026-04-26T14:21:48.102Z</time></trkpt><trkpt lat="45.6349411" lon="10.601472"><ele>69.33333333333333</ele><time>2026-04-26T14:21:50.102Z</time></trkpt><trkpt lat="45.634924" lon="10.6013785"><ele>69.0</ele><time>2026-04-26T14:21:51.102Z</time></trkpt><trkpt lat="45.6349126" lon="10.601284"><ele>69.0</ele><time>2026-04-26T14:21:52.102Z</time></trkpt><trkpt lat="45.6349038" lon="10.601189"><ele>69.0</ele><time>2026-04-26T14:21:53.102Z</time></trkpt><trkpt lat="45.6349008" lon="10.6010179"><ele>69.0</ele><time>2026-04-26T14:21:55.101Z</time></trkpt><trkpt lat="45.6349161" lon="10.6008499"><ele>69.0</ele><time>2026-04-26T14:21:57.102Z</time></trkpt><trkpt lat="45.6349322" lon="10.6007591"><ele>69.0</ele><time>2026-04-26T14:21:58.101Z</time></trkpt><trkpt lat="45.6349559" lon="10.6006706"><ele>69.0</ele><time>2026-04-26T14:21:59.102Z</time></trkpt><trkpt lat="45.6349799" lon="10.6005766"><ele>69.14285714285714</ele><time>2026-04-26T14:22:00.101Z</time></trkpt><trkpt lat="45.6350068" lon="10.6004811"><ele>69.28571428571429</ele><time>2026-04-26T14:22:01.102Z</time></trkpt><trkpt lat="45.6350381" lon="10.6003882"><ele>69.42857142857143</ele><time>2026-04-26T14:22:02.102Z</time></trkpt><trkpt lat="45.635073" lon="10.6002973"><ele>69.57142857142857</ele><time>2026-04-26T14:22:03.102Z</time></trkpt><trkpt lat="45.6351014" lon="10.6002083"><ele>69.71428571428572</ele><time>2026-04-26T14:22:04.102Z</time></trkpt><trkpt lat="45.6351351" lon="10.6001228"><ele>69.85714285714286</ele><time>2026-04-26T14:22:05.102Z</time></trkpt><trkpt lat="45.6351676" lon="10.6000399"><ele>70.0</ele><time>2026-04-26T14:22:06.102Z</time></trkpt><trkpt lat="45.6352012" lon="10.599955"><ele>70.28571428571429</ele><time>2026-04-26T14:22:07.102Z</time></trkpt><trkpt lat="45.6352376" lon="10.5998638"><ele>70.57142857142857</ele><time>2026-04-26T14:22:08.102Z</time></trkpt><trkpt lat="45.635278" lon="10.5997748"><ele>70.85714285714286</ele><time>2026-04-26T14:22:09.102Z</time></trkpt><trkpt lat="45.6353223" lon="10.5996877"><ele>71.14285714285714</ele><time>2026-04-26T14:22:10.102Z</time></trkpt><trkpt lat="45.6353711" lon="10.5995971"><ele>71.42857142857143</ele><time>2026-04-26T14:22:11.102Z</time></trkpt><trkpt lat="45.635417" lon="10.5995136"><ele>71.71428571428572</ele><time>2026-04-26T14:22:12.102Z</time></trkpt><trkpt lat="45.6354605" lon="10.5994311"><ele>72.0</ele><time>2026-04-26T14:22:13.102Z</time></trkpt><trkpt lat="45.6355019" lon="10.5993612"><ele>72.0</ele><time>2026-04-26T14:22:14.102Z</time></trkpt><trkpt lat="45.6355389" lon="10.5992863"><ele>72.0</ele><time>2026-04-26T14:22:15.101Z</time></trkpt><trkpt lat="45.6355773" lon="10.5991875"><ele>72.0</ele><time>2026-04-26T14:22:16.102Z</time></trkpt><trkpt lat="45.635621" lon="10.5990676"><ele>72.0</ele><time>2026-04-26T14:22:17.102Z</time></trkpt><trkpt lat="45.6356641" lon="10.5989359"><ele>72.0</ele><time>2026-04-26T14:22:18.102Z</time></trkpt><trkpt lat="45.6356995" lon="10.5987993"><ele>72.0</ele><time>2026-04-26T14:22:19.102Z</time></trkpt><trkpt lat="45.6357175" lon="10.5986715"><ele>72.4</ele><time>2026-04-26T14:22:20.102Z</time></trkpt><trkpt lat="45.6357238" lon="10.5985451"><ele>72.80000000000001</ele><time>2026-04-26T14:22:21.102Z</time></trkpt><trkpt lat="45.6357245" lon="10.5984143"><ele>73.2</ele><time>2026-04-26T14:22:22.102Z</time></trkpt><trkpt lat="45.6357247" lon="10.5982778"><ele>73.60000000000001</ele><time>2026-04-26T14:22:23.102Z</time></trkpt><trkpt lat="45.6357218" lon="10.5981328"><ele>74.0</ele><time>2026-04-26T14:22:24.101Z</time></trkpt><trkpt lat="45.6357149" lon="10.5979863"><ele>74.0</ele><time>2026-04-26T14:22:25.102Z</time></trkpt><trkpt lat="45.6357068" lon="10.5978515"><ele>74.0</ele><time>2026-04-26T14:22:26.102Z</time></trkpt><trkpt lat="45.6356936" lon="10.5977194"><ele>74.0</ele><time>2026-04-26T14:22:27.102Z</time></trkpt><trkpt lat="45.6356735" lon="10.5975923"><ele>74.0</ele><time>2026-04-26T14:22:28.102Z</time></trkpt><trkpt lat="45.6356494" lon="10.597459"><ele>74.0</ele><time>2026-04-26T14:22:29.102Z</time></trkpt><trkpt lat="45.6356182" lon="10.5973186"><ele>75.25</ele><time>2026-04-26T14:22:30.101Z</time></trkpt><trkpt lat="45.6355767" lon="10.5971781"><ele>76.5</ele><time>2026-04-26T14:22:31.102Z</time></trkpt><trkpt lat="45.6355222" lon="10.5970367"><ele>77.75</ele><time>2026-04-26T14:22:32.102Z</time></trkpt><trkpt lat="45.6354611" lon="10.5968878"><ele>79.0</ele><time>2026-04-26T14:22:33.101Z</time></trkpt><trkpt lat="45.6353938" lon="10.5967387"><ele>78.75</ele><time>2026-04-26T14:22:34.102Z</time></trkpt><trkpt lat="45.6353188" lon="10.5965829"><ele>78.5</ele><time>2026-04-26T14:22:35.102Z</time></trkpt><trkpt lat="45.6352403" lon="10.5964282"><ele>78.25</ele><time>2026-04-26T14:22:36.102Z</time></trkpt><trkpt lat="45.6351643" lon="10.5962668"><ele>78.0</ele><time>2026-04-26T14:22:37.102Z</time></trkpt><trkpt lat="45.6350886" lon="10.5960931"><ele>78.0</ele><time>2026-04-26T14:22:38.101Z</time></trkpt><trkpt lat="45.6350167" lon="10.5959131"><ele>78.0</ele><time>2026-04-26T14:22:39.102Z</time></trkpt><trkpt lat="45.6349491" lon="10.5957391"><ele>78.0</ele><time>2026-04-26T14:22:40.102Z</time></trkpt><trkpt lat="45.6348833" lon="10.5955741"><ele>78.0</ele><time>2026-04-26T14:22:41.102Z</time></trkpt><trkpt lat="45.6348231" lon="10.5954251"><ele>83.8</ele><time>2026-04-26T14:22:42.102Z</time></trkpt><trkpt lat="45.6347674" lon="10.5952884"><ele>89.6</ele><time>2026-04-26T14:22:43.102Z</time></trkpt><trkpt lat="45.6347157" lon="10.5951625"><ele>95.39999999999999</ele><time>2026-04-26T14:22:44.102Z</time></trkpt><trkpt lat="45.6346682" lon="10.5950417"><ele>101.19999999999999</ele><time>2026-04-26T14:22:45.102Z</time></trkpt><trkpt lat="45.634618" lon="10.5949259"><ele>107.0</ele><time>2026-04-26T14:22:46.102Z</time></trkpt><trkpt lat="45.6345671" lon="10.5948114"><ele>107.0</ele><time>2026-04-26T14:22:47.102Z</time></trkpt><trkpt lat="45.6345065" lon="10.5946885"><ele>107.0</ele><time>2026-04-26T14:22:48.102Z</time></trkpt><trkpt lat="45.6344353" lon="10.5945529"><ele>107.0</ele><time>2026-04-26T14:22:49.102Z</time></trkpt><trkpt lat="45.6343516" lon="10.5944078"><ele>107.0</ele><time>2026-04-26T14:22:50.101Z</time></trkpt><trkpt lat="45.6342547" lon="10.5942291"><ele>103.33333333333333</ele><time>2026-04-26T14:22:51.102Z</time></trkpt><trkpt lat="45.6341504" lon="10.5940301"><ele>99.66666666666666</ele><time>2026-04-26T14:22:52.102Z</time></trkpt><trkpt lat="45.6340419" lon="10.5938158"><ele>96.0</ele><time>2026-04-26T14:22:53.102Z</time></trkpt><trkpt lat="45.6339305" lon="10.5936046"><ele>96.0</ele><time>2026-04-26T14:22:54.101Z</time></trkpt><trkpt lat="45.6338243" lon="10.5933944"><ele>96.0</ele><time>2026-04-26T14:22:55.102Z</time></trkpt><trkpt lat="45.6337203" lon="10.5931868"><ele>96.0</ele><time>2026-04-26T14:22:56.102Z</time></trkpt><trkpt lat="45.6336155" lon="10.592984"><ele>89.0</ele><time>2026-04-26T14:22:57.101Z</time></trkpt><trkpt lat="45.6335147" lon="10.5927843"><ele>82.0</ele><time>2026-04-26T14:22:58.102Z</time></trkpt><trkpt lat="45.6334168" lon="10.5926014"><ele>75.0</ele><time>2026-04-26T14:22:59.102Z</time></trkpt><trkpt lat="45.6333218" lon="10.5924236"><ele>75.0</ele><time>2026-04-26T14:23:00.102Z</time></trkpt><trkpt lat="45.63322" lon="10.5922483"><ele>75.0</ele><time>2026-04-26T14:23:01.102Z</time></trkpt><trkpt lat="45.6331102" lon="10.5920929"><ele>75.0</ele><time>2026-04-26T14:23:02.102Z</time></trkpt><trkpt lat="45.632998" lon="10.5919563"><ele>74.5</ele><time>2026-04-26T14:23:03.102Z</time></trkpt><trkpt lat="45.6328853" lon="10.5918323"><ele>74.0</ele><time>2026-04-26T14:23:04.102Z</time></trkpt><trkpt lat="45.632777" lon="10.5917211"><ele>73.5</ele><time>2026-04-26T14:23:05.102Z</time></trkpt><trkpt lat="45.6326753" lon="10.5916077"><ele>73.0</ele><time>2026-04-26T14:23:06.102Z</time></trkpt><trkpt lat="45.6325873" lon="10.5914819"><ele>73.0</ele><time>2026-04-26T14:23:07.102Z</time></trkpt><trkpt lat="45.6325092" lon="10.5913441"><ele>73.0</ele><time>2026-04-26T14:23:08.101Z</time></trkpt><trkpt lat="45.6324413" lon="10.5911963"><ele>73.0</ele><time>2026-04-26T14:23:09.102Z</time></trkpt><trkpt lat="45.6323736" lon="10.5910431"><ele>73.0</ele><time>2026-04-26T14:23:10.101Z</time></trkpt><trkpt lat="45.6323035" lon="10.59088"><ele>77.5</ele><time>2026-04-26T14:23:11.102Z</time></trkpt><trkpt lat="45.6322321" lon="10.5907081"><ele>82.0</ele><time>2026-04-26T14:23:12.102Z</time></trkpt><trkpt lat="45.6321602" lon="10.590536"><ele>86.5</ele><time>2026-04-26T14:23:13.101Z</time></trkpt><trkpt lat="45.6320937" lon="10.5903808"><ele>91.0</ele><time>2026-04-26T14:23:14.102Z</time></trkpt><trkpt lat="45.6320288" lon="10.5902325"><ele>87.25</ele><time>2026-04-26T14:23:15.102Z</time></trkpt><trkpt lat="45.6319593" lon="10.5900924"><ele>83.5</ele><time>2026-04-26T14:23:16.102Z</time></trkpt><trkpt lat="45.6318779" lon="10.5899418"><ele>79.75</ele><time>2026-04-26T14:23:17.101Z</time></trkpt><trkpt lat="45.6317913" lon="10.5897901"><ele>76.0</ele><time>2026-04-26T14:23:18.102Z</time></trkpt><trkpt lat="45.6317024" lon="10.5896277"><ele>79.33333333333333</ele><time>2026-04-26T14:23:19.102Z</time></trkpt><trkpt lat="45.6316104" lon="10.589462"><ele>82.66666666666667</ele><time>2026-04-26T14:23:20.102Z</time></trkpt><trkpt lat="45.6315055" lon="10.5892857"><ele>86.0</ele><time>2026-04-26T14:23:21.102Z</time></trkpt><trkpt lat="45.6313866" lon="10.5890952"><ele>86.0</ele><time>2026-04-26T14:23:22.102Z</time></trkpt><trkpt lat="45.6312565" lon="10.5888891"><ele>86.0</ele><time>2026-04-26T14:23:23.101Z</time></trkpt><trkpt lat="45.6311221" lon="10.5886884"><ele>86.0</ele><time>2026-04-26T14:23:24.101Z</time></trkpt><trkpt lat="45.6309945" lon="10.5884981"><ele>82.66666666666667</ele><time>2026-04-26T14:23:25.102Z</time></trkpt><trkpt lat="45.6308691" lon="10.5883186"><ele>79.33333333333333</ele><time>2026-04-26T14:23:26.102Z</time></trkpt><trkpt lat="45.6307526" lon="10.5881512"><ele>76.0</ele><time>2026-04-26T14:23:27.102Z</time></trkpt><trkpt lat="45.630643" lon="10.5879918"><ele>77.0</ele><time>2026-04-26T14:23:28.102Z</time></trkpt><trkpt lat="45.6305399" lon="10.5878387"><ele>78.0</ele><time>2026-04-26T14:23:29.102Z</time></trkpt><trkpt lat="45.6304431" lon="10.5876937"><ele>79.0</ele><time>2026-04-26T14:23:30.102Z</time></trkpt><trkpt lat="45.6303456" lon="10.5875534"><ele>80.0</ele><time>2026-04-26T14:23:31.102Z</time></trkpt><trkpt lat="45.6302565" lon="10.5874261"><ele>80.0</ele><time>2026-04-26T14:23:32.102Z</time></trkpt><trkpt lat="45.6301699" lon="10.5873058"><ele>80.0</ele><time>2026-04-26T14:23:33.102Z</time></trkpt><trkpt lat="45.6300808" lon="10.5871902"><ele>80.0</ele><time>2026-04-26T14:23:34.101Z</time></trkpt><trkpt lat="45.6299908" lon="10.587084"><ele>80.0</ele><time>2026-04-26T14:23:35.102Z</time></trkpt><trkpt lat="45.6298995" lon="10.5869748"><ele>79.25</ele><time>2026-04-26T14:23:36.102Z</time></trkpt><trkpt lat="45.6298005" lon="10.5868716"><ele>78.5</ele><time>2026-04-26T14:23:37.102Z</time></trkpt><trkpt lat="45.6296928" lon="10.5867823"><ele>77.75</ele><time>2026-04-26T14:23:38.101Z</time></trkpt><trkpt lat="45.6295729" lon="10.5867108"><ele>77.0</ele><time>2026-04-26T14:23:39.102Z</time></trkpt><trkpt lat="45.6294493" lon="10.5866522"><ele>77.0</ele><time>2026-04-26T14:23:40.102Z</time></trkpt><trkpt lat="45.6293192" lon="10.5866139"><ele>77.0</ele><time>2026-04-26T14:23:41.102Z</time></trkpt><trkpt lat="45.6291833" lon="10.586596"><ele>77.0</ele><time>2026-04-26T14:23:42.102Z</time></trkpt><trkpt lat="45.6290463" lon="10.5865815"><ele>77.0</ele><time>2026-04-26T14:23:43.102Z</time></trkpt><trkpt lat="45.628907" lon="10.586576"><ele>77.0</ele><time>2026-04-26T14:23:44.102Z</time></trkpt><trkpt lat="45.6287651" lon="10.5865824"><ele>77.0</ele><time>2026-04-26T14:23:45.102Z</time></trkpt><trkpt lat="45.628622" lon="10.5865918"><ele>77.0</ele><time>2026-04-26T14:23:46.102Z</time></trkpt><trkpt lat="45.6284808" lon="10.5866062"><ele>77.0</ele><time>2026-04-26T14:23:47.102Z</time></trkpt><trkpt lat="45.6283362" lon="10.5866189"><ele>76.75</ele><time>2026-04-26T14:23:48.102Z</time></trkpt><trkpt lat="45.6281952" lon="10.5866264"><ele>76.5</ele><time>2026-04-26T14:23:49.102Z</time></trkpt><trkpt lat="45.6280554" lon="10.5866262"><ele>76.25</ele><time>2026-04-26T14:23:50.101Z</time></trkpt><trkpt lat="45.6279173" lon="10.5866162"><ele>76.0</ele><time>2026-04-26T14:23:51.102Z</time></trkpt><trkpt lat="45.6277792" lon="10.5865795"><ele>76.0</ele><time>2026-04-26T14:23:52.102Z</time></trkpt><trkpt lat="45.6276482" lon="10.5865048"><ele>76.0</ele><time>2026-04-26T14:23:53.101Z</time></trkpt><trkpt lat="45.6275192" lon="10.5864086"><ele>76.0</ele><time>2026-04-26T14:23:54.102Z</time></trkpt><trkpt lat="45.6273944" lon="10.5862906"><ele>76.0</ele><time>2026-04-26T14:23:55.102Z</time></trkpt><trkpt lat="45.6272672" lon="10.5861738"><ele>76.66666666666666</ele><time>2026-04-26T14:23:56.102Z</time></trkpt><trkpt lat="45.6271323" lon="10.5860466"><ele>77.33333333333333</ele><time>2026-04-26T14:23:57.102Z</time></trkpt><trkpt lat="45.6270046" lon="10.5859315"><ele>78.0</ele><time>2026-04-26T14:23:58.102Z</time></trkpt><trkpt lat="45.626872" lon="10.5858151"><ele>78.0</ele><time>2026-04-26T14:23:59.101Z</time></trkpt><trkpt lat="45.6267342" lon="10.5856817"><ele>78.0</ele><time>2026-04-26T14:24:00.101Z</time></trkpt><trkpt lat="45.6265996" lon="10.5855415"><ele>78.0</ele><time>2026-04-26T14:24:01.102Z</time></trkpt><trkpt lat="45.6264806" lon="10.5854042"><ele>78.33333333333333</ele><time>2026-04-26T14:24:02.102Z</time></trkpt><trkpt lat="45.6263742" lon="10.5852466"><ele>78.66666666666666</ele><time>2026-04-26T14:24:03.102Z</time></trkpt><trkpt lat="45.6262792" lon="10.5850817"><ele>79.0</ele><time>2026-04-26T14:24:04.102Z</time></trkpt><trkpt lat="45.6261954" lon="10.5849079"><ele>77.75</ele><time>2026-04-26T14:24:05.102Z</time></trkpt><trkpt lat="45.6261282" lon="10.5847375"><ele>76.5</ele><time>2026-04-26T14:24:06.102Z</time></trkpt><trkpt lat="45.626079" lon="10.5845677"><ele>75.25</ele><time>2026-04-26T14:24:07.102Z</time></trkpt><trkpt lat="45.6260521" lon="10.5843915"><ele>74.0</ele><time>2026-04-26T14:24:08.102Z</time></trkpt><trkpt lat="45.6260415" lon="10.5842086"><ele>74.0</ele><time>2026-04-26T14:24:09.102Z</time></trkpt><trkpt lat="45.6260476" lon="10.5840243"><ele>74.0</ele><time>2026-04-26T14:24:10.102Z</time></trkpt><trkpt lat="45.6260643" lon="10.5838371"><ele>74.0</ele><time>2026-04-26T14:24:11.101Z</time></trkpt><trkpt lat="45.6260901" lon="10.5836423"><ele>74.0</ele><time>2026-04-26T14:24:12.102Z</time></trkpt><trkpt lat="45.6261145" lon="10.5834484"><ele>73.5</ele><time>2026-04-26T14:24:13.102Z</time></trkpt><trkpt lat="45.6261428" lon="10.5832686"><ele>73.0</ele><time>2026-04-26T14:24:14.102Z</time></trkpt><trkpt lat="45.6261679" lon="10.5831065"><ele>72.5</ele><time>2026-04-26T14:24:15.102Z</time></trkpt><trkpt lat="45.6261843" lon="10.5829524"><ele>72.0</ele><time>2026-04-26T14:24:16.101Z</time></trkpt><trkpt lat="45.6261938" lon="10.5828116"><ele>74.6</ele><time>2026-04-26T14:24:17.102Z</time></trkpt><trkpt lat="45.6261988" lon="10.5826827"><ele>77.2</ele><time>2026-04-26T14:24:18.102Z</time></trkpt><trkpt lat="45.6262062" lon="10.5825557"><ele>79.8</ele><time>2026-04-26T14:24:19.101Z</time></trkpt><trkpt lat="45.6262083" lon="10.5824324"><ele>82.4</ele><time>2026-04-26T14:24:20.102Z</time></trkpt><trkpt lat="45.6262073" lon="10.5823038"><ele>85.0</ele><time>2026-04-26T14:24:21.102Z</time></trkpt><trkpt lat="45.6262052" lon="10.582165"><ele>85.0</ele><time>2026-04-26T14:24:22.101Z</time></trkpt><trkpt lat="45.6262057" lon="10.5820215"><ele>85.0</ele><time>2026-04-26T14:24:23.102Z</time></trkpt><trkpt lat="45.6262017" lon="10.5818816"><ele>85.0</ele><time>2026-04-26T14:24:24.102Z</time></trkpt><trkpt lat="45.6261987" lon="10.5817302"><ele>85.0</ele><time>2026-04-26T14:24:25.102Z</time></trkpt><trkpt lat="45.6261934" lon="10.5815683"><ele>85.0</ele><time>2026-04-26T14:24:26.102Z</time></trkpt><trkpt lat="45.6261883" lon="10.5813981"><ele>85.0</ele><time>2026-04-26T14:24:27.101Z</time></trkpt><trkpt lat="45.6261855" lon="10.5812162"><ele>85.0</ele><time>2026-04-26T14:24:28.102Z</time></trkpt><trkpt lat="45.6261833" lon="10.5810245"><ele>85.0</ele><time>2026-04-26T14:24:29.102Z</time></trkpt><trkpt lat="45.6261867" lon="10.5808305"><ele>85.0</ele><time>2026-04-26T14:24:30.102Z</time></trkpt><trkpt lat="45.6261847" lon="10.580636"><ele>85.0</ele><time>2026-04-26T14:24:31.102Z</time></trkpt><trkpt lat="45.6261819" lon="10.5804446"><ele>85.0</ele><time>2026-04-26T14:24:32.102Z</time></trkpt><trkpt lat="45.6261804" lon="10.5802548"><ele>85.0</ele><time>2026-04-26T14:24:33.102Z</time></trkpt><trkpt lat="45.626178" lon="10.5800647"><ele>85.0</ele><time>2026-04-26T14:24:34.102Z</time></trkpt><trkpt lat="45.6261802" lon="10.5798893"><ele>85.5</ele><time>2026-04-26T14:24:35.102Z</time></trkpt><trkpt lat="45.6261821" lon="10.5797272"><ele>86.0</ele><time>2026-04-26T14:24:36.102Z</time></trkpt><trkpt lat="45.6261825" lon="10.5795946"><ele>86.5</ele><time>2026-04-26T14:24:37.102Z</time></trkpt><trkpt lat="45.6261761" lon="10.5794844"><ele>87.0</ele><time>2026-04-26T14:24:38.101Z</time></trkpt><trkpt lat="45.6261723" lon="10.5793795"><ele>87.5</ele><time>2026-04-26T14:24:39.102Z</time></trkpt><trkpt lat="45.6261686" lon="10.5792861"><ele>88.0</ele><time>2026-04-26T14:24:40.102Z</time></trkpt><trkpt lat="45.6261611" lon="10.5791249"><ele>88.0</ele><time>2026-04-26T14:24:42.101Z</time></trkpt><trkpt lat="45.6261521" lon="10.5790274"><ele>88.0</ele><time>2026-04-26T14:24:44.102Z</time></trkpt><trkpt lat="45.6261405" lon="10.5789307"><ele>88.0</ele><time>2026-04-26T14:24:47.102Z</time></trkpt><trkpt lat="45.6261305" lon="10.5788325"><ele>88.0</ele><time>2026-04-26T14:24:49.102Z</time></trkpt><trkpt lat="45.6261084" lon="10.5786412"><ele>88.0</ele><time>2026-04-26T14:24:51.102Z</time></trkpt><trkpt lat="45.6260935" lon="10.5785364"><ele>88.0</ele><time>2026-04-26T14:24:52.102Z</time></trkpt><trkpt lat="45.6260759" lon="10.5784005"><ele>86.0</ele><time>2026-04-26T14:24:54.101Z</time></trkpt><trkpt lat="45.6260614" lon="10.5782939"><ele>84.0</ele><time>2026-04-26T14:24:56.102Z</time></trkpt><trkpt lat="45.6260425" lon="10.5781533"><ele>82.0</ele><time>2026-04-26T14:24:58.102Z</time></trkpt><trkpt lat="45.6260167" lon="10.5779789"><ele>80.0</ele><time>2026-04-26T14:25:00.102Z</time></trkpt><trkpt lat="45.6259904" lon="10.5778463"><ele>78.0</ele><time>2026-04-26T14:25:02.102Z</time></trkpt><trkpt lat="45.6259717" lon="10.5777248"><ele>78.0</ele><time>2026-04-26T14:25:04.102Z</time></trkpt><trkpt lat="45.6259558" lon="10.5776359"><ele>78.0</ele><time>2026-04-26T14:25:05.102Z</time></trkpt><trkpt lat="45.6259442" lon="10.5775372"><ele>78.0</ele><time>2026-04-26T14:25:06.101Z</time></trkpt><trkpt lat="45.6259306" lon="10.5774363"><ele>78.0</ele><time>2026-04-26T14:25:07.101Z</time></trkpt><trkpt lat="45.6259191" lon="10.5773269"><ele>78.0</ele><time>2026-04-26T14:25:08.102Z</time></trkpt><trkpt lat="45.6259091" lon="10.5771996"><ele>78.0</ele><time>2026-04-26T14:25:09.102Z</time></trkpt><trkpt lat="45.625885" lon="10.5770624"><ele>78.6</ele><time>2026-04-26T14:25:10.102Z</time></trkpt><trkpt lat="45.6258613" lon="10.57692"><ele>79.19999999999999</ele><time>2026-04-26T14:25:11.102Z</time></trkpt><trkpt lat="45.6258323" lon="10.5767792"><ele>79.8</ele><time>2026-04-26T14:25:12.101Z</time></trkpt><trkpt lat="45.6258023" lon="10.5766432"><ele>80.39999999999999</ele><time>2026-04-26T14:25:13.102Z</time></trkpt><trkpt lat="45.6257725" lon="10.5765097"><ele>81.0</ele><time>2026-04-26T14:25:14.101Z</time></trkpt><trkpt lat="45.6257389" lon="10.5763698"><ele>81.0</ele><time>2026-04-26T14:25:15.102Z</time></trkpt><trkpt lat="45.6257022" lon="10.5762303"><ele>81.0</ele><time>2026-04-26T14:25:16.102Z</time></trkpt><trkpt lat="45.6256672" lon="10.5760837"><ele>81.0</ele><time>2026-04-26T14:25:17.101Z</time></trkpt><trkpt lat="45.6256384" lon="10.575944"><ele>81.0</ele><time>2026-04-26T14:25:18.102Z</time></trkpt><trkpt lat="45.6256107" lon="10.5758112"><ele>81.0</ele><time>2026-04-26T14:25:19.102Z</time></trkpt><trkpt lat="45.6255774" lon="10.5756772"><ele>82.19999999999999</ele><time>2026-04-26T14:25:20.101Z</time></trkpt><trkpt lat="45.6255356" lon="10.5755331"><ele>83.39999999999999</ele><time>2026-04-26T14:25:21.102Z</time></trkpt><trkpt lat="45.6254919" lon="10.575383"><ele>84.6</ele><time>2026-04-26T14:25:22.102Z</time></trkpt><trkpt lat="45.6254429" lon="10.5752417"><ele>85.8</ele><time>2026-04-26T14:25:23.101Z</time></trkpt><trkpt lat="45.6253891" lon="10.5750943"><ele>87.0</ele><time>2026-04-26T14:25:24.102Z</time></trkpt><trkpt lat="45.6253259" lon="10.5749411"><ele>85.75</ele><time>2026-04-26T14:25:25.101Z</time></trkpt><trkpt lat="45.6252492" lon="10.5747816"><ele>84.5</ele><time>2026-04-26T14:25:26.102Z</time></trkpt><trkpt lat="45.6251655" lon="10.5746124"><ele>83.25</ele><time>2026-04-26T14:25:27.101Z</time></trkpt><trkpt lat="45.6250762" lon="10.574453"><ele>82.0</ele><time>2026-04-26T14:25:28.102Z</time></trkpt><trkpt lat="45.6249915" lon="10.5743135"><ele>82.0</ele><time>2026-04-26T14:25:29.102Z</time></trkpt><trkpt lat="45.6249106" lon="10.5741998"><ele>82.0</ele><time>2026-04-26T14:25:30.102Z</time></trkpt><trkpt lat="45.6248464" lon="10.5741098"><ele>82.0</ele><time>2026-04-26T14:25:31.102Z</time></trkpt><trkpt lat="45.6247923" lon="10.5740383"><ele>82.0</ele><time>2026-04-26T14:25:32.102Z</time></trkpt><trkpt lat="45.624741" lon="10.573978"><ele>82.0</ele><time>2026-04-26T14:25:33.102Z</time></trkpt><trkpt lat="45.6246465" lon="10.5738654"><ele>82.0</ele><time>2026-04-26T14:25:35.101Z</time></trkpt><trkpt lat="45.6245714" lon="10.5737696"><ele>82.0</ele><time>2026-04-26T14:25:37.101Z</time></trkpt><trkpt lat="45.6245113" lon="10.5737053"><ele>82.0</ele><time>2026-04-26T14:25:39.101Z</time></trkpt><trkpt lat="45.6244543" lon="10.5736273"><ele>82.0</ele><time>2026-04-26T14:25:41.102Z</time></trkpt><trkpt lat="45.6244041" lon="10.5735531"><ele>82.0</ele><time>2026-04-26T14:25:43.102Z</time></trkpt><trkpt lat="45.6243598" lon="10.5734884"><ele>82.0</ele><time>2026-04-26T14:25:45.102Z</time></trkpt><trkpt lat="45.6243127" lon="10.573404"><ele>82.0</ele><time>2026-04-26T14:25:47.102Z</time></trkpt><trkpt lat="45.6242648" lon="10.573311"><ele>82.0</ele><time>2026-04-26T14:25:49.102Z</time></trkpt><trkpt lat="45.6242269" lon="10.5732324"><ele>82.0</ele><time>2026-04-26T14:25:52.102Z</time></trkpt><trkpt lat="45.6241771" lon="10.5731284"><ele>82.0</ele><time>2026-04-26T14:25:56.102Z</time></trkpt><trkpt lat="45.6241365" lon="10.573026"><ele>82.0</ele><time>2026-04-26T14:25:58.102Z</time></trkpt><trkpt lat="45.6240952" lon="10.5729219"><ele>82.0</ele><time>2026-04-26T14:26:00.101Z</time></trkpt><trkpt lat="45.6240646" lon="10.57283"><ele>82.0</ele><time>2026-04-26T14:26:02.102Z</time></trkpt><trkpt lat="45.6240271" lon="10.5727172"><ele>82.0</ele><time>2026-04-26T14:26:05.102Z</time></trkpt><trkpt lat="45.6239816" lon="10.5725847"><ele>82.0</ele><time>2026-04-26T14:26:08.102Z</time></trkpt><trkpt lat="45.6239547" lon="10.5724985"><ele>82.0</ele><time>2026-04-26T14:26:09.102Z</time></trkpt><trkpt lat="45.6239123" lon="10.5723602"><ele>82.0</ele><time>2026-04-26T14:26:11.102Z</time></trkpt><trkpt lat="45.6238652" lon="10.5722448"><ele>82.0</ele><time>2026-04-26T14:26:13.102Z</time></trkpt><trkpt lat="45.6238373" lon="10.5721577"><ele>82.0</ele><time>2026-04-26T14:26:14.102Z</time></trkpt><trkpt lat="45.6238103" lon="10.5720624"><ele>82.0</ele><time>2026-04-26T14:26:15.101Z</time></trkpt><trkpt lat="45.6237825" lon="10.571967"><ele>82.0</ele><time>2026-04-26T14:26:16.102Z</time></trkpt><trkpt lat="45.6237529" lon="10.5718808"><ele>82.0</ele><time>2026-04-26T14:26:17.102Z</time></trkpt><trkpt lat="45.6237218" lon="10.571799"><ele>82.0</ele><time>2026-04-26T14:26:18.102Z</time></trkpt><trkpt lat="45.6236583" lon="10.5716437"><ele>81.85714285714285</ele><time>2026-04-26T14:26:20.101Z</time></trkpt><trkpt lat="45.6236221" lon="10.5715661"><ele>81.71428571428571</ele><time>2026-04-26T14:26:21.102Z</time></trkpt><trkpt lat="45.6235852" lon="10.5714908"><ele>81.57142857142857</ele><time>2026-04-26T14:26:22.102Z</time></trkpt><trkpt lat="45.6235477" lon="10.5714154"><ele>81.42857142857142</ele><time>2026-04-26T14:26:23.102Z</time></trkpt><trkpt lat="45.6235047" lon="10.5713416"><ele>81.28571428571428</ele><time>2026-04-26T14:26:24.102Z</time></trkpt><trkpt lat="45.6234603" lon="10.5712755"><ele>81.14285714285714</ele><time>2026-04-26T14:26:25.102Z</time></trkpt><trkpt lat="45.6233887" lon="10.5711842"><ele>81.0</ele><time>2026-04-26T14:26:27.102Z</time></trkpt><trkpt lat="45.6233291" lon="10.5711024"><ele>81.0</ele><time>2026-04-26T14:26:37.101Z</time></trkpt><trkpt lat="45.6232347" lon="10.5709964"><ele>81.0</ele><time>2026-04-26T14:26:39.102Z</time></trkpt><trkpt lat="45.6231834" lon="10.5709411"><ele>81.0</ele><time>2026-04-26T14:26:40.102Z</time></trkpt><trkpt lat="45.6231313" lon="10.5708869"><ele>81.0</ele><time>2026-04-26T14:26:41.102Z</time></trkpt><trkpt lat="45.6230688" lon="10.5708253"><ele>81.0</ele><time>2026-04-26T14:26:42.102Z</time></trkpt><trkpt lat="45.6230061" lon="10.5707616"><ele>81.0</ele><time>2026-04-26T14:26:43.102Z</time></trkpt><trkpt lat="45.6229446" lon="10.5706918"><ele>81.0</ele><time>2026-04-26T14:26:44.101Z</time></trkpt><trkpt lat="45.6228771" lon="10.5706141"><ele>81.0</ele><time>2026-04-26T14:26:45.102Z</time></trkpt><trkpt lat="45.6228136" lon="10.5705209"><ele>81.0</ele><time>2026-04-26T14:26:46.102Z</time></trkpt><trkpt lat="45.6227447" lon="10.5704179"><ele>81.0</ele><time>2026-04-26T14:26:47.102Z</time></trkpt><trkpt lat="45.6226754" lon="10.5703058"><ele>81.0</ele><time>2026-04-26T14:26:48.102Z</time></trkpt><trkpt lat="45.6226071" lon="10.5701883"><ele>79.8</ele><time>2026-04-26T14:26:49.102Z</time></trkpt><trkpt lat="45.6225343" lon="10.5700694"><ele>78.6</ele><time>2026-04-26T14:26:50.102Z</time></trkpt><trkpt lat="45.622468" lon="10.5699498"><ele>77.4</ele><time>2026-04-26T14:26:51.102Z</time></trkpt><trkpt lat="45.6224054" lon="10.5698374"><ele>76.2</ele><time>2026-04-26T14:26:52.101Z</time></trkpt><trkpt lat="45.6223478" lon="10.5697299"><ele>75.0</ele><time>2026-04-26T14:26:53.102Z</time></trkpt><trkpt lat="45.622299" lon="10.5696241"><ele>77.0</ele><time>2026-04-26T14:26:54.102Z</time></trkpt><trkpt lat="45.6222487" lon="10.5695114"><ele>79.0</ele><time>2026-04-26T14:26:55.102Z</time></trkpt><trkpt lat="45.6221989" lon="10.5693925"><ele>81.0</ele><time>2026-04-26T14:26:56.102Z</time></trkpt><trkpt lat="45.6221485" lon="10.5692645"><ele>83.0</ele><time>2026-04-26T14:26:57.102Z</time></trkpt><trkpt lat="45.6221015" lon="10.5691427"><ele>85.0</ele><time>2026-04-26T14:26:58.101Z</time></trkpt><trkpt lat="45.6220582" lon="10.5690232"><ele>85.0</ele><time>2026-04-26T14:26:59.102Z</time></trkpt><trkpt lat="45.6220228" lon="10.5689253"><ele>85.0</ele><time>2026-04-26T14:27:00.102Z</time></trkpt><trkpt lat="45.6219656" lon="10.5687964"><ele>85.0</ele><time>2026-04-26T14:27:02.102Z</time></trkpt><trkpt lat="45.6219108" lon="10.568663"><ele>85.0</ele><time>2026-04-26T14:27:04.102Z</time></trkpt><trkpt lat="45.6218472" lon="10.5685328"><ele>85.0</ele><time>2026-04-26T14:27:06.102Z</time></trkpt><trkpt lat="45.6218064" lon="10.5684619"><ele>83.2</ele><time>2026-04-26T14:27:07.101Z</time></trkpt><trkpt lat="45.6217393" lon="10.568335"><ele>81.4</ele><time>2026-04-26T14:27:09.102Z</time></trkpt><trkpt lat="45.621671" lon="10.5682225"><ele>79.6</ele><time>2026-04-26T14:27:11.102Z</time></trkpt><trkpt lat="45.6215922" lon="10.568095"><ele>77.8</ele><time>2026-04-26T14:27:13.102Z</time></trkpt><trkpt lat="45.6215498" lon="10.5680217"><ele>76.0</ele><time>2026-04-26T14:27:14.101Z</time></trkpt><trkpt lat="45.6215048" lon="10.5679398"><ele>77.5</ele><time>2026-04-26T14:27:15.102Z</time></trkpt><trkpt lat="45.6214558" lon="10.5678493"><ele>79.0</ele><time>2026-04-26T14:27:16.102Z</time></trkpt><trkpt lat="45.6214062" lon="10.5677628"><ele>80.5</ele><time>2026-04-26T14:27:17.102Z</time></trkpt><trkpt lat="45.6213568" lon="10.5676744"><ele>82.0</ele><time>2026-04-26T14:27:18.102Z</time></trkpt><trkpt lat="45.6213092" lon="10.5675923"><ele>83.5</ele><time>2026-04-26T14:27:19.101Z</time></trkpt><trkpt lat="45.6212601" lon="10.5675107"><ele>85.0</ele><time>2026-04-26T14:27:20.101Z</time></trkpt><trkpt lat="45.6212093" lon="10.5674356"><ele>85.0</ele><time>2026-04-26T14:27:21.102Z</time></trkpt><trkpt lat="45.621158" lon="10.5673629"><ele>85.0</ele><time>2026-04-26T14:27:22.102Z</time></trkpt><trkpt lat="45.6211128" lon="10.5672928"><ele>85.0</ele><time>2026-04-26T14:27:23.102Z</time></trkpt><trkpt lat="45.6210658" lon="10.567224"><ele>85.0</ele><time>2026-04-26T14:27:24.102Z</time></trkpt><trkpt lat="45.6209839" lon="10.5671066"><ele>85.0</ele><time>2026-04-26T14:27:26.102Z</time></trkpt><trkpt lat="45.6209133" lon="10.5670056"><ele>85.0</ele><time>2026-04-26T14:27:28.102Z</time></trkpt><trkpt lat="45.6208396" lon="10.5668931"><ele>83.0</ele><time>2026-04-26T14:27:30.102Z</time></trkpt><trkpt lat="45.6207453" lon="10.5667442"><ele>81.0</ele><time>2026-04-26T14:27:32.102Z</time></trkpt><trkpt lat="45.6206857" lon="10.5666598"><ele>79.0</ele><time>2026-04-26T14:27:33.102Z</time></trkpt><trkpt lat="45.6206236" lon="10.5665687"><ele>77.0</ele><time>2026-04-26T14:27:34.101Z</time></trkpt><trkpt lat="45.6205575" lon="10.5664706"><ele>75.0</ele><time>2026-04-26T14:27:35.102Z</time></trkpt><trkpt lat="45.6204932" lon="10.5663772"><ele>75.0</ele><time>2026-04-26T14:27:36.102Z</time></trkpt><trkpt lat="45.6204261" lon="10.5662987"><ele>75.0</ele><time>2026-04-26T14:27:37.102Z</time></trkpt><trkpt lat="45.620368" lon="10.5662081"><ele>75.0</ele><time>2026-04-26T14:27:38.102Z</time></trkpt><trkpt lat="45.6203091" lon="10.566113"><ele>75.0</ele><time>2026-04-26T14:27:39.102Z</time></trkpt><trkpt lat="45.6202444" lon="10.5660166"><ele>75.0</ele><time>2026-04-26T14:27:40.102Z</time></trkpt><trkpt lat="45.6201813" lon="10.5659231"><ele>75.0</ele><time>2026-04-26T14:27:41.101Z</time></trkpt><trkpt lat="45.6201227" lon="10.5658362"><ele>74.99999999999999</ele><time>2026-04-26T14:27:42.102Z</time></trkpt><trkpt lat="45.620068" lon="10.5657548"><ele>75.0</ele><time>2026-04-26T14:27:43.102Z</time></trkpt><trkpt lat="45.6200137" lon="10.5656808"><ele>75.0</ele><time>2026-04-26T14:27:44.101Z</time></trkpt><trkpt lat="45.6199656" lon="10.5656083"><ele>75.0</ele><time>2026-04-26T14:27:45.102Z</time></trkpt><trkpt lat="45.6199156" lon="10.5655349"><ele>75.0</ele><time>2026-04-26T14:27:46.102Z</time></trkpt><trkpt lat="45.6198677" lon="10.5654606"><ele>74.99999999999999</ele><time>2026-04-26T14:27:47.101Z</time></trkpt><trkpt lat="45.6198179" lon="10.5653814"><ele>75.0</ele><time>2026-04-26T14:27:48.102Z</time></trkpt><trkpt lat="45.6197671" lon="10.5653081"><ele>75.0</ele><time>2026-04-26T14:27:49.102Z</time></trkpt><trkpt lat="45.619714" lon="10.5652327"><ele>75.0</ele><time>2026-04-26T14:27:50.102Z</time></trkpt><trkpt lat="45.6196615" lon="10.565161"><ele>75.0</ele><time>2026-04-26T14:27:51.102Z</time></trkpt><trkpt lat="45.619613" lon="10.5650909"><ele>75.0</ele><time>2026-04-26T14:27:52.102Z</time></trkpt><trkpt lat="45.6195322" lon="10.5649693"><ele>75.0</ele><time>2026-04-26T14:27:54.102Z</time></trkpt><trkpt lat="45.6194702" lon="10.5648532"><ele>75.0</ele><time>2026-04-26T14:27:56.102Z</time></trkpt><trkpt lat="45.6194192" lon="10.5647307"><ele>74.5</ele><time>2026-04-26T14:27:58.102Z</time></trkpt><trkpt lat="45.6193597" lon="10.5645851"><ele>74.0</ele><time>2026-04-26T14:28:00.101Z</time></trkpt><trkpt lat="45.6193083" lon="10.5644448"><ele>73.5</ele><time>2026-04-26T14:28:02.102Z</time></trkpt><trkpt lat="45.6192696" lon="10.5643038"><ele>73.0</ele><time>2026-04-26T14:28:04.102Z</time></trkpt><trkpt lat="45.6192213" lon="10.5641343"><ele>73.0</ele><time>2026-04-26T14:28:06.102Z</time></trkpt><trkpt lat="45.6191914" lon="10.5640353"><ele>73.0</ele><time>2026-04-26T14:28:07.102Z</time></trkpt><trkpt lat="45.6191641" lon="10.5639324"><ele>73.0</ele><time>2026-04-26T14:28:08.102Z</time></trkpt><trkpt lat="45.6191351" lon="10.5638421"><ele>73.0</ele><time>2026-04-26T14:28:09.102Z</time></trkpt><trkpt lat="45.6191117" lon="10.5637549"><ele>73.0</ele><time>2026-04-26T14:28:10.102Z</time></trkpt><trkpt lat="45.6190687" lon="10.5636258"><ele>73.0</ele><time>2026-04-26T14:28:12.102Z</time></trkpt><trkpt lat="45.6190315" lon="10.5635226"><ele>73.6</ele><time>2026-04-26T14:28:14.102Z</time></trkpt><trkpt lat="45.6190027" lon="10.5634309"><ele>74.19999999999999</ele><time>2026-04-26T14:28:16.102Z</time></trkpt><trkpt lat="45.6189619" lon="10.5632942"><ele>74.8</ele><time>2026-04-26T14:28:18.102Z</time></trkpt><trkpt lat="45.6189185" lon="10.5631349"><ele>75.39999999999999</ele><time>2026-04-26T14:28:20.102Z</time></trkpt><trkpt lat="45.6188684" lon="10.562967"><ele>76.0</ele><time>2026-04-26T14:28:22.102Z</time></trkpt><trkpt lat="45.6188478" lon="10.5628782"><ele>76.8</ele><time>2026-04-26T14:28:23.102Z</time></trkpt><trkpt lat="45.6188159" lon="10.562742"><ele>77.6</ele><time>2026-04-26T14:28:25.102Z</time></trkpt><trkpt lat="45.6187904" lon="10.5626043"><ele>78.4</ele><time>2026-04-26T14:28:27.101Z</time></trkpt><trkpt lat="45.6187548" lon="10.5624269"><ele>79.2</ele><time>2026-04-26T14:28:29.102Z</time></trkpt><trkpt lat="45.6187366" lon="10.5623267"><ele>80.0</ele><time>2026-04-26T14:28:30.102Z</time></trkpt><trkpt lat="45.6187229" lon="10.5622339"><ele>80.0</ele><time>2026-04-26T14:28:31.102Z</time></trkpt><trkpt lat="45.6187004" lon="10.5621462"><ele>80.0</ele><time>2026-04-26T14:28:32.102Z</time></trkpt><trkpt lat="45.6186795" lon="10.5620529"><ele>80.0</ele><time>2026-04-26T14:28:33.101Z</time></trkpt><trkpt lat="45.6186568" lon="10.5619512"><ele>80.0</ele><time>2026-04-26T14:28:34.102Z</time></trkpt><trkpt lat="45.618631" lon="10.561844"><ele>80.0</ele><time>2026-04-26T14:28:35.102Z</time></trkpt><trkpt lat="45.6185972" lon="10.5617399"><ele>80.0</ele><time>2026-04-26T14:28:36.102Z</time></trkpt><trkpt lat="45.6185774" lon="10.5616395"><ele>80.0</ele><time>2026-04-26T14:28:37.102Z</time></trkpt><trkpt lat="45.6185558" lon="10.5615512"><ele>78.83333333333334</ele><time>2026-04-26T14:28:38.102Z</time></trkpt><trkpt lat="45.6185325" lon="10.5614583"><ele>77.66666666666667</ele><time>2026-04-26T14:28:39.102Z</time></trkpt><trkpt lat="45.6185096" lon="10.5613613"><ele>76.5</ele><time>2026-04-26T14:28:40.102Z</time></trkpt><trkpt lat="45.6184913" lon="10.5612695"><ele>75.33333333333333</ele><time>2026-04-26T14:28:41.102Z</time></trkpt><trkpt lat="45.6184664" lon="10.5611097"><ele>74.16666666666666</ele><time>2026-04-26T14:28:43.101Z</time></trkpt><trkpt lat="45.6184548" lon="10.5610082"><ele>73.0</ele><time>2026-04-26T14:28:45.102Z</time></trkpt><trkpt lat="45.6184351" lon="10.5608711"><ele>73.0</ele><time>2026-04-26T14:28:48.102Z</time></trkpt><trkpt lat="45.6184059" lon="10.5606948"><ele>73.0</ele><time>2026-04-26T14:28:50.102Z</time></trkpt><trkpt lat="45.6183884" lon="10.560594"><ele>73.0</ele><time>2026-04-26T14:28:51.102Z</time></trkpt><trkpt lat="45.6183701" lon="10.5604824"><ele>73.0</ele><time>2026-04-26T14:28:52.102Z</time></trkpt><trkpt lat="45.6183491" lon="10.5603786"><ele>73.0</ele><time>2026-04-26T14:28:53.102Z</time></trkpt><trkpt lat="45.6183282" lon="10.5602671"><ele>73.0</ele><time>2026-04-26T14:28:54.101Z</time></trkpt><trkpt lat="45.6183073" lon="10.5601509"><ele>73.2</ele><time>2026-04-26T14:28:55.102Z</time></trkpt><trkpt lat="45.6182857" lon="10.5600299"><ele>73.4</ele><time>2026-04-26T14:28:56.102Z</time></trkpt><trkpt lat="45.6182669" lon="10.559905"><ele>73.60000000000001</ele><time>2026-04-26T14:28:57.101Z</time></trkpt><trkpt lat="45.6182483" lon="10.5597747"><ele>73.8</ele><time>2026-04-26T14:28:58.102Z</time></trkpt><trkpt lat="45.6182179" lon="10.5596445"><ele>74.0</ele><time>2026-04-26T14:28:59.102Z</time></trkpt><trkpt lat="45.6181859" lon="10.5595097"><ele>74.4</ele><time>2026-04-26T14:29:00.102Z</time></trkpt><trkpt lat="45.618154" lon="10.5593677"><ele>74.80000000000001</ele><time>2026-04-26T14:29:01.102Z</time></trkpt><trkpt lat="45.6181209" lon="10.5592255"><ele>75.19999999999999</ele><time>2026-04-26T14:29:02.101Z</time></trkpt><trkpt lat="45.6180973" lon="10.5590815"><ele>75.6</ele><time>2026-04-26T14:29:03.101Z</time></trkpt><trkpt lat="45.6180725" lon="10.5589473"><ele>76.0</ele><time>2026-04-26T14:29:04.102Z</time></trkpt><trkpt lat="45.6180529" lon="10.5588265"><ele>76.0</ele><time>2026-04-26T14:29:05.102Z</time></trkpt><trkpt lat="45.6180305" lon="10.5587093"><ele>76.0</ele><time>2026-04-26T14:29:06.101Z</time></trkpt><trkpt lat="45.6180089" lon="10.5585978"><ele>76.0</ele><time>2026-04-26T14:29:07.102Z</time></trkpt><trkpt lat="45.6179839" lon="10.5584903"><ele>76.0</ele><time>2026-04-26T14:29:08.102Z</time></trkpt><trkpt lat="45.617947" lon="10.5583817"><ele>76.0</ele><time>2026-04-26T14:29:09.102Z</time></trkpt><trkpt lat="45.6179138" lon="10.5582695"><ele>76.0</ele><time>2026-04-26T14:29:10.102Z</time></trkpt><trkpt lat="45.617861" lon="10.5581591"><ele>75.8</ele><time>2026-04-26T14:29:11.102Z</time></trkpt><trkpt lat="45.6178068" lon="10.5580467"><ele>75.6</ele><time>2026-04-26T14:29:12.102Z</time></trkpt><trkpt lat="45.6177488" lon="10.5579359"><ele>75.4</ele><time>2026-04-26T14:29:13.101Z</time></trkpt><trkpt lat="45.6176884" lon="10.5578275"><ele>75.2</ele><time>2026-04-26T14:29:14.102Z</time></trkpt><trkpt lat="45.6176313" lon="10.5577334"><ele>75.0</ele><time>2026-04-26T14:29:15.102Z</time></trkpt><trkpt lat="45.6175865" lon="10.5576438"><ele>75.66666666666667</ele><time>2026-04-26T14:29:16.102Z</time></trkpt><trkpt lat="45.6175448" lon="10.5575558"><ele>76.33333333333333</ele><time>2026-04-26T14:29:17.102Z</time></trkpt><trkpt lat="45.6175032" lon="10.5574792"><ele>77.0</ele><time>2026-04-26T14:29:18.102Z</time></trkpt><trkpt lat="45.6174544" lon="10.5573865"><ele>77.66666666666666</ele><time>2026-04-26T14:29:20.101Z</time></trkpt><trkpt lat="45.6174096" lon="10.5573202"><ele>78.33333333333333</ele><time>2026-04-26T14:29:22.102Z</time></trkpt><trkpt lat="45.617364" lon="10.5572392"><ele>79.0</ele><time>2026-04-26T14:29:24.102Z</time></trkpt><trkpt lat="45.6173076" lon="10.5571407"><ele>79.0</ele><time>2026-04-26T14:29:26.102Z</time></trkpt><trkpt lat="45.6172623" lon="10.557061"><ele>79.0</ele><time>2026-04-26T14:29:28.102Z</time></trkpt><trkpt lat="45.6172167" lon="10.5569843"><ele>79.0</ele><time>2026-04-26T14:29:31.102Z</time></trkpt><trkpt lat="45.6171489" lon="10.5569262"><ele>79.0</ele><time>2026-04-26T14:29:49.102Z</time></trkpt><trkpt lat="45.6171031" lon="10.5568247"><ele>79.0</ele><time>2026-04-26T14:29:59.102Z</time></trkpt><trkpt lat="45.6170473" lon="10.5566922"><ele>79.0</ele><time>2026-04-26T14:30:01.102Z</time></trkpt><trkpt lat="45.6169879" lon="10.556514"><ele>78.66666666666666</ele><time>2026-04-26T14:30:03.102Z</time></trkpt><trkpt lat="45.6169458" lon="10.5564197"><ele>78.33333333333333</ele><time>2026-04-26T14:30:04.102Z</time></trkpt><trkpt lat="45.6168956" lon="10.5563211"><ele>78.0</ele><time>2026-04-26T14:30:05.102Z</time></trkpt><trkpt lat="45.6168466" lon="10.5562224"><ele>77.66666666666667</ele><time>2026-04-26T14:30:06.102Z</time></trkpt><trkpt lat="45.6167907" lon="10.5561294"><ele>77.33333333333334</ele><time>2026-04-26T14:30:07.102Z</time></trkpt><trkpt lat="45.6167355" lon="10.5560366"><ele>77.0</ele><time>2026-04-26T14:30:08.102Z</time></trkpt><trkpt lat="45.6166874" lon="10.5559446"><ele>77.0</ele><time>2026-04-26T14:30:09.102Z</time></trkpt><trkpt lat="45.6166475" lon="10.5558692"><ele>77.0</ele><time>2026-04-26T14:30:10.102Z</time></trkpt><trkpt lat="45.6166102" lon="10.5557927"><ele>77.0</ele><time>2026-04-26T14:30:11.102Z</time></trkpt><trkpt lat="45.6165453" lon="10.5556561"><ele>77.0</ele><time>2026-04-26T14:30:13.102Z</time></trkpt><trkpt lat="45.6164847" lon="10.5555491"><ele>77.0</ele><time>2026-04-26T14:30:15.102Z</time></trkpt><trkpt lat="45.616438" lon="10.5554529"><ele>77.0</ele><time>2026-04-26T14:30:17.101Z</time></trkpt><trkpt lat="45.6163957" lon="10.5553636"><ele>77.0</ele><time>2026-04-26T14:30:19.102Z</time></trkpt><trkpt lat="45.6163509" lon="10.5552703"><ele>77.0</ele><time>2026-04-26T14:30:22.101Z</time></trkpt><trkpt lat="45.6162974" lon="10.5551572"><ele>77.0</ele><time>2026-04-26T14:30:25.102Z</time></trkpt><trkpt lat="45.6162519" lon="10.5550578"><ele>77.0</ele><time>2026-04-26T14:30:27.102Z</time></trkpt><trkpt lat="45.6162082" lon="10.5549731"><ele>77.0</ele><time>2026-04-26T14:30:29.102Z</time></trkpt><trkpt lat="45.6161609" lon="10.5548789"><ele>77.0</ele><time>2026-04-26T14:30:31.102Z</time></trkpt><trkpt lat="45.6161022" lon="10.5547479"><ele>77.0</ele><time>2026-04-26T14:30:33.102Z</time></trkpt><trkpt lat="45.6160497" lon="10.5546437"><ele>77.0</ele><time>2026-04-26T14:30:35.101Z</time></trkpt><trkpt lat="45.616009" lon="10.5545476"><ele>77.0</ele><time>2026-04-26T14:30:37.101Z</time></trkpt><trkpt lat="45.6159589" lon="10.5544482"><ele>77.0</ele><time>2026-04-26T14:30:39.102Z</time></trkpt><trkpt lat="45.6158951" lon="10.5543149"><ele>77.0</ele><time>2026-04-26T14:30:41.101Z</time></trkpt><trkpt lat="45.6158251" lon="10.554163"><ele>77.57142857142857</ele><time>2026-04-26T14:30:43.102Z</time></trkpt><trkpt lat="45.6157866" lon="10.5540834"><ele>78.14285714285714</ele><time>2026-04-26T14:30:44.102Z</time></trkpt><trkpt lat="45.6157491" lon="10.554004"><ele>78.71428571428572</ele><time>2026-04-26T14:30:45.102Z</time></trkpt><trkpt lat="45.6157115" lon="10.5539195"><ele>79.28571428571428</ele><time>2026-04-26T14:30:46.102Z</time></trkpt><trkpt lat="45.6156765" lon="10.5538396"><ele>79.85714285714286</ele><time>2026-04-26T14:30:47.102Z</time></trkpt><trkpt lat="45.6156414" lon="10.5537607"><ele>80.42857142857143</ele><time>2026-04-26T14:30:48.102Z</time></trkpt><trkpt lat="45.6155975" lon="10.5536661"><ele>81.0</ele><time>2026-04-26T14:30:50.102Z</time></trkpt><trkpt lat="45.6155385" lon="10.553541"><ele>81.19999999999999</ele><time>2026-04-26T14:30:55.102Z</time></trkpt><trkpt lat="45.615468" lon="10.553391"><ele>81.39999999999999</ele><time>2026-04-26T14:30:57.101Z</time></trkpt><trkpt lat="45.6154289" lon="10.5532945"><ele>81.6</ele><time>2026-04-26T14:30:58.102Z</time></trkpt><trkpt lat="45.6153837" lon="10.5531841"><ele>81.8</ele><time>2026-04-26T14:30:59.102Z</time></trkpt><trkpt lat="45.6153374" lon="10.5530672"><ele>82.0</ele><time>2026-04-26T14:31:00.102Z</time></trkpt><trkpt lat="45.6152886" lon="10.5529398"><ele>80.8</ele><time>2026-04-26T14:31:01.102Z</time></trkpt><trkpt lat="45.6152332" lon="10.5528118"><ele>79.6</ele><time>2026-04-26T14:31:02.102Z</time></trkpt><trkpt lat="45.6151799" lon="10.5526763"><ele>78.39999999999999</ele><time>2026-04-26T14:31:03.102Z</time></trkpt><trkpt lat="45.6151235" lon="10.5525382"><ele>77.19999999999999</ele><time>2026-04-26T14:31:04.102Z</time></trkpt><trkpt lat="45.6150682" lon="10.5523953"><ele>76.0</ele><time>2026-04-26T14:31:05.101Z</time></trkpt><trkpt lat="45.61501" lon="10.5522543"><ele>76.0</ele><time>2026-04-26T14:31:06.102Z</time></trkpt><trkpt lat="45.614955" lon="10.5521142"><ele>76.0</ele><time>2026-04-26T14:31:07.102Z</time></trkpt><trkpt lat="45.6149012" lon="10.5519823"><ele>76.0</ele><time>2026-04-26T14:31:08.102Z</time></trkpt><trkpt lat="45.6148493" lon="10.5518536"><ele>76.0</ele><time>2026-04-26T14:31:09.102Z</time></trkpt><trkpt lat="45.6147963" lon="10.5517274"><ele>76.0</ele><time>2026-04-26T14:31:10.102Z</time></trkpt><trkpt lat="45.6147426" lon="10.5515978"><ele>76.2</ele><time>2026-04-26T14:31:11.102Z</time></trkpt><trkpt lat="45.6146877" lon="10.5514658"><ele>76.39999999999999</ele><time>2026-04-26T14:31:12.102Z</time></trkpt><trkpt lat="45.6146324" lon="10.5513308"><ele>76.6</ele><time>2026-04-26T14:31:13.102Z</time></trkpt><trkpt lat="45.6145808" lon="10.5511979"><ele>76.8</ele><time>2026-04-26T14:31:14.102Z</time></trkpt><trkpt lat="45.6145342" lon="10.5510587"><ele>77.0</ele><time>2026-04-26T14:31:15.102Z</time></trkpt><trkpt lat="45.6144859" lon="10.5509135"><ele>76.0</ele><time>2026-04-26T14:31:16.101Z</time></trkpt><trkpt lat="45.6144409" lon="10.5507599"><ele>75.0</ele><time>2026-04-26T14:31:17.101Z</time></trkpt><trkpt lat="45.6143966" lon="10.5506018"><ele>74.0</ele><time>2026-04-26T14:31:18.102Z</time></trkpt><trkpt lat="45.614356" lon="10.5504381"><ele>73.0</ele><time>2026-04-26T14:31:19.102Z</time></trkpt><trkpt lat="45.614326" lon="10.5502726"><ele>73.0</ele><time>2026-04-26T14:31:20.101Z</time></trkpt><trkpt lat="45.614295" lon="10.5501044"><ele>73.0</ele><time>2026-04-26T14:31:21.102Z</time></trkpt><trkpt lat="45.6142653" lon="10.5499344"><ele>73.0</ele><time>2026-04-26T14:31:22.102Z</time></trkpt><trkpt lat="45.6142336" lon="10.5497659"><ele>73.0</ele><time>2026-04-26T14:31:23.102Z</time></trkpt><trkpt lat="45.6142025" lon="10.549594"><ele>73.0</ele><time>2026-04-26T14:31:24.102Z</time></trkpt><trkpt lat="45.6141727" lon="10.5494264"><ele>73.0</ele><time>2026-04-26T14:31:25.102Z</time></trkpt><trkpt lat="45.6141417" lon="10.5492627"><ele>73.0</ele><time>2026-04-26T14:31:26.102Z</time></trkpt><trkpt lat="45.614106" lon="10.5490937"><ele>73.0</ele><time>2026-04-26T14:31:27.102Z</time></trkpt><trkpt lat="45.6140721" lon="10.5489138"><ele>73.0</ele><time>2026-04-26T14:31:28.101Z</time></trkpt><trkpt lat="45.6140356" lon="10.5487218"><ele>73.0</ele><time>2026-04-26T14:31:29.102Z</time></trkpt><trkpt lat="45.6139963" lon="10.5485232"><ele>73.0</ele><time>2026-04-26T14:31:30.102Z</time></trkpt><trkpt lat="45.6139624" lon="10.5483229"><ele>73.0</ele><time>2026-04-26T14:31:31.102Z</time></trkpt><trkpt lat="45.6139319" lon="10.5481367"><ele>73.33333333333333</ele><time>2026-04-26T14:31:32.102Z</time></trkpt><trkpt lat="45.6139067" lon="10.5479782"><ele>73.66666666666666</ele><time>2026-04-26T14:31:33.102Z</time></trkpt><trkpt lat="45.6138845" lon="10.5478512"><ele>74.0</ele><time>2026-04-26T14:31:34.102Z</time></trkpt><trkpt lat="45.6138653" lon="10.5477474"><ele>74.33333333333333</ele><time>2026-04-26T14:31:35.101Z</time></trkpt><trkpt lat="45.6138455" lon="10.5476532"><ele>74.66666666666667</ele><time>2026-04-26T14:31:36.102Z</time></trkpt><trkpt lat="45.6138266" lon="10.5475526"><ele>75.0</ele><time>2026-04-26T14:31:37.102Z</time></trkpt><trkpt lat="45.6138054" lon="10.5474361"><ele>76.0</ele><time>2026-04-26T14:31:38.102Z</time></trkpt><trkpt lat="45.6137779" lon="10.5472936"><ele>77.0</ele><time>2026-04-26T14:31:39.102Z</time></trkpt><trkpt lat="45.6137423" lon="10.5471236"><ele>78.0</ele><time>2026-04-26T14:31:40.102Z</time></trkpt><trkpt lat="45.6137009" lon="10.5469379"><ele>79.0</ele><time>2026-04-26T14:31:41.101Z</time></trkpt><trkpt lat="45.613664" lon="10.5467457"><ele>78.25</ele><time>2026-04-26T14:31:42.102Z</time></trkpt><trkpt lat="45.6136261" lon="10.546557"><ele>77.5</ele><time>2026-04-26T14:31:43.102Z</time></trkpt><trkpt lat="45.6135898" lon="10.5463586"><ele>76.75</ele><time>2026-04-26T14:31:44.102Z</time></trkpt><trkpt lat="45.6135473" lon="10.5461534"><ele>76.0</ele><time>2026-04-26T14:31:45.101Z</time></trkpt><trkpt lat="45.6135034" lon="10.5459449"><ele>76.0</ele><time>2026-04-26T14:31:46.102Z</time></trkpt><trkpt lat="45.6134554" lon="10.5457268"><ele>76.0</ele><time>2026-04-26T14:31:47.102Z</time></trkpt><trkpt lat="45.6134068" lon="10.5455133"><ele>76.0</ele><time>2026-04-26T14:31:48.102Z</time></trkpt><trkpt lat="45.6133594" lon="10.5453119"><ele>78.25</ele><time>2026-04-26T14:31:49.102Z</time></trkpt><trkpt lat="45.6132968" lon="10.5451192"><ele>80.5</ele><time>2026-04-26T14:31:50.102Z</time></trkpt><trkpt lat="45.6132337" lon="10.5449306"><ele>82.75</ele><time>2026-04-26T14:31:51.102Z</time></trkpt><trkpt lat="45.6131601" lon="10.5447444"><ele>85.0</ele><time>2026-04-26T14:31:52.102Z</time></trkpt><trkpt lat="45.6130993" lon="10.5445753"><ele>88.0</ele><time>2026-04-26T14:31:53.102Z</time></trkpt><trkpt lat="45.6130456" lon="10.5444272"><ele>91.0</ele><time>2026-04-26T14:31:54.102Z</time></trkpt><trkpt lat="45.6129939" lon="10.5442911"><ele>94.0</ele><time>2026-04-26T14:31:55.101Z</time></trkpt><trkpt lat="45.6129476" lon="10.5441616"><ele>97.0</ele><time>2026-04-26T14:31:56.102Z</time></trkpt><trkpt lat="45.6129022" lon="10.5440253"><ele>100.0</ele><time>2026-04-26T14:31:57.102Z</time></trkpt><trkpt lat="45.6128565" lon="10.543877"><ele>93.5</ele><time>2026-04-26T14:31:58.102Z</time></trkpt><trkpt lat="45.6128147" lon="10.5437214"><ele>87.0</ele><time>2026-04-26T14:31:59.102Z</time></trkpt><trkpt lat="45.6127781" lon="10.5435597"><ele>80.5</ele><time>2026-04-26T14:32:00.102Z</time></trkpt><trkpt lat="45.6127422" lon="10.5433917"><ele>74.0</ele><time>2026-04-26T14:32:01.102Z</time></trkpt><trkpt lat="45.6127147" lon="10.543219"><ele>74.0</ele><time>2026-04-26T14:32:02.101Z</time></trkpt><trkpt lat="45.6126859" lon="10.5430394"><ele>74.0</ele><time>2026-04-26T14:32:03.102Z</time></trkpt><trkpt lat="45.612651" lon="10.5428539"><ele>74.0</ele><time>2026-04-26T14:32:04.102Z</time></trkpt><trkpt lat="45.6126071" lon="10.5426717"><ele>74.0</ele><time>2026-04-26T14:32:05.102Z</time></trkpt><trkpt lat="45.6125625" lon="10.5424916"><ele>75.25</ele><time>2026-04-26T14:32:06.102Z</time></trkpt><trkpt lat="45.6125126" lon="10.5423165"><ele>76.5</ele><time>2026-04-26T14:32:07.101Z</time></trkpt><trkpt lat="45.6124565" lon="10.5421475"><ele>77.75</ele><time>2026-04-26T14:32:08.102Z</time></trkpt><trkpt lat="45.6123994" lon="10.5419782"><ele>79.0</ele><time>2026-04-26T14:32:09.102Z</time></trkpt><trkpt lat="45.6123393" lon="10.5418033"><ele>81.0</ele><time>2026-04-26T14:32:10.102Z</time></trkpt><trkpt lat="45.6122735" lon="10.541616"><ele>83.0</ele><time>2026-04-26T14:32:11.101Z</time></trkpt><trkpt lat="45.6121993" lon="10.5414091"><ele>85.0</ele><time>2026-04-26T14:32:12.102Z</time></trkpt><trkpt lat="45.6121186" lon="10.5411884"><ele>82.33333333333333</ele><time>2026-04-26T14:32:13.102Z</time></trkpt><trkpt lat="45.6120289" lon="10.5409544"><ele>79.66666666666667</ele><time>2026-04-26T14:32:14.101Z</time></trkpt><trkpt lat="45.6119338" lon="10.5406951"><ele>77.0</ele><time>2026-04-26T14:32:15.101Z</time></trkpt><trkpt lat="45.6118369" lon="10.5404181"><ele>81.5</ele><time>2026-04-26T14:32:16.102Z</time></trkpt><trkpt lat="45.6117276" lon="10.5401313"><ele>86.0</ele><time>2026-04-26T14:32:17.101Z</time></trkpt><trkpt lat="45.6116194" lon="10.5398449"><ele>86.0</ele><time>2026-04-26T14:32:18.102Z</time></trkpt><trkpt lat="45.6115165" lon="10.5395703"><ele>86.0</ele><time>2026-04-26T14:32:19.102Z</time></trkpt><trkpt lat="45.6114176" lon="10.5393148"><ele>86.0</ele><time>2026-04-26T14:32:20.102Z</time></trkpt><trkpt lat="45.6113306" lon="10.53908"><ele>85.33333333333334</ele><time>2026-04-26T14:32:21.102Z</time></trkpt><trkpt lat="45.6112474" lon="10.5388552"><ele>84.66666666666667</ele><time>2026-04-26T14:32:22.102Z</time></trkpt><trkpt lat="45.6111647" lon="10.5386401"><ele>84.0</ele><time>2026-04-26T14:32:23.102Z</time></trkpt><trkpt lat="45.6110911" lon="10.5384378"><ele>84.0</ele><time>2026-04-26T14:32:24.101Z</time></trkpt><trkpt lat="45.6110212" lon="10.5382387"><ele>84.0</ele><time>2026-04-26T14:32:25.102Z</time></trkpt><trkpt lat="45.6109589" lon="10.538058"><ele>84.0</ele><time>2026-04-26T14:32:26.101Z</time></trkpt><trkpt lat="45.6109046" lon="10.5378703"><ele>84.0</ele><time>2026-04-26T14:32:27.102Z</time></trkpt><trkpt lat="45.6108582" lon="10.5376731"><ele>86.25</ele><time>2026-04-26T14:32:28.102Z</time></trkpt><trkpt lat="45.6108173" lon="10.5374793"><ele>88.5</ele><time>2026-04-26T14:32:29.102Z</time></trkpt><trkpt lat="45.6107883" lon="10.5372895"><ele>90.75</ele><time>2026-04-26T14:32:30.102Z</time></trkpt><trkpt lat="45.6107835" lon="10.5371165"><ele>93.0</ele><time>2026-04-26T14:32:31.102Z</time></trkpt><trkpt lat="45.6108016" lon="10.5369593"><ele>94.80000000000001</ele><time>2026-04-26T14:32:32.102Z</time></trkpt><trkpt lat="45.6108163" lon="10.5368164"><ele>96.6</ele><time>2026-04-26T14:32:33.102Z</time></trkpt><trkpt lat="45.610816" lon="10.5366703"><ele>98.4</ele><time>2026-04-26T14:32:34.102Z</time></trkpt><trkpt lat="45.6107925" lon="10.5365252"><ele>100.19999999999999</ele><time>2026-04-26T14:32:35.102Z</time></trkpt><trkpt lat="45.6107502" lon="10.5363852"><ele>102.0</ele><time>2026-04-26T14:32:36.102Z</time></trkpt><trkpt lat="45.6106928" lon="10.5362609"><ele>105.0</ele><time>2026-04-26T14:32:37.101Z</time></trkpt><trkpt lat="45.6106358" lon="10.5361509"><ele>108.0</ele><time>2026-04-26T14:32:38.101Z</time></trkpt><trkpt lat="45.6105821" lon="10.5360386"><ele>110.99999999999999</ele><time>2026-04-26T14:32:39.102Z</time></trkpt><trkpt lat="45.6105245" lon="10.5359276"><ele>114.0</ele><time>2026-04-26T14:32:40.102Z</time></trkpt><trkpt lat="45.6104682" lon="10.5358121"><ele>117.0</ele><time>2026-04-26T14:32:41.102Z</time></trkpt><trkpt lat="45.6104136" lon="10.5356867"><ele>117.0</ele><time>2026-04-26T14:32:42.102Z</time></trkpt><trkpt lat="45.6103541" lon="10.5355494"><ele>117.0</ele><time>2026-04-26T14:32:43.102Z</time></trkpt><trkpt lat="45.6102989" lon="10.5353987"><ele>117.0</ele><time>2026-04-26T14:32:44.101Z</time></trkpt><trkpt lat="45.6102447" lon="10.5352431"><ele>117.0</ele><time>2026-04-26T14:32:45.102Z</time></trkpt><trkpt lat="45.6101951" lon="10.535087"><ele>112.25</ele><time>2026-04-26T14:32:46.102Z</time></trkpt><trkpt lat="45.6101444" lon="10.5349341"><ele>107.5</ele><time>2026-04-26T14:32:47.102Z</time></trkpt><trkpt lat="45.6100812" lon="10.5348003"><ele>102.75</ele><time>2026-04-26T14:32:48.102Z</time></trkpt><trkpt lat="45.6100078" lon="10.5346777"><ele>98.0</ele><time>2026-04-26T14:32:49.102Z</time></trkpt><trkpt lat="45.6099294" lon="10.5345648"><ele>101.60000000000001</ele><time>2026-04-26T14:32:50.102Z</time></trkpt><trkpt lat="45.6098497" lon="10.5344487"><ele>105.2</ele><time>2026-04-26T14:32:51.102Z</time></trkpt><trkpt lat="45.609773" lon="10.5343311"><ele>108.8</ele><time>2026-04-26T14:32:52.102Z</time></trkpt><trkpt lat="45.6097057" lon="10.5342124"><ele>112.4</ele><time>2026-04-26T14:32:53.102Z</time></trkpt><trkpt lat="45.6096501" lon="10.5340794"><ele>116.0</ele><time>2026-04-26T14:32:54.102Z</time></trkpt><trkpt lat="45.6096001" lon="10.5339187"><ele>116.0</ele><time>2026-04-26T14:32:55.102Z</time></trkpt><trkpt lat="45.6095594" lon="10.5337362"><ele>116.0</ele><time>2026-04-26T14:32:56.101Z</time></trkpt><trkpt lat="45.6095361" lon="10.5335379"><ele>116.0</ele><time>2026-04-26T14:32:57.101Z</time></trkpt><trkpt lat="45.6095208" lon="10.5333514"><ele>116.0</ele><time>2026-04-26T14:32:58.102Z</time></trkpt><trkpt lat="45.6095175" lon="10.5331665"><ele>117.5</ele><time>2026-04-26T14:32:59.102Z</time></trkpt><trkpt lat="45.6095247" lon="10.5329996"><ele>119.0</ele><time>2026-04-26T14:33:00.102Z</time></trkpt><trkpt lat="45.6095475" lon="10.5328502"><ele>120.5</ele><time>2026-04-26T14:33:01.101Z</time></trkpt><trkpt lat="45.6095892" lon="10.5327019"><ele>122.0</ele><time>2026-04-26T14:33:02.101Z</time></trkpt><trkpt lat="45.6096428" lon="10.5325562"><ele>122.0</ele><time>2026-04-26T14:33:03.102Z</time></trkpt><trkpt lat="45.6097018" lon="10.5324129"><ele>121.99999999999999</ele><time>2026-04-26T14:33:04.102Z</time></trkpt><trkpt lat="45.6097554" lon="10.5322768"><ele>121.99999999999999</ele><time>2026-04-26T14:33:05.102Z</time></trkpt><trkpt lat="45.6098002" lon="10.5321474"><ele>122.0</ele><time>2026-04-26T14:33:06.102Z</time></trkpt><trkpt lat="45.6098353" lon="10.5320227"><ele>122.0</ele><time>2026-04-26T14:33:07.102Z</time></trkpt><trkpt lat="45.6098476" lon="10.5318845"><ele>121.25</ele><time>2026-04-26T14:33:08.102Z</time></trkpt><trkpt lat="45.6098383" lon="10.5317366"><ele>120.5</ele><time>2026-04-26T14:33:09.102Z</time></trkpt><trkpt lat="45.609802" lon="10.5315779"><ele>119.75</ele><time>2026-04-26T14:33:10.102Z</time></trkpt><trkpt lat="45.6097355" lon="10.5314124"><ele>119.0</ele><time>2026-04-26T14:33:11.102Z</time></trkpt><trkpt lat="45.6096372" lon="10.5312317"><ele>123.0</ele><time>2026-04-26T14:33:12.102Z</time></trkpt><trkpt lat="45.6095319" lon="10.5310135"><ele>127.0</ele><time>2026-04-26T14:33:13.102Z</time></trkpt><trkpt lat="45.6094362" lon="10.5307863"><ele>131.0</ele><time>2026-04-26T14:33:14.102Z</time></trkpt><trkpt lat="45.6093548" lon="10.5305807"><ele>125.66666666666666</ele><time>2026-04-26T14:33:15.102Z</time></trkpt><trkpt lat="45.6092753" lon="10.5303919"><ele>120.33333333333334</ele><time>2026-04-26T14:33:16.102Z</time></trkpt><trkpt lat="45.6092011" lon="10.5302047"><ele>115.0</ele><time>2026-04-26T14:33:17.102Z</time></trkpt><trkpt lat="45.6091269" lon="10.5300195"><ele>115.0</ele><time>2026-04-26T14:33:18.102Z</time></trkpt><trkpt lat="45.6090545" lon="10.5298229"><ele>115.0</ele><time>2026-04-26T14:33:19.102Z</time></trkpt><trkpt lat="45.6090044" lon="10.5296333"><ele>115.0</ele><time>2026-04-26T14:33:20.102Z</time></trkpt><trkpt lat="45.6089486" lon="10.5294411"><ele>115.0</ele><time>2026-04-26T14:33:21.102Z</time></trkpt><trkpt lat="45.6089005" lon="10.5292344"><ele>118.66666666666667</ele><time>2026-04-26T14:33:22.102Z</time></trkpt><trkpt lat="45.6088632" lon="10.5290181"><ele>122.33333333333334</ele><time>2026-04-26T14:33:23.102Z</time></trkpt><trkpt lat="45.6088329" lon="10.5287932"><ele>126.0</ele><time>2026-04-26T14:33:24.102Z</time></trkpt><trkpt lat="45.6088057" lon="10.5285221"><ele>127.66666666666666</ele><time>2026-04-26T14:33:25.102Z</time></trkpt><trkpt lat="45.6087719" lon="10.5282163"><ele>129.33333333333331</ele><time>2026-04-26T14:33:26.101Z</time></trkpt><trkpt lat="45.6087466" lon="10.5278942"><ele>131.0</ele><time>2026-04-26T14:33:27.102Z</time></trkpt><trkpt lat="45.6087194" lon="10.527583"><ele>131.66666666666666</ele><time>2026-04-26T14:33:28.102Z</time></trkpt><trkpt lat="45.6086923" lon="10.5272835"><ele>132.33333333333334</ele><time>2026-04-26T14:33:29.102Z</time></trkpt><trkpt lat="45.6086684" lon="10.5270023"><ele>133.0</ele><time>2026-04-26T14:33:30.102Z</time></trkpt><trkpt lat="45.6086535" lon="10.5267327"><ele>123.0</ele><time>2026-04-26T14:33:31.102Z</time></trkpt><trkpt lat="45.6086415" lon="10.5264698"><ele>113.0</ele><time>2026-04-26T14:33:32.102Z</time></trkpt><trkpt lat="45.6086398" lon="10.5262089"><ele>103.0</ele><time>2026-04-26T14:33:33.101Z</time></trkpt><trkpt lat="45.6086416" lon="10.5259474"><ele>102.33333333333334</ele><time>2026-04-26T14:33:34.102Z</time></trkpt><trkpt lat="45.6086481" lon="10.5256971"><ele>101.66666666666666</ele><time>2026-04-26T14:33:35.102Z</time></trkpt><trkpt lat="45.6086608" lon="10.5254504"><ele>101.0</ele><time>2026-04-26T14:33:36.102Z</time></trkpt><trkpt lat="45.6086722" lon="10.5252077"><ele>111.66666666666666</ele><time>2026-04-26T14:33:37.102Z</time></trkpt><trkpt lat="45.6086887" lon="10.5249566"><ele>122.33333333333334</ele><time>2026-04-26T14:33:38.102Z</time></trkpt><trkpt lat="45.6087037" lon="10.5246984"><ele>133.0</ele><time>2026-04-26T14:33:39.102Z</time></trkpt><trkpt lat="45.6087183" lon="10.5244308"><ele>133.0</ele><time>2026-04-26T14:33:40.102Z</time></trkpt><trkpt lat="45.6087373" lon="10.5241667"><ele>133.0</ele><time>2026-04-26T14:33:41.102Z</time></trkpt><trkpt lat="45.6087505" lon="10.5239133"><ele>133.0</ele><time>2026-04-26T14:33:42.102Z</time></trkpt><trkpt lat="45.6087543" lon="10.5236686"><ele>132.0</ele><time>2026-04-26T14:33:43.102Z</time></trkpt><trkpt lat="45.6087444" lon="10.5234366"><ele>131.0</ele><time>2026-04-26T14:33:44.102Z</time></trkpt><trkpt lat="45.6087168" lon="10.5232194"><ele>130.0</ele><time>2026-04-26T14:33:45.101Z</time></trkpt><trkpt lat="45.608674" lon="10.5230206"><ele>123.25</ele><time>2026-04-26T14:33:46.102Z</time></trkpt><trkpt lat="45.6086301" lon="10.5228237"><ele>116.5</ele><time>2026-04-26T14:33:47.102Z</time></trkpt><trkpt lat="45.6085835" lon="10.5226328"><ele>109.75</ele><time>2026-04-26T14:33:48.102Z</time></trkpt><trkpt lat="45.6085489" lon="10.5224367"><ele>103.0</ele><time>2026-04-26T14:33:49.102Z</time></trkpt><trkpt lat="45.6085407" lon="10.5222378"><ele>101.5</ele><time>2026-04-26T14:33:50.102Z</time></trkpt><trkpt lat="45.6085657" lon="10.522046"><ele>100.0</ele><time>2026-04-26T14:33:51.102Z</time></trkpt><trkpt lat="45.6086159" lon="10.5218502"><ele>98.5</ele><time>2026-04-26T14:33:52.102Z</time></trkpt><trkpt lat="45.6086946" lon="10.5216693"><ele>97.0</ele><time>2026-04-26T14:33:53.101Z</time></trkpt><trkpt lat="45.6087955" lon="10.5214974"><ele>100.0</ele><time>2026-04-26T14:33:54.102Z</time></trkpt><trkpt lat="45.6089058" lon="10.5213269"><ele>103.0</ele><time>2026-04-26T14:33:55.102Z</time></trkpt><trkpt lat="45.6090299" lon="10.5211438"><ele>106.0</ele><time>2026-04-26T14:33:56.102Z</time></trkpt><trkpt lat="45.6091509" lon="10.5209574"><ele>106.0</ele><time>2026-04-26T14:33:57.102Z</time></trkpt><trkpt lat="45.6092759" lon="10.520779"><ele>106.0</ele><time>2026-04-26T14:33:58.102Z</time></trkpt><trkpt lat="45.6093934" lon="10.5206132"><ele>106.0</ele><time>2026-04-26T14:33:59.102Z</time></trkpt><trkpt lat="45.6095006" lon="10.5204452"><ele>107.66666666666667</ele><time>2026-04-26T14:34:00.102Z</time></trkpt><trkpt lat="45.609603" lon="10.5202786"><ele>109.33333333333334</ele><time>2026-04-26T14:34:01.102Z</time></trkpt><trkpt lat="45.6096998" lon="10.5201144"><ele>111.0</ele><time>2026-04-26T14:34:02.102Z</time></trkpt><trkpt lat="45.6097881" lon="10.5199461"><ele>111.0</ele><time>2026-04-26T14:34:03.101Z</time></trkpt><trkpt lat="45.6098711" lon="10.519781"><ele>111.0</ele><time>2026-04-26T14:34:04.102Z</time></trkpt><trkpt lat="45.609946" lon="10.5196192"><ele>111.0</ele><time>2026-04-26T14:34:05.102Z</time></trkpt><trkpt lat="45.6100155" lon="10.5194636"><ele>111.0</ele><time>2026-04-26T14:34:06.102Z</time></trkpt><trkpt lat="45.610078" lon="10.5193072"><ele>110.25</ele><time>2026-04-26T14:34:07.102Z</time></trkpt><trkpt lat="45.6101339" lon="10.5191444"><ele>109.5</ele><time>2026-04-26T14:34:08.102Z</time></trkpt><trkpt lat="45.6101862" lon="10.5189838"><ele>108.75</ele><time>2026-04-26T14:34:09.102Z</time></trkpt><trkpt lat="45.6102325" lon="10.5188216"><ele>108.0</ele><time>2026-04-26T14:34:10.101Z</time></trkpt><trkpt lat="45.6102755" lon="10.5186515"><ele>107.25</ele><time>2026-04-26T14:34:11.102Z</time></trkpt><trkpt lat="45.6103166" lon="10.5184826"><ele>106.5</ele><time>2026-04-26T14:34:12.102Z</time></trkpt><trkpt lat="45.6103564" lon="10.5183117"><ele>105.75</ele><time>2026-04-26T14:34:13.101Z</time></trkpt><trkpt lat="45.6103927" lon="10.5181395"><ele>105.0</ele><time>2026-04-26T14:34:14.102Z</time></trkpt><trkpt lat="45.610432" lon="10.5179683"><ele>108.75</ele><time>2026-04-26T14:34:15.102Z</time></trkpt><trkpt lat="45.6104685" lon="10.5177957"><ele>112.5</ele><time>2026-04-26T14:34:16.102Z</time></trkpt><trkpt lat="45.6105081" lon="10.5176185"><ele>116.25</ele><time>2026-04-26T14:34:17.102Z</time></trkpt><trkpt lat="45.6105505" lon="10.517439"><ele>120.0</ele><time>2026-04-26T14:34:18.102Z</time></trkpt><trkpt lat="45.6105899" lon="10.5172578"><ele>120.0</ele><time>2026-04-26T14:34:19.102Z</time></trkpt><trkpt lat="45.6106261" lon="10.5170784"><ele>120.0</ele><time>2026-04-26T14:34:20.101Z</time></trkpt><trkpt lat="45.6106677" lon="10.5168997"><ele>120.0</ele><time>2026-04-26T14:34:21.102Z</time></trkpt><trkpt lat="45.6107109" lon="10.5167186"><ele>120.0</ele><time>2026-04-26T14:34:22.102Z</time></trkpt><trkpt lat="45.6107524" lon="10.5165263"><ele>118.66666666666666</ele><time>2026-04-26T14:34:23.101Z</time></trkpt><trkpt lat="45.6107912" lon="10.5163167"><ele>117.33333333333333</ele><time>2026-04-26T14:34:24.102Z</time></trkpt><trkpt lat="45.6108337" lon="10.5160957"><ele>116.0</ele><time>2026-04-26T14:34:25.102Z</time></trkpt><trkpt lat="45.6108766" lon="10.5158861"><ele>115.0</ele><time>2026-04-26T14:34:26.102Z</time></trkpt><trkpt lat="45.6109187" lon="10.5156867"><ele>114.0</ele><time>2026-04-26T14:34:27.102Z</time></trkpt><trkpt lat="45.6109666" lon="10.5154953"><ele>113.0</ele><time>2026-04-26T14:34:28.102Z</time></trkpt><trkpt lat="45.6110094" lon="10.5153146"><ele>112.0</ele><time>2026-04-26T14:34:29.102Z</time></trkpt><trkpt lat="45.6110429" lon="10.5151422"><ele>111.50000000000001</ele><time>2026-04-26T14:34:30.101Z</time></trkpt><trkpt lat="45.6110746" lon="10.5150137"><ele>111.0</ele><time>2026-04-26T14:34:31.102Z</time></trkpt><trkpt lat="45.611097" lon="10.5148967"><ele>110.5</ele><time>2026-04-26T14:34:32.102Z</time></trkpt><trkpt lat="45.611115" lon="10.5147958"><ele>110.0</ele><time>2026-04-26T14:34:33.102Z</time></trkpt><trkpt lat="45.6111346" lon="10.5146843"><ele>109.50000000000001</ele><time>2026-04-26T14:34:34.102Z</time></trkpt><trkpt lat="45.6111567" lon="10.5145756"><ele>109.0</ele><time>2026-04-26T14:34:35.101Z</time></trkpt><trkpt lat="45.6111786" lon="10.514472"><ele>110.42857142857143</ele><time>2026-04-26T14:34:36.102Z</time></trkpt><trkpt lat="45.6111964" lon="10.5143798"><ele>111.85714285714286</ele><time>2026-04-26T14:34:37.101Z</time></trkpt><trkpt lat="45.6112184" lon="10.5142888"><ele>113.28571428571428</ele><time>2026-04-26T14:34:38.102Z</time></trkpt><trkpt lat="45.61124" lon="10.5141949"><ele>114.71428571428572</ele><time>2026-04-26T14:34:39.101Z</time></trkpt><trkpt lat="45.611264" lon="10.5140939"><ele>116.14285714285714</ele><time>2026-04-26T14:34:40.102Z</time></trkpt><trkpt lat="45.6112907" lon="10.5139885"><ele>117.57142857142857</ele><time>2026-04-26T14:34:41.102Z</time></trkpt><trkpt lat="45.6113138" lon="10.5138784"><ele>119.0</ele><time>2026-04-26T14:34:42.102Z</time></trkpt><trkpt lat="45.6113386" lon="10.5137703"><ele>118.49999999999999</ele><time>2026-04-26T14:34:43.102Z</time></trkpt><trkpt lat="45.6113629" lon="10.5136575"><ele>118.0</ele><time>2026-04-26T14:34:44.101Z</time></trkpt><trkpt lat="45.6113875" lon="10.5135395"><ele>117.5</ele><time>2026-04-26T14:34:45.102Z</time></trkpt><trkpt lat="45.6114117" lon="10.513415"><ele>117.0</ele><time>2026-04-26T14:34:46.102Z</time></trkpt><trkpt lat="45.6114379" lon="10.5132876"><ele>116.49999999999999</ele><time>2026-04-26T14:34:47.102Z</time></trkpt><trkpt lat="45.6114649" lon="10.5131641"><ele>116.0</ele><time>2026-04-26T14:34:48.102Z</time></trkpt><trkpt lat="45.6114904" lon="10.5130569"><ele>115.99999999999999</ele><time>2026-04-26T14:34:49.102Z</time></trkpt><trkpt lat="45.6115053" lon="10.5129672"><ele>116.0</ele><time>2026-04-26T14:34:50.102Z</time></trkpt><trkpt lat="45.6115452" lon="10.5128035"><ele>116.0</ele><time>2026-04-26T14:34:52.102Z</time></trkpt><trkpt lat="45.6115649" lon="10.5127155"><ele>116.0</ele><time>2026-04-26T14:34:53.102Z</time></trkpt><trkpt lat="45.6115855" lon="10.5126177"><ele>115.99999999999999</ele><time>2026-04-26T14:34:54.102Z</time></trkpt><trkpt lat="45.6116082" lon="10.5125135"><ele>116.0</ele><time>2026-04-26T14:34:55.102Z</time></trkpt><trkpt lat="45.611635" lon="10.5124122"><ele>115.83333333333333</ele><time>2026-04-26T14:34:56.102Z</time></trkpt><trkpt lat="45.6116556" lon="10.5123157"><ele>115.66666666666666</ele><time>2026-04-26T14:34:57.102Z</time></trkpt><trkpt lat="45.6116759" lon="10.5122222"><ele>115.5</ele><time>2026-04-26T14:34:58.102Z</time></trkpt><trkpt lat="45.6116975" lon="10.5121266"><ele>115.33333333333334</ele><time>2026-04-26T14:34:59.102Z</time></trkpt><trkpt lat="45.6117184" lon="10.5120187"><ele>115.16666666666667</ele><time>2026-04-26T14:35:00.102Z</time></trkpt><trkpt lat="45.6117469" lon="10.511895"><ele>115.0</ele><time>2026-04-26T14:35:01.102Z</time></trkpt><trkpt lat="45.6117791" lon="10.5117734"><ele>114.50000000000001</ele><time>2026-04-26T14:35:02.102Z</time></trkpt><trkpt lat="45.6118037" lon="10.5116474"><ele>114.0</ele><time>2026-04-26T14:35:03.102Z</time></trkpt><trkpt lat="45.6118278" lon="10.5115249"><ele>113.5</ele><time>2026-04-26T14:35:04.102Z</time></trkpt><trkpt lat="45.611846" lon="10.5114154"><ele>113.0</ele><time>2026-04-26T14:35:05.102Z</time></trkpt><trkpt lat="45.6118597" lon="10.5113107"><ele>112.50000000000001</ele><time>2026-04-26T14:35:06.102Z</time></trkpt><trkpt lat="45.6118689" lon="10.5112179"><ele>112.0</ele><time>2026-04-26T14:35:07.102Z</time></trkpt><trkpt lat="45.6118778" lon="10.5111193"><ele>111.50000000000001</ele><time>2026-04-26T14:35:08.102Z</time></trkpt><trkpt lat="45.6118866" lon="10.5110093"><ele>111.0</ele><time>2026-04-26T14:35:09.101Z</time></trkpt><trkpt lat="45.6118946" lon="10.5108964"><ele>110.5</ele><time>2026-04-26T14:35:10.102Z</time></trkpt><trkpt lat="45.6119037" lon="10.5108016"><ele>110.0</ele><time>2026-04-26T14:35:11.102Z</time></trkpt><trkpt lat="45.6119322" lon="10.5106496"><ele>109.50000000000001</ele><time>2026-04-26T14:35:13.102Z</time></trkpt><trkpt lat="45.6119744" lon="10.5105252"><ele>109.0</ele><time>2026-04-26T14:35:15.102Z</time></trkpt><trkpt lat="45.6120219" lon="10.5103576"><ele>109.6</ele><time>2026-04-26T14:35:17.102Z</time></trkpt><trkpt lat="45.612035" lon="10.510255"><ele>110.2</ele><time>2026-04-26T14:35:18.102Z</time></trkpt><trkpt lat="45.6120146" lon="10.5101401"><ele>110.79999999999998</ele><time>2026-04-26T14:35:19.102Z</time></trkpt><trkpt lat="45.6119593" lon="10.5100254"><ele>111.39999999999999</ele><time>2026-04-26T14:35:20.101Z</time></trkpt><trkpt lat="45.6118943" lon="10.5098982"><ele>112.0</ele><time>2026-04-26T14:35:21.102Z</time></trkpt><trkpt lat="45.6118332" lon="10.5097519"><ele>112.0</ele><time>2026-04-26T14:35:22.102Z</time></trkpt><trkpt lat="45.6117774" lon="10.5095941"><ele>112.0</ele><time>2026-04-26T14:35:23.101Z</time></trkpt><trkpt lat="45.611722" lon="10.5094299"><ele>112.0</ele><time>2026-04-26T14:35:24.102Z</time></trkpt><trkpt lat="45.6116652" lon="10.509271"><ele>112.0</ele><time>2026-04-26T14:35:25.102Z</time></trkpt><trkpt lat="45.6116117" lon="10.509124"><ele>113.0</ele><time>2026-04-26T14:35:26.102Z</time></trkpt><trkpt lat="45.6115557" lon="10.5089835"><ele>113.99999999999999</ele><time>2026-04-26T14:35:27.102Z</time></trkpt><trkpt lat="45.611497" lon="10.5088413"><ele>114.99999999999999</ele><time>2026-04-26T14:35:28.102Z</time></trkpt><trkpt lat="45.6114431" lon="10.508707"><ele>116.0</ele><time>2026-04-26T14:35:29.102Z</time></trkpt><trkpt lat="45.6113933" lon="10.5085859"><ele>117.0</ele><time>2026-04-26T14:35:30.102Z</time></trkpt><trkpt lat="45.6113521" lon="10.5084867"><ele>116.19999999999999</ele><time>2026-04-26T14:35:31.102Z</time></trkpt><trkpt lat="45.6113173" lon="10.5084023"><ele>115.39999999999999</ele><time>2026-04-26T14:35:32.102Z</time></trkpt><trkpt lat="45.6112423" lon="10.5082425"><ele>114.60000000000001</ele><time>2026-04-26T14:35:34.102Z</time></trkpt><trkpt lat="45.6111914" lon="10.5081302"><ele>113.80000000000001</ele><time>2026-04-26T14:35:35.102Z</time></trkpt><trkpt lat="45.6111364" lon="10.508006"><ele>113.0</ele><time>2026-04-26T14:35:36.101Z</time></trkpt><trkpt lat="45.6110848" lon="10.5078702"><ele>113.0</ele><time>2026-04-26T14:35:37.101Z</time></trkpt><trkpt lat="45.611029" lon="10.5077298"><ele>113.00000000000001</ele><time>2026-04-26T14:35:38.101Z</time></trkpt><trkpt lat="45.6109759" lon="10.5075965"><ele>113.00000000000001</ele><time>2026-04-26T14:35:39.102Z</time></trkpt><trkpt lat="45.6109261" lon="10.5074641"><ele>113.0</ele><time>2026-04-26T14:35:40.102Z</time></trkpt><trkpt lat="45.6108719" lon="10.5073312"><ele>113.0</ele><time>2026-04-26T14:35:41.102Z</time></trkpt><trkpt lat="45.6108129" lon="10.5071924"><ele>116.5</ele><time>2026-04-26T14:35:42.102Z</time></trkpt><trkpt lat="45.6107514" lon="10.5070426"><ele>120.0</ele><time>2026-04-26T14:35:43.102Z</time></trkpt><trkpt lat="45.6106919" lon="10.506897"><ele>123.5</ele><time>2026-04-26T14:35:44.102Z</time></trkpt><trkpt lat="45.6106438" lon="10.506759"><ele>127.0</ele><time>2026-04-26T14:35:45.102Z</time></trkpt><trkpt lat="45.6105981" lon="10.5066188"><ele>127.0</ele><time>2026-04-26T14:35:46.102Z</time></trkpt><trkpt lat="45.6105533" lon="10.5064835"><ele>126.99999999999999</ele><time>2026-04-26T14:35:47.101Z</time></trkpt><trkpt lat="45.61052" lon="10.5063557"><ele>126.99999999999999</ele><time>2026-04-26T14:35:48.102Z</time></trkpt><trkpt lat="45.6104894" lon="10.5062375"><ele>127.0</ele><time>2026-04-26T14:35:49.102Z</time></trkpt><trkpt lat="45.6104653" lon="10.5061148"><ele>127.0</ele><time>2026-04-26T14:35:50.102Z</time></trkpt><trkpt lat="45.610449" lon="10.5059834"><ele>129.4</ele><time>2026-04-26T14:35:51.102Z</time></trkpt><trkpt lat="45.6104347" lon="10.5058452"><ele>131.79999999999998</ele><time>2026-04-26T14:35:52.102Z</time></trkpt><trkpt lat="45.6104241" lon="10.5057007"><ele>134.2</ele><time>2026-04-26T14:35:53.102Z</time></trkpt><trkpt lat="45.6104192" lon="10.5055471"><ele>136.6</ele><time>2026-04-26T14:35:54.101Z</time></trkpt><trkpt lat="45.6104241" lon="10.5053882"><ele>139.0</ele><time>2026-04-26T14:35:55.102Z</time></trkpt><trkpt lat="45.6104299" lon="10.5052189"><ele>139.5</ele><time>2026-04-26T14:35:56.102Z</time></trkpt><trkpt lat="45.6104423" lon="10.5050435"><ele>140.0</ele><time>2026-04-26T14:35:57.102Z</time></trkpt><trkpt lat="45.6104623" lon="10.5048629"><ele>140.5</ele><time>2026-04-26T14:35:58.102Z</time></trkpt><trkpt lat="45.6104846" lon="10.5046951"><ele>141.0</ele><time>2026-04-26T14:35:59.102Z</time></trkpt><trkpt lat="45.6105074" lon="10.5045369"><ele>138.83333333333334</ele><time>2026-04-26T14:36:00.102Z</time></trkpt><trkpt lat="45.6105288" lon="10.5043893"><ele>136.66666666666666</ele><time>2026-04-26T14:36:01.102Z</time></trkpt><trkpt lat="45.6105501" lon="10.504257"><ele>134.5</ele><time>2026-04-26T14:36:02.102Z</time></trkpt><trkpt lat="45.6105659" lon="10.5041369"><ele>132.33333333333331</ele><time>2026-04-26T14:36:03.101Z</time></trkpt><trkpt lat="45.6105829" lon="10.5040257"><ele>130.16666666666666</ele><time>2026-04-26T14:36:04.102Z</time></trkpt><trkpt lat="45.6106005" lon="10.503928"><ele>128.0</ele><time>2026-04-26T14:36:05.102Z</time></trkpt><trkpt lat="45.6106165" lon="10.5038315"><ele>126.42857142857142</ele><time>2026-04-26T14:36:06.102Z</time></trkpt><trkpt lat="45.6106328" lon="10.503734"><ele>124.85714285714285</ele><time>2026-04-26T14:36:07.102Z</time></trkpt><trkpt lat="45.6106462" lon="10.5036356"><ele>123.28571428571428</ele><time>2026-04-26T14:36:08.102Z</time></trkpt><trkpt lat="45.6106586" lon="10.5035419"><ele>121.71428571428572</ele><time>2026-04-26T14:36:09.101Z</time></trkpt><trkpt lat="45.6106728" lon="10.5034451"><ele>120.14285714285715</ele><time>2026-04-26T14:36:10.102Z</time></trkpt><trkpt lat="45.6106856" lon="10.5033425"><ele>118.57142857142858</ele><time>2026-04-26T14:36:11.102Z</time></trkpt><trkpt lat="45.6107047" lon="10.5032351"><ele>117.0</ele><time>2026-04-26T14:36:12.102Z</time></trkpt><trkpt lat="45.6107229" lon="10.5031135"><ele>117.0</ele><time>2026-04-26T14:36:13.102Z</time></trkpt><trkpt lat="45.6107396" lon="10.5029805"><ele>116.99999999999999</ele><time>2026-04-26T14:36:14.102Z</time></trkpt><trkpt lat="45.6107609" lon="10.502843"><ele>116.99999999999999</ele><time>2026-04-26T14:36:15.102Z</time></trkpt><trkpt lat="45.610781" lon="10.5026892"><ele>117.0</ele><time>2026-04-26T14:36:16.101Z</time></trkpt><trkpt lat="45.6107995" lon="10.5025289"><ele>117.0</ele><time>2026-04-26T14:36:17.101Z</time></trkpt><trkpt lat="45.6108114" lon="10.5023664"><ele>118.6</ele><time>2026-04-26T14:36:18.102Z</time></trkpt><trkpt lat="45.6108155" lon="10.5022104"><ele>120.19999999999999</ele><time>2026-04-26T14:36:19.102Z</time></trkpt><trkpt lat="45.610811" lon="10.5020593"><ele>121.8</ele><time>2026-04-26T14:36:20.102Z</time></trkpt><trkpt lat="45.6108006" lon="10.5019108"><ele>123.4</ele><time>2026-04-26T14:36:21.102Z</time></trkpt><trkpt lat="45.6107871" lon="10.5017789"><ele>125.0</ele><time>2026-04-26T14:36:22.102Z</time></trkpt><trkpt lat="45.6107754" lon="10.5016576"><ele>127.2</ele><time>2026-04-26T14:36:23.102Z</time></trkpt><trkpt lat="45.610764" lon="10.5015502"><ele>129.4</ele><time>2026-04-26T14:36:24.101Z</time></trkpt><trkpt lat="45.6107525" lon="10.5014519"><ele>131.6</ele><time>2026-04-26T14:36:25.102Z</time></trkpt><trkpt lat="45.6107443" lon="10.5013034"><ele>133.8</ele><time>2026-04-26T14:36:27.102Z</time></trkpt><trkpt lat="45.6107473" lon="10.5011667"><ele>136.0</ele><time>2026-04-26T14:36:29.102Z</time></trkpt><trkpt lat="45.6107626" lon="10.5010002"><ele>136.66666666666669</ele><time>2026-04-26T14:36:31.102Z</time></trkpt><trkpt lat="45.6107691" lon="10.5008982"><ele>137.33333333333334</ele><time>2026-04-26T14:36:32.102Z</time></trkpt><trkpt lat="45.6107652" lon="10.5007883"><ele>138.0</ele><time>2026-04-26T14:36:33.101Z</time></trkpt><trkpt lat="45.6107434" lon="10.5006728"><ele>138.66666666666666</ele><time>2026-04-26T14:36:34.102Z</time></trkpt><trkpt lat="45.6106974" lon="10.5005658"><ele>139.33333333333331</ele><time>2026-04-26T14:36:35.102Z</time></trkpt><trkpt lat="45.6106235" lon="10.5004585"><ele>140.0</ele><time>2026-04-26T14:36:36.102Z</time></trkpt><trkpt lat="45.6105338" lon="10.5003576"><ele>140.5</ele><time>2026-04-26T14:36:37.102Z</time></trkpt><trkpt lat="45.6104453" lon="10.5002526"><ele>141.0</ele><time>2026-04-26T14:36:38.101Z</time></trkpt><trkpt lat="45.6103623" lon="10.5001323"><ele>141.5</ele><time>2026-04-26T14:36:39.102Z</time></trkpt><trkpt lat="45.6102878" lon="10.4999969"><ele>142.0</ele><time>2026-04-26T14:36:40.102Z</time></trkpt><trkpt lat="45.6102231" lon="10.4998526"><ele>142.0</ele><time>2026-04-26T14:36:41.102Z</time></trkpt><trkpt lat="45.6101639" lon="10.4997012"><ele>142.0</ele><time>2026-04-26T14:36:42.102Z</time></trkpt><trkpt lat="45.6101146" lon="10.4995496"><ele>142.0</ele><time>2026-04-26T14:36:43.102Z</time></trkpt><trkpt lat="45.6100687" lon="10.4994"><ele>142.0</ele><time>2026-04-26T14:36:44.102Z</time></trkpt><trkpt lat="45.6100261" lon="10.4992528"><ele>143.6</ele><time>2026-04-26T14:36:45.102Z</time></trkpt><trkpt lat="45.6099843" lon="10.4991113"><ele>145.2</ele><time>2026-04-26T14:36:46.102Z</time></trkpt><trkpt lat="45.6099403" lon="10.4989731"><ele>146.8</ele><time>2026-04-26T14:36:47.102Z</time></trkpt><trkpt lat="45.6098973" lon="10.4988441"><ele>148.4</ele><time>2026-04-26T14:36:48.102Z</time></trkpt><trkpt lat="45.609859" lon="10.4987159"><ele>150.0</ele><time>2026-04-26T14:36:49.102Z</time></trkpt><trkpt lat="45.6098221" lon="10.4985861"><ele>150.8</ele><time>2026-04-26T14:36:50.101Z</time></trkpt><trkpt lat="45.6097889" lon="10.4984536"><ele>151.6</ele><time>2026-04-26T14:36:51.102Z</time></trkpt><trkpt lat="45.6097563" lon="10.4983145"><ele>152.4</ele><time>2026-04-26T14:36:52.102Z</time></trkpt><trkpt lat="45.6097325" lon="10.4981704"><ele>153.2</ele><time>2026-04-26T14:36:53.102Z</time></trkpt><trkpt lat="45.6097143" lon="10.498019"><ele>154.0</ele><time>2026-04-26T14:36:54.102Z</time></trkpt><trkpt lat="45.6096976" lon="10.4978589"><ele>155.0</ele><time>2026-04-26T14:36:55.101Z</time></trkpt><trkpt lat="45.6096914" lon="10.4976906"><ele>156.0</ele><time>2026-04-26T14:36:56.102Z</time></trkpt><trkpt lat="45.6096927" lon="10.497516"><ele>157.0</ele><time>2026-04-26T14:36:57.102Z</time></trkpt><trkpt lat="45.6097023" lon="10.4973389"><ele>158.0</ele><time>2026-04-26T14:36:58.102Z</time></trkpt><trkpt lat="45.6097206" lon="10.4971575"><ele>158.75</ele><time>2026-04-26T14:36:59.102Z</time></trkpt><trkpt lat="45.6097508" lon="10.4969662"><ele>159.5</ele><time>2026-04-26T14:37:00.101Z</time></trkpt><trkpt lat="45.6097872" lon="10.4967693"><ele>160.25</ele><time>2026-04-26T14:37:01.102Z</time></trkpt><trkpt lat="45.6098261" lon="10.4965663"><ele>161.0</ele><time>2026-04-26T14:37:02.102Z</time></trkpt><trkpt lat="45.6098663" lon="10.4963624"><ele>161.0</ele><time>2026-04-26T14:37:03.102Z</time></trkpt><trkpt lat="45.6099074" lon="10.4961555"><ele>161.0</ele><time>2026-04-26T14:37:04.102Z</time></trkpt><trkpt lat="45.6099487" lon="10.4959589"><ele>161.0</ele><time>2026-04-26T14:37:05.102Z</time></trkpt><trkpt lat="45.6099874" lon="10.4957801"><ele>161.0</ele><time>2026-04-26T14:37:06.102Z</time></trkpt><trkpt lat="45.610023" lon="10.4956163"><ele>161.0</ele><time>2026-04-26T14:37:07.102Z</time></trkpt><trkpt lat="45.6100559" lon="10.4954689"><ele>161.0</ele><time>2026-04-26T14:37:08.102Z</time></trkpt><trkpt lat="45.6100865" lon="10.4953289"><ele>161.0</ele><time>2026-04-26T14:37:09.102Z</time></trkpt><trkpt lat="45.6101179" lon="10.495192"><ele>161.0</ele><time>2026-04-26T14:37:10.102Z</time></trkpt><trkpt lat="45.6101527" lon="10.4950521"><ele>161.0</ele><time>2026-04-26T14:37:11.102Z</time></trkpt><trkpt lat="45.6101964" lon="10.4949088"><ele>160.5</ele><time>2026-04-26T14:37:12.102Z</time></trkpt><trkpt lat="45.6102471" lon="10.4947584"><ele>160.0</ele><time>2026-04-26T14:37:13.102Z</time></trkpt><trkpt lat="45.6103031" lon="10.4946131"><ele>159.5</ele><time>2026-04-26T14:37:14.102Z</time></trkpt><trkpt lat="45.6103612" lon="10.4944698"><ele>159.0</ele><time>2026-04-26T14:37:15.102Z</time></trkpt><trkpt lat="45.6104273" lon="10.4943309"><ele>162.0</ele><time>2026-04-26T14:37:16.102Z</time></trkpt><trkpt lat="45.6104885" lon="10.4941911"><ele>165.0</ele><time>2026-04-26T14:37:17.101Z</time></trkpt><trkpt lat="45.6105487" lon="10.4940487"><ele>168.0</ele><time>2026-04-26T14:37:18.102Z</time></trkpt><trkpt lat="45.6106095" lon="10.4939063"><ele>171.0</ele><time>2026-04-26T14:37:19.102Z</time></trkpt><trkpt lat="45.6106719" lon="10.4937648"><ele>171.5</ele><time>2026-04-26T14:37:20.102Z</time></trkpt><trkpt lat="45.6107339" lon="10.4936216"><ele>172.0</ele><time>2026-04-26T14:37:21.102Z</time></trkpt><trkpt lat="45.6107971" lon="10.493473"><ele>172.5</ele><time>2026-04-26T14:37:22.102Z</time></trkpt><trkpt lat="45.6108611" lon="10.4933301"><ele>173.0</ele><time>2026-04-26T14:37:23.102Z</time></trkpt><trkpt lat="45.6109272" lon="10.4931852"><ele>173.0</ele><time>2026-04-26T14:37:24.102Z</time></trkpt><trkpt lat="45.6109925" lon="10.4930329"><ele>173.0</ele><time>2026-04-26T14:37:25.102Z</time></trkpt><trkpt lat="45.6110571" lon="10.4928895"><ele>173.0</ele><time>2026-04-26T14:37:26.101Z</time></trkpt><trkpt lat="45.6111226" lon="10.4927384"><ele>173.0</ele><time>2026-04-26T14:37:27.102Z</time></trkpt><trkpt lat="45.611187" lon="10.4925889"><ele>174.25</ele><time>2026-04-26T14:37:28.102Z</time></trkpt><trkpt lat="45.6112487" lon="10.4924357"><ele>175.5</ele><time>2026-04-26T14:37:29.102Z</time></trkpt><trkpt lat="45.6113144" lon="10.4922741"><ele>176.75</ele><time>2026-04-26T14:37:30.102Z</time></trkpt><trkpt lat="45.6113896" lon="10.4921011"><ele>178.0</ele><time>2026-04-26T14:37:31.102Z</time></trkpt><trkpt lat="45.6114695" lon="10.4919215"><ele>178.0</ele><time>2026-04-26T14:37:32.102Z</time></trkpt><trkpt lat="45.6115519" lon="10.4917293"><ele>178.0</ele><time>2026-04-26T14:37:33.102Z</time></trkpt><trkpt lat="45.6116405" lon="10.491533"><ele>178.0</ele><time>2026-04-26T14:37:34.102Z</time></trkpt><trkpt lat="45.6117239" lon="10.491334"><ele>178.0</ele><time>2026-04-26T14:37:35.102Z</time></trkpt><trkpt lat="45.6118049" lon="10.4911425"><ele>178.0</ele><time>2026-04-26T14:37:36.102Z</time></trkpt><trkpt lat="45.6118902" lon="10.4909494"><ele>178.0</ele><time>2026-04-26T14:37:37.102Z</time></trkpt><trkpt lat="45.6119735" lon="10.4907624"><ele>182.0</ele><time>2026-04-26T14:37:38.102Z</time></trkpt><trkpt lat="45.6120543" lon="10.4905803"><ele>186.0</ele><time>2026-04-26T14:37:39.102Z</time></trkpt><trkpt lat="45.6121327" lon="10.4903995"><ele>190.0</ele><time>2026-04-26T14:37:40.102Z</time></trkpt><trkpt lat="45.612208" lon="10.4902197"><ele>194.0</ele><time>2026-04-26T14:37:41.102Z</time></trkpt><trkpt lat="45.612271" lon="10.4900412"><ele>195.0</ele><time>2026-04-26T14:37:42.102Z</time></trkpt><trkpt lat="45.6123148" lon="10.4898661"><ele>196.0</ele><time>2026-04-26T14:37:43.102Z</time></trkpt><trkpt lat="45.6123485" lon="10.4897072"><ele>197.0</ele><time>2026-04-26T14:37:44.102Z</time></trkpt><trkpt lat="45.6123732" lon="10.489554"><ele>198.0</ele><time>2026-04-26T14:37:45.102Z</time></trkpt><trkpt lat="45.6123901" lon="10.4894014"><ele>198.25</ele><time>2026-04-26T14:37:46.102Z</time></trkpt><trkpt lat="45.6124004" lon="10.4892466"><ele>198.5</ele><time>2026-04-26T14:37:47.101Z</time></trkpt><trkpt lat="45.6124027" lon="10.4890767"><ele>198.75</ele><time>2026-04-26T14:37:48.101Z</time></trkpt><trkpt lat="45.6123987" lon="10.488899"><ele>199.0</ele><time>2026-04-26T14:37:49.102Z</time></trkpt><trkpt lat="45.6123894" lon="10.4887008"><ele>199.66666666666666</ele><time>2026-04-26T14:37:50.102Z</time></trkpt><trkpt lat="45.6123826" lon="10.4884895"><ele>200.33333333333331</ele><time>2026-04-26T14:37:51.102Z</time></trkpt><trkpt lat="45.6123804" lon="10.4882658"><ele>201.0</ele><time>2026-04-26T14:37:52.102Z</time></trkpt><trkpt lat="45.6123696" lon="10.4880293"><ele>201.33333333333331</ele><time>2026-04-26T14:37:53.101Z</time></trkpt><trkpt lat="45.6123495" lon="10.4877876"><ele>201.66666666666666</ele><time>2026-04-26T14:37:54.102Z</time></trkpt><trkpt lat="45.6123241" lon="10.487542"><ele>202.0</ele><time>2026-04-26T14:37:55.102Z</time></trkpt><trkpt lat="45.6123013" lon="10.4872924"><ele>203.0</ele><time>2026-04-26T14:37:56.102Z</time></trkpt><trkpt lat="45.6122813" lon="10.4870346"><ele>204.0</ele><time>2026-04-26T14:37:57.102Z</time></trkpt><trkpt lat="45.6122616" lon="10.4867762"><ele>205.0</ele><time>2026-04-26T14:37:58.101Z</time></trkpt><trkpt lat="45.6122414" lon="10.4865261"><ele>205.0</ele><time>2026-04-26T14:37:59.101Z</time></trkpt><trkpt lat="45.612219" lon="10.4862944"><ele>205.0</ele><time>2026-04-26T14:38:00.102Z</time></trkpt><trkpt lat="45.6121958" lon="10.4860797"><ele>205.0</ele><time>2026-04-26T14:38:01.102Z</time></trkpt><trkpt lat="45.6121634" lon="10.4858704"><ele>206.33333333333331</ele><time>2026-04-26T14:38:02.102Z</time></trkpt><trkpt lat="45.6121181" lon="10.4856649"><ele>207.66666666666669</ele><time>2026-04-26T14:38:03.102Z</time></trkpt><trkpt lat="45.6120666" lon="10.4854627"><ele>209.0</ele><time>2026-04-26T14:38:04.102Z</time></trkpt><trkpt lat="45.6119993" lon="10.4852568"><ele>206.0</ele><time>2026-04-26T14:38:05.102Z</time></trkpt><trkpt lat="45.6119132" lon="10.4850447"><ele>203.0</ele><time>2026-04-26T14:38:06.101Z</time></trkpt><trkpt lat="45.6118171" lon="10.4848437"><ele>200.0</ele><time>2026-04-26T14:38:07.102Z</time></trkpt><trkpt lat="45.6117202" lon="10.4846747"><ele>202.75</ele><time>2026-04-26T14:38:08.102Z</time></trkpt><trkpt lat="45.6116314" lon="10.4845117"><ele>205.5</ele><time>2026-04-26T14:38:09.102Z</time></trkpt><trkpt lat="45.6115478" lon="10.4843647"><ele>208.25</ele><time>2026-04-26T14:38:10.102Z</time></trkpt><trkpt lat="45.6114689" lon="10.4842302"><ele>211.0</ele><time>2026-04-26T14:38:11.102Z</time></trkpt><trkpt lat="45.6113925" lon="10.4840955"><ele>211.0</ele><time>2026-04-26T14:38:12.102Z</time></trkpt><trkpt lat="45.6113304" lon="10.4839523"><ele>211.0</ele><time>2026-04-26T14:38:13.102Z</time></trkpt><trkpt lat="45.6112783" lon="10.4837989"><ele>211.0</ele><time>2026-04-26T14:38:14.102Z</time></trkpt><trkpt lat="45.6112396" lon="10.4836324"><ele>211.0</ele><time>2026-04-26T14:38:15.102Z</time></trkpt><trkpt lat="45.6112129" lon="10.4834565"><ele>213.75</ele><time>2026-04-26T14:38:16.102Z</time></trkpt><trkpt lat="45.6111957" lon="10.4832748"><ele>216.5</ele><time>2026-04-26T14:38:17.102Z</time></trkpt><trkpt lat="45.6111951" lon="10.4830955"><ele>219.25</ele><time>2026-04-26T14:38:18.102Z</time></trkpt><trkpt lat="45.6112098" lon="10.4829267"><ele>222.0</ele><time>2026-04-26T14:38:19.102Z</time></trkpt><trkpt lat="45.6112315" lon="10.4827602"><ele>222.8</ele><time>2026-04-26T14:38:20.101Z</time></trkpt><trkpt lat="45.6112623" lon="10.4826101"><ele>223.6</ele><time>2026-04-26T14:38:21.102Z</time></trkpt><trkpt lat="45.6113038" lon="10.4824676"><ele>224.40000000000003</ele><time>2026-04-26T14:38:22.102Z</time></trkpt><trkpt lat="45.6113421" lon="10.4823264"><ele>225.20000000000002</ele><time>2026-04-26T14:38:23.102Z</time></trkpt><trkpt lat="45.6113768" lon="10.4822041"><ele>226.0</ele><time>2026-04-26T14:38:24.102Z</time></trkpt><trkpt lat="45.6114086" lon="10.4820919"><ele>225.99999999999997</ele><time>2026-04-26T14:38:25.102Z</time></trkpt><trkpt lat="45.6114374" lon="10.4819945"><ele>226.0</ele><time>2026-04-26T14:38:26.102Z</time></trkpt><trkpt lat="45.6114652" lon="10.481889"><ele>226.0</ele><time>2026-04-26T14:38:27.102Z</time></trkpt><trkpt lat="45.6114958" lon="10.4817835"><ele>226.0</ele><time>2026-04-26T14:38:28.101Z</time></trkpt><trkpt lat="45.6115242" lon="10.48168"><ele>225.99999999999997</ele><time>2026-04-26T14:38:29.101Z</time></trkpt><trkpt lat="45.6115488" lon="10.4815818"><ele>226.0</ele><time>2026-04-26T14:38:30.102Z</time></trkpt><trkpt lat="45.6115756" lon="10.4814849"><ele>225.99999999999997</ele><time>2026-04-26T14:38:31.101Z</time></trkpt><trkpt lat="45.6115969" lon="10.4813985"><ele>226.0</ele><time>2026-04-26T14:38:32.102Z</time></trkpt><trkpt lat="45.6116411" lon="10.481267"><ele>226.0</ele><time>2026-04-26T14:38:34.102Z</time></trkpt><trkpt lat="45.6116656" lon="10.4811698"><ele>226.0</ele><time>2026-04-26T14:38:36.102Z</time></trkpt><trkpt lat="45.611708" lon="10.4810786"><ele>225.99999999999997</ele><time>2026-04-26T14:38:38.102Z</time></trkpt><trkpt lat="45.6117749" lon="10.4809775"><ele>226.0</ele><time>2026-04-26T14:38:40.102Z</time></trkpt><trkpt lat="45.6118734" lon="10.4808682"><ele>225.4</ele><time>2026-04-26T14:38:42.101Z</time></trkpt><trkpt lat="45.611889" lon="10.4806942"><ele>224.8</ele><time>2026-04-26T14:38:44.102Z</time></trkpt><trkpt lat="45.6118501" lon="10.4806222"><ele>224.20000000000002</ele><time>2026-04-26T14:38:45.102Z</time></trkpt><trkpt lat="45.6117836" lon="10.4805643"><ele>223.60000000000002</ele><time>2026-04-26T14:38:46.102Z</time></trkpt><trkpt lat="45.6116982" lon="10.4805011"><ele>223.0</ele><time>2026-04-26T14:38:47.102Z</time></trkpt><trkpt lat="45.6116169" lon="10.4804127"><ele>222.75</ele><time>2026-04-26T14:38:48.102Z</time></trkpt><trkpt lat="45.6115386" lon="10.4803099"><ele>222.5</ele><time>2026-04-26T14:38:49.101Z</time></trkpt><trkpt lat="45.6114556" lon="10.4801863"><ele>222.25</ele><time>2026-04-26T14:38:50.101Z</time></trkpt><trkpt lat="45.6113571" lon="10.4800406"><ele>222.0</ele><time>2026-04-26T14:38:51.102Z</time></trkpt><trkpt lat="45.6112442" lon="10.4798722"><ele>222.66666666666669</ele><time>2026-04-26T14:38:52.102Z</time></trkpt><trkpt lat="45.6111179" lon="10.479682"><ele>223.33333333333334</ele><time>2026-04-26T14:38:53.102Z</time></trkpt><trkpt lat="45.6109981" lon="10.4794868"><ele>224.0</ele><time>2026-04-26T14:38:54.101Z</time></trkpt><trkpt lat="45.6108856" lon="10.4792972"><ele>224.0</ele><time>2026-04-26T14:38:55.102Z</time></trkpt><trkpt lat="45.6107768" lon="10.479116"><ele>224.0</ele><time>2026-04-26T14:38:56.102Z</time></trkpt><trkpt lat="45.6106731" lon="10.4789367"><ele>224.0</ele><time>2026-04-26T14:38:57.102Z</time></trkpt><trkpt lat="45.6105654" lon="10.478763"><ele>223.0</ele><time>2026-04-26T14:38:58.102Z</time></trkpt><trkpt lat="45.6104594" lon="10.4785841"><ele>222.0</ele><time>2026-04-26T14:38:59.102Z</time></trkpt><trkpt lat="45.6103484" lon="10.4784004"><ele>221.0</ele><time>2026-04-26T14:39:00.101Z</time></trkpt><trkpt lat="45.6102205" lon="10.4782196"><ele>221.0</ele><time>2026-04-26T14:39:01.102Z</time></trkpt><trkpt lat="45.6100656" lon="10.4780478"><ele>221.0</ele><time>2026-04-26T14:39:02.102Z</time></trkpt><trkpt lat="45.6099056" lon="10.4778851"><ele>221.0</ele><time>2026-04-26T14:39:03.102Z</time></trkpt><trkpt lat="45.6097501" lon="10.4777339"><ele>221.0</ele><time>2026-04-26T14:39:04.102Z</time></trkpt><trkpt lat="45.6096043" lon="10.477588"><ele>221.0</ele><time>2026-04-26T14:39:05.102Z</time></trkpt><trkpt lat="45.6094716" lon="10.4774493"><ele>221.0</ele><time>2026-04-26T14:39:06.102Z</time></trkpt><trkpt lat="45.6093474" lon="10.4773108"><ele>221.33333333333334</ele><time>2026-04-26T14:39:07.102Z</time></trkpt><trkpt lat="45.6092316" lon="10.4771641"><ele>221.66666666666669</ele><time>2026-04-26T14:39:08.102Z</time></trkpt><trkpt lat="45.6091161" lon="10.4770016"><ele>222.0</ele><time>2026-04-26T14:39:09.102Z</time></trkpt><trkpt lat="45.6089998" lon="10.4768189"><ele>222.0</ele><time>2026-04-26T14:39:10.102Z</time></trkpt><trkpt lat="45.6088736" lon="10.476608"><ele>222.0</ele><time>2026-04-26T14:39:11.102Z</time></trkpt><trkpt lat="45.608742" lon="10.4763629"><ele>222.0</ele><time>2026-04-26T14:39:12.102Z</time></trkpt><trkpt lat="45.6086014" lon="10.4761001"><ele>222.0</ele><time>2026-04-26T14:39:13.102Z</time></trkpt><trkpt lat="45.6084601" lon="10.4758198"><ele>222.0</ele><time>2026-04-26T14:39:14.102Z</time></trkpt><trkpt lat="45.6083321" lon="10.4755015"><ele>221.5</ele><time>2026-04-26T14:39:15.101Z</time></trkpt><trkpt lat="45.6082216" lon="10.4751408"><ele>221.0</ele><time>2026-04-26T14:39:16.102Z</time></trkpt><trkpt lat="45.6081229" lon="10.4747514"><ele>220.0</ele><time>2026-04-26T14:39:17.102Z</time></trkpt><trkpt lat="45.6080281" lon="10.4743696"><ele>219.0</ele><time>2026-04-26T14:39:18.102Z</time></trkpt><trkpt lat="45.607934" lon="10.4740006"><ele>217.5</ele><time>2026-04-26T14:39:19.102Z</time></trkpt><trkpt lat="45.6078456" lon="10.473645"><ele>216.0</ele><time>2026-04-26T14:39:20.102Z</time></trkpt><trkpt lat="45.6077568" lon="10.4732954"><ele>220.0</ele><time>2026-04-26T14:39:21.102Z</time></trkpt><trkpt lat="45.6076707" lon="10.4729518"><ele>224.0</ele><time>2026-04-26T14:39:22.102Z</time></trkpt><trkpt lat="45.6075892" lon="10.4726235"><ele>224.0</ele><time>2026-04-26T14:39:23.102Z</time></trkpt><trkpt lat="45.6075084" lon="10.4723119"><ele>224.0</ele><time>2026-04-26T14:39:24.102Z</time></trkpt><trkpt lat="45.6074304" lon="10.4720131"><ele>223.0</ele><time>2026-04-26T14:39:25.102Z</time></trkpt><trkpt lat="45.6073529" lon="10.4717255"><ele>222.0</ele><time>2026-04-26T14:39:26.102Z</time></trkpt><trkpt lat="45.6072755" lon="10.4714535"><ele>221.0</ele><time>2026-04-26T14:39:27.102Z</time></trkpt><trkpt lat="45.6072011" lon="10.4712048"><ele>220.66666666666669</ele><time>2026-04-26T14:39:28.102Z</time></trkpt><trkpt lat="45.6071315" lon="10.4709666"><ele>220.33333333333331</ele><time>2026-04-26T14:39:29.102Z</time></trkpt><trkpt lat="45.6070643" lon="10.4707349"><ele>220.0</ele><time>2026-04-26T14:39:30.102Z</time></trkpt><trkpt lat="45.6070003" lon="10.4705181"><ele>221.33333333333331</ele><time>2026-04-26T14:39:31.101Z</time></trkpt><trkpt lat="45.6069378" lon="10.4703096"><ele>222.66666666666669</ele><time>2026-04-26T14:39:32.102Z</time></trkpt><trkpt lat="45.6068776" lon="10.4701103"><ele>224.0</ele><time>2026-04-26T14:39:33.102Z</time></trkpt><trkpt lat="45.6068181" lon="10.4699142"><ele>224.0</ele><time>2026-04-26T14:39:34.102Z</time></trkpt><trkpt lat="45.6067601" lon="10.4697235"><ele>224.0</ele><time>2026-04-26T14:39:35.102Z</time></trkpt><trkpt lat="45.6067059" lon="10.4695401"><ele>224.0</ele><time>2026-04-26T14:39:36.102Z</time></trkpt><trkpt lat="45.6066604" lon="10.4693629"><ele>224.0</ele><time>2026-04-26T14:39:37.102Z</time></trkpt><trkpt lat="45.6066135" lon="10.469191"><ele>223.25</ele><time>2026-04-26T14:39:38.101Z</time></trkpt><trkpt lat="45.606567" lon="10.4690174"><ele>222.5</ele><time>2026-04-26T14:39:39.102Z</time></trkpt><trkpt lat="45.6065159" lon="10.4688475"><ele>221.75</ele><time>2026-04-26T14:39:40.102Z</time></trkpt><trkpt lat="45.6064584" lon="10.4686712"><ele>221.0</ele><time>2026-04-26T14:39:41.102Z</time></trkpt><trkpt lat="45.6063994" lon="10.4684892"><ele>220.5</ele><time>2026-04-26T14:39:42.102Z</time></trkpt><trkpt lat="45.6063381" lon="10.4682987"><ele>220.0</ele><time>2026-04-26T14:39:43.102Z</time></trkpt><trkpt lat="45.6062754" lon="10.4681056"><ele>219.5</ele><time>2026-04-26T14:39:44.102Z</time></trkpt><trkpt lat="45.6062154" lon="10.4679063"><ele>219.0</ele><time>2026-04-26T14:39:45.102Z</time></trkpt><trkpt lat="45.6061563" lon="10.4677095"><ele>219.0</ele><time>2026-04-26T14:39:46.102Z</time></trkpt><trkpt lat="45.6060967" lon="10.4675211"><ele>219.0</ele><time>2026-04-26T14:39:47.101Z</time></trkpt><trkpt lat="45.6060413" lon="10.4673361"><ele>219.0</ele><time>2026-04-26T14:39:48.102Z</time></trkpt><trkpt lat="45.6059869" lon="10.4671577"><ele>219.0</ele><time>2026-04-26T14:39:49.102Z</time></trkpt><trkpt lat="45.6059336" lon="10.4669746"><ele>219.25</ele><time>2026-04-26T14:39:50.102Z</time></trkpt><trkpt lat="45.6058806" lon="10.4667991"><ele>219.5</ele><time>2026-04-26T14:39:51.102Z</time></trkpt><trkpt lat="45.6058305" lon="10.4666287"><ele>219.75</ele><time>2026-04-26T14:39:52.102Z</time></trkpt><trkpt lat="45.6057846" lon="10.466468"><ele>220.0</ele><time>2026-04-26T14:39:53.102Z</time></trkpt><trkpt lat="45.6057425" lon="10.4663213"><ele>219.4</ele><time>2026-04-26T14:39:54.102Z</time></trkpt><trkpt lat="45.6056987" lon="10.4661815"><ele>218.8</ele><time>2026-04-26T14:39:55.102Z</time></trkpt><trkpt lat="45.6056562" lon="10.4660507"><ele>218.2</ele><time>2026-04-26T14:39:56.102Z</time></trkpt><trkpt lat="45.605621" lon="10.465923"><ele>217.6</ele><time>2026-04-26T14:39:57.102Z</time></trkpt><trkpt lat="45.6055867" lon="10.4658035"><ele>217.0</ele><time>2026-04-26T14:39:58.102Z</time></trkpt><trkpt lat="45.6055492" lon="10.4656904"><ele>216.99999999999997</ele><time>2026-04-26T14:39:59.102Z</time></trkpt><trkpt lat="45.6055122" lon="10.4655778"><ele>217.0</ele><time>2026-04-26T14:40:00.102Z</time></trkpt><trkpt lat="45.6054778" lon="10.4654673"><ele>217.0</ele><time>2026-04-26T14:40:01.102Z</time></trkpt><trkpt lat="45.6054461" lon="10.4653651"><ele>217.0</ele><time>2026-04-26T14:40:02.102Z</time></trkpt><trkpt lat="45.6054123" lon="10.4652662"><ele>216.99999999999997</ele><time>2026-04-26T14:40:03.101Z</time></trkpt><trkpt lat="45.6053734" lon="10.465169"><ele>217.0</ele><time>2026-04-26T14:40:04.102Z</time></trkpt><trkpt lat="45.6053378" lon="10.4650741"><ele>217.0</ele><time>2026-04-26T14:40:05.102Z</time></trkpt><trkpt lat="45.6053066" lon="10.4649741"><ele>217.0</ele><time>2026-04-26T14:40:06.102Z</time></trkpt><trkpt lat="45.605277" lon="10.4648688"><ele>217.0</ele><time>2026-04-26T14:40:07.102Z</time></trkpt><trkpt lat="45.6052418" lon="10.4647543"><ele>217.0</ele><time>2026-04-26T14:40:08.102Z</time></trkpt><trkpt lat="45.6051969" lon="10.4646286"><ele>217.0</ele><time>2026-04-26T14:40:09.102Z</time></trkpt><trkpt lat="45.6051528" lon="10.4644841"><ele>217.0</ele><time>2026-04-26T14:40:10.102Z</time></trkpt><trkpt lat="45.6051091" lon="10.4643259"><ele>217.0</ele><time>2026-04-26T14:40:11.101Z</time></trkpt><trkpt lat="45.6050587" lon="10.4641536"><ele>217.0</ele><time>2026-04-26T14:40:12.101Z</time></trkpt><trkpt lat="45.6050072" lon="10.4639825"><ele>217.0</ele><time>2026-04-26T14:40:13.102Z</time></trkpt><trkpt lat="45.6049565" lon="10.4638076"><ele>216.75</ele><time>2026-04-26T14:40:14.102Z</time></trkpt><trkpt lat="45.6049073" lon="10.4636405"><ele>216.5</ele><time>2026-04-26T14:40:15.102Z</time></trkpt><trkpt lat="45.6048626" lon="10.4634864"><ele>216.25</ele><time>2026-04-26T14:40:16.102Z</time></trkpt><trkpt lat="45.6048205" lon="10.4633422"><ele>216.0</ele><time>2026-04-26T14:40:17.102Z</time></trkpt><trkpt lat="45.6047815" lon="10.4632013"><ele>216.0</ele><time>2026-04-26T14:40:18.102Z</time></trkpt><trkpt lat="45.6047329" lon="10.4630592"><ele>216.0</ele><time>2026-04-26T14:40:19.101Z</time></trkpt><trkpt lat="45.6046823" lon="10.4628969"><ele>216.0</ele><time>2026-04-26T14:40:20.102Z</time></trkpt><trkpt lat="45.604633" lon="10.4627207"><ele>216.0</ele><time>2026-04-26T14:40:21.102Z</time></trkpt><trkpt lat="45.6045759" lon="10.4625282"><ele>216.25</ele><time>2026-04-26T14:40:22.102Z</time></trkpt><trkpt lat="45.6045196" lon="10.4623371"><ele>216.5</ele><time>2026-04-26T14:40:23.102Z</time></trkpt><trkpt lat="45.6044659" lon="10.4621472"><ele>216.75</ele><time>2026-04-26T14:40:24.101Z</time></trkpt><trkpt lat="45.6044102" lon="10.4619584"><ele>217.0</ele><time>2026-04-26T14:40:25.102Z</time></trkpt><trkpt lat="45.6043525" lon="10.4617733"><ele>217.0</ele><time>2026-04-26T14:40:26.102Z</time></trkpt><trkpt lat="45.6042947" lon="10.461581"><ele>217.0</ele><time>2026-04-26T14:40:27.102Z</time></trkpt><trkpt lat="45.6042345" lon="10.4613825"><ele>217.0</ele><time>2026-04-26T14:40:28.102Z</time></trkpt><trkpt lat="45.6041764" lon="10.4611768"><ele>217.0</ele><time>2026-04-26T14:40:29.102Z</time></trkpt><trkpt lat="45.6041191" lon="10.4609734"><ele>217.0</ele><time>2026-04-26T14:40:30.101Z</time></trkpt><trkpt lat="45.6040631" lon="10.4607826"><ele>217.0</ele><time>2026-04-26T14:40:31.102Z</time></trkpt><trkpt lat="45.6040073" lon="10.460598"><ele>217.0</ele><time>2026-04-26T14:40:32.102Z</time></trkpt><trkpt lat="45.6039539" lon="10.4604214"><ele>217.0</ele><time>2026-04-26T14:40:33.102Z</time></trkpt><trkpt lat="45.6039063" lon="10.460253"><ele>217.0</ele><time>2026-04-26T14:40:34.101Z</time></trkpt><trkpt lat="45.6038612" lon="10.460095"><ele>217.0</ele><time>2026-04-26T14:40:35.102Z</time></trkpt><trkpt lat="45.6038144" lon="10.4599481"><ele>217.0</ele><time>2026-04-26T14:40:36.102Z</time></trkpt><trkpt lat="45.6037709" lon="10.4598032"><ele>217.0</ele><time>2026-04-26T14:40:37.102Z</time></trkpt><trkpt lat="45.6037277" lon="10.4596642"><ele>217.0</ele><time>2026-04-26T14:40:38.102Z</time></trkpt><trkpt lat="45.6036826" lon="10.4595247"><ele>217.0</ele><time>2026-04-26T14:40:39.102Z</time></trkpt><trkpt lat="45.6036356" lon="10.4593783"><ele>217.0</ele><time>2026-04-26T14:40:40.102Z</time></trkpt><trkpt lat="45.6035889" lon="10.4592251"><ele>217.0</ele><time>2026-04-26T14:40:41.102Z</time></trkpt><trkpt lat="45.6035418" lon="10.4590735"><ele>216.6</ele><time>2026-04-26T14:40:42.102Z</time></trkpt><trkpt lat="45.6034964" lon="10.4589186"><ele>216.2</ele><time>2026-04-26T14:40:43.102Z</time></trkpt><trkpt lat="45.6034526" lon="10.4587758"><ele>215.8</ele><time>2026-04-26T14:40:44.102Z</time></trkpt><trkpt lat="45.6034135" lon="10.4586427"><ele>215.4</ele><time>2026-04-26T14:40:45.101Z</time></trkpt><trkpt lat="45.6033797" lon="10.4585215"><ele>215.0</ele><time>2026-04-26T14:40:46.102Z</time></trkpt><trkpt lat="45.6033524" lon="10.4584198"><ele>214.8</ele><time>2026-04-26T14:40:47.101Z</time></trkpt><trkpt lat="45.6033209" lon="10.458293"><ele>214.6</ele><time>2026-04-26T14:40:49.102Z</time></trkpt><trkpt lat="45.6033175" lon="10.4581684"><ele>214.39999999999998</ele><time>2026-04-26T14:40:52.102Z</time></trkpt><trkpt lat="45.6033337" lon="10.458037"><ele>214.2</ele><time>2026-04-26T14:40:54.102Z</time></trkpt><trkpt lat="45.6033207" lon="10.4578898"><ele>214.0</ele><time>2026-04-26T14:40:56.102Z</time></trkpt><trkpt lat="45.603243" lon="10.4577937"><ele>213.99999999999997</ele><time>2026-04-26T14:40:58.102Z</time></trkpt><trkpt lat="45.6031708" lon="10.4577262"><ele>214.0</ele><time>2026-04-26T14:41:00.102Z</time></trkpt><trkpt lat="45.6031106" lon="10.4576188"><ele>214.0</ele><time>2026-04-26T14:41:02.102Z</time></trkpt><trkpt lat="45.603065" lon="10.4574689"><ele>214.0</ele><time>2026-04-26T14:41:04.102Z</time></trkpt><trkpt lat="45.6030431" lon="10.4573821"><ele>213.99999999999997</ele><time>2026-04-26T14:41:05.102Z</time></trkpt><trkpt lat="45.6030217" lon="10.4572957"><ele>214.0</ele><time>2026-04-26T14:41:06.102Z</time></trkpt><trkpt lat="45.6029944" lon="10.4572056"><ele>214.33333333333331</ele><time>2026-04-26T14:41:07.102Z</time></trkpt><trkpt lat="45.6029685" lon="10.4571102"><ele>214.66666666666666</ele><time>2026-04-26T14:41:08.102Z</time></trkpt><trkpt lat="45.6029379" lon="10.4570163"><ele>215.0</ele><time>2026-04-26T14:41:09.102Z</time></trkpt><trkpt lat="45.6029138" lon="10.4569264"><ele>215.33333333333331</ele><time>2026-04-26T14:41:10.102Z</time></trkpt><trkpt lat="45.6028884" lon="10.4568368"><ele>215.66666666666666</ele><time>2026-04-26T14:41:11.102Z</time></trkpt><trkpt lat="45.6028646" lon="10.4567464"><ele>216.0</ele><time>2026-04-26T14:41:12.102Z</time></trkpt><trkpt lat="45.6028188" lon="10.4565872"><ele>216.0</ele><time>2026-04-26T14:41:14.102Z</time></trkpt><trkpt lat="45.6027714" lon="10.4564231"><ele>216.0</ele><time>2026-04-26T14:41:16.102Z</time></trkpt><trkpt lat="45.6027447" lon="10.4563391"><ele>216.0</ele><time>2026-04-26T14:41:17.101Z</time></trkpt><trkpt lat="45.602713" lon="10.456252"><ele>216.0</ele><time>2026-04-26T14:41:18.101Z</time></trkpt><trkpt lat="45.6026822" lon="10.4561526"><ele>216.0</ele><time>2026-04-26T14:41:19.101Z</time></trkpt><trkpt lat="45.6026492" lon="10.456041"><ele>216.0</ele><time>2026-04-26T14:41:20.102Z</time></trkpt><trkpt lat="45.6026147" lon="10.4559264"><ele>216.0</ele><time>2026-04-26T14:41:21.102Z</time></trkpt><trkpt lat="45.6025784" lon="10.4558031"><ele>216.0</ele><time>2026-04-26T14:41:22.101Z</time></trkpt><trkpt lat="45.6025416" lon="10.4556878"><ele>216.0</ele><time>2026-04-26T14:41:23.102Z</time></trkpt><trkpt lat="45.602504" lon="10.4555678"><ele>216.0</ele><time>2026-04-26T14:41:24.102Z</time></trkpt><trkpt lat="45.6024685" lon="10.4554571"><ele>216.0</ele><time>2026-04-26T14:41:25.102Z</time></trkpt><trkpt lat="45.60243" lon="10.4553552"><ele>216.0</ele><time>2026-04-26T14:41:26.102Z</time></trkpt><trkpt lat="45.6023913" lon="10.4552626"><ele>215.83333333333334</ele><time>2026-04-26T14:41:27.102Z</time></trkpt><trkpt lat="45.6023542" lon="10.4551755"><ele>215.66666666666669</ele><time>2026-04-26T14:41:28.101Z</time></trkpt><trkpt lat="45.6023167" lon="10.455099"><ele>215.5</ele><time>2026-04-26T14:41:29.102Z</time></trkpt><trkpt lat="45.6022769" lon="10.4550205"><ele>215.33333333333334</ele><time>2026-04-26T14:41:30.102Z</time></trkpt><trkpt lat="45.6022328" lon="10.4549448"><ele>215.16666666666669</ele><time>2026-04-26T14:41:31.102Z</time></trkpt><trkpt lat="45.6021933" lon="10.4548735"><ele>215.0</ele><time>2026-04-26T14:41:32.101Z</time></trkpt><trkpt lat="45.6021144" lon="10.454748"><ele>215.00000000000003</ele><time>2026-04-26T14:41:34.102Z</time></trkpt><trkpt lat="45.602031" lon="10.4546476"><ele>215.0</ele><time>2026-04-26T14:41:36.102Z</time></trkpt><trkpt lat="45.6019407" lon="10.4545191"><ele>215.0</ele><time>2026-04-26T14:41:38.102Z</time></trkpt><trkpt lat="45.6018999" lon="10.454444"><ele>215.0</ele><time>2026-04-26T14:41:39.102Z</time></trkpt><trkpt lat="45.6018574" lon="10.4543738"><ele>215.00000000000003</ele><time>2026-04-26T14:41:40.102Z</time></trkpt><trkpt lat="45.6018151" lon="10.4543029"><ele>215.0</ele><time>2026-04-26T14:41:41.101Z</time></trkpt><trkpt lat="45.6017374" lon="10.4541693"><ele>214.66666666666669</ele><time>2026-04-26T14:41:43.102Z</time></trkpt><trkpt lat="45.6016928" lon="10.4540893"><ele>214.33333333333334</ele><time>2026-04-26T14:41:44.102Z</time></trkpt><trkpt lat="45.6016481" lon="10.4540117"><ele>214.0</ele><time>2026-04-26T14:41:45.102Z</time></trkpt><trkpt lat="45.6016011" lon="10.4539356"><ele>213.66666666666669</ele><time>2026-04-26T14:41:46.102Z</time></trkpt><trkpt lat="45.601548" lon="10.4538501"><ele>213.33333333333334</ele><time>2026-04-26T14:41:47.102Z</time></trkpt><trkpt lat="45.6014904" lon="10.4537613"><ele>213.0</ele><time>2026-04-26T14:41:48.102Z</time></trkpt><trkpt lat="45.6014257" lon="10.4536598"><ele>213.0</ele><time>2026-04-26T14:41:49.102Z</time></trkpt><trkpt lat="45.6013518" lon="10.4535413"><ele>213.0</ele><time>2026-04-26T14:41:50.102Z</time></trkpt><trkpt lat="45.6012712" lon="10.453416"><ele>213.0</ele><time>2026-04-26T14:41:51.102Z</time></trkpt><trkpt lat="45.6011856" lon="10.4532847"><ele>213.0</ele><time>2026-04-26T14:41:52.101Z</time></trkpt><trkpt lat="45.6010995" lon="10.4531532"><ele>213.0</ele><time>2026-04-26T14:41:53.102Z</time></trkpt><trkpt lat="45.6010123" lon="10.4530119"><ele>213.0</ele><time>2026-04-26T14:41:54.102Z</time></trkpt><trkpt lat="45.6009258" lon="10.4528785"><ele>213.0</ele><time>2026-04-26T14:41:55.102Z</time></trkpt><trkpt lat="45.6008445" lon="10.4527463"><ele>213.0</ele><time>2026-04-26T14:41:56.101Z</time></trkpt><trkpt lat="45.600762" lon="10.4526139"><ele>213.0</ele><time>2026-04-26T14:41:57.102Z</time></trkpt><trkpt lat="45.6006704" lon="10.452481"><ele>213.0</ele><time>2026-04-26T14:41:58.101Z</time></trkpt><trkpt lat="45.6005685" lon="10.4523239"><ele>213.0</ele><time>2026-04-26T14:41:59.102Z</time></trkpt><trkpt lat="45.600456" lon="10.4521451"><ele>213.0</ele><time>2026-04-26T14:42:00.102Z</time></trkpt><trkpt lat="45.6003422" lon="10.4519454"><ele>212.66666666666669</ele><time>2026-04-26T14:42:01.102Z</time></trkpt><trkpt lat="45.6002269" lon="10.4517494"><ele>212.33333333333334</ele><time>2026-04-26T14:42:02.101Z</time></trkpt><trkpt lat="45.6001094" lon="10.4515519"><ele>212.0</ele><time>2026-04-26T14:42:03.102Z</time></trkpt><trkpt lat="45.5999836" lon="10.4513527"><ele>211.66666666666669</ele><time>2026-04-26T14:42:04.102Z</time></trkpt><trkpt lat="45.5998574" lon="10.4511551"><ele>211.33333333333331</ele><time>2026-04-26T14:42:05.101Z</time></trkpt><trkpt lat="45.5997343" lon="10.4509614"><ele>211.0</ele><time>2026-04-26T14:42:06.102Z</time></trkpt><trkpt lat="45.5996165" lon="10.450768"><ele>211.0</ele><time>2026-04-26T14:42:07.102Z</time></trkpt><trkpt lat="45.5995026" lon="10.4505824"><ele>211.0</ele><time>2026-04-26T14:42:08.102Z</time></trkpt><trkpt lat="45.5993866" lon="10.4503906"><ele>211.0</ele><time>2026-04-26T14:42:09.102Z</time></trkpt><trkpt lat="45.5992744" lon="10.450205"><ele>210.75</ele><time>2026-04-26T14:42:10.102Z</time></trkpt><trkpt lat="45.5991705" lon="10.4500414"><ele>210.5</ele><time>2026-04-26T14:42:11.101Z</time></trkpt><trkpt lat="45.5990897" lon="10.4498999"><ele>210.25</ele><time>2026-04-26T14:42:12.102Z</time></trkpt><trkpt lat="45.5990251" lon="10.4497816"><ele>210.0</ele><time>2026-04-26T14:42:13.102Z</time></trkpt><trkpt lat="45.598982" lon="10.4496612"><ele>209.83333333333334</ele><time>2026-04-26T14:42:14.102Z</time></trkpt><trkpt lat="45.5989638" lon="10.4495449"><ele>209.66666666666669</ele><time>2026-04-26T14:42:15.102Z</time></trkpt><trkpt lat="45.5989341" lon="10.4494548"><ele>209.5</ele><time>2026-04-26T14:42:16.102Z</time></trkpt><trkpt lat="45.5988787" lon="10.4494052"><ele>209.33333333333334</ele><time>2026-04-26T14:42:17.102Z</time></trkpt><trkpt lat="45.5988113" lon="10.4493646"><ele>209.16666666666669</ele><time>2026-04-26T14:42:18.102Z</time></trkpt><trkpt lat="45.5987175" lon="10.4492925"><ele>209.0</ele><time>2026-04-26T14:42:19.102Z</time></trkpt><trkpt lat="45.5986337" lon="10.4491671"><ele>209.0</ele><time>2026-04-26T14:42:20.102Z</time></trkpt><trkpt lat="45.5985426" lon="10.4490322"><ele>209.0</ele><time>2026-04-26T14:42:21.102Z</time></trkpt><trkpt lat="45.5984406" lon="10.448878"><ele>209.0</ele><time>2026-04-26T14:42:22.102Z</time></trkpt><trkpt lat="45.5983372" lon="10.4487177"><ele>209.0</ele><time>2026-04-26T14:42:23.101Z</time></trkpt><trkpt lat="45.5982331" lon="10.4485609"><ele>209.0</ele><time>2026-04-26T14:42:24.102Z</time></trkpt><trkpt lat="45.5981325" lon="10.4483978"><ele>209.0</ele><time>2026-04-26T14:42:25.102Z</time></trkpt><trkpt lat="45.5980293" lon="10.4482358"><ele>209.0</ele><time>2026-04-26T14:42:26.102Z</time></trkpt><trkpt lat="45.5979271" lon="10.4480734"><ele>208.75</ele><time>2026-04-26T14:42:27.101Z</time></trkpt><trkpt lat="45.5978313" lon="10.4479214"><ele>208.5</ele><time>2026-04-26T14:42:28.102Z</time></trkpt><trkpt lat="45.5977379" lon="10.4477705"><ele>208.25</ele><time>2026-04-26T14:42:29.101Z</time></trkpt><trkpt lat="45.5976449" lon="10.4476294"><ele>208.0</ele><time>2026-04-26T14:42:30.102Z</time></trkpt><trkpt lat="45.5975589" lon="10.4474906"><ele>208.0</ele><time>2026-04-26T14:42:31.102Z</time></trkpt><trkpt lat="45.5974745" lon="10.4473534"><ele>208.0</ele><time>2026-04-26T14:42:32.102Z</time></trkpt><trkpt lat="45.5973874" lon="10.4472215"><ele>208.0</ele><time>2026-04-26T14:42:33.102Z</time></trkpt><trkpt lat="45.5973076" lon="10.4470875"><ele>208.0</ele><time>2026-04-26T14:42:34.101Z</time></trkpt><trkpt lat="45.5972249" lon="10.4469503"><ele>208.0</ele><time>2026-04-26T14:42:35.102Z</time></trkpt><trkpt lat="45.5971379" lon="10.4468135"><ele>208.0</ele><time>2026-04-26T14:42:36.102Z</time></trkpt><trkpt lat="45.5970459" lon="10.446664"><ele>208.0</ele><time>2026-04-26T14:42:37.102Z</time></trkpt><trkpt lat="45.5969533" lon="10.4465166"><ele>208.0</ele><time>2026-04-26T14:42:38.102Z</time></trkpt><trkpt lat="45.5968561" lon="10.4463642"><ele>207.75</ele><time>2026-04-26T14:42:39.102Z</time></trkpt><trkpt lat="45.5967609" lon="10.4462109"><ele>207.5</ele><time>2026-04-26T14:42:40.102Z</time></trkpt><trkpt lat="45.5966653" lon="10.4460602"><ele>207.25</ele><time>2026-04-26T14:42:41.102Z</time></trkpt><trkpt lat="45.5965708" lon="10.4459081"><ele>207.0</ele><time>2026-04-26T14:42:42.102Z</time></trkpt><trkpt lat="45.5964779" lon="10.4457601"><ele>207.0</ele><time>2026-04-26T14:42:43.102Z</time></trkpt><trkpt lat="45.5963838" lon="10.44561"><ele>207.0</ele><time>2026-04-26T14:42:44.101Z</time></trkpt><trkpt lat="45.5962924" lon="10.445465"><ele>207.0</ele><time>2026-04-26T14:42:45.102Z</time></trkpt><trkpt lat="45.5962012" lon="10.4453239"><ele>207.0</ele><time>2026-04-26T14:42:46.102Z</time></trkpt><trkpt lat="45.596108" lon="10.4451782"><ele>207.0</ele><time>2026-04-26T14:42:47.102Z</time></trkpt><trkpt lat="45.5960172" lon="10.4450319"><ele>207.0</ele><time>2026-04-26T14:42:48.102Z</time></trkpt><trkpt lat="45.595927" lon="10.4448898"><ele>207.0</ele><time>2026-04-26T14:42:49.101Z</time></trkpt><trkpt lat="45.5958354" lon="10.4447453"><ele>207.0</ele><time>2026-04-26T14:42:50.102Z</time></trkpt><trkpt lat="45.5957427" lon="10.4445988"><ele>206.75</ele><time>2026-04-26T14:42:51.102Z</time></trkpt><trkpt lat="45.5956543" lon="10.4444538"><ele>206.5</ele><time>2026-04-26T14:42:52.101Z</time></trkpt><trkpt lat="45.5955704" lon="10.4443225"><ele>206.25</ele><time>2026-04-26T14:42:53.101Z</time></trkpt><trkpt lat="45.595498" lon="10.4442009"><ele>206.0</ele><time>2026-04-26T14:42:54.102Z</time></trkpt><trkpt lat="45.5954358" lon="10.4441012"><ele>205.99999999999997</ele><time>2026-04-26T14:42:55.102Z</time></trkpt><trkpt lat="45.595384" lon="10.444014"><ele>206.0</ele><time>2026-04-26T14:42:56.102Z</time></trkpt><trkpt lat="45.5953368" lon="10.4439316"><ele>206.0</ele><time>2026-04-26T14:42:57.102Z</time></trkpt><trkpt lat="45.5953021" lon="10.4438394"><ele>206.0</ele><time>2026-04-26T14:42:58.102Z</time></trkpt><trkpt lat="45.5952905" lon="10.4437373"><ele>206.0</ele><time>2026-04-26T14:42:59.101Z</time></trkpt><trkpt lat="45.5952645" lon="10.4436425"><ele>205.99999999999997</ele><time>2026-04-26T14:43:00.102Z</time></trkpt><trkpt lat="45.5952088" lon="10.443581"><ele>206.0</ele><time>2026-04-26T14:43:01.102Z</time></trkpt><trkpt lat="45.595126" lon="10.443527"><ele>205.75</ele><time>2026-04-26T14:43:02.102Z</time></trkpt><trkpt lat="45.5950366" lon="10.4434343"><ele>205.5</ele><time>2026-04-26T14:43:03.102Z</time></trkpt><trkpt lat="45.5949475" lon="10.4433063"><ele>205.25</ele><time>2026-04-26T14:43:04.101Z</time></trkpt><trkpt lat="45.5948489" lon="10.4431599"><ele>205.0</ele><time>2026-04-26T14:43:05.101Z</time></trkpt><trkpt lat="45.594727" lon="10.4430041"><ele>205.0</ele><time>2026-04-26T14:43:06.102Z</time></trkpt><trkpt lat="45.5945731" lon="10.4428556"><ele>205.0</ele><time>2026-04-26T14:43:07.101Z</time></trkpt><trkpt lat="45.5943827" lon="10.4427066"><ele>205.0</ele><time>2026-04-26T14:43:08.102Z</time></trkpt><trkpt lat="45.5941683" lon="10.4425519"><ele>205.0</ele><time>2026-04-26T14:43:09.102Z</time></trkpt><trkpt lat="45.5939313" lon="10.4423906"><ele>205.0</ele><time>2026-04-26T14:43:10.101Z</time></trkpt><trkpt lat="45.5936809" lon="10.4422257"><ele>204.0</ele><time>2026-04-26T14:43:11.102Z</time></trkpt><trkpt lat="45.5934459" lon="10.4420643"><ele>203.0</ele><time>2026-04-26T14:43:12.102Z</time></trkpt><trkpt lat="45.5932218" lon="10.4419045"><ele>203.0</ele><time>2026-04-26T14:43:13.101Z</time></trkpt><trkpt lat="45.5930219" lon="10.4417643"><ele>203.0</ele><time>2026-04-26T14:43:14.102Z</time></trkpt><trkpt lat="45.5928449" lon="10.4416436"><ele>203.0</ele><time>2026-04-26T14:43:15.102Z</time></trkpt><trkpt lat="45.5926907" lon="10.4415369"><ele>203.33333333333334</ele><time>2026-04-26T14:43:16.102Z</time></trkpt><trkpt lat="45.5925463" lon="10.4414362"><ele>203.66666666666669</ele><time>2026-04-26T14:43:17.102Z</time></trkpt><trkpt lat="45.5924119" lon="10.4413393"><ele>204.0</ele><time>2026-04-26T14:43:18.102Z</time></trkpt><trkpt lat="45.5922825" lon="10.4412507"><ele>203.5</ele><time>2026-04-26T14:43:19.101Z</time></trkpt><trkpt lat="45.5921606" lon="10.4411687"><ele>203.0</ele><time>2026-04-26T14:43:20.102Z</time></trkpt><trkpt lat="45.5920528" lon="10.4410903"><ele>202.5</ele><time>2026-04-26T14:43:21.102Z</time></trkpt><trkpt lat="45.5919499" lon="10.4410213"><ele>202.0</ele><time>2026-04-26T14:43:22.102Z</time></trkpt><trkpt lat="45.5918511" lon="10.4409578"><ele>202.0</ele><time>2026-04-26T14:43:23.102Z</time></trkpt><trkpt lat="45.5917589" lon="10.4408949"><ele>202.0</ele><time>2026-04-26T14:43:24.102Z</time></trkpt><trkpt lat="45.5916731" lon="10.4408397"><ele>202.0</ele><time>2026-04-26T14:43:25.101Z</time></trkpt><trkpt lat="45.5915975" lon="10.4407908"><ele>202.0</ele><time>2026-04-26T14:43:26.101Z</time></trkpt><trkpt lat="45.5915354" lon="10.4407511"><ele>202.0</ele><time>2026-04-26T14:43:27.102Z</time></trkpt><trkpt lat="45.5914346" lon="10.4406848"><ele>201.99999999999997</ele><time>2026-04-26T14:43:29.102Z</time></trkpt><trkpt lat="45.5913434" lon="10.4405835"><ele>202.0</ele><time>2026-04-26T14:43:31.102Z</time></trkpt><trkpt lat="45.5913229" lon="10.4404932"><ele>202.0</ele><time>2026-04-26T14:43:32.102Z</time></trkpt><trkpt lat="45.5913243" lon="10.440396"><ele>202.0</ele><time>2026-04-26T14:43:33.102Z</time></trkpt><trkpt lat="45.5913496" lon="10.4403099"><ele>201.99999999999997</ele><time>2026-04-26T14:43:34.102Z</time></trkpt><trkpt lat="45.5914319" lon="10.4401823"><ele>202.0</ele><time>2026-04-26T14:43:36.102Z</time></trkpt><trkpt lat="45.5915104" lon="10.4400781"><ele>201.8</ele><time>2026-04-26T14:43:38.102Z</time></trkpt><trkpt lat="45.5915841" lon="10.4399771"><ele>201.6</ele><time>2026-04-26T14:43:40.102Z</time></trkpt><trkpt lat="45.5916588" lon="10.4398913"><ele>201.4</ele><time>2026-04-26T14:43:42.102Z</time></trkpt><trkpt lat="45.5917732" lon="10.4398753"><ele>201.20000000000002</ele><time>2026-04-26T14:43:44.102Z</time></trkpt><trkpt lat="45.5918459" lon="10.4398748"><ele>201.0</ele><time>2026-04-26T14:43:45.102Z</time></trkpt><trkpt lat="45.5919225" lon="10.4398384"><ele>201.0</ele><time>2026-04-26T14:43:46.101Z</time></trkpt><trkpt lat="45.5919905" lon="10.4397691"><ele>201.0</ele><time>2026-04-26T14:43:47.102Z</time></trkpt><trkpt lat="45.5920681" lon="10.4396925"><ele>201.0</ele><time>2026-04-26T14:43:48.102Z</time></trkpt><trkpt lat="45.5921671" lon="10.4396398"><ele>201.0</ele><time>2026-04-26T14:43:49.102Z</time></trkpt><trkpt lat="45.5922835" lon="10.4396265"><ele>201.0</ele><time>2026-04-26T14:43:50.102Z</time></trkpt><trkpt lat="45.5924204" lon="10.4396466"><ele>201.75</ele><time>2026-04-26T14:43:51.102Z</time></trkpt><trkpt lat="45.5925715" lon="10.4396592"><ele>202.5</ele><time>2026-04-26T14:43:52.101Z</time></trkpt><trkpt lat="45.5927211" lon="10.4396709"><ele>203.25</ele><time>2026-04-26T14:43:53.102Z</time></trkpt><trkpt lat="45.5928639" lon="10.4396766"><ele>204.0</ele><time>2026-04-26T14:43:54.102Z</time></trkpt><trkpt lat="45.5930027" lon="10.4396565"><ele>207.5</ele><time>2026-04-26T14:43:55.102Z</time></trkpt><trkpt lat="45.5931392" lon="10.4396031"><ele>211.0</ele><time>2026-04-26T14:43:56.102Z</time></trkpt><trkpt lat="45.5932659" lon="10.4395085"><ele>214.5</ele><time>2026-04-26T14:43:57.102Z</time></trkpt><trkpt lat="45.5933783" lon="10.4393848"><ele>218.0</ele><time>2026-04-26T14:43:58.101Z</time></trkpt><trkpt lat="45.5934817" lon="10.4392613"><ele>218.0</ele><time>2026-04-26T14:43:59.102Z</time></trkpt><trkpt lat="45.5935826" lon="10.4391369"><ele>218.0</ele><time>2026-04-26T14:44:00.102Z</time></trkpt><trkpt lat="45.5936979" lon="10.439032"><ele>218.0</ele><time>2026-04-26T14:44:01.102Z</time></trkpt><trkpt lat="45.5938305" lon="10.4389464"><ele>218.0</ele><time>2026-04-26T14:44:02.102Z</time></trkpt><trkpt lat="45.5939681" lon="10.4388914"><ele>217.25</ele><time>2026-04-26T14:44:03.102Z</time></trkpt><trkpt lat="45.5941135" lon="10.4388639"><ele>216.5</ele><time>2026-04-26T14:44:04.102Z</time></trkpt><trkpt lat="45.5942586" lon="10.438851"><ele>215.75</ele><time>2026-04-26T14:44:05.102Z</time></trkpt><trkpt lat="45.5944033" lon="10.4388312"><ele>215.0</ele><time>2026-04-26T14:44:06.102Z</time></trkpt><trkpt lat="45.5945648" lon="10.4387864"><ele>218.33333333333334</ele><time>2026-04-26T14:44:07.101Z</time></trkpt><trkpt lat="45.5947405" lon="10.4387255"><ele>221.66666666666669</ele><time>2026-04-26T14:44:08.102Z</time></trkpt><trkpt lat="45.5949186" lon="10.4386532"><ele>225.0</ele><time>2026-04-26T14:44:09.102Z</time></trkpt><trkpt lat="45.5950907" lon="10.4385808"><ele>225.0</ele><time>2026-04-26T14:44:10.102Z</time></trkpt><trkpt lat="45.5952563" lon="10.438519"><ele>225.0</ele><time>2026-04-26T14:44:11.102Z</time></trkpt><trkpt lat="45.5954202" lon="10.4384536"><ele>225.0</ele><time>2026-04-26T14:44:12.101Z</time></trkpt><trkpt lat="45.595582" lon="10.4383633"><ele>222.33333333333331</ele><time>2026-04-26T14:44:13.102Z</time></trkpt><trkpt lat="45.5957379" lon="10.4382594"><ele>219.66666666666666</ele><time>2026-04-26T14:44:14.102Z</time></trkpt><trkpt lat="45.5958761" lon="10.4381213"><ele>217.0</ele><time>2026-04-26T14:44:15.102Z</time></trkpt><trkpt lat="45.5960095" lon="10.4379818"><ele>218.33333333333331</ele><time>2026-04-26T14:44:16.102Z</time></trkpt><trkpt lat="45.5961456" lon="10.4378135"><ele>219.66666666666669</ele><time>2026-04-26T14:44:17.102Z</time></trkpt><trkpt lat="45.5962848" lon="10.4375732"><ele>221.0</ele><time>2026-04-26T14:44:18.101Z</time></trkpt><trkpt lat="45.5964286" lon="10.4373353"><ele>219.5</ele><time>2026-04-26T14:44:19.101Z</time></trkpt><trkpt lat="45.5965991" lon="10.4370585"><ele>218.0</ele><time>2026-04-26T14:44:20.102Z</time></trkpt><trkpt lat="45.5967686" lon="10.436768"><ele>218.0</ele><time>2026-04-26T14:44:21.101Z</time></trkpt><trkpt lat="45.5969414" lon="10.4364707"><ele>218.0</ele><time>2026-04-26T14:44:22.102Z</time></trkpt><trkpt lat="45.5971105" lon="10.4361859"><ele>216.0</ele><time>2026-04-26T14:44:23.102Z</time></trkpt><trkpt lat="45.5972727" lon="10.4359104"><ele>214.0</ele><time>2026-04-26T14:44:24.102Z</time></trkpt><trkpt lat="45.5974484" lon="10.4356646"><ele>213.0</ele><time>2026-04-26T14:44:25.102Z</time></trkpt><trkpt lat="45.5976429" lon="10.4354415"><ele>212.0</ele><time>2026-04-26T14:44:26.102Z</time></trkpt><trkpt lat="45.5978462" lon="10.4352472"><ele>212.0</ele><time>2026-04-26T14:44:27.102Z</time></trkpt><trkpt lat="45.5980613" lon="10.4350714"><ele>212.0</ele><time>2026-04-26T14:44:28.102Z</time></trkpt><trkpt lat="45.5983052" lon="10.4349326"><ele>212.0</ele><time>2026-04-26T14:44:29.101Z</time></trkpt><trkpt lat="45.5985689" lon="10.4348253"><ele>212.0</ele><time>2026-04-26T14:44:30.102Z</time></trkpt><trkpt lat="45.5988327" lon="10.4347415"><ele>210.5</ele><time>2026-04-26T14:44:31.102Z</time></trkpt><trkpt lat="45.5990791" lon="10.4346593"><ele>209.0</ele><time>2026-04-26T14:44:32.102Z</time></trkpt><trkpt lat="45.5993038" lon="10.4345776"><ele>212.5</ele><time>2026-04-26T14:44:33.102Z</time></trkpt><trkpt lat="45.599508" lon="10.4344585"><ele>216.0</ele><time>2026-04-26T14:44:34.101Z</time></trkpt><trkpt lat="45.5997077" lon="10.4342811"><ele>216.0</ele><time>2026-04-26T14:44:35.102Z</time></trkpt><trkpt lat="45.5998953" lon="10.4340587"><ele>216.0</ele><time>2026-04-26T14:44:36.102Z</time></trkpt><trkpt lat="45.6000805" lon="10.43381"><ele>217.0</ele><time>2026-04-26T14:44:37.101Z</time></trkpt><trkpt lat="45.6002585" lon="10.4335281"><ele>218.0</ele><time>2026-04-26T14:44:38.101Z</time></trkpt><trkpt lat="45.6004152" lon="10.433211"><ele>222.5</ele><time>2026-04-26T14:44:39.102Z</time></trkpt><trkpt lat="45.600549" lon="10.4328621"><ele>227.0</ele><time>2026-04-26T14:44:40.102Z</time></trkpt><trkpt lat="45.6006616" lon="10.4325308"><ele>227.0</ele><time>2026-04-26T14:44:41.102Z</time></trkpt><trkpt lat="45.6007535" lon="10.4322333"><ele>227.0</ele><time>2026-04-26T14:44:42.102Z</time></trkpt><trkpt lat="45.6008408" lon="10.4319472"><ele>227.0</ele><time>2026-04-26T14:44:43.102Z</time></trkpt><trkpt lat="45.6009165" lon="10.4316811"><ele>227.33333333333334</ele><time>2026-04-26T14:44:44.102Z</time></trkpt><trkpt lat="45.6009886" lon="10.4314215"><ele>227.66666666666669</ele><time>2026-04-26T14:44:45.101Z</time></trkpt><trkpt lat="45.6010409" lon="10.4311599"><ele>228.0</ele><time>2026-04-26T14:44:46.102Z</time></trkpt><trkpt lat="45.6010687" lon="10.4309084"><ele>228.0</ele><time>2026-04-26T14:44:47.102Z</time></trkpt><trkpt lat="45.6010733" lon="10.4306507"><ele>228.0</ele><time>2026-04-26T14:44:48.102Z</time></trkpt><trkpt lat="45.6010541" lon="10.4303949"><ele>228.0</ele><time>2026-04-26T14:44:49.102Z</time></trkpt><trkpt lat="45.6010341" lon="10.4301399"><ele>228.33333333333331</ele><time>2026-04-26T14:44:50.102Z</time></trkpt><trkpt lat="45.6010212" lon="10.4298827"><ele>228.66666666666666</ele><time>2026-04-26T14:44:51.102Z</time></trkpt><trkpt lat="45.6010244" lon="10.4296299"><ele>229.0</ele><time>2026-04-26T14:44:52.102Z</time></trkpt><trkpt lat="45.6010385" lon="10.429376"><ele>228.66666666666666</ele><time>2026-04-26T14:44:53.102Z</time></trkpt><trkpt lat="45.6010538" lon="10.4291361"><ele>228.33333333333331</ele><time>2026-04-26T14:44:54.102Z</time></trkpt><trkpt lat="45.6010634" lon="10.4289088"><ele>228.0</ele><time>2026-04-26T14:44:55.102Z</time></trkpt><trkpt lat="45.6010687" lon="10.4286942"><ele>228.0</ele><time>2026-04-26T14:44:56.102Z</time></trkpt><trkpt lat="45.6010792" lon="10.4284875"><ele>228.0</ele><time>2026-04-26T14:44:57.102Z</time></trkpt><trkpt lat="45.6010941" lon="10.4282998"><ele>228.0</ele><time>2026-04-26T14:44:58.102Z</time></trkpt><trkpt lat="45.6011051" lon="10.4281257"><ele>228.0</ele><time>2026-04-26T14:44:59.102Z</time></trkpt><trkpt lat="45.6011199" lon="10.4279572"><ele>228.0</ele><time>2026-04-26T14:45:00.101Z</time></trkpt><trkpt lat="45.6011346" lon="10.4277918"><ele>228.0</ele><time>2026-04-26T14:45:01.102Z</time></trkpt><trkpt lat="45.6011474" lon="10.4276235"><ele>228.0</ele><time>2026-04-26T14:45:02.102Z</time></trkpt><trkpt lat="45.6011604" lon="10.4274549"><ele>228.0</ele><time>2026-04-26T14:45:03.102Z</time></trkpt><trkpt lat="45.6011699" lon="10.4272883"><ele>234.25</ele><time>2026-04-26T14:45:04.102Z</time></trkpt><trkpt lat="45.6011755" lon="10.4271163"><ele>240.5</ele><time>2026-04-26T14:45:05.102Z</time></trkpt><trkpt lat="45.601183" lon="10.4269443"><ele>246.75</ele><time>2026-04-26T14:45:06.101Z</time></trkpt><trkpt lat="45.6011932" lon="10.4267731"><ele>253.0</ele><time>2026-04-26T14:45:07.102Z</time></trkpt><trkpt lat="45.6011954" lon="10.4266"><ele>253.0</ele><time>2026-04-26T14:45:08.102Z</time></trkpt><trkpt lat="45.6011945" lon="10.4264262"><ele>253.0</ele><time>2026-04-26T14:45:09.102Z</time></trkpt><trkpt lat="45.6011934" lon="10.4262491"><ele>253.0</ele><time>2026-04-26T14:45:10.102Z</time></trkpt><trkpt lat="45.6011962" lon="10.4260724"><ele>253.0</ele><time>2026-04-26T14:45:11.102Z</time></trkpt><trkpt lat="45.6011973" lon="10.4258899"><ele>251.25</ele><time>2026-04-26T14:45:12.102Z</time></trkpt><trkpt lat="45.601197" lon="10.4257056"><ele>249.5</ele><time>2026-04-26T14:45:13.102Z</time></trkpt><trkpt lat="45.6012026" lon="10.4255152"><ele>247.75</ele><time>2026-04-26T14:45:14.101Z</time></trkpt><trkpt lat="45.6012239" lon="10.4253171"><ele>246.0</ele><time>2026-04-26T14:45:15.102Z</time></trkpt><trkpt lat="45.6012678" lon="10.4251238"><ele>245.75</ele><time>2026-04-26T14:45:16.102Z</time></trkpt><trkpt lat="45.6013317" lon="10.4249415"><ele>245.5</ele><time>2026-04-26T14:45:17.102Z</time></trkpt><trkpt lat="45.6014121" lon="10.4247687"><ele>245.25</ele><time>2026-04-26T14:45:18.102Z</time></trkpt><trkpt lat="45.6015001" lon="10.4246095"><ele>245.0</ele><time>2026-04-26T14:45:19.102Z</time></trkpt><trkpt lat="45.6015918" lon="10.4244496"><ele>244.25</ele><time>2026-04-26T14:45:20.102Z</time></trkpt><trkpt lat="45.6016882" lon="10.4242929"><ele>243.5</ele><time>2026-04-26T14:45:21.102Z</time></trkpt><trkpt lat="45.601787" lon="10.4241392"><ele>242.75</ele><time>2026-04-26T14:45:22.102Z</time></trkpt><trkpt lat="45.60189" lon="10.4239775"><ele>242.0</ele><time>2026-04-26T14:45:23.102Z</time></trkpt><trkpt lat="45.6019982" lon="10.4238221"><ele>243.66666666666669</ele><time>2026-04-26T14:45:24.102Z</time></trkpt><trkpt lat="45.6021082" lon="10.4236713"><ele>245.33333333333331</ele><time>2026-04-26T14:45:25.102Z</time></trkpt><trkpt lat="45.6022172" lon="10.4235183"><ele>247.0</ele><time>2026-04-26T14:45:26.102Z</time></trkpt><trkpt lat="45.602322" lon="10.4233615"><ele>247.0</ele><time>2026-04-26T14:45:27.102Z</time></trkpt><trkpt lat="45.6024175" lon="10.4231936"><ele>247.0</ele><time>2026-04-26T14:45:28.102Z</time></trkpt><trkpt lat="45.6024993" lon="10.4230192"><ele>247.0</ele><time>2026-04-26T14:45:29.102Z</time></trkpt><trkpt lat="45.6025726" lon="10.4228384"><ele>247.0</ele><time>2026-04-26T14:45:30.102Z</time></trkpt><trkpt lat="45.6026405" lon="10.422663"><ele>248.0</ele><time>2026-04-26T14:45:31.101Z</time></trkpt><trkpt lat="45.602704" lon="10.4224924"><ele>249.0</ele><time>2026-04-26T14:45:32.101Z</time></trkpt><trkpt lat="45.6027668" lon="10.4223292"><ele>250.0</ele><time>2026-04-26T14:45:33.102Z</time></trkpt><trkpt lat="45.6028246" lon="10.4221824"><ele>251.0</ele><time>2026-04-26T14:45:34.102Z</time></trkpt><trkpt lat="45.6028757" lon="10.4220367"><ele>251.0</ele><time>2026-04-26T14:45:35.102Z</time></trkpt><trkpt lat="45.6029238" lon="10.4218948"><ele>251.0</ele><time>2026-04-26T14:45:36.102Z</time></trkpt><trkpt lat="45.6029711" lon="10.4217512"><ele>251.0</ele><time>2026-04-26T14:45:37.102Z</time></trkpt><trkpt lat="45.603016" lon="10.4215922"><ele>251.0</ele><time>2026-04-26T14:45:38.102Z</time></trkpt><trkpt lat="45.6030578" lon="10.4214268"><ele>249.5</ele><time>2026-04-26T14:45:39.101Z</time></trkpt><trkpt lat="45.6031001" lon="10.4212549"><ele>248.0</ele><time>2026-04-26T14:45:40.101Z</time></trkpt><trkpt lat="45.6031478" lon="10.4210795"><ele>246.5</ele><time>2026-04-26T14:45:41.102Z</time></trkpt><trkpt lat="45.6031983" lon="10.4208986"><ele>245.0</ele><time>2026-04-26T14:45:42.102Z</time></trkpt><trkpt lat="45.6032463" lon="10.4207168"><ele>245.0</ele><time>2026-04-26T14:45:43.101Z</time></trkpt><trkpt lat="45.6032911" lon="10.4205444"><ele>245.0</ele><time>2026-04-26T14:45:44.102Z</time></trkpt><trkpt lat="45.6033358" lon="10.420386"><ele>245.0</ele><time>2026-04-26T14:45:45.101Z</time></trkpt><trkpt lat="45.6033746" lon="10.420246"><ele>245.0</ele><time>2026-04-26T14:45:46.102Z</time></trkpt><trkpt lat="45.603405" lon="10.4201343"><ele>245.0</ele><time>2026-04-26T14:45:47.101Z</time></trkpt><trkpt lat="45.6034298" lon="10.4200461"><ele>245.83333333333334</ele><time>2026-04-26T14:45:48.102Z</time></trkpt><trkpt lat="45.603462" lon="10.4199419"><ele>246.66666666666669</ele><time>2026-04-26T14:45:50.102Z</time></trkpt><trkpt lat="45.603493" lon="10.4198501"><ele>247.5</ele><time>2026-04-26T14:45:57.102Z</time></trkpt><trkpt lat="45.6035453" lon="10.4197288"><ele>248.33333333333331</ele><time>2026-04-26T14:45:59.102Z</time></trkpt><trkpt lat="45.6035832" lon="10.4196478"><ele>249.16666666666666</ele><time>2026-04-26T14:46:00.102Z</time></trkpt><trkpt lat="45.6036225" lon="10.4195554"><ele>250.0</ele><time>2026-04-26T14:46:01.102Z</time></trkpt><trkpt lat="45.6036655" lon="10.4194561"><ele>250.0</ele><time>2026-04-26T14:46:02.101Z</time></trkpt><trkpt lat="45.6037098" lon="10.4193484"><ele>250.0</ele><time>2026-04-26T14:46:03.102Z</time></trkpt><trkpt lat="45.6037604" lon="10.4192317"><ele>250.0</ele><time>2026-04-26T14:46:04.102Z</time></trkpt><trkpt lat="45.6038127" lon="10.4191172"><ele>250.0</ele><time>2026-04-26T14:46:05.102Z</time></trkpt><trkpt lat="45.6038701" lon="10.4189938"><ele>250.0</ele><time>2026-04-26T14:46:06.102Z</time></trkpt><trkpt lat="45.6039361" lon="10.4188705"><ele>249.0</ele><time>2026-04-26T14:46:07.102Z</time></trkpt><trkpt lat="45.6040171" lon="10.4187586"><ele>248.0</ele><time>2026-04-26T14:46:08.102Z</time></trkpt><trkpt lat="45.6041183" lon="10.4186592"><ele>247.0</ele><time>2026-04-26T14:46:09.102Z</time></trkpt><trkpt lat="45.6042441" lon="10.41857"><ele>246.0</ele><time>2026-04-26T14:46:10.102Z</time></trkpt><trkpt lat="45.6043946" lon="10.4184874"><ele>248.0</ele><time>2026-04-26T14:46:11.102Z</time></trkpt><trkpt lat="45.6045443" lon="10.4183951"><ele>250.0</ele><time>2026-04-26T14:46:12.101Z</time></trkpt><trkpt lat="45.604686" lon="10.4182847"><ele>252.0</ele><time>2026-04-26T14:46:13.102Z</time></trkpt><trkpt lat="45.6048201" lon="10.4181545"><ele>252.0</ele><time>2026-04-26T14:46:14.102Z</time></trkpt><trkpt lat="45.6049517" lon="10.4180145"><ele>252.0</ele><time>2026-04-26T14:46:15.102Z</time></trkpt><trkpt lat="45.6050811" lon="10.4178719"><ele>252.0</ele><time>2026-04-26T14:46:16.102Z</time></trkpt><trkpt lat="45.6052026" lon="10.4177366"><ele>253.0</ele><time>2026-04-26T14:46:17.101Z</time></trkpt><trkpt lat="45.6053223" lon="10.4176006"><ele>254.0</ele><time>2026-04-26T14:46:18.101Z</time></trkpt><trkpt lat="45.6054333" lon="10.417465"><ele>255.0</ele><time>2026-04-26T14:46:19.102Z</time></trkpt><trkpt lat="45.6055417" lon="10.417317"><ele>256.0</ele><time>2026-04-26T14:46:20.102Z</time></trkpt><trkpt lat="45.6056496" lon="10.4171524"><ele>254.33333333333331</ele><time>2026-04-26T14:46:21.102Z</time></trkpt><trkpt lat="45.6057651" lon="10.4169623"><ele>252.66666666666669</ele><time>2026-04-26T14:46:22.102Z</time></trkpt><trkpt lat="45.6058906" lon="10.4167564"><ele>251.0</ele><time>2026-04-26T14:46:23.102Z</time></trkpt><trkpt lat="45.6060185" lon="10.416543"><ele>251.0</ele><time>2026-04-26T14:46:24.102Z</time></trkpt><trkpt lat="45.6061444" lon="10.4163322"><ele>251.0</ele><time>2026-04-26T14:46:25.102Z</time></trkpt><trkpt lat="45.6062619" lon="10.4161355"><ele>251.0</ele><time>2026-04-26T14:46:26.102Z</time></trkpt><trkpt lat="45.606373" lon="10.4159486"><ele>251.33333333333334</ele><time>2026-04-26T14:46:27.102Z</time></trkpt><trkpt lat="45.6064768" lon="10.4157725"><ele>251.66666666666669</ele><time>2026-04-26T14:46:28.102Z</time></trkpt><trkpt lat="45.6065709" lon="10.4156019"><ele>252.0</ele><time>2026-04-26T14:46:29.101Z</time></trkpt><trkpt lat="45.6066605" lon="10.4154264"><ele>252.0</ele><time>2026-04-26T14:46:30.102Z</time></trkpt><trkpt lat="45.6067435" lon="10.4152451"><ele>252.0</ele><time>2026-04-26T14:46:31.101Z</time></trkpt><trkpt lat="45.6068267" lon="10.415058"><ele>252.0</ele><time>2026-04-26T14:46:32.102Z</time></trkpt><trkpt lat="45.6069106" lon="10.414868"><ele>254.25</ele><time>2026-04-26T14:46:33.102Z</time></trkpt><trkpt lat="45.6069954" lon="10.4146888"><ele>256.5</ele><time>2026-04-26T14:46:34.102Z</time></trkpt><trkpt lat="45.6070756" lon="10.4145152"><ele>258.75</ele><time>2026-04-26T14:46:35.102Z</time></trkpt><trkpt lat="45.6071522" lon="10.4143507"><ele>261.0</ele><time>2026-04-26T14:46:36.102Z</time></trkpt><trkpt lat="45.6072252" lon="10.4141885"><ele>261.0</ele><time>2026-04-26T14:46:37.102Z</time></trkpt><trkpt lat="45.6072909" lon="10.414015"><ele>261.0</ele><time>2026-04-26T14:46:38.102Z</time></trkpt><trkpt lat="45.6073328" lon="10.4138443"><ele>261.0</ele><time>2026-04-26T14:46:39.102Z</time></trkpt><trkpt lat="45.6073717" lon="10.413676"><ele>261.0</ele><time>2026-04-26T14:46:40.102Z</time></trkpt><trkpt lat="45.6074055" lon="10.4135069"><ele>260.75</ele><time>2026-04-26T14:46:41.102Z</time></trkpt><trkpt lat="45.6074389" lon="10.4133354"><ele>260.5</ele><time>2026-04-26T14:46:42.102Z</time></trkpt><trkpt lat="45.6074696" lon="10.4131674"><ele>260.25</ele><time>2026-04-26T14:46:43.102Z</time></trkpt><trkpt lat="45.6075008" lon="10.4129998"><ele>260.0</ele><time>2026-04-26T14:46:44.101Z</time></trkpt><trkpt lat="45.6075358" lon="10.4128358"><ele>260.0</ele><time>2026-04-26T14:46:45.102Z</time></trkpt><trkpt lat="45.6075677" lon="10.4126724"><ele>260.0</ele><time>2026-04-26T14:46:46.101Z</time></trkpt><trkpt lat="45.6075977" lon="10.4125073"><ele>260.0</ele><time>2026-04-26T14:46:47.101Z</time></trkpt><trkpt lat="45.607625" lon="10.4123445"><ele>260.0</ele><time>2026-04-26T14:46:48.102Z</time></trkpt><trkpt lat="45.6076471" lon="10.4122015"><ele>260.33333333333337</ele><time>2026-04-26T14:46:49.102Z</time></trkpt><trkpt lat="45.6076587" lon="10.4120684"><ele>260.6666666666667</ele><time>2026-04-26T14:46:50.101Z</time></trkpt><trkpt lat="45.6076732" lon="10.4119463"><ele>261.0</ele><time>2026-04-26T14:46:51.102Z</time></trkpt><trkpt lat="45.60767" lon="10.4118406"><ele>261.3333333333333</ele><time>2026-04-26T14:46:52.102Z</time></trkpt><trkpt lat="45.6076862" lon="10.4117394"><ele>261.66666666666663</ele><time>2026-04-26T14:46:53.102Z</time></trkpt><trkpt lat="45.607705" lon="10.41165"><ele>262.0</ele><time>2026-04-26T14:46:54.102Z</time></trkpt><trkpt lat="45.6077331" lon="10.4115468"><ele>262.0</ele><time>2026-04-26T14:46:56.102Z</time></trkpt><trkpt lat="45.6077809" lon="10.4114717"><ele>262.0</ele><time>2026-04-26T14:59:47.102Z</time></trkpt><trkpt lat="45.607823" lon="10.4113939"><ele>262.0</ele><time>2026-04-26T14:59:49.102Z</time></trkpt><trkpt lat="45.6078804" lon="10.4111988"><ele>262.0</ele><time>2026-04-26T14:59:51.102Z</time></trkpt><trkpt lat="45.6079128" lon="10.4110831"><ele>262.0</ele><time>2026-04-26T14:59:52.102Z</time></trkpt><trkpt lat="45.6079424" lon="10.4109407"><ele>264.0</ele><time>2026-04-26T14:59:53.101Z</time></trkpt><trkpt lat="45.6079764" lon="10.4107614"><ele>266.0</ele><time>2026-04-26T14:59:54.102Z</time></trkpt><trkpt lat="45.6080242" lon="10.4105374"><ele>268.0</ele><time>2026-04-26T14:59:55.102Z</time></trkpt><trkpt lat="45.6080767" lon="10.4102678"><ele>268.0</ele><time>2026-04-26T14:59:56.101Z</time></trkpt><trkpt lat="45.6081199" lon="10.4099644"><ele>268.0</ele><time>2026-04-26T14:59:57.102Z</time></trkpt><trkpt lat="45.60816" lon="10.4096818"><ele>268.0</ele><time>2026-04-26T14:59:58.102Z</time></trkpt><trkpt lat="45.6081942" lon="10.4094137"><ele>268.0</ele><time>2026-04-26T14:59:59.102Z</time></trkpt><trkpt lat="45.6082256" lon="10.4091646"><ele>268.0</ele><time>2026-04-26T15:00:00.101Z</time></trkpt><trkpt lat="45.6082588" lon="10.4089561"><ele>268.0</ele><time>2026-04-26T15:00:01.102Z</time></trkpt><trkpt lat="45.6082893" lon="10.4087729"><ele>268.25</ele><time>2026-04-26T15:00:02.102Z</time></trkpt><trkpt lat="45.6083247" lon="10.408598"><ele>268.5</ele><time>2026-04-26T15:00:03.102Z</time></trkpt><trkpt lat="45.6083657" lon="10.4084322"><ele>268.75</ele><time>2026-04-26T15:00:04.101Z</time></trkpt><trkpt lat="45.6084119" lon="10.4082763"><ele>269.0</ele><time>2026-04-26T15:00:05.102Z</time></trkpt><trkpt lat="45.6084562" lon="10.4081142"><ele>268.5</ele><time>2026-04-26T15:00:06.101Z</time></trkpt><trkpt lat="45.6084997" lon="10.4079471"><ele>268.0</ele><time>2026-04-26T15:00:07.102Z</time></trkpt><trkpt lat="45.6085488" lon="10.4077755"><ele>267.5</ele><time>2026-04-26T15:00:08.102Z</time></trkpt><trkpt lat="45.6085995" lon="10.407592"><ele>267.0</ele><time>2026-04-26T15:00:09.102Z</time></trkpt><trkpt lat="45.6086496" lon="10.4074025"><ele>271.0</ele><time>2026-04-26T15:00:10.101Z</time></trkpt><trkpt lat="45.6087046" lon="10.4072098"><ele>275.0</ele><time>2026-04-26T15:00:11.102Z</time></trkpt><trkpt lat="45.6087584" lon="10.4070193"><ele>279.0</ele><time>2026-04-26T15:00:12.102Z</time></trkpt><trkpt lat="45.6088115" lon="10.406818"><ele>283.0</ele><time>2026-04-26T15:00:13.102Z</time></trkpt><trkpt lat="45.6088663" lon="10.406605"><ele>283.0</ele><time>2026-04-26T15:00:14.102Z</time></trkpt><trkpt lat="45.6089341" lon="10.4063774"><ele>283.0</ele><time>2026-04-26T15:00:15.102Z</time></trkpt><trkpt lat="45.6090096" lon="10.4061387"><ele>283.0</ele><time>2026-04-26T15:00:16.102Z</time></trkpt><trkpt lat="45.6090868" lon="10.4058632"><ele>281.3333333333333</ele><time>2026-04-26T15:00:17.102Z</time></trkpt><trkpt lat="45.6091628" lon="10.4055969"><ele>279.6666666666667</ele><time>2026-04-26T15:00:18.102Z</time></trkpt><trkpt lat="45.6092333" lon="10.4053456"><ele>278.0</ele><time>2026-04-26T15:00:19.102Z</time></trkpt><trkpt lat="45.609299" lon="10.4050905"><ele>276.33333333333337</ele><time>2026-04-26T15:00:20.102Z</time></trkpt><trkpt lat="45.6093638" lon="10.4048524"><ele>274.6666666666667</ele><time>2026-04-26T15:00:21.101Z</time></trkpt><trkpt lat="45.6094274" lon="10.4046328"><ele>273.0</ele><time>2026-04-26T15:00:22.101Z</time></trkpt><trkpt lat="45.6094889" lon="10.404427"><ele>275.5</ele><time>2026-04-26T15:00:23.102Z</time></trkpt><trkpt lat="45.6095385" lon="10.4042363"><ele>278.0</ele><time>2026-04-26T15:00:24.102Z</time></trkpt><trkpt lat="45.6095894" lon="10.4040471"><ele>280.5</ele><time>2026-04-26T15:00:25.102Z</time></trkpt><trkpt lat="45.6096409" lon="10.4038573"><ele>283.0</ele><time>2026-04-26T15:00:26.101Z</time></trkpt><trkpt lat="45.6096956" lon="10.4036615"><ele>283.0</ele><time>2026-04-26T15:00:27.102Z</time></trkpt><trkpt lat="45.6097496" lon="10.4034616"><ele>283.0</ele><time>2026-04-26T15:00:28.102Z</time></trkpt><trkpt lat="45.6098068" lon="10.403258"><ele>283.0</ele><time>2026-04-26T15:00:29.102Z</time></trkpt><trkpt lat="45.6098628" lon="10.4030349"><ele>282.0</ele><time>2026-04-26T15:00:30.102Z</time></trkpt><trkpt lat="45.6099086" lon="10.4027999"><ele>281.0</ele><time>2026-04-26T15:00:31.102Z</time></trkpt><trkpt lat="45.6099398" lon="10.4025506"><ele>280.0</ele><time>2026-04-26T15:00:32.102Z</time></trkpt><trkpt lat="45.6099616" lon="10.4022894"><ele>279.3333333333333</ele><time>2026-04-26T15:00:33.102Z</time></trkpt><trkpt lat="45.6099802" lon="10.4020246"><ele>278.6666666666667</ele><time>2026-04-26T15:00:34.101Z</time></trkpt><trkpt lat="45.609992" lon="10.4017555"><ele>278.0</ele><time>2026-04-26T15:00:35.102Z</time></trkpt><trkpt lat="45.6100053" lon="10.4014866"><ele>279.0</ele><time>2026-04-26T15:00:36.102Z</time></trkpt><trkpt lat="45.6100225" lon="10.4012394"><ele>280.0</ele><time>2026-04-26T15:00:37.102Z</time></trkpt><trkpt lat="45.6100366" lon="10.4010084"><ele>281.0</ele><time>2026-04-26T15:00:38.102Z</time></trkpt><trkpt lat="45.610049" lon="10.4007861"><ele>281.0</ele><time>2026-04-26T15:00:39.102Z</time></trkpt><trkpt lat="45.6100607" lon="10.4005645"><ele>281.0</ele><time>2026-04-26T15:00:40.102Z</time></trkpt><trkpt lat="45.6100764" lon="10.400339"><ele>281.0</ele><time>2026-04-26T15:00:41.101Z</time></trkpt><trkpt lat="45.6100903" lon="10.4001223"><ele>281.75</ele><time>2026-04-26T15:00:42.102Z</time></trkpt><trkpt lat="45.610102" lon="10.3999073"><ele>282.5</ele><time>2026-04-26T15:00:43.102Z</time></trkpt><trkpt lat="45.6101136" lon="10.3996944"><ele>283.25</ele><time>2026-04-26T15:00:44.102Z</time></trkpt><trkpt lat="45.6101245" lon="10.3994962"><ele>284.0</ele><time>2026-04-26T15:00:45.102Z</time></trkpt><trkpt lat="45.6101337" lon="10.3993083"><ele>284.0</ele><time>2026-04-26T15:00:46.102Z</time></trkpt><trkpt lat="45.6101388" lon="10.3991182"><ele>284.0</ele><time>2026-04-26T15:00:47.102Z</time></trkpt><trkpt lat="45.6101436" lon="10.3989374"><ele>284.0</ele><time>2026-04-26T15:00:48.102Z</time></trkpt><trkpt lat="45.6101486" lon="10.3987571"><ele>284.0</ele><time>2026-04-26T15:00:49.102Z</time></trkpt><trkpt lat="45.6101535" lon="10.3985796"><ele>284.25</ele><time>2026-04-26T15:00:50.102Z</time></trkpt><trkpt lat="45.6101566" lon="10.3983966"><ele>284.5</ele><time>2026-04-26T15:00:51.102Z</time></trkpt><trkpt lat="45.6101573" lon="10.3982072"><ele>284.75</ele><time>2026-04-26T15:00:52.102Z</time></trkpt><trkpt lat="45.6101617" lon="10.3980152"><ele>285.0</ele><time>2026-04-26T15:00:53.102Z</time></trkpt><trkpt lat="45.6101629" lon="10.3978182"><ele>285.0</ele><time>2026-04-26T15:00:54.102Z</time></trkpt><trkpt lat="45.610166" lon="10.3976216"><ele>285.0</ele><time>2026-04-26T15:00:55.102Z</time></trkpt><trkpt lat="45.6101679" lon="10.3974229"><ele>285.0</ele><time>2026-04-26T15:00:56.102Z</time></trkpt><trkpt lat="45.6101716" lon="10.3972164"><ele>285.0</ele><time>2026-04-26T15:00:57.102Z</time></trkpt><trkpt lat="45.6101748" lon="10.3970153"><ele>285.25</ele><time>2026-04-26T15:00:58.102Z</time></trkpt><trkpt lat="45.6101771" lon="10.3968142"><ele>285.5</ele><time>2026-04-26T15:00:59.102Z</time></trkpt><trkpt lat="45.6101786" lon="10.3966231"><ele>285.75</ele><time>2026-04-26T15:01:00.102Z</time></trkpt><trkpt lat="45.6101819" lon="10.3964266"><ele>286.0</ele><time>2026-04-26T15:01:01.102Z</time></trkpt><trkpt lat="45.6101847" lon="10.3962254"><ele>286.66666666666663</ele><time>2026-04-26T15:01:02.102Z</time></trkpt><trkpt lat="45.6101861" lon="10.3960165"><ele>287.3333333333333</ele><time>2026-04-26T15:01:03.101Z</time></trkpt><trkpt lat="45.6101968" lon="10.3957828"><ele>288.0</ele><time>2026-04-26T15:01:04.102Z</time></trkpt><trkpt lat="45.6102056" lon="10.3955285"><ele>289.0</ele><time>2026-04-26T15:01:05.102Z</time></trkpt><trkpt lat="45.6102293" lon="10.3952613"><ele>290.0</ele><time>2026-04-26T15:01:06.102Z</time></trkpt><trkpt lat="45.6102657" lon="10.3950035"><ele>291.0</ele><time>2026-04-26T15:01:07.102Z</time></trkpt><trkpt lat="45.610299" lon="10.3947559"><ele>292.3333333333333</ele><time>2026-04-26T15:01:08.102Z</time></trkpt><trkpt lat="45.6103295" lon="10.3945046"><ele>293.66666666666663</ele><time>2026-04-26T15:01:09.102Z</time></trkpt><trkpt lat="45.6103592" lon="10.3942587"><ele>295.0</ele><time>2026-04-26T15:01:10.102Z</time></trkpt><trkpt lat="45.6103867" lon="10.3940125"><ele>295.66666666666663</ele><time>2026-04-26T15:01:11.102Z</time></trkpt><trkpt lat="45.6104039" lon="10.3937678"><ele>296.3333333333333</ele><time>2026-04-26T15:01:12.102Z</time></trkpt><trkpt lat="45.6104216" lon="10.3935193"><ele>297.0</ele><time>2026-04-26T15:01:13.101Z</time></trkpt><trkpt lat="45.6104271" lon="10.3932732"><ele>297.0</ele><time>2026-04-26T15:01:14.102Z</time></trkpt><trkpt lat="45.6104148" lon="10.3930263"><ele>297.0</ele><time>2026-04-26T15:01:15.101Z</time></trkpt><trkpt lat="45.6103945" lon="10.3927978"><ele>297.0</ele><time>2026-04-26T15:01:16.102Z</time></trkpt><trkpt lat="45.6103725" lon="10.3925786"><ele>297.5</ele><time>2026-04-26T15:01:17.101Z</time></trkpt><trkpt lat="45.6103523" lon="10.3923797"><ele>298.0</ele><time>2026-04-26T15:01:18.102Z</time></trkpt><trkpt lat="45.6103347" lon="10.3921892"><ele>298.5</ele><time>2026-04-26T15:01:19.102Z</time></trkpt><trkpt lat="45.6103209" lon="10.391995"><ele>299.0</ele><time>2026-04-26T15:01:20.102Z</time></trkpt><trkpt lat="45.6103116" lon="10.3918046"><ele>298.0</ele><time>2026-04-26T15:01:21.101Z</time></trkpt><trkpt lat="45.6103053" lon="10.3916195"><ele>297.0</ele><time>2026-04-26T15:01:22.101Z</time></trkpt><trkpt lat="45.6103002" lon="10.3914385"><ele>296.0</ele><time>2026-04-26T15:01:23.102Z</time></trkpt><trkpt lat="45.6103027" lon="10.3912591"><ele>295.0</ele><time>2026-04-26T15:01:24.102Z</time></trkpt><trkpt lat="45.6103115" lon="10.3910964"><ele>295.0</ele><time>2026-04-26T15:01:25.102Z</time></trkpt><trkpt lat="45.6102956" lon="10.3909403"><ele>295.0</ele><time>2026-04-26T15:01:26.102Z</time></trkpt><trkpt lat="45.6102942" lon="10.390793"><ele>295.0</ele><time>2026-04-26T15:01:27.101Z</time></trkpt><trkpt lat="45.6102912" lon="10.390642"><ele>295.0</ele><time>2026-04-26T15:01:28.102Z</time></trkpt><trkpt lat="45.6102873" lon="10.3904922"><ele>295.0</ele><time>2026-04-26T15:01:29.102Z</time></trkpt><trkpt lat="45.6102781" lon="10.3903376"><ele>295.75</ele><time>2026-04-26T15:01:30.102Z</time></trkpt><trkpt lat="45.6102683" lon="10.3901755"><ele>296.5</ele><time>2026-04-26T15:01:31.102Z</time></trkpt><trkpt lat="45.6102537" lon="10.3900175"><ele>297.25</ele><time>2026-04-26T15:01:32.101Z</time></trkpt><trkpt lat="45.6102421" lon="10.3898523"><ele>298.0</ele><time>2026-04-26T15:01:33.102Z</time></trkpt><trkpt lat="45.6102358" lon="10.3896871"><ele>298.6</ele><time>2026-04-26T15:01:34.102Z</time></trkpt><trkpt lat="45.6102283" lon="10.3895261"><ele>299.20000000000005</ele><time>2026-04-26T15:01:35.102Z</time></trkpt><trkpt lat="45.6102209" lon="10.3893643"><ele>299.8</ele><time>2026-04-26T15:01:36.101Z</time></trkpt><trkpt lat="45.610217" lon="10.3892172"><ele>300.40000000000003</ele><time>2026-04-26T15:01:37.102Z</time></trkpt><trkpt lat="45.6102144" lon="10.3890857"><ele>301.0</ele><time>2026-04-26T15:01:38.102Z</time></trkpt><trkpt lat="45.6102078" lon="10.3889495"><ele>301.2</ele><time>2026-04-26T15:01:39.102Z</time></trkpt><trkpt lat="45.6102029" lon="10.3888093"><ele>301.40000000000003</ele><time>2026-04-26T15:01:40.101Z</time></trkpt><trkpt lat="45.6101969" lon="10.3886544"><ele>301.6</ele><time>2026-04-26T15:01:41.102Z</time></trkpt><trkpt lat="45.6101899" lon="10.3884859"><ele>301.8</ele><time>2026-04-26T15:01:42.102Z</time></trkpt><trkpt lat="45.6101833" lon="10.3883088"><ele>302.0</ele><time>2026-04-26T15:01:43.102Z</time></trkpt><trkpt lat="45.6101789" lon="10.3881281"><ele>302.25</ele><time>2026-04-26T15:01:44.102Z</time></trkpt><trkpt lat="45.6101757" lon="10.3879415"><ele>302.5</ele><time>2026-04-26T15:01:45.102Z</time></trkpt><trkpt lat="45.6101715" lon="10.3877533"><ele>302.75</ele><time>2026-04-26T15:01:46.102Z</time></trkpt><trkpt lat="45.6101648" lon="10.3875637"><ele>303.0</ele><time>2026-04-26T15:01:47.102Z</time></trkpt><trkpt lat="45.6101602" lon="10.387377"><ele>303.0</ele><time>2026-04-26T15:01:48.102Z</time></trkpt><trkpt lat="45.6101505" lon="10.3871999"><ele>303.0</ele><time>2026-04-26T15:01:49.101Z</time></trkpt><trkpt lat="45.6101359" lon="10.3870343"><ele>303.0</ele><time>2026-04-26T15:01:50.101Z</time></trkpt><trkpt lat="45.6101166" lon="10.3868864"><ele>303.0</ele><time>2026-04-26T15:01:51.102Z</time></trkpt><trkpt lat="45.6100794" lon="10.3867546"><ele>303.0</ele><time>2026-04-26T15:01:52.101Z</time></trkpt><trkpt lat="45.6100242" lon="10.3866389"><ele>304.0</ele><time>2026-04-26T15:01:53.102Z</time></trkpt><trkpt lat="45.6099475" lon="10.3865493"><ele>305.0</ele><time>2026-04-26T15:01:54.102Z</time></trkpt><trkpt lat="45.609851" lon="10.3865016"><ele>306.0</ele><time>2026-04-26T15:01:55.102Z</time></trkpt><trkpt lat="45.6097467" lon="10.3864808"><ele>307.0</ele><time>2026-04-26T15:01:56.101Z</time></trkpt><trkpt lat="45.6096439" lon="10.3864854"><ele>308.0</ele><time>2026-04-26T15:01:57.102Z</time></trkpt><trkpt lat="45.6095472" lon="10.3864831"><ele>307.6</ele><time>2026-04-26T15:01:58.102Z</time></trkpt><trkpt lat="45.6094517" lon="10.3864891"><ele>307.20000000000005</ele><time>2026-04-26T15:01:59.102Z</time></trkpt><trkpt lat="45.6093528" lon="10.3864933"><ele>306.8</ele><time>2026-04-26T15:02:00.102Z</time></trkpt><trkpt lat="45.6092561" lon="10.386499"><ele>306.40000000000003</ele><time>2026-04-26T15:02:01.102Z</time></trkpt><trkpt lat="45.6091591" lon="10.3865062"><ele>306.0</ele><time>2026-04-26T15:02:02.102Z</time></trkpt><trkpt lat="45.6090642" lon="10.3864948"><ele>306.0</ele><time>2026-04-26T15:02:03.102Z</time></trkpt><trkpt lat="45.6089733" lon="10.3864634"><ele>306.0</ele><time>2026-04-26T15:02:04.102Z</time></trkpt><trkpt lat="45.6088893" lon="10.3864107"><ele>306.0</ele><time>2026-04-26T15:02:05.101Z</time></trkpt><trkpt lat="45.6088168" lon="10.3863386"><ele>306.0</ele><time>2026-04-26T15:02:06.102Z</time></trkpt><trkpt lat="45.6087576" lon="10.3862462"><ele>306.0</ele><time>2026-04-26T15:02:07.102Z</time></trkpt><trkpt lat="45.6087021" lon="10.3861396"><ele>307.2</ele><time>2026-04-26T15:02:08.102Z</time></trkpt><trkpt lat="45.6086585" lon="10.3860212"><ele>308.40000000000003</ele><time>2026-04-26T15:02:09.102Z</time></trkpt><trkpt lat="45.6086155" lon="10.3858949"><ele>309.6</ele><time>2026-04-26T15:02:10.102Z</time></trkpt><trkpt lat="45.6085704" lon="10.385763"><ele>310.8</ele><time>2026-04-26T15:02:11.102Z</time></trkpt><trkpt lat="45.608528" lon="10.3856309"><ele>312.0</ele><time>2026-04-26T15:02:12.102Z</time></trkpt><trkpt lat="45.6084877" lon="10.3854953"><ele>312.6</ele><time>2026-04-26T15:02:13.102Z</time></trkpt><trkpt lat="45.6084433" lon="10.3853572"><ele>313.2</ele><time>2026-04-26T15:02:14.102Z</time></trkpt><trkpt lat="45.6083971" lon="10.3852191"><ele>313.8</ele><time>2026-04-26T15:02:15.102Z</time></trkpt><trkpt lat="45.6083525" lon="10.3850809"><ele>314.4</ele><time>2026-04-26T15:02:16.102Z</time></trkpt><trkpt lat="45.6083092" lon="10.3849429"><ele>315.0</ele><time>2026-04-26T15:02:17.102Z</time></trkpt><trkpt lat="45.6082646" lon="10.3848041"><ele>315.4</ele><time>2026-04-26T15:02:18.101Z</time></trkpt><trkpt lat="45.6082185" lon="10.3846652"><ele>315.8</ele><time>2026-04-26T15:02:19.102Z</time></trkpt><trkpt lat="45.6081726" lon="10.3845258"><ele>316.2</ele><time>2026-04-26T15:02:20.102Z</time></trkpt><trkpt lat="45.6081297" lon="10.3843909"><ele>316.6</ele><time>2026-04-26T15:02:21.102Z</time></trkpt><trkpt lat="45.6080859" lon="10.3842576"><ele>317.0</ele><time>2026-04-26T15:02:22.101Z</time></trkpt><trkpt lat="45.6080377" lon="10.3841207"><ele>317.0</ele><time>2026-04-26T15:02:23.102Z</time></trkpt><trkpt lat="45.6079883" lon="10.3839767"><ele>317.0</ele><time>2026-04-26T15:02:24.102Z</time></trkpt><trkpt lat="45.6079407" lon="10.3838272"><ele>317.0</ele><time>2026-04-26T15:02:25.102Z</time></trkpt><trkpt lat="45.6078889" lon="10.3836719"><ele>317.0</ele><time>2026-04-26T15:02:26.102Z</time></trkpt><trkpt lat="45.6078431" lon="10.3835149"><ele>320.0</ele><time>2026-04-26T15:02:27.102Z</time></trkpt><trkpt lat="45.6077979" lon="10.3833671"><ele>323.0</ele><time>2026-04-26T15:02:28.101Z</time></trkpt><trkpt lat="45.607754" lon="10.3832226"><ele>326.0</ele><time>2026-04-26T15:02:29.102Z</time></trkpt><trkpt lat="45.6077066" lon="10.3830819"><ele>329.0</ele><time>2026-04-26T15:02:30.102Z</time></trkpt><trkpt lat="45.6076558" lon="10.382939"><ele>332.0</ele><time>2026-04-26T15:02:31.101Z</time></trkpt><trkpt lat="45.6076102" lon="10.3827959"><ele>332.0</ele><time>2026-04-26T15:02:32.102Z</time></trkpt><trkpt lat="45.6075647" lon="10.3826433"><ele>332.0</ele><time>2026-04-26T15:02:33.102Z</time></trkpt><trkpt lat="45.6075163" lon="10.3824942"><ele>332.0</ele><time>2026-04-26T15:02:34.102Z</time></trkpt><trkpt lat="45.6074617" lon="10.3823496"><ele>332.0</ele><time>2026-04-26T15:02:35.102Z</time></trkpt><trkpt lat="45.6074088" lon="10.3822057"><ele>332.0</ele><time>2026-04-26T15:02:36.102Z</time></trkpt><trkpt lat="45.6073487" lon="10.3820615"><ele>332.0</ele><time>2026-04-26T15:02:37.102Z</time></trkpt><trkpt lat="45.6072818" lon="10.3819247"><ele>332.0</ele><time>2026-04-26T15:02:38.102Z</time></trkpt><trkpt lat="45.6072146" lon="10.3817937"><ele>332.0</ele><time>2026-04-26T15:02:39.102Z</time></trkpt><trkpt lat="45.6071506" lon="10.3816631"><ele>332.0</ele><time>2026-04-26T15:02:40.102Z</time></trkpt><trkpt lat="45.6070822" lon="10.3815301"><ele>332.0</ele><time>2026-04-26T15:02:41.101Z</time></trkpt><trkpt lat="45.6070137" lon="10.3814034"><ele>332.0</ele><time>2026-04-26T15:02:42.102Z</time></trkpt><trkpt lat="45.6069469" lon="10.3812752"><ele>332.0</ele><time>2026-04-26T15:02:43.102Z</time></trkpt><trkpt lat="45.6068817" lon="10.3811433"><ele>334.0</ele><time>2026-04-26T15:02:44.102Z</time></trkpt><trkpt lat="45.6068154" lon="10.3810195"><ele>336.0</ele><time>2026-04-26T15:02:45.102Z</time></trkpt><trkpt lat="45.6067616" lon="10.3809002"><ele>338.0</ele><time>2026-04-26T15:02:46.102Z</time></trkpt><trkpt lat="45.6067192" lon="10.3807789"><ele>340.0</ele><time>2026-04-26T15:02:47.102Z</time></trkpt><trkpt lat="45.606696" lon="10.3806398"><ele>342.0</ele><time>2026-04-26T15:02:48.101Z</time></trkpt><trkpt lat="45.6066885" lon="10.3804849"><ele>342.0</ele><time>2026-04-26T15:02:49.102Z</time></trkpt><trkpt lat="45.6066961" lon="10.3803343"><ele>342.0</ele><time>2026-04-26T15:02:50.102Z</time></trkpt><trkpt lat="45.606705" lon="10.3801915"><ele>342.0</ele><time>2026-04-26T15:02:51.102Z</time></trkpt><trkpt lat="45.6067192" lon="10.3800497"><ele>342.0</ele><time>2026-04-26T15:02:52.102Z</time></trkpt><trkpt lat="45.606726" lon="10.3799186"><ele>342.0</ele><time>2026-04-26T15:02:53.102Z</time></trkpt><trkpt lat="45.6067278" lon="10.3797934"><ele>342.0</ele><time>2026-04-26T15:02:54.102Z</time></trkpt><trkpt lat="45.6067125" lon="10.3796686"><ele>342.0</ele><time>2026-04-26T15:02:55.102Z</time></trkpt><trkpt lat="45.6066774" lon="10.3795524"><ele>342.0</ele><time>2026-04-26T15:02:56.102Z</time></trkpt><trkpt lat="45.6066201" lon="10.3794563"><ele>342.0</ele><time>2026-04-26T15:02:57.101Z</time></trkpt><trkpt lat="45.606547" lon="10.3793926"><ele>342.0</ele><time>2026-04-26T15:02:58.102Z</time></trkpt><trkpt lat="45.606472" lon="10.3793384"><ele>342.0</ele><time>2026-04-26T15:02:59.102Z</time></trkpt><trkpt lat="45.6064029" lon="10.3792687"><ele>342.0</ele><time>2026-04-26T15:03:00.101Z</time></trkpt><trkpt lat="45.6063499" lon="10.3791834"><ele>342.0</ele><time>2026-04-26T15:03:01.101Z</time></trkpt><trkpt lat="45.6063109" lon="10.3790871"><ele>342.0</ele><time>2026-04-26T15:03:02.102Z</time></trkpt><trkpt lat="45.6062833" lon="10.3789851"><ele>342.0</ele><time>2026-04-26T15:03:03.102Z</time></trkpt><trkpt lat="45.606269" lon="10.3788692"><ele>342.0</ele><time>2026-04-26T15:03:04.102Z</time></trkpt><trkpt lat="45.6062757" lon="10.3787408"><ele>342.0</ele><time>2026-04-26T15:03:05.101Z</time></trkpt><trkpt lat="45.6063018" lon="10.3786128"><ele>342.40000000000003</ele><time>2026-04-26T15:03:06.102Z</time></trkpt><trkpt lat="45.6063329" lon="10.378489"><ele>342.8</ele><time>2026-04-26T15:03:07.102Z</time></trkpt><trkpt lat="45.6063641" lon="10.378361"><ele>343.2</ele><time>2026-04-26T15:03:08.101Z</time></trkpt><trkpt lat="45.6063954" lon="10.3782385"><ele>343.6</ele><time>2026-04-26T15:03:09.102Z</time></trkpt><trkpt lat="45.6064281" lon="10.3781227"><ele>344.0</ele><time>2026-04-26T15:03:10.102Z</time></trkpt><trkpt lat="45.6064497" lon="10.3780026"><ele>344.6666666666667</ele><time>2026-04-26T15:03:11.102Z</time></trkpt><trkpt lat="45.6064536" lon="10.3778814"><ele>345.33333333333337</ele><time>2026-04-26T15:03:12.102Z</time></trkpt><trkpt lat="45.6064336" lon="10.3777644"><ele>346.0</ele><time>2026-04-26T15:03:13.102Z</time></trkpt><trkpt lat="45.6064005" lon="10.3776568"><ele>346.6666666666667</ele><time>2026-04-26T15:03:14.101Z</time></trkpt><trkpt lat="45.6063452" lon="10.3775628"><ele>347.3333333333333</ele><time>2026-04-26T15:03:15.102Z</time></trkpt><trkpt lat="45.6062771" lon="10.3774869"><ele>348.0</ele><time>2026-04-26T15:03:16.102Z</time></trkpt><trkpt lat="45.6062035" lon="10.3774206"><ele>350.0</ele><time>2026-04-26T15:03:17.102Z</time></trkpt><trkpt lat="45.6061341" lon="10.3773404"><ele>352.0</ele><time>2026-04-26T15:03:18.102Z</time></trkpt><trkpt lat="45.6060704" lon="10.3772418"><ele>354.0</ele><time>2026-04-26T15:03:19.102Z</time></trkpt><trkpt lat="45.6060226" lon="10.3771343"><ele>356.0</ele><time>2026-04-26T15:03:20.102Z</time></trkpt><trkpt lat="45.6059945" lon="10.3770171"><ele>358.0</ele><time>2026-04-26T15:03:21.102Z</time></trkpt><trkpt lat="45.6059765" lon="10.3768982"><ele>360.0</ele><time>2026-04-26T15:03:22.101Z</time></trkpt><trkpt lat="45.605958" lon="10.3767813"><ele>360.0</ele><time>2026-04-26T15:03:23.102Z</time></trkpt><trkpt lat="45.6059411" lon="10.3766465"><ele>360.0</ele><time>2026-04-26T15:03:24.102Z</time></trkpt><trkpt lat="45.6059228" lon="10.3764802"><ele>360.0</ele><time>2026-04-26T15:03:25.102Z</time></trkpt><trkpt lat="45.6059153" lon="10.3762752"><ele>360.0</ele><time>2026-04-26T15:03:26.102Z</time></trkpt><trkpt lat="45.6059131" lon="10.3760395"><ele>360.0</ele><time>2026-04-26T15:03:27.101Z</time></trkpt><trkpt lat="45.6059043" lon="10.3757962"><ele>360.0</ele><time>2026-04-26T15:03:28.102Z</time></trkpt><trkpt lat="45.6058672" lon="10.3755236"><ele>360.0</ele><time>2026-04-26T15:03:29.102Z</time></trkpt><trkpt lat="45.6058142" lon="10.3752301"><ele>361.6666666666667</ele><time>2026-04-26T15:03:30.101Z</time></trkpt><trkpt lat="45.6057687" lon="10.3749226"><ele>363.33333333333337</ele><time>2026-04-26T15:03:31.102Z</time></trkpt><trkpt lat="45.6057475" lon="10.3746368"><ele>365.0</ele><time>2026-04-26T15:03:32.101Z</time></trkpt><trkpt lat="45.6057321" lon="10.3743718"><ele>366.33333333333337</ele><time>2026-04-26T15:03:33.102Z</time></trkpt><trkpt lat="45.6057037" lon="10.3741055"><ele>367.6666666666667</ele><time>2026-04-26T15:03:34.102Z</time></trkpt><trkpt lat="45.6056691" lon="10.3738743"><ele>369.0</ele><time>2026-04-26T15:03:35.101Z</time></trkpt><trkpt lat="45.6056164" lon="10.3736608"><ele>370.0</ele><time>2026-04-26T15:03:36.102Z</time></trkpt><trkpt lat="45.6055463" lon="10.3734789"><ele>371.0</ele><time>2026-04-26T15:03:37.102Z</time></trkpt><trkpt lat="45.6054604" lon="10.3733412"><ele>372.0</ele><time>2026-04-26T15:03:38.102Z</time></trkpt><trkpt lat="45.6053525" lon="10.3732533"><ele>373.0</ele><time>2026-04-26T15:03:39.102Z</time></trkpt><trkpt lat="45.6052263" lon="10.373206"><ele>375.0</ele><time>2026-04-26T15:03:40.101Z</time></trkpt><trkpt lat="45.6050987" lon="10.3731868"><ele>377.0</ele><time>2026-04-26T15:03:41.102Z</time></trkpt><trkpt lat="45.6049872" lon="10.3732074"><ele>379.0</ele><time>2026-04-26T15:03:42.102Z</time></trkpt><trkpt lat="45.6049014" lon="10.3732849"><ele>381.0</ele><time>2026-04-26T15:03:43.102Z</time></trkpt><trkpt lat="45.604851" lon="10.3734077"><ele>383.0</ele><time>2026-04-26T15:03:44.102Z</time></trkpt><trkpt lat="45.6048154" lon="10.3735319"><ele>383.0</ele><time>2026-04-26T15:03:45.102Z</time></trkpt><trkpt lat="45.6047636" lon="10.3735953"><ele>383.0</ele><time>2026-04-26T15:03:46.102Z</time></trkpt><trkpt lat="45.6046722" lon="10.3735188"><ele>383.0</ele><time>2026-04-26T15:03:48.102Z</time></trkpt><trkpt lat="45.6046366" lon="10.3733783"><ele>383.0</ele><time>2026-04-26T15:03:49.102Z</time></trkpt><trkpt lat="45.6045943" lon="10.3731973"><ele>383.0</ele><time>2026-04-26T15:03:50.102Z</time></trkpt><trkpt lat="45.6045748" lon="10.3730026"><ele>384.4</ele><time>2026-04-26T15:03:51.102Z</time></trkpt><trkpt lat="45.6045808" lon="10.3728273"><ele>385.79999999999995</ele><time>2026-04-26T15:03:52.101Z</time></trkpt><trkpt lat="45.6046193" lon="10.3726957"><ele>387.2</ele><time>2026-04-26T15:03:53.101Z</time></trkpt><trkpt lat="45.6046858" lon="10.3726155"><ele>388.6</ele><time>2026-04-26T15:03:54.102Z</time></trkpt><trkpt lat="45.6047731" lon="10.3725318"><ele>390.0</ele><time>2026-04-26T15:03:55.101Z</time></trkpt><trkpt lat="45.604843" lon="10.3724149"><ele>390.0</ele><time>2026-04-26T15:03:56.102Z</time></trkpt><trkpt lat="45.6048809" lon="10.3722663"><ele>390.0</ele><time>2026-04-26T15:03:57.102Z</time></trkpt><trkpt lat="45.6048932" lon="10.3720593"><ele>390.0</ele><time>2026-04-26T15:03:58.102Z</time></trkpt><trkpt lat="45.604909" lon="10.3717963"><ele>390.0</ele><time>2026-04-26T15:03:59.102Z</time></trkpt><trkpt lat="45.6049201" lon="10.371514"><ele>395.33333333333337</ele><time>2026-04-26T15:04:00.101Z</time></trkpt><trkpt lat="45.6049441" lon="10.3712642"><ele>400.6666666666667</ele><time>2026-04-26T15:04:01.102Z</time></trkpt><trkpt lat="45.6049945" lon="10.3710518"><ele>406.0</ele><time>2026-04-26T15:04:02.102Z</time></trkpt><trkpt lat="45.6050453" lon="10.3708878"><ele>406.0</ele><time>2026-04-26T15:04:03.102Z</time></trkpt><trkpt lat="45.6050603" lon="10.3707595"><ele>406.0</ele><time>2026-04-26T15:04:04.102Z</time></trkpt><trkpt lat="45.6049673" lon="10.3706835"><ele>406.0</ele><time>2026-04-26T15:04:06.102Z</time></trkpt><trkpt lat="45.6048881" lon="10.3707482"><ele>406.0</ele><time>2026-04-26T15:04:07.102Z</time></trkpt><trkpt lat="45.6048157" lon="10.3708802"><ele>406.0</ele><time>2026-04-26T15:04:08.102Z</time></trkpt><trkpt lat="45.6047771" lon="10.3710506"><ele>406.0</ele><time>2026-04-26T15:04:09.102Z</time></trkpt><trkpt lat="45.6047715" lon="10.3712676"><ele>406.0</ele><time>2026-04-26T15:04:10.102Z</time></trkpt><trkpt lat="45.6047462" lon="10.3714585"><ele>406.0</ele><time>2026-04-26T15:04:11.102Z</time></trkpt><trkpt lat="45.6046864" lon="10.3716774"><ele>405.0</ele><time>2026-04-26T15:04:12.102Z</time></trkpt><trkpt lat="45.604609" lon="10.3719016"><ele>404.0</ele><time>2026-04-26T15:04:13.102Z</time></trkpt><trkpt lat="45.6045551" lon="10.3720613"><ele>403.0</ele><time>2026-04-26T15:04:14.102Z</time></trkpt><trkpt lat="45.6045112" lon="10.3721732"><ele>402.0</ele><time>2026-04-26T15:04:15.102Z</time></trkpt><trkpt lat="45.6044252" lon="10.3722293"><ele>402.0</ele><time>2026-04-26T15:04:17.102Z</time></trkpt><trkpt lat="45.6044052" lon="10.3721292"><ele>402.0</ele><time>2026-04-26T15:04:19.102Z</time></trkpt><trkpt lat="45.6044486" lon="10.3720103"><ele>402.0</ele><time>2026-04-26T15:04:21.101Z</time></trkpt><trkpt lat="45.6045114" lon="10.3719153"><ele>402.0</ele><time>2026-04-26T15:04:22.102Z</time></trkpt><trkpt lat="45.6045555" lon="10.3718018"><ele>402.0</ele><time>2026-04-26T15:04:23.102Z</time></trkpt><trkpt lat="45.6045946" lon="10.3716688"><ele>402.0</ele><time>2026-04-26T15:04:24.102Z</time></trkpt><trkpt lat="45.6046204" lon="10.3715257"><ele>402.0</ele><time>2026-04-26T15:04:25.102Z</time></trkpt><trkpt lat="45.6046251" lon="10.3713682"><ele>402.0</ele><time>2026-04-26T15:04:26.102Z</time></trkpt><trkpt lat="45.6046004" lon="10.3712118"><ele>402.0</ele><time>2026-04-26T15:04:27.102Z</time></trkpt><trkpt lat="45.6045584" lon="10.3710511"><ele>402.0</ele><time>2026-04-26T15:04:28.102Z</time></trkpt><trkpt lat="45.6045203" lon="10.3708891"><ele>412.5</ele><time>2026-04-26T15:04:29.102Z</time></trkpt><trkpt lat="45.6044822" lon="10.370718"><ele>423.0</ele><time>2026-04-26T15:04:30.102Z</time></trkpt><trkpt lat="45.6044497" lon="10.3705374"><ele>433.5</ele><time>2026-04-26T15:04:31.101Z</time></trkpt><trkpt lat="45.6044202" lon="10.3703513"><ele>444.0</ele><time>2026-04-26T15:04:32.101Z</time></trkpt><trkpt lat="45.6044025" lon="10.3701579"><ele>444.25</ele><time>2026-04-26T15:04:33.102Z</time></trkpt><trkpt lat="45.6043932" lon="10.3699631"><ele>444.5</ele><time>2026-04-26T15:04:34.102Z</time></trkpt><trkpt lat="45.6043799" lon="10.3697698"><ele>444.75</ele><time>2026-04-26T15:04:35.102Z</time></trkpt><trkpt lat="45.6043567" lon="10.3695801"><ele>445.0</ele><time>2026-04-26T15:04:36.102Z</time></trkpt><trkpt lat="45.604279" lon="10.3694134"><ele>445.0</ele><time>2026-04-26T15:04:37.102Z</time></trkpt><trkpt lat="45.6042183" lon="10.3692407"><ele>445.0</ele><time>2026-04-26T15:04:38.101Z</time></trkpt><trkpt lat="45.6041293" lon="10.3691059"><ele>445.0</ele><time>2026-04-26T15:04:39.102Z</time></trkpt><trkpt lat="45.6040578" lon="10.3689778"><ele>445.0</ele><time>2026-04-26T15:04:40.101Z</time></trkpt><trkpt lat="45.6040097" lon="10.3688443"><ele>445.0</ele><time>2026-04-26T15:04:41.101Z</time></trkpt><trkpt lat="45.6039879" lon="10.3687059"><ele>445.0</ele><time>2026-04-26T15:04:42.102Z</time></trkpt><trkpt lat="45.6039984" lon="10.3685552"><ele>445.0</ele><time>2026-04-26T15:04:43.102Z</time></trkpt><trkpt lat="45.604034" lon="10.3684069"><ele>445.0</ele><time>2026-04-26T15:04:44.102Z</time></trkpt><trkpt lat="45.6040878" lon="10.3682672"><ele>445.0</ele><time>2026-04-26T15:04:45.102Z</time></trkpt><trkpt lat="45.6041699" lon="10.3681779"><ele>445.0</ele><time>2026-04-26T15:04:46.102Z</time></trkpt><trkpt lat="45.6042772" lon="10.3681425"><ele>445.0</ele><time>2026-04-26T15:04:47.102Z</time></trkpt><trkpt lat="45.6044056" lon="10.3681456"><ele>445.0</ele><time>2026-04-26T15:04:48.102Z</time></trkpt><trkpt lat="45.6045536" lon="10.3681498"><ele>445.0</ele><time>2026-04-26T15:04:49.102Z</time></trkpt><trkpt lat="45.6047045" lon="10.3681503"><ele>443.5</ele><time>2026-04-26T15:04:50.102Z</time></trkpt><trkpt lat="45.6048538" lon="10.3681511"><ele>442.0</ele><time>2026-04-26T15:04:51.102Z</time></trkpt><trkpt lat="45.6049919" lon="10.3681617"><ele>440.5</ele><time>2026-04-26T15:04:52.102Z</time></trkpt><trkpt lat="45.6051176" lon="10.3681639"><ele>439.0</ele><time>2026-04-26T15:04:53.101Z</time></trkpt><trkpt lat="45.6052251" lon="10.3681629"><ele>439.00000000000006</ele><time>2026-04-26T15:04:54.101Z</time></trkpt><trkpt lat="45.6053109" lon="10.3681518"><ele>439.0</ele><time>2026-04-26T15:04:55.102Z</time></trkpt><trkpt lat="45.6053587" lon="10.3680884"><ele>439.0</ele><time>2026-04-26T15:04:56.102Z</time></trkpt><trkpt lat="45.6053165" lon="10.3679514"><ele>439.0</ele><time>2026-04-26T15:04:58.101Z</time></trkpt><trkpt lat="45.6052481" lon="10.3679486"><ele>439.00000000000006</ele><time>2026-04-26T15:04:59.102Z</time></trkpt><trkpt lat="45.6051573" lon="10.3679751"><ele>439.0</ele><time>2026-04-26T15:05:00.102Z</time></trkpt><trkpt lat="45.6050466" lon="10.3679636"><ele>446.75</ele><time>2026-04-26T15:05:01.102Z</time></trkpt><trkpt lat="45.6049273" lon="10.3679105"><ele>454.5</ele><time>2026-04-26T15:05:02.102Z</time></trkpt><trkpt lat="45.6048013" lon="10.3678333"><ele>462.25</ele><time>2026-04-26T15:05:03.102Z</time></trkpt><trkpt lat="45.6046669" lon="10.3677498"><ele>470.0</ele><time>2026-04-26T15:05:04.102Z</time></trkpt><trkpt lat="45.6045181" lon="10.3676773"><ele>470.0</ele><time>2026-04-26T15:05:05.102Z</time></trkpt><trkpt lat="45.6043521" lon="10.3676161"><ele>470.0</ele><time>2026-04-26T15:05:06.102Z</time></trkpt><trkpt lat="45.6041818" lon="10.3675596"><ele>470.0</ele><time>2026-04-26T15:05:07.102Z</time></trkpt><trkpt lat="45.6040166" lon="10.3675084"><ele>470.0</ele><time>2026-04-26T15:05:08.102Z</time></trkpt><trkpt lat="45.6038694" lon="10.3674668"><ele>470.0</ele><time>2026-04-26T15:05:09.102Z</time></trkpt><trkpt lat="45.6037467" lon="10.3674377"><ele>470.0</ele><time>2026-04-26T15:05:10.102Z</time></trkpt><trkpt lat="45.6036498" lon="10.3674084"><ele>470.0</ele><time>2026-04-26T15:05:11.102Z</time></trkpt><trkpt lat="45.60359" lon="10.3673555"><ele>470.0</ele><time>2026-04-26T15:05:12.102Z</time></trkpt><trkpt lat="45.6036059" lon="10.3672416"><ele>470.0</ele><time>2026-04-26T15:05:14.102Z</time></trkpt><trkpt lat="45.6037348" lon="10.3672375"><ele>470.0</ele><time>2026-04-26T15:05:16.102Z</time></trkpt><trkpt lat="45.6038666" lon="10.3672678"><ele>470.0</ele><time>2026-04-26T15:05:17.102Z</time></trkpt><trkpt lat="45.6039872" lon="10.3672925"><ele>470.0</ele><time>2026-04-26T15:05:18.102Z</time></trkpt><trkpt lat="45.6041578" lon="10.3673074"><ele>470.0</ele><time>2026-04-26T15:05:19.101Z</time></trkpt><trkpt lat="45.6043232" lon="10.3673317"><ele>470.0</ele><time>2026-04-26T15:05:20.102Z</time></trkpt><trkpt lat="45.6045016" lon="10.3673525"><ele>470.0</ele><time>2026-04-26T15:05:21.102Z</time></trkpt><trkpt lat="45.6046746" lon="10.3673683"><ele>470.0</ele><time>2026-04-26T15:05:22.102Z</time></trkpt><trkpt lat="45.6048344" lon="10.3673768"><ele>470.0</ele><time>2026-04-26T15:05:23.102Z</time></trkpt><trkpt lat="45.6049606" lon="10.3673552"><ele>470.0</ele><time>2026-04-26T15:05:24.102Z</time></trkpt><trkpt lat="45.6050806" lon="10.3672867"><ele>470.0</ele><time>2026-04-26T15:05:25.101Z</time></trkpt><trkpt lat="45.6051743" lon="10.3671611"><ele>471.66666666666663</ele><time>2026-04-26T15:05:26.102Z</time></trkpt><trkpt lat="45.6052505" lon="10.3669954"><ele>473.33333333333337</ele><time>2026-04-26T15:05:27.102Z</time></trkpt><trkpt lat="45.6053442" lon="10.3668183"><ele>475.0</ele><time>2026-04-26T15:05:28.102Z</time></trkpt><trkpt lat="45.6054734" lon="10.3666627"><ele>475.0</ele><time>2026-04-26T15:05:29.102Z</time></trkpt><trkpt lat="45.6056343" lon="10.3665183"><ele>475.0</ele><time>2026-04-26T15:05:30.102Z</time></trkpt><trkpt lat="45.6058006" lon="10.3663739"><ele>475.0</ele><time>2026-04-26T15:05:31.101Z</time></trkpt><trkpt lat="45.6059719" lon="10.3662016"><ele>477.33333333333337</ele><time>2026-04-26T15:05:32.102Z</time></trkpt><trkpt lat="45.6061297" lon="10.3659914"><ele>479.66666666666663</ele><time>2026-04-26T15:05:33.101Z</time></trkpt><trkpt lat="45.6062855" lon="10.3657608"><ele>482.0</ele><time>2026-04-26T15:05:34.101Z</time></trkpt><trkpt lat="45.6064185" lon="10.3655437"><ele>493.66666666666663</ele><time>2026-04-26T15:05:35.102Z</time></trkpt><trkpt lat="45.6065258" lon="10.3653393"><ele>505.33333333333337</ele><time>2026-04-26T15:05:36.102Z</time></trkpt><trkpt lat="45.6066258" lon="10.3651805"><ele>517.0</ele><time>2026-04-26T15:05:37.102Z</time></trkpt><trkpt lat="45.6067483" lon="10.3650585"><ele>517.0</ele><time>2026-04-26T15:05:38.102Z</time></trkpt><trkpt lat="45.6068959" lon="10.3649707"><ele>517.0</ele><time>2026-04-26T15:05:39.102Z</time></trkpt><trkpt lat="45.6070447" lon="10.3648649"><ele>517.0</ele><time>2026-04-26T15:05:40.102Z</time></trkpt><trkpt lat="45.6071837" lon="10.3646958"><ele>521.0</ele><time>2026-04-26T15:05:41.102Z</time></trkpt><trkpt lat="45.6073238" lon="10.3645064"><ele>525.0</ele><time>2026-04-26T15:05:42.102Z</time></trkpt><trkpt lat="45.6074785" lon="10.364315"><ele>529.0</ele><time>2026-04-26T15:05:43.102Z</time></trkpt><trkpt lat="45.6076352" lon="10.364135"><ele>529.0</ele><time>2026-04-26T15:05:44.102Z</time></trkpt><trkpt lat="45.6077642" lon="10.3639714"><ele>529.0</ele><time>2026-04-26T15:05:45.102Z</time></trkpt><trkpt lat="45.6078554" lon="10.3638133"><ele>529.0</ele><time>2026-04-26T15:05:46.102Z</time></trkpt><trkpt lat="45.6079244" lon="10.3636636"><ele>529.0</ele><time>2026-04-26T15:05:47.102Z</time></trkpt><trkpt lat="45.6080033" lon="10.3635547"><ele>531.5</ele><time>2026-04-26T15:05:48.102Z</time></trkpt><trkpt lat="45.6081039" lon="10.3635003"><ele>534.0</ele><time>2026-04-26T15:05:49.102Z</time></trkpt><trkpt lat="45.6082194" lon="10.3634572"><ele>536.5</ele><time>2026-04-26T15:05:50.102Z</time></trkpt><trkpt lat="45.6083819" lon="10.3634591"><ele>539.0</ele><time>2026-04-26T15:05:51.102Z</time></trkpt><trkpt lat="45.6085258" lon="10.3634413"><ele>536.3333333333333</ele><time>2026-04-26T15:05:52.102Z</time></trkpt><trkpt lat="45.6087068" lon="10.363396"><ele>533.6666666666666</ele><time>2026-04-26T15:05:53.102Z</time></trkpt><trkpt lat="45.6088664" lon="10.3633377"><ele>531.0</ele><time>2026-04-26T15:05:54.101Z</time></trkpt><trkpt lat="45.6089946" lon="10.3632729"><ele>531.0</ele><time>2026-04-26T15:05:55.101Z</time></trkpt><trkpt lat="45.609097" lon="10.3631987"><ele>531.0</ele><time>2026-04-26T15:05:56.101Z</time></trkpt><trkpt lat="45.6091691" lon="10.3631089"><ele>531.0</ele><time>2026-04-26T15:05:57.102Z</time></trkpt><trkpt lat="45.6091923" lon="10.3630125"><ele>531.0</ele><time>2026-04-26T15:05:58.101Z</time></trkpt><trkpt lat="45.6091344" lon="10.3628836"><ele>531.0</ele><time>2026-04-26T15:06:00.102Z</time></trkpt><trkpt lat="45.6089237" lon="10.3629988"><ele>538.75</ele><time>2026-04-26T15:06:02.102Z</time></trkpt><trkpt lat="45.6087955" lon="10.3629842"><ele>546.5</ele><time>2026-04-26T15:06:03.102Z</time></trkpt><trkpt lat="45.6086483" lon="10.3629372"><ele>554.25</ele><time>2026-04-26T15:06:04.102Z</time></trkpt><trkpt lat="45.6085027" lon="10.3628748"><ele>562.0</ele><time>2026-04-26T15:06:05.102Z</time></trkpt><trkpt lat="45.6083548" lon="10.3628546"><ele>563.8000000000001</ele><time>2026-04-26T15:06:06.101Z</time></trkpt><trkpt lat="45.6082332" lon="10.362844"><ele>565.6</ele><time>2026-04-26T15:06:07.102Z</time></trkpt><trkpt lat="45.608138" lon="10.3628345"><ele>567.4000000000001</ele><time>2026-04-26T15:06:08.102Z</time></trkpt><trkpt lat="45.608082" lon="10.3627904"><ele>569.2</ele><time>2026-04-26T15:06:09.102Z</time></trkpt><trkpt lat="45.6080831" lon="10.3626969"><ele>571.0</ele><time>2026-04-26T15:06:11.102Z</time></trkpt><trkpt lat="45.608216" lon="10.3626883"><ele>571.0</ele><time>2026-04-26T15:06:13.102Z</time></trkpt><trkpt lat="45.6083357" lon="10.3626935"><ele>571.0</ele><time>2026-04-26T15:06:14.102Z</time></trkpt><trkpt lat="45.608457" lon="10.3626982"><ele>571.0</ele><time>2026-04-26T15:06:15.102Z</time></trkpt><trkpt lat="45.6086261" lon="10.3626437"><ele>571.0</ele><time>2026-04-26T15:06:16.102Z</time></trkpt><trkpt lat="45.6087868" lon="10.3625795"><ele>568.0</ele><time>2026-04-26T15:06:17.102Z</time></trkpt><trkpt lat="45.6089394" lon="10.3624889"><ele>565.0</ele><time>2026-04-26T15:06:18.102Z</time></trkpt><trkpt lat="45.6090695" lon="10.3623615"><ele>562.0</ele><time>2026-04-26T15:06:19.102Z</time></trkpt><trkpt lat="45.60917" lon="10.3622224"><ele>565.4</ele><time>2026-04-26T15:06:20.102Z</time></trkpt><trkpt lat="45.6092212" lon="10.3620644"><ele>568.8000000000001</ele><time>2026-04-26T15:06:21.102Z</time></trkpt><trkpt lat="45.6092596" lon="10.3619087"><ele>572.2</ele><time>2026-04-26T15:06:22.102Z</time></trkpt><trkpt lat="45.6093095" lon="10.3617682"><ele>575.6</ele><time>2026-04-26T15:06:23.101Z</time></trkpt><trkpt lat="45.6093613" lon="10.3616804"><ele>579.0</ele><time>2026-04-26T15:06:24.102Z</time></trkpt><trkpt lat="45.6094201" lon="10.3616306"><ele>578.0</ele><time>2026-04-26T15:06:25.102Z</time></trkpt><trkpt lat="45.6094925" lon="10.3615908"><ele>577.0</ele><time>2026-04-26T15:06:27.101Z</time></trkpt><trkpt lat="45.6095571" lon="10.3614933"><ele>576.0</ele><time>2026-04-26T15:06:55.101Z</time></trkpt><trkpt lat="45.6095837" lon="10.3614061"><ele>575.0</ele><time>2026-04-26T15:06:56.102Z</time></trkpt><trkpt lat="45.6096352" lon="10.3613213"><ele>574.0</ele><time>2026-04-26T15:06:57.102Z</time></trkpt><trkpt lat="45.6097175" lon="10.3612463"><ele>573.0</ele><time>2026-04-26T15:06:58.102Z</time></trkpt><trkpt lat="45.6098266" lon="10.3612168"><ele>569.75</ele><time>2026-04-26T15:06:59.102Z</time></trkpt><trkpt lat="45.6099534" lon="10.3612112"><ele>566.5</ele><time>2026-04-26T15:07:00.101Z</time></trkpt><trkpt lat="45.6100971" lon="10.3612102"><ele>563.25</ele><time>2026-04-26T15:07:01.102Z</time></trkpt><trkpt lat="45.6102552" lon="10.3612029"><ele>560.0</ele><time>2026-04-26T15:07:02.102Z</time></trkpt><trkpt lat="45.6104173" lon="10.3611936"><ele>560.0</ele><time>2026-04-26T15:07:03.102Z</time></trkpt><trkpt lat="45.6105743" lon="10.3611867"><ele>560.0</ele><time>2026-04-26T15:07:04.102Z</time></trkpt><trkpt lat="45.6107313" lon="10.3611773"><ele>560.0</ele><time>2026-04-26T15:07:05.102Z</time></trkpt><trkpt lat="45.6108822" lon="10.3611574"><ele>560.0</ele><time>2026-04-26T15:07:06.102Z</time></trkpt><trkpt lat="45.6110211" lon="10.3611089"><ele>560.0</ele><time>2026-04-26T15:07:07.102Z</time></trkpt><trkpt lat="45.611149" lon="10.3610294"><ele>560.0</ele><time>2026-04-26T15:07:08.102Z</time></trkpt><trkpt lat="45.6112669" lon="10.3609059"><ele>560.0</ele><time>2026-04-26T15:07:09.101Z</time></trkpt><trkpt lat="45.6113595" lon="10.3607503"><ele>560.6666666666666</ele><time>2026-04-26T15:07:10.102Z</time></trkpt><trkpt lat="45.6114359" lon="10.3605534"><ele>561.3333333333334</ele><time>2026-04-26T15:07:11.102Z</time></trkpt><trkpt lat="45.6115049" lon="10.3603395"><ele>562.0</ele><time>2026-04-26T15:07:12.102Z</time></trkpt><trkpt lat="45.6115726" lon="10.3601111"><ele>562.0</ele><time>2026-04-26T15:07:13.102Z</time></trkpt><trkpt lat="45.6116463" lon="10.3598771"><ele>562.0</ele><time>2026-04-26T15:07:14.102Z</time></trkpt><trkpt lat="45.6117326" lon="10.3596362"><ele>562.0</ele><time>2026-04-26T15:07:15.102Z</time></trkpt><trkpt lat="45.611838" lon="10.3594008"><ele>562.3333333333334</ele><time>2026-04-26T15:07:16.101Z</time></trkpt><trkpt lat="45.6119478" lon="10.3591604"><ele>562.6666666666666</ele><time>2026-04-26T15:07:17.102Z</time></trkpt><trkpt lat="45.6120616" lon="10.3589219"><ele>563.0</ele><time>2026-04-26T15:07:18.102Z</time></trkpt><trkpt lat="45.6121748" lon="10.3586874"><ele>563.0</ele><time>2026-04-26T15:07:19.101Z</time></trkpt><trkpt lat="45.6122811" lon="10.3584595"><ele>563.0</ele><time>2026-04-26T15:07:20.102Z</time></trkpt><trkpt lat="45.6123811" lon="10.3582555"><ele>563.0</ele><time>2026-04-26T15:07:21.102Z</time></trkpt><trkpt lat="45.6124707" lon="10.3580535"><ele>559.25</ele><time>2026-04-26T15:07:22.102Z</time></trkpt><trkpt lat="45.6125546" lon="10.3578728"><ele>555.5</ele><time>2026-04-26T15:07:23.102Z</time></trkpt><trkpt lat="45.6126221" lon="10.3577221"><ele>551.75</ele><time>2026-04-26T15:07:24.102Z</time></trkpt><trkpt lat="45.6126828" lon="10.3575929"><ele>548.0</ele><time>2026-04-26T15:07:25.102Z</time></trkpt><trkpt lat="45.6127258" lon="10.3574712"><ele>548.0</ele><time>2026-04-26T15:07:26.102Z</time></trkpt><trkpt lat="45.6127381" lon="10.3573489"><ele>548.0</ele><time>2026-04-26T15:07:27.102Z</time></trkpt><trkpt lat="45.6127405" lon="10.3572383"><ele>548.0</ele><time>2026-04-26T15:07:28.102Z</time></trkpt><trkpt lat="45.6126125" lon="10.3571997"><ele>548.0</ele><time>2026-04-26T15:07:29.102Z</time></trkpt><trkpt lat="45.6125292" lon="10.3572186"><ele>548.0</ele><time>2026-04-26T15:07:30.102Z</time></trkpt><trkpt lat="45.6124629" lon="10.3573127"><ele>548.0</ele><time>2026-04-26T15:07:31.102Z</time></trkpt><trkpt lat="45.6124205" lon="10.3574615"><ele>548.0</ele><time>2026-04-26T15:07:32.102Z</time></trkpt><trkpt lat="45.612381" lon="10.3576326"><ele>548.0</ele><time>2026-04-26T15:07:33.101Z</time></trkpt><trkpt lat="45.6123298" lon="10.357843"><ele>548.0</ele><time>2026-04-26T15:07:34.102Z</time></trkpt><trkpt lat="45.6122488" lon="10.358033"><ele>553.0</ele><time>2026-04-26T15:07:35.102Z</time></trkpt><trkpt lat="45.6121488" lon="10.3582194"><ele>558.0</ele><time>2026-04-26T15:07:36.102Z</time></trkpt><trkpt lat="45.6120244" lon="10.358382"><ele>563.0</ele><time>2026-04-26T15:07:37.102Z</time></trkpt><trkpt lat="45.6118815" lon="10.358513"><ele>552.0</ele><time>2026-04-26T15:07:38.101Z</time></trkpt><trkpt lat="45.6117325" lon="10.358623"><ele>541.0</ele><time>2026-04-26T15:07:39.102Z</time></trkpt><trkpt lat="45.611596" lon="10.3587346"><ele>530.0</ele><time>2026-04-26T15:07:40.102Z</time></trkpt><trkpt lat="45.6114804" lon="10.35886"><ele>534.0</ele><time>2026-04-26T15:07:41.102Z</time></trkpt><trkpt lat="45.6113839" lon="10.3590096"><ele>538.0</ele><time>2026-04-26T15:07:42.102Z</time></trkpt><trkpt lat="45.6113169" lon="10.3591981"><ele>542.0</ele><time>2026-04-26T15:07:43.101Z</time></trkpt><trkpt lat="45.6112577" lon="10.3593898"><ele>546.0</ele><time>2026-04-26T15:07:44.102Z</time></trkpt><trkpt lat="45.6111814" lon="10.3595571"><ele>544.75</ele><time>2026-04-26T15:07:45.102Z</time></trkpt><trkpt lat="45.6110838" lon="10.3596932"><ele>543.5</ele><time>2026-04-26T15:07:46.102Z</time></trkpt><trkpt lat="45.6109592" lon="10.3597833"><ele>542.25</ele><time>2026-04-26T15:07:47.102Z</time></trkpt><trkpt lat="45.6108128" lon="10.3598377"><ele>541.0</ele><time>2026-04-26T15:07:48.102Z</time></trkpt><trkpt lat="45.6106519" lon="10.3598775"><ele>541.0</ele><time>2026-04-26T15:07:49.102Z</time></trkpt><trkpt lat="45.6104863" lon="10.3599219"><ele>541.0</ele><time>2026-04-26T15:07:50.102Z</time></trkpt><trkpt lat="45.6103207" lon="10.3599595"><ele>541.0</ele><time>2026-04-26T15:07:51.101Z</time></trkpt><trkpt lat="45.6101628" lon="10.3599843"><ele>539.6</ele><time>2026-04-26T15:07:52.102Z</time></trkpt><trkpt lat="45.6100272" lon="10.3600072"><ele>538.2</ele><time>2026-04-26T15:07:53.102Z</time></trkpt><trkpt lat="45.6099118" lon="10.3600333"><ele>536.8</ele><time>2026-04-26T15:07:54.102Z</time></trkpt><trkpt lat="45.609815" lon="10.3600527"><ele>535.4</ele><time>2026-04-26T15:07:55.102Z</time></trkpt><trkpt lat="45.609732" lon="10.3600419"><ele>534.0</ele><time>2026-04-26T15:07:56.102Z</time></trkpt><trkpt lat="45.6096664" lon="10.3599959"><ele>534.0</ele><time>2026-04-26T15:07:57.102Z</time></trkpt><trkpt lat="45.6096384" lon="10.3599052"><ele>534.0</ele><time>2026-04-26T15:07:58.101Z</time></trkpt><trkpt lat="45.6096612" lon="10.3598067"><ele>534.0</ele><time>2026-04-26T15:07:59.102Z</time></trkpt><trkpt lat="45.6097224" lon="10.3597462"><ele>534.0</ele><time>2026-04-26T15:08:00.101Z</time></trkpt><trkpt lat="45.6098151" lon="10.3597233"><ele>534.0</ele><time>2026-04-26T15:08:01.102Z</time></trkpt><trkpt lat="45.6099319" lon="10.3597253"><ele>534.0</ele><time>2026-04-26T15:08:02.102Z</time></trkpt><trkpt lat="45.6100577" lon="10.3597201"><ele>530.6666666666666</ele><time>2026-04-26T15:08:03.102Z</time></trkpt><trkpt lat="45.610204" lon="10.3596875"><ele>527.3333333333333</ele><time>2026-04-26T15:08:04.102Z</time></trkpt><trkpt lat="45.6103568" lon="10.3596176"><ele>524.0</ele><time>2026-04-26T15:08:05.102Z</time></trkpt><trkpt lat="45.6105174" lon="10.3595069"><ele>523.6666666666666</ele><time>2026-04-26T15:08:06.102Z</time></trkpt><trkpt lat="45.6106758" lon="10.3593512"><ele>523.3333333333334</ele><time>2026-04-26T15:08:07.102Z</time></trkpt><trkpt lat="45.6108069" lon="10.3591759"><ele>523.0</ele><time>2026-04-26T15:08:08.102Z</time></trkpt><trkpt lat="45.6109068" lon="10.3590158"><ele>524.75</ele><time>2026-04-26T15:08:09.102Z</time></trkpt><trkpt lat="45.6109882" lon="10.3588615"><ele>526.5</ele><time>2026-04-26T15:08:10.102Z</time></trkpt><trkpt lat="45.6110663" lon="10.3587043"><ele>528.25</ele><time>2026-04-26T15:08:11.101Z</time></trkpt><trkpt lat="45.6111436" lon="10.3585559"><ele>530.0</ele><time>2026-04-26T15:08:12.101Z</time></trkpt><trkpt lat="45.6112165" lon="10.3584157"><ele>530.0</ele><time>2026-04-26T15:08:13.102Z</time></trkpt><trkpt lat="45.6112865" lon="10.3582723"><ele>530.0</ele><time>2026-04-26T15:08:14.102Z</time></trkpt><trkpt lat="45.6113561" lon="10.358133"><ele>530.0</ele><time>2026-04-26T15:08:15.101Z</time></trkpt><trkpt lat="45.611422" lon="10.3579953"><ele>530.0</ele><time>2026-04-26T15:08:16.102Z</time></trkpt><trkpt lat="45.6114874" lon="10.3578569"><ele>526.75</ele><time>2026-04-26T15:08:17.102Z</time></trkpt><trkpt lat="45.6115486" lon="10.3577218"><ele>523.5</ele><time>2026-04-26T15:08:18.102Z</time></trkpt><trkpt lat="45.6116026" lon="10.357576"><ele>520.25</ele><time>2026-04-26T15:08:19.102Z</time></trkpt><trkpt lat="45.6116536" lon="10.3574317"><ele>517.0</ele><time>2026-04-26T15:08:20.101Z</time></trkpt><trkpt lat="45.611702" lon="10.3572873"><ele>515.0</ele><time>2026-04-26T15:08:21.101Z</time></trkpt><trkpt lat="45.6117505" lon="10.3571482"><ele>513.0</ele><time>2026-04-26T15:08:22.102Z</time></trkpt><trkpt lat="45.6117966" lon="10.3570067"><ele>511.00000000000006</ele><time>2026-04-26T15:08:23.101Z</time></trkpt><trkpt lat="45.6118422" lon="10.3568634"><ele>509.0</ele><time>2026-04-26T15:08:24.101Z</time></trkpt><trkpt lat="45.6118856" lon="10.3567181"><ele>507.0</ele><time>2026-04-26T15:08:25.102Z</time></trkpt><trkpt lat="45.6119303" lon="10.3565667"><ele>507.0</ele><time>2026-04-26T15:08:26.102Z</time></trkpt><trkpt lat="45.6119808" lon="10.356414"><ele>507.0</ele><time>2026-04-26T15:08:27.102Z</time></trkpt><trkpt lat="45.6120322" lon="10.3562537"><ele>507.0</ele><time>2026-04-26T15:08:28.102Z</time></trkpt><trkpt lat="45.612085" lon="10.3560813"><ele>507.0</ele><time>2026-04-26T15:08:29.102Z</time></trkpt><trkpt lat="45.6121384" lon="10.3558979"><ele>507.25</ele><time>2026-04-26T15:08:30.102Z</time></trkpt><trkpt lat="45.6121878" lon="10.3557042"><ele>507.5</ele><time>2026-04-26T15:08:31.101Z</time></trkpt><trkpt lat="45.6122337" lon="10.3554969"><ele>507.75</ele><time>2026-04-26T15:08:32.102Z</time></trkpt><trkpt lat="45.6122741" lon="10.3552872"><ele>508.0</ele><time>2026-04-26T15:08:33.102Z</time></trkpt><trkpt lat="45.6123119" lon="10.3550777"><ele>508.0</ele><time>2026-04-26T15:08:34.102Z</time></trkpt><trkpt lat="45.6123521" lon="10.354867"><ele>508.0</ele><time>2026-04-26T15:08:35.102Z</time></trkpt><trkpt lat="45.6123948" lon="10.3546552"><ele>508.0</ele><time>2026-04-26T15:08:36.102Z</time></trkpt><trkpt lat="45.6124319" lon="10.3544397"><ele>506.33333333333337</ele><time>2026-04-26T15:08:37.102Z</time></trkpt><trkpt lat="45.6124567" lon="10.3542243"><ele>504.66666666666663</ele><time>2026-04-26T15:08:38.102Z</time></trkpt><trkpt lat="45.6124611" lon="10.3539983"><ele>503.0</ele><time>2026-04-26T15:08:39.102Z</time></trkpt><trkpt lat="45.6124581" lon="10.3537686"><ele>503.0</ele><time>2026-04-26T15:08:40.102Z</time></trkpt><trkpt lat="45.612455" lon="10.3535382"><ele>503.0</ele><time>2026-04-26T15:08:41.102Z</time></trkpt><trkpt lat="45.6124515" lon="10.3533024"><ele>503.0</ele><time>2026-04-26T15:08:42.102Z</time></trkpt><trkpt lat="45.6124505" lon="10.3530571"><ele>500.66666666666663</ele><time>2026-04-26T15:08:43.101Z</time></trkpt><trkpt lat="45.6124595" lon="10.3528018"><ele>498.33333333333337</ele><time>2026-04-26T15:08:44.101Z</time></trkpt><trkpt lat="45.6124822" lon="10.3525319"><ele>496.0</ele><time>2026-04-26T15:08:45.102Z</time></trkpt><trkpt lat="45.612525" lon="10.3522647"><ele>493.0</ele><time>2026-04-26T15:08:46.102Z</time></trkpt><trkpt lat="45.6125756" lon="10.3519878"><ele>490.0</ele><time>2026-04-26T15:08:47.102Z</time></trkpt><trkpt lat="45.6126257" lon="10.3517056"><ele>487.0</ele><time>2026-04-26T15:08:48.101Z</time></trkpt><trkpt lat="45.6126773" lon="10.3514161"><ele>484.6666666666667</ele><time>2026-04-26T15:08:49.102Z</time></trkpt><trkpt lat="45.6127283" lon="10.35113"><ele>482.33333333333337</ele><time>2026-04-26T15:08:50.101Z</time></trkpt><trkpt lat="45.6127808" lon="10.3508431"><ele>480.0</ele><time>2026-04-26T15:08:51.102Z</time></trkpt><trkpt lat="45.6128337" lon="10.3505561"><ele>482.66666666666663</ele><time>2026-04-26T15:08:52.102Z</time></trkpt><trkpt lat="45.6128825" lon="10.3502689"><ele>485.3333333333333</ele><time>2026-04-26T15:08:53.102Z</time></trkpt><trkpt lat="45.6129296" lon="10.3499867"><ele>488.0</ele><time>2026-04-26T15:08:54.102Z</time></trkpt><trkpt lat="45.612973" lon="10.3496954"><ele>488.0</ele><time>2026-04-26T15:08:55.102Z</time></trkpt><trkpt lat="45.6130087" lon="10.3494064"><ele>488.0</ele><time>2026-04-26T15:08:56.102Z</time></trkpt><trkpt lat="45.6130466" lon="10.3491182"><ele>488.0</ele><time>2026-04-26T15:08:57.102Z</time></trkpt><trkpt lat="45.6130835" lon="10.3488386"><ele>485.66666666666663</ele><time>2026-04-26T15:08:58.102Z</time></trkpt><trkpt lat="45.6131253" lon="10.3485732"><ele>483.33333333333337</ele><time>2026-04-26T15:08:59.102Z</time></trkpt><trkpt lat="45.6131595" lon="10.3483125"><ele>481.0</ele><time>2026-04-26T15:09:00.102Z</time></trkpt><trkpt lat="45.613192" lon="10.3480492"><ele>479.33333333333337</ele><time>2026-04-26T15:09:01.102Z</time></trkpt><trkpt lat="45.6132234" lon="10.3477894"><ele>477.66666666666663</ele><time>2026-04-26T15:09:02.102Z</time></trkpt><trkpt lat="45.6132625" lon="10.3475278"><ele>476.0</ele><time>2026-04-26T15:09:03.102Z</time></trkpt><trkpt lat="45.6133183" lon="10.3472602"><ele>471.0</ele><time>2026-04-26T15:09:04.101Z</time></trkpt><trkpt lat="45.613394" lon="10.3469934"><ele>466.0</ele><time>2026-04-26T15:09:05.101Z</time></trkpt><trkpt lat="45.6134815" lon="10.346727"><ele>461.0</ele><time>2026-04-26T15:09:06.102Z</time></trkpt><trkpt lat="45.6135725" lon="10.3464579"><ele>468.66666666666663</ele><time>2026-04-26T15:09:07.102Z</time></trkpt><trkpt lat="45.6136619" lon="10.3461929"><ele>476.33333333333337</ele><time>2026-04-26T15:09:08.102Z</time></trkpt><trkpt lat="45.6137521" lon="10.3459343"><ele>484.0</ele><time>2026-04-26T15:09:09.102Z</time></trkpt><trkpt lat="45.6138308" lon="10.3456746"><ele>480.33333333333337</ele><time>2026-04-26T15:09:10.102Z</time></trkpt><trkpt lat="45.6138959" lon="10.3453812"><ele>476.66666666666663</ele><time>2026-04-26T15:09:11.102Z</time></trkpt><trkpt lat="45.6139388" lon="10.3450577"><ele>473.0</ele><time>2026-04-26T15:09:12.102Z</time></trkpt><trkpt lat="45.6139612" lon="10.3447382"><ele>471.0</ele><time>2026-04-26T15:09:13.102Z</time></trkpt><trkpt lat="45.6139809" lon="10.3444507"><ele>469.0</ele><time>2026-04-26T15:09:14.102Z</time></trkpt><trkpt lat="45.6140122" lon="10.3441902"><ele>467.0</ele><time>2026-04-26T15:09:15.102Z</time></trkpt><trkpt lat="45.6140671" lon="10.3439279"><ele>462.3333333333333</ele><time>2026-04-26T15:09:16.102Z</time></trkpt><trkpt lat="45.6141504" lon="10.3436839"><ele>457.66666666666663</ele><time>2026-04-26T15:09:17.102Z</time></trkpt><trkpt lat="45.6142452" lon="10.3434919"><ele>453.0</ele><time>2026-04-26T15:09:18.102Z</time></trkpt><trkpt lat="45.6143588" lon="10.3433349"><ele>453.0</ele><time>2026-04-26T15:09:19.101Z</time></trkpt><trkpt lat="45.6144716" lon="10.3432046"><ele>453.0</ele><time>2026-04-26T15:09:20.102Z</time></trkpt><trkpt lat="45.6145707" lon="10.3430883"><ele>453.0</ele><time>2026-04-26T15:09:21.102Z</time></trkpt><trkpt lat="45.6146403" lon="10.3429845"><ele>453.0</ele><time>2026-04-26T15:09:22.102Z</time></trkpt><trkpt lat="45.6146716" lon="10.3428648"><ele>454.0</ele><time>2026-04-26T15:09:23.102Z</time></trkpt><trkpt lat="45.6146366" lon="10.3427575"><ele>454.99999999999994</ele><time>2026-04-26T15:09:24.102Z</time></trkpt><trkpt lat="45.614574" lon="10.342699"><ele>455.99999999999994</ele><time>2026-04-26T15:09:25.101Z</time></trkpt><trkpt lat="45.6144848" lon="10.342695"><ele>457.0</ele><time>2026-04-26T15:09:26.102Z</time></trkpt><trkpt lat="45.6144085" lon="10.3427794"><ele>458.0</ele><time>2026-04-26T15:09:27.101Z</time></trkpt><trkpt lat="45.6143241" lon="10.3429184"><ele>456.3333333333333</ele><time>2026-04-26T15:09:28.102Z</time></trkpt><trkpt lat="45.614227" lon="10.3430931"><ele>454.66666666666663</ele><time>2026-04-26T15:09:29.102Z</time></trkpt><trkpt lat="45.6141224" lon="10.3432879"><ele>453.0</ele><time>2026-04-26T15:09:30.102Z</time></trkpt><trkpt lat="45.6140157" lon="10.3434875"><ele>453.0</ele><time>2026-04-26T15:09:31.102Z</time></trkpt><trkpt lat="45.6139081" lon="10.3436977"><ele>453.0</ele><time>2026-04-26T15:09:32.102Z</time></trkpt><trkpt lat="45.6138133" lon="10.3439351"><ele>453.0</ele><time>2026-04-26T15:09:33.102Z</time></trkpt><trkpt lat="45.613723" lon="10.3442047"><ele>451.33333333333337</ele><time>2026-04-26T15:09:34.102Z</time></trkpt><trkpt lat="45.6136308" lon="10.3444941"><ele>449.6666666666667</ele><time>2026-04-26T15:09:35.102Z</time></trkpt><trkpt lat="45.613532" lon="10.3447782"><ele>448.0</ele><time>2026-04-26T15:09:36.102Z</time></trkpt><trkpt lat="45.6134272" lon="10.3450444"><ele>448.0</ele><time>2026-04-26T15:09:37.102Z</time></trkpt><trkpt lat="45.613329" lon="10.3452814"><ele>448.0</ele><time>2026-04-26T15:09:38.101Z</time></trkpt><trkpt lat="45.6132374" lon="10.3455031"><ele>448.0</ele><time>2026-04-26T15:09:39.102Z</time></trkpt><trkpt lat="45.6131614" lon="10.3456912"><ele>448.79999999999995</ele><time>2026-04-26T15:09:40.102Z</time></trkpt><trkpt lat="45.6130942" lon="10.345846"><ele>449.59999999999997</ele><time>2026-04-26T15:09:41.101Z</time></trkpt><trkpt lat="45.6130248" lon="10.3459604"><ele>450.40000000000003</ele><time>2026-04-26T15:09:42.102Z</time></trkpt><trkpt lat="45.6129542" lon="10.3460235"><ele>451.20000000000005</ele><time>2026-04-26T15:09:43.102Z</time></trkpt><trkpt lat="45.6128557" lon="10.3459679"><ele>452.0</ele><time>2026-04-26T15:09:45.102Z</time></trkpt><trkpt lat="45.612847" lon="10.345871"><ele>452.0</ele><time>2026-04-26T15:09:46.102Z</time></trkpt><trkpt lat="45.6128759" lon="10.3457472"><ele>452.0</ele><time>2026-04-26T15:09:47.102Z</time></trkpt><trkpt lat="45.612941" lon="10.3456065"><ele>452.0</ele><time>2026-04-26T15:09:48.101Z</time></trkpt><trkpt lat="45.6130249" lon="10.3454368"><ele>452.0</ele><time>2026-04-26T15:09:49.102Z</time></trkpt><trkpt lat="45.6131142" lon="10.3452372"><ele>450.66666666666663</ele><time>2026-04-26T15:09:50.102Z</time></trkpt><trkpt lat="45.6131972" lon="10.344999"><ele>449.33333333333337</ele><time>2026-04-26T15:09:51.102Z</time></trkpt><trkpt lat="45.6132632" lon="10.3447202"><ele>448.0</ele><time>2026-04-26T15:09:52.102Z</time></trkpt><trkpt lat="45.6133063" lon="10.3444106"><ele>446.33333333333337</ele><time>2026-04-26T15:09:53.102Z</time></trkpt><trkpt lat="45.613322" lon="10.3440972"><ele>444.66666666666663</ele><time>2026-04-26T15:09:54.102Z</time></trkpt><trkpt lat="45.6133124" lon="10.3437872"><ele>443.0</ele><time>2026-04-26T15:09:55.102Z</time></trkpt><trkpt lat="45.6133143" lon="10.3434826"><ele>440.3333333333333</ele><time>2026-04-26T15:09:56.102Z</time></trkpt><trkpt lat="45.6133393" lon="10.3431832"><ele>437.66666666666663</ele><time>2026-04-26T15:09:57.102Z</time></trkpt><trkpt lat="45.6133842" lon="10.3429042"><ele>435.0</ele><time>2026-04-26T15:09:58.101Z</time></trkpt><trkpt lat="45.613445" lon="10.3426153"><ele>432.66666666666663</ele><time>2026-04-26T15:09:59.102Z</time></trkpt><trkpt lat="45.6135069" lon="10.3423286"><ele>430.3333333333333</ele><time>2026-04-26T15:10:00.102Z</time></trkpt><trkpt lat="45.6135495" lon="10.3420362"><ele>428.0</ele><time>2026-04-26T15:10:01.102Z</time></trkpt><trkpt lat="45.6135858" lon="10.3417415"><ele>428.0</ele><time>2026-04-26T15:10:02.102Z</time></trkpt><trkpt lat="45.6136248" lon="10.3414461"><ele>428.0</ele><time>2026-04-26T15:10:03.102Z</time></trkpt><trkpt lat="45.6136608" lon="10.3411545"><ele>428.0</ele><time>2026-04-26T15:10:04.102Z</time></trkpt><trkpt lat="45.6136959" lon="10.3408635"><ele>426.3333333333333</ele><time>2026-04-26T15:10:05.102Z</time></trkpt><trkpt lat="45.6137344" lon="10.3405842"><ele>424.66666666666663</ele><time>2026-04-26T15:10:06.102Z</time></trkpt><trkpt lat="45.6137695" lon="10.340314"><ele>423.0</ele><time>2026-04-26T15:10:07.102Z</time></trkpt><trkpt lat="45.6138041" lon="10.3400451"><ele>421.33333333333337</ele><time>2026-04-26T15:10:08.102Z</time></trkpt><trkpt lat="45.6138368" lon="10.339783"><ele>419.6666666666667</ele><time>2026-04-26T15:10:09.102Z</time></trkpt><trkpt lat="45.6138684" lon="10.3395319"><ele>418.0</ele><time>2026-04-26T15:10:10.101Z</time></trkpt><trkpt lat="45.6138987" lon="10.3392854"><ele>418.0</ele><time>2026-04-26T15:10:11.101Z</time></trkpt><trkpt lat="45.6139292" lon="10.3390442"><ele>418.0</ele><time>2026-04-26T15:10:12.102Z</time></trkpt><trkpt lat="45.6139603" lon="10.3388013"><ele>418.0</ele><time>2026-04-26T15:10:13.102Z</time></trkpt><trkpt lat="45.6139876" lon="10.3385468"><ele>419.33333333333337</ele><time>2026-04-26T15:10:14.102Z</time></trkpt><trkpt lat="45.6140125" lon="10.3382883"><ele>420.66666666666663</ele><time>2026-04-26T15:10:15.102Z</time></trkpt><trkpt lat="45.6140311" lon="10.3380188"><ele>422.0</ele><time>2026-04-26T15:10:16.102Z</time></trkpt><trkpt lat="45.6140325" lon="10.3377385"><ele>423.0</ele><time>2026-04-26T15:10:17.102Z</time></trkpt><trkpt lat="45.6140013" lon="10.3374375"><ele>424.0</ele><time>2026-04-26T15:10:18.102Z</time></trkpt><trkpt lat="45.6139672" lon="10.33713"><ele>425.0</ele><time>2026-04-26T15:10:19.102Z</time></trkpt><trkpt lat="45.613957" lon="10.3368207"><ele>425.0</ele><time>2026-04-26T15:10:20.102Z</time></trkpt><trkpt lat="45.6139648" lon="10.3365147"><ele>425.0</ele><time>2026-04-26T15:10:21.102Z</time></trkpt><trkpt lat="45.6139859" lon="10.3362036"><ele>425.0</ele><time>2026-04-26T15:10:22.102Z</time></trkpt><trkpt lat="45.6140077" lon="10.3358916"><ele>426.3333333333333</ele><time>2026-04-26T15:10:23.102Z</time></trkpt><trkpt lat="45.6140297" lon="10.3355722"><ele>427.66666666666663</ele><time>2026-04-26T15:10:24.102Z</time></trkpt><trkpt lat="45.6140424" lon="10.3352573"><ele>429.0</ele><time>2026-04-26T15:10:25.101Z</time></trkpt><trkpt lat="45.6140504" lon="10.3349474"><ele>424.66666666666663</ele><time>2026-04-26T15:10:26.102Z</time></trkpt><trkpt lat="45.6140557" lon="10.3346462"><ele>420.3333333333333</ele><time>2026-04-26T15:10:27.101Z</time></trkpt><trkpt lat="45.614063" lon="10.334355"><ele>416.0</ele><time>2026-04-26T15:10:28.102Z</time></trkpt><trkpt lat="45.6140697" lon="10.3340891"><ele>414.0</ele><time>2026-04-26T15:10:29.102Z</time></trkpt><trkpt lat="45.614076" lon="10.3338537"><ele>412.0</ele><time>2026-04-26T15:10:30.101Z</time></trkpt><trkpt lat="45.6140792" lon="10.3336412"><ele>410.0</ele><time>2026-04-26T15:10:31.102Z</time></trkpt><trkpt lat="45.6140808" lon="10.3334494"><ele>408.0</ele><time>2026-04-26T15:10:32.102Z</time></trkpt><trkpt lat="45.6140796" lon="10.3332613"><ele>408.0</ele><time>2026-04-26T15:10:33.102Z</time></trkpt><trkpt lat="45.6140529" lon="10.3330647"><ele>408.0</ele><time>2026-04-26T15:10:34.102Z</time></trkpt><trkpt lat="45.6139861" lon="10.3328765"><ele>408.0</ele><time>2026-04-26T15:10:35.102Z</time></trkpt><trkpt lat="45.6139181" lon="10.3326836"><ele>408.0</ele><time>2026-04-26T15:10:36.101Z</time></trkpt><trkpt lat="45.6137999" lon="10.3324673"><ele>407.0</ele><time>2026-04-26T15:10:37.102Z</time></trkpt><trkpt lat="45.613708" lon="10.3322567"><ele>406.0</ele><time>2026-04-26T15:10:38.102Z</time></trkpt><trkpt lat="45.6136102" lon="10.3320576"><ele>405.0</ele><time>2026-04-26T15:10:39.101Z</time></trkpt><trkpt lat="45.6135144" lon="10.3318636"><ele>401.75</ele><time>2026-04-26T15:10:40.102Z</time></trkpt><trkpt lat="45.6134237" lon="10.3316831"><ele>398.5</ele><time>2026-04-26T15:10:41.102Z</time></trkpt><trkpt lat="45.613335" lon="10.3315198"><ele>395.25</ele><time>2026-04-26T15:10:42.101Z</time></trkpt><trkpt lat="45.6132495" lon="10.3313535"><ele>392.0</ele><time>2026-04-26T15:10:43.102Z</time></trkpt><trkpt lat="45.6131739" lon="10.3311874"><ele>390.5</ele><time>2026-04-26T15:10:44.102Z</time></trkpt><trkpt lat="45.6131193" lon="10.3310014"><ele>389.0</ele><time>2026-04-26T15:10:45.101Z</time></trkpt><trkpt lat="45.6130921" lon="10.3307948"><ele>387.5</ele><time>2026-04-26T15:10:46.102Z</time></trkpt><trkpt lat="45.6130874" lon="10.3305773"><ele>386.0</ele><time>2026-04-26T15:10:47.102Z</time></trkpt><trkpt lat="45.6130936" lon="10.3303263"><ele>385.66666666666663</ele><time>2026-04-26T15:10:48.102Z</time></trkpt><trkpt lat="45.6131129" lon="10.330032"><ele>385.33333333333337</ele><time>2026-04-26T15:10:49.102Z</time></trkpt><trkpt lat="45.613137" lon="10.3297245"><ele>385.0</ele><time>2026-04-26T15:10:50.102Z</time></trkpt><trkpt lat="45.6131556" lon="10.3294195"><ele>384.6666666666667</ele><time>2026-04-26T15:10:51.102Z</time></trkpt><trkpt lat="45.6131821" lon="10.3291191"><ele>384.33333333333337</ele><time>2026-04-26T15:10:52.102Z</time></trkpt><trkpt lat="45.6132055" lon="10.3288291"><ele>384.0</ele><time>2026-04-26T15:10:53.102Z</time></trkpt><trkpt lat="45.6132213" lon="10.3285494"><ele>383.6666666666667</ele><time>2026-04-26T15:10:54.102Z</time></trkpt><trkpt lat="45.6132369" lon="10.328278"><ele>383.33333333333337</ele><time>2026-04-26T15:10:55.102Z</time></trkpt><trkpt lat="45.6132549" lon="10.3280081"><ele>383.0</ele><time>2026-04-26T15:10:56.102Z</time></trkpt><trkpt lat="45.6132703" lon="10.3277473"><ele>382.0</ele><time>2026-04-26T15:10:57.101Z</time></trkpt><trkpt lat="45.6132853" lon="10.3274884"><ele>381.0</ele><time>2026-04-26T15:10:58.102Z</time></trkpt><trkpt lat="45.6133002" lon="10.3272449"><ele>380.0</ele><time>2026-04-26T15:10:59.101Z</time></trkpt><trkpt lat="45.6133136" lon="10.3270165"><ele>379.5</ele><time>2026-04-26T15:11:00.102Z</time></trkpt><trkpt lat="45.6133221" lon="10.3268083"><ele>379.0</ele><time>2026-04-26T15:11:01.102Z</time></trkpt><trkpt lat="45.6133277" lon="10.3266238"><ele>378.5</ele><time>2026-04-26T15:11:02.102Z</time></trkpt><trkpt lat="45.6133171" lon="10.3264489"><ele>378.0</ele><time>2026-04-26T15:11:03.101Z</time></trkpt><trkpt lat="45.6132913" lon="10.3262804"><ele>377.0</ele><time>2026-04-26T15:11:04.102Z</time></trkpt><trkpt lat="45.6132525" lon="10.3261285"><ele>376.0</ele><time>2026-04-26T15:11:05.102Z</time></trkpt><trkpt lat="45.6132089" lon="10.3259835"><ele>375.0</ele><time>2026-04-26T15:11:06.102Z</time></trkpt><trkpt lat="45.613165" lon="10.3258419"><ele>374.0</ele><time>2026-04-26T15:11:07.102Z</time></trkpt><trkpt lat="45.6131351" lon="10.3256902"><ele>373.0</ele><time>2026-04-26T15:11:08.102Z</time></trkpt><trkpt lat="45.6131345" lon="10.3255408"><ele>372.5</ele><time>2026-04-26T15:11:09.102Z</time></trkpt><trkpt lat="45.6131585" lon="10.3253829"><ele>372.0</ele><time>2026-04-26T15:11:10.102Z</time></trkpt><trkpt lat="45.6132065" lon="10.3252164"><ele>371.5</ele><time>2026-04-26T15:11:11.102Z</time></trkpt><trkpt lat="45.6132678" lon="10.3250514"><ele>371.0</ele><time>2026-04-26T15:11:12.102Z</time></trkpt><trkpt lat="45.6133282" lon="10.324886"><ele>370.0</ele><time>2026-04-26T15:11:13.102Z</time></trkpt><trkpt lat="45.6133856" lon="10.3247287"><ele>369.0</ele><time>2026-04-26T15:11:14.102Z</time></trkpt><trkpt lat="45.6134434" lon="10.3245737"><ele>368.0</ele><time>2026-04-26T15:11:15.102Z</time></trkpt><trkpt lat="45.6134976" lon="10.3244101"><ele>367.0</ele><time>2026-04-26T15:11:16.102Z</time></trkpt><trkpt lat="45.6135382" lon="10.3242515"><ele>367.0</ele><time>2026-04-26T15:11:17.102Z</time></trkpt><trkpt lat="45.6135651" lon="10.3241008"><ele>367.0</ele><time>2026-04-26T15:11:18.102Z</time></trkpt><trkpt lat="45.6135749" lon="10.3239403"><ele>367.0</ele><time>2026-04-26T15:11:19.102Z</time></trkpt><trkpt lat="45.613564" lon="10.3237768"><ele>367.0</ele><time>2026-04-26T15:11:20.102Z</time></trkpt><trkpt lat="45.6135351" lon="10.3236073"><ele>366.75</ele><time>2026-04-26T15:11:21.101Z</time></trkpt><trkpt lat="45.6134974" lon="10.3234391"><ele>366.5</ele><time>2026-04-26T15:11:22.102Z</time></trkpt><trkpt lat="45.6134584" lon="10.3232718"><ele>366.25</ele><time>2026-04-26T15:11:23.102Z</time></trkpt><trkpt lat="45.613419" lon="10.3231042"><ele>366.0</ele><time>2026-04-26T15:11:24.101Z</time></trkpt><trkpt lat="45.6133895" lon="10.322937"><ele>365.5</ele><time>2026-04-26T15:11:25.102Z</time></trkpt><trkpt lat="45.613369" lon="10.322763"><ele>365.0</ele><time>2026-04-26T15:11:26.102Z</time></trkpt><trkpt lat="45.6133426" lon="10.3225761"><ele>364.5</ele><time>2026-04-26T15:11:27.102Z</time></trkpt><trkpt lat="45.6133404" lon="10.3223617"><ele>364.0</ele><time>2026-04-26T15:11:28.102Z</time></trkpt><trkpt lat="45.6133208" lon="10.3221435"><ele>363.3333333333333</ele><time>2026-04-26T15:11:29.102Z</time></trkpt><trkpt lat="45.6133031" lon="10.3219091"><ele>362.6666666666667</ele><time>2026-04-26T15:11:30.102Z</time></trkpt><trkpt lat="45.6132949" lon="10.3216598"><ele>362.0</ele><time>2026-04-26T15:11:31.101Z</time></trkpt><trkpt lat="45.6132906" lon="10.3214126"><ele>362.33333333333337</ele><time>2026-04-26T15:11:32.101Z</time></trkpt><trkpt lat="45.6132813" lon="10.3211754"><ele>362.6666666666667</ele><time>2026-04-26T15:11:33.102Z</time></trkpt><trkpt lat="45.6132582" lon="10.3209424"><ele>363.0</ele><time>2026-04-26T15:11:34.102Z</time></trkpt><trkpt lat="45.6132231" lon="10.3207089"><ele>363.5</ele><time>2026-04-26T15:11:35.102Z</time></trkpt><trkpt lat="45.6131989" lon="10.3204866"><ele>364.0</ele><time>2026-04-26T15:11:36.102Z</time></trkpt><trkpt lat="45.6131781" lon="10.3202772"><ele>364.5</ele><time>2026-04-26T15:11:37.101Z</time></trkpt><trkpt lat="45.6131658" lon="10.3200727"><ele>365.0</ele><time>2026-04-26T15:11:38.102Z</time></trkpt><trkpt lat="45.6131618" lon="10.3198813"><ele>364.25</ele><time>2026-04-26T15:11:39.102Z</time></trkpt><trkpt lat="45.6131576" lon="10.3196901"><ele>363.5</ele><time>2026-04-26T15:11:40.102Z</time></trkpt><trkpt lat="45.6131625" lon="10.3195183"><ele>362.75</ele><time>2026-04-26T15:11:41.101Z</time></trkpt><trkpt lat="45.6131672" lon="10.3193454"><ele>362.0</ele><time>2026-04-26T15:11:42.101Z</time></trkpt><trkpt lat="45.6131743" lon="10.3191789"><ele>362.0</ele><time>2026-04-26T15:11:43.102Z</time></trkpt><trkpt lat="45.613182" lon="10.3189926"><ele>362.0</ele><time>2026-04-26T15:11:44.102Z</time></trkpt><trkpt lat="45.6131965" lon="10.3188196"><ele>362.0</ele><time>2026-04-26T15:11:45.102Z</time></trkpt><trkpt lat="45.6132126" lon="10.3186494"><ele>362.0</ele><time>2026-04-26T15:11:46.102Z</time></trkpt><trkpt lat="45.6132256" lon="10.3184734"><ele>361.75</ele><time>2026-04-26T15:11:47.102Z</time></trkpt><trkpt lat="45.613229" lon="10.3183076"><ele>361.5</ele><time>2026-04-26T15:11:48.102Z</time></trkpt><trkpt lat="45.6132086" lon="10.3181478"><ele>361.25</ele><time>2026-04-26T15:11:49.101Z</time></trkpt><trkpt lat="45.6131604" lon="10.3179969"><ele>361.0</ele><time>2026-04-26T15:11:50.102Z</time></trkpt><trkpt lat="45.6131097" lon="10.3178586"><ele>362.4</ele><time>2026-04-26T15:11:51.102Z</time></trkpt><trkpt lat="45.6130617" lon="10.3177213"><ele>363.8</ele><time>2026-04-26T15:11:52.102Z</time></trkpt><trkpt lat="45.6130293" lon="10.3175828"><ele>365.2</ele><time>2026-04-26T15:11:53.102Z</time></trkpt><trkpt lat="45.6130132" lon="10.317435"><ele>366.59999999999997</ele><time>2026-04-26T15:11:54.102Z</time></trkpt><trkpt lat="45.6130066" lon="10.317294"><ele>368.0</ele><time>2026-04-26T15:11:55.101Z</time></trkpt><trkpt lat="45.6130053" lon="10.3171606"><ele>369.0</ele><time>2026-04-26T15:11:56.102Z</time></trkpt><trkpt lat="45.6130043" lon="10.3170446"><ele>370.0</ele><time>2026-04-26T15:11:57.102Z</time></trkpt><trkpt lat="45.6129852" lon="10.3169434"><ele>371.0</ele><time>2026-04-26T15:11:58.102Z</time></trkpt><trkpt lat="45.6129399" lon="10.3168591"><ele>372.0</ele><time>2026-04-26T15:11:59.102Z</time></trkpt><trkpt lat="45.612872" lon="10.3168003"><ele>373.0</ele><time>2026-04-26T15:12:00.102Z</time></trkpt><trkpt lat="45.6127831" lon="10.316755"><ele>374.0</ele><time>2026-04-26T15:12:01.102Z</time></trkpt><trkpt lat="45.6126952" lon="10.3167101"><ele>374.2</ele><time>2026-04-26T15:12:02.102Z</time></trkpt><trkpt lat="45.6126024" lon="10.3166673"><ele>374.4</ele><time>2026-04-26T15:12:03.102Z</time></trkpt><trkpt lat="45.6125051" lon="10.3166232"><ele>374.6</ele><time>2026-04-26T15:12:04.102Z</time></trkpt><trkpt lat="45.6124064" lon="10.3165611"><ele>374.8</ele><time>2026-04-26T15:12:05.101Z</time></trkpt><trkpt lat="45.6123096" lon="10.3164921"><ele>375.0</ele><time>2026-04-26T15:12:06.102Z</time></trkpt><trkpt lat="45.6122212" lon="10.3164027"><ele>375.0</ele><time>2026-04-26T15:12:07.102Z</time></trkpt><trkpt lat="45.6121297" lon="10.3163057"><ele>375.0</ele><time>2026-04-26T15:12:08.102Z</time></trkpt><trkpt lat="45.6120365" lon="10.3162009"><ele>375.0</ele><time>2026-04-26T15:12:09.102Z</time></trkpt><trkpt lat="45.6119471" lon="10.3160884"><ele>375.0</ele><time>2026-04-26T15:12:10.102Z</time></trkpt><trkpt lat="45.6118619" lon="10.3159623"><ele>373.75</ele><time>2026-04-26T15:12:11.101Z</time></trkpt><trkpt lat="45.6117845" lon="10.3158287"><ele>372.5</ele><time>2026-04-26T15:12:12.102Z</time></trkpt><trkpt lat="45.6117127" lon="10.3157009"><ele>371.25</ele><time>2026-04-26T15:12:13.102Z</time></trkpt><trkpt lat="45.6116419" lon="10.3155628"><ele>370.0</ele><time>2026-04-26T15:12:14.101Z</time></trkpt><trkpt lat="45.6115554" lon="10.3154425"><ele>370.0</ele><time>2026-04-26T15:12:15.101Z</time></trkpt><trkpt lat="45.6114589" lon="10.3153404"><ele>370.0</ele><time>2026-04-26T15:12:16.102Z</time></trkpt><trkpt lat="45.6113468" lon="10.3152683"><ele>370.0</ele><time>2026-04-26T15:12:17.102Z</time></trkpt><trkpt lat="45.6112412" lon="10.3151927"><ele>370.0</ele><time>2026-04-26T15:12:18.102Z</time></trkpt><trkpt lat="45.6111342" lon="10.3151305"><ele>369.25</ele><time>2026-04-26T15:12:19.101Z</time></trkpt><trkpt lat="45.6110274" lon="10.3150624"><ele>368.5</ele><time>2026-04-26T15:12:20.102Z</time></trkpt><trkpt lat="45.6109348" lon="10.3149722"><ele>367.75</ele><time>2026-04-26T15:12:21.101Z</time></trkpt><trkpt lat="45.6108393" lon="10.3148575"><ele>367.0</ele><time>2026-04-26T15:12:22.102Z</time></trkpt><trkpt lat="45.6107546" lon="10.3147233"><ele>367.0</ele><time>2026-04-26T15:12:23.101Z</time></trkpt><trkpt lat="45.6106675" lon="10.3145968"><ele>367.0</ele><time>2026-04-26T15:12:24.102Z</time></trkpt><trkpt lat="45.6105744" lon="10.3144798"><ele>367.0</ele><time>2026-04-26T15:12:25.102Z</time></trkpt><trkpt lat="45.6104743" lon="10.3143852"><ele>367.0</ele><time>2026-04-26T15:12:26.102Z</time></trkpt><trkpt lat="45.610362" lon="10.3143007"><ele>362.0</ele><time>2026-04-26T15:12:27.102Z</time></trkpt><trkpt lat="45.6102442" lon="10.314231"><ele>357.0</ele><time>2026-04-26T15:12:28.102Z</time></trkpt><trkpt lat="45.6101188" lon="10.3141735"><ele>352.0</ele><time>2026-04-26T15:12:29.102Z</time></trkpt><trkpt lat="45.6099927" lon="10.314125"><ele>347.0</ele><time>2026-04-26T15:12:30.102Z</time></trkpt><trkpt lat="45.6098664" lon="10.3140847"><ele>347.0</ele><time>2026-04-26T15:12:31.102Z</time></trkpt><trkpt lat="45.6097362" lon="10.3140287"><ele>347.0</ele><time>2026-04-26T15:12:32.102Z</time></trkpt><trkpt lat="45.6096092" lon="10.3139515"><ele>347.0</ele><time>2026-04-26T15:12:33.102Z</time></trkpt><trkpt lat="45.6094939" lon="10.3138595"><ele>347.0</ele><time>2026-04-26T15:12:34.102Z</time></trkpt><trkpt lat="45.6093878" lon="10.3137568"><ele>345.5</ele><time>2026-04-26T15:12:35.101Z</time></trkpt><trkpt lat="45.6092901" lon="10.3136382"><ele>344.0</ele><time>2026-04-26T15:12:36.102Z</time></trkpt><trkpt lat="45.6092004" lon="10.3135046"><ele>342.5</ele><time>2026-04-26T15:12:37.102Z</time></trkpt><trkpt lat="45.6091199" lon="10.3133544"><ele>341.0</ele><time>2026-04-26T15:12:38.102Z</time></trkpt><trkpt lat="45.609053" lon="10.313199"><ele>341.5</ele><time>2026-04-26T15:12:39.102Z</time></trkpt><trkpt lat="45.6089976" lon="10.313033"><ele>342.0</ele><time>2026-04-26T15:12:40.102Z</time></trkpt><trkpt lat="45.6089495" lon="10.3128665"><ele>342.5</ele><time>2026-04-26T15:12:41.102Z</time></trkpt><trkpt lat="45.6089023" lon="10.3126959"><ele>343.0</ele><time>2026-04-26T15:12:42.102Z</time></trkpt><trkpt lat="45.6088562" lon="10.3125309"><ele>343.0</ele><time>2026-04-26T15:12:43.102Z</time></trkpt><trkpt lat="45.6088119" lon="10.3123589"><ele>343.0</ele><time>2026-04-26T15:12:44.101Z</time></trkpt><trkpt lat="45.608752" lon="10.3122052"><ele>343.0</ele><time>2026-04-26T15:12:45.102Z</time></trkpt><trkpt lat="45.6086798" lon="10.3120586"><ele>343.0</ele><time>2026-04-26T15:12:46.102Z</time></trkpt><trkpt lat="45.6085966" lon="10.3119322"><ele>340.75</ele><time>2026-04-26T15:12:47.101Z</time></trkpt><trkpt lat="45.6085047" lon="10.3118203"><ele>338.5</ele><time>2026-04-26T15:12:48.102Z</time></trkpt><trkpt lat="45.6084077" lon="10.3117192"><ele>336.25</ele><time>2026-04-26T15:12:49.102Z</time></trkpt><trkpt lat="45.6083046" lon="10.3116202"><ele>334.0</ele><time>2026-04-26T15:12:50.102Z</time></trkpt><trkpt lat="45.6081942" lon="10.3115219"><ele>334.0</ele><time>2026-04-26T15:12:51.102Z</time></trkpt><trkpt lat="45.6080825" lon="10.3114175"><ele>334.0</ele><time>2026-04-26T15:12:52.102Z</time></trkpt><trkpt lat="45.6079725" lon="10.3113094"><ele>334.0</ele><time>2026-04-26T15:12:53.102Z</time></trkpt><trkpt lat="45.6078572" lon="10.311202"><ele>334.0</ele><time>2026-04-26T15:12:54.102Z</time></trkpt><trkpt lat="45.6077321" lon="10.3110981"><ele>333.3333333333333</ele><time>2026-04-26T15:12:55.102Z</time></trkpt><trkpt lat="45.6075958" lon="10.3109992"><ele>332.6666666666667</ele><time>2026-04-26T15:12:56.102Z</time></trkpt><trkpt lat="45.6074384" lon="10.3109135"><ele>332.0</ele><time>2026-04-26T15:12:57.102Z</time></trkpt><trkpt lat="45.6072618" lon="10.3108316"><ele>332.0</ele><time>2026-04-26T15:12:58.102Z</time></trkpt><trkpt lat="45.6070797" lon="10.3107478"><ele>332.0</ele><time>2026-04-26T15:12:59.101Z</time></trkpt><trkpt lat="45.6068941" lon="10.3106636"><ele>332.0</ele><time>2026-04-26T15:13:00.102Z</time></trkpt><trkpt lat="45.6067162" lon="10.3105884"><ele>333.33333333333337</ele><time>2026-04-26T15:13:01.101Z</time></trkpt><trkpt lat="45.6065492" lon="10.3105086"><ele>334.6666666666667</ele><time>2026-04-26T15:13:02.102Z</time></trkpt><trkpt lat="45.606384" lon="10.3104281"><ele>336.0</ele><time>2026-04-26T15:13:03.102Z</time></trkpt><trkpt lat="45.6062236" lon="10.3103585"><ele>331.6666666666667</ele><time>2026-04-26T15:13:04.101Z</time></trkpt><trkpt lat="45.6060653" lon="10.3102984"><ele>327.33333333333337</ele><time>2026-04-26T15:13:05.102Z</time></trkpt><trkpt lat="45.605916" lon="10.3102418"><ele>323.0</ele><time>2026-04-26T15:13:06.102Z</time></trkpt><trkpt lat="45.6057759" lon="10.3101864"><ele>323.0</ele><time>2026-04-26T15:13:07.101Z</time></trkpt><trkpt lat="45.605635" lon="10.3101363"><ele>323.0</ele><time>2026-04-26T15:13:08.102Z</time></trkpt><trkpt lat="45.6054947" lon="10.310086"><ele>323.0</ele><time>2026-04-26T15:13:09.102Z</time></trkpt><trkpt lat="45.605353" lon="10.3100449"><ele>323.0</ele><time>2026-04-26T15:13:10.102Z</time></trkpt><trkpt lat="45.6052119" lon="10.3100271"><ele>322.0</ele><time>2026-04-26T15:13:11.102Z</time></trkpt><trkpt lat="45.6050696" lon="10.3100226"><ele>321.0</ele><time>2026-04-26T15:13:12.102Z</time></trkpt><trkpt lat="45.6049308" lon="10.3100222"><ele>320.0</ele><time>2026-04-26T15:13:13.102Z</time></trkpt><trkpt lat="45.6047969" lon="10.3100267"><ele>319.0</ele><time>2026-04-26T15:13:14.102Z</time></trkpt><trkpt lat="45.6046712" lon="10.3100313"><ele>319.0</ele><time>2026-04-26T15:13:15.102Z</time></trkpt><trkpt lat="45.604547" lon="10.3100344"><ele>319.0</ele><time>2026-04-26T15:13:16.102Z</time></trkpt><trkpt lat="45.604427" lon="10.3100365"><ele>319.0</ele><time>2026-04-26T15:13:17.102Z</time></trkpt><trkpt lat="45.6043018" lon="10.3100203"><ele>319.0</ele><time>2026-04-26T15:13:18.102Z</time></trkpt><trkpt lat="45.6041827" lon="10.3099722"><ele>318.25</ele><time>2026-04-26T15:13:19.101Z</time></trkpt><trkpt lat="45.6040718" lon="10.3098889"><ele>317.5</ele><time>2026-04-26T15:13:20.102Z</time></trkpt><trkpt lat="45.6039624" lon="10.3097709"><ele>316.75</ele><time>2026-04-26T15:13:21.102Z</time></trkpt><trkpt lat="45.6038474" lon="10.309631"><ele>316.0</ele><time>2026-04-26T15:13:22.102Z</time></trkpt><trkpt lat="45.6037216" lon="10.3094618"><ele>314.66666666666663</ele><time>2026-04-26T15:13:23.102Z</time></trkpt><trkpt lat="45.6035933" lon="10.3092768"><ele>313.3333333333333</ele><time>2026-04-26T15:13:24.101Z</time></trkpt><trkpt lat="45.6034541" lon="10.3090734"><ele>312.0</ele><time>2026-04-26T15:13:25.102Z</time></trkpt><trkpt lat="45.6032984" lon="10.3088574"><ele>312.0</ele><time>2026-04-26T15:13:26.102Z</time></trkpt><trkpt lat="45.6031341" lon="10.3086264"><ele>312.0</ele><time>2026-04-26T15:13:27.102Z</time></trkpt><trkpt lat="45.6029887" lon="10.3083956"><ele>312.0</ele><time>2026-04-26T15:13:28.102Z</time></trkpt><trkpt lat="45.60284" lon="10.308179"><ele>310.6666666666667</ele><time>2026-04-26T15:13:29.102Z</time></trkpt><trkpt lat="45.6027058" lon="10.3079717"><ele>309.33333333333337</ele><time>2026-04-26T15:13:30.102Z</time></trkpt><trkpt lat="45.6025758" lon="10.3077971"><ele>308.0</ele><time>2026-04-26T15:13:31.102Z</time></trkpt><trkpt lat="45.6024424" lon="10.3076457"><ele>308.0</ele><time>2026-04-26T15:13:32.102Z</time></trkpt><trkpt lat="45.6022992" lon="10.3075262"><ele>308.0</ele><time>2026-04-26T15:13:33.102Z</time></trkpt><trkpt lat="45.6021389" lon="10.3074386"><ele>308.0</ele><time>2026-04-26T15:13:34.101Z</time></trkpt><trkpt lat="45.6019672" lon="10.3073689"><ele>308.6666666666667</ele><time>2026-04-26T15:13:35.102Z</time></trkpt><trkpt lat="45.6017949" lon="10.3073025"><ele>309.3333333333333</ele><time>2026-04-26T15:13:36.102Z</time></trkpt><trkpt lat="45.6016238" lon="10.3072472"><ele>310.0</ele><time>2026-04-26T15:13:37.102Z</time></trkpt><trkpt lat="45.6014515" lon="10.3071969"><ele>310.0</ele><time>2026-04-26T15:13:38.102Z</time></trkpt><trkpt lat="45.6012811" lon="10.3071745"><ele>310.0</ele><time>2026-04-26T15:13:39.102Z</time></trkpt><trkpt lat="45.6011088" lon="10.3071748"><ele>310.0</ele><time>2026-04-26T15:13:40.101Z</time></trkpt><trkpt lat="45.600943" lon="10.3072056"><ele>307.0</ele><time>2026-04-26T15:13:41.102Z</time></trkpt><trkpt lat="45.6007758" lon="10.3072545"><ele>304.0</ele><time>2026-04-26T15:13:42.102Z</time></trkpt><trkpt lat="45.6006077" lon="10.3073361"><ele>301.0</ele><time>2026-04-26T15:13:43.102Z</time></trkpt><trkpt lat="45.6004508" lon="10.3074338"><ele>303.3333333333333</ele><time>2026-04-26T15:13:44.102Z</time></trkpt><trkpt lat="45.6002957" lon="10.3075359"><ele>305.6666666666667</ele><time>2026-04-26T15:13:45.102Z</time></trkpt><trkpt lat="45.6001396" lon="10.307643"><ele>308.0</ele><time>2026-04-26T15:13:46.102Z</time></trkpt><trkpt lat="45.5999882" lon="10.3077443"><ele>308.0</ele><time>2026-04-26T15:13:47.102Z</time></trkpt><trkpt lat="45.5998422" lon="10.3078444"><ele>308.0</ele><time>2026-04-26T15:13:48.102Z</time></trkpt><trkpt lat="45.5996958" lon="10.3079445"><ele>308.0</ele><time>2026-04-26T15:13:49.102Z</time></trkpt><trkpt lat="45.5995562" lon="10.3080445"><ele>305.33333333333337</ele><time>2026-04-26T15:13:50.102Z</time></trkpt><trkpt lat="45.5994105" lon="10.3081457"><ele>302.6666666666667</ele><time>2026-04-26T15:13:51.102Z</time></trkpt><trkpt lat="45.5992655" lon="10.3082397"><ele>300.0</ele><time>2026-04-26T15:13:52.102Z</time></trkpt><trkpt lat="45.5991245" lon="10.3083388"><ele>300.0</ele><time>2026-04-26T15:13:53.102Z</time></trkpt><trkpt lat="45.5989893" lon="10.3084328"><ele>300.0</ele><time>2026-04-26T15:13:54.102Z</time></trkpt><trkpt lat="45.5988597" lon="10.3085377"><ele>300.0</ele><time>2026-04-26T15:13:55.102Z</time></trkpt><trkpt lat="45.5987433" lon="10.3086548"><ele>300.0</ele><time>2026-04-26T15:13:56.102Z</time></trkpt><trkpt lat="45.5986348" lon="10.3087957"><ele>298.75</ele><time>2026-04-26T15:13:57.102Z</time></trkpt><trkpt lat="45.598536" lon="10.3089331"><ele>297.5</ele><time>2026-04-26T15:13:58.102Z</time></trkpt><trkpt lat="45.5984386" lon="10.3090662"><ele>296.25</ele><time>2026-04-26T15:13:59.102Z</time></trkpt><trkpt lat="45.5983438" lon="10.3091828"><ele>295.0</ele><time>2026-04-26T15:14:00.102Z</time></trkpt><trkpt lat="45.5982391" lon="10.3092735"><ele>295.0</ele><time>2026-04-26T15:14:01.102Z</time></trkpt><trkpt lat="45.598127" lon="10.3093422"><ele>295.0</ele><time>2026-04-26T15:14:02.102Z</time></trkpt><trkpt lat="45.59801" lon="10.3093843"><ele>295.0</ele><time>2026-04-26T15:14:03.102Z</time></trkpt><trkpt lat="45.5978752" lon="10.3093914"><ele>295.0</ele><time>2026-04-26T15:14:04.102Z</time></trkpt><trkpt lat="45.5977296" lon="10.3093663"><ele>294.25</ele><time>2026-04-26T15:14:05.102Z</time></trkpt><trkpt lat="45.5975887" lon="10.3093235"><ele>293.5</ele><time>2026-04-26T15:14:06.102Z</time></trkpt><trkpt lat="45.5974497" lon="10.3092875"><ele>292.75</ele><time>2026-04-26T15:14:07.101Z</time></trkpt><trkpt lat="45.597314" lon="10.3092703"><ele>292.0</ele><time>2026-04-26T15:14:08.102Z</time></trkpt><trkpt lat="45.5971775" lon="10.3092596"><ele>292.0</ele><time>2026-04-26T15:14:09.102Z</time></trkpt><trkpt lat="45.5970385" lon="10.3092692"><ele>292.0</ele><time>2026-04-26T15:14:10.102Z</time></trkpt><trkpt lat="45.596907" lon="10.3093029"><ele>292.0</ele><time>2026-04-26T15:14:11.102Z</time></trkpt><trkpt lat="45.5967866" lon="10.309366"><ele>292.0</ele><time>2026-04-26T15:14:12.102Z</time></trkpt><trkpt lat="45.5966752" lon="10.3094573"><ele>291.75</ele><time>2026-04-26T15:14:13.102Z</time></trkpt><trkpt lat="45.596564" lon="10.3095308"><ele>291.5</ele><time>2026-04-26T15:14:14.102Z</time></trkpt><trkpt lat="45.5964505" lon="10.3095771"><ele>291.25</ele><time>2026-04-26T15:14:15.102Z</time></trkpt><trkpt lat="45.5963346" lon="10.3095965"><ele>291.0</ele><time>2026-04-26T15:14:16.102Z</time></trkpt><trkpt lat="45.5962197" lon="10.3095819"><ele>294.0</ele><time>2026-04-26T15:14:17.102Z</time></trkpt><trkpt lat="45.5960987" lon="10.3095709"><ele>297.0</ele><time>2026-04-26T15:14:18.102Z</time></trkpt><trkpt lat="45.595973" lon="10.3095718"><ele>300.0</ele><time>2026-04-26T15:14:19.101Z</time></trkpt><trkpt lat="45.5958539" lon="10.3096321"><ele>303.0</ele><time>2026-04-26T15:14:20.102Z</time></trkpt><trkpt lat="45.5957238" lon="10.3097064"><ele>299.3333333333333</ele><time>2026-04-26T15:14:21.102Z</time></trkpt><trkpt lat="45.5955719" lon="10.3098289"><ele>295.66666666666663</ele><time>2026-04-26T15:14:22.102Z</time></trkpt><trkpt lat="45.5954009" lon="10.3099744"><ele>292.0</ele><time>2026-04-26T15:14:23.102Z</time></trkpt><trkpt lat="45.5952226" lon="10.3101012"><ele>292.0</ele><time>2026-04-26T15:14:24.102Z</time></trkpt><trkpt lat="45.5950442" lon="10.3102182"><ele>292.0</ele><time>2026-04-26T15:14:25.102Z</time></trkpt><trkpt lat="45.5948726" lon="10.3103272"><ele>292.0</ele><time>2026-04-26T15:14:26.102Z</time></trkpt><trkpt lat="45.5947072" lon="10.310409"><ele>292.0</ele><time>2026-04-26T15:14:27.102Z</time></trkpt><trkpt lat="45.594529" lon="10.3104536"><ele>292.0</ele><time>2026-04-26T15:14:28.102Z</time></trkpt><trkpt lat="45.5943396" lon="10.3104597"><ele>292.0</ele><time>2026-04-26T15:14:29.101Z</time></trkpt><trkpt lat="45.5941501" lon="10.3104542"><ele>291.3333333333333</ele><time>2026-04-26T15:14:30.102Z</time></trkpt><trkpt lat="45.5939639" lon="10.3104567"><ele>290.6666666666667</ele><time>2026-04-26T15:14:31.102Z</time></trkpt><trkpt lat="45.5937796" lon="10.3104564"><ele>290.0</ele><time>2026-04-26T15:14:32.102Z</time></trkpt><trkpt lat="45.5936182" lon="10.3105328"><ele>284.0</ele><time>2026-04-26T15:14:33.102Z</time></trkpt><trkpt lat="45.5934461" lon="10.3106051"><ele>278.0</ele><time>2026-04-26T15:14:34.102Z</time></trkpt><trkpt lat="45.5932909" lon="10.3106902"><ele>272.0</ele><time>2026-04-26T15:14:35.102Z</time></trkpt><trkpt lat="45.5931594" lon="10.3107653"><ele>272.0</ele><time>2026-04-26T15:14:36.102Z</time></trkpt><trkpt lat="45.5930268" lon="10.3108024"><ele>272.0</ele><time>2026-04-26T15:14:37.102Z</time></trkpt><trkpt lat="45.5928972" lon="10.3107847"><ele>272.0</ele><time>2026-04-26T15:14:38.102Z</time></trkpt><trkpt lat="45.5927774" lon="10.310713"><ele>272.0</ele><time>2026-04-26T15:14:39.102Z</time></trkpt><trkpt lat="45.5926635" lon="10.3106007"><ele>271.33333333333337</ele><time>2026-04-26T15:14:40.102Z</time></trkpt><trkpt lat="45.592541" lon="10.3104546"><ele>270.6666666666667</ele><time>2026-04-26T15:14:41.102Z</time></trkpt><trkpt lat="45.5924149" lon="10.3102983"><ele>270.0</ele><time>2026-04-26T15:14:42.102Z</time></trkpt><trkpt lat="45.5922951" lon="10.3101104"><ele>270.0</ele><time>2026-04-26T15:14:43.102Z</time></trkpt><trkpt lat="45.5921791" lon="10.3099001"><ele>270.0</ele><time>2026-04-26T15:14:44.102Z</time></trkpt><trkpt lat="45.5920585" lon="10.309679"><ele>270.0</ele><time>2026-04-26T15:14:45.102Z</time></trkpt><trkpt lat="45.5919349" lon="10.3094512"><ele>272.0</ele><time>2026-04-26T15:14:46.101Z</time></trkpt><trkpt lat="45.5918101" lon="10.3092215"><ele>274.0</ele><time>2026-04-26T15:14:47.102Z</time></trkpt><trkpt lat="45.5916882" lon="10.3089854"><ele>276.0</ele><time>2026-04-26T15:14:48.102Z</time></trkpt><trkpt lat="45.591565" lon="10.3087517"><ele>276.0</ele><time>2026-04-26T15:14:49.102Z</time></trkpt><trkpt lat="45.5914451" lon="10.3085257"><ele>276.0</ele><time>2026-04-26T15:14:50.102Z</time></trkpt><trkpt lat="45.5913294" lon="10.3083068"><ele>276.0</ele><time>2026-04-26T15:14:51.102Z</time></trkpt><trkpt lat="45.5912219" lon="10.3080941"><ele>271.0</ele><time>2026-04-26T15:14:52.102Z</time></trkpt><trkpt lat="45.5911169" lon="10.3078866"><ele>266.0</ele><time>2026-04-26T15:14:53.101Z</time></trkpt><trkpt lat="45.5910108" lon="10.3076844"><ele>261.0</ele><time>2026-04-26T15:14:54.102Z</time></trkpt><trkpt lat="45.5909089" lon="10.3074844"><ele>261.0</ele><time>2026-04-26T15:14:55.102Z</time></trkpt><trkpt lat="45.5908062" lon="10.307287"><ele>261.0</ele><time>2026-04-26T15:14:56.101Z</time></trkpt><trkpt lat="45.5907019" lon="10.3070885"><ele>261.0</ele><time>2026-04-26T15:14:57.102Z</time></trkpt><trkpt lat="45.5906043" lon="10.3068924"><ele>260.3333333333333</ele><time>2026-04-26T15:14:58.102Z</time></trkpt><trkpt lat="45.5905065" lon="10.3067088"><ele>259.66666666666663</ele><time>2026-04-26T15:14:59.102Z</time></trkpt><trkpt lat="45.5904031" lon="10.3065432"><ele>259.0</ele><time>2026-04-26T15:15:00.102Z</time></trkpt><trkpt lat="45.5902966" lon="10.3063931"><ele>259.0</ele><time>2026-04-26T15:15:01.102Z</time></trkpt><trkpt lat="45.5901939" lon="10.3062527"><ele>259.0</ele><time>2026-04-26T15:15:02.102Z</time></trkpt><trkpt lat="45.5900959" lon="10.3061186"><ele>259.0</ele><time>2026-04-26T15:15:03.102Z</time></trkpt><trkpt lat="45.5900029" lon="10.3059938"><ele>259.0</ele><time>2026-04-26T15:15:04.102Z</time></trkpt><trkpt lat="45.5899151" lon="10.3058673"><ele>259.0</ele><time>2026-04-26T15:15:05.101Z</time></trkpt><trkpt lat="45.5898334" lon="10.305735"><ele>259.0</ele><time>2026-04-26T15:15:06.102Z</time></trkpt><trkpt lat="45.5897558" lon="10.3056025"><ele>259.0</ele><time>2026-04-26T15:15:07.102Z</time></trkpt><trkpt lat="45.5896843" lon="10.3054716"><ele>259.0</ele><time>2026-04-26T15:15:08.101Z</time></trkpt><trkpt lat="45.5896144" lon="10.3053467"><ele>259.8</ele><time>2026-04-26T15:15:09.102Z</time></trkpt><trkpt lat="45.5895487" lon="10.3052245"><ele>260.59999999999997</ele><time>2026-04-26T15:15:10.102Z</time></trkpt><trkpt lat="45.5894811" lon="10.3051031"><ele>261.4</ele><time>2026-04-26T15:15:11.102Z</time></trkpt><trkpt lat="45.5894121" lon="10.3049724"><ele>262.2</ele><time>2026-04-26T15:15:12.102Z</time></trkpt><trkpt lat="45.5893439" lon="10.3048375"><ele>263.0</ele><time>2026-04-26T15:15:13.101Z</time></trkpt><trkpt lat="45.589273" lon="10.3046972"><ele>263.0</ele><time>2026-04-26T15:15:14.101Z</time></trkpt><trkpt lat="45.5892053" lon="10.3045584"><ele>263.0</ele><time>2026-04-26T15:15:15.102Z</time></trkpt><trkpt lat="45.5891372" lon="10.3044154"><ele>263.0</ele><time>2026-04-26T15:15:16.101Z</time></trkpt><trkpt lat="45.5890724" lon="10.3042767"><ele>263.0</ele><time>2026-04-26T15:15:17.102Z</time></trkpt><trkpt lat="45.5890061" lon="10.3041384"><ele>263.0</ele><time>2026-04-26T15:15:18.102Z</time></trkpt><trkpt lat="45.5889448" lon="10.3039952"><ele>263.0</ele><time>2026-04-26T15:15:19.101Z</time></trkpt><trkpt lat="45.5888864" lon="10.3038471"><ele>263.0</ele><time>2026-04-26T15:15:20.102Z</time></trkpt><trkpt lat="45.5888359" lon="10.3036817"><ele>263.0</ele><time>2026-04-26T15:15:21.102Z</time></trkpt><trkpt lat="45.5887887" lon="10.3035133"><ele>265.75</ele><time>2026-04-26T15:15:22.101Z</time></trkpt><trkpt lat="45.5887451" lon="10.3033337"><ele>268.5</ele><time>2026-04-26T15:15:23.101Z</time></trkpt><trkpt lat="45.58871" lon="10.3031479"><ele>271.25</ele><time>2026-04-26T15:15:24.102Z</time></trkpt><trkpt lat="45.5886851" lon="10.3029466"><ele>274.0</ele><time>2026-04-26T15:15:25.102Z</time></trkpt><trkpt lat="45.5886715" lon="10.3027381"><ele>265.3333333333333</ele><time>2026-04-26T15:15:26.102Z</time></trkpt><trkpt lat="45.5886646" lon="10.3025202"><ele>256.6666666666667</ele><time>2026-04-26T15:15:27.102Z</time></trkpt><trkpt lat="45.5886558" lon="10.3022972"><ele>248.0</ele><time>2026-04-26T15:15:28.102Z</time></trkpt><trkpt lat="45.5886508" lon="10.3020721"><ele>247.33333333333334</ele><time>2026-04-26T15:15:29.102Z</time></trkpt><trkpt lat="45.5886389" lon="10.3018443"><ele>246.66666666666669</ele><time>2026-04-26T15:15:30.102Z</time></trkpt><trkpt lat="45.5886159" lon="10.3016188"><ele>246.0</ele><time>2026-04-26T15:15:31.101Z</time></trkpt><trkpt lat="45.5885742" lon="10.3014112"><ele>245.66666666666669</ele><time>2026-04-26T15:15:32.102Z</time></trkpt><trkpt lat="45.5885059" lon="10.3012215"><ele>245.33333333333334</ele><time>2026-04-26T15:15:33.102Z</time></trkpt><trkpt lat="45.58842" lon="10.3010454"><ele>245.0</ele><time>2026-04-26T15:15:34.102Z</time></trkpt><trkpt lat="45.588325" lon="10.3008774"><ele>245.0</ele><time>2026-04-26T15:15:35.102Z</time></trkpt><trkpt lat="45.5882313" lon="10.3007117"><ele>245.0</ele><time>2026-04-26T15:15:36.102Z</time></trkpt><trkpt lat="45.5881449" lon="10.3005527"><ele>245.0</ele><time>2026-04-26T15:15:37.102Z</time></trkpt><trkpt lat="45.5880737" lon="10.3003904"><ele>245.0</ele><time>2026-04-26T15:15:38.101Z</time></trkpt><trkpt lat="45.5880193" lon="10.30022"><ele>244.5</ele><time>2026-04-26T15:15:39.102Z</time></trkpt><trkpt lat="45.5879778" lon="10.3000499"><ele>244.0</ele><time>2026-04-26T15:15:40.102Z</time></trkpt><trkpt lat="45.5879395" lon="10.2998715"><ele>243.5</ele><time>2026-04-26T15:15:41.102Z</time></trkpt><trkpt lat="45.5879019" lon="10.2996899"><ele>243.0</ele><time>2026-04-26T15:15:42.101Z</time></trkpt><trkpt lat="45.5878644" lon="10.2995069"><ele>242.5</ele><time>2026-04-26T15:15:43.101Z</time></trkpt><trkpt lat="45.5878226" lon="10.2993152"><ele>242.0</ele><time>2026-04-26T15:15:44.101Z</time></trkpt><trkpt lat="45.5877818" lon="10.2991176"><ele>241.5</ele><time>2026-04-26T15:15:45.102Z</time></trkpt><trkpt lat="45.5877393" lon="10.2989176"><ele>241.0</ele><time>2026-04-26T15:15:46.102Z</time></trkpt><trkpt lat="45.5876998" lon="10.2987145"><ele>241.0</ele><time>2026-04-26T15:15:47.102Z</time></trkpt><trkpt lat="45.5876596" lon="10.2985211"><ele>241.0</ele><time>2026-04-26T15:15:48.102Z</time></trkpt><trkpt lat="45.5876191" lon="10.2983321"><ele>241.0</ele><time>2026-04-26T15:15:49.102Z</time></trkpt><trkpt lat="45.587584" lon="10.2981478"><ele>241.0</ele><time>2026-04-26T15:15:50.102Z</time></trkpt><trkpt lat="45.5875481" lon="10.2979724"><ele>240.75</ele><time>2026-04-26T15:15:51.102Z</time></trkpt><trkpt lat="45.5875118" lon="10.2978031"><ele>240.5</ele><time>2026-04-26T15:15:52.102Z</time></trkpt><trkpt lat="45.5874753" lon="10.2976287"><ele>240.25</ele><time>2026-04-26T15:15:53.102Z</time></trkpt><trkpt lat="45.5874385" lon="10.2974628"><ele>240.0</ele><time>2026-04-26T15:15:54.101Z</time></trkpt><trkpt lat="45.5874084" lon="10.2972979"><ele>239.8</ele><time>2026-04-26T15:15:55.102Z</time></trkpt><trkpt lat="45.5873778" lon="10.2971452"><ele>239.6</ele><time>2026-04-26T15:15:56.102Z</time></trkpt><trkpt lat="45.5873456" lon="10.2969958"><ele>239.39999999999998</ele><time>2026-04-26T15:15:57.102Z</time></trkpt><trkpt lat="45.5873143" lon="10.2968527"><ele>239.2</ele><time>2026-04-26T15:15:58.101Z</time></trkpt><trkpt lat="45.5872856" lon="10.2967124"><ele>239.0</ele><time>2026-04-26T15:15:59.101Z</time></trkpt><trkpt lat="45.5872556" lon="10.2965657"><ele>239.0</ele><time>2026-04-26T15:16:00.102Z</time></trkpt><trkpt lat="45.5872224" lon="10.2964141"><ele>239.0</ele><time>2026-04-26T15:16:01.102Z</time></trkpt><trkpt lat="45.5871875" lon="10.2962466"><ele>239.0</ele><time>2026-04-26T15:16:02.102Z</time></trkpt><trkpt lat="45.5871493" lon="10.2960737"><ele>239.0</ele><time>2026-04-26T15:16:03.101Z</time></trkpt><trkpt lat="45.5871164" lon="10.295908"><ele>239.0</ele><time>2026-04-26T15:16:04.102Z</time></trkpt><trkpt lat="45.5870851" lon="10.2957432"><ele>238.99999999999997</ele><time>2026-04-26T15:16:05.102Z</time></trkpt><trkpt lat="45.5870525" lon="10.2955996"><ele>238.99999999999997</ele><time>2026-04-26T15:16:06.101Z</time></trkpt><trkpt lat="45.587021" lon="10.295452"><ele>239.0</ele><time>2026-04-26T15:16:07.101Z</time></trkpt><trkpt lat="45.5869931" lon="10.2952913"><ele>239.0</ele><time>2026-04-26T15:16:08.102Z</time></trkpt><trkpt lat="45.5869726" lon="10.2951281"><ele>238.75</ele><time>2026-04-26T15:16:09.102Z</time></trkpt><trkpt lat="45.5869506" lon="10.2949669"><ele>238.5</ele><time>2026-04-26T15:16:10.102Z</time></trkpt><trkpt lat="45.5869306" lon="10.2948019"><ele>238.25</ele><time>2026-04-26T15:16:11.102Z</time></trkpt><trkpt lat="45.5869039" lon="10.294625"><ele>238.0</ele><time>2026-04-26T15:16:12.102Z</time></trkpt><trkpt lat="45.5868777" lon="10.2944465"><ele>238.0</ele><time>2026-04-26T15:16:13.102Z</time></trkpt><trkpt lat="45.5868462" lon="10.2942631"><ele>238.0</ele><time>2026-04-26T15:16:14.102Z</time></trkpt><trkpt lat="45.5868148" lon="10.2940806"><ele>238.0</ele><time>2026-04-26T15:16:15.102Z</time></trkpt><trkpt lat="45.5867867" lon="10.2938966"><ele>238.0</ele><time>2026-04-26T15:16:16.102Z</time></trkpt><trkpt lat="45.5867613" lon="10.2937215"><ele>237.25</ele><time>2026-04-26T15:16:17.102Z</time></trkpt><trkpt lat="45.5867351" lon="10.2935489"><ele>236.5</ele><time>2026-04-26T15:16:18.102Z</time></trkpt><trkpt lat="45.5867129" lon="10.2933841"><ele>235.75</ele><time>2026-04-26T15:16:19.102Z</time></trkpt><trkpt lat="45.5866902" lon="10.2932274"><ele>235.0</ele><time>2026-04-26T15:16:20.102Z</time></trkpt><trkpt lat="45.5866719" lon="10.2930776"><ele>234.2</ele><time>2026-04-26T15:16:21.102Z</time></trkpt><trkpt lat="45.5866509" lon="10.2929286"><ele>233.4</ele><time>2026-04-26T15:16:22.102Z</time></trkpt><trkpt lat="45.5866269" lon="10.2927774"><ele>232.60000000000002</ele><time>2026-04-26T15:16:23.102Z</time></trkpt><trkpt lat="45.5866038" lon="10.2926207"><ele>231.8</ele><time>2026-04-26T15:16:24.102Z</time></trkpt><trkpt lat="45.5865798" lon="10.2924581"><ele>231.0</ele><time>2026-04-26T15:16:25.102Z</time></trkpt><trkpt lat="45.5865515" lon="10.2922884"><ele>231.25</ele><time>2026-04-26T15:16:26.102Z</time></trkpt><trkpt lat="45.5865257" lon="10.2921197"><ele>231.5</ele><time>2026-04-26T15:16:27.102Z</time></trkpt><trkpt lat="45.5864965" lon="10.2919421"><ele>231.75</ele><time>2026-04-26T15:16:28.102Z</time></trkpt><trkpt lat="45.586471" lon="10.2917617"><ele>232.0</ele><time>2026-04-26T15:16:29.102Z</time></trkpt><trkpt lat="45.5864442" lon="10.2915823"><ele>231.75</ele><time>2026-04-26T15:16:30.101Z</time></trkpt><trkpt lat="45.5864157" lon="10.2914022"><ele>231.5</ele><time>2026-04-26T15:16:31.102Z</time></trkpt><trkpt lat="45.5863856" lon="10.2912244"><ele>231.25</ele><time>2026-04-26T15:16:32.102Z</time></trkpt><trkpt lat="45.5863554" lon="10.2910477"><ele>231.0</ele><time>2026-04-26T15:16:33.102Z</time></trkpt><trkpt lat="45.5863322" lon="10.2908865"><ele>231.0</ele><time>2026-04-26T15:16:34.101Z</time></trkpt><trkpt lat="45.5863083" lon="10.2907299"><ele>231.0</ele><time>2026-04-26T15:16:35.102Z</time></trkpt><trkpt lat="45.586285" lon="10.2905728"><ele>231.0</ele><time>2026-04-26T15:16:36.102Z</time></trkpt><trkpt lat="45.5862583" lon="10.2904083"><ele>231.0</ele><time>2026-04-26T15:16:37.102Z</time></trkpt><trkpt lat="45.5862289" lon="10.2902255"><ele>231.0</ele><time>2026-04-26T15:16:38.102Z</time></trkpt><trkpt lat="45.5861967" lon="10.29002"><ele>231.0</ele><time>2026-04-26T15:16:39.102Z</time></trkpt><trkpt lat="45.5861633" lon="10.2898082"><ele>231.0</ele><time>2026-04-26T15:16:40.102Z</time></trkpt><trkpt lat="45.586134" lon="10.289597"><ele>231.0</ele><time>2026-04-26T15:16:41.101Z</time></trkpt><trkpt lat="45.5861132" lon="10.2893979"><ele>231.0</ele><time>2026-04-26T15:16:42.102Z</time></trkpt><trkpt lat="45.5860947" lon="10.2892083"><ele>231.0</ele><time>2026-04-26T15:16:43.102Z</time></trkpt><trkpt lat="45.5860732" lon="10.2890255"><ele>231.0</ele><time>2026-04-26T15:16:44.102Z</time></trkpt><trkpt lat="45.5860497" lon="10.288843"><ele>231.0</ele><time>2026-04-26T15:16:45.102Z</time></trkpt><trkpt lat="45.5860284" lon="10.2886704"><ele>231.00000000000003</ele><time>2026-04-26T15:16:46.102Z</time></trkpt><trkpt lat="45.5860044" lon="10.2885063"><ele>231.00000000000003</ele><time>2026-04-26T15:16:47.102Z</time></trkpt><trkpt lat="45.5859878" lon="10.2883605"><ele>231.0</ele><time>2026-04-26T15:16:48.102Z</time></trkpt><trkpt lat="45.5859692" lon="10.2882131"><ele>231.0</ele><time>2026-04-26T15:16:49.102Z</time></trkpt><trkpt lat="45.5859531" lon="10.2880671"><ele>231.20000000000002</ele><time>2026-04-26T15:16:50.102Z</time></trkpt><trkpt lat="45.5859328" lon="10.287915"><ele>231.40000000000003</ele><time>2026-04-26T15:16:51.101Z</time></trkpt><trkpt lat="45.5859103" lon="10.2877678"><ele>231.6</ele><time>2026-04-26T15:16:52.102Z</time></trkpt><trkpt lat="45.5858854" lon="10.287614"><ele>231.8</ele><time>2026-04-26T15:16:53.102Z</time></trkpt><trkpt lat="45.5858579" lon="10.2874622"><ele>232.0</ele><time>2026-04-26T15:16:54.101Z</time></trkpt><trkpt lat="45.5858383" lon="10.2873098"><ele>231.6</ele><time>2026-04-26T15:16:55.102Z</time></trkpt><trkpt lat="45.5858167" lon="10.2871562"><ele>231.2</ele><time>2026-04-26T15:16:56.102Z</time></trkpt><trkpt lat="45.5857949" lon="10.28701"><ele>230.8</ele><time>2026-04-26T15:16:57.101Z</time></trkpt><trkpt lat="45.5857735" lon="10.2868783"><ele>230.4</ele><time>2026-04-26T15:16:58.102Z</time></trkpt><trkpt lat="45.585755" lon="10.2867522"><ele>230.0</ele><time>2026-04-26T15:16:59.102Z</time></trkpt><trkpt lat="45.5857405" lon="10.2866367"><ele>230.0</ele><time>2026-04-26T15:17:00.102Z</time></trkpt><trkpt lat="45.5857195" lon="10.2865114"><ele>230.0</ele><time>2026-04-26T15:17:01.102Z</time></trkpt><trkpt lat="45.5856994" lon="10.2863827"><ele>230.0</ele><time>2026-04-26T15:17:02.102Z</time></trkpt><trkpt lat="45.5856829" lon="10.2862445"><ele>230.0</ele><time>2026-04-26T15:17:03.102Z</time></trkpt><trkpt lat="45.585667" lon="10.2861018"><ele>230.0</ele><time>2026-04-26T15:17:04.102Z</time></trkpt><trkpt lat="45.5856455" lon="10.2859438"><ele>229.4</ele><time>2026-04-26T15:17:05.101Z</time></trkpt><trkpt lat="45.5856235" lon="10.2857924"><ele>228.8</ele><time>2026-04-26T15:17:06.102Z</time></trkpt><trkpt lat="45.585605" lon="10.2856427"><ele>228.2</ele><time>2026-04-26T15:17:07.101Z</time></trkpt><trkpt lat="45.5855783" lon="10.2854891"><ele>227.6</ele><time>2026-04-26T15:17:08.102Z</time></trkpt><trkpt lat="45.5855499" lon="10.2853393"><ele>227.0</ele><time>2026-04-26T15:17:09.102Z</time></trkpt><trkpt lat="45.5855285" lon="10.2851878"><ele>227.0</ele><time>2026-04-26T15:17:10.102Z</time></trkpt><trkpt lat="45.5855043" lon="10.285027"><ele>227.0</ele><time>2026-04-26T15:17:11.102Z</time></trkpt><trkpt lat="45.5854812" lon="10.284862"><ele>227.0</ele><time>2026-04-26T15:17:12.102Z</time></trkpt><trkpt lat="45.585448" lon="10.2847077"><ele>227.0</ele><time>2026-04-26T15:17:13.102Z</time></trkpt><trkpt lat="45.5854178" lon="10.284543"><ele>227.0</ele><time>2026-04-26T15:17:14.101Z</time></trkpt><trkpt lat="45.5853985" lon="10.2843852"><ele>227.0</ele><time>2026-04-26T15:17:15.102Z</time></trkpt><trkpt lat="45.5853788" lon="10.28423"><ele>227.0</ele><time>2026-04-26T15:17:16.102Z</time></trkpt><trkpt lat="45.5853553" lon="10.2840803"><ele>227.0</ele><time>2026-04-26T15:17:17.102Z</time></trkpt><trkpt lat="45.5853348" lon="10.2839408"><ele>227.0</ele><time>2026-04-26T15:17:18.102Z</time></trkpt><trkpt lat="45.5853167" lon="10.2838107"><ele>226.2</ele><time>2026-04-26T15:17:19.102Z</time></trkpt><trkpt lat="45.5852938" lon="10.2836912"><ele>225.39999999999998</ele><time>2026-04-26T15:17:20.102Z</time></trkpt><trkpt lat="45.5852725" lon="10.2835673"><ele>224.60000000000002</ele><time>2026-04-26T15:17:21.101Z</time></trkpt><trkpt lat="45.5852529" lon="10.2834369"><ele>223.8</ele><time>2026-04-26T15:17:22.102Z</time></trkpt><trkpt lat="45.5852365" lon="10.2833"><ele>223.0</ele><time>2026-04-26T15:17:23.102Z</time></trkpt><trkpt lat="45.5852138" lon="10.2831577"><ele>223.0</ele><time>2026-04-26T15:17:24.102Z</time></trkpt><trkpt lat="45.5851905" lon="10.2830087"><ele>223.0</ele><time>2026-04-26T15:17:25.102Z</time></trkpt><trkpt lat="45.5851661" lon="10.2828544"><ele>223.0</ele><time>2026-04-26T15:17:26.102Z</time></trkpt><trkpt lat="45.5851415" lon="10.2826874"><ele>223.0</ele><time>2026-04-26T15:17:27.102Z</time></trkpt><trkpt lat="45.585116" lon="10.2825172"><ele>223.0</ele><time>2026-04-26T15:17:28.102Z</time></trkpt><trkpt lat="45.5850885" lon="10.2823456"><ele>223.0</ele><time>2026-04-26T15:17:29.102Z</time></trkpt><trkpt lat="45.5850646" lon="10.2821664"><ele>223.0</ele><time>2026-04-26T15:17:30.101Z</time></trkpt><trkpt lat="45.5850447" lon="10.2819872"><ele>223.0</ele><time>2026-04-26T15:17:31.102Z</time></trkpt><trkpt lat="45.5850165" lon="10.2817995"><ele>222.8</ele><time>2026-04-26T15:17:32.102Z</time></trkpt><trkpt lat="45.5850026" lon="10.2816337"><ele>222.60000000000002</ele><time>2026-04-26T15:17:33.102Z</time></trkpt><trkpt lat="45.5849809" lon="10.2814775"><ele>222.39999999999998</ele><time>2026-04-26T15:17:34.102Z</time></trkpt><trkpt lat="45.5849682" lon="10.2813499"><ele>222.2</ele><time>2026-04-26T15:17:35.102Z</time></trkpt><trkpt lat="45.5849538" lon="10.2812464"><ele>222.0</ele><time>2026-04-26T15:17:36.102Z</time></trkpt><trkpt lat="45.5849393" lon="10.2811518"><ele>221.83333333333334</ele><time>2026-04-26T15:17:37.102Z</time></trkpt><trkpt lat="45.5849202" lon="10.2810118"><ele>221.66666666666669</ele><time>2026-04-26T15:17:39.102Z</time></trkpt><trkpt lat="45.5849044" lon="10.2808973"><ele>221.5</ele><time>2026-04-26T15:17:42.102Z</time></trkpt><trkpt lat="45.5848917" lon="10.2807689"><ele>221.33333333333334</ele><time>2026-04-26T15:17:45.101Z</time></trkpt><trkpt lat="45.5848726" lon="10.2806588"><ele>221.16666666666669</ele><time>2026-04-26T15:17:47.102Z</time></trkpt><trkpt lat="45.584858" lon="10.2805648"><ele>221.0</ele><time>2026-04-26T15:17:50.102Z</time></trkpt><trkpt lat="45.584858" lon="10.2804687"><ele>221.0</ele><time>2026-04-26T15:17:53.101Z</time></trkpt><trkpt lat="45.5848777" lon="10.2803538"><ele>221.00000000000003</ele><time>2026-04-26T15:17:55.101Z</time></trkpt><trkpt lat="45.5848456" lon="10.2802011"><ele>221.00000000000003</ele><time>2026-04-26T15:17:57.102Z</time></trkpt><trkpt lat="45.5848103" lon="10.2801103"><ele>221.0</ele><time>2026-04-26T15:17:58.102Z</time></trkpt><trkpt lat="45.5847856" lon="10.2799892"><ele>221.0</ele><time>2026-04-26T15:17:59.102Z</time></trkpt><trkpt lat="45.5847617" lon="10.2798507"><ele>221.0</ele><time>2026-04-26T15:18:00.102Z</time></trkpt><trkpt lat="45.5847384" lon="10.2797003"><ele>221.0</ele><time>2026-04-26T15:18:01.102Z</time></trkpt><trkpt lat="45.584718" lon="10.279545"><ele>221.0</ele><time>2026-04-26T15:18:02.102Z</time></trkpt><trkpt lat="45.5846901" lon="10.2793835"><ele>221.0</ele><time>2026-04-26T15:18:03.101Z</time></trkpt><trkpt lat="45.5846649" lon="10.2792177"><ele>221.0</ele><time>2026-04-26T15:18:04.102Z</time></trkpt><trkpt lat="45.5846357" lon="10.2790421"><ele>221.0</ele><time>2026-04-26T15:18:05.101Z</time></trkpt><trkpt lat="45.5846093" lon="10.2788613"><ele>221.0</ele><time>2026-04-26T15:18:06.101Z</time></trkpt><trkpt lat="45.5845813" lon="10.2786792"><ele>221.0</ele><time>2026-04-26T15:18:07.102Z</time></trkpt><trkpt lat="45.5845536" lon="10.2784947"><ele>220.75</ele><time>2026-04-26T15:18:08.102Z</time></trkpt><trkpt lat="45.5845212" lon="10.2782958"><ele>220.5</ele><time>2026-04-26T15:18:09.102Z</time></trkpt><trkpt lat="45.5844925" lon="10.2780891"><ele>220.25</ele><time>2026-04-26T15:18:10.102Z</time></trkpt><trkpt lat="45.5844612" lon="10.2778757"><ele>220.0</ele><time>2026-04-26T15:18:11.102Z</time></trkpt><trkpt lat="45.5844257" lon="10.2776604"><ele>219.33333333333331</ele><time>2026-04-26T15:18:12.102Z</time></trkpt><trkpt lat="45.5843892" lon="10.2774447"><ele>218.66666666666669</ele><time>2026-04-26T15:18:13.102Z</time></trkpt><trkpt lat="45.5843547" lon="10.277228"><ele>218.0</ele><time>2026-04-26T15:18:14.102Z</time></trkpt><trkpt lat="45.5843138" lon="10.2770091"><ele>218.0</ele><time>2026-04-26T15:18:15.102Z</time></trkpt><trkpt lat="45.5842813" lon="10.2767834"><ele>218.0</ele><time>2026-04-26T15:18:16.102Z</time></trkpt><trkpt lat="45.5842473" lon="10.2765585"><ele>218.0</ele><time>2026-04-26T15:18:17.102Z</time></trkpt><trkpt lat="45.5842131" lon="10.2763243"><ele>217.33333333333334</ele><time>2026-04-26T15:18:18.102Z</time></trkpt><trkpt lat="45.5841794" lon="10.2760976"><ele>216.66666666666669</ele><time>2026-04-26T15:18:19.102Z</time></trkpt><trkpt lat="45.5841433" lon="10.275868"><ele>216.0</ele><time>2026-04-26T15:18:20.101Z</time></trkpt><trkpt lat="45.5841102" lon="10.2756429"><ele>215.33333333333331</ele><time>2026-04-26T15:18:21.102Z</time></trkpt><trkpt lat="45.5840809" lon="10.2754244"><ele>214.66666666666666</ele><time>2026-04-26T15:18:22.101Z</time></trkpt><trkpt lat="45.5840524" lon="10.2752081"><ele>214.0</ele><time>2026-04-26T15:18:23.101Z</time></trkpt><trkpt lat="45.5840294" lon="10.2750012"><ele>214.0</ele><time>2026-04-26T15:18:24.102Z</time></trkpt><trkpt lat="45.5840084" lon="10.2748024"><ele>214.0</ele><time>2026-04-26T15:18:25.102Z</time></trkpt><trkpt lat="45.5839916" lon="10.2746032"><ele>214.0</ele><time>2026-04-26T15:18:26.102Z</time></trkpt><trkpt lat="45.5839755" lon="10.2744114"><ele>214.0</ele><time>2026-04-26T15:18:27.102Z</time></trkpt><trkpt lat="45.5839643" lon="10.2742512"><ele>213.83333333333331</ele><time>2026-04-26T15:18:28.102Z</time></trkpt><trkpt lat="45.5839541" lon="10.2741216"><ele>213.66666666666666</ele><time>2026-04-26T15:18:29.102Z</time></trkpt><trkpt lat="45.5839462" lon="10.274027"><ele>213.5</ele><time>2026-04-26T15:18:30.102Z</time></trkpt><trkpt lat="45.5839254" lon="10.2738956"><ele>213.33333333333331</ele><time>2026-04-26T15:18:32.102Z</time></trkpt><trkpt lat="45.5839126" lon="10.2737785"><ele>213.16666666666666</ele><time>2026-04-26T15:18:34.102Z</time></trkpt><trkpt lat="45.5839141" lon="10.2736547"><ele>213.0</ele><time>2026-04-26T15:18:36.101Z</time></trkpt><trkpt lat="45.5839147" lon="10.2735021"><ele>213.0</ele><time>2026-04-26T15:18:38.101Z</time></trkpt><trkpt lat="45.5838986" lon="10.2733254"><ele>213.0</ele><time>2026-04-26T15:18:40.102Z</time></trkpt><trkpt lat="45.5838957" lon="10.2732159"><ele>213.0</ele><time>2026-04-26T15:18:41.102Z</time></trkpt><trkpt lat="45.5838956" lon="10.2730959"><ele>213.0</ele><time>2026-04-26T15:18:42.102Z</time></trkpt><trkpt lat="45.5838901" lon="10.272977"><ele>213.0</ele><time>2026-04-26T15:18:43.102Z</time></trkpt><trkpt lat="45.5838845" lon="10.2728652"><ele>213.0</ele><time>2026-04-26T15:18:44.102Z</time></trkpt><trkpt lat="45.5838718" lon="10.2727405"><ele>213.0</ele><time>2026-04-26T15:18:45.102Z</time></trkpt><trkpt lat="45.5838597" lon="10.2725947"><ele>213.0</ele><time>2026-04-26T15:18:46.101Z</time></trkpt><trkpt lat="45.5838474" lon="10.272426"><ele>213.0</ele><time>2026-04-26T15:18:47.102Z</time></trkpt><trkpt lat="45.5838335" lon="10.272235"><ele>213.0</ele><time>2026-04-26T15:18:48.102Z</time></trkpt><trkpt lat="45.5838187" lon="10.2720315"><ele>213.0</ele><time>2026-04-26T15:18:49.102Z</time></trkpt><trkpt lat="45.5838048" lon="10.2718206"><ele>213.0</ele><time>2026-04-26T15:18:50.102Z</time></trkpt><trkpt lat="45.5837901" lon="10.2715991"><ele>213.0</ele><time>2026-04-26T15:18:51.102Z</time></trkpt><trkpt lat="45.5837745" lon="10.2713711"><ele>213.66666666666669</ele><time>2026-04-26T15:18:52.102Z</time></trkpt><trkpt lat="45.58376" lon="10.2711414"><ele>214.33333333333334</ele><time>2026-04-26T15:18:53.102Z</time></trkpt><trkpt lat="45.5837457" lon="10.2709171"><ele>215.0</ele><time>2026-04-26T15:18:54.101Z</time></trkpt><trkpt lat="45.5837322" lon="10.2706992"><ele>216.5</ele><time>2026-04-26T15:18:55.102Z</time></trkpt><trkpt lat="45.5837194" lon="10.2704852"><ele>218.0</ele><time>2026-04-26T15:18:56.102Z</time></trkpt><trkpt lat="45.5837092" lon="10.2702737"><ele>219.5</ele><time>2026-04-26T15:18:57.102Z</time></trkpt><trkpt lat="45.5837003" lon="10.2700634"><ele>221.0</ele><time>2026-04-26T15:18:58.101Z</time></trkpt><trkpt lat="45.5836947" lon="10.2698532"><ele>221.0</ele><time>2026-04-26T15:18:59.101Z</time></trkpt><trkpt lat="45.5836902" lon="10.2696364"><ele>221.0</ele><time>2026-04-26T15:19:00.102Z</time></trkpt><trkpt lat="45.5836871" lon="10.2694196"><ele>221.0</ele><time>2026-04-26T15:19:01.101Z</time></trkpt><trkpt lat="45.5836885" lon="10.2691986"><ele>221.0</ele><time>2026-04-26T15:19:02.102Z</time></trkpt><trkpt lat="45.5836902" lon="10.2689787"><ele>221.0</ele><time>2026-04-26T15:19:03.102Z</time></trkpt><trkpt lat="45.5836938" lon="10.2687607"><ele>221.0</ele><time>2026-04-26T15:19:04.102Z</time></trkpt><trkpt lat="45.5837003" lon="10.2685504"><ele>219.5</ele><time>2026-04-26T15:19:05.102Z</time></trkpt><trkpt lat="45.583712" lon="10.2683468"><ele>218.0</ele><time>2026-04-26T15:19:06.102Z</time></trkpt><trkpt lat="45.5837297" lon="10.2681558"><ele>216.5</ele><time>2026-04-26T15:19:07.101Z</time></trkpt><trkpt lat="45.5837553" lon="10.2679879"><ele>215.0</ele><time>2026-04-26T15:19:08.102Z</time></trkpt><trkpt lat="45.5837973" lon="10.267846"><ele>214.4</ele><time>2026-04-26T15:19:09.102Z</time></trkpt><trkpt lat="45.5838476" lon="10.2677233"><ele>213.8</ele><time>2026-04-26T15:19:10.102Z</time></trkpt><trkpt lat="45.5838696" lon="10.2675968"><ele>213.2</ele><time>2026-04-26T15:19:11.102Z</time></trkpt><trkpt lat="45.5838496" lon="10.2674729"><ele>212.6</ele><time>2026-04-26T15:19:12.102Z</time></trkpt><trkpt lat="45.5838185" lon="10.2673304"><ele>212.0</ele><time>2026-04-26T15:19:13.102Z</time></trkpt><trkpt lat="45.5837982" lon="10.2671698"><ele>210.25</ele><time>2026-04-26T15:19:14.101Z</time></trkpt><trkpt lat="45.5837954" lon="10.2669912"><ele>208.5</ele><time>2026-04-26T15:19:15.102Z</time></trkpt><trkpt lat="45.5837991" lon="10.2668042"><ele>206.75</ele><time>2026-04-26T15:19:16.102Z</time></trkpt><trkpt lat="45.5838065" lon="10.2666182"><ele>205.0</ele><time>2026-04-26T15:19:17.102Z</time></trkpt><trkpt lat="45.583816" lon="10.2664255"><ele>204.5</ele><time>2026-04-26T15:19:18.102Z</time></trkpt><trkpt lat="45.5838241" lon="10.2662279"><ele>204.0</ele><time>2026-04-26T15:19:19.101Z</time></trkpt><trkpt lat="45.5838341" lon="10.2660262"><ele>203.5</ele><time>2026-04-26T15:19:20.102Z</time></trkpt><trkpt lat="45.5838451" lon="10.2658183"><ele>203.0</ele><time>2026-04-26T15:19:21.101Z</time></trkpt><trkpt lat="45.5838592" lon="10.2656029"><ele>203.0</ele><time>2026-04-26T15:19:22.102Z</time></trkpt><trkpt lat="45.5838736" lon="10.2653815"><ele>203.0</ele><time>2026-04-26T15:19:23.102Z</time></trkpt><trkpt lat="45.5838856" lon="10.2651591"><ele>203.0</ele><time>2026-04-26T15:19:24.101Z</time></trkpt><trkpt lat="45.5838964" lon="10.2649332"><ele>203.0</ele><time>2026-04-26T15:19:25.102Z</time></trkpt><trkpt lat="45.5839083" lon="10.2646947"><ele>203.0</ele><time>2026-04-26T15:19:26.102Z</time></trkpt><trkpt lat="45.5839229" lon="10.2644482"><ele>203.0</ele><time>2026-04-26T15:19:27.102Z</time></trkpt><trkpt lat="45.5839383" lon="10.2642082"><ele>203.0</ele><time>2026-04-26T15:19:28.101Z</time></trkpt><trkpt lat="45.5839502" lon="10.2639682"><ele>203.0</ele><time>2026-04-26T15:19:29.102Z</time></trkpt><trkpt lat="45.5839619" lon="10.2637311"><ele>203.0</ele><time>2026-04-26T15:19:30.101Z</time></trkpt><trkpt lat="45.5839704" lon="10.2634951"><ele>202.33333333333334</ele><time>2026-04-26T15:19:31.102Z</time></trkpt><trkpt lat="45.5839767" lon="10.2632464"><ele>201.66666666666669</ele><time>2026-04-26T15:19:32.102Z</time></trkpt><trkpt lat="45.5839848" lon="10.262998"><ele>201.0</ele><time>2026-04-26T15:19:33.101Z</time></trkpt><trkpt lat="45.5839985" lon="10.2627442"><ele>200.66666666666669</ele><time>2026-04-26T15:19:34.102Z</time></trkpt><trkpt lat="45.5840077" lon="10.2624946"><ele>200.33333333333334</ele><time>2026-04-26T15:19:35.102Z</time></trkpt><trkpt lat="45.5840192" lon="10.2622446"><ele>200.0</ele><time>2026-04-26T15:19:36.102Z</time></trkpt><trkpt lat="45.5840264" lon="10.2620006"><ele>200.0</ele><time>2026-04-26T15:19:37.102Z</time></trkpt><trkpt lat="45.5840344" lon="10.2617651"><ele>200.0</ele><time>2026-04-26T15:19:38.102Z</time></trkpt><trkpt lat="45.5840441" lon="10.2615584"><ele>200.0</ele><time>2026-04-26T15:19:39.102Z</time></trkpt><trkpt lat="45.5840516" lon="10.261366"><ele>200.0</ele><time>2026-04-26T15:19:40.102Z</time></trkpt><trkpt lat="45.5840558" lon="10.261179"><ele>199.8</ele><time>2026-04-26T15:19:41.102Z</time></trkpt><trkpt lat="45.5840609" lon="10.2610158"><ele>199.6</ele><time>2026-04-26T15:19:42.102Z</time></trkpt><trkpt lat="45.5840614" lon="10.2608778"><ele>199.39999999999998</ele><time>2026-04-26T15:19:43.102Z</time></trkpt><trkpt lat="45.5840643" lon="10.2607606"><ele>199.2</ele><time>2026-04-26T15:19:44.102Z</time></trkpt><trkpt lat="45.5840644" lon="10.260669"><ele>199.0</ele><time>2026-04-26T15:19:45.102Z</time></trkpt><trkpt lat="45.5840785" lon="10.2605102"><ele>198.79999999999998</ele><time>2026-04-26T15:19:47.102Z</time></trkpt><trkpt lat="45.5841298" lon="10.2603749"><ele>198.6</ele><time>2026-04-26T15:19:49.102Z</time></trkpt><trkpt lat="45.5841769" lon="10.2602078"><ele>198.4</ele><time>2026-04-26T15:19:51.102Z</time></trkpt><trkpt lat="45.5841718" lon="10.260089"><ele>198.2</ele><time>2026-04-26T15:19:52.102Z</time></trkpt><trkpt lat="45.5841577" lon="10.2599473"><ele>198.0</ele><time>2026-04-26T15:19:53.102Z</time></trkpt><trkpt lat="45.5841538" lon="10.2597784"><ele>197.5</ele><time>2026-04-26T15:19:54.102Z</time></trkpt><trkpt lat="45.5841587" lon="10.2595874"><ele>197.0</ele><time>2026-04-26T15:19:55.101Z</time></trkpt><trkpt lat="45.5841623" lon="10.2593823"><ele>196.5</ele><time>2026-04-26T15:19:56.102Z</time></trkpt><trkpt lat="45.5841676" lon="10.2591502"><ele>196.0</ele><time>2026-04-26T15:19:57.102Z</time></trkpt><trkpt lat="45.5841777" lon="10.2588928"><ele>196.0</ele><time>2026-04-26T15:19:58.102Z</time></trkpt><trkpt lat="45.5841913" lon="10.2586225"><ele>196.0</ele><time>2026-04-26T15:19:59.102Z</time></trkpt><trkpt lat="45.5842047" lon="10.2583514"><ele>196.0</ele><time>2026-04-26T15:20:00.102Z</time></trkpt><trkpt lat="45.5842184" lon="10.2580697"><ele>196.33333333333331</ele><time>2026-04-26T15:20:01.102Z</time></trkpt><trkpt lat="45.5842314" lon="10.2577831"><ele>196.66666666666669</ele><time>2026-04-26T15:20:02.102Z</time></trkpt><trkpt lat="45.5842466" lon="10.2574962"><ele>197.0</ele><time>2026-04-26T15:20:03.102Z</time></trkpt><trkpt lat="45.58426" lon="10.257208"><ele>197.0</ele><time>2026-04-26T15:20:04.102Z</time></trkpt><trkpt lat="45.5842762" lon="10.2569233"><ele>197.0</ele><time>2026-04-26T15:20:05.102Z</time></trkpt><trkpt lat="45.584287" lon="10.2566522"><ele>197.0</ele><time>2026-04-26T15:20:06.102Z</time></trkpt><trkpt lat="45.5842957" lon="10.25639"><ele>196.0</ele><time>2026-04-26T15:20:07.102Z</time></trkpt><trkpt lat="45.5843058" lon="10.2561439"><ele>195.0</ele><time>2026-04-26T15:20:08.101Z</time></trkpt><trkpt lat="45.5843163" lon="10.2559081"><ele>194.0</ele><time>2026-04-26T15:20:09.102Z</time></trkpt><trkpt lat="45.5843303" lon="10.2557056"><ele>194.2</ele><time>2026-04-26T15:20:10.102Z</time></trkpt><trkpt lat="45.5843574" lon="10.255537"><ele>194.39999999999998</ele><time>2026-04-26T15:20:11.101Z</time></trkpt><trkpt lat="45.5843956" lon="10.2553977"><ele>194.6</ele><time>2026-04-26T15:20:12.102Z</time></trkpt><trkpt lat="45.5844398" lon="10.2552789"><ele>194.8</ele><time>2026-04-26T15:20:13.102Z</time></trkpt><trkpt lat="45.5844583" lon="10.2551555"><ele>195.0</ele><time>2026-04-26T15:20:14.102Z</time></trkpt><trkpt lat="45.5844503" lon="10.2550175"><ele>195.0</ele><time>2026-04-26T15:20:15.102Z</time></trkpt><trkpt lat="45.5844176" lon="10.2548673"><ele>195.0</ele><time>2026-04-26T15:20:16.102Z</time></trkpt><trkpt lat="45.584394" lon="10.2546958"><ele>195.0</ele><time>2026-04-26T15:20:17.102Z</time></trkpt><trkpt lat="45.5843815" lon="10.2545121"><ele>195.0</ele><time>2026-04-26T15:20:18.102Z</time></trkpt><trkpt lat="45.5843745" lon="10.2543208"><ele>194.66666666666669</ele><time>2026-04-26T15:20:19.102Z</time></trkpt><trkpt lat="45.5843741" lon="10.2541159"><ele>194.33333333333334</ele><time>2026-04-26T15:20:20.101Z</time></trkpt><trkpt lat="45.5843804" lon="10.2538945"><ele>194.0</ele><time>2026-04-26T15:20:21.102Z</time></trkpt><trkpt lat="45.5843902" lon="10.2536634"><ele>194.0</ele><time>2026-04-26T15:20:22.101Z</time></trkpt><trkpt lat="45.5844043" lon="10.2534157"><ele>194.0</ele><time>2026-04-26T15:20:23.101Z</time></trkpt><trkpt lat="45.5844154" lon="10.2531536"><ele>194.0</ele><time>2026-04-26T15:20:24.102Z</time></trkpt><trkpt lat="45.5844288" lon="10.2528856"><ele>194.0</ele><time>2026-04-26T15:20:25.101Z</time></trkpt><trkpt lat="45.5844389" lon="10.2526044"><ele>194.0</ele><time>2026-04-26T15:20:26.102Z</time></trkpt><trkpt lat="45.5844527" lon="10.2523184"><ele>194.0</ele><time>2026-04-26T15:20:27.102Z</time></trkpt><trkpt lat="45.5844757" lon="10.2520329"><ele>193.33333333333334</ele><time>2026-04-26T15:20:28.102Z</time></trkpt><trkpt lat="45.584493" lon="10.2517415"><ele>192.66666666666669</ele><time>2026-04-26T15:20:29.102Z</time></trkpt><trkpt lat="45.5845091" lon="10.2514493"><ele>192.0</ele><time>2026-04-26T15:20:30.102Z</time></trkpt><trkpt lat="45.5845221" lon="10.2511598"><ele>192.0</ele><time>2026-04-26T15:20:31.102Z</time></trkpt><trkpt lat="45.5845342" lon="10.2508837"><ele>192.0</ele><time>2026-04-26T15:20:32.102Z</time></trkpt><trkpt lat="45.5845501" lon="10.2506242"><ele>192.0</ele><time>2026-04-26T15:20:33.102Z</time></trkpt><trkpt lat="45.5845625" lon="10.2503715"><ele>192.0</ele><time>2026-04-26T15:20:34.102Z</time></trkpt><trkpt lat="45.5845743" lon="10.2501295"><ele>192.0</ele><time>2026-04-26T15:20:35.102Z</time></trkpt><trkpt lat="45.5845844" lon="10.2498973"><ele>192.0</ele><time>2026-04-26T15:20:36.102Z</time></trkpt><trkpt lat="45.5845954" lon="10.2496753"><ele>191.5</ele><time>2026-04-26T15:20:37.102Z</time></trkpt><trkpt lat="45.5846066" lon="10.2494672"><ele>191.0</ele><time>2026-04-26T15:20:38.101Z</time></trkpt><trkpt lat="45.584619" lon="10.2492616"><ele>190.5</ele><time>2026-04-26T15:20:39.102Z</time></trkpt><trkpt lat="45.5846342" lon="10.2490532"><ele>190.0</ele><time>2026-04-26T15:20:40.102Z</time></trkpt><trkpt lat="45.5846502" lon="10.24884"><ele>190.0</ele><time>2026-04-26T15:20:41.102Z</time></trkpt><trkpt lat="45.5846699" lon="10.2486208"><ele>190.0</ele><time>2026-04-26T15:20:42.102Z</time></trkpt><trkpt lat="45.5846882" lon="10.2484005"><ele>190.0</ele><time>2026-04-26T15:20:43.102Z</time></trkpt><trkpt lat="45.5847065" lon="10.2481796"><ele>190.66666666666669</ele><time>2026-04-26T15:20:44.102Z</time></trkpt><trkpt lat="45.5847228" lon="10.2479625"><ele>191.33333333333334</ele><time>2026-04-26T15:20:45.102Z</time></trkpt><trkpt lat="45.5847386" lon="10.2477438"><ele>192.0</ele><time>2026-04-26T15:20:46.102Z</time></trkpt><trkpt lat="45.584757" lon="10.2475317"><ele>192.0</ele><time>2026-04-26T15:20:47.102Z</time></trkpt><trkpt lat="45.584772" lon="10.247337"><ele>192.0</ele><time>2026-04-26T15:20:48.101Z</time></trkpt><trkpt lat="45.5847888" lon="10.2471737"><ele>192.0</ele><time>2026-04-26T15:20:49.102Z</time></trkpt><trkpt lat="45.5848069" lon="10.2470357"><ele>192.0</ele><time>2026-04-26T15:20:50.101Z</time></trkpt><trkpt lat="45.5848246" lon="10.2469111"><ele>192.0</ele><time>2026-04-26T15:20:51.102Z</time></trkpt><trkpt lat="45.5848532" lon="10.2467969"><ele>191.66666666666666</ele><time>2026-04-26T15:20:52.102Z</time></trkpt><trkpt lat="45.5848956" lon="10.2466952"><ele>191.33333333333334</ele><time>2026-04-26T15:20:53.102Z</time></trkpt><trkpt lat="45.5849576" lon="10.2466105"><ele>191.0</ele><time>2026-04-26T15:20:54.102Z</time></trkpt><trkpt lat="45.5849989" lon="10.2465113"><ele>190.66666666666669</ele><time>2026-04-26T15:20:55.101Z</time></trkpt><trkpt lat="45.5850075" lon="10.2464069"><ele>190.33333333333334</ele><time>2026-04-26T15:20:56.102Z</time></trkpt><trkpt lat="45.5849917" lon="10.2463054"><ele>190.0</ele><time>2026-04-26T15:20:57.102Z</time></trkpt><trkpt lat="45.584953" lon="10.2461993"><ele>189.2</ele><time>2026-04-26T15:20:58.102Z</time></trkpt><trkpt lat="45.5849145" lon="10.2460737"><ele>188.4</ele><time>2026-04-26T15:20:59.101Z</time></trkpt><trkpt lat="45.5848933" lon="10.2459341"><ele>187.60000000000002</ele><time>2026-04-26T15:21:00.102Z</time></trkpt><trkpt lat="45.5848842" lon="10.2457708"><ele>186.8</ele><time>2026-04-26T15:21:01.101Z</time></trkpt><trkpt lat="45.5848882" lon="10.2455874"><ele>186.0</ele><time>2026-04-26T15:21:02.101Z</time></trkpt><trkpt lat="45.5848941" lon="10.2453693"><ele>186.0</ele><time>2026-04-26T15:21:03.102Z</time></trkpt><trkpt lat="45.5849104" lon="10.2451099"><ele>186.0</ele><time>2026-04-26T15:21:04.102Z</time></trkpt><trkpt lat="45.5849357" lon="10.2448169"><ele>186.0</ele><time>2026-04-26T15:21:05.101Z</time></trkpt><trkpt lat="45.5849638" lon="10.2445229"><ele>186.0</ele><time>2026-04-26T15:21:06.102Z</time></trkpt><trkpt lat="45.584982" lon="10.2442359"><ele>186.0</ele><time>2026-04-26T15:21:07.102Z</time></trkpt><trkpt lat="45.5849851" lon="10.2439633"><ele>186.0</ele><time>2026-04-26T15:21:08.102Z</time></trkpt><trkpt lat="45.5849678" lon="10.2436999"><ele>186.0</ele><time>2026-04-26T15:21:09.101Z</time></trkpt><trkpt lat="45.5849369" lon="10.2434435"><ele>186.0</ele><time>2026-04-26T15:21:10.101Z</time></trkpt><trkpt lat="45.5849001" lon="10.2431905"><ele>186.0</ele><time>2026-04-26T15:21:11.102Z</time></trkpt><trkpt lat="45.5848641" lon="10.2429408"><ele>186.0</ele><time>2026-04-26T15:21:12.102Z</time></trkpt><trkpt lat="45.5848179" lon="10.2427036"><ele>186.0</ele><time>2026-04-26T15:21:13.102Z</time></trkpt><trkpt lat="45.5847765" lon="10.2424742"><ele>186.0</ele><time>2026-04-26T15:21:14.102Z</time></trkpt><trkpt lat="45.5847405" lon="10.2422542"><ele>186.0</ele><time>2026-04-26T15:21:15.102Z</time></trkpt><trkpt lat="45.5846957" lon="10.2420434"><ele>186.0</ele><time>2026-04-26T15:21:16.102Z</time></trkpt><trkpt lat="45.58465" lon="10.2418389"><ele>186.0</ele><time>2026-04-26T15:21:17.102Z</time></trkpt><trkpt lat="45.5845971" lon="10.2416486"><ele>186.0</ele><time>2026-04-26T15:21:18.102Z</time></trkpt><trkpt lat="45.5845315" lon="10.2414498"><ele>186.33333333333334</ele><time>2026-04-26T15:21:19.102Z</time></trkpt><trkpt lat="45.5844583" lon="10.2412613"><ele>186.66666666666669</ele><time>2026-04-26T15:21:20.102Z</time></trkpt><trkpt lat="45.5843627" lon="10.2410914"><ele>187.0</ele><time>2026-04-26T15:21:21.102Z</time></trkpt><trkpt lat="45.5842606" lon="10.2409301"><ele>187.0</ele><time>2026-04-26T15:21:22.102Z</time></trkpt><trkpt lat="45.58415" lon="10.2407741"><ele>187.0</ele><time>2026-04-26T15:21:23.102Z</time></trkpt><trkpt lat="45.5840359" lon="10.2406207"><ele>187.0</ele><time>2026-04-26T15:21:24.102Z</time></trkpt><trkpt lat="45.5839196" lon="10.2404753"><ele>186.33333333333334</ele><time>2026-04-26T15:21:25.102Z</time></trkpt><trkpt lat="45.5838047" lon="10.2403343"><ele>185.66666666666666</ele><time>2026-04-26T15:21:26.102Z</time></trkpt><trkpt lat="45.5836892" lon="10.2401924"><ele>185.0</ele><time>2026-04-26T15:21:27.102Z</time></trkpt><trkpt lat="45.5835769" lon="10.2400507"><ele>184.75</ele><time>2026-04-26T15:21:28.101Z</time></trkpt><trkpt lat="45.5834677" lon="10.2399128"><ele>184.5</ele><time>2026-04-26T15:21:29.102Z</time></trkpt><trkpt lat="45.5833578" lon="10.2397848"><ele>184.25</ele><time>2026-04-26T15:21:30.102Z</time></trkpt><trkpt lat="45.583251" lon="10.2396615"><ele>184.0</ele><time>2026-04-26T15:21:31.102Z</time></trkpt><trkpt lat="45.5831501" lon="10.2395298"><ele>184.0</ele><time>2026-04-26T15:21:32.102Z</time></trkpt><trkpt lat="45.5830406" lon="10.2393909"><ele>184.0</ele><time>2026-04-26T15:21:33.102Z</time></trkpt><trkpt lat="45.5829195" lon="10.2392506"><ele>184.0</ele><time>2026-04-26T15:21:34.101Z</time></trkpt><trkpt lat="45.5827904" lon="10.2391134"><ele>183.33333333333334</ele><time>2026-04-26T15:21:35.101Z</time></trkpt><trkpt lat="45.5826588" lon="10.2389605"><ele>182.66666666666666</ele><time>2026-04-26T15:21:36.102Z</time></trkpt><trkpt lat="45.5825178" lon="10.2388286"><ele>182.0</ele><time>2026-04-26T15:21:37.101Z</time></trkpt><trkpt lat="45.582374" lon="10.2386946"><ele>182.0</ele><time>2026-04-26T15:21:38.102Z</time></trkpt><trkpt lat="45.5822272" lon="10.2385528"><ele>182.0</ele><time>2026-04-26T15:21:39.102Z</time></trkpt><trkpt lat="45.5820798" lon="10.2384157"><ele>182.0</ele><time>2026-04-26T15:21:40.102Z</time></trkpt><trkpt lat="45.5819302" lon="10.2382746"><ele>181.66666666666666</ele><time>2026-04-26T15:21:41.102Z</time></trkpt><trkpt lat="45.5817814" lon="10.2381302"><ele>181.33333333333334</ele><time>2026-04-26T15:21:42.101Z</time></trkpt><trkpt lat="45.5816316" lon="10.2379907"><ele>181.0</ele><time>2026-04-26T15:21:43.102Z</time></trkpt><trkpt lat="45.5814836" lon="10.2378488"><ele>181.0</ele><time>2026-04-26T15:21:44.101Z</time></trkpt><trkpt lat="45.5813338" lon="10.2377045"><ele>181.0</ele><time>2026-04-26T15:21:45.101Z</time></trkpt><trkpt lat="45.5811866" lon="10.2375659"><ele>181.0</ele><time>2026-04-26T15:21:46.101Z</time></trkpt><trkpt lat="45.5810432" lon="10.2374207"><ele>181.0</ele><time>2026-04-26T15:21:47.101Z</time></trkpt><trkpt lat="45.5809003" lon="10.237281"><ele>181.0</ele><time>2026-04-26T15:21:48.101Z</time></trkpt><trkpt lat="45.5807594" lon="10.2371426"><ele>181.0</ele><time>2026-04-26T15:21:49.102Z</time></trkpt><trkpt lat="45.5806165" lon="10.2370062"><ele>181.0</ele><time>2026-04-26T15:21:50.102Z</time></trkpt><trkpt lat="45.5804712" lon="10.2368686"><ele>181.0</ele><time>2026-04-26T15:21:51.102Z</time></trkpt><trkpt lat="45.5803287" lon="10.2367336"><ele>181.0</ele><time>2026-04-26T15:21:52.102Z</time></trkpt><trkpt lat="45.5801947" lon="10.2366022"><ele>180.33333333333334</ele><time>2026-04-26T15:21:53.102Z</time></trkpt><trkpt lat="45.5800667" lon="10.2364745"><ele>179.66666666666666</ele><time>2026-04-26T15:21:54.102Z</time></trkpt><trkpt lat="45.5799423" lon="10.2363504"><ele>179.0</ele><time>2026-04-26T15:21:55.102Z</time></trkpt><trkpt lat="45.579823" lon="10.2362333"><ele>179.0</ele><time>2026-04-26T15:21:56.102Z</time></trkpt><trkpt lat="45.5797157" lon="10.2361161"><ele>179.0</ele><time>2026-04-26T15:21:57.102Z</time></trkpt><trkpt lat="45.5796153" lon="10.2360077"><ele>179.0</ele><time>2026-04-26T15:21:58.102Z</time></trkpt><trkpt lat="45.5795204" lon="10.2359073"><ele>179.0</ele><time>2026-04-26T15:21:59.102Z</time></trkpt><trkpt lat="45.5794272" lon="10.2358101"><ele>179.0</ele><time>2026-04-26T15:22:00.102Z</time></trkpt><trkpt lat="45.5793438" lon="10.2357199"><ele>179.0</ele><time>2026-04-26T15:22:01.102Z</time></trkpt><trkpt lat="45.5792682" lon="10.2356455"><ele>179.0</ele><time>2026-04-26T15:22:02.102Z</time></trkpt><trkpt lat="45.5792092" lon="10.2355838"><ele>179.0</ele><time>2026-04-26T15:22:03.101Z</time></trkpt><trkpt lat="45.5791255" lon="10.2355023"><ele>179.0</ele><time>2026-04-26T15:22:05.101Z</time></trkpt><trkpt lat="45.5790425" lon="10.2354132"><ele>179.2</ele><time>2026-04-26T15:22:07.102Z</time></trkpt><trkpt lat="45.5789891" lon="10.2353513"><ele>179.39999999999998</ele><time>2026-04-26T15:22:08.101Z</time></trkpt><trkpt lat="45.5789253" lon="10.2352849"><ele>179.6</ele><time>2026-04-26T15:22:09.102Z</time></trkpt><trkpt lat="45.5788491" lon="10.2352152"><ele>179.8</ele><time>2026-04-26T15:22:10.102Z</time></trkpt><trkpt lat="45.5787637" lon="10.2351303"><ele>180.0</ele><time>2026-04-26T15:22:11.101Z</time></trkpt><trkpt lat="45.5786725" lon="10.2350343"><ele>180.0</ele><time>2026-04-26T15:22:12.102Z</time></trkpt><trkpt lat="45.578571" lon="10.234927"><ele>180.0</ele><time>2026-04-26T15:22:13.102Z</time></trkpt><trkpt lat="45.5784502" lon="10.234805"><ele>180.0</ele><time>2026-04-26T15:22:14.102Z</time></trkpt><trkpt lat="45.5783191" lon="10.2346746"><ele>180.0</ele><time>2026-04-26T15:22:15.102Z</time></trkpt><trkpt lat="45.5781792" lon="10.2345304"><ele>179.66666666666666</ele><time>2026-04-26T15:22:16.102Z</time></trkpt><trkpt lat="45.5780299" lon="10.2343757"><ele>179.33333333333331</ele><time>2026-04-26T15:22:17.102Z</time></trkpt><trkpt lat="45.5778813" lon="10.2342155"><ele>179.0</ele><time>2026-04-26T15:22:18.102Z</time></trkpt><trkpt lat="45.5777259" lon="10.2340493"><ele>178.66666666666666</ele><time>2026-04-26T15:22:19.102Z</time></trkpt><trkpt lat="45.5775724" lon="10.2338852"><ele>178.33333333333334</ele><time>2026-04-26T15:22:20.102Z</time></trkpt><trkpt lat="45.5774155" lon="10.2337216"><ele>178.0</ele><time>2026-04-26T15:22:21.102Z</time></trkpt><trkpt lat="45.5772628" lon="10.233561"><ele>178.0</ele><time>2026-04-26T15:22:22.101Z</time></trkpt><trkpt lat="45.5771145" lon="10.233406"><ele>178.0</ele><time>2026-04-26T15:22:23.102Z</time></trkpt><trkpt lat="45.5769739" lon="10.2332609"><ele>178.0</ele><time>2026-04-26T15:22:24.102Z</time></trkpt><trkpt lat="45.5768387" lon="10.2331164"><ele>177.66666666666669</ele><time>2026-04-26T15:22:25.102Z</time></trkpt><trkpt lat="45.5767018" lon="10.2329771"><ele>177.33333333333334</ele><time>2026-04-26T15:22:26.102Z</time></trkpt><trkpt lat="45.5765669" lon="10.2328376"><ele>177.0</ele><time>2026-04-26T15:22:27.101Z</time></trkpt><trkpt lat="45.5764314" lon="10.2326943"><ele>177.0</ele><time>2026-04-26T15:22:28.102Z</time></trkpt><trkpt lat="45.5762993" lon="10.2325512"><ele>177.0</ele><time>2026-04-26T15:22:29.102Z</time></trkpt><trkpt lat="45.5761741" lon="10.2323988"><ele>177.0</ele><time>2026-04-26T15:22:30.102Z</time></trkpt><trkpt lat="45.5760652" lon="10.2322378"><ele>176.75</ele><time>2026-04-26T15:22:31.102Z</time></trkpt><trkpt lat="45.5759697" lon="10.2320678"><ele>176.5</ele><time>2026-04-26T15:22:32.102Z</time></trkpt><trkpt lat="45.5758958" lon="10.2318929"><ele>176.25</ele><time>2026-04-26T15:22:33.102Z</time></trkpt><trkpt lat="45.5758451" lon="10.2317117"><ele>176.0</ele><time>2026-04-26T15:22:34.102Z</time></trkpt><trkpt lat="45.5758122" lon="10.2315321"><ele>176.0</ele><time>2026-04-26T15:22:35.102Z</time></trkpt><trkpt lat="45.5758027" lon="10.2313732"><ele>176.0</ele><time>2026-04-26T15:22:36.101Z</time></trkpt><trkpt lat="45.5758135" lon="10.231261"><ele>176.0</ele><time>2026-04-26T15:22:37.102Z</time></trkpt><trkpt lat="45.5758467" lon="10.231107"><ele>176.0</ele><time>2026-04-26T15:22:39.102Z</time></trkpt><trkpt lat="45.5758715" lon="10.2310076"><ele>176.0</ele><time>2026-04-26T15:22:40.102Z</time></trkpt><trkpt lat="45.57591" lon="10.2309064"><ele>176.0</ele><time>2026-04-26T15:22:41.101Z</time></trkpt><trkpt lat="45.5759519" lon="10.2308074"><ele>176.0</ele><time>2026-04-26T15:22:42.101Z</time></trkpt><trkpt lat="45.5760054" lon="10.2307098"><ele>176.0</ele><time>2026-04-26T15:22:43.101Z</time></trkpt><trkpt lat="45.5760803" lon="10.2306147"><ele>176.0</ele><time>2026-04-26T15:22:44.102Z</time></trkpt><trkpt lat="45.5761781" lon="10.2305271"><ele>176.0</ele><time>2026-04-26T15:22:45.102Z</time></trkpt><trkpt lat="45.5762952" lon="10.2304434"><ele>176.0</ele><time>2026-04-26T15:22:46.101Z</time></trkpt><trkpt lat="45.5764435" lon="10.230374"><ele>176.0</ele><time>2026-04-26T15:22:47.102Z</time></trkpt><trkpt lat="45.5766147" lon="10.2303063"><ele>176.0</ele><time>2026-04-26T15:22:48.102Z</time></trkpt><trkpt lat="45.5768046" lon="10.2302443"><ele>176.0</ele><time>2026-04-26T15:22:49.102Z</time></trkpt><trkpt lat="45.5769976" lon="10.2301844"><ele>176.0</ele><time>2026-04-26T15:22:50.102Z</time></trkpt><trkpt lat="45.577178" lon="10.2301254"><ele>176.0</ele><time>2026-04-26T15:22:51.102Z</time></trkpt><trkpt lat="45.5773514" lon="10.2300672"><ele>176.66666666666666</ele><time>2026-04-26T15:22:52.102Z</time></trkpt><trkpt lat="45.577527" lon="10.2300098"><ele>177.33333333333334</ele><time>2026-04-26T15:22:53.102Z</time></trkpt><trkpt lat="45.5776991" lon="10.2299558"><ele>178.0</ele><time>2026-04-26T15:22:54.102Z</time></trkpt><trkpt lat="45.5778633" lon="10.2299"><ele>179.0</ele><time>2026-04-26T15:22:55.102Z</time></trkpt><trkpt lat="45.578027" lon="10.2298677"><ele>180.0</ele><time>2026-04-26T15:22:56.101Z</time></trkpt><trkpt lat="45.5781831" lon="10.2298488"><ele>181.0</ele><time>2026-04-26T15:22:57.101Z</time></trkpt><trkpt lat="45.5783335" lon="10.2298327"><ele>181.0</ele><time>2026-04-26T15:22:58.102Z</time></trkpt><trkpt lat="45.5784706" lon="10.2298198"><ele>181.0</ele><time>2026-04-26T15:22:59.102Z</time></trkpt><trkpt lat="45.5785927" lon="10.2298109"><ele>181.0</ele><time>2026-04-26T15:23:00.102Z</time></trkpt><trkpt lat="45.5787023" lon="10.2297968"><ele>181.0</ele><time>2026-04-26T15:23:01.102Z</time></trkpt><trkpt lat="45.5788038" lon="10.2297888"><ele>180.66666666666669</ele><time>2026-04-26T15:23:02.102Z</time></trkpt><trkpt lat="45.5788957" lon="10.2297845"><ele>180.33333333333334</ele><time>2026-04-26T15:23:03.101Z</time></trkpt><trkpt lat="45.5789846" lon="10.2297918"><ele>180.0</ele><time>2026-04-26T15:23:04.102Z</time></trkpt><trkpt lat="45.5790629" lon="10.2297899"><ele>179.66666666666666</ele><time>2026-04-26T15:23:05.102Z</time></trkpt><trkpt lat="45.5791347" lon="10.2297918"><ele>179.33333333333331</ele><time>2026-04-26T15:23:06.102Z</time></trkpt><trkpt lat="45.5792013" lon="10.2297862"><ele>179.0</ele><time>2026-04-26T15:23:07.101Z</time></trkpt><trkpt lat="45.5793084" lon="10.2297777"><ele>179.0</ele><time>2026-04-26T15:23:09.102Z</time></trkpt><trkpt lat="45.5793982" lon="10.2297589"><ele>179.0</ele><time>2026-04-26T15:23:11.102Z</time></trkpt><trkpt lat="45.5794779" lon="10.2297422"><ele>179.0</ele><time>2026-04-26T15:23:13.102Z</time></trkpt><trkpt lat="45.5795571" lon="10.2297291"><ele>179.0</ele><time>2026-04-26T15:23:15.102Z</time></trkpt><trkpt lat="45.5796217" lon="10.2297109"><ele>179.0</ele><time>2026-04-26T15:23:17.102Z</time></trkpt><trkpt lat="45.5797136" lon="10.2297044"><ele>179.0</ele><time>2026-04-26T15:23:20.102Z</time></trkpt><trkpt lat="45.5798079" lon="10.2297066"><ele>179.0</ele><time>2026-04-26T15:23:22.102Z</time></trkpt><trkpt lat="45.5799028" lon="10.2297111"><ele>179.0</ele><time>2026-04-26T15:23:24.102Z</time></trkpt><trkpt lat="45.5799897" lon="10.2297207"><ele>179.0</ele><time>2026-04-26T15:23:26.102Z</time></trkpt><trkpt lat="45.5800924" lon="10.229756"><ele>179.0</ele><time>2026-04-26T15:23:28.101Z</time></trkpt><trkpt lat="45.5801901" lon="10.2297618"><ele>179.0</ele><time>2026-04-26T15:23:30.101Z</time></trkpt><trkpt lat="45.5802748" lon="10.2296855"><ele>179.39999999999998</ele><time>2026-04-26T15:23:32.102Z</time></trkpt><trkpt lat="45.5803751" lon="10.2295885"><ele>179.8</ele><time>2026-04-26T15:23:34.102Z</time></trkpt><trkpt lat="45.5804758" lon="10.2295082"><ele>180.2</ele><time>2026-04-26T15:23:36.102Z</time></trkpt><trkpt lat="45.5805502" lon="10.229452"><ele>180.60000000000002</ele><time>2026-04-26T15:23:38.102Z</time></trkpt><trkpt lat="45.5806197" lon="10.2293965"><ele>181.0</ele><time>2026-04-26T15:23:43.101Z</time></trkpt><trkpt lat="45.5806895" lon="10.2293531"><ele>181.0</ele><time>2026-04-26T15:23:45.101Z</time></trkpt><trkpt lat="45.5807589" lon="10.2293322"><ele>181.0</ele><time>2026-04-26T15:23:47.102Z</time></trkpt><trkpt lat="45.5808528" lon="10.2293655"><ele>181.0</ele><time>2026-04-26T15:23:49.101Z</time></trkpt><trkpt lat="45.580952" lon="10.2293805"><ele>181.0</ele><time>2026-04-26T15:23:51.102Z</time></trkpt><trkpt lat="45.5810551" lon="10.2292938"><ele>181.0</ele><time>2026-04-26T15:23:53.102Z</time></trkpt><trkpt lat="45.5811627" lon="10.2292135"><ele>181.0</ele><time>2026-04-26T15:23:55.102Z</time></trkpt><trkpt lat="45.581298" lon="10.229148"><ele>181.0</ele><time>2026-04-26T15:23:57.101Z</time></trkpt><trkpt lat="45.5813813" lon="10.2291177"><ele>181.0</ele><time>2026-04-26T15:23:58.102Z</time></trkpt><trkpt lat="45.5814625" lon="10.2290794"><ele>181.0</ele><time>2026-04-26T15:23:59.102Z</time></trkpt><trkpt lat="45.58154" lon="10.2290386"><ele>181.0</ele><time>2026-04-26T15:24:00.102Z</time></trkpt><trkpt lat="45.5816142" lon="10.228994"><ele>180.83333333333334</ele><time>2026-04-26T15:24:01.102Z</time></trkpt><trkpt lat="45.5816831" lon="10.2289517"><ele>180.66666666666669</ele><time>2026-04-26T15:24:02.102Z</time></trkpt><trkpt lat="45.5817503" lon="10.2289097"><ele>180.5</ele><time>2026-04-26T15:24:03.101Z</time></trkpt><trkpt lat="45.5818155" lon="10.2288623"><ele>180.33333333333334</ele><time>2026-04-26T15:24:04.102Z</time></trkpt><trkpt lat="45.5818846" lon="10.2288189"><ele>180.16666666666666</ele><time>2026-04-26T15:24:05.102Z</time></trkpt><trkpt lat="45.5819584" lon="10.2287654"><ele>180.0</ele><time>2026-04-26T15:24:06.102Z</time></trkpt><trkpt lat="45.5820304" lon="10.2286987"><ele>180.4</ele><time>2026-04-26T15:24:07.102Z</time></trkpt><trkpt lat="45.5821059" lon="10.228633"><ele>180.8</ele><time>2026-04-26T15:24:08.102Z</time></trkpt><trkpt lat="45.5821845" lon="10.228561"><ele>181.2</ele><time>2026-04-26T15:24:09.102Z</time></trkpt><trkpt lat="45.5822609" lon="10.2284892"><ele>181.6</ele><time>2026-04-26T15:24:10.102Z</time></trkpt><trkpt lat="45.5823355" lon="10.2284089"><ele>182.0</ele><time>2026-04-26T15:24:11.102Z</time></trkpt><trkpt lat="45.5824128" lon="10.2283222"><ele>182.0</ele><time>2026-04-26T15:24:12.102Z</time></trkpt><trkpt lat="45.5824902" lon="10.2282327"><ele>182.0</ele><time>2026-04-26T15:24:13.102Z</time></trkpt><trkpt lat="45.5825735" lon="10.2281407"><ele>182.0</ele><time>2026-04-26T15:24:14.102Z</time></trkpt><trkpt lat="45.5826575" lon="10.2280473"><ele>182.0</ele><time>2026-04-26T15:24:15.102Z</time></trkpt><trkpt lat="45.5827397" lon="10.2279509"><ele>182.0</ele><time>2026-04-26T15:24:16.102Z</time></trkpt><trkpt lat="45.5828225" lon="10.2278545"><ele>182.0</ele><time>2026-04-26T15:24:17.102Z</time></trkpt><trkpt lat="45.5829073" lon="10.2277603"><ele>182.0</ele><time>2026-04-26T15:24:18.101Z</time></trkpt><trkpt lat="45.5829941" lon="10.2276588"><ele>182.0</ele><time>2026-04-26T15:24:19.102Z</time></trkpt><trkpt lat="45.5830906" lon="10.2275514"><ele>182.0</ele><time>2026-04-26T15:24:20.102Z</time></trkpt><trkpt lat="45.5831929" lon="10.2274283"><ele>182.5</ele><time>2026-04-26T15:24:21.102Z</time></trkpt><trkpt lat="45.5833045" lon="10.2272951"><ele>183.0</ele><time>2026-04-26T15:24:22.102Z</time></trkpt><trkpt lat="45.5834184" lon="10.2271614"><ele>183.5</ele><time>2026-04-26T15:24:23.102Z</time></trkpt><trkpt lat="45.5835372" lon="10.2270249"><ele>184.0</ele><time>2026-04-26T15:24:24.101Z</time></trkpt><trkpt lat="45.5836564" lon="10.2268869"><ele>183.66666666666669</ele><time>2026-04-26T15:24:25.102Z</time></trkpt><trkpt lat="45.5837802" lon="10.2267547"><ele>183.33333333333334</ele><time>2026-04-26T15:24:26.102Z</time></trkpt><trkpt lat="45.5839063" lon="10.2266213"><ele>183.0</ele><time>2026-04-26T15:24:27.101Z</time></trkpt><trkpt lat="45.5840352" lon="10.2264979"><ele>183.66666666666666</ele><time>2026-04-26T15:24:28.102Z</time></trkpt><trkpt lat="45.5841666" lon="10.2263824"><ele>184.33333333333331</ele><time>2026-04-26T15:24:29.102Z</time></trkpt><trkpt lat="45.5842999" lon="10.2262749"><ele>185.0</ele><time>2026-04-26T15:24:30.102Z</time></trkpt><trkpt lat="45.5844306" lon="10.2261729"><ele>185.75</ele><time>2026-04-26T15:24:31.102Z</time></trkpt><trkpt lat="45.5845621" lon="10.2260773"><ele>186.5</ele><time>2026-04-26T15:24:32.102Z</time></trkpt><trkpt lat="45.5846908" lon="10.2259963"><ele>187.25</ele><time>2026-04-26T15:24:33.102Z</time></trkpt><trkpt lat="45.584815" lon="10.2259231"><ele>188.0</ele><time>2026-04-26T15:24:34.102Z</time></trkpt><trkpt lat="45.5849381" lon="10.2258634"><ele>188.0</ele><time>2026-04-26T15:24:35.102Z</time></trkpt><trkpt lat="45.585077" lon="10.2258221"><ele>188.0</ele><time>2026-04-26T15:24:36.102Z</time></trkpt><trkpt lat="45.5852408" lon="10.2257981"><ele>188.0</ele><time>2026-04-26T15:24:37.102Z</time></trkpt><trkpt lat="45.5854083" lon="10.2257763"><ele>187.66666666666666</ele><time>2026-04-26T15:24:38.102Z</time></trkpt><trkpt lat="45.5855772" lon="10.2257559"><ele>187.33333333333334</ele><time>2026-04-26T15:24:39.101Z</time></trkpt><trkpt lat="45.5857435" lon="10.2257383"><ele>187.0</ele><time>2026-04-26T15:24:40.102Z</time></trkpt><trkpt lat="45.5859058" lon="10.2257246"><ele>187.0</ele><time>2026-04-26T15:24:41.102Z</time></trkpt><trkpt lat="45.5860712" lon="10.2257101"><ele>187.0</ele><time>2026-04-26T15:24:42.102Z</time></trkpt><trkpt lat="45.5862392" lon="10.2256898"><ele>187.0</ele><time>2026-04-26T15:24:43.102Z</time></trkpt><trkpt lat="45.5864097" lon="10.2256722"><ele>187.33333333333334</ele><time>2026-04-26T15:24:44.102Z</time></trkpt><trkpt lat="45.5865809" lon="10.225662"><ele>187.66666666666666</ele><time>2026-04-26T15:24:45.102Z</time></trkpt><trkpt lat="45.5867518" lon="10.2256439"><ele>188.0</ele><time>2026-04-26T15:24:46.102Z</time></trkpt><trkpt lat="45.5869183" lon="10.2256352"><ele>188.25</ele><time>2026-04-26T15:24:47.102Z</time></trkpt><trkpt lat="45.5870765" lon="10.2256216"><ele>188.5</ele><time>2026-04-26T15:24:48.102Z</time></trkpt><trkpt lat="45.5872239" lon="10.2256123"><ele>188.75</ele><time>2026-04-26T15:24:49.102Z</time></trkpt><trkpt lat="45.5873641" lon="10.2256061"><ele>189.0</ele><time>2026-04-26T15:24:50.102Z</time></trkpt><trkpt lat="45.5874961" lon="10.2255985"><ele>189.0</ele><time>2026-04-26T15:24:51.102Z</time></trkpt><trkpt lat="45.5876106" lon="10.2256029"><ele>189.0</ele><time>2026-04-26T15:24:52.102Z</time></trkpt><trkpt lat="45.587692" lon="10.2256108"><ele>189.0</ele><time>2026-04-26T15:24:53.102Z</time></trkpt><trkpt lat="45.5877839" lon="10.2256305"><ele>189.0</ele><time>2026-04-26T15:24:55.102Z</time></trkpt><trkpt lat="45.5878937" lon="10.2257218"><ele>189.0</ele><time>2026-04-26T15:24:57.102Z</time></trkpt><trkpt lat="45.58802" lon="10.225705"><ele>189.25</ele><time>2026-04-26T15:24:59.102Z</time></trkpt><trkpt lat="45.5881019" lon="10.2256348"><ele>189.5</ele><time>2026-04-26T15:25:00.102Z</time></trkpt><trkpt lat="45.5882088" lon="10.2255772"><ele>189.75</ele><time>2026-04-26T15:25:01.101Z</time></trkpt><trkpt lat="45.5883341" lon="10.2255379"><ele>190.0</ele><time>2026-04-26T15:25:02.102Z</time></trkpt><trkpt lat="45.588474" lon="10.2255044"><ele>190.0</ele><time>2026-04-26T15:25:03.102Z</time></trkpt><trkpt lat="45.5886172" lon="10.2254736"><ele>190.0</ele><time>2026-04-26T15:25:04.102Z</time></trkpt><trkpt lat="45.5887801" lon="10.2254532"><ele>190.0</ele><time>2026-04-26T15:25:05.101Z</time></trkpt><trkpt lat="45.5889284" lon="10.2254299"><ele>190.75</ele><time>2026-04-26T15:25:06.102Z</time></trkpt><trkpt lat="45.5890692" lon="10.2254186"><ele>191.5</ele><time>2026-04-26T15:25:07.101Z</time></trkpt><trkpt lat="45.5891938" lon="10.225406"><ele>192.25</ele><time>2026-04-26T15:25:08.102Z</time></trkpt><trkpt lat="45.5892961" lon="10.225407"><ele>193.0</ele><time>2026-04-26T15:25:09.101Z</time></trkpt><trkpt lat="45.5893805" lon="10.2254268"><ele>192.99999999999997</ele><time>2026-04-26T15:25:10.102Z</time></trkpt><trkpt lat="45.5894535" lon="10.2254797"><ele>193.0</ele><time>2026-04-26T15:25:11.102Z</time></trkpt><trkpt lat="45.5895175" lon="10.2255474"><ele>193.0</ele><time>2026-04-26T15:25:12.102Z</time></trkpt><trkpt lat="45.5895874" lon="10.2256021"><ele>193.0</ele><time>2026-04-26T15:25:13.102Z</time></trkpt><trkpt lat="45.5896701" lon="10.2256163"><ele>192.99999999999997</ele><time>2026-04-26T15:25:14.102Z</time></trkpt><trkpt lat="45.5897486" lon="10.2255772"><ele>193.0</ele><time>2026-04-26T15:25:15.102Z</time></trkpt><trkpt lat="45.5898179" lon="10.225498"><ele>193.5</ele><time>2026-04-26T15:25:16.102Z</time></trkpt><trkpt lat="45.589906" lon="10.2254317"><ele>194.0</ele><time>2026-04-26T15:25:17.102Z</time></trkpt><trkpt lat="45.5900166" lon="10.2253978"><ele>194.5</ele><time>2026-04-26T15:25:18.102Z</time></trkpt><trkpt lat="45.5901506" lon="10.225388"><ele>195.0</ele><time>2026-04-26T15:25:19.102Z</time></trkpt><trkpt lat="45.5902942" lon="10.225388"><ele>194.33333333333331</ele><time>2026-04-26T15:25:20.102Z</time></trkpt><trkpt lat="45.5904432" lon="10.2253956"><ele>193.66666666666666</ele><time>2026-04-26T15:25:21.102Z</time></trkpt><trkpt lat="45.5906028" lon="10.2254038"><ele>193.0</ele><time>2026-04-26T15:25:22.102Z</time></trkpt><trkpt lat="45.5907624" lon="10.2254139"><ele>193.0</ele><time>2026-04-26T15:25:23.101Z</time></trkpt><trkpt lat="45.5909254" lon="10.2254253"><ele>193.0</ele><time>2026-04-26T15:25:24.102Z</time></trkpt><trkpt lat="45.5910883" lon="10.2254387"><ele>193.0</ele><time>2026-04-26T15:25:25.102Z</time></trkpt><trkpt lat="45.5912504" lon="10.22545"><ele>193.33333333333331</ele><time>2026-04-26T15:25:26.101Z</time></trkpt><trkpt lat="45.5914146" lon="10.2254622"><ele>193.66666666666669</ele><time>2026-04-26T15:25:27.102Z</time></trkpt><trkpt lat="45.5915751" lon="10.2254756"><ele>194.0</ele><time>2026-04-26T15:25:28.102Z</time></trkpt><trkpt lat="45.5917358" lon="10.2254819"><ele>194.0</ele><time>2026-04-26T15:25:29.101Z</time></trkpt><trkpt lat="45.5918947" lon="10.2254877"><ele>194.0</ele><time>2026-04-26T15:25:30.102Z</time></trkpt><trkpt lat="45.5920571" lon="10.2254994"><ele>194.0</ele><time>2026-04-26T15:25:31.102Z</time></trkpt><trkpt lat="45.5922102" lon="10.225502"><ele>193.75</ele><time>2026-04-26T15:25:32.102Z</time></trkpt><trkpt lat="45.5923591" lon="10.2255072"><ele>193.5</ele><time>2026-04-26T15:25:33.102Z</time></trkpt><trkpt lat="45.5924899" lon="10.2255101"><ele>193.25</ele><time>2026-04-26T15:25:34.101Z</time></trkpt><trkpt lat="45.592598" lon="10.2255237"><ele>193.0</ele><time>2026-04-26T15:25:35.102Z</time></trkpt><trkpt lat="45.5926843" lon="10.225529"><ele>193.0</ele><time>2026-04-26T15:25:36.102Z</time></trkpt><trkpt lat="45.5927596" lon="10.2255416"><ele>193.0</ele><time>2026-04-26T15:25:37.101Z</time></trkpt><trkpt lat="45.5928682" lon="10.2255646"><ele>193.0</ele><time>2026-04-26T15:25:39.101Z</time></trkpt><trkpt lat="45.5929677" lon="10.225635"><ele>193.0</ele><time>2026-04-26T15:25:41.102Z</time></trkpt><trkpt lat="45.5930407" lon="10.2257076"><ele>193.0</ele><time>2026-04-26T15:25:42.102Z</time></trkpt><trkpt lat="45.5931109" lon="10.2257837"><ele>193.16666666666666</ele><time>2026-04-26T15:25:43.101Z</time></trkpt><trkpt lat="45.5931831" lon="10.2258281"><ele>193.33333333333331</ele><time>2026-04-26T15:25:44.101Z</time></trkpt><trkpt lat="45.5932604" lon="10.2258359"><ele>193.5</ele><time>2026-04-26T15:25:45.102Z</time></trkpt><trkpt lat="45.5933282" lon="10.2258116"><ele>193.66666666666669</ele><time>2026-04-26T15:25:46.102Z</time></trkpt><trkpt lat="45.5933987" lon="10.2257612"><ele>193.83333333333334</ele><time>2026-04-26T15:25:47.102Z</time></trkpt><trkpt lat="45.5934635" lon="10.2256826"><ele>194.0</ele><time>2026-04-26T15:25:48.102Z</time></trkpt><trkpt lat="45.5935476" lon="10.2256043"><ele>194.0</ele><time>2026-04-26T15:25:49.102Z</time></trkpt><trkpt lat="45.5936561" lon="10.2255531"><ele>194.0</ele><time>2026-04-26T15:25:50.102Z</time></trkpt><trkpt lat="45.5937904" lon="10.225518"><ele>194.0</ele><time>2026-04-26T15:25:51.102Z</time></trkpt><trkpt lat="45.5939469" lon="10.2254829"><ele>194.0</ele><time>2026-04-26T15:25:52.101Z</time></trkpt><trkpt lat="45.5941183" lon="10.2254376"><ele>195.0</ele><time>2026-04-26T15:25:53.102Z</time></trkpt><trkpt lat="45.5942971" lon="10.2253834"><ele>196.0</ele><time>2026-04-26T15:25:54.102Z</time></trkpt><trkpt lat="45.5944816" lon="10.2253129"><ele>197.0</ele><time>2026-04-26T15:25:55.102Z</time></trkpt><trkpt lat="45.5946716" lon="10.2252342"><ele>197.66666666666669</ele><time>2026-04-26T15:25:56.102Z</time></trkpt><trkpt lat="45.5948657" lon="10.2251522"><ele>198.33333333333331</ele><time>2026-04-26T15:25:57.102Z</time></trkpt><trkpt lat="45.5950606" lon="10.2250638"><ele>199.0</ele><time>2026-04-26T15:25:58.102Z</time></trkpt><trkpt lat="45.5952568" lon="10.2249694"><ele>199.33333333333331</ele><time>2026-04-26T15:25:59.101Z</time></trkpt><trkpt lat="45.5954542" lon="10.2248778"><ele>199.66666666666669</ele><time>2026-04-26T15:26:00.102Z</time></trkpt><trkpt lat="45.5956529" lon="10.2247857"><ele>200.0</ele><time>2026-04-26T15:26:01.102Z</time></trkpt><trkpt lat="45.5958464" lon="10.22469"><ele>199.66666666666669</ele><time>2026-04-26T15:26:02.101Z</time></trkpt><trkpt lat="45.5960373" lon="10.2245943"><ele>199.33333333333331</ele><time>2026-04-26T15:26:03.102Z</time></trkpt><trkpt lat="45.5962293" lon="10.2245042"><ele>199.0</ele><time>2026-04-26T15:26:04.102Z</time></trkpt><trkpt lat="45.5964176" lon="10.224413"><ele>199.0</ele><time>2026-04-26T15:26:05.102Z</time></trkpt><trkpt lat="45.5966066" lon="10.2243228"><ele>199.0</ele><time>2026-04-26T15:26:06.102Z</time></trkpt><trkpt lat="45.5967904" lon="10.2242336"><ele>199.0</ele><time>2026-04-26T15:26:07.101Z</time></trkpt><trkpt lat="45.5969724" lon="10.2241429"><ele>200.0</ele><time>2026-04-26T15:26:08.102Z</time></trkpt><trkpt lat="45.5971553" lon="10.2240555"><ele>201.0</ele><time>2026-04-26T15:26:09.102Z</time></trkpt><trkpt lat="45.5973349" lon="10.2239703"><ele>202.0</ele><time>2026-04-26T15:26:10.102Z</time></trkpt><trkpt lat="45.5975151" lon="10.2238914"><ele>202.0</ele><time>2026-04-26T15:26:11.102Z</time></trkpt><trkpt lat="45.5976977" lon="10.2238053"><ele>202.0</ele><time>2026-04-26T15:26:12.101Z</time></trkpt><trkpt lat="45.5978839" lon="10.2237162"><ele>202.0</ele><time>2026-04-26T15:26:13.102Z</time></trkpt><trkpt lat="45.5980711" lon="10.2236211"><ele>203.0</ele><time>2026-04-26T15:26:14.102Z</time></trkpt><trkpt lat="45.5982626" lon="10.2235277"><ele>204.0</ele><time>2026-04-26T15:26:15.102Z</time></trkpt><trkpt lat="45.5984528" lon="10.2234368"><ele>205.0</ele><time>2026-04-26T15:26:16.102Z</time></trkpt><trkpt lat="45.59864" lon="10.2233442"><ele>205.66666666666666</ele><time>2026-04-26T15:26:17.102Z</time></trkpt><trkpt lat="45.5988155" lon="10.2232595"><ele>206.33333333333331</ele><time>2026-04-26T15:26:18.102Z</time></trkpt><trkpt lat="45.5989786" lon="10.2231826"><ele>207.0</ele><time>2026-04-26T15:26:19.102Z</time></trkpt><trkpt lat="45.5991313" lon="10.2231044"><ele>207.25</ele><time>2026-04-26T15:26:20.102Z</time></trkpt><trkpt lat="45.5992709" lon="10.2230378"><ele>207.5</ele><time>2026-04-26T15:26:21.102Z</time></trkpt><trkpt lat="45.5993898" lon="10.2229829"><ele>207.75</ele><time>2026-04-26T15:26:22.101Z</time></trkpt><trkpt lat="45.5994957" lon="10.2229355"><ele>208.0</ele><time>2026-04-26T15:26:23.102Z</time></trkpt><trkpt lat="45.5995947" lon="10.2229013"><ele>208.33333333333331</ele><time>2026-04-26T15:26:24.102Z</time></trkpt><trkpt lat="45.5996841" lon="10.2228923"><ele>208.66666666666666</ele><time>2026-04-26T15:26:25.102Z</time></trkpt><trkpt lat="45.5997599" lon="10.2228641"><ele>209.0</ele><time>2026-04-26T15:26:26.102Z</time></trkpt><trkpt lat="45.599822" lon="10.2228027"><ele>209.33333333333331</ele><time>2026-04-26T15:26:27.102Z</time></trkpt><trkpt lat="45.5998818" lon="10.2227087"><ele>209.66666666666666</ele><time>2026-04-26T15:26:28.102Z</time></trkpt><trkpt lat="45.5999691" lon="10.2226064"><ele>210.0</ele><time>2026-04-26T15:26:29.102Z</time></trkpt><trkpt lat="45.6000754" lon="10.2224937"><ele>210.0</ele><time>2026-04-26T15:26:30.102Z</time></trkpt><trkpt lat="45.6001899" lon="10.222374"><ele>210.0</ele><time>2026-04-26T15:26:31.102Z</time></trkpt><trkpt lat="45.6003126" lon="10.2222432"><ele>210.0</ele><time>2026-04-26T15:26:32.102Z</time></trkpt><trkpt lat="45.6004415" lon="10.2221012"><ele>209.66666666666669</ele><time>2026-04-26T15:26:33.102Z</time></trkpt><trkpt lat="45.6005687" lon="10.2219518"><ele>209.33333333333334</ele><time>2026-04-26T15:26:34.102Z</time></trkpt><trkpt lat="45.6006965" lon="10.2217898"><ele>209.0</ele><time>2026-04-26T15:26:35.102Z</time></trkpt><trkpt lat="45.600823" lon="10.2216214"><ele>209.66666666666669</ele><time>2026-04-26T15:26:36.102Z</time></trkpt><trkpt lat="45.6009428" lon="10.221443"><ele>210.33333333333331</ele><time>2026-04-26T15:26:37.102Z</time></trkpt><trkpt lat="45.6010638" lon="10.2212533"><ele>211.0</ele><time>2026-04-26T15:26:38.102Z</time></trkpt><trkpt lat="45.6011859" lon="10.2210586"><ele>211.0</ele><time>2026-04-26T15:26:39.102Z</time></trkpt><trkpt lat="45.6013075" lon="10.220853"><ele>211.0</ele><time>2026-04-26T15:26:40.102Z</time></trkpt><trkpt lat="45.6014329" lon="10.2206409"><ele>211.0</ele><time>2026-04-26T15:26:41.102Z</time></trkpt><trkpt lat="45.6015576" lon="10.2204254"><ele>210.0</ele><time>2026-04-26T15:26:42.101Z</time></trkpt><trkpt lat="45.6016845" lon="10.2202145"><ele>209.0</ele><time>2026-04-26T15:26:43.101Z</time></trkpt><trkpt lat="45.6018089" lon="10.219997"><ele>208.0</ele><time>2026-04-26T15:26:44.101Z</time></trkpt><trkpt lat="45.6019346" lon="10.2197773"><ele>208.66666666666666</ele><time>2026-04-26T15:26:45.102Z</time></trkpt><trkpt lat="45.6020616" lon="10.2195546"><ele>209.33333333333331</ele><time>2026-04-26T15:26:46.102Z</time></trkpt><trkpt lat="45.6021913" lon="10.2193306"><ele>210.0</ele><time>2026-04-26T15:26:47.102Z</time></trkpt><trkpt lat="45.6023215" lon="10.219102"><ele>209.33333333333331</ele><time>2026-04-26T15:26:48.101Z</time></trkpt><trkpt lat="45.602452" lon="10.2188725"><ele>208.66666666666666</ele><time>2026-04-26T15:26:49.102Z</time></trkpt><trkpt lat="45.6025845" lon="10.2186422"><ele>208.0</ele><time>2026-04-26T15:26:50.102Z</time></trkpt><trkpt lat="45.602718" lon="10.2184104"><ele>208.66666666666666</ele><time>2026-04-26T15:26:51.102Z</time></trkpt><trkpt lat="45.6028493" lon="10.2181835"><ele>209.33333333333331</ele><time>2026-04-26T15:26:52.102Z</time></trkpt><trkpt lat="45.602978" lon="10.217953"><ele>210.0</ele><time>2026-04-26T15:26:53.102Z</time></trkpt><trkpt lat="45.6031109" lon="10.217731"><ele>210.0</ele><time>2026-04-26T15:26:54.101Z</time></trkpt><trkpt lat="45.6032436" lon="10.2175095"><ele>210.0</ele><time>2026-04-26T15:26:55.102Z</time></trkpt><trkpt lat="45.6033726" lon="10.2172901"><ele>210.0</ele><time>2026-04-26T15:26:56.102Z</time></trkpt><trkpt lat="45.6034965" lon="10.2170812"><ele>210.0</ele><time>2026-04-26T15:26:57.101Z</time></trkpt><trkpt lat="45.6036158" lon="10.2168674"><ele>210.0</ele><time>2026-04-26T15:26:58.101Z</time></trkpt><trkpt lat="45.6037392" lon="10.2166546"><ele>210.0</ele><time>2026-04-26T15:26:59.102Z</time></trkpt><trkpt lat="45.6038607" lon="10.2164474"><ele>210.0</ele><time>2026-04-26T15:27:00.102Z</time></trkpt><trkpt lat="45.6039781" lon="10.2162444"><ele>210.0</ele><time>2026-04-26T15:27:01.101Z</time></trkpt><trkpt lat="45.6040973" lon="10.2160497"><ele>210.0</ele><time>2026-04-26T15:27:02.102Z</time></trkpt><trkpt lat="45.6042093" lon="10.2158581"><ele>210.0</ele><time>2026-04-26T15:27:03.101Z</time></trkpt><trkpt lat="45.6043191" lon="10.21567"><ele>210.0</ele><time>2026-04-26T15:27:04.102Z</time></trkpt><trkpt lat="45.6044275" lon="10.2154846"><ele>210.0</ele><time>2026-04-26T15:27:05.102Z</time></trkpt><trkpt lat="45.6045336" lon="10.2153017"><ele>210.0</ele><time>2026-04-26T15:27:06.102Z</time></trkpt><trkpt lat="45.6046372" lon="10.2151225"><ele>210.0</ele><time>2026-04-26T15:27:07.101Z</time></trkpt><trkpt lat="45.6047406" lon="10.2149412"><ele>210.0</ele><time>2026-04-26T15:27:08.102Z</time></trkpt><trkpt lat="45.6048473" lon="10.2147585"><ele>210.33333333333331</ele><time>2026-04-26T15:27:09.102Z</time></trkpt><trkpt lat="45.6049542" lon="10.2145776"><ele>210.66666666666666</ele><time>2026-04-26T15:27:10.102Z</time></trkpt><trkpt lat="45.605055" lon="10.2144042"><ele>211.0</ele><time>2026-04-26T15:27:11.101Z</time></trkpt><trkpt lat="45.6051541" lon="10.2142384"><ele>211.0</ele><time>2026-04-26T15:27:12.102Z</time></trkpt><trkpt lat="45.6052432" lon="10.2140929"><ele>211.0</ele><time>2026-04-26T15:27:13.102Z</time></trkpt><trkpt lat="45.605323" lon="10.2139679"><ele>211.0</ele><time>2026-04-26T15:27:14.102Z</time></trkpt><trkpt lat="45.6053949" lon="10.2138548"><ele>211.0</ele><time>2026-04-26T15:27:15.102Z</time></trkpt><trkpt lat="45.6054665" lon="10.2137478"><ele>210.99999999999997</ele><time>2026-04-26T15:27:16.102Z</time></trkpt><trkpt lat="45.6055342" lon="10.2136577"><ele>211.0</ele><time>2026-04-26T15:27:17.101Z</time></trkpt><trkpt lat="45.6056008" lon="10.2135709"><ele>211.0</ele><time>2026-04-26T15:27:18.102Z</time></trkpt><trkpt lat="45.6056605" lon="10.2134871"><ele>211.0</ele><time>2026-04-26T15:27:19.102Z</time></trkpt><trkpt lat="45.6057252" lon="10.2134231"><ele>210.99999999999997</ele><time>2026-04-26T15:27:20.102Z</time></trkpt><trkpt lat="45.6057846" lon="10.2133765"><ele>211.0</ele><time>2026-04-26T15:27:21.102Z</time></trkpt><trkpt lat="45.6058647" lon="10.2132449"><ele>210.60000000000002</ele><time>2026-04-26T15:27:23.102Z</time></trkpt><trkpt lat="45.6058715" lon="10.213148"><ele>210.2</ele><time>2026-04-26T15:27:24.102Z</time></trkpt><trkpt lat="45.6058818" lon="10.2130261"><ele>209.8</ele><time>2026-04-26T15:27:25.102Z</time></trkpt><trkpt lat="45.6059171" lon="10.212896"><ele>209.39999999999998</ele><time>2026-04-26T15:27:26.102Z</time></trkpt><trkpt lat="45.6059838" lon="10.2127622"><ele>209.0</ele><time>2026-04-26T15:27:27.102Z</time></trkpt><trkpt lat="45.6060722" lon="10.212621"><ele>209.0</ele><time>2026-04-26T15:27:28.101Z</time></trkpt><trkpt lat="45.6061648" lon="10.2124697"><ele>209.0</ele><time>2026-04-26T15:27:29.101Z</time></trkpt><trkpt lat="45.6062695" lon="10.2123"><ele>209.0</ele><time>2026-04-26T15:27:30.102Z</time></trkpt><trkpt lat="45.6063738" lon="10.2121259"><ele>209.0</ele><time>2026-04-26T15:27:31.102Z</time></trkpt><trkpt lat="45.6064863" lon="10.2119413"><ele>209.0</ele><time>2026-04-26T15:27:32.102Z</time></trkpt><trkpt lat="45.6066004" lon="10.2117466"><ele>209.0</ele><time>2026-04-26T15:27:33.102Z</time></trkpt><trkpt lat="45.6067167" lon="10.2115455"><ele>208.66666666666669</ele><time>2026-04-26T15:27:34.102Z</time></trkpt><trkpt lat="45.6068352" lon="10.2113492"><ele>208.33333333333331</ele><time>2026-04-26T15:27:35.102Z</time></trkpt><trkpt lat="45.606959" lon="10.2111483"><ele>208.0</ele><time>2026-04-26T15:27:36.102Z</time></trkpt><trkpt lat="45.6070826" lon="10.2109492"><ele>208.66666666666666</ele><time>2026-04-26T15:27:37.102Z</time></trkpt><trkpt lat="45.6072086" lon="10.2107545"><ele>209.33333333333331</ele><time>2026-04-26T15:27:38.102Z</time></trkpt><trkpt lat="45.6073391" lon="10.2105751"><ele>210.0</ele><time>2026-04-26T15:27:39.101Z</time></trkpt><trkpt lat="45.607473" lon="10.2104062"><ele>210.0</ele><time>2026-04-26T15:27:40.101Z</time></trkpt><trkpt lat="45.607608" lon="10.2102482"><ele>210.0</ele><time>2026-04-26T15:27:41.102Z</time></trkpt><trkpt lat="45.6077492" lon="10.2101042"><ele>210.0</ele><time>2026-04-26T15:27:42.102Z</time></trkpt><trkpt lat="45.6078945" lon="10.2099644"><ele>210.33333333333331</ele><time>2026-04-26T15:27:43.102Z</time></trkpt><trkpt lat="45.6080392" lon="10.2098218"><ele>210.66666666666666</ele><time>2026-04-26T15:27:44.102Z</time></trkpt><trkpt lat="45.6081905" lon="10.2096811"><ele>211.0</ele><time>2026-04-26T15:27:45.102Z</time></trkpt><trkpt lat="45.6083409" lon="10.2095453"><ele>211.0</ele><time>2026-04-26T15:27:46.102Z</time></trkpt><trkpt lat="45.6084838" lon="10.2094145"><ele>211.0</ele><time>2026-04-26T15:27:47.102Z</time></trkpt><trkpt lat="45.6086217" lon="10.2092886"><ele>211.0</ele><time>2026-04-26T15:27:48.102Z</time></trkpt><trkpt lat="45.6087478" lon="10.2091775"><ele>211.0</ele><time>2026-04-26T15:27:49.102Z</time></trkpt><trkpt lat="45.6088646" lon="10.2090773"><ele>211.0</ele><time>2026-04-26T15:27:50.102Z</time></trkpt><trkpt lat="45.6089756" lon="10.2089927"><ele>211.0</ele><time>2026-04-26T15:27:51.102Z</time></trkpt><trkpt lat="45.6090861" lon="10.2089146"><ele>211.0</ele><time>2026-04-26T15:27:52.102Z</time></trkpt><trkpt lat="45.6091945" lon="10.2088473"><ele>211.0</ele><time>2026-04-26T15:27:53.102Z</time></trkpt><trkpt lat="45.6093066" lon="10.2087851"><ele>211.0</ele><time>2026-04-26T15:27:54.101Z</time></trkpt><trkpt lat="45.609422" lon="10.208714"><ele>211.0</ele><time>2026-04-26T15:27:55.102Z</time></trkpt><trkpt lat="45.609536" lon="10.2086422"><ele>211.0</ele><time>2026-04-26T15:27:56.101Z</time></trkpt><trkpt lat="45.6096405" lon="10.2085699"><ele>211.4</ele><time>2026-04-26T15:27:57.102Z</time></trkpt><trkpt lat="45.6097401" lon="10.2085077"><ele>211.8</ele><time>2026-04-26T15:27:58.102Z</time></trkpt><trkpt lat="45.6098449" lon="10.2084539"><ele>212.20000000000002</ele><time>2026-04-26T15:27:59.102Z</time></trkpt><trkpt lat="45.6099484" lon="10.2083969"><ele>212.60000000000002</ele><time>2026-04-26T15:28:00.102Z</time></trkpt><trkpt lat="45.6100547" lon="10.2083364"><ele>213.0</ele><time>2026-04-26T15:28:01.102Z</time></trkpt><trkpt lat="45.6101671" lon="10.208276"><ele>213.0</ele><time>2026-04-26T15:28:02.102Z</time></trkpt><trkpt lat="45.6102965" lon="10.2082176"><ele>213.0</ele><time>2026-04-26T15:28:03.102Z</time></trkpt><trkpt lat="45.6104388" lon="10.2081722"><ele>213.0</ele><time>2026-04-26T15:28:04.102Z</time></trkpt><trkpt lat="45.6105861" lon="10.2081327"><ele>213.0</ele><time>2026-04-26T15:28:05.101Z</time></trkpt><trkpt lat="45.610736" lon="10.2080962"><ele>212.66666666666669</ele><time>2026-04-26T15:28:06.102Z</time></trkpt><trkpt lat="45.6108878" lon="10.2080604"><ele>212.33333333333334</ele><time>2026-04-26T15:28:07.102Z</time></trkpt><trkpt lat="45.6110401" lon="10.2080286"><ele>212.0</ele><time>2026-04-26T15:28:08.102Z</time></trkpt><trkpt lat="45.6111922" lon="10.2080079"><ele>212.66666666666669</ele><time>2026-04-26T15:28:09.102Z</time></trkpt><trkpt lat="45.6113475" lon="10.2079871"><ele>213.33333333333331</ele><time>2026-04-26T15:28:10.102Z</time></trkpt><trkpt lat="45.6115049" lon="10.2079596"><ele>214.0</ele><time>2026-04-26T15:28:11.102Z</time></trkpt><trkpt lat="45.6116638" lon="10.2079255"><ele>214.0</ele><time>2026-04-26T15:28:12.102Z</time></trkpt><trkpt lat="45.6118295" lon="10.2078787"><ele>214.0</ele><time>2026-04-26T15:28:13.102Z</time></trkpt><trkpt lat="45.6119876" lon="10.2078005"><ele>214.0</ele><time>2026-04-26T15:28:14.102Z</time></trkpt><trkpt lat="45.6121523" lon="10.2076953"><ele>215.66666666666666</ele><time>2026-04-26T15:28:15.102Z</time></trkpt><trkpt lat="45.6123219" lon="10.2075526"><ele>217.33333333333331</ele><time>2026-04-26T15:28:16.102Z</time></trkpt><trkpt lat="45.6124936" lon="10.2073749"><ele>219.0</ele><time>2026-04-26T15:28:17.102Z</time></trkpt><trkpt lat="45.6126714" lon="10.2071746"><ele>220.5</ele><time>2026-04-26T15:28:18.102Z</time></trkpt><trkpt lat="45.6128506" lon="10.2069751"><ele>222.0</ele><time>2026-04-26T15:28:19.102Z</time></trkpt><trkpt lat="45.6130286" lon="10.2067767"><ele>222.0</ele><time>2026-04-26T15:28:20.101Z</time></trkpt><trkpt lat="45.6131936" lon="10.206589"><ele>222.0</ele><time>2026-04-26T15:28:21.102Z</time></trkpt><trkpt lat="45.6133562" lon="10.2064115"><ele>222.0</ele><time>2026-04-26T15:28:22.101Z</time></trkpt><trkpt lat="45.6135103" lon="10.2062135"><ele>222.33333333333331</ele><time>2026-04-26T15:28:23.101Z</time></trkpt><trkpt lat="45.6136617" lon="10.2060172"><ele>222.66666666666666</ele><time>2026-04-26T15:28:24.102Z</time></trkpt><trkpt lat="45.6138007" lon="10.2058147"><ele>223.0</ele><time>2026-04-26T15:28:25.102Z</time></trkpt><trkpt lat="45.613925" lon="10.2056121"><ele>223.0</ele><time>2026-04-26T15:28:26.101Z</time></trkpt><trkpt lat="45.6140354" lon="10.2054217"><ele>223.0</ele><time>2026-04-26T15:28:27.101Z</time></trkpt><trkpt lat="45.6141294" lon="10.2052562"><ele>223.0</ele><time>2026-04-26T15:28:28.102Z</time></trkpt><trkpt lat="45.6142159" lon="10.2051056"><ele>223.0</ele><time>2026-04-26T15:28:29.102Z</time></trkpt><trkpt lat="45.6142911" lon="10.2049701"><ele>223.0</ele><time>2026-04-26T15:28:30.102Z</time></trkpt><trkpt lat="45.614361" lon="10.2048426"><ele>223.0</ele><time>2026-04-26T15:28:31.102Z</time></trkpt><trkpt lat="45.6144278" lon="10.2047224"><ele>223.0</ele><time>2026-04-26T15:28:32.102Z</time></trkpt><trkpt lat="45.6144945" lon="10.2045981"><ele>223.4</ele><time>2026-04-26T15:28:33.102Z</time></trkpt><trkpt lat="45.6145626" lon="10.2044696"><ele>223.8</ele><time>2026-04-26T15:28:34.102Z</time></trkpt><trkpt lat="45.6146281" lon="10.204347"><ele>224.2</ele><time>2026-04-26T15:28:35.101Z</time></trkpt><trkpt lat="45.6146885" lon="10.2042298"><ele>224.6</ele><time>2026-04-26T15:28:36.102Z</time></trkpt><trkpt lat="45.6147422" lon="10.2041271"><ele>225.0</ele><time>2026-04-26T15:28:37.102Z</time></trkpt><trkpt lat="45.6147963" lon="10.2040376"><ele>224.66666666666666</ele><time>2026-04-26T15:28:38.102Z</time></trkpt><trkpt lat="45.6148381" lon="10.2039664"><ele>224.33333333333331</ele><time>2026-04-26T15:28:39.102Z</time></trkpt><trkpt lat="45.6149008" lon="10.20387"><ele>224.0</ele><time>2026-04-26T15:28:41.101Z</time></trkpt><trkpt lat="45.6149517" lon="10.2037988"><ele>223.66666666666666</ele><time>2026-04-26T15:28:43.102Z</time></trkpt><trkpt lat="45.6150046" lon="10.2037367"><ele>223.33333333333331</ele><time>2026-04-26T15:28:49.102Z</time></trkpt><trkpt lat="45.6150718" lon="10.2036576"><ele>223.0</ele><time>2026-04-26T15:28:51.101Z</time></trkpt><trkpt lat="45.6151821" lon="10.2035612"><ele>223.0</ele><time>2026-04-26T15:28:53.102Z</time></trkpt><trkpt lat="45.615254" lon="10.2035101"><ele>223.0</ele><time>2026-04-26T15:28:54.102Z</time></trkpt><trkpt lat="45.6153303" lon="10.203447"><ele>223.0</ele><time>2026-04-26T15:28:55.102Z</time></trkpt><trkpt lat="45.6154144" lon="10.2033827"><ele>223.0</ele><time>2026-04-26T15:28:56.102Z</time></trkpt><trkpt lat="45.6155059" lon="10.2033164"><ele>223.0</ele><time>2026-04-26T15:28:57.102Z</time></trkpt><trkpt lat="45.6156092" lon="10.2032569"><ele>223.5</ele><time>2026-04-26T15:28:58.102Z</time></trkpt><trkpt lat="45.6157202" lon="10.2031971"><ele>224.0</ele><time>2026-04-26T15:28:59.102Z</time></trkpt><trkpt lat="45.6158436" lon="10.2031444"><ele>224.5</ele><time>2026-04-26T15:29:00.102Z</time></trkpt><trkpt lat="45.615981" lon="10.2031004"><ele>225.0</ele><time>2026-04-26T15:29:01.102Z</time></trkpt><trkpt lat="45.6161257" lon="10.2030684"><ele>226.33333333333331</ele><time>2026-04-26T15:29:02.102Z</time></trkpt><trkpt lat="45.6162801" lon="10.2030506"><ele>227.66666666666666</ele><time>2026-04-26T15:29:03.102Z</time></trkpt><trkpt lat="45.6164461" lon="10.2030553"><ele>229.0</ele><time>2026-04-26T15:29:04.102Z</time></trkpt><trkpt lat="45.6166116" lon="10.203092"><ele>229.0</ele><time>2026-04-26T15:29:05.102Z</time></trkpt><trkpt lat="45.6167692" lon="10.2031282"><ele>229.0</ele><time>2026-04-26T15:29:06.102Z</time></trkpt><trkpt lat="45.6169307" lon="10.2031673"><ele>229.0</ele><time>2026-04-26T15:29:07.102Z</time></trkpt><trkpt lat="45.6170957" lon="10.2031927"><ele>231.0</ele><time>2026-04-26T15:29:08.102Z</time></trkpt><trkpt lat="45.6172555" lon="10.2032049"><ele>233.0</ele><time>2026-04-26T15:29:09.102Z</time></trkpt><trkpt lat="45.6174191" lon="10.2032065"><ele>235.0</ele><time>2026-04-26T15:29:10.102Z</time></trkpt><trkpt lat="45.6175906" lon="10.2032076"><ele>235.0</ele><time>2026-04-26T15:29:11.101Z</time></trkpt><trkpt lat="45.6177885" lon="10.2031811"><ele>235.0</ele><time>2026-04-26T15:29:12.102Z</time></trkpt><trkpt lat="45.6179905" lon="10.2031672"><ele>235.0</ele><time>2026-04-26T15:29:13.102Z</time></trkpt><trkpt lat="45.618193" lon="10.2031548"><ele>233.66666666666666</ele><time>2026-04-26T15:29:14.102Z</time></trkpt><trkpt lat="45.6183991" lon="10.2031403"><ele>232.33333333333331</ele><time>2026-04-26T15:29:15.101Z</time></trkpt><trkpt lat="45.6186017" lon="10.2031055"><ele>231.0</ele><time>2026-04-26T15:29:16.102Z</time></trkpt><trkpt lat="45.6188019" lon="10.2030606"><ele>231.0</ele><time>2026-04-26T15:29:17.101Z</time></trkpt><trkpt lat="45.6189921" lon="10.2030047"><ele>231.0</ele><time>2026-04-26T15:29:18.102Z</time></trkpt><trkpt lat="45.6191699" lon="10.2029506"><ele>231.0</ele><time>2026-04-26T15:29:19.102Z</time></trkpt><trkpt lat="45.6193356" lon="10.2028966"><ele>231.25</ele><time>2026-04-26T15:29:20.102Z</time></trkpt><trkpt lat="45.6194905" lon="10.2028473"><ele>231.5</ele><time>2026-04-26T15:29:21.102Z</time></trkpt><trkpt lat="45.6196233" lon="10.2028066"><ele>231.75</ele><time>2026-04-26T15:29:22.102Z</time></trkpt><trkpt lat="45.6197337" lon="10.2027726"><ele>232.0</ele><time>2026-04-26T15:29:23.102Z</time></trkpt><trkpt lat="45.6198378" lon="10.2027377"><ele>231.99999999999997</ele><time>2026-04-26T15:29:24.101Z</time></trkpt><trkpt lat="45.6199368" lon="10.2026991"><ele>232.0</ele><time>2026-04-26T15:29:25.102Z</time></trkpt><trkpt lat="45.6200246" lon="10.2026472"><ele>232.0</ele><time>2026-04-26T15:29:26.102Z</time></trkpt><trkpt lat="45.6200969" lon="10.2025689"><ele>232.0</ele><time>2026-04-26T15:29:27.102Z</time></trkpt><trkpt lat="45.6201446" lon="10.2024759"><ele>231.99999999999997</ele><time>2026-04-26T15:29:28.102Z</time></trkpt><trkpt lat="45.6201974" lon="10.2023945"><ele>232.0</ele><time>2026-04-26T15:29:29.102Z</time></trkpt><trkpt lat="45.6202668" lon="10.2023545"><ele>231.66666666666666</ele><time>2026-04-26T15:29:30.102Z</time></trkpt><trkpt lat="45.620336" lon="10.2023464"><ele>231.33333333333331</ele><time>2026-04-26T15:29:31.102Z</time></trkpt><trkpt lat="45.6204107" lon="10.2023865"><ele>231.0</ele><time>2026-04-26T15:29:32.102Z</time></trkpt><trkpt lat="45.6204902" lon="10.20245"><ele>230.66666666666669</ele><time>2026-04-26T15:29:33.102Z</time></trkpt><trkpt lat="45.6205826" lon="10.2024885"><ele>230.33333333333334</ele><time>2026-04-26T15:29:34.102Z</time></trkpt><trkpt lat="45.6206901" lon="10.2024977"><ele>230.0</ele><time>2026-04-26T15:29:35.102Z</time></trkpt><trkpt lat="45.6208087" lon="10.2024783"><ele>230.0</ele><time>2026-04-26T15:29:36.102Z</time></trkpt><trkpt lat="45.6209361" lon="10.2024436"><ele>230.0</ele><time>2026-04-26T15:29:37.102Z</time></trkpt><trkpt lat="45.6210741" lon="10.2024095"><ele>230.0</ele><time>2026-04-26T15:29:38.102Z</time></trkpt><trkpt lat="45.6212117" lon="10.2023747"><ele>230.0</ele><time>2026-04-26T15:29:39.102Z</time></trkpt><trkpt lat="45.6213575" lon="10.2023379"><ele>230.0</ele><time>2026-04-26T15:29:40.102Z</time></trkpt><trkpt lat="45.6215045" lon="10.2022945"><ele>230.0</ele><time>2026-04-26T15:29:41.102Z</time></trkpt><trkpt lat="45.6216543" lon="10.2022511"><ele>230.0</ele><time>2026-04-26T15:29:42.102Z</time></trkpt><trkpt lat="45.6218003" lon="10.2022104"><ele>230.0</ele><time>2026-04-26T15:29:43.102Z</time></trkpt><trkpt lat="45.6219392" lon="10.2021733"><ele>230.0</ele><time>2026-04-26T15:29:44.101Z</time></trkpt><trkpt lat="45.6220706" lon="10.2021385"><ele>230.0</ele><time>2026-04-26T15:29:45.102Z</time></trkpt><trkpt lat="45.622198" lon="10.2021035"><ele>230.0</ele><time>2026-04-26T15:29:46.102Z</time></trkpt><trkpt lat="45.6223273" lon="10.2020703"><ele>230.5</ele><time>2026-04-26T15:29:47.102Z</time></trkpt><trkpt lat="45.6224573" lon="10.2020386"><ele>231.0</ele><time>2026-04-26T15:29:48.102Z</time></trkpt><trkpt lat="45.6225919" lon="10.2020005"><ele>231.5</ele><time>2026-04-26T15:29:49.102Z</time></trkpt><trkpt lat="45.6227316" lon="10.2019656"><ele>232.0</ele><time>2026-04-26T15:29:50.102Z</time></trkpt><trkpt lat="45.6228723" lon="10.201924"><ele>232.25</ele><time>2026-04-26T15:29:51.102Z</time></trkpt><trkpt lat="45.6230066" lon="10.2018884"><ele>232.5</ele><time>2026-04-26T15:29:52.102Z</time></trkpt><trkpt lat="45.6231362" lon="10.2018477"><ele>232.75</ele><time>2026-04-26T15:29:53.102Z</time></trkpt><trkpt lat="45.623271" lon="10.2018017"><ele>233.0</ele><time>2026-04-26T15:29:54.102Z</time></trkpt><trkpt lat="45.623407" lon="10.2017558"><ele>233.0</ele><time>2026-04-26T15:29:55.102Z</time></trkpt><trkpt lat="45.6235383" lon="10.2017186"><ele>233.0</ele><time>2026-04-26T15:29:56.102Z</time></trkpt><trkpt lat="45.6236641" lon="10.2016853"><ele>233.0</ele><time>2026-04-26T15:29:57.102Z</time></trkpt><trkpt lat="45.6237821" lon="10.2016558"><ele>233.0</ele><time>2026-04-26T15:29:58.102Z</time></trkpt><trkpt lat="45.6238803" lon="10.201634"><ele>233.60000000000002</ele><time>2026-04-26T15:29:59.102Z</time></trkpt><trkpt lat="45.6239595" lon="10.2016132"><ele>234.20000000000002</ele><time>2026-04-26T15:30:00.102Z</time></trkpt><trkpt lat="45.6240262" lon="10.201594"><ele>234.8</ele><time>2026-04-26T15:30:01.102Z</time></trkpt><trkpt lat="45.6241241" lon="10.2015594"><ele>235.4</ele><time>2026-04-26T15:30:03.102Z</time></trkpt><trkpt lat="45.6242077" lon="10.2015443"><ele>236.0</ele><time>2026-04-26T15:30:19.102Z</time></trkpt><trkpt lat="45.6243437" lon="10.2015168"><ele>235.5</ele><time>2026-04-26T15:30:21.102Z</time></trkpt><trkpt lat="45.6244455" lon="10.2014977"><ele>235.0</ele><time>2026-04-26T15:30:22.102Z</time></trkpt><trkpt lat="45.6245673" lon="10.2014723"><ele>234.5</ele><time>2026-04-26T15:30:23.102Z</time></trkpt><trkpt lat="45.6247076" lon="10.2014318"><ele>234.0</ele><time>2026-04-26T15:30:24.102Z</time></trkpt><trkpt lat="45.6248642" lon="10.2013867"><ele>234.0</ele><time>2026-04-26T15:30:25.101Z</time></trkpt><trkpt lat="45.6250347" lon="10.2013314"><ele>234.0</ele><time>2026-04-26T15:30:26.102Z</time></trkpt><trkpt lat="45.6252128" lon="10.2012645"><ele>234.0</ele><time>2026-04-26T15:30:27.102Z</time></trkpt><trkpt lat="45.6253947" lon="10.2011842"><ele>233.66666666666669</ele><time>2026-04-26T15:30:28.102Z</time></trkpt><trkpt lat="45.625578" lon="10.2011"><ele>233.33333333333334</ele><time>2026-04-26T15:30:29.102Z</time></trkpt><trkpt lat="45.6257605" lon="10.2010107"><ele>233.0</ele><time>2026-04-26T15:30:30.102Z</time></trkpt><trkpt lat="45.6259341" lon="10.2009314"><ele>233.0</ele><time>2026-04-26T15:30:31.102Z</time></trkpt><trkpt lat="45.6260988" lon="10.2008528"><ele>233.0</ele><time>2026-04-26T15:30:32.102Z</time></trkpt><trkpt lat="45.6262579" lon="10.2007728"><ele>233.0</ele><time>2026-04-26T15:30:33.102Z</time></trkpt><trkpt lat="45.6264161" lon="10.2006972"><ele>233.0</ele><time>2026-04-26T15:30:34.101Z</time></trkpt><trkpt lat="45.6265755" lon="10.2006245"><ele>233.0</ele><time>2026-04-26T15:30:35.102Z</time></trkpt><trkpt lat="45.6267327" lon="10.2005532"><ele>233.0</ele><time>2026-04-26T15:30:36.102Z</time></trkpt><trkpt lat="45.6268866" lon="10.2004844"><ele>233.33333333333334</ele><time>2026-04-26T15:30:37.102Z</time></trkpt><trkpt lat="45.6270412" lon="10.2004128"><ele>233.66666666666669</ele><time>2026-04-26T15:30:38.102Z</time></trkpt><trkpt lat="45.6271983" lon="10.2003337"><ele>234.0</ele><time>2026-04-26T15:30:39.102Z</time></trkpt><trkpt lat="45.627362" lon="10.2002566"><ele>234.0</ele><time>2026-04-26T15:30:40.102Z</time></trkpt><trkpt lat="45.6275329" lon="10.2001737"><ele>234.0</ele><time>2026-04-26T15:30:41.102Z</time></trkpt><trkpt lat="45.6277086" lon="10.2000874"><ele>234.0</ele><time>2026-04-26T15:30:42.102Z</time></trkpt><trkpt lat="45.6278917" lon="10.2000043"><ele>233.66666666666669</ele><time>2026-04-26T15:30:43.102Z</time></trkpt><trkpt lat="45.6280787" lon="10.1999173"><ele>233.33333333333334</ele><time>2026-04-26T15:30:44.101Z</time></trkpt><trkpt lat="45.6282674" lon="10.1998241"><ele>233.0</ele><time>2026-04-26T15:30:45.102Z</time></trkpt><trkpt lat="45.6284578" lon="10.1997303"><ele>234.33333333333334</ele><time>2026-04-26T15:30:46.102Z</time></trkpt><trkpt lat="45.6286473" lon="10.1996355"><ele>235.66666666666669</ele><time>2026-04-26T15:30:47.102Z</time></trkpt><trkpt lat="45.6288424" lon="10.199542"><ele>237.0</ele><time>2026-04-26T15:30:48.102Z</time></trkpt><trkpt lat="45.6290386" lon="10.1994522"><ele>237.0</ele><time>2026-04-26T15:30:49.102Z</time></trkpt><trkpt lat="45.6292422" lon="10.1993775"><ele>237.0</ele><time>2026-04-26T15:30:50.101Z</time></trkpt><trkpt lat="45.6294434" lon="10.1993229"><ele>237.0</ele><time>2026-04-26T15:30:51.102Z</time></trkpt><trkpt lat="45.6296399" lon="10.1992914"><ele>237.0</ele><time>2026-04-26T15:30:52.101Z</time></trkpt><trkpt lat="45.6298408" lon="10.1992843"><ele>237.0</ele><time>2026-04-26T15:30:53.102Z</time></trkpt><trkpt lat="45.6300559" lon="10.1993129"><ele>237.0</ele><time>2026-04-26T15:30:54.102Z</time></trkpt><trkpt lat="45.6302784" lon="10.1993653"><ele>238.0</ele><time>2026-04-26T15:30:55.102Z</time></trkpt><trkpt lat="45.6304897" lon="10.1994216"><ele>239.0</ele><time>2026-04-26T15:30:56.102Z</time></trkpt><trkpt lat="45.6306899" lon="10.1994756"><ele>240.0</ele><time>2026-04-26T15:30:57.102Z</time></trkpt><trkpt lat="45.6308841" lon="10.1995113"><ele>240.0</ele><time>2026-04-26T15:30:58.102Z</time></trkpt><trkpt lat="45.6310559" lon="10.1995145"><ele>240.0</ele><time>2026-04-26T15:30:59.102Z</time></trkpt><trkpt lat="45.6312155" lon="10.199482"><ele>240.0</ele><time>2026-04-26T15:31:00.102Z</time></trkpt><trkpt lat="45.6313739" lon="10.1994054"><ele>239.33333333333331</ele><time>2026-04-26T15:31:01.102Z</time></trkpt><trkpt lat="45.6315307" lon="10.1993043"><ele>238.66666666666666</ele><time>2026-04-26T15:31:02.102Z</time></trkpt><trkpt lat="45.6316808" lon="10.1991874"><ele>238.0</ele><time>2026-04-26T15:31:03.102Z</time></trkpt><trkpt lat="45.6318237" lon="10.1990641"><ele>237.75</ele><time>2026-04-26T15:31:04.102Z</time></trkpt><trkpt lat="45.631951" lon="10.1989311"><ele>237.5</ele><time>2026-04-26T15:31:05.102Z</time></trkpt><trkpt lat="45.6320468" lon="10.1988079"><ele>237.25</ele><time>2026-04-26T15:31:06.102Z</time></trkpt><trkpt lat="45.6321199" lon="10.1986903"><ele>237.0</ele><time>2026-04-26T15:31:07.102Z</time></trkpt><trkpt lat="45.6321857" lon="10.1985814"><ele>237.6</ele><time>2026-04-26T15:31:08.102Z</time></trkpt><trkpt lat="45.632241" lon="10.1984725"><ele>238.2</ele><time>2026-04-26T15:31:09.102Z</time></trkpt><trkpt lat="45.6322799" lon="10.1983557"><ele>238.8</ele><time>2026-04-26T15:31:10.102Z</time></trkpt><trkpt lat="45.6323034" lon="10.1982142"><ele>239.4</ele><time>2026-04-26T15:31:11.102Z</time></trkpt><trkpt lat="45.6323249" lon="10.1980708"><ele>240.0</ele><time>2026-04-26T15:31:12.102Z</time></trkpt><trkpt lat="45.6323657" lon="10.1979348"><ele>240.25</ele><time>2026-04-26T15:31:13.102Z</time></trkpt><trkpt lat="45.6324313" lon="10.1977971"><ele>240.5</ele><time>2026-04-26T15:31:14.102Z</time></trkpt><trkpt lat="45.6325174" lon="10.1976622"><ele>240.75</ele><time>2026-04-26T15:31:15.102Z</time></trkpt><trkpt lat="45.6326108" lon="10.1975106"><ele>241.0</ele><time>2026-04-26T15:31:16.101Z</time></trkpt><trkpt lat="45.6326865" lon="10.1973342"><ele>241.33333333333331</ele><time>2026-04-26T15:31:17.102Z</time></trkpt><trkpt lat="45.6327568" lon="10.1971346"><ele>241.66666666666669</ele><time>2026-04-26T15:31:18.102Z</time></trkpt><trkpt lat="45.6328219" lon="10.1969243"><ele>242.0</ele><time>2026-04-26T15:31:19.102Z</time></trkpt><trkpt lat="45.6328896" lon="10.1967155"><ele>242.0</ele><time>2026-04-26T15:31:20.101Z</time></trkpt><trkpt lat="45.6329556" lon="10.1965158"><ele>242.0</ele><time>2026-04-26T15:31:21.102Z</time></trkpt><trkpt lat="45.633021" lon="10.1963298"><ele>242.0</ele><time>2026-04-26T15:31:22.102Z</time></trkpt><trkpt lat="45.6330906" lon="10.1961518"><ele>242.0</ele><time>2026-04-26T15:31:23.101Z</time></trkpt><trkpt lat="45.6331649" lon="10.1959795"><ele>242.0</ele><time>2026-04-26T15:31:24.102Z</time></trkpt><trkpt lat="45.6332501" lon="10.1958119"><ele>242.0</ele><time>2026-04-26T15:31:25.102Z</time></trkpt><trkpt lat="45.6333455" lon="10.1956563"><ele>242.0</ele><time>2026-04-26T15:31:26.102Z</time></trkpt><trkpt lat="45.6334488" lon="10.1955108"><ele>242.0</ele><time>2026-04-26T15:31:27.102Z</time></trkpt><trkpt lat="45.6335561" lon="10.1953706"><ele>242.75</ele><time>2026-04-26T15:31:28.102Z</time></trkpt><trkpt lat="45.6336695" lon="10.1952433"><ele>243.5</ele><time>2026-04-26T15:31:29.101Z</time></trkpt><trkpt lat="45.6337887" lon="10.1951249"><ele>244.25</ele><time>2026-04-26T15:31:30.102Z</time></trkpt><trkpt lat="45.6339129" lon="10.1950124"><ele>245.0</ele><time>2026-04-26T15:31:31.102Z</time></trkpt><trkpt lat="45.6340384" lon="10.1949147"><ele>245.5</ele><time>2026-04-26T15:31:32.101Z</time></trkpt><trkpt lat="45.6341621" lon="10.1948205"><ele>246.0</ele><time>2026-04-26T15:31:33.102Z</time></trkpt><trkpt lat="45.6342856" lon="10.194727"><ele>246.5</ele><time>2026-04-26T15:31:34.102Z</time></trkpt><trkpt lat="45.6344177" lon="10.1946359"><ele>247.0</ele><time>2026-04-26T15:31:35.102Z</time></trkpt><trkpt lat="45.6345563" lon="10.1945445"><ele>247.0</ele><time>2026-04-26T15:31:36.102Z</time></trkpt><trkpt lat="45.6346983" lon="10.1944501"><ele>247.0</ele><time>2026-04-26T15:31:37.102Z</time></trkpt><trkpt lat="45.6348454" lon="10.19435"><ele>247.0</ele><time>2026-04-26T15:31:38.102Z</time></trkpt><trkpt lat="45.6349947" lon="10.1942566"><ele>247.0</ele><time>2026-04-26T15:31:39.102Z</time></trkpt><trkpt lat="45.6351346" lon="10.1941648"><ele>247.0</ele><time>2026-04-26T15:31:40.102Z</time></trkpt><trkpt lat="45.635269" lon="10.1940769"><ele>247.0</ele><time>2026-04-26T15:31:41.102Z</time></trkpt><trkpt lat="45.6353967" lon="10.1939977"><ele>247.0</ele><time>2026-04-26T15:31:42.102Z</time></trkpt><trkpt lat="45.6355241" lon="10.1939157"><ele>247.66666666666666</ele><time>2026-04-26T15:31:43.102Z</time></trkpt><trkpt lat="45.6356554" lon="10.1938293"><ele>248.33333333333331</ele><time>2026-04-26T15:31:44.101Z</time></trkpt><trkpt lat="45.6357927" lon="10.1937474"><ele>249.0</ele><time>2026-04-26T15:31:45.102Z</time></trkpt><trkpt lat="45.63594" lon="10.1936726"><ele>249.0</ele><time>2026-04-26T15:31:46.102Z</time></trkpt><trkpt lat="45.6360995" lon="10.1936085"><ele>249.0</ele><time>2026-04-26T15:31:47.102Z</time></trkpt><trkpt lat="45.6362621" lon="10.1935553"><ele>249.0</ele><time>2026-04-26T15:31:48.102Z</time></trkpt><trkpt lat="45.6364292" lon="10.1935207"><ele>249.66666666666669</ele><time>2026-04-26T15:31:49.102Z</time></trkpt><trkpt lat="45.6366025" lon="10.1935048"><ele>250.33333333333334</ele><time>2026-04-26T15:31:50.102Z</time></trkpt><trkpt lat="45.6367775" lon="10.1935033"><ele>251.0</ele><time>2026-04-26T15:31:51.102Z</time></trkpt><trkpt lat="45.6369524" lon="10.1935197"><ele>250.33333333333334</ele><time>2026-04-26T15:31:52.102Z</time></trkpt><trkpt lat="45.6371244" lon="10.1935443"><ele>249.66666666666669</ele><time>2026-04-26T15:31:53.101Z</time></trkpt><trkpt lat="45.6372945" lon="10.1935712"><ele>249.0</ele><time>2026-04-26T15:31:54.102Z</time></trkpt><trkpt lat="45.6374502" lon="10.1935959"><ele>249.0</ele><time>2026-04-26T15:31:55.101Z</time></trkpt><trkpt lat="45.6375863" lon="10.1936159"><ele>248.99999999999997</ele><time>2026-04-26T15:31:56.102Z</time></trkpt><trkpt lat="45.6377026" lon="10.1936383"><ele>248.99999999999997</ele><time>2026-04-26T15:31:57.102Z</time></trkpt><trkpt lat="45.6378019" lon="10.1936566"><ele>249.0</ele><time>2026-04-26T15:31:58.102Z</time></trkpt><trkpt lat="45.6378938" lon="10.1936827"><ele>249.0</ele><time>2026-04-26T15:31:59.102Z</time></trkpt><trkpt lat="45.6379775" lon="10.1937177"><ele>248.85714285714283</ele><time>2026-04-26T15:32:00.102Z</time></trkpt><trkpt lat="45.6380542" lon="10.1937551"><ele>248.7142857142857</ele><time>2026-04-26T15:32:01.102Z</time></trkpt><trkpt lat="45.6381269" lon="10.1937905"><ele>248.57142857142856</ele><time>2026-04-26T15:32:02.102Z</time></trkpt><trkpt lat="45.6381945" lon="10.1938272"><ele>248.42857142857144</ele><time>2026-04-26T15:32:03.102Z</time></trkpt><trkpt lat="45.6382635" lon="10.1938615"><ele>248.2857142857143</ele><time>2026-04-26T15:32:04.102Z</time></trkpt><trkpt lat="45.6383306" lon="10.1938974"><ele>248.14285714285717</ele><time>2026-04-26T15:32:05.101Z</time></trkpt><trkpt lat="45.6383934" lon="10.1939327"><ele>248.0</ele><time>2026-04-26T15:32:06.102Z</time></trkpt><trkpt lat="45.6384512" lon="10.1939767"><ele>247.66666666666669</ele><time>2026-04-26T15:32:07.102Z</time></trkpt><trkpt lat="45.6385048" lon="10.1940404"><ele>247.33333333333334</ele><time>2026-04-26T15:32:08.102Z</time></trkpt><trkpt lat="45.6385514" lon="10.1941144"><ele>247.0</ele><time>2026-04-26T15:32:09.102Z</time></trkpt><trkpt lat="45.6385904" lon="10.1941889"><ele>246.66666666666669</ele><time>2026-04-26T15:32:10.102Z</time></trkpt><trkpt lat="45.6386756" lon="10.1942991"><ele>246.33333333333334</ele><time>2026-04-26T15:32:12.101Z</time></trkpt><trkpt lat="45.6387962" lon="10.1943147"><ele>246.0</ele><time>2026-04-26T15:32:14.102Z</time></trkpt><trkpt lat="45.6388626" lon="10.1942786"><ele>247.0</ele><time>2026-04-26T15:32:15.102Z</time></trkpt><trkpt lat="45.6389267" lon="10.1942204"><ele>248.00000000000003</ele><time>2026-04-26T15:32:16.101Z</time></trkpt><trkpt lat="45.6390012" lon="10.1941514"><ele>249.00000000000003</ele><time>2026-04-26T15:32:17.101Z</time></trkpt><trkpt lat="45.6390968" lon="10.1940902"><ele>250.0</ele><time>2026-04-26T15:32:18.102Z</time></trkpt><trkpt lat="45.6392248" lon="10.194054"><ele>251.0</ele><time>2026-04-26T15:32:19.102Z</time></trkpt><trkpt lat="45.639363" lon="10.1940175"><ele>251.0</ele><time>2026-04-26T15:32:20.102Z</time></trkpt><trkpt lat="45.6395075" lon="10.1939975"><ele>251.0</ele><time>2026-04-26T15:32:21.102Z</time></trkpt><trkpt lat="45.6396605" lon="10.193989"><ele>251.0</ele><time>2026-04-26T15:32:22.102Z</time></trkpt><trkpt lat="45.6398132" lon="10.1939986"><ele>251.66666666666669</ele><time>2026-04-26T15:32:23.102Z</time></trkpt><trkpt lat="45.6399611" lon="10.1940183"><ele>252.33333333333331</ele><time>2026-04-26T15:32:24.101Z</time></trkpt><trkpt lat="45.6401174" lon="10.1940399"><ele>253.0</ele><time>2026-04-26T15:32:25.102Z</time></trkpt><trkpt lat="45.6402813" lon="10.1940661"><ele>253.66666666666666</ele><time>2026-04-26T15:32:26.102Z</time></trkpt><trkpt lat="45.6404437" lon="10.1940962"><ele>254.33333333333331</ele><time>2026-04-26T15:32:27.102Z</time></trkpt><trkpt lat="45.640614" lon="10.194132"><ele>255.0</ele><time>2026-04-26T15:32:28.102Z</time></trkpt><trkpt lat="45.6407853" lon="10.1941719"><ele>255.0</ele><time>2026-04-26T15:32:29.101Z</time></trkpt><trkpt lat="45.6409572" lon="10.1942111"><ele>255.0</ele><time>2026-04-26T15:32:30.102Z</time></trkpt><trkpt lat="45.6411289" lon="10.1942523"><ele>255.0</ele><time>2026-04-26T15:32:31.102Z</time></trkpt><trkpt lat="45.6412969" lon="10.1942922"><ele>255.0</ele><time>2026-04-26T15:32:32.102Z</time></trkpt><trkpt lat="45.6414622" lon="10.1943286"><ele>255.0</ele><time>2026-04-26T15:32:33.102Z</time></trkpt><trkpt lat="45.641623" lon="10.1943672"><ele>255.0</ele><time>2026-04-26T15:32:34.101Z</time></trkpt><trkpt lat="45.641788" lon="10.1944063"><ele>255.0</ele><time>2026-04-26T15:32:35.102Z</time></trkpt><trkpt lat="45.6419526" lon="10.1944437"><ele>255.0</ele><time>2026-04-26T15:32:36.102Z</time></trkpt><trkpt lat="45.6421146" lon="10.1944888"><ele>255.0</ele><time>2026-04-26T15:32:37.102Z</time></trkpt><trkpt lat="45.6422778" lon="10.1945437"><ele>255.66666666666669</ele><time>2026-04-26T15:32:38.102Z</time></trkpt><trkpt lat="45.642446" lon="10.1946061"><ele>256.33333333333337</ele><time>2026-04-26T15:32:39.102Z</time></trkpt><trkpt lat="45.6426066" lon="10.1946842"><ele>257.0</ele><time>2026-04-26T15:32:40.102Z</time></trkpt><trkpt lat="45.6427652" lon="10.1947698"><ele>257.0</ele><time>2026-04-26T15:32:41.102Z</time></trkpt><trkpt lat="45.6429267" lon="10.1948554"><ele>257.0</ele><time>2026-04-26T15:32:42.102Z</time></trkpt><trkpt lat="45.6430844" lon="10.1949499"><ele>257.0</ele><time>2026-04-26T15:32:43.102Z</time></trkpt><trkpt lat="45.6432345" lon="10.1950388"><ele>257.0</ele><time>2026-04-26T15:32:44.102Z</time></trkpt><trkpt lat="45.6433823" lon="10.1951271"><ele>257.0</ele><time>2026-04-26T15:32:45.102Z</time></trkpt><trkpt lat="45.6435292" lon="10.195221"><ele>257.0</ele><time>2026-04-26T15:32:46.102Z</time></trkpt><trkpt lat="45.6436767" lon="10.1953115"><ele>257.6666666666667</ele><time>2026-04-26T15:32:47.102Z</time></trkpt><trkpt lat="45.643826" lon="10.1953965"><ele>258.3333333333333</ele><time>2026-04-26T15:32:48.102Z</time></trkpt><trkpt lat="45.6439834" lon="10.1954837"><ele>259.0</ele><time>2026-04-26T15:32:49.102Z</time></trkpt><trkpt lat="45.6441429" lon="10.1955738"><ele>259.0</ele><time>2026-04-26T15:32:50.102Z</time></trkpt><trkpt lat="45.6442987" lon="10.1956658"><ele>259.0</ele><time>2026-04-26T15:32:51.102Z</time></trkpt><trkpt lat="45.6444496" lon="10.1957622"><ele>259.0</ele><time>2026-04-26T15:32:52.102Z</time></trkpt><trkpt lat="45.6445969" lon="10.1958662"><ele>258.66666666666663</ele><time>2026-04-26T15:32:53.101Z</time></trkpt><trkpt lat="45.6447373" lon="10.1959779"><ele>258.3333333333333</ele><time>2026-04-26T15:32:54.102Z</time></trkpt><trkpt lat="45.644874" lon="10.1961121"><ele>258.0</ele><time>2026-04-26T15:32:55.101Z</time></trkpt><trkpt lat="45.6450059" lon="10.1962669"><ele>258.0</ele><time>2026-04-26T15:32:56.102Z</time></trkpt><trkpt lat="45.6451267" lon="10.1964382"><ele>258.0</ele><time>2026-04-26T15:32:57.102Z</time></trkpt><trkpt lat="45.6452329" lon="10.1966177"><ele>258.0</ele><time>2026-04-26T15:32:58.102Z</time></trkpt><trkpt lat="45.645321" lon="10.1968052"><ele>258.0</ele><time>2026-04-26T15:32:59.101Z</time></trkpt><trkpt lat="45.6453989" lon="10.1970099"><ele>258.0</ele><time>2026-04-26T15:33:00.102Z</time></trkpt><trkpt lat="45.6454693" lon="10.1972228"><ele>258.0</ele><time>2026-04-26T15:33:01.101Z</time></trkpt><trkpt lat="45.6455361" lon="10.1974359"><ele>258.3333333333333</ele><time>2026-04-26T15:33:02.101Z</time></trkpt><trkpt lat="45.6456026" lon="10.1976585"><ele>258.66666666666663</ele><time>2026-04-26T15:33:03.102Z</time></trkpt><trkpt lat="45.6456764" lon="10.1978839"><ele>259.0</ele><time>2026-04-26T15:33:04.102Z</time></trkpt><trkpt lat="45.645747" lon="10.1981161"><ele>258.0</ele><time>2026-04-26T15:33:05.102Z</time></trkpt><trkpt lat="45.6458206" lon="10.1983496"><ele>257.0</ele><time>2026-04-26T15:33:06.102Z</time></trkpt><trkpt lat="45.6458945" lon="10.1985837"><ele>256.0</ele><time>2026-04-26T15:33:07.101Z</time></trkpt><trkpt lat="45.6459718" lon="10.1988215"><ele>255.66666666666666</ele><time>2026-04-26T15:33:08.102Z</time></trkpt><trkpt lat="45.6460501" lon="10.1990579"><ele>255.33333333333331</ele><time>2026-04-26T15:33:09.102Z</time></trkpt><trkpt lat="45.6461276" lon="10.199293"><ele>255.0</ele><time>2026-04-26T15:33:10.102Z</time></trkpt><trkpt lat="45.6462052" lon="10.1995235"><ele>255.33333333333331</ele><time>2026-04-26T15:33:11.102Z</time></trkpt><trkpt lat="45.6462825" lon="10.1997468"><ele>255.66666666666666</ele><time>2026-04-26T15:33:12.102Z</time></trkpt><trkpt lat="45.6463583" lon="10.1999603"><ele>256.0</ele><time>2026-04-26T15:33:13.102Z</time></trkpt><trkpt lat="45.646439" lon="10.2001567"><ele>256.0</ele><time>2026-04-26T15:33:14.101Z</time></trkpt><trkpt lat="45.646534" lon="10.2003401"><ele>256.0</ele><time>2026-04-26T15:33:15.102Z</time></trkpt><trkpt lat="45.6466415" lon="10.2005071"><ele>256.0</ele><time>2026-04-26T15:33:16.102Z</time></trkpt><trkpt lat="45.6467563" lon="10.200672"><ele>256.66666666666663</ele><time>2026-04-26T15:33:17.102Z</time></trkpt><trkpt lat="45.6468841" lon="10.2008176"><ele>257.3333333333333</ele><time>2026-04-26T15:33:18.102Z</time></trkpt><trkpt lat="45.6470218" lon="10.2009414"><ele>258.0</ele><time>2026-04-26T15:33:19.102Z</time></trkpt><trkpt lat="45.6471611" lon="10.2010495"><ele>258.3333333333333</ele><time>2026-04-26T15:33:20.102Z</time></trkpt><trkpt lat="45.6473084" lon="10.2011355"><ele>258.66666666666663</ele><time>2026-04-26T15:33:21.101Z</time></trkpt><trkpt lat="45.6474585" lon="10.2012022"><ele>259.0</ele><time>2026-04-26T15:33:22.101Z</time></trkpt><trkpt lat="45.6476018" lon="10.2012463"><ele>259.0</ele><time>2026-04-26T15:33:23.102Z</time></trkpt><trkpt lat="45.6477278" lon="10.201268"><ele>259.0</ele><time>2026-04-26T15:33:24.101Z</time></trkpt><trkpt lat="45.6478407" lon="10.2012709"><ele>259.0</ele><time>2026-04-26T15:33:25.102Z</time></trkpt><trkpt lat="45.6479392" lon="10.2012721"><ele>259.0</ele><time>2026-04-26T15:33:26.102Z</time></trkpt><trkpt lat="45.648028" lon="10.2012689"><ele>259.0</ele><time>2026-04-26T15:33:27.102Z</time></trkpt><trkpt lat="45.6481121" lon="10.2012722"><ele>259.16666666666663</ele><time>2026-04-26T15:33:28.102Z</time></trkpt><trkpt lat="45.6481889" lon="10.2012734"><ele>259.3333333333333</ele><time>2026-04-26T15:33:29.102Z</time></trkpt><trkpt lat="45.648295" lon="10.2012698"><ele>259.5</ele><time>2026-04-26T15:33:31.102Z</time></trkpt><trkpt lat="45.6483681" lon="10.201267"><ele>259.6666666666667</ele><time>2026-04-26T15:33:33.102Z</time></trkpt><trkpt lat="45.6484351" lon="10.2012685"><ele>259.83333333333337</ele><time>2026-04-26T15:33:35.102Z</time></trkpt><trkpt lat="45.6485166" lon="10.2012563"><ele>260.0</ele><time>2026-04-26T15:33:38.102Z</time></trkpt><trkpt lat="45.6485834" lon="10.2012533"><ele>260.0</ele><time>2026-04-26T15:34:31.102Z</time></trkpt><trkpt lat="45.6486611" lon="10.201227"><ele>260.0</ele><time>2026-04-26T15:34:33.101Z</time></trkpt><trkpt lat="45.6487244" lon="10.2012173"><ele>260.0</ele><time>2026-04-26T15:34:34.102Z</time></trkpt><trkpt lat="45.6487956" lon="10.2012075"><ele>260.0</ele><time>2026-04-26T15:34:35.102Z</time></trkpt><trkpt lat="45.6488775" lon="10.2011913"><ele>260.0</ele><time>2026-04-26T15:34:36.102Z</time></trkpt><trkpt lat="45.6489732" lon="10.2011726"><ele>260.0</ele><time>2026-04-26T15:34:37.101Z</time></trkpt><trkpt lat="45.6490761" lon="10.2011565"><ele>260.0</ele><time>2026-04-26T15:34:38.102Z</time></trkpt><trkpt lat="45.6491843" lon="10.2011375"><ele>260.0</ele><time>2026-04-26T15:34:39.102Z</time></trkpt><trkpt lat="45.649307" lon="10.2011248"><ele>260.0</ele><time>2026-04-26T15:34:40.102Z</time></trkpt><trkpt lat="45.6494434" lon="10.2011115"><ele>260.0</ele><time>2026-04-26T15:34:41.101Z</time></trkpt><trkpt lat="45.6495813" lon="10.201094"><ele>260.25</ele><time>2026-04-26T15:34:42.102Z</time></trkpt><trkpt lat="45.6497224" lon="10.201077"><ele>260.5</ele><time>2026-04-26T15:34:43.102Z</time></trkpt><trkpt lat="45.6498662" lon="10.2010543"><ele>260.75</ele><time>2026-04-26T15:34:44.102Z</time></trkpt><trkpt lat="45.650015" lon="10.2010327"><ele>261.0</ele><time>2026-04-26T15:34:45.102Z</time></trkpt><trkpt lat="45.6501675" lon="10.2010099"><ele>261.6666666666667</ele><time>2026-04-26T15:34:46.101Z</time></trkpt><trkpt lat="45.6503245" lon="10.2009879"><ele>262.33333333333337</ele><time>2026-04-26T15:34:47.102Z</time></trkpt><trkpt lat="45.6504851" lon="10.2009654"><ele>263.0</ele><time>2026-04-26T15:34:48.102Z</time></trkpt><trkpt lat="45.6506481" lon="10.2009396"><ele>263.0</ele><time>2026-04-26T15:34:49.102Z</time></trkpt><trkpt lat="45.6508132" lon="10.2009152"><ele>263.0</ele><time>2026-04-26T15:34:50.101Z</time></trkpt><trkpt lat="45.6509591" lon="10.200897"><ele>263.0</ele><time>2026-04-26T15:34:51.101Z</time></trkpt><trkpt lat="45.6511109" lon="10.2008732"><ele>263.6666666666667</ele><time>2026-04-26T15:34:52.101Z</time></trkpt><trkpt lat="45.6512677" lon="10.2008527"><ele>264.3333333333333</ele><time>2026-04-26T15:34:53.102Z</time></trkpt><trkpt lat="45.651487" lon="10.2008039"><ele>265.0</ele><time>2026-04-26T15:34:54.102Z</time></trkpt><trkpt lat="45.6516573" lon="10.2007634"><ele>265.0</ele><time>2026-04-26T15:34:55.102Z</time></trkpt><trkpt lat="45.651826" lon="10.2007204"><ele>265.0</ele><time>2026-04-26T15:34:56.102Z</time></trkpt><trkpt lat="45.6519903" lon="10.2006643"><ele>265.0</ele><time>2026-04-26T15:34:57.102Z</time></trkpt><trkpt lat="45.6521521" lon="10.2006003"><ele>265.3333333333333</ele><time>2026-04-26T15:34:58.102Z</time></trkpt><trkpt lat="45.65231" lon="10.2005322"><ele>265.6666666666667</ele><time>2026-04-26T15:34:59.102Z</time></trkpt><trkpt lat="45.652464" lon="10.2004637"><ele>266.0</ele><time>2026-04-26T15:35:00.101Z</time></trkpt><trkpt lat="45.6526106" lon="10.2003977"><ele>266.0</ele><time>2026-04-26T15:35:01.102Z</time></trkpt><trkpt lat="45.6527504" lon="10.200328"><ele>266.0</ele><time>2026-04-26T15:35:02.102Z</time></trkpt><trkpt lat="45.6528902" lon="10.2002651"><ele>266.0</ele><time>2026-04-26T15:35:03.101Z</time></trkpt><trkpt lat="45.6530267" lon="10.2002115"><ele>266.0</ele><time>2026-04-26T15:35:04.102Z</time></trkpt><trkpt lat="45.6531562" lon="10.2001679"><ele>266.2</ele><time>2026-04-26T15:35:05.102Z</time></trkpt><trkpt lat="45.6532693" lon="10.200126"><ele>266.40000000000003</ele><time>2026-04-26T15:35:06.102Z</time></trkpt><trkpt lat="45.6533759" lon="10.2000934"><ele>266.6</ele><time>2026-04-26T15:35:07.102Z</time></trkpt><trkpt lat="45.6534744" lon="10.2000674"><ele>266.8</ele><time>2026-04-26T15:35:08.102Z</time></trkpt><trkpt lat="45.6535667" lon="10.2000423"><ele>267.0</ele><time>2026-04-26T15:35:09.102Z</time></trkpt><trkpt lat="45.653654" lon="10.2000206"><ele>267.1666666666667</ele><time>2026-04-26T15:35:10.102Z</time></trkpt><trkpt lat="45.653739" lon="10.2000154"><ele>267.3333333333333</ele><time>2026-04-26T15:35:11.102Z</time></trkpt><trkpt lat="45.6538231" lon="10.2000371"><ele>267.5</ele><time>2026-04-26T15:35:12.102Z</time></trkpt><trkpt lat="45.6538968" lon="10.200088"><ele>267.66666666666663</ele><time>2026-04-26T15:35:13.101Z</time></trkpt><trkpt lat="45.6539634" lon="10.2001411"><ele>267.8333333333333</ele><time>2026-04-26T15:35:14.102Z</time></trkpt><trkpt lat="45.6540305" lon="10.2001623"><ele>268.0</ele><time>2026-04-26T15:35:15.101Z</time></trkpt><trkpt lat="45.6541318" lon="10.2000801"><ele>268.0</ele><time>2026-04-26T15:35:17.102Z</time></trkpt><trkpt lat="45.6541655" lon="10.1999926"><ele>268.0</ele><time>2026-04-26T15:35:18.102Z</time></trkpt><trkpt lat="45.6542073" lon="10.1998908"><ele>268.0</ele><time>2026-04-26T15:35:19.102Z</time></trkpt><trkpt lat="45.6542755" lon="10.1997985"><ele>268.0</ele><time>2026-04-26T15:35:20.102Z</time></trkpt><trkpt lat="45.6543719" lon="10.1997208"><ele>268.0</ele><time>2026-04-26T15:35:21.102Z</time></trkpt><trkpt lat="45.6544916" lon="10.1996519"><ele>267.66666666666663</ele><time>2026-04-26T15:35:22.102Z</time></trkpt><trkpt lat="45.6546334" lon="10.1995905"><ele>267.3333333333333</ele><time>2026-04-26T15:35:23.102Z</time></trkpt><trkpt lat="45.654784" lon="10.1995353"><ele>267.0</ele><time>2026-04-26T15:35:24.102Z</time></trkpt><trkpt lat="45.6549462" lon="10.1994796"><ele>267.0</ele><time>2026-04-26T15:35:25.101Z</time></trkpt><trkpt lat="45.6551128" lon="10.1994273"><ele>267.0</ele><time>2026-04-26T15:35:26.102Z</time></trkpt><trkpt lat="45.6552864" lon="10.1993788"><ele>267.0</ele><time>2026-04-26T15:35:27.102Z</time></trkpt><trkpt lat="45.6554676" lon="10.1993283"><ele>268.3333333333333</ele><time>2026-04-26T15:35:28.102Z</time></trkpt><trkpt lat="45.655661" lon="10.1992762"><ele>269.66666666666663</ele><time>2026-04-26T15:35:29.102Z</time></trkpt><trkpt lat="45.6558529" lon="10.1992185"><ele>271.0</ele><time>2026-04-26T15:35:30.102Z</time></trkpt><trkpt lat="45.6560402" lon="10.1991575"><ele>271.0</ele><time>2026-04-26T15:35:31.102Z</time></trkpt><trkpt lat="45.6562331" lon="10.1990925"><ele>271.0</ele><time>2026-04-26T15:35:32.102Z</time></trkpt><trkpt lat="45.6564284" lon="10.1990257"><ele>271.0</ele><time>2026-04-26T15:35:33.102Z</time></trkpt><trkpt lat="45.6566235" lon="10.1989521"><ele>271.0</ele><time>2026-04-26T15:35:34.101Z</time></trkpt><trkpt lat="45.6568193" lon="10.1988738"><ele>271.0</ele><time>2026-04-26T15:35:35.102Z</time></trkpt><trkpt lat="45.6570306" lon="10.1987893"><ele>271.0</ele><time>2026-04-26T15:35:36.101Z</time></trkpt><trkpt lat="45.6572324" lon="10.198706"><ele>271.0</ele><time>2026-04-26T15:35:37.102Z</time></trkpt><trkpt lat="45.6574342" lon="10.1986243"><ele>271.0</ele><time>2026-04-26T15:35:38.102Z</time></trkpt><trkpt lat="45.6576369" lon="10.198544"><ele>271.0</ele><time>2026-04-26T15:35:39.102Z</time></trkpt><trkpt lat="45.6578421" lon="10.1984646"><ele>271.3333333333333</ele><time>2026-04-26T15:35:40.102Z</time></trkpt><trkpt lat="45.6580461" lon="10.1983809"><ele>271.6666666666667</ele><time>2026-04-26T15:35:41.102Z</time></trkpt><trkpt lat="45.6582458" lon="10.1983007"><ele>272.0</ele><time>2026-04-26T15:35:42.102Z</time></trkpt><trkpt lat="45.6584447" lon="10.1982193"><ele>272.0</ele><time>2026-04-26T15:35:43.102Z</time></trkpt><trkpt lat="45.6586344" lon="10.1981398"><ele>272.0</ele><time>2026-04-26T15:35:44.102Z</time></trkpt><trkpt lat="45.6588101" lon="10.1980663"><ele>272.0</ele><time>2026-04-26T15:35:45.102Z</time></trkpt><trkpt lat="45.6589693" lon="10.1980033"><ele>272.0</ele><time>2026-04-26T15:35:46.102Z</time></trkpt><trkpt lat="45.6591098" lon="10.1979449"><ele>272.0</ele><time>2026-04-26T15:35:47.101Z</time></trkpt><trkpt lat="45.6592361" lon="10.1978973"><ele>272.0</ele><time>2026-04-26T15:35:48.102Z</time></trkpt><trkpt lat="45.6593481" lon="10.1978587"><ele>272.0</ele><time>2026-04-26T15:35:49.102Z</time></trkpt><trkpt lat="45.6594551" lon="10.1978456"><ele>272.1666666666667</ele><time>2026-04-26T15:35:50.102Z</time></trkpt><trkpt lat="45.6595534" lon="10.197873"><ele>272.33333333333337</ele><time>2026-04-26T15:35:51.102Z</time></trkpt><trkpt lat="45.6596418" lon="10.1979168"><ele>272.5</ele><time>2026-04-26T15:35:52.102Z</time></trkpt><trkpt lat="45.6597224" lon="10.1979271"><ele>272.6666666666667</ele><time>2026-04-26T15:35:53.101Z</time></trkpt><trkpt lat="45.6597933" lon="10.1978911"><ele>272.8333333333333</ele><time>2026-04-26T15:35:54.102Z</time></trkpt><trkpt lat="45.6598549" lon="10.1978207"><ele>273.0</ele><time>2026-04-26T15:35:55.102Z</time></trkpt><trkpt lat="45.6599293" lon="10.1977489"><ele>273.0</ele><time>2026-04-26T15:35:56.101Z</time></trkpt><trkpt lat="45.6600365" lon="10.1977006"><ele>273.0</ele><time>2026-04-26T15:35:57.102Z</time></trkpt><trkpt lat="45.6601624" lon="10.1976692"><ele>273.0</ele><time>2026-04-26T15:35:58.101Z</time></trkpt><trkpt lat="45.6603056" lon="10.1976403"><ele>273.0</ele><time>2026-04-26T15:35:59.102Z</time></trkpt><trkpt lat="45.6604567" lon="10.1976143"><ele>274.0</ele><time>2026-04-26T15:36:00.101Z</time></trkpt><trkpt lat="45.6606183" lon="10.1975869"><ele>275.0</ele><time>2026-04-26T15:36:01.102Z</time></trkpt><trkpt lat="45.6607903" lon="10.1975616"><ele>276.0</ele><time>2026-04-26T15:36:02.102Z</time></trkpt><trkpt lat="45.6609679" lon="10.1975386"><ele>276.3333333333333</ele><time>2026-04-26T15:36:03.102Z</time></trkpt><trkpt lat="45.6611419" lon="10.1975157"><ele>276.66666666666663</ele><time>2026-04-26T15:36:04.102Z</time></trkpt><trkpt lat="45.6613134" lon="10.197491"><ele>277.0</ele><time>2026-04-26T15:36:05.102Z</time></trkpt><trkpt lat="45.6614664" lon="10.1974698"><ele>277.0</ele><time>2026-04-26T15:36:06.101Z</time></trkpt><trkpt lat="45.6615832" lon="10.1974558"><ele>277.0</ele><time>2026-04-26T15:36:07.101Z</time></trkpt><trkpt lat="45.6616731" lon="10.1974468"><ele>277.0</ele><time>2026-04-26T15:36:08.102Z</time></trkpt><trkpt lat="45.6617443" lon="10.1974362"><ele>277.0</ele><time>2026-04-26T15:36:09.102Z</time></trkpt><trkpt lat="45.6618553" lon="10.1974201"><ele>277.0</ele><time>2026-04-26T15:36:11.101Z</time></trkpt><trkpt lat="45.6619197" lon="10.1974058"><ele>278.0</ele><time>2026-04-26T15:36:12.102Z</time></trkpt><trkpt lat="45.6620009" lon="10.1973948"><ele>279.0</ele><time>2026-04-26T15:36:13.101Z</time></trkpt><trkpt lat="45.6621045" lon="10.1973785"><ele>280.0</ele><time>2026-04-26T15:36:14.101Z</time></trkpt><trkpt lat="45.6622219" lon="10.1973653"><ele>281.0</ele><time>2026-04-26T15:36:15.102Z</time></trkpt><trkpt lat="45.6623451" lon="10.1973493"><ele>282.0</ele><time>2026-04-26T15:36:16.102Z</time></trkpt><trkpt lat="45.662475" lon="10.1973404"><ele>281.75</ele><time>2026-04-26T15:36:17.101Z</time></trkpt><trkpt lat="45.6626119" lon="10.1973302"><ele>281.5</ele><time>2026-04-26T15:36:18.102Z</time></trkpt><trkpt lat="45.6627579" lon="10.1973251"><ele>281.25</ele><time>2026-04-26T15:36:19.102Z</time></trkpt><trkpt lat="45.662902" lon="10.1972984"><ele>281.0</ele><time>2026-04-26T15:36:20.102Z</time></trkpt><trkpt lat="45.663047" lon="10.1972304"><ele>281.0</ele><time>2026-04-26T15:36:21.102Z</time></trkpt><trkpt lat="45.6631867" lon="10.1971284"><ele>281.0</ele><time>2026-04-26T15:36:22.102Z</time></trkpt><trkpt lat="45.6633282" lon="10.1970124"><ele>281.0</ele><time>2026-04-26T15:36:23.102Z</time></trkpt><trkpt lat="45.6634725" lon="10.1968823"><ele>280.33333333333337</ele><time>2026-04-26T15:36:24.102Z</time></trkpt><trkpt lat="45.6636242" lon="10.1967605"><ele>279.6666666666667</ele><time>2026-04-26T15:36:25.102Z</time></trkpt><trkpt lat="45.6637777" lon="10.1966309"><ele>279.0</ele><time>2026-04-26T15:36:26.102Z</time></trkpt><trkpt lat="45.6639305" lon="10.1964914"><ele>279.0</ele><time>2026-04-26T15:36:27.102Z</time></trkpt><trkpt lat="45.6640898" lon="10.1963507"><ele>279.0</ele><time>2026-04-26T15:36:28.102Z</time></trkpt><trkpt lat="45.6642471" lon="10.1961978"><ele>279.0</ele><time>2026-04-26T15:36:29.101Z</time></trkpt><trkpt lat="45.6644061" lon="10.1960371"><ele>280.0</ele><time>2026-04-26T15:36:30.102Z</time></trkpt><trkpt lat="45.6645653" lon="10.1958723"><ele>281.0</ele><time>2026-04-26T15:36:31.101Z</time></trkpt><trkpt lat="45.6647281" lon="10.195711"><ele>282.0</ele><time>2026-04-26T15:36:32.102Z</time></trkpt><trkpt lat="45.6648934" lon="10.1955423"><ele>282.0</ele><time>2026-04-26T15:36:33.102Z</time></trkpt><trkpt lat="45.6650575" lon="10.1953718"><ele>282.0</ele><time>2026-04-26T15:36:34.102Z</time></trkpt><trkpt lat="45.6652209" lon="10.1952014"><ele>282.0</ele><time>2026-04-26T15:36:35.102Z</time></trkpt><trkpt lat="45.6653831" lon="10.1950243"><ele>283.0</ele><time>2026-04-26T15:36:36.102Z</time></trkpt><trkpt lat="45.665543" lon="10.1948452"><ele>284.0</ele><time>2026-04-26T15:36:37.102Z</time></trkpt><trkpt lat="45.665699" lon="10.1946672"><ele>285.0</ele><time>2026-04-26T15:36:38.102Z</time></trkpt><trkpt lat="45.6658576" lon="10.1944812"><ele>285.0</ele><time>2026-04-26T15:36:39.101Z</time></trkpt><trkpt lat="45.6660117" lon="10.1943012"><ele>285.0</ele><time>2026-04-26T15:36:40.102Z</time></trkpt><trkpt lat="45.6661666" lon="10.1941201"><ele>285.0</ele><time>2026-04-26T15:36:41.102Z</time></trkpt><trkpt lat="45.6663203" lon="10.1939392"><ele>285.6666666666667</ele><time>2026-04-26T15:36:42.102Z</time></trkpt><trkpt lat="45.6664773" lon="10.1937546"><ele>286.33333333333337</ele><time>2026-04-26T15:36:43.102Z</time></trkpt><trkpt lat="45.6666339" lon="10.1935707"><ele>287.0</ele><time>2026-04-26T15:36:44.102Z</time></trkpt><trkpt lat="45.6667889" lon="10.1933867"><ele>287.0</ele><time>2026-04-26T15:36:45.102Z</time></trkpt><trkpt lat="45.6669402" lon="10.1932096"><ele>287.0</ele><time>2026-04-26T15:36:46.102Z</time></trkpt><trkpt lat="45.6670832" lon="10.1930367"><ele>287.0</ele><time>2026-04-26T15:36:47.102Z</time></trkpt><trkpt lat="45.6672219" lon="10.1928716"><ele>287.0</ele><time>2026-04-26T15:36:48.101Z</time></trkpt><trkpt lat="45.667354" lon="10.1927086"><ele>287.0</ele><time>2026-04-26T15:36:49.102Z</time></trkpt><trkpt lat="45.6674811" lon="10.1925514"><ele>287.0</ele><time>2026-04-26T15:36:50.102Z</time></trkpt><trkpt lat="45.6676001" lon="10.1924041"><ele>287.0</ele><time>2026-04-26T15:36:51.102Z</time></trkpt><trkpt lat="45.6677188" lon="10.1922706"><ele>287.0</ele><time>2026-04-26T15:36:52.102Z</time></trkpt><trkpt lat="45.6678393" lon="10.1921287"><ele>287.0</ele><time>2026-04-26T15:36:53.101Z</time></trkpt><trkpt lat="45.6679593" lon="10.1919821"><ele>287.6666666666667</ele><time>2026-04-26T15:36:54.102Z</time></trkpt><trkpt lat="45.6680866" lon="10.1918226"><ele>288.3333333333333</ele><time>2026-04-26T15:36:55.102Z</time></trkpt><trkpt lat="45.6682241" lon="10.1916625"><ele>289.0</ele><time>2026-04-26T15:36:56.102Z</time></trkpt><trkpt lat="45.6683635" lon="10.1914951"><ele>289.3333333333333</ele><time>2026-04-26T15:36:57.102Z</time></trkpt><trkpt lat="45.6685079" lon="10.1913209"><ele>289.6666666666667</ele><time>2026-04-26T15:36:58.102Z</time></trkpt><trkpt lat="45.6686567" lon="10.191139"><ele>290.0</ele><time>2026-04-26T15:36:59.102Z</time></trkpt><trkpt lat="45.6688035" lon="10.1909563"><ele>290.33333333333337</ele><time>2026-04-26T15:37:00.102Z</time></trkpt><trkpt lat="45.6689532" lon="10.1907724"><ele>290.6666666666667</ele><time>2026-04-26T15:37:01.102Z</time></trkpt><trkpt lat="45.6691069" lon="10.1905893"><ele>291.0</ele><time>2026-04-26T15:37:02.102Z</time></trkpt><trkpt lat="45.669259" lon="10.1904079"><ele>291.0</ele><time>2026-04-26T15:37:03.102Z</time></trkpt><trkpt lat="45.6694115" lon="10.190226"><ele>291.0</ele><time>2026-04-26T15:37:04.101Z</time></trkpt><trkpt lat="45.6695592" lon="10.1900388"><ele>291.0</ele><time>2026-04-26T15:37:05.101Z</time></trkpt><trkpt lat="45.6696985" lon="10.189863"><ele>290.3333333333333</ele><time>2026-04-26T15:37:06.102Z</time></trkpt><trkpt lat="45.6698315" lon="10.1896914"><ele>289.66666666666663</ele><time>2026-04-26T15:37:07.102Z</time></trkpt><trkpt lat="45.6699575" lon="10.1895206"><ele>289.0</ele><time>2026-04-26T15:37:08.102Z</time></trkpt><trkpt lat="45.6700786" lon="10.1893485"><ele>289.0</ele><time>2026-04-26T15:37:09.102Z</time></trkpt><trkpt lat="45.6701969" lon="10.1891756"><ele>289.0</ele><time>2026-04-26T15:37:10.102Z</time></trkpt><trkpt lat="45.6703077" lon="10.189009"><ele>289.0</ele><time>2026-04-26T15:37:11.101Z</time></trkpt><trkpt lat="45.6704062" lon="10.1888646"><ele>289.4</ele><time>2026-04-26T15:37:12.102Z</time></trkpt><trkpt lat="45.670494" lon="10.1887318"><ele>289.79999999999995</ele><time>2026-04-26T15:37:13.102Z</time></trkpt><trkpt lat="45.6705727" lon="10.1886165"><ele>290.20000000000005</ele><time>2026-04-26T15:37:14.102Z</time></trkpt><trkpt lat="45.6706425" lon="10.1885067"><ele>290.6</ele><time>2026-04-26T15:37:15.102Z</time></trkpt><trkpt lat="45.6707107" lon="10.1884073"><ele>291.0</ele><time>2026-04-26T15:37:16.102Z</time></trkpt><trkpt lat="45.6707764" lon="10.1883149"><ele>291.0</ele><time>2026-04-26T15:37:17.102Z</time></trkpt><trkpt lat="45.6708399" lon="10.1882302"><ele>291.0</ele><time>2026-04-26T15:37:18.101Z</time></trkpt><trkpt lat="45.6708968" lon="10.1881475"><ele>291.0</ele><time>2026-04-26T15:37:19.101Z</time></trkpt><trkpt lat="45.6709482" lon="10.1880746"><ele>291.0</ele><time>2026-04-26T15:37:20.102Z</time></trkpt><trkpt lat="45.6709992" lon="10.1880057"><ele>291.0</ele><time>2026-04-26T15:37:21.102Z</time></trkpt><trkpt lat="45.6710486" lon="10.1879478"><ele>291.0</ele><time>2026-04-26T15:37:22.102Z</time></trkpt><trkpt lat="45.6711206" lon="10.1878572"><ele>291.6</ele><time>2026-04-26T15:37:24.102Z</time></trkpt><trkpt lat="45.671178" lon="10.187786"><ele>292.20000000000005</ele><time>2026-04-26T15:37:27.102Z</time></trkpt><trkpt lat="45.6712695" lon="10.1876891"><ele>292.79999999999995</ele><time>2026-04-26T15:39:05.102Z</time></trkpt><trkpt lat="45.6713176" lon="10.1876258"><ele>293.4</ele><time>2026-04-26T15:39:06.102Z</time></trkpt><trkpt lat="45.6713897" lon="10.1875091"><ele>294.0</ele><time>2026-04-26T15:39:08.102Z</time></trkpt><trkpt lat="45.6714028" lon="10.1873571"><ele>294.0</ele><time>2026-04-26T15:39:10.102Z</time></trkpt><trkpt lat="45.6713208" lon="10.187221"><ele>294.0</ele><time>2026-04-26T15:39:12.102Z</time></trkpt><trkpt lat="45.6712466" lon="10.187163"><ele>294.0</ele><time>2026-04-26T15:39:13.102Z</time></trkpt><trkpt lat="45.6711748" lon="10.1870695"><ele>294.0</ele><time>2026-04-26T15:39:14.102Z</time></trkpt><trkpt lat="45.6711048" lon="10.1869433"><ele>294.0</ele><time>2026-04-26T15:39:15.102Z</time></trkpt><trkpt lat="45.6710367" lon="10.1868122"><ele>293.75</ele><time>2026-04-26T15:39:16.101Z</time></trkpt><trkpt lat="45.6709615" lon="10.1866753"><ele>293.5</ele><time>2026-04-26T15:39:17.102Z</time></trkpt><trkpt lat="45.6708843" lon="10.1865363"><ele>293.25</ele><time>2026-04-26T15:39:18.102Z</time></trkpt><trkpt lat="45.6708102" lon="10.1863914"><ele>293.0</ele><time>2026-04-26T15:39:19.102Z</time></trkpt><trkpt lat="45.6707264" lon="10.186247"><ele>293.5</ele><time>2026-04-26T15:39:20.102Z</time></trkpt><trkpt lat="45.670645" lon="10.1861058"><ele>294.0</ele><time>2026-04-26T15:39:21.102Z</time></trkpt><trkpt lat="45.6705682" lon="10.1859634"><ele>294.5</ele><time>2026-04-26T15:39:22.102Z</time></trkpt><trkpt lat="45.6704847" lon="10.1858182"><ele>295.0</ele><time>2026-04-26T15:39:23.102Z</time></trkpt><trkpt lat="45.6704007" lon="10.1856752"><ele>295.0</ele><time>2026-04-26T15:39:24.102Z</time></trkpt><trkpt lat="45.6703142" lon="10.1855253"><ele>295.0</ele><time>2026-04-26T15:39:25.101Z</time></trkpt><trkpt lat="45.6702266" lon="10.1853704"><ele>295.0</ele><time>2026-04-26T15:39:26.101Z</time></trkpt><trkpt lat="45.6701406" lon="10.1852068"><ele>295.0</ele><time>2026-04-26T15:39:27.102Z</time></trkpt><trkpt lat="45.6700759" lon="10.1850224"><ele>296.66666666666663</ele><time>2026-04-26T15:39:28.102Z</time></trkpt><trkpt lat="45.6700162" lon="10.1848286"><ele>298.3333333333333</ele><time>2026-04-26T15:39:29.102Z</time></trkpt><trkpt lat="45.6699695" lon="10.1846256"><ele>300.0</ele><time>2026-04-26T15:39:30.101Z</time></trkpt><trkpt lat="45.6699375" lon="10.1844108"><ele>300.0</ele><time>2026-04-26T15:39:31.101Z</time></trkpt><trkpt lat="45.6699246" lon="10.1841986"><ele>300.0</ele><time>2026-04-26T15:39:32.102Z</time></trkpt><trkpt lat="45.669924" lon="10.1839766"><ele>300.0</ele><time>2026-04-26T15:39:33.102Z</time></trkpt><trkpt lat="45.6699321" lon="10.1837524"><ele>302.0</ele><time>2026-04-26T15:39:34.101Z</time></trkpt><trkpt lat="45.6699389" lon="10.1835217"><ele>304.0</ele><time>2026-04-26T15:39:35.101Z</time></trkpt><trkpt lat="45.6699461" lon="10.1832989"><ele>306.0</ele><time>2026-04-26T15:39:36.102Z</time></trkpt><trkpt lat="45.6699741" lon="10.1830808"><ele>306.0</ele><time>2026-04-26T15:39:37.102Z</time></trkpt><trkpt lat="45.6700129" lon="10.1828601"><ele>306.0</ele><time>2026-04-26T15:39:38.102Z</time></trkpt><trkpt lat="45.6700638" lon="10.1826356"><ele>306.0</ele><time>2026-04-26T15:39:39.102Z</time></trkpt><trkpt lat="45.6701173" lon="10.1824025"><ele>305.0</ele><time>2026-04-26T15:39:40.102Z</time></trkpt><trkpt lat="45.6701746" lon="10.1821704"><ele>304.0</ele><time>2026-04-26T15:39:41.101Z</time></trkpt><trkpt lat="45.6702329" lon="10.1819414"><ele>303.0</ele><time>2026-04-26T15:39:42.102Z</time></trkpt><trkpt lat="45.670292" lon="10.1817006"><ele>307.3333333333333</ele><time>2026-04-26T15:39:43.102Z</time></trkpt><trkpt lat="45.6703458" lon="10.1814543"><ele>311.66666666666663</ele><time>2026-04-26T15:39:44.101Z</time></trkpt><trkpt lat="45.6703914" lon="10.1812036"><ele>316.0</ele><time>2026-04-26T15:39:45.102Z</time></trkpt><trkpt lat="45.6704224" lon="10.180952"><ele>316.0</ele><time>2026-04-26T15:39:46.102Z</time></trkpt><trkpt lat="45.6704445" lon="10.180685"><ele>316.0</ele><time>2026-04-26T15:39:47.101Z</time></trkpt><trkpt lat="45.6704672" lon="10.1804179"><ele>316.0</ele><time>2026-04-26T15:39:48.102Z</time></trkpt><trkpt lat="45.6704873" lon="10.1801476"><ele>316.0</ele><time>2026-04-26T15:39:49.102Z</time></trkpt><trkpt lat="45.6705081" lon="10.1798786"><ele>316.0</ele><time>2026-04-26T15:39:50.102Z</time></trkpt><trkpt lat="45.6705303" lon="10.1796048"><ele>316.0</ele><time>2026-04-26T15:39:51.101Z</time></trkpt><trkpt lat="45.6705487" lon="10.1793346"><ele>315.0</ele><time>2026-04-26T15:39:52.101Z</time></trkpt><trkpt lat="45.6705681" lon="10.1790674"><ele>314.0</ele><time>2026-04-26T15:39:53.102Z</time></trkpt><trkpt lat="45.6705904" lon="10.1788071"><ele>313.0</ele><time>2026-04-26T15:39:54.102Z</time></trkpt><trkpt lat="45.6706107" lon="10.1785541"><ele>313.0</ele><time>2026-04-26T15:39:55.102Z</time></trkpt><trkpt lat="45.6706278" lon="10.1783084"><ele>313.0</ele><time>2026-04-26T15:39:56.102Z</time></trkpt><trkpt lat="45.6706511" lon="10.1780694"><ele>313.0</ele><time>2026-04-26T15:39:57.102Z</time></trkpt><trkpt lat="45.6706912" lon="10.1778379"><ele>313.0</ele><time>2026-04-26T15:39:58.101Z</time></trkpt><trkpt lat="45.670751" lon="10.1776092"><ele>313.0</ele><time>2026-04-26T15:39:59.101Z</time></trkpt><trkpt lat="45.6708263" lon="10.1773801"><ele>313.0</ele><time>2026-04-26T15:40:00.102Z</time></trkpt><trkpt lat="45.6709073" lon="10.1771548"><ele>313.0</ele><time>2026-04-26T15:40:01.102Z</time></trkpt><trkpt lat="45.6709747" lon="10.1769154"><ele>313.0</ele><time>2026-04-26T15:40:02.102Z</time></trkpt><trkpt lat="45.6710188" lon="10.1766659"><ele>313.0</ele><time>2026-04-26T15:40:03.102Z</time></trkpt><trkpt lat="45.671039" lon="10.1764114"><ele>313.3333333333333</ele><time>2026-04-26T15:40:04.102Z</time></trkpt><trkpt lat="45.6710337" lon="10.1761522"><ele>313.6666666666667</ele><time>2026-04-26T15:40:05.102Z</time></trkpt><trkpt lat="45.6710226" lon="10.1758908"><ele>314.0</ele><time>2026-04-26T15:40:06.101Z</time></trkpt><trkpt lat="45.6710116" lon="10.1756291"><ele>315.33333333333337</ele><time>2026-04-26T15:40:07.102Z</time></trkpt><trkpt lat="45.6709999" lon="10.1753682"><ele>316.6666666666667</ele><time>2026-04-26T15:40:08.102Z</time></trkpt><trkpt lat="45.6709933" lon="10.1751198"><ele>318.0</ele><time>2026-04-26T15:40:09.102Z</time></trkpt><trkpt lat="45.6709971" lon="10.1748914"><ele>318.6666666666667</ele><time>2026-04-26T15:40:10.102Z</time></trkpt><trkpt lat="45.671021" lon="10.1746651"><ele>319.33333333333337</ele><time>2026-04-26T15:40:11.102Z</time></trkpt><trkpt lat="45.6710775" lon="10.1744466"><ele>320.0</ele><time>2026-04-26T15:40:12.101Z</time></trkpt><trkpt lat="45.6711525" lon="10.174226"><ele>323.0</ele><time>2026-04-26T15:40:13.102Z</time></trkpt><trkpt lat="45.6712308" lon="10.174"><ele>326.0</ele><time>2026-04-26T15:40:14.102Z</time></trkpt><trkpt lat="45.6712971" lon="10.1737677"><ele>329.0</ele><time>2026-04-26T15:40:15.102Z</time></trkpt><trkpt lat="45.6713478" lon="10.1735186"><ele>329.0</ele><time>2026-04-26T15:40:16.102Z</time></trkpt><trkpt lat="45.6713894" lon="10.1732696"><ele>329.0</ele><time>2026-04-26T15:40:17.102Z</time></trkpt><trkpt lat="45.6713612" lon="10.1729861"><ele>329.0</ele><time>2026-04-26T15:40:18.101Z</time></trkpt><trkpt lat="45.6713358" lon="10.1727194"><ele>328.33333333333337</ele><time>2026-04-26T15:40:19.101Z</time></trkpt><trkpt lat="45.6712956" lon="10.1724464"><ele>327.6666666666667</ele><time>2026-04-26T15:40:20.102Z</time></trkpt><trkpt lat="45.6712527" lon="10.1721736"><ele>327.0</ele><time>2026-04-26T15:40:21.102Z</time></trkpt><trkpt lat="45.6712111" lon="10.1719017"><ele>327.0</ele><time>2026-04-26T15:40:22.102Z</time></trkpt><trkpt lat="45.6711647" lon="10.171633"><ele>327.0</ele><time>2026-04-26T15:40:23.102Z</time></trkpt><trkpt lat="45.6711221" lon="10.1713713"><ele>327.0</ele><time>2026-04-26T15:40:24.101Z</time></trkpt><trkpt lat="45.6710785" lon="10.1711038"><ele>327.0</ele><time>2026-04-26T15:40:25.102Z</time></trkpt><trkpt lat="45.671034" lon="10.1708426"><ele>327.0</ele><time>2026-04-26T15:40:26.102Z</time></trkpt><trkpt lat="45.6709908" lon="10.1705841"><ele>327.0</ele><time>2026-04-26T15:40:27.101Z</time></trkpt><trkpt lat="45.6709493" lon="10.1703191"><ele>327.0</ele><time>2026-04-26T15:40:28.102Z</time></trkpt><trkpt lat="45.6709088" lon="10.1700572"><ele>327.0</ele><time>2026-04-26T15:40:29.102Z</time></trkpt><trkpt lat="45.670868" lon="10.1697886"><ele>327.0</ele><time>2026-04-26T15:40:30.102Z</time></trkpt><trkpt lat="45.670825" lon="10.1695209"><ele>327.6666666666667</ele><time>2026-04-26T15:40:31.101Z</time></trkpt><trkpt lat="45.6707841" lon="10.1692505"><ele>328.33333333333337</ele><time>2026-04-26T15:40:32.101Z</time></trkpt><trkpt lat="45.6707428" lon="10.1689765"><ele>329.0</ele><time>2026-04-26T15:40:33.102Z</time></trkpt><trkpt lat="45.6707013" lon="10.1687035"><ele>329.33333333333337</ele><time>2026-04-26T15:40:34.101Z</time></trkpt><trkpt lat="45.6706588" lon="10.168431"><ele>329.6666666666667</ele><time>2026-04-26T15:40:35.101Z</time></trkpt><trkpt lat="45.6706163" lon="10.1681553"><ele>330.0</ele><time>2026-04-26T15:40:36.102Z</time></trkpt><trkpt lat="45.6705738" lon="10.1678792"><ele>330.3333333333333</ele><time>2026-04-26T15:40:37.102Z</time></trkpt><trkpt lat="45.6705318" lon="10.1676043"><ele>330.66666666666663</ele><time>2026-04-26T15:40:38.102Z</time></trkpt><trkpt lat="45.6704875" lon="10.1673297"><ele>331.0</ele><time>2026-04-26T15:40:39.101Z</time></trkpt><trkpt lat="45.6704438" lon="10.1670533"><ele>332.0</ele><time>2026-04-26T15:40:40.102Z</time></trkpt><trkpt lat="45.6704027" lon="10.1667734"><ele>333.0</ele><time>2026-04-26T15:40:41.102Z</time></trkpt><trkpt lat="45.6703579" lon="10.1664956"><ele>334.0</ele><time>2026-04-26T15:40:42.102Z</time></trkpt><trkpt lat="45.6703155" lon="10.1662146"><ele>333.3333333333333</ele><time>2026-04-26T15:40:43.102Z</time></trkpt><trkpt lat="45.6702731" lon="10.165933"><ele>332.6666666666667</ele><time>2026-04-26T15:40:44.102Z</time></trkpt><trkpt lat="45.6702309" lon="10.1656529"><ele>332.0</ele><time>2026-04-26T15:40:45.101Z</time></trkpt><trkpt lat="45.67019" lon="10.1653746"><ele>333.33333333333337</ele><time>2026-04-26T15:40:46.102Z</time></trkpt><trkpt lat="45.6701476" lon="10.1650981"><ele>334.6666666666667</ele><time>2026-04-26T15:40:47.102Z</time></trkpt><trkpt lat="45.670105" lon="10.1648228"><ele>336.0</ele><time>2026-04-26T15:40:48.102Z</time></trkpt><trkpt lat="45.6700611" lon="10.1645512"><ele>337.3333333333333</ele><time>2026-04-26T15:40:49.102Z</time></trkpt><trkpt lat="45.6700171" lon="10.1642818"><ele>338.66666666666663</ele><time>2026-04-26T15:40:50.102Z</time></trkpt><trkpt lat="45.6699704" lon="10.1640135"><ele>340.0</ele><time>2026-04-26T15:40:51.102Z</time></trkpt><trkpt lat="45.669928" lon="10.1637408"><ele>341.0</ele><time>2026-04-26T15:40:52.102Z</time></trkpt><trkpt lat="45.669889" lon="10.1634692"><ele>342.0</ele><time>2026-04-26T15:40:53.102Z</time></trkpt><trkpt lat="45.6698499" lon="10.1631981"><ele>343.0</ele><time>2026-04-26T15:40:54.102Z</time></trkpt><trkpt lat="45.6698077" lon="10.1629223"><ele>343.3333333333333</ele><time>2026-04-26T15:40:55.102Z</time></trkpt><trkpt lat="45.6697607" lon="10.1626455"><ele>343.6666666666667</ele><time>2026-04-26T15:40:56.102Z</time></trkpt><trkpt lat="45.6697124" lon="10.1623739"><ele>344.0</ele><time>2026-04-26T15:40:57.102Z</time></trkpt><trkpt lat="45.6696594" lon="10.1621023"><ele>346.0</ele><time>2026-04-26T15:40:58.102Z</time></trkpt><trkpt lat="45.6696052" lon="10.1618365"><ele>348.0</ele><time>2026-04-26T15:40:59.101Z</time></trkpt><trkpt lat="45.6695507" lon="10.1615725"><ele>350.0</ele><time>2026-04-26T15:41:00.102Z</time></trkpt><trkpt lat="45.6694948" lon="10.1613074"><ele>348.33333333333337</ele><time>2026-04-26T15:41:01.102Z</time></trkpt><trkpt lat="45.6694394" lon="10.1610429"><ele>346.6666666666667</ele><time>2026-04-26T15:41:02.102Z</time></trkpt><trkpt lat="45.6693847" lon="10.1607822"><ele>345.0</ele><time>2026-04-26T15:41:03.102Z</time></trkpt><trkpt lat="45.6693287" lon="10.1605289"><ele>345.0</ele><time>2026-04-26T15:41:04.102Z</time></trkpt><trkpt lat="45.6692804" lon="10.1602961"><ele>345.0</ele><time>2026-04-26T15:41:05.101Z</time></trkpt><trkpt lat="45.6692377" lon="10.160082"><ele>345.0</ele><time>2026-04-26T15:41:06.102Z</time></trkpt><trkpt lat="45.669196" lon="10.1598922"><ele>345.3333333333333</ele><time>2026-04-26T15:41:07.102Z</time></trkpt><trkpt lat="45.6691627" lon="10.1597366"><ele>345.6666666666667</ele><time>2026-04-26T15:41:08.102Z</time></trkpt><trkpt lat="45.6691422" lon="10.1596104"><ele>346.0</ele><time>2026-04-26T15:41:09.101Z</time></trkpt><trkpt lat="45.6691201" lon="10.1595033"><ele>346.33333333333337</ele><time>2026-04-26T15:41:10.102Z</time></trkpt><trkpt lat="45.669119" lon="10.1593959"><ele>346.6666666666667</ele><time>2026-04-26T15:41:11.102Z</time></trkpt><trkpt lat="45.6691331" lon="10.159302"><ele>347.0</ele><time>2026-04-26T15:41:12.102Z</time></trkpt><trkpt lat="45.6691153" lon="10.1591425"><ele>347.0</ele><time>2026-04-26T15:41:14.102Z</time></trkpt><trkpt lat="45.6690778" lon="10.1590444"><ele>347.0</ele><time>2026-04-26T15:41:16.102Z</time></trkpt><trkpt lat="45.6690582" lon="10.1589556"><ele>347.0</ele><time>2026-04-26T15:41:20.102Z</time></trkpt><trkpt lat="45.6690052" lon="10.1588537"><ele>347.0</ele><time>2026-04-26T15:46:18.101Z</time></trkpt><trkpt lat="45.6689554" lon="10.1587577"><ele>347.0</ele><time>2026-04-26T15:46:20.102Z</time></trkpt><trkpt lat="45.6689288" lon="10.1586739"><ele>347.0</ele><time>2026-04-26T15:46:21.102Z</time></trkpt><trkpt lat="45.6688956" lon="10.1585724"><ele>349.0</ele><time>2026-04-26T15:46:22.102Z</time></trkpt><trkpt lat="45.6688633" lon="10.1584473"><ele>351.0</ele><time>2026-04-26T15:46:23.102Z</time></trkpt><trkpt lat="45.6688336" lon="10.1583028"><ele>353.0</ele><time>2026-04-26T15:46:24.102Z</time></trkpt><trkpt lat="45.6688044" lon="10.1581479"><ele>355.0</ele><time>2026-04-26T15:46:25.101Z</time></trkpt><trkpt lat="45.6687717" lon="10.1579777"><ele>357.0</ele><time>2026-04-26T15:46:26.102Z</time></trkpt><trkpt lat="45.6687339" lon="10.1577946"><ele>356.0</ele><time>2026-04-26T15:46:27.101Z</time></trkpt><trkpt lat="45.6686919" lon="10.1575958"><ele>355.0</ele><time>2026-04-26T15:46:28.102Z</time></trkpt><trkpt lat="45.668646" lon="10.157395"><ele>354.0</ele><time>2026-04-26T15:46:29.102Z</time></trkpt><trkpt lat="45.6685974" lon="10.1571811"><ele>354.0</ele><time>2026-04-26T15:46:30.102Z</time></trkpt><trkpt lat="45.6685451" lon="10.1569567"><ele>354.0</ele><time>2026-04-26T15:46:31.102Z</time></trkpt><trkpt lat="45.6684888" lon="10.1567245"><ele>354.0</ele><time>2026-04-26T15:46:32.102Z</time></trkpt><trkpt lat="45.668427" lon="10.1564864"><ele>355.6666666666667</ele><time>2026-04-26T15:46:33.102Z</time></trkpt><trkpt lat="45.6683624" lon="10.1562432"><ele>357.33333333333337</ele><time>2026-04-26T15:46:34.102Z</time></trkpt><trkpt lat="45.6682987" lon="10.156007"><ele>359.0</ele><time>2026-04-26T15:46:35.101Z</time></trkpt><trkpt lat="45.6682343" lon="10.1557655"><ele>360.0</ele><time>2026-04-26T15:46:36.102Z</time></trkpt><trkpt lat="45.6681688" lon="10.1555375"><ele>361.0</ele><time>2026-04-26T15:46:37.102Z</time></trkpt><trkpt lat="45.6681091" lon="10.1553275"><ele>362.0</ele><time>2026-04-26T15:46:38.102Z</time></trkpt><trkpt lat="45.6680512" lon="10.1551251"><ele>362.0</ele><time>2026-04-26T15:46:39.101Z</time></trkpt><trkpt lat="45.6679986" lon="10.1549179"><ele>362.0</ele><time>2026-04-26T15:46:40.102Z</time></trkpt><trkpt lat="45.66794" lon="10.1546979"><ele>362.0</ele><time>2026-04-26T15:46:41.102Z</time></trkpt><trkpt lat="45.6678793" lon="10.1544699"><ele>362.6666666666667</ele><time>2026-04-26T15:46:42.102Z</time></trkpt><trkpt lat="45.6678143" lon="10.1542315"><ele>363.3333333333333</ele><time>2026-04-26T15:46:43.102Z</time></trkpt><trkpt lat="45.667752" lon="10.1539921"><ele>364.0</ele><time>2026-04-26T15:46:44.102Z</time></trkpt><trkpt lat="45.6676887" lon="10.1537694"><ele>364.0</ele><time>2026-04-26T15:46:45.102Z</time></trkpt><trkpt lat="45.6676188" lon="10.1535604"><ele>364.0</ele><time>2026-04-26T15:46:46.102Z</time></trkpt><trkpt lat="45.6675699" lon="10.1533466"><ele>364.0</ele><time>2026-04-26T15:46:47.102Z</time></trkpt><trkpt lat="45.6675286" lon="10.153135"><ele>365.66666666666663</ele><time>2026-04-26T15:46:48.101Z</time></trkpt><trkpt lat="45.6675132" lon="10.1529243"><ele>367.3333333333333</ele><time>2026-04-26T15:46:49.102Z</time></trkpt><trkpt lat="45.6675171" lon="10.1527014"><ele>369.0</ele><time>2026-04-26T15:46:50.102Z</time></trkpt><trkpt lat="45.6675318" lon="10.1524709"><ele>369.6666666666667</ele><time>2026-04-26T15:46:51.102Z</time></trkpt><trkpt lat="45.667551" lon="10.1522306"><ele>370.33333333333337</ele><time>2026-04-26T15:46:52.102Z</time></trkpt><trkpt lat="45.6675694" lon="10.1519831"><ele>371.0</ele><time>2026-04-26T15:46:53.102Z</time></trkpt><trkpt lat="45.6675844" lon="10.151733"><ele>374.6666666666667</ele><time>2026-04-26T15:46:54.102Z</time></trkpt><trkpt lat="45.6676047" lon="10.1514925"><ele>378.3333333333333</ele><time>2026-04-26T15:46:55.102Z</time></trkpt><trkpt lat="45.6676254" lon="10.1512695"><ele>382.0</ele><time>2026-04-26T15:46:56.102Z</time></trkpt><trkpt lat="45.667651" lon="10.1510506"><ele>382.0</ele><time>2026-04-26T15:46:57.102Z</time></trkpt><trkpt lat="45.6676901" lon="10.1508286"><ele>382.0</ele><time>2026-04-26T15:46:58.102Z</time></trkpt><trkpt lat="45.6677515" lon="10.1506008"><ele>382.0</ele><time>2026-04-26T15:46:59.101Z</time></trkpt><trkpt lat="45.6678355" lon="10.1503715"><ele>382.0</ele><time>2026-04-26T15:47:00.102Z</time></trkpt><trkpt lat="45.6679286" lon="10.1501455"><ele>382.0</ele><time>2026-04-26T15:47:01.102Z</time></trkpt><trkpt lat="45.6680218" lon="10.1499251"><ele>382.0</ele><time>2026-04-26T15:47:02.102Z</time></trkpt><trkpt lat="45.668133" lon="10.1497372"><ele>383.3333333333333</ele><time>2026-04-26T15:47:03.102Z</time></trkpt><trkpt lat="45.6682555" lon="10.1495617"><ele>384.66666666666663</ele><time>2026-04-26T15:47:04.102Z</time></trkpt><trkpt lat="45.6683894" lon="10.1493956"><ele>386.0</ele><time>2026-04-26T15:47:05.101Z</time></trkpt><trkpt lat="45.668536" lon="10.1492437"><ele>386.3333333333333</ele><time>2026-04-26T15:47:06.102Z</time></trkpt><trkpt lat="45.6686737" lon="10.1490895"><ele>386.66666666666663</ele><time>2026-04-26T15:47:07.101Z</time></trkpt><trkpt lat="45.6688014" lon="10.1489388"><ele>387.0</ele><time>2026-04-26T15:47:08.102Z</time></trkpt><trkpt lat="45.6689291" lon="10.1488104"><ele>387.75</ele><time>2026-04-26T15:47:09.102Z</time></trkpt><trkpt lat="45.6690405" lon="10.1486605"><ele>388.5</ele><time>2026-04-26T15:47:10.102Z</time></trkpt><trkpt lat="45.6691292" lon="10.1484912"><ele>389.25</ele><time>2026-04-26T15:47:11.102Z</time></trkpt><trkpt lat="45.6691951" lon="10.1483064"><ele>390.0</ele><time>2026-04-26T15:47:12.102Z</time></trkpt><trkpt lat="45.6692309" lon="10.1481089"><ele>391.33333333333337</ele><time>2026-04-26T15:47:13.102Z</time></trkpt><trkpt lat="45.6692483" lon="10.147895"><ele>392.6666666666667</ele><time>2026-04-26T15:47:14.101Z</time></trkpt><trkpt lat="45.6692472" lon="10.1476605"><ele>394.0</ele><time>2026-04-26T15:47:15.102Z</time></trkpt><trkpt lat="45.6692334" lon="10.1474122"><ele>396.6666666666667</ele><time>2026-04-26T15:47:16.102Z</time></trkpt><trkpt lat="45.6692001" lon="10.1471586"><ele>399.33333333333337</ele><time>2026-04-26T15:47:17.101Z</time></trkpt><trkpt lat="45.6691475" lon="10.1469055"><ele>402.0</ele><time>2026-04-26T15:47:18.101Z</time></trkpt><trkpt lat="45.6690714" lon="10.1466658"><ele>406.0</ele><time>2026-04-26T15:47:19.102Z</time></trkpt><trkpt lat="45.6689671" lon="10.1464458"><ele>410.0</ele><time>2026-04-26T15:47:20.102Z</time></trkpt><trkpt lat="45.6688504" lon="10.1462565"><ele>414.0</ele><time>2026-04-26T15:47:21.102Z</time></trkpt><trkpt lat="45.6687388" lon="10.1460825"><ele>414.0</ele><time>2026-04-26T15:47:22.102Z</time></trkpt><trkpt lat="45.6686522" lon="10.1459162"><ele>414.0</ele><time>2026-04-26T15:47:23.101Z</time></trkpt><trkpt lat="45.6685911" lon="10.145746"><ele>414.0</ele><time>2026-04-26T15:47:24.102Z</time></trkpt><trkpt lat="45.6685713" lon="10.1455683"><ele>414.0</ele><time>2026-04-26T15:47:25.101Z</time></trkpt><trkpt lat="45.6685735" lon="10.1453666"><ele>414.66666666666663</ele><time>2026-04-26T15:47:26.102Z</time></trkpt><trkpt lat="45.6685894" lon="10.1451487"><ele>415.3333333333333</ele><time>2026-04-26T15:47:27.102Z</time></trkpt><trkpt lat="45.6686022" lon="10.1449259"><ele>416.0</ele><time>2026-04-26T15:47:28.102Z</time></trkpt><trkpt lat="45.6686047" lon="10.1447105"><ele>414.66666666666663</ele><time>2026-04-26T15:47:29.102Z</time></trkpt><trkpt lat="45.668574" lon="10.1444956"><ele>413.33333333333337</ele><time>2026-04-26T15:47:30.102Z</time></trkpt><trkpt lat="45.6684997" lon="10.144293"><ele>412.0</ele><time>2026-04-26T15:47:31.101Z</time></trkpt><trkpt lat="45.6683967" lon="10.1440956"><ele>416.33333333333337</ele><time>2026-04-26T15:47:32.101Z</time></trkpt><trkpt lat="45.6682782" lon="10.1439022"><ele>420.66666666666663</ele><time>2026-04-26T15:47:33.102Z</time></trkpt><trkpt lat="45.6681459" lon="10.1437084"><ele>425.0</ele><time>2026-04-26T15:47:34.102Z</time></trkpt><trkpt lat="45.6680057" lon="10.1435023"><ele>425.0</ele><time>2026-04-26T15:47:35.101Z</time></trkpt><trkpt lat="45.6678664" lon="10.1432923"><ele>425.0</ele><time>2026-04-26T15:47:36.102Z</time></trkpt><trkpt lat="45.6677385" lon="10.1431037"><ele>425.0</ele><time>2026-04-26T15:47:37.102Z</time></trkpt><trkpt lat="45.6676247" lon="10.1429352"><ele>424.75</ele><time>2026-04-26T15:47:38.102Z</time></trkpt><trkpt lat="45.6675271" lon="10.1427751"><ele>424.5</ele><time>2026-04-26T15:47:39.102Z</time></trkpt><trkpt lat="45.6674434" lon="10.1425973"><ele>424.25</ele><time>2026-04-26T15:47:40.102Z</time></trkpt><trkpt lat="45.6673755" lon="10.1424164"><ele>424.0</ele><time>2026-04-26T15:47:41.102Z</time></trkpt><trkpt lat="45.6673123" lon="10.1422297"><ele>425.6666666666667</ele><time>2026-04-26T15:47:42.102Z</time></trkpt><trkpt lat="45.6672411" lon="10.1420317"><ele>427.33333333333337</ele><time>2026-04-26T15:47:43.102Z</time></trkpt><trkpt lat="45.6671573" lon="10.1418389"><ele>429.0</ele><time>2026-04-26T15:47:44.102Z</time></trkpt><trkpt lat="45.6670629" lon="10.1416509"><ele>428.33333333333337</ele><time>2026-04-26T15:47:45.102Z</time></trkpt><trkpt lat="45.6669611" lon="10.1414498"><ele>427.6666666666667</ele><time>2026-04-26T15:47:46.102Z</time></trkpt><trkpt lat="45.6668588" lon="10.141246"><ele>427.0</ele><time>2026-04-26T15:47:47.102Z</time></trkpt><trkpt lat="45.6667533" lon="10.1410444"><ele>427.0</ele><time>2026-04-26T15:47:48.101Z</time></trkpt><trkpt lat="45.6666464" lon="10.1408391"><ele>427.0</ele><time>2026-04-26T15:47:49.102Z</time></trkpt><trkpt lat="45.6665283" lon="10.1406395"><ele>427.0</ele><time>2026-04-26T15:47:50.102Z</time></trkpt><trkpt lat="45.6663931" lon="10.1404553"><ele>427.6666666666667</ele><time>2026-04-26T15:47:51.102Z</time></trkpt><trkpt lat="45.6662421" lon="10.1402729"><ele>428.33333333333337</ele><time>2026-04-26T15:47:52.101Z</time></trkpt><trkpt lat="45.666085" lon="10.1400932"><ele>429.0</ele><time>2026-04-26T15:47:53.102Z</time></trkpt><trkpt lat="45.665924" lon="10.1399097"><ele>435.33333333333337</ele><time>2026-04-26T15:47:54.102Z</time></trkpt><trkpt lat="45.6657625" lon="10.1397174"><ele>441.6666666666667</ele><time>2026-04-26T15:47:55.102Z</time></trkpt><trkpt lat="45.6656047" lon="10.1395203"><ele>448.0</ele><time>2026-04-26T15:47:56.102Z</time></trkpt><trkpt lat="45.6654495" lon="10.1393194"><ele>448.0</ele><time>2026-04-26T15:47:57.102Z</time></trkpt><trkpt lat="45.665296" lon="10.1391126"><ele>448.0</ele><time>2026-04-26T15:47:58.101Z</time></trkpt><trkpt lat="45.6651413" lon="10.1389059"><ele>448.0</ele><time>2026-04-26T15:47:59.102Z</time></trkpt><trkpt lat="45.6649917" lon="10.1387021"><ele>450.0</ele><time>2026-04-26T15:48:00.102Z</time></trkpt><trkpt lat="45.6648473" lon="10.1384986"><ele>452.0</ele><time>2026-04-26T15:48:01.102Z</time></trkpt><trkpt lat="45.6647104" lon="10.1383096"><ele>454.0</ele><time>2026-04-26T15:48:02.102Z</time></trkpt><trkpt lat="45.6645949" lon="10.1381319"><ele>454.25</ele><time>2026-04-26T15:48:03.102Z</time></trkpt><trkpt lat="45.6645054" lon="10.1379604"><ele>454.5</ele><time>2026-04-26T15:48:04.102Z</time></trkpt><trkpt lat="45.6644404" lon="10.1377808"><ele>454.75</ele><time>2026-04-26T15:48:05.102Z</time></trkpt><trkpt lat="45.6644011" lon="10.1375801"><ele>455.0</ele><time>2026-04-26T15:48:06.101Z</time></trkpt><trkpt lat="45.6643778" lon="10.137365"><ele>455.0</ele><time>2026-04-26T15:48:07.102Z</time></trkpt><trkpt lat="45.6643586" lon="10.1371458"><ele>455.0</ele><time>2026-04-26T15:48:08.102Z</time></trkpt><trkpt lat="45.6643534" lon="10.1369145"><ele>455.0</ele><time>2026-04-26T15:48:09.101Z</time></trkpt><trkpt lat="45.6643644" lon="10.1366752"><ele>456.0</ele><time>2026-04-26T15:48:10.102Z</time></trkpt><trkpt lat="45.6643983" lon="10.1364379"><ele>457.0</ele><time>2026-04-26T15:48:11.102Z</time></trkpt><trkpt lat="45.6644303" lon="10.1361834"><ele>458.0</ele><time>2026-04-26T15:48:12.102Z</time></trkpt><trkpt lat="45.6644419" lon="10.1359251"><ele>461.3333333333333</ele><time>2026-04-26T15:48:13.102Z</time></trkpt><trkpt lat="45.6644329" lon="10.1356633"><ele>464.66666666666663</ele><time>2026-04-26T15:48:14.102Z</time></trkpt><trkpt lat="45.6644184" lon="10.1353985"><ele>468.0</ele><time>2026-04-26T15:48:15.102Z</time></trkpt><trkpt lat="45.6643985" lon="10.1351401"><ele>468.0</ele><time>2026-04-26T15:48:16.102Z</time></trkpt><trkpt lat="45.6643856" lon="10.1349026"><ele>468.0</ele><time>2026-04-26T15:48:17.102Z</time></trkpt><trkpt lat="45.6643723" lon="10.1346831"><ele>468.0</ele><time>2026-04-26T15:48:18.101Z</time></trkpt><trkpt lat="45.664365" lon="10.1344701"><ele>468.75</ele><time>2026-04-26T15:48:19.101Z</time></trkpt><trkpt lat="45.6643682" lon="10.1342716"><ele>469.5</ele><time>2026-04-26T15:48:20.102Z</time></trkpt><trkpt lat="45.6643976" lon="10.1340804"><ele>470.25</ele><time>2026-04-26T15:48:21.102Z</time></trkpt><trkpt lat="45.6644326" lon="10.1339075"><ele>471.0</ele><time>2026-04-26T15:48:22.102Z</time></trkpt><trkpt lat="45.6644504" lon="10.1337475"><ele>472.75</ele><time>2026-04-26T15:48:23.102Z</time></trkpt><trkpt lat="45.664427" lon="10.1335917"><ele>474.5</ele><time>2026-04-26T15:48:24.102Z</time></trkpt><trkpt lat="45.664374" lon="10.1334579"><ele>476.25</ele><time>2026-04-26T15:48:25.102Z</time></trkpt><trkpt lat="45.664288" lon="10.133333"><ele>478.0</ele><time>2026-04-26T15:48:26.102Z</time></trkpt><trkpt lat="45.6641956" lon="10.1332197"><ele>480.59999999999997</ele><time>2026-04-26T15:48:27.102Z</time></trkpt><trkpt lat="45.6641072" lon="10.1331109"><ele>483.19999999999993</ele><time>2026-04-26T15:48:28.102Z</time></trkpt><trkpt lat="45.6640339" lon="10.1330109"><ele>485.8</ele><time>2026-04-26T15:48:29.102Z</time></trkpt><trkpt lat="45.6639784" lon="10.1329133"><ele>488.4</ele><time>2026-04-26T15:48:30.102Z</time></trkpt><trkpt lat="45.6639484" lon="10.1328031"><ele>491.0</ele><time>2026-04-26T15:48:31.102Z</time></trkpt><trkpt lat="45.6639496" lon="10.1326799"><ele>491.0</ele><time>2026-04-26T15:48:32.101Z</time></trkpt><trkpt lat="45.663989" lon="10.1325578"><ele>491.0</ele><time>2026-04-26T15:48:33.102Z</time></trkpt><trkpt lat="45.6640539" lon="10.1324323"><ele>491.0</ele><time>2026-04-26T15:48:34.102Z</time></trkpt><trkpt lat="45.6641141" lon="10.132292"><ele>491.0</ele><time>2026-04-26T15:48:35.102Z</time></trkpt><trkpt lat="45.6641614" lon="10.1321353"><ele>491.0</ele><time>2026-04-26T15:48:36.102Z</time></trkpt><trkpt lat="45.6641894" lon="10.1319682"><ele>492.25</ele><time>2026-04-26T15:48:37.102Z</time></trkpt><trkpt lat="45.6642094" lon="10.1317988"><ele>493.5</ele><time>2026-04-26T15:48:38.102Z</time></trkpt><trkpt lat="45.6642179" lon="10.1316259"><ele>494.75</ele><time>2026-04-26T15:48:39.102Z</time></trkpt><trkpt lat="45.6642172" lon="10.1314532"><ele>496.0</ele><time>2026-04-26T15:48:40.101Z</time></trkpt><trkpt lat="45.6641741" lon="10.1312649"><ele>498.5</ele><time>2026-04-26T15:48:41.102Z</time></trkpt><trkpt lat="45.664113" lon="10.131081"><ele>501.0</ele><time>2026-04-26T15:48:42.102Z</time></trkpt><trkpt lat="45.6640422" lon="10.1309024"><ele>503.5</ele><time>2026-04-26T15:48:43.101Z</time></trkpt><trkpt lat="45.66397" lon="10.130726"><ele>506.0</ele><time>2026-04-26T15:48:44.102Z</time></trkpt><trkpt lat="45.6639011" lon="10.130538"><ele>512.25</ele><time>2026-04-26T15:48:45.102Z</time></trkpt><trkpt lat="45.6638341" lon="10.1303523"><ele>518.5</ele><time>2026-04-26T15:48:46.102Z</time></trkpt><trkpt lat="45.6637629" lon="10.1301742"><ele>524.75</ele><time>2026-04-26T15:48:47.102Z</time></trkpt><trkpt lat="45.6636924" lon="10.1300036"><ele>531.0</ele><time>2026-04-26T15:48:48.102Z</time></trkpt><trkpt lat="45.6636297" lon="10.1298449"><ele>527.25</ele><time>2026-04-26T15:48:49.102Z</time></trkpt><trkpt lat="45.6635723" lon="10.1296939"><ele>523.5</ele><time>2026-04-26T15:48:50.102Z</time></trkpt><trkpt lat="45.6635148" lon="10.129551"><ele>519.75</ele><time>2026-04-26T15:48:51.102Z</time></trkpt><trkpt lat="45.6634563" lon="10.129413"><ele>516.0</ele><time>2026-04-26T15:48:52.101Z</time></trkpt><trkpt lat="45.6633817" lon="10.1292945"><ele>516.0</ele><time>2026-04-26T15:48:53.101Z</time></trkpt><trkpt lat="45.6632883" lon="10.1292119"><ele>516.0</ele><time>2026-04-26T15:48:54.102Z</time></trkpt><trkpt lat="45.6631713" lon="10.129164"><ele>516.0</ele><time>2026-04-26T15:48:55.102Z</time></trkpt><trkpt lat="45.6630378" lon="10.1291397"><ele>516.0</ele><time>2026-04-26T15:48:56.102Z</time></trkpt><trkpt lat="45.6629026" lon="10.1291134"><ele>513.75</ele><time>2026-04-26T15:48:57.102Z</time></trkpt><trkpt lat="45.6627663" lon="10.129082"><ele>511.5</ele><time>2026-04-26T15:48:58.102Z</time></trkpt><trkpt lat="45.6626306" lon="10.1290484"><ele>509.25</ele><time>2026-04-26T15:48:59.102Z</time></trkpt><trkpt lat="45.6624935" lon="10.1290132"><ele>507.0</ele><time>2026-04-26T15:49:00.102Z</time></trkpt><trkpt lat="45.6623568" lon="10.1289694"><ele>513.5</ele><time>2026-04-26T15:49:01.102Z</time></trkpt><trkpt lat="45.6622224" lon="10.1289215"><ele>520.0</ele><time>2026-04-26T15:49:02.102Z</time></trkpt><trkpt lat="45.6620955" lon="10.1288755"><ele>526.5</ele><time>2026-04-26T15:49:03.102Z</time></trkpt><trkpt lat="45.6619804" lon="10.1288387"><ele>533.0</ele><time>2026-04-26T15:49:04.101Z</time></trkpt><trkpt lat="45.661886" lon="10.1288023"><ele>533.0</ele><time>2026-04-26T15:49:05.101Z</time></trkpt><trkpt lat="45.6618097" lon="10.1287727"><ele>533.0</ele><time>2026-04-26T15:49:06.101Z</time></trkpt><trkpt lat="45.6617469" lon="10.1287335"><ele>533.0</ele><time>2026-04-26T15:49:07.102Z</time></trkpt><trkpt lat="45.6616851" lon="10.1286747"><ele>533.0</ele><time>2026-04-26T15:49:09.102Z</time></trkpt><trkpt lat="45.6616242" lon="10.1285905"><ele>533.0</ele><time>2026-04-26T15:49:13.101Z</time></trkpt><trkpt lat="45.6615762" lon="10.1285175"><ele>533.0</ele><time>2026-04-26T15:49:15.102Z</time></trkpt><trkpt lat="45.6614899" lon="10.1283809"><ele>533.0</ele><time>2026-04-26T15:49:17.102Z</time></trkpt><trkpt lat="45.6614415" lon="10.1282996"><ele>533.0</ele><time>2026-04-26T15:49:18.102Z</time></trkpt><trkpt lat="45.6613883" lon="10.1282025"><ele>533.0</ele><time>2026-04-26T15:49:19.101Z</time></trkpt><trkpt lat="45.6613304" lon="10.12808"><ele>533.0</ele><time>2026-04-26T15:49:20.102Z</time></trkpt><trkpt lat="45.6612754" lon="10.1279382"><ele>533.0</ele><time>2026-04-26T15:49:21.102Z</time></trkpt><trkpt lat="45.6612009" lon="10.1277788"><ele>531.0</ele><time>2026-04-26T15:49:22.102Z</time></trkpt><trkpt lat="45.661125" lon="10.1275941"><ele>529.0</ele><time>2026-04-26T15:49:23.102Z</time></trkpt><trkpt lat="45.6610366" lon="10.1274299"><ele>527.0</ele><time>2026-04-26T15:49:24.102Z</time></trkpt><trkpt lat="45.6609157" lon="10.127312"><ele>525.0</ele><time>2026-04-26T15:49:25.102Z</time></trkpt><trkpt lat="45.6607694" lon="10.127231"><ele>531.3333333333334</ele><time>2026-04-26T15:49:26.102Z</time></trkpt><trkpt lat="45.6605986" lon="10.1271934"><ele>537.6666666666667</ele><time>2026-04-26T15:49:27.101Z</time></trkpt><trkpt lat="45.6604104" lon="10.1271971"><ele>544.0</ele><time>2026-04-26T15:49:28.102Z</time></trkpt><trkpt lat="45.6602291" lon="10.1272269"><ele>544.0</ele><time>2026-04-26T15:49:29.101Z</time></trkpt><trkpt lat="45.6600531" lon="10.12725"><ele>544.0</ele><time>2026-04-26T15:49:30.102Z</time></trkpt><trkpt lat="45.659898" lon="10.1272668"><ele>544.0</ele><time>2026-04-26T15:49:31.101Z</time></trkpt><trkpt lat="45.6597777" lon="10.1272741"><ele>544.0</ele><time>2026-04-26T15:49:32.102Z</time></trkpt><trkpt lat="45.6596887" lon="10.1272486"><ele>544.0</ele><time>2026-04-26T15:49:33.101Z</time></trkpt><trkpt lat="45.659621" lon="10.1271763"><ele>544.0</ele><time>2026-04-26T15:49:34.102Z</time></trkpt><trkpt lat="45.6595968" lon="10.1270831"><ele>544.0</ele><time>2026-04-26T15:49:35.102Z</time></trkpt><trkpt lat="45.6596033" lon="10.12696"><ele>544.0</ele><time>2026-04-26T15:49:36.102Z</time></trkpt><trkpt lat="45.6596402" lon="10.1268164"><ele>544.0</ele><time>2026-04-26T15:49:37.102Z</time></trkpt><trkpt lat="45.6596879" lon="10.1266484"><ele>545.6666666666667</ele><time>2026-04-26T15:49:38.102Z</time></trkpt><trkpt lat="45.6597372" lon="10.126457"><ele>547.3333333333334</ele><time>2026-04-26T15:49:39.101Z</time></trkpt><trkpt lat="45.6597822" lon="10.1262486"><ele>549.0</ele><time>2026-04-26T15:49:40.102Z</time></trkpt><trkpt lat="45.6598235" lon="10.1260236"><ele>549.0</ele><time>2026-04-26T15:49:41.101Z</time></trkpt><trkpt lat="45.659846" lon="10.1258001"><ele>549.0</ele><time>2026-04-26T15:49:42.102Z</time></trkpt><trkpt lat="45.6598614" lon="10.1255887"><ele>549.0</ele><time>2026-04-26T15:49:43.102Z</time></trkpt><trkpt lat="45.6598776" lon="10.125391"><ele>549.0</ele><time>2026-04-26T15:49:44.102Z</time></trkpt><trkpt lat="45.6598973" lon="10.1252158"><ele>548.6666666666666</ele><time>2026-04-26T15:49:45.102Z</time></trkpt><trkpt lat="45.6599176" lon="10.1250764"><ele>548.3333333333334</ele><time>2026-04-26T15:49:46.102Z</time></trkpt><trkpt lat="45.6599528" lon="10.1249643"><ele>548.0</ele><time>2026-04-26T15:49:47.101Z</time></trkpt><trkpt lat="45.660009" lon="10.1249159"><ele>547.6666666666667</ele><time>2026-04-26T15:49:48.102Z</time></trkpt><trkpt lat="45.660114" lon="10.1249881"><ele>547.3333333333334</ele><time>2026-04-26T15:49:50.102Z</time></trkpt><trkpt lat="45.6601254" lon="10.1250882"><ele>547.0</ele><time>2026-04-26T15:49:51.102Z</time></trkpt><trkpt lat="45.6601098" lon="10.1252195"><ele>547.0</ele><time>2026-04-26T15:49:52.102Z</time></trkpt><trkpt lat="45.6600833" lon="10.1253764"><ele>547.0</ele><time>2026-04-26T15:49:53.101Z</time></trkpt><trkpt lat="45.660053" lon="10.1255583"><ele>547.0</ele><time>2026-04-26T15:49:54.102Z</time></trkpt><trkpt lat="45.6600259" lon="10.1257362"><ele>547.0</ele><time>2026-04-26T15:49:55.102Z</time></trkpt><trkpt lat="45.6600009" lon="10.1259206"><ele>547.4</ele><time>2026-04-26T15:49:56.102Z</time></trkpt><trkpt lat="45.6599818" lon="10.1260967"><ele>547.8000000000001</ele><time>2026-04-26T15:49:57.102Z</time></trkpt><trkpt lat="45.6599716" lon="10.1262545"><ele>548.2</ele><time>2026-04-26T15:49:58.102Z</time></trkpt><trkpt lat="45.6599785" lon="10.1263896"><ele>548.6</ele><time>2026-04-26T15:49:59.102Z</time></trkpt><trkpt lat="45.6600076" lon="10.126502"><ele>549.0</ele><time>2026-04-26T15:50:00.102Z</time></trkpt><trkpt lat="45.660066" lon="10.1265748"><ele>549.0</ele><time>2026-04-26T15:50:01.102Z</time></trkpt><trkpt lat="45.6601355" lon="10.1265818"><ele>549.0</ele><time>2026-04-26T15:50:02.102Z</time></trkpt><trkpt lat="45.6601916" lon="10.126525"><ele>549.0</ele><time>2026-04-26T15:50:03.102Z</time></trkpt><trkpt lat="45.6602332" lon="10.1264347"><ele>549.0</ele><time>2026-04-26T15:50:04.102Z</time></trkpt><trkpt lat="45.6602208" lon="10.1262812"><ele>549.0</ele><time>2026-04-26T15:50:05.102Z</time></trkpt><trkpt lat="45.6602147" lon="10.1261122"><ele>549.0</ele><time>2026-04-26T15:50:06.102Z</time></trkpt><trkpt lat="45.6602129" lon="10.1259357"><ele>549.0</ele><time>2026-04-26T15:50:07.102Z</time></trkpt><trkpt lat="45.6602187" lon="10.125743"><ele>549.0</ele><time>2026-04-26T15:50:08.102Z</time></trkpt><trkpt lat="45.6602405" lon="10.1255415"><ele>549.0</ele><time>2026-04-26T15:50:09.102Z</time></trkpt><trkpt lat="45.6602692" lon="10.1253431"><ele>549.0</ele><time>2026-04-26T15:50:10.102Z</time></trkpt><trkpt lat="45.6603046" lon="10.1251514"><ele>552.2</ele><time>2026-04-26T15:50:11.102Z</time></trkpt><trkpt lat="45.6603418" lon="10.1249788"><ele>555.4</ele><time>2026-04-26T15:50:12.102Z</time></trkpt><trkpt lat="45.6603821" lon="10.1248307"><ele>558.6</ele><time>2026-04-26T15:50:13.102Z</time></trkpt><trkpt lat="45.6604272" lon="10.1246985"><ele>561.8</ele><time>2026-04-26T15:50:14.102Z</time></trkpt><trkpt lat="45.6604812" lon="10.1245919"><ele>565.0</ele><time>2026-04-26T15:50:15.101Z</time></trkpt><trkpt lat="45.6605324" lon="10.1245071"><ele>565.0</ele><time>2026-04-26T15:50:16.101Z</time></trkpt><trkpt lat="45.6605951" lon="10.1244407"><ele>565.0</ele><time>2026-04-26T15:50:17.102Z</time></trkpt><trkpt lat="45.6606645" lon="10.1243963"><ele>565.0</ele><time>2026-04-26T15:50:18.102Z</time></trkpt><trkpt lat="45.6607385" lon="10.1243582"><ele>565.0</ele><time>2026-04-26T15:50:19.102Z</time></trkpt><trkpt lat="45.6607983" lon="10.1243256"><ele>565.0</ele><time>2026-04-26T15:50:20.102Z</time></trkpt><trkpt lat="45.6608943" lon="10.124205"><ele>565.0</ele><time>2026-04-26T15:50:22.102Z</time></trkpt><trkpt lat="45.6609463" lon="10.124125"><ele>564.2</ele><time>2026-04-26T15:50:23.102Z</time></trkpt><trkpt lat="45.6609977" lon="10.1240455"><ele>563.4</ele><time>2026-04-26T15:50:24.102Z</time></trkpt><trkpt lat="45.6610503" lon="10.1239385"><ele>562.6</ele><time>2026-04-26T15:50:25.102Z</time></trkpt><trkpt lat="45.6610981" lon="10.1238243"><ele>561.8</ele><time>2026-04-26T15:50:26.102Z</time></trkpt><trkpt lat="45.6611454" lon="10.1236862"><ele>561.0</ele><time>2026-04-26T15:50:27.101Z</time></trkpt><trkpt lat="45.6611779" lon="10.1235298"><ele>566.75</ele><time>2026-04-26T15:50:28.102Z</time></trkpt><trkpt lat="45.6612032" lon="10.1233679"><ele>572.5</ele><time>2026-04-26T15:50:29.102Z</time></trkpt><trkpt lat="45.6612077" lon="10.1232003"><ele>578.25</ele><time>2026-04-26T15:50:30.102Z</time></trkpt><trkpt lat="45.6612124" lon="10.123037"><ele>584.0</ele><time>2026-04-26T15:50:31.102Z</time></trkpt><trkpt lat="45.6612161" lon="10.1228773"><ele>583.8</ele><time>2026-04-26T15:50:32.102Z</time></trkpt><trkpt lat="45.6612274" lon="10.1227267"><ele>583.5999999999999</ele><time>2026-04-26T15:50:33.102Z</time></trkpt><trkpt lat="45.6612493" lon="10.1225932"><ele>583.4</ele><time>2026-04-26T15:50:34.101Z</time></trkpt><trkpt lat="45.6612773" lon="10.1224587"><ele>583.1999999999999</ele><time>2026-04-26T15:50:35.102Z</time></trkpt><trkpt lat="45.6613069" lon="10.122325"><ele>583.0</ele><time>2026-04-26T15:50:36.102Z</time></trkpt><trkpt lat="45.6613423" lon="10.1221888"><ele>583.0</ele><time>2026-04-26T15:50:37.101Z</time></trkpt><trkpt lat="45.6613804" lon="10.1220348"><ele>583.0</ele><time>2026-04-26T15:50:38.102Z</time></trkpt><trkpt lat="45.6614215" lon="10.1218635"><ele>583.0</ele><time>2026-04-26T15:50:39.102Z</time></trkpt><trkpt lat="45.6614758" lon="10.1216894"><ele>583.0</ele><time>2026-04-26T15:50:40.102Z</time></trkpt><trkpt lat="45.6615393" lon="10.1215231"><ele>581.75</ele><time>2026-04-26T15:50:41.102Z</time></trkpt><trkpt lat="45.6616058" lon="10.1213543"><ele>580.5</ele><time>2026-04-26T15:50:42.102Z</time></trkpt><trkpt lat="45.6616687" lon="10.1211912"><ele>579.25</ele><time>2026-04-26T15:50:43.102Z</time></trkpt><trkpt lat="45.6617314" lon="10.1210299"><ele>578.0</ele><time>2026-04-26T15:50:44.101Z</time></trkpt><trkpt lat="45.6617979" lon="10.1208658"><ele>577.0</ele><time>2026-04-26T15:50:45.102Z</time></trkpt><trkpt lat="45.6618619" lon="10.1207008"><ele>576.0</ele><time>2026-04-26T15:50:46.102Z</time></trkpt><trkpt lat="45.6619252" lon="10.1205408"><ele>575.0</ele><time>2026-04-26T15:50:47.102Z</time></trkpt><trkpt lat="45.6619846" lon="10.120384"><ele>574.0</ele><time>2026-04-26T15:50:48.101Z</time></trkpt><trkpt lat="45.6620452" lon="10.1202143"><ele>579.0</ele><time>2026-04-26T15:50:49.102Z</time></trkpt><trkpt lat="45.6621072" lon="10.1200397"><ele>584.0</ele><time>2026-04-26T15:50:50.102Z</time></trkpt><trkpt lat="45.6621724" lon="10.119856"><ele>589.0</ele><time>2026-04-26T15:50:51.102Z</time></trkpt><trkpt lat="45.6622413" lon="10.1196727"><ele>594.0</ele><time>2026-04-26T15:50:52.102Z</time></trkpt><trkpt lat="45.6623131" lon="10.1194889"><ele>594.0</ele><time>2026-04-26T15:50:53.101Z</time></trkpt><trkpt lat="45.6623833" lon="10.1193022"><ele>594.0</ele><time>2026-04-26T15:50:54.102Z</time></trkpt><trkpt lat="45.6624471" lon="10.1191007"><ele>594.0</ele><time>2026-04-26T15:50:55.102Z</time></trkpt><trkpt lat="45.6624867" lon="10.1188704"><ele>594.6666666666666</ele><time>2026-04-26T15:50:56.102Z</time></trkpt><trkpt lat="45.6624942" lon="10.1186149"><ele>595.3333333333333</ele><time>2026-04-26T15:50:57.102Z</time></trkpt><trkpt lat="45.6624685" lon="10.118342"><ele>596.0</ele><time>2026-04-26T15:50:58.102Z</time></trkpt><trkpt lat="45.6624325" lon="10.1180713"><ele>598.5</ele><time>2026-04-26T15:50:59.101Z</time></trkpt><trkpt lat="45.6624112" lon="10.1178439"><ele>601.0</ele><time>2026-04-26T15:51:00.101Z</time></trkpt><trkpt lat="45.6623867" lon="10.1176671"><ele>603.5</ele><time>2026-04-26T15:51:01.102Z</time></trkpt><trkpt lat="45.662341" lon="10.1175355"><ele>606.0</ele><time>2026-04-26T15:51:02.102Z</time></trkpt><trkpt lat="45.6622621" lon="10.1174537"><ele>606.0</ele><time>2026-04-26T15:51:03.102Z</time></trkpt><trkpt lat="45.66217" lon="10.1174432"><ele>606.0</ele><time>2026-04-26T15:51:04.102Z</time></trkpt><trkpt lat="45.6620659" lon="10.1174904"><ele>606.0</ele><time>2026-04-26T15:51:05.102Z</time></trkpt><trkpt lat="45.661939" lon="10.1175317"><ele>606.0</ele><time>2026-04-26T15:51:06.102Z</time></trkpt><trkpt lat="45.6618069" lon="10.1175514"><ele>605.3333333333334</ele><time>2026-04-26T15:51:07.102Z</time></trkpt><trkpt lat="45.6616656" lon="10.1175394"><ele>604.6666666666667</ele><time>2026-04-26T15:51:08.102Z</time></trkpt><trkpt lat="45.6615156" lon="10.117484"><ele>604.0</ele><time>2026-04-26T15:51:09.102Z</time></trkpt><trkpt lat="45.6613703" lon="10.1173883"><ele>604.75</ele><time>2026-04-26T15:51:10.102Z</time></trkpt><trkpt lat="45.6612243" lon="10.1172902"><ele>605.5</ele><time>2026-04-26T15:51:11.102Z</time></trkpt><trkpt lat="45.6610897" lon="10.1171945"><ele>606.25</ele><time>2026-04-26T15:51:12.102Z</time></trkpt><trkpt lat="45.6609675" lon="10.1171063"><ele>607.0</ele><time>2026-04-26T15:51:13.102Z</time></trkpt><trkpt lat="45.6608677" lon="10.1170306"><ele>607.0</ele><time>2026-04-26T15:51:14.102Z</time></trkpt><trkpt lat="45.6607933" lon="10.1169534"><ele>607.0</ele><time>2026-04-26T15:51:15.102Z</time></trkpt><trkpt lat="45.6607411" lon="10.1168568"><ele>607.0</ele><time>2026-04-26T15:51:16.102Z</time></trkpt><trkpt lat="45.6607313" lon="10.1167486"><ele>607.0</ele><time>2026-04-26T15:51:17.102Z</time></trkpt><trkpt lat="45.660815" lon="10.1166234"><ele>607.0</ele><time>2026-04-26T15:51:19.101Z</time></trkpt><trkpt lat="45.6609006" lon="10.1166024"><ele>607.0</ele><time>2026-04-26T15:51:20.102Z</time></trkpt><trkpt lat="45.6610067" lon="10.1166104"><ele>607.0</ele><time>2026-04-26T15:51:21.102Z</time></trkpt><trkpt lat="45.6611322" lon="10.1166299"><ele>607.0</ele><time>2026-04-26T15:51:22.102Z</time></trkpt><trkpt lat="45.6612583" lon="10.1166515"><ele>607.0</ele><time>2026-04-26T15:51:23.102Z</time></trkpt><trkpt lat="45.6613967" lon="10.1166786"><ele>610.0</ele><time>2026-04-26T15:51:24.102Z</time></trkpt><trkpt lat="45.6615416" lon="10.1167007"><ele>613.0</ele><time>2026-04-26T15:51:25.102Z</time></trkpt><trkpt lat="45.6616936" lon="10.1167191"><ele>616.0</ele><time>2026-04-26T15:51:26.102Z</time></trkpt><trkpt lat="45.6618478" lon="10.1167502"><ele>617.5</ele><time>2026-04-26T15:51:27.102Z</time></trkpt><trkpt lat="45.662" lon="10.1167693"><ele>619.0</ele><time>2026-04-26T15:51:28.102Z</time></trkpt><trkpt lat="45.6621458" lon="10.1167661"><ele>620.5</ele><time>2026-04-26T15:51:29.101Z</time></trkpt><trkpt lat="45.6622842" lon="10.1167262"><ele>622.0</ele><time>2026-04-26T15:51:30.102Z</time></trkpt><trkpt lat="45.6624009" lon="10.116653"><ele>622.0</ele><time>2026-04-26T15:51:31.102Z</time></trkpt><trkpt lat="45.6625134" lon="10.1166097"><ele>622.0</ele><time>2026-04-26T15:51:32.102Z</time></trkpt><trkpt lat="45.6626151" lon="10.1166237"><ele>622.0</ele><time>2026-04-26T15:51:33.102Z</time></trkpt><trkpt lat="45.6627106" lon="10.1166832"><ele>622.0</ele><time>2026-04-26T15:51:34.102Z</time></trkpt><trkpt lat="45.6628035" lon="10.1167831"><ele>622.0</ele><time>2026-04-26T15:51:35.101Z</time></trkpt><trkpt lat="45.6628898" lon="10.116871"><ele>625.5</ele><time>2026-04-26T15:51:36.101Z</time></trkpt><trkpt lat="45.6629734" lon="10.1169173"><ele>629.0</ele><time>2026-04-26T15:51:37.101Z</time></trkpt><trkpt lat="45.6630559" lon="10.1169173"><ele>632.5</ele><time>2026-04-26T15:51:38.101Z</time></trkpt><trkpt lat="45.6631258" lon="10.1168543"><ele>636.0</ele><time>2026-04-26T15:51:39.102Z</time></trkpt><trkpt lat="45.6631653" lon="10.1167465"><ele>639.5</ele><time>2026-04-26T15:51:40.101Z</time></trkpt><trkpt lat="45.663167" lon="10.1166111"><ele>643.0</ele><time>2026-04-26T15:51:41.102Z</time></trkpt><trkpt lat="45.6631325" lon="10.1164491"><ele>645.75</ele><time>2026-04-26T15:51:42.102Z</time></trkpt><trkpt lat="45.6630817" lon="10.116268"><ele>648.5</ele><time>2026-04-26T15:51:43.102Z</time></trkpt><trkpt lat="45.6630171" lon="10.1160912"><ele>651.25</ele><time>2026-04-26T15:51:44.102Z</time></trkpt><trkpt lat="45.6629267" lon="10.1159499"><ele>654.0</ele><time>2026-04-26T15:51:45.102Z</time></trkpt><trkpt lat="45.6628071" lon="10.1158422"><ele>651.5</ele><time>2026-04-26T15:51:46.102Z</time></trkpt><trkpt lat="45.6626741" lon="10.1157481"><ele>649.0</ele><time>2026-04-26T15:51:47.102Z</time></trkpt><trkpt lat="45.6625482" lon="10.1156592"><ele>646.5</ele><time>2026-04-26T15:51:48.102Z</time></trkpt><trkpt lat="45.6624469" lon="10.1155556"><ele>644.0</ele><time>2026-04-26T15:51:49.101Z</time></trkpt><trkpt lat="45.6623695" lon="10.1154239"><ele>644.0</ele><time>2026-04-26T15:51:50.102Z</time></trkpt><trkpt lat="45.6623207" lon="10.1152695"><ele>644.0</ele><time>2026-04-26T15:51:51.101Z</time></trkpt><trkpt lat="45.6623048" lon="10.1150899"><ele>644.0</ele><time>2026-04-26T15:51:52.101Z</time></trkpt><trkpt lat="45.6623198" lon="10.114911"><ele>644.0</ele><time>2026-04-26T15:51:53.102Z</time></trkpt><trkpt lat="45.6623352" lon="10.1147435"><ele>647.2</ele><time>2026-04-26T15:51:54.102Z</time></trkpt><trkpt lat="45.6623258" lon="10.1146036"><ele>650.4000000000001</ele><time>2026-04-26T15:51:55.102Z</time></trkpt><trkpt lat="45.6622771" lon="10.114505"><ele>653.6</ele><time>2026-04-26T15:51:56.102Z</time></trkpt><trkpt lat="45.6621942" lon="10.1144585"><ele>656.8</ele><time>2026-04-26T15:51:57.101Z</time></trkpt><trkpt lat="45.662095" lon="10.1144702"><ele>660.0</ele><time>2026-04-26T15:51:58.102Z</time></trkpt><trkpt lat="45.6619822" lon="10.1145127"><ele>659.25</ele><time>2026-04-26T15:51:59.102Z</time></trkpt><trkpt lat="45.6618666" lon="10.1145373"><ele>658.5</ele><time>2026-04-26T15:52:00.102Z</time></trkpt><trkpt lat="45.6617484" lon="10.1145269"><ele>657.75</ele><time>2026-04-26T15:52:01.102Z</time></trkpt><trkpt lat="45.6616449" lon="10.1144557"><ele>657.0</ele><time>2026-04-26T15:52:02.102Z</time></trkpt><trkpt lat="45.661556" lon="10.1143308"><ele>657.0</ele><time>2026-04-26T15:52:03.102Z</time></trkpt><trkpt lat="45.6614756" lon="10.1141686"><ele>657.0</ele><time>2026-04-26T15:52:04.102Z</time></trkpt><trkpt lat="45.6613844" lon="10.1139924"><ele>657.0</ele><time>2026-04-26T15:52:05.102Z</time></trkpt><trkpt lat="45.6612886" lon="10.1138096"><ele>659.0</ele><time>2026-04-26T15:52:06.101Z</time></trkpt><trkpt lat="45.6611879" lon="10.1136169"><ele>661.0</ele><time>2026-04-26T15:52:07.102Z</time></trkpt><trkpt lat="45.6610828" lon="10.1134087"><ele>663.0</ele><time>2026-04-26T15:52:08.101Z</time></trkpt><trkpt lat="45.6609787" lon="10.113202"><ele>663.0</ele><time>2026-04-26T15:52:09.102Z</time></trkpt><trkpt lat="45.6608748" lon="10.1129949"><ele>663.0</ele><time>2026-04-26T15:52:10.102Z</time></trkpt><trkpt lat="45.6607679" lon="10.1127854"><ele>663.0</ele><time>2026-04-26T15:52:11.102Z</time></trkpt><trkpt lat="45.6606646" lon="10.1125741"><ele>666.3333333333334</ele><time>2026-04-26T15:52:12.102Z</time></trkpt><trkpt lat="45.6605706" lon="10.1123767"><ele>669.6666666666667</ele><time>2026-04-26T15:52:13.102Z</time></trkpt><trkpt lat="45.6604919" lon="10.1121868"><ele>673.0</ele><time>2026-04-26T15:52:14.102Z</time></trkpt><trkpt lat="45.6604426" lon="10.1119999"><ele>673.0</ele><time>2026-04-26T15:52:15.102Z</time></trkpt><trkpt lat="45.6604347" lon="10.1118154"><ele>673.0</ele><time>2026-04-26T15:52:16.102Z</time></trkpt><trkpt lat="45.6604581" lon="10.1116437"><ele>673.0</ele><time>2026-04-26T15:52:17.101Z</time></trkpt><trkpt lat="45.6605149" lon="10.1114692"><ele>673.0</ele><time>2026-04-26T15:52:18.102Z</time></trkpt><trkpt lat="45.6605996" lon="10.1113078"><ele>671.3333333333334</ele><time>2026-04-26T15:52:19.102Z</time></trkpt><trkpt lat="45.6606965" lon="10.1111397"><ele>669.6666666666666</ele><time>2026-04-26T15:52:20.102Z</time></trkpt><trkpt lat="45.6607912" lon="10.1109641"><ele>668.0</ele><time>2026-04-26T15:52:21.102Z</time></trkpt><trkpt lat="45.660885" lon="10.1108002"><ele>669.5</ele><time>2026-04-26T15:52:22.101Z</time></trkpt><trkpt lat="45.6609731" lon="10.1106486"><ele>671.0</ele><time>2026-04-26T15:52:23.102Z</time></trkpt><trkpt lat="45.661042" lon="10.1104957"><ele>672.5</ele><time>2026-04-26T15:52:24.101Z</time></trkpt><trkpt lat="45.6610758" lon="10.1103326"><ele>674.0</ele><time>2026-04-26T15:52:25.102Z</time></trkpt><trkpt lat="45.6610672" lon="10.11016"><ele>674.0</ele><time>2026-04-26T15:52:26.102Z</time></trkpt><trkpt lat="45.661007" lon="10.1099737"><ele>674.0</ele><time>2026-04-26T15:52:27.102Z</time></trkpt><trkpt lat="45.6609255" lon="10.1097856"><ele>674.0</ele><time>2026-04-26T15:52:28.102Z</time></trkpt><trkpt lat="45.6608482" lon="10.1095992"><ele>676.0</ele><time>2026-04-26T15:52:29.101Z</time></trkpt><trkpt lat="45.6607854" lon="10.1094127"><ele>678.0</ele><time>2026-04-26T15:52:30.102Z</time></trkpt><trkpt lat="45.6607462" lon="10.1092136"><ele>680.0</ele><time>2026-04-26T15:52:31.102Z</time></trkpt><trkpt lat="45.6607384" lon="10.1090079"><ele>682.0</ele><time>2026-04-26T15:52:32.102Z</time></trkpt><trkpt lat="45.6607588" lon="10.1088103"><ele>682.0</ele><time>2026-04-26T15:52:33.102Z</time></trkpt><trkpt lat="45.6608099" lon="10.1086313"><ele>682.0</ele><time>2026-04-26T15:52:34.102Z</time></trkpt><trkpt lat="45.6608887" lon="10.1084649"><ele>682.0</ele><time>2026-04-26T15:52:35.102Z</time></trkpt><trkpt lat="45.6609791" lon="10.1083014"><ele>682.0</ele><time>2026-04-26T15:52:36.102Z</time></trkpt><trkpt lat="45.6610605" lon="10.1081225"><ele>683.25</ele><time>2026-04-26T15:52:37.102Z</time></trkpt><trkpt lat="45.6611164" lon="10.1079428"><ele>684.5</ele><time>2026-04-26T15:52:38.102Z</time></trkpt><trkpt lat="45.661142" lon="10.1077499"><ele>685.75</ele><time>2026-04-26T15:52:39.101Z</time></trkpt><trkpt lat="45.6611256" lon="10.1075465"><ele>687.0</ele><time>2026-04-26T15:52:40.102Z</time></trkpt><trkpt lat="45.6610729" lon="10.1073486"><ele>687.0</ele><time>2026-04-26T15:52:41.102Z</time></trkpt><trkpt lat="45.6609834" lon="10.1071502"><ele>687.0</ele><time>2026-04-26T15:52:42.102Z</time></trkpt><trkpt lat="45.6608877" lon="10.1069431"><ele>687.0</ele><time>2026-04-26T15:52:43.102Z</time></trkpt><trkpt lat="45.6607922" lon="10.1067384"><ele>688.25</ele><time>2026-04-26T15:52:44.102Z</time></trkpt><trkpt lat="45.6606986" lon="10.1065458"><ele>689.5</ele><time>2026-04-26T15:52:45.102Z</time></trkpt><trkpt lat="45.6606262" lon="10.1063675"><ele>690.75</ele><time>2026-04-26T15:52:46.101Z</time></trkpt><trkpt lat="45.6605814" lon="10.1061922"><ele>692.0</ele><time>2026-04-26T15:52:47.102Z</time></trkpt><trkpt lat="45.6605768" lon="10.1060308"><ele>692.0</ele><time>2026-04-26T15:52:48.101Z</time></trkpt><trkpt lat="45.6606077" lon="10.1058819"><ele>692.0</ele><time>2026-04-26T15:52:49.102Z</time></trkpt><trkpt lat="45.6606623" lon="10.1057258"><ele>692.0</ele><time>2026-04-26T15:52:50.102Z</time></trkpt><trkpt lat="45.6607212" lon="10.1055573"><ele>692.0</ele><time>2026-04-26T15:52:51.102Z</time></trkpt><trkpt lat="45.6607806" lon="10.1053758"><ele>688.0</ele><time>2026-04-26T15:52:52.102Z</time></trkpt><trkpt lat="45.6608414" lon="10.1051861"><ele>684.0</ele><time>2026-04-26T15:52:53.102Z</time></trkpt><trkpt lat="45.6609091" lon="10.1049941"><ele>680.0</ele><time>2026-04-26T15:52:54.102Z</time></trkpt><trkpt lat="45.6609652" lon="10.1047982"><ele>676.0</ele><time>2026-04-26T15:52:55.102Z</time></trkpt><trkpt lat="45.6609951" lon="10.1045937"><ele>674.75</ele><time>2026-04-26T15:52:56.101Z</time></trkpt><trkpt lat="45.6609983" lon="10.1043847"><ele>673.5</ele><time>2026-04-26T15:52:57.102Z</time></trkpt><trkpt lat="45.6609778" lon="10.1041853"><ele>672.25</ele><time>2026-04-26T15:52:58.102Z</time></trkpt><trkpt lat="45.6609456" lon="10.1039869"><ele>671.0</ele><time>2026-04-26T15:52:59.102Z</time></trkpt><trkpt lat="45.6609127" lon="10.1037852"><ele>671.0</ele><time>2026-04-26T15:53:00.102Z</time></trkpt><trkpt lat="45.6608831" lon="10.1035696"><ele>671.0</ele><time>2026-04-26T15:53:01.101Z</time></trkpt><trkpt lat="45.6608612" lon="10.1033447"><ele>671.0</ele><time>2026-04-26T15:53:02.101Z</time></trkpt><trkpt lat="45.6608478" lon="10.1031194"><ele>672.0</ele><time>2026-04-26T15:53:03.101Z</time></trkpt><trkpt lat="45.6608308" lon="10.1028929"><ele>673.0</ele><time>2026-04-26T15:53:04.102Z</time></trkpt><trkpt lat="45.6608158" lon="10.1026696"><ele>674.0</ele><time>2026-04-26T15:53:05.102Z</time></trkpt><trkpt lat="45.6608027" lon="10.1024495"><ele>674.0</ele><time>2026-04-26T15:53:06.102Z</time></trkpt><trkpt lat="45.6607906" lon="10.1022324"><ele>674.0</ele><time>2026-04-26T15:53:07.102Z</time></trkpt><trkpt lat="45.660778" lon="10.1020193"><ele>674.0</ele><time>2026-04-26T15:53:08.102Z</time></trkpt><trkpt lat="45.6607681" lon="10.1018076"><ele>674.0</ele><time>2026-04-26T15:53:09.102Z</time></trkpt><trkpt lat="45.6607583" lon="10.1015972"><ele>674.0</ele><time>2026-04-26T15:53:10.102Z</time></trkpt><trkpt lat="45.6607513" lon="10.1013836"><ele>674.0</ele><time>2026-04-26T15:53:11.102Z</time></trkpt><trkpt lat="45.6607471" lon="10.1011615"><ele>672.6666666666666</ele><time>2026-04-26T15:53:12.102Z</time></trkpt><trkpt lat="45.6607543" lon="10.1009292"><ele>671.3333333333334</ele><time>2026-04-26T15:53:13.102Z</time></trkpt><trkpt lat="45.6607666" lon="10.1006912"><ele>670.0</ele><time>2026-04-26T15:53:14.102Z</time></trkpt><trkpt lat="45.6607721" lon="10.1004459"><ele>667.6666666666667</ele><time>2026-04-26T15:53:15.102Z</time></trkpt><trkpt lat="45.6607575" lon="10.1001791"><ele>665.3333333333334</ele><time>2026-04-26T15:53:16.102Z</time></trkpt><trkpt lat="45.6607286" lon="10.0999046"><ele>663.0</ele><time>2026-04-26T15:53:17.101Z</time></trkpt><trkpt lat="45.6606961" lon="10.0996289"><ele>663.0</ele><time>2026-04-26T15:53:18.101Z</time></trkpt><trkpt lat="45.6606736" lon="10.0993589"><ele>663.0</ele><time>2026-04-26T15:53:19.102Z</time></trkpt><trkpt lat="45.6606582" lon="10.0990881"><ele>663.0</ele><time>2026-04-26T15:53:20.102Z</time></trkpt><trkpt lat="45.6606464" lon="10.098818"><ele>663.6666666666666</ele><time>2026-04-26T15:53:21.102Z</time></trkpt><trkpt lat="45.6606338" lon="10.0985505"><ele>664.3333333333333</ele><time>2026-04-26T15:53:22.102Z</time></trkpt><trkpt lat="45.6606222" lon="10.0982825"><ele>665.0</ele><time>2026-04-26T15:53:23.102Z</time></trkpt><trkpt lat="45.6606119" lon="10.0980163"><ele>663.3333333333333</ele><time>2026-04-26T15:53:24.102Z</time></trkpt><trkpt lat="45.6606014" lon="10.0977497"><ele>661.6666666666666</ele><time>2026-04-26T15:53:25.102Z</time></trkpt><trkpt lat="45.6605915" lon="10.0974906"><ele>660.0</ele><time>2026-04-26T15:53:26.102Z</time></trkpt><trkpt lat="45.6605764" lon="10.0972318"><ele>660.0</ele><time>2026-04-26T15:53:27.102Z</time></trkpt><trkpt lat="45.6605656" lon="10.0969713"><ele>660.0</ele><time>2026-04-26T15:53:28.101Z</time></trkpt><trkpt lat="45.6605548" lon="10.0967086"><ele>660.0</ele><time>2026-04-26T15:53:29.102Z</time></trkpt><trkpt lat="45.6605458" lon="10.0964552"><ele>658.3333333333334</ele><time>2026-04-26T15:53:30.102Z</time></trkpt><trkpt lat="45.6605401" lon="10.0962129"><ele>656.6666666666667</ele><time>2026-04-26T15:53:31.102Z</time></trkpt><trkpt lat="45.6605331" lon="10.0959786"><ele>655.0</ele><time>2026-04-26T15:53:32.102Z</time></trkpt><trkpt lat="45.6605309" lon="10.0957609"><ele>652.6666666666667</ele><time>2026-04-26T15:53:33.102Z</time></trkpt><trkpt lat="45.6605469" lon="10.0955524"><ele>650.3333333333334</ele><time>2026-04-26T15:53:34.102Z</time></trkpt><trkpt lat="45.6605905" lon="10.095343"><ele>648.0</ele><time>2026-04-26T15:53:35.102Z</time></trkpt><trkpt lat="45.6606589" lon="10.0951458"><ele>648.0</ele><time>2026-04-26T15:53:36.102Z</time></trkpt><trkpt lat="45.6607342" lon="10.0949441"><ele>648.0</ele><time>2026-04-26T15:53:37.101Z</time></trkpt><trkpt lat="45.6607843" lon="10.0947424"><ele>648.0</ele><time>2026-04-26T15:53:38.102Z</time></trkpt><trkpt lat="45.6608174" lon="10.0945425"><ele>646.0</ele><time>2026-04-26T15:53:39.102Z</time></trkpt><trkpt lat="45.6608353" lon="10.0943422"><ele>644.0</ele><time>2026-04-26T15:53:40.102Z</time></trkpt><trkpt lat="45.6608615" lon="10.0941468"><ele>642.0</ele><time>2026-04-26T15:53:41.102Z</time></trkpt><trkpt lat="45.6609017" lon="10.0939582"><ele>640.0</ele><time>2026-04-26T15:53:42.102Z</time></trkpt><trkpt lat="45.6609617" lon="10.0937723"><ele>639.25</ele><time>2026-04-26T15:53:43.102Z</time></trkpt><trkpt lat="45.6610381" lon="10.0935992"><ele>638.5</ele><time>2026-04-26T15:53:44.102Z</time></trkpt><trkpt lat="45.6611325" lon="10.0934457"><ele>637.75</ele><time>2026-04-26T15:53:45.102Z</time></trkpt><trkpt lat="45.6612272" lon="10.0932967"><ele>637.0</ele><time>2026-04-26T15:53:46.101Z</time></trkpt><trkpt lat="45.6613064" lon="10.0931292"><ele>637.0</ele><time>2026-04-26T15:53:47.102Z</time></trkpt><trkpt lat="45.6613655" lon="10.0929511"><ele>637.0</ele><time>2026-04-26T15:53:48.101Z</time></trkpt><trkpt lat="45.6613994" lon="10.0927616"><ele>637.0</ele><time>2026-04-26T15:53:49.102Z</time></trkpt><trkpt lat="45.6614251" lon="10.0925783"><ele>637.0</ele><time>2026-04-26T15:53:50.102Z</time></trkpt><trkpt lat="45.6614608" lon="10.0924078"><ele>632.25</ele><time>2026-04-26T15:53:51.102Z</time></trkpt><trkpt lat="45.6615173" lon="10.0922549"><ele>627.5</ele><time>2026-04-26T15:53:52.102Z</time></trkpt><trkpt lat="45.6615973" lon="10.0921318"><ele>622.75</ele><time>2026-04-26T15:53:53.102Z</time></trkpt><trkpt lat="45.6616866" lon="10.092013"><ele>618.0</ele><time>2026-04-26T15:53:54.102Z</time></trkpt><trkpt lat="45.6617782" lon="10.0918781"><ele>618.0</ele><time>2026-04-26T15:53:55.102Z</time></trkpt><trkpt lat="45.6618663" lon="10.0917372"><ele>618.0</ele><time>2026-04-26T15:53:56.102Z</time></trkpt><trkpt lat="45.6619517" lon="10.0915899"><ele>618.0</ele><time>2026-04-26T15:53:57.102Z</time></trkpt><trkpt lat="45.6620316" lon="10.0914293"><ele>618.0</ele><time>2026-04-26T15:53:58.102Z</time></trkpt><trkpt lat="45.6621059" lon="10.0912605"><ele>617.0</ele><time>2026-04-26T15:53:59.102Z</time></trkpt><trkpt lat="45.6621758" lon="10.0910783"><ele>616.0</ele><time>2026-04-26T15:54:00.102Z</time></trkpt><trkpt lat="45.6622454" lon="10.0908948"><ele>615.0</ele><time>2026-04-26T15:54:01.102Z</time></trkpt><trkpt lat="45.662318" lon="10.0907063"><ele>614.0</ele><time>2026-04-26T15:54:02.102Z</time></trkpt><trkpt lat="45.662387" lon="10.0905016"><ele>614.0</ele><time>2026-04-26T15:54:03.102Z</time></trkpt><trkpt lat="45.6624582" lon="10.090301"><ele>614.0</ele><time>2026-04-26T15:54:04.102Z</time></trkpt><trkpt lat="45.6625289" lon="10.0900976"><ele>614.0</ele><time>2026-04-26T15:54:05.102Z</time></trkpt><trkpt lat="45.6626041" lon="10.0898859"><ele>608.0</ele><time>2026-04-26T15:54:06.102Z</time></trkpt><trkpt lat="45.6626851" lon="10.0896626"><ele>602.0</ele><time>2026-04-26T15:54:07.102Z</time></trkpt><trkpt lat="45.6627692" lon="10.0894342"><ele>596.0</ele><time>2026-04-26T15:54:08.102Z</time></trkpt><trkpt lat="45.6628525" lon="10.0891973"><ele>603.0</ele><time>2026-04-26T15:54:09.102Z</time></trkpt><trkpt lat="45.6629358" lon="10.0889535"><ele>610.0</ele><time>2026-04-26T15:54:10.102Z</time></trkpt><trkpt lat="45.663013" lon="10.0887054"><ele>617.0</ele><time>2026-04-26T15:54:11.102Z</time></trkpt><trkpt lat="45.6630773" lon="10.0884551"><ele>611.3333333333333</ele><time>2026-04-26T15:54:12.102Z</time></trkpt><trkpt lat="45.6631363" lon="10.0882034"><ele>605.6666666666666</ele><time>2026-04-26T15:54:13.102Z</time></trkpt><trkpt lat="45.6631894" lon="10.087954"><ele>600.0</ele><time>2026-04-26T15:54:14.102Z</time></trkpt><trkpt lat="45.6632366" lon="10.0877046"><ele>600.0</ele><time>2026-04-26T15:54:15.102Z</time></trkpt><trkpt lat="45.6632862" lon="10.0874589"><ele>600.0</ele><time>2026-04-26T15:54:16.102Z</time></trkpt><trkpt lat="45.663335" lon="10.0872151"><ele>600.0</ele><time>2026-04-26T15:54:17.102Z</time></trkpt><trkpt lat="45.6633838" lon="10.0869745"><ele>596.3333333333334</ele><time>2026-04-26T15:54:18.102Z</time></trkpt><trkpt lat="45.6634344" lon="10.0867297"><ele>592.6666666666667</ele><time>2026-04-26T15:54:19.102Z</time></trkpt><trkpt lat="45.6634839" lon="10.0864795"><ele>589.0</ele><time>2026-04-26T15:54:20.102Z</time></trkpt><trkpt lat="45.6635322" lon="10.0862265"><ele>585.6666666666667</ele><time>2026-04-26T15:54:21.101Z</time></trkpt><trkpt lat="45.6635762" lon="10.0859692"><ele>582.3333333333334</ele><time>2026-04-26T15:54:22.102Z</time></trkpt><trkpt lat="45.6636043" lon="10.0856969"><ele>579.0</ele><time>2026-04-26T15:54:23.102Z</time></trkpt><trkpt lat="45.6636215" lon="10.0854296"><ele>586.3333333333334</ele><time>2026-04-26T15:54:24.102Z</time></trkpt><trkpt lat="45.663631" lon="10.0851543"><ele>593.6666666666667</ele><time>2026-04-26T15:54:25.102Z</time></trkpt><trkpt lat="45.6636523" lon="10.0848869"><ele>601.0</ele><time>2026-04-26T15:54:26.101Z</time></trkpt><trkpt lat="45.6636891" lon="10.0846219"><ele>601.0</ele><time>2026-04-26T15:54:27.101Z</time></trkpt><trkpt lat="45.6637326" lon="10.0843602"><ele>601.0</ele><time>2026-04-26T15:54:28.102Z</time></trkpt><trkpt lat="45.6637753" lon="10.0841039"><ele>601.0</ele><time>2026-04-26T15:54:29.102Z</time></trkpt><trkpt lat="45.6638199" lon="10.0838499"><ele>597.0</ele><time>2026-04-26T15:54:30.101Z</time></trkpt><trkpt lat="45.663864" lon="10.0835981"><ele>593.0</ele><time>2026-04-26T15:54:31.102Z</time></trkpt><trkpt lat="45.6639066" lon="10.0833527"><ele>589.0</ele><time>2026-04-26T15:54:32.102Z</time></trkpt><trkpt lat="45.6639478" lon="10.08311"><ele>587.0</ele><time>2026-04-26T15:54:33.102Z</time></trkpt><trkpt lat="45.6639662" lon="10.082876"><ele>585.0</ele><time>2026-04-26T15:54:34.102Z</time></trkpt><trkpt lat="45.6639818" lon="10.0826623"><ele>583.0</ele><time>2026-04-26T15:54:35.102Z</time></trkpt><trkpt lat="45.6639555" lon="10.082461"><ele>581.6666666666667</ele><time>2026-04-26T15:54:36.102Z</time></trkpt><trkpt lat="45.6639154" lon="10.0822454"><ele>580.3333333333334</ele><time>2026-04-26T15:54:37.102Z</time></trkpt><trkpt lat="45.66386" lon="10.0820309"><ele>579.0</ele><time>2026-04-26T15:54:38.102Z</time></trkpt><trkpt lat="45.6637894" lon="10.0818167"><ele>576.0</ele><time>2026-04-26T15:54:39.102Z</time></trkpt><trkpt lat="45.6637146" lon="10.0815968"><ele>573.0</ele><time>2026-04-26T15:54:40.102Z</time></trkpt><trkpt lat="45.6636448" lon="10.0813806"><ele>570.0</ele><time>2026-04-26T15:54:41.101Z</time></trkpt><trkpt lat="45.6635795" lon="10.0811671"><ele>568.75</ele><time>2026-04-26T15:54:42.102Z</time></trkpt><trkpt lat="45.6635248" lon="10.0809566"><ele>567.5</ele><time>2026-04-26T15:54:43.102Z</time></trkpt><trkpt lat="45.6634728" lon="10.0807726"><ele>566.25</ele><time>2026-04-26T15:54:44.102Z</time></trkpt><trkpt lat="45.6634207" lon="10.0806009"><ele>565.0</ele><time>2026-04-26T15:54:45.102Z</time></trkpt><trkpt lat="45.6633732" lon="10.0804447"><ele>563.6</ele><time>2026-04-26T15:54:46.102Z</time></trkpt><trkpt lat="45.6633233" lon="10.0803059"><ele>562.2</ele><time>2026-04-26T15:54:47.102Z</time></trkpt><trkpt lat="45.663281" lon="10.0801666"><ele>560.8</ele><time>2026-04-26T15:54:48.102Z</time></trkpt><trkpt lat="45.6632466" lon="10.0800361"><ele>559.4</ele><time>2026-04-26T15:54:49.102Z</time></trkpt><trkpt lat="45.6632136" lon="10.0798956"><ele>558.0</ele><time>2026-04-26T15:54:50.102Z</time></trkpt><trkpt lat="45.6631819" lon="10.0797478"><ele>556.4</ele><time>2026-04-26T15:54:51.101Z</time></trkpt><trkpt lat="45.6631602" lon="10.0795921"><ele>554.8</ele><time>2026-04-26T15:54:52.102Z</time></trkpt><trkpt lat="45.6631325" lon="10.0794408"><ele>553.2</ele><time>2026-04-26T15:54:53.102Z</time></trkpt><trkpt lat="45.6630965" lon="10.0792897"><ele>551.6</ele><time>2026-04-26T15:54:54.101Z</time></trkpt><trkpt lat="45.6630571" lon="10.0791483"><ele>550.0</ele><time>2026-04-26T15:54:55.102Z</time></trkpt><trkpt lat="45.6629913" lon="10.0790493"><ele>548.25</ele><time>2026-04-26T15:54:56.101Z</time></trkpt><trkpt lat="45.6629056" lon="10.0789711"><ele>546.5</ele><time>2026-04-26T15:54:57.102Z</time></trkpt><trkpt lat="45.6628022" lon="10.078903"><ele>544.75</ele><time>2026-04-26T15:54:58.102Z</time></trkpt><trkpt lat="45.6626741" lon="10.0788379"><ele>543.0</ele><time>2026-04-26T15:54:59.101Z</time></trkpt><trkpt lat="45.6625317" lon="10.0787891"><ele>542.5</ele><time>2026-04-26T15:55:00.101Z</time></trkpt><trkpt lat="45.6624008" lon="10.0787443"><ele>542.0</ele><time>2026-04-26T15:55:01.102Z</time></trkpt><trkpt lat="45.6622661" lon="10.0786868"><ele>541.5</ele><time>2026-04-26T15:55:02.102Z</time></trkpt><trkpt lat="45.6621349" lon="10.0786365"><ele>541.0</ele><time>2026-04-26T15:55:03.101Z</time></trkpt><trkpt lat="45.6620045" lon="10.0785759"><ele>540.0</ele><time>2026-04-26T15:55:04.102Z</time></trkpt><trkpt lat="45.6618786" lon="10.078513"><ele>539.0</ele><time>2026-04-26T15:55:05.102Z</time></trkpt><trkpt lat="45.6617513" lon="10.078466"><ele>538.0</ele><time>2026-04-26T15:55:06.102Z</time></trkpt><trkpt lat="45.6616213" lon="10.0784291"><ele>537.0</ele><time>2026-04-26T15:55:07.102Z</time></trkpt><trkpt lat="45.6614763" lon="10.0784038"><ele>537.0</ele><time>2026-04-26T15:55:08.102Z</time></trkpt><trkpt lat="45.6613302" lon="10.0783972"><ele>537.0</ele><time>2026-04-26T15:55:09.102Z</time></trkpt><trkpt lat="45.661183" lon="10.0784071"><ele>537.0</ele><time>2026-04-26T15:55:10.102Z</time></trkpt><trkpt lat="45.6610376" lon="10.0784313"><ele>537.0</ele><time>2026-04-26T15:55:11.102Z</time></trkpt><trkpt lat="45.6608946" lon="10.078462"><ele>536.75</ele><time>2026-04-26T15:55:12.102Z</time></trkpt><trkpt lat="45.6607559" lon="10.0785113"><ele>536.5</ele><time>2026-04-26T15:55:13.102Z</time></trkpt><trkpt lat="45.6606152" lon="10.0785808"><ele>536.25</ele><time>2026-04-26T15:55:14.102Z</time></trkpt><trkpt lat="45.6604825" lon="10.078613"><ele>536.0</ele><time>2026-04-26T15:55:15.102Z</time></trkpt><trkpt lat="45.6603462" lon="10.0786174"><ele>535.5</ele><time>2026-04-26T15:55:16.102Z</time></trkpt><trkpt lat="45.6602289" lon="10.0786008"><ele>535.0</ele><time>2026-04-26T15:55:17.102Z</time></trkpt><trkpt lat="45.6601065" lon="10.078612"><ele>534.5</ele><time>2026-04-26T15:55:18.102Z</time></trkpt><trkpt lat="45.6599941" lon="10.0786458"><ele>534.0</ele><time>2026-04-26T15:55:19.102Z</time></trkpt><trkpt lat="45.6598792" lon="10.0786837"><ele>534.0</ele><time>2026-04-26T15:55:20.101Z</time></trkpt><trkpt lat="45.6597614" lon="10.0787223"><ele>534.0</ele><time>2026-04-26T15:55:21.101Z</time></trkpt><trkpt lat="45.6596482" lon="10.0787654"><ele>534.0</ele><time>2026-04-26T15:55:22.102Z</time></trkpt><trkpt lat="45.6595341" lon="10.0788069"><ele>534.0</ele><time>2026-04-26T15:55:23.102Z</time></trkpt><trkpt lat="45.6594205" lon="10.078848"><ele>532.4</ele><time>2026-04-26T15:55:24.102Z</time></trkpt><trkpt lat="45.6593063" lon="10.0788877"><ele>530.8</ele><time>2026-04-26T15:55:25.102Z</time></trkpt><trkpt lat="45.6591938" lon="10.0789208"><ele>529.2</ele><time>2026-04-26T15:55:26.102Z</time></trkpt><trkpt lat="45.6590879" lon="10.0789322"><ele>527.6</ele><time>2026-04-26T15:55:27.102Z</time></trkpt><trkpt lat="45.6589837" lon="10.0789111"><ele>526.0</ele><time>2026-04-26T15:55:28.102Z</time></trkpt><trkpt lat="45.6588803" lon="10.0788565"><ele>526.0</ele><time>2026-04-26T15:55:29.101Z</time></trkpt><trkpt lat="45.6587831" lon="10.0787674"><ele>526.0</ele><time>2026-04-26T15:55:30.101Z</time></trkpt><trkpt lat="45.6586817" lon="10.0786636"><ele>526.0</ele><time>2026-04-26T15:55:31.102Z</time></trkpt><trkpt lat="45.6585774" lon="10.0785599"><ele>526.0</ele><time>2026-04-26T15:55:32.102Z</time></trkpt><trkpt lat="45.6584697" lon="10.0784514"><ele>523.5</ele><time>2026-04-26T15:55:33.102Z</time></trkpt><trkpt lat="45.658363" lon="10.0783377"><ele>521.0</ele><time>2026-04-26T15:55:34.102Z</time></trkpt><trkpt lat="45.6582494" lon="10.0782171"><ele>518.5</ele><time>2026-04-26T15:55:35.102Z</time></trkpt><trkpt lat="45.6581415" lon="10.0781019"><ele>516.0</ele><time>2026-04-26T15:55:36.102Z</time></trkpt><trkpt lat="45.6580369" lon="10.0779985"><ele>515.8</ele><time>2026-04-26T15:55:37.102Z</time></trkpt><trkpt lat="45.6579454" lon="10.077902"><ele>515.6</ele><time>2026-04-26T15:55:38.102Z</time></trkpt><trkpt lat="45.6578498" lon="10.0778123"><ele>515.4</ele><time>2026-04-26T15:55:39.102Z</time></trkpt><trkpt lat="45.6577635" lon="10.0777265"><ele>515.2</ele><time>2026-04-26T15:55:40.102Z</time></trkpt><trkpt lat="45.6576842" lon="10.0776285"><ele>515.0</ele><time>2026-04-26T15:55:41.102Z</time></trkpt><trkpt lat="45.6576193" lon="10.0775076"><ele>512.4</ele><time>2026-04-26T15:55:42.101Z</time></trkpt><trkpt lat="45.6575629" lon="10.0773821"><ele>509.8</ele><time>2026-04-26T15:55:43.102Z</time></trkpt><trkpt lat="45.6574932" lon="10.077265"><ele>507.20000000000005</ele><time>2026-04-26T15:55:44.101Z</time></trkpt><trkpt lat="45.6574053" lon="10.0771647"><ele>504.6</ele><time>2026-04-26T15:55:45.102Z</time></trkpt><trkpt lat="45.6573153" lon="10.0770761"><ele>502.0</ele><time>2026-04-26T15:55:46.102Z</time></trkpt><trkpt lat="45.6572232" lon="10.0769847"><ele>502.0</ele><time>2026-04-26T15:55:47.102Z</time></trkpt><trkpt lat="45.6571307" lon="10.0768789"><ele>502.0</ele><time>2026-04-26T15:55:48.102Z</time></trkpt><trkpt lat="45.6570412" lon="10.0767471"><ele>502.0</ele><time>2026-04-26T15:55:49.102Z</time></trkpt><trkpt lat="45.6569541" lon="10.0765771"><ele>502.0</ele><time>2026-04-26T15:55:50.102Z</time></trkpt><trkpt lat="45.6568615" lon="10.0763853"><ele>500.0</ele><time>2026-04-26T15:55:51.102Z</time></trkpt><trkpt lat="45.6567627" lon="10.0761577"><ele>498.0</ele><time>2026-04-26T15:55:52.102Z</time></trkpt><trkpt lat="45.6566506" lon="10.0759004"><ele>496.0</ele><time>2026-04-26T15:55:53.102Z</time></trkpt><trkpt lat="45.6565316" lon="10.0756148"><ele>495.0</ele><time>2026-04-26T15:55:54.102Z</time></trkpt><trkpt lat="45.6564325" lon="10.0753325"><ele>494.0</ele><time>2026-04-26T15:55:55.102Z</time></trkpt><trkpt lat="45.6563391" lon="10.0750634"><ele>493.0</ele><time>2026-04-26T15:55:56.102Z</time></trkpt><trkpt lat="45.6562483" lon="10.0748311"><ele>491.6666666666667</ele><time>2026-04-26T15:55:57.102Z</time></trkpt><trkpt lat="45.656142" lon="10.0746314"><ele>490.33333333333337</ele><time>2026-04-26T15:55:58.102Z</time></trkpt><trkpt lat="45.6560156" lon="10.0744607"><ele>489.0</ele><time>2026-04-26T15:55:59.102Z</time></trkpt><trkpt lat="45.6558835" lon="10.0742822"><ele>493.33333333333337</ele><time>2026-04-26T15:56:00.102Z</time></trkpt><trkpt lat="45.6557581" lon="10.0740898"><ele>497.6666666666667</ele><time>2026-04-26T15:56:01.102Z</time></trkpt><trkpt lat="45.6556181" lon="10.0739112"><ele>502.0</ele><time>2026-04-26T15:56:02.102Z</time></trkpt><trkpt lat="45.6554642" lon="10.0737589"><ele>502.0</ele><time>2026-04-26T15:56:03.102Z</time></trkpt><trkpt lat="45.6553049" lon="10.0736162"><ele>502.0</ele><time>2026-04-26T15:56:04.101Z</time></trkpt><trkpt lat="45.6551512" lon="10.0734881"><ele>502.0</ele><time>2026-04-26T15:56:05.102Z</time></trkpt><trkpt lat="45.6549947" lon="10.0733817"><ele>496.33333333333337</ele><time>2026-04-26T15:56:06.102Z</time></trkpt><trkpt lat="45.6548431" lon="10.0732868"><ele>490.66666666666663</ele><time>2026-04-26T15:56:07.102Z</time></trkpt><trkpt lat="45.6547008" lon="10.0731745"><ele>485.0</ele><time>2026-04-26T15:56:08.102Z</time></trkpt><trkpt lat="45.6545691" lon="10.0730372"><ele>484.6</ele><time>2026-04-26T15:56:09.102Z</time></trkpt><trkpt lat="45.6544614" lon="10.0729005"><ele>484.2</ele><time>2026-04-26T15:56:10.101Z</time></trkpt><trkpt lat="45.6543788" lon="10.0727756"><ele>483.79999999999995</ele><time>2026-04-26T15:56:11.102Z</time></trkpt><trkpt lat="45.6543259" lon="10.0726621"><ele>483.4</ele><time>2026-04-26T15:56:12.101Z</time></trkpt><trkpt lat="45.6543049" lon="10.072556"><ele>483.0</ele><time>2026-04-26T15:56:13.102Z</time></trkpt><trkpt lat="45.654321" lon="10.0724528"><ele>478.59999999999997</ele><time>2026-04-26T15:56:14.102Z</time></trkpt><trkpt lat="45.6543763" lon="10.0723861"><ele>474.19999999999993</ele><time>2026-04-26T15:56:15.102Z</time></trkpt><trkpt lat="45.654462" lon="10.0723549"><ele>469.8</ele><time>2026-04-26T15:56:16.101Z</time></trkpt><trkpt lat="45.6545713" lon="10.0723418"><ele>465.4</ele><time>2026-04-26T15:56:17.101Z</time></trkpt><trkpt lat="45.6547011" lon="10.0723317"><ele>461.0</ele><time>2026-04-26T15:56:18.101Z</time></trkpt><trkpt lat="45.6548425" lon="10.0723267"><ele>460.5</ele><time>2026-04-26T15:56:19.102Z</time></trkpt><trkpt lat="45.654982" lon="10.0723213"><ele>460.0</ele><time>2026-04-26T15:56:20.102Z</time></trkpt><trkpt lat="45.655116" lon="10.0723283"><ele>459.5</ele><time>2026-04-26T15:56:21.102Z</time></trkpt><trkpt lat="45.6552366" lon="10.0723367"><ele>459.0</ele><time>2026-04-26T15:56:22.102Z</time></trkpt><trkpt lat="45.6553406" lon="10.0723343"><ele>462.6</ele><time>2026-04-26T15:56:23.102Z</time></trkpt><trkpt lat="45.6554344" lon="10.0722793"><ele>466.2</ele><time>2026-04-26T15:56:24.102Z</time></trkpt><trkpt lat="45.6555123" lon="10.0721984"><ele>469.80000000000007</ele><time>2026-04-26T15:56:25.102Z</time></trkpt><trkpt lat="45.6555685" lon="10.0720516"><ele>473.40000000000003</ele><time>2026-04-26T15:56:26.102Z</time></trkpt><trkpt lat="45.6556147" lon="10.0718818"><ele>477.0</ele><time>2026-04-26T15:56:27.102Z</time></trkpt><trkpt lat="45.6556705" lon="10.0717149"><ele>473.0</ele><time>2026-04-26T15:56:28.102Z</time></trkpt><trkpt lat="45.655709" lon="10.071554"><ele>469.00000000000006</ele><time>2026-04-26T15:56:29.102Z</time></trkpt><trkpt lat="45.6557183" lon="10.0714038"><ele>465.00000000000006</ele><time>2026-04-26T15:56:30.101Z</time></trkpt><trkpt lat="45.6557232" lon="10.0712756"><ele>461.0</ele><time>2026-04-26T15:56:31.102Z</time></trkpt><trkpt lat="45.655741" lon="10.0711759"><ele>457.0</ele><time>2026-04-26T15:56:32.102Z</time></trkpt><trkpt lat="45.6558313" lon="10.0710919"><ele>457.0</ele><time>2026-04-26T15:56:34.101Z</time></trkpt><trkpt lat="45.6559056" lon="10.0711053"><ele>457.00000000000006</ele><time>2026-04-26T15:56:35.102Z</time></trkpt><trkpt lat="45.6559829" lon="10.0711801"><ele>457.00000000000006</ele><time>2026-04-26T15:56:36.101Z</time></trkpt><trkpt lat="45.6560666" lon="10.0712723"><ele>457.0</ele><time>2026-04-26T15:56:37.102Z</time></trkpt><trkpt lat="45.6561706" lon="10.0713406"><ele>457.0</ele><time>2026-04-26T15:56:38.102Z</time></trkpt><trkpt lat="45.6562841" lon="10.0713977"><ele>455.5</ele><time>2026-04-26T15:56:39.102Z</time></trkpt><trkpt lat="45.6564" lon="10.0714624"><ele>454.0</ele><time>2026-04-26T15:56:40.102Z</time></trkpt><trkpt lat="45.6565121" lon="10.0715331"><ele>452.5</ele><time>2026-04-26T15:56:41.102Z</time></trkpt><trkpt lat="45.6566147" lon="10.0716144"><ele>451.0</ele><time>2026-04-26T15:56:42.102Z</time></trkpt><trkpt lat="45.6567216" lon="10.0716837"><ele>453.8</ele><time>2026-04-26T15:56:43.102Z</time></trkpt><trkpt lat="45.6568308" lon="10.0717341"><ele>456.6</ele><time>2026-04-26T15:56:44.101Z</time></trkpt><trkpt lat="45.6569435" lon="10.0717713"><ele>459.4</ele><time>2026-04-26T15:56:45.102Z</time></trkpt><trkpt lat="45.6570512" lon="10.0718061"><ele>462.2</ele><time>2026-04-26T15:56:46.102Z</time></trkpt><trkpt lat="45.6571553" lon="10.0718388"><ele>465.0</ele><time>2026-04-26T15:56:47.102Z</time></trkpt><trkpt lat="45.6572565" lon="10.0718637"><ele>465.0</ele><time>2026-04-26T15:56:48.102Z</time></trkpt><trkpt lat="45.6573525" lon="10.0718831"><ele>465.0</ele><time>2026-04-26T15:56:49.102Z</time></trkpt><trkpt lat="45.6574426" lon="10.0718891"><ele>465.0</ele><time>2026-04-26T15:56:50.102Z</time></trkpt><trkpt lat="45.6575289" lon="10.0718916"><ele>465.0</ele><time>2026-04-26T15:56:51.102Z</time></trkpt><trkpt lat="45.6576159" lon="10.0719037"><ele>465.0</ele><time>2026-04-26T15:56:52.102Z</time></trkpt><trkpt lat="45.6577005" lon="10.0719268"><ele>465.0</ele><time>2026-04-26T15:56:53.102Z</time></trkpt><trkpt lat="45.6577867" lon="10.0719553"><ele>462.0</ele><time>2026-04-26T15:56:54.102Z</time></trkpt><trkpt lat="45.657865" lon="10.0719823"><ele>459.0</ele><time>2026-04-26T15:56:55.102Z</time></trkpt><trkpt lat="45.6579431" lon="10.0720101"><ele>456.0</ele><time>2026-04-26T15:56:56.102Z</time></trkpt><trkpt lat="45.6580223" lon="10.0720362"><ele>453.0</ele><time>2026-04-26T15:56:57.102Z</time></trkpt><trkpt lat="45.6581042" lon="10.0720729"><ele>450.0</ele><time>2026-04-26T15:56:58.101Z</time></trkpt><trkpt lat="45.6581816" lon="10.0721362"><ele>447.0</ele><time>2026-04-26T15:56:59.102Z</time></trkpt><trkpt lat="45.6582523" lon="10.0722105"><ele>447.0</ele><time>2026-04-26T15:57:00.102Z</time></trkpt><trkpt lat="45.6583074" lon="10.0722906"><ele>447.0</ele><time>2026-04-26T15:57:01.101Z</time></trkpt><trkpt lat="45.6583744" lon="10.0723523"><ele>447.0</ele><time>2026-04-26T15:57:02.101Z</time></trkpt><trkpt lat="45.6584456" lon="10.0724107"><ele>447.0</ele><time>2026-04-26T15:57:03.102Z</time></trkpt><trkpt lat="45.6585169" lon="10.0724651"><ele>447.0</ele><time>2026-04-26T15:57:04.102Z</time></trkpt><trkpt lat="45.6585792" lon="10.0725337"><ele>447.0</ele><time>2026-04-26T15:57:05.102Z</time></trkpt><trkpt lat="45.6586513" lon="10.0726199"><ele>447.20000000000005</ele><time>2026-04-26T15:57:06.102Z</time></trkpt><trkpt lat="45.6587486" lon="10.0726833"><ele>447.40000000000003</ele><time>2026-04-26T15:57:07.102Z</time></trkpt><trkpt lat="45.6588564" lon="10.0727221"><ele>447.59999999999997</ele><time>2026-04-26T15:57:08.102Z</time></trkpt><trkpt lat="45.6589627" lon="10.0727697"><ele>447.79999999999995</ele><time>2026-04-26T15:57:09.102Z</time></trkpt><trkpt lat="45.6590438" lon="10.0728171"><ele>448.0</ele><time>2026-04-26T15:57:10.102Z</time></trkpt><trkpt lat="45.6591269" lon="10.0728735"><ele>448.00000000000006</ele><time>2026-04-26T15:57:11.102Z</time></trkpt><trkpt lat="45.6592032" lon="10.0729052"><ele>448.0</ele><time>2026-04-26T15:57:12.102Z</time></trkpt><trkpt lat="45.6592862" lon="10.0729192"><ele>448.0</ele><time>2026-04-26T15:57:13.102Z</time></trkpt><trkpt lat="45.6593764" lon="10.0729391"><ele>448.0</ele><time>2026-04-26T15:57:14.102Z</time></trkpt><trkpt lat="45.6594702" lon="10.0729862"><ele>448.00000000000006</ele><time>2026-04-26T15:57:15.102Z</time></trkpt><trkpt lat="45.6595575" lon="10.0730403"><ele>448.0</ele><time>2026-04-26T15:57:16.102Z</time></trkpt><trkpt lat="45.6596471" lon="10.0731096"><ele>444.4</ele><time>2026-04-26T15:57:17.101Z</time></trkpt><trkpt lat="45.6597375" lon="10.0731577"><ele>440.79999999999995</ele><time>2026-04-26T15:57:18.102Z</time></trkpt><trkpt lat="45.659829" lon="10.0732064"><ele>437.2</ele><time>2026-04-26T15:57:19.102Z</time></trkpt><trkpt lat="45.6599189" lon="10.0732401"><ele>433.6</ele><time>2026-04-26T15:57:20.102Z</time></trkpt><trkpt lat="45.6600038" lon="10.0732609"><ele>430.0</ele><time>2026-04-26T15:57:21.102Z</time></trkpt><trkpt lat="45.6600878" lon="10.0732524"><ele>430.0</ele><time>2026-04-26T15:57:22.102Z</time></trkpt><trkpt lat="45.6601711" lon="10.0732098"><ele>430.0</ele><time>2026-04-26T15:57:23.102Z</time></trkpt><trkpt lat="45.6602505" lon="10.0731521"><ele>430.0</ele><time>2026-04-26T15:57:24.102Z</time></trkpt><trkpt lat="45.6603298" lon="10.0730933"><ele>430.0</ele><time>2026-04-26T15:57:25.102Z</time></trkpt><trkpt lat="45.660408" lon="10.0730181"><ele>430.0</ele><time>2026-04-26T15:57:26.102Z</time></trkpt><trkpt lat="45.6604888" lon="10.0729391"><ele>429.2</ele><time>2026-04-26T15:57:27.102Z</time></trkpt><trkpt lat="45.6605717" lon="10.0728693"><ele>428.4</ele><time>2026-04-26T15:57:28.102Z</time></trkpt><trkpt lat="45.6606631" lon="10.0728138"><ele>427.6</ele><time>2026-04-26T15:57:29.102Z</time></trkpt><trkpt lat="45.6607574" lon="10.072788"><ele>426.8</ele><time>2026-04-26T15:57:30.102Z</time></trkpt><trkpt lat="45.660859" lon="10.0728055"><ele>426.0</ele><time>2026-04-26T15:57:31.102Z</time></trkpt><trkpt lat="45.6609736" lon="10.0728395"><ele>426.0</ele><time>2026-04-26T15:57:32.101Z</time></trkpt><trkpt lat="45.6610961" lon="10.0728615"><ele>426.0</ele><time>2026-04-26T15:57:33.102Z</time></trkpt><trkpt lat="45.6612202" lon="10.0728713"><ele>426.0</ele><time>2026-04-26T15:57:34.101Z</time></trkpt><trkpt lat="45.6613386" lon="10.0729065"><ele>426.0</ele><time>2026-04-26T15:57:35.101Z</time></trkpt><trkpt lat="45.6614427" lon="10.0729662"><ele>424.3333333333333</ele><time>2026-04-26T15:57:36.102Z</time></trkpt><trkpt lat="45.6615267" lon="10.0730232"><ele>422.66666666666663</ele><time>2026-04-26T15:57:37.102Z</time></trkpt><trkpt lat="45.6615967" lon="10.0730953"><ele>421.0</ele><time>2026-04-26T15:57:38.102Z</time></trkpt><trkpt lat="45.6616445" lon="10.0731976"><ele>419.3333333333333</ele><time>2026-04-26T15:57:39.102Z</time></trkpt><trkpt lat="45.6616703" lon="10.0733154"><ele>417.66666666666663</ele><time>2026-04-26T15:57:40.102Z</time></trkpt><trkpt lat="45.6616824" lon="10.0734335"><ele>416.0</ele><time>2026-04-26T15:57:41.102Z</time></trkpt><trkpt lat="45.6616917" lon="10.0735334"><ele>417.66666666666663</ele><time>2026-04-26T15:57:42.102Z</time></trkpt><trkpt lat="45.6616964" lon="10.0736256"><ele>419.3333333333333</ele><time>2026-04-26T15:57:43.101Z</time></trkpt><trkpt lat="45.6617466" lon="10.0737847"><ele>421.0</ele><time>2026-04-26T15:57:45.102Z</time></trkpt><trkpt lat="45.6618033" lon="10.0738326"><ele>422.66666666666663</ele><time>2026-04-26T15:57:46.102Z</time></trkpt><trkpt lat="45.6619199" lon="10.0738083"><ele>424.3333333333333</ele><time>2026-04-26T15:57:48.101Z</time></trkpt><trkpt lat="45.6619647" lon="10.0737393"><ele>426.0</ele><time>2026-04-26T15:57:49.102Z</time></trkpt><trkpt lat="45.6619903" lon="10.0736543"><ele>426.0</ele><time>2026-04-26T15:57:50.102Z</time></trkpt><trkpt lat="45.6619839" lon="10.0735466"><ele>426.0</ele><time>2026-04-26T15:57:51.102Z</time></trkpt><trkpt lat="45.6619429" lon="10.0734416"><ele>426.0</ele><time>2026-04-26T15:57:52.102Z</time></trkpt><trkpt lat="45.661894" lon="10.0733413"><ele>426.0</ele><time>2026-04-26T15:57:53.102Z</time></trkpt><trkpt lat="45.6618491" lon="10.0732261"><ele>426.0</ele><time>2026-04-26T15:57:54.102Z</time></trkpt><trkpt lat="45.6618111" lon="10.0731023"><ele>426.0</ele><time>2026-04-26T15:57:55.101Z</time></trkpt><trkpt lat="45.6617751" lon="10.0729758"><ele>424.0</ele><time>2026-04-26T15:57:56.102Z</time></trkpt><trkpt lat="45.6617315" lon="10.0728647"><ele>422.0</ele><time>2026-04-26T15:57:57.102Z</time></trkpt><trkpt lat="45.6616635" lon="10.0727657"><ele>420.0</ele><time>2026-04-26T15:57:58.102Z</time></trkpt><trkpt lat="45.6615918" lon="10.0726838"><ele>418.0</ele><time>2026-04-26T15:57:59.102Z</time></trkpt><trkpt lat="45.6615089" lon="10.0725894"><ele>416.0</ele><time>2026-04-26T15:58:00.102Z</time></trkpt><trkpt lat="45.6614222" lon="10.0724981"><ele>412.75</ele><time>2026-04-26T15:58:01.102Z</time></trkpt><trkpt lat="45.6613266" lon="10.0724142"><ele>409.5</ele><time>2026-04-26T15:58:02.102Z</time></trkpt><trkpt lat="45.6612216" lon="10.0723339"><ele>406.25</ele><time>2026-04-26T15:58:03.101Z</time></trkpt><trkpt lat="45.6611059" lon="10.0722781"><ele>403.0</ele><time>2026-04-26T15:58:04.102Z</time></trkpt><trkpt lat="45.6609853" lon="10.0722281"><ele>403.0</ele><time>2026-04-26T15:58:05.102Z</time></trkpt><trkpt lat="45.6608657" lon="10.0721943"><ele>403.0</ele><time>2026-04-26T15:58:06.102Z</time></trkpt><trkpt lat="45.6607462" lon="10.0721466"><ele>403.0</ele><time>2026-04-26T15:58:07.102Z</time></trkpt><trkpt lat="45.6606287" lon="10.0720813"><ele>403.0</ele><time>2026-04-26T15:58:08.102Z</time></trkpt><trkpt lat="45.6605157" lon="10.0720004"><ele>403.0</ele><time>2026-04-26T15:58:09.102Z</time></trkpt><trkpt lat="45.6604198" lon="10.0719184"><ele>403.0</ele><time>2026-04-26T15:58:10.102Z</time></trkpt><trkpt lat="45.6603317" lon="10.0718403"><ele>403.0</ele><time>2026-04-26T15:58:11.102Z</time></trkpt><trkpt lat="45.6602439" lon="10.0717564"><ele>403.0</ele><time>2026-04-26T15:58:12.102Z</time></trkpt><trkpt lat="45.6601618" lon="10.071654"><ele>403.0</ele><time>2026-04-26T15:58:13.102Z</time></trkpt><trkpt lat="45.6600945" lon="10.07153"><ele>401.79999999999995</ele><time>2026-04-26T15:58:14.101Z</time></trkpt><trkpt lat="45.660032" lon="10.0713998"><ele>400.6</ele><time>2026-04-26T15:58:15.102Z</time></trkpt><trkpt lat="45.6599791" lon="10.0712614"><ele>399.4</ele><time>2026-04-26T15:58:16.101Z</time></trkpt><trkpt lat="45.6599232" lon="10.0711291"><ele>398.20000000000005</ele><time>2026-04-26T15:58:17.102Z</time></trkpt><trkpt lat="45.6598725" lon="10.071003"><ele>397.0</ele><time>2026-04-26T15:58:18.102Z</time></trkpt><trkpt lat="45.6598285" lon="10.0708748"><ele>394.20000000000005</ele><time>2026-04-26T15:58:19.102Z</time></trkpt><trkpt lat="45.6597958" lon="10.0707428"><ele>391.4</ele><time>2026-04-26T15:58:20.102Z</time></trkpt><trkpt lat="45.6597784" lon="10.0706172"><ele>388.6</ele><time>2026-04-26T15:58:21.102Z</time></trkpt><trkpt lat="45.6597604" lon="10.0704878"><ele>385.79999999999995</ele><time>2026-04-26T15:58:22.102Z</time></trkpt><trkpt lat="45.6597377" lon="10.070357"><ele>383.0</ele><time>2026-04-26T15:58:23.102Z</time></trkpt><trkpt lat="45.6596956" lon="10.0702272"><ele>383.0</ele><time>2026-04-26T15:58:24.102Z</time></trkpt><trkpt lat="45.6596478" lon="10.0700983"><ele>383.0</ele><time>2026-04-26T15:58:25.102Z</time></trkpt><trkpt lat="45.6595983" lon="10.0699681"><ele>383.0</ele><time>2026-04-26T15:58:26.102Z</time></trkpt><trkpt lat="45.6595549" lon="10.0698377"><ele>383.0</ele><time>2026-04-26T15:58:27.102Z</time></trkpt><trkpt lat="45.6595081" lon="10.069715"><ele>383.0</ele><time>2026-04-26T15:58:28.102Z</time></trkpt><trkpt lat="45.6594593" lon="10.0696001"><ele>383.5</ele><time>2026-04-26T15:58:29.102Z</time></trkpt><trkpt lat="45.6594001" lon="10.0694948"><ele>384.0</ele><time>2026-04-26T15:58:30.102Z</time></trkpt><trkpt lat="45.6593442" lon="10.0694013"><ele>384.5</ele><time>2026-04-26T15:58:31.102Z</time></trkpt><trkpt lat="45.6592897" lon="10.0693075"><ele>385.0</ele><time>2026-04-26T15:58:32.101Z</time></trkpt><trkpt lat="45.6592345" lon="10.0692111"><ele>385.49999999999994</ele><time>2026-04-26T15:58:33.101Z</time></trkpt><trkpt lat="45.6591798" lon="10.0691178"><ele>386.0</ele><time>2026-04-26T15:58:34.102Z</time></trkpt><trkpt lat="45.6591289" lon="10.0690246"><ele>384.42857142857144</ele><time>2026-04-26T15:58:35.102Z</time></trkpt><trkpt lat="45.6590878" lon="10.0689292"><ele>382.8571428571429</ele><time>2026-04-26T15:58:36.101Z</time></trkpt><trkpt lat="45.6590703" lon="10.0688348"><ele>381.28571428571433</ele><time>2026-04-26T15:58:37.102Z</time></trkpt><trkpt lat="45.6590852" lon="10.0687393"><ele>379.7142857142857</ele><time>2026-04-26T15:58:38.101Z</time></trkpt><trkpt lat="45.6591295" lon="10.0686722"><ele>378.1428571428571</ele><time>2026-04-26T15:58:39.102Z</time></trkpt><trkpt lat="45.6591938" lon="10.0686564"><ele>376.5714285714286</ele><time>2026-04-26T15:58:40.101Z</time></trkpt><trkpt lat="45.6592566" lon="10.0686926"><ele>375.0</ele><time>2026-04-26T15:58:41.102Z</time></trkpt><trkpt lat="45.6592935" lon="10.0687706"><ele>375.0</ele><time>2026-04-26T15:58:42.102Z</time></trkpt><trkpt lat="45.6593053" lon="10.0688807"><ele>375.0</ele><time>2026-04-26T15:58:43.102Z</time></trkpt><trkpt lat="45.6593103" lon="10.0689924"><ele>375.0</ele><time>2026-04-26T15:58:44.102Z</time></trkpt><trkpt lat="45.6593307" lon="10.0691043"><ele>375.0</ele><time>2026-04-26T15:58:45.101Z</time></trkpt><trkpt lat="45.6593664" lon="10.0692118"><ele>375.0</ele><time>2026-04-26T15:58:46.102Z</time></trkpt><trkpt lat="45.659422" lon="10.0692974"><ele>375.0</ele><time>2026-04-26T15:58:47.101Z</time></trkpt><trkpt lat="45.6594922" lon="10.0693714"><ele>374.4</ele><time>2026-04-26T15:58:48.102Z</time></trkpt><trkpt lat="45.6595718" lon="10.0694408"><ele>373.8</ele><time>2026-04-26T15:58:49.102Z</time></trkpt><trkpt lat="45.6596571" lon="10.0695131"><ele>373.20000000000005</ele><time>2026-04-26T15:58:50.102Z</time></trkpt><trkpt lat="45.6597512" lon="10.069587"><ele>372.6</ele><time>2026-04-26T15:58:51.102Z</time></trkpt><trkpt lat="45.6598516" lon="10.0696697"><ele>372.0</ele><time>2026-04-26T15:58:52.101Z</time></trkpt><trkpt lat="45.6599529" lon="10.0697496"><ele>372.0</ele><time>2026-04-26T15:58:53.102Z</time></trkpt><trkpt lat="45.6600526" lon="10.0698258"><ele>372.0</ele><time>2026-04-26T15:58:54.102Z</time></trkpt><trkpt lat="45.6601503" lon="10.0699032"><ele>372.0</ele><time>2026-04-26T15:58:55.102Z</time></trkpt><trkpt lat="45.6602448" lon="10.0699754"><ele>372.0</ele><time>2026-04-26T15:58:56.102Z</time></trkpt><trkpt lat="45.660329" lon="10.070036"><ele>372.0</ele><time>2026-04-26T15:58:57.102Z</time></trkpt><trkpt lat="45.6603944" lon="10.0701002"><ele>371.0</ele><time>2026-04-26T15:58:58.102Z</time></trkpt><trkpt lat="45.6604436" lon="10.0701868"><ele>370.0</ele><time>2026-04-26T15:58:59.102Z</time></trkpt><trkpt lat="45.6604768" lon="10.0702827"><ele>369.0</ele><time>2026-04-26T15:59:00.102Z</time></trkpt><trkpt lat="45.6604986" lon="10.0703773"><ele>368.0</ele><time>2026-04-26T15:59:01.101Z</time></trkpt><trkpt lat="45.6605386" lon="10.0704557"><ele>367.0</ele><time>2026-04-26T15:59:02.101Z</time></trkpt><trkpt lat="45.6605905" lon="10.0705193"><ele>366.0</ele><time>2026-04-26T15:59:03.102Z</time></trkpt><trkpt lat="45.6607079" lon="10.0705508"><ele>366.0</ele><time>2026-04-26T15:59:05.102Z</time></trkpt><trkpt lat="45.660779" lon="10.0705126"><ele>366.0</ele><time>2026-04-26T15:59:06.102Z</time></trkpt><trkpt lat="45.6608454" lon="10.070443"><ele>366.0</ele><time>2026-04-26T15:59:07.101Z</time></trkpt><trkpt lat="45.6609121" lon="10.0703508"><ele>366.0</ele><time>2026-04-26T15:59:08.102Z</time></trkpt><trkpt lat="45.660974" lon="10.0702514"><ele>366.0</ele><time>2026-04-26T15:59:09.102Z</time></trkpt><trkpt lat="45.661034" lon="10.0701529"><ele>366.0</ele><time>2026-04-26T15:59:10.101Z</time></trkpt><trkpt lat="45.6610943" lon="10.0700337"><ele>362.5</ele><time>2026-04-26T15:59:11.101Z</time></trkpt><trkpt lat="45.6611602" lon="10.0699094"><ele>359.0</ele><time>2026-04-26T15:59:12.102Z</time></trkpt><trkpt lat="45.6612295" lon="10.0697742"><ele>355.5</ele><time>2026-04-26T15:59:13.102Z</time></trkpt><trkpt lat="45.6612943" lon="10.0696396"><ele>352.0</ele><time>2026-04-26T15:59:14.102Z</time></trkpt><trkpt lat="45.6613585" lon="10.0695055"><ele>352.0</ele><time>2026-04-26T15:59:15.102Z</time></trkpt><trkpt lat="45.6614202" lon="10.069371"><ele>352.0</ele><time>2026-04-26T15:59:16.102Z</time></trkpt><trkpt lat="45.6614793" lon="10.0692518"><ele>352.0</ele><time>2026-04-26T15:59:17.102Z</time></trkpt><trkpt lat="45.6615348" lon="10.0691464"><ele>352.0</ele><time>2026-04-26T15:59:18.102Z</time></trkpt><trkpt lat="45.6615841" lon="10.0690518"><ele>352.0</ele><time>2026-04-26T15:59:19.101Z</time></trkpt><trkpt lat="45.6616307" lon="10.0689795"><ele>352.0</ele><time>2026-04-26T15:59:20.102Z</time></trkpt><trkpt lat="45.6617359" lon="10.0689168"><ele>352.0</ele><time>2026-04-26T15:59:22.102Z</time></trkpt><trkpt lat="45.661845" lon="10.0689795"><ele>352.0</ele><time>2026-04-26T15:59:24.102Z</time></trkpt><trkpt lat="45.6618756" lon="10.0690637"><ele>352.0</ele><time>2026-04-26T15:59:25.102Z</time></trkpt><trkpt lat="45.6619052" lon="10.0691636"><ele>352.0</ele><time>2026-04-26T15:59:26.102Z</time></trkpt><trkpt lat="45.6619555" lon="10.0692506"><ele>351.3333333333333</ele><time>2026-04-26T15:59:27.101Z</time></trkpt><trkpt lat="45.6620273" lon="10.0693004"><ele>350.66666666666663</ele><time>2026-04-26T15:59:28.102Z</time></trkpt><trkpt lat="45.6621036" lon="10.0693333"><ele>350.0</ele><time>2026-04-26T15:59:29.102Z</time></trkpt><trkpt lat="45.6621796" lon="10.0693704"><ele>349.3333333333333</ele><time>2026-04-26T15:59:30.102Z</time></trkpt><trkpt lat="45.6622504" lon="10.0694158"><ele>348.6666666666667</ele><time>2026-04-26T15:59:31.101Z</time></trkpt><trkpt lat="45.6623198" lon="10.0694589"><ele>348.0</ele><time>2026-04-26T15:59:32.102Z</time></trkpt><trkpt lat="45.6623911" lon="10.0694858"><ele>348.0</ele><time>2026-04-26T15:59:33.102Z</time></trkpt><trkpt lat="45.6624686" lon="10.0694932"><ele>348.0</ele><time>2026-04-26T15:59:34.102Z</time></trkpt><trkpt lat="45.6625459" lon="10.0695034"><ele>348.0</ele><time>2026-04-26T15:59:35.102Z</time></trkpt><trkpt lat="45.6626195" lon="10.0695155"><ele>348.0</ele><time>2026-04-26T15:59:36.102Z</time></trkpt><trkpt lat="45.6626902" lon="10.0695522"><ele>348.0</ele><time>2026-04-26T15:59:37.101Z</time></trkpt><trkpt lat="45.6627538" lon="10.0696236"><ele>348.0</ele><time>2026-04-26T15:59:38.102Z</time></trkpt><trkpt lat="45.6628184" lon="10.0697188"><ele>347.8333333333333</ele><time>2026-04-26T15:59:39.102Z</time></trkpt><trkpt lat="45.6628783" lon="10.0698198"><ele>347.6666666666667</ele><time>2026-04-26T15:59:40.102Z</time></trkpt><trkpt lat="45.6629325" lon="10.0699253"><ele>347.5</ele><time>2026-04-26T15:59:41.102Z</time></trkpt><trkpt lat="45.6629929" lon="10.0700186"><ele>347.33333333333337</ele><time>2026-04-26T15:59:42.101Z</time></trkpt><trkpt lat="45.6630656" lon="10.0700777"><ele>347.1666666666667</ele><time>2026-04-26T15:59:43.102Z</time></trkpt><trkpt lat="45.6631456" lon="10.0700906"><ele>347.0</ele><time>2026-04-26T15:59:44.102Z</time></trkpt><trkpt lat="45.6632194" lon="10.0700616"><ele>347.0</ele><time>2026-04-26T15:59:45.102Z</time></trkpt><trkpt lat="45.6632738" lon="10.0699798"><ele>347.0</ele><time>2026-04-26T15:59:46.102Z</time></trkpt><trkpt lat="45.6633091" lon="10.0698579"><ele>347.0</ele><time>2026-04-26T15:59:47.102Z</time></trkpt><trkpt lat="45.6633385" lon="10.0697173"><ele>347.0</ele><time>2026-04-26T15:59:48.102Z</time></trkpt><trkpt lat="45.6633816" lon="10.0695759"><ele>347.0</ele><time>2026-04-26T15:59:49.102Z</time></trkpt><trkpt lat="45.6634381" lon="10.0694438"><ele>347.0</ele><time>2026-04-26T15:59:50.102Z</time></trkpt><trkpt lat="45.6634998" lon="10.0693318"><ele>347.0</ele><time>2026-04-26T15:59:51.102Z</time></trkpt><trkpt lat="45.6635525" lon="10.0692265"><ele>347.0</ele><time>2026-04-26T15:59:52.101Z</time></trkpt><trkpt lat="45.6635957" lon="10.0691145"><ele>347.0</ele><time>2026-04-26T15:59:53.102Z</time></trkpt><trkpt lat="45.6636231" lon="10.0689996"><ele>347.0</ele><time>2026-04-26T15:59:54.101Z</time></trkpt><trkpt lat="45.6636208" lon="10.0688793"><ele>347.0</ele><time>2026-04-26T15:59:55.102Z</time></trkpt><trkpt lat="45.663585" lon="10.0687744"><ele>346.6666666666667</ele><time>2026-04-26T15:59:56.101Z</time></trkpt><trkpt lat="45.6635295" lon="10.0686972"><ele>346.33333333333337</ele><time>2026-04-26T15:59:57.102Z</time></trkpt><trkpt lat="45.6634586" lon="10.0686531"><ele>346.0</ele><time>2026-04-26T15:59:58.102Z</time></trkpt><trkpt lat="45.6633803" lon="10.0686547"><ele>345.6666666666667</ele><time>2026-04-26T15:59:59.102Z</time></trkpt><trkpt lat="45.6633089" lon="10.0686969"><ele>345.3333333333333</ele><time>2026-04-26T16:00:00.102Z</time></trkpt><trkpt lat="45.6632391" lon="10.0687691"><ele>345.0</ele><time>2026-04-26T16:00:01.102Z</time></trkpt><trkpt lat="45.6631753" lon="10.0688426"><ele>345.0</ele><time>2026-04-26T16:00:02.102Z</time></trkpt><trkpt lat="45.6631091" lon="10.0689122"><ele>345.0</ele><time>2026-04-26T16:00:03.102Z</time></trkpt><trkpt lat="45.6630384" lon="10.0689714"><ele>345.0</ele><time>2026-04-26T16:00:04.102Z</time></trkpt><trkpt lat="45.6629514" lon="10.069014"><ele>345.0</ele><time>2026-04-26T16:00:05.102Z</time></trkpt><trkpt lat="45.6628544" lon="10.0690159"><ele>345.0</ele><time>2026-04-26T16:00:06.102Z</time></trkpt><trkpt lat="45.6627559" lon="10.0689776"><ele>342.6</ele><time>2026-04-26T16:00:07.102Z</time></trkpt><trkpt lat="45.6626639" lon="10.0688986"><ele>340.2</ele><time>2026-04-26T16:00:08.102Z</time></trkpt><trkpt lat="45.6625849" lon="10.0687955"><ele>337.79999999999995</ele><time>2026-04-26T16:00:09.102Z</time></trkpt><trkpt lat="45.66251" lon="10.0686872"><ele>335.4</ele><time>2026-04-26T16:00:10.102Z</time></trkpt><trkpt lat="45.6624338" lon="10.0685777"><ele>333.0</ele><time>2026-04-26T16:00:11.102Z</time></trkpt><trkpt lat="45.6623546" lon="10.068473"><ele>333.0</ele><time>2026-04-26T16:00:12.102Z</time></trkpt><trkpt lat="45.6622717" lon="10.0683644"><ele>333.0</ele><time>2026-04-26T16:00:13.102Z</time></trkpt><trkpt lat="45.6621933" lon="10.068253"><ele>333.0</ele><time>2026-04-26T16:00:14.101Z</time></trkpt><trkpt lat="45.6621083" lon="10.0681495"><ele>333.0</ele><time>2026-04-26T16:00:15.102Z</time></trkpt><trkpt lat="45.6620171" lon="10.0680643"><ele>333.0</ele><time>2026-04-26T16:00:16.102Z</time></trkpt><trkpt lat="45.6619115" lon="10.0680066"><ele>328.0</ele><time>2026-04-26T16:00:17.102Z</time></trkpt><trkpt lat="45.6617956" lon="10.0679839"><ele>323.0</ele><time>2026-04-26T16:00:18.102Z</time></trkpt><trkpt lat="45.6616754" lon="10.0679986"><ele>318.0</ele><time>2026-04-26T16:00:19.102Z</time></trkpt><trkpt lat="45.6615608" lon="10.0680274"><ele>313.0</ele><time>2026-04-26T16:00:20.102Z</time></trkpt><trkpt lat="45.6614624" lon="10.0680879"><ele>313.0</ele><time>2026-04-26T16:00:21.102Z</time></trkpt><trkpt lat="45.6613928" lon="10.068185"><ele>313.0</ele><time>2026-04-26T16:00:22.102Z</time></trkpt><trkpt lat="45.6613428" lon="10.0683066"><ele>313.0</ele><time>2026-04-26T16:00:23.102Z</time></trkpt><trkpt lat="45.6613024" lon="10.0684507"><ele>313.0</ele><time>2026-04-26T16:00:24.102Z</time></trkpt><trkpt lat="45.6612688" lon="10.0685906"><ele>313.0</ele><time>2026-04-26T16:00:25.101Z</time></trkpt><trkpt lat="45.6612283" lon="10.0687303"><ele>316.0</ele><time>2026-04-26T16:00:26.101Z</time></trkpt><trkpt lat="45.661177" lon="10.0688512"><ele>319.0</ele><time>2026-04-26T16:00:27.102Z</time></trkpt><trkpt lat="45.6611191" lon="10.0689259"><ele>322.0</ele><time>2026-04-26T16:00:28.102Z</time></trkpt><trkpt lat="45.6610611" lon="10.068961"><ele>325.0</ele><time>2026-04-26T16:00:29.102Z</time></trkpt><trkpt lat="45.6609508" lon="10.0689099"><ele>328.0</ele><time>2026-04-26T16:00:31.102Z</time></trkpt><trkpt lat="45.6609144" lon="10.0688185"><ele>331.0</ele><time>2026-04-26T16:00:32.102Z</time></trkpt><trkpt lat="45.6608966" lon="10.0687059"><ele>331.0</ele><time>2026-04-26T16:00:33.101Z</time></trkpt><trkpt lat="45.6608928" lon="10.0685852"><ele>331.0</ele><time>2026-04-26T16:00:34.102Z</time></trkpt><trkpt lat="45.6608902" lon="10.0684598"><ele>331.0</ele><time>2026-04-26T16:00:35.102Z</time></trkpt><trkpt lat="45.6608736" lon="10.068325"><ele>331.0</ele><time>2026-04-26T16:00:36.101Z</time></trkpt><trkpt lat="45.6608472" lon="10.068193"><ele>331.0</ele><time>2026-04-26T16:00:37.102Z</time></trkpt><trkpt lat="45.6608112" lon="10.0680601"><ele>326.5</ele><time>2026-04-26T16:00:38.102Z</time></trkpt><trkpt lat="45.6607643" lon="10.067918"><ele>322.0</ele><time>2026-04-26T16:00:39.102Z</time></trkpt><trkpt lat="45.6607152" lon="10.0677751"><ele>317.5</ele><time>2026-04-26T16:00:40.102Z</time></trkpt><trkpt lat="45.6606639" lon="10.0676333"><ele>313.0</ele><time>2026-04-26T16:00:41.102Z</time></trkpt><trkpt lat="45.660603" lon="10.0674849"><ele>309.25</ele><time>2026-04-26T16:00:42.102Z</time></trkpt><trkpt lat="45.6605434" lon="10.0673303"><ele>305.5</ele><time>2026-04-26T16:00:43.102Z</time></trkpt><trkpt lat="45.6604773" lon="10.0671766"><ele>301.75</ele><time>2026-04-26T16:00:44.102Z</time></trkpt><trkpt lat="45.6604071" lon="10.067019"><ele>298.0</ele><time>2026-04-26T16:00:45.101Z</time></trkpt><trkpt lat="45.660334" lon="10.0668621"><ele>300.25</ele><time>2026-04-26T16:00:46.102Z</time></trkpt><trkpt lat="45.6602588" lon="10.066699"><ele>302.5</ele><time>2026-04-26T16:00:47.102Z</time></trkpt><trkpt lat="45.6601876" lon="10.0665299"><ele>304.75</ele><time>2026-04-26T16:00:48.101Z</time></trkpt><trkpt lat="45.6601182" lon="10.0663693"><ele>307.0</ele><time>2026-04-26T16:00:49.102Z</time></trkpt><trkpt lat="45.6600532" lon="10.0662141"><ele>307.0</ele><time>2026-04-26T16:00:50.102Z</time></trkpt><trkpt lat="45.6599829" lon="10.0660563"><ele>307.0</ele><time>2026-04-26T16:00:51.102Z</time></trkpt><trkpt lat="45.6599062" lon="10.065896"><ele>307.0</ele><time>2026-04-26T16:00:52.102Z</time></trkpt><trkpt lat="45.6598165" lon="10.0657422"><ele>307.0</ele><time>2026-04-26T16:00:53.102Z</time></trkpt><trkpt lat="45.6597099" lon="10.0655915"><ele>306.66666666666663</ele><time>2026-04-26T16:00:54.101Z</time></trkpt><trkpt lat="45.6595931" lon="10.0654354"><ele>306.3333333333333</ele><time>2026-04-26T16:00:55.102Z</time></trkpt><trkpt lat="45.6594725" lon="10.0652733"><ele>306.0</ele><time>2026-04-26T16:00:56.102Z</time></trkpt><trkpt lat="45.6593558" lon="10.0651096"><ele>306.0</ele><time>2026-04-26T16:00:57.102Z</time></trkpt><trkpt lat="45.6592447" lon="10.0649511"><ele>306.0</ele><time>2026-04-26T16:00:58.102Z</time></trkpt><trkpt lat="45.659132" lon="10.0647999"><ele>306.0</ele><time>2026-04-26T16:00:59.102Z</time></trkpt><trkpt lat="45.6590106" lon="10.0646636"><ele>301.25</ele><time>2026-04-26T16:01:00.102Z</time></trkpt><trkpt lat="45.6588838" lon="10.0645508"><ele>296.5</ele><time>2026-04-26T16:01:01.102Z</time></trkpt><trkpt lat="45.658747" lon="10.0644653"><ele>291.75</ele><time>2026-04-26T16:01:02.102Z</time></trkpt><trkpt lat="45.6586056" lon="10.0644062"><ele>287.0</ele><time>2026-04-26T16:01:03.102Z</time></trkpt><trkpt lat="45.6584517" lon="10.0643634"><ele>287.0</ele><time>2026-04-26T16:01:04.102Z</time></trkpt><trkpt lat="45.6582949" lon="10.0643277"><ele>287.0</ele><time>2026-04-26T16:01:05.102Z</time></trkpt><trkpt lat="45.6581403" lon="10.0642949"><ele>287.0</ele><time>2026-04-26T16:01:06.102Z</time></trkpt><trkpt lat="45.6579883" lon="10.0642609"><ele>287.0</ele><time>2026-04-26T16:01:07.102Z</time></trkpt><trkpt lat="45.657844" lon="10.0642354"><ele>287.0</ele><time>2026-04-26T16:01:08.102Z</time></trkpt><trkpt lat="45.657714" lon="10.0642098"><ele>287.0</ele><time>2026-04-26T16:01:09.102Z</time></trkpt><trkpt lat="45.6575994" lon="10.0641878"><ele>287.0</ele><time>2026-04-26T16:01:10.102Z</time></trkpt><trkpt lat="45.6575012" lon="10.0641587"><ele>287.7142857142857</ele><time>2026-04-26T16:01:11.102Z</time></trkpt><trkpt lat="45.657426" lon="10.0641211"><ele>288.42857142857144</ele><time>2026-04-26T16:01:12.101Z</time></trkpt><trkpt lat="45.6573716" lon="10.0640682"><ele>289.1428571428571</ele><time>2026-04-26T16:01:13.102Z</time></trkpt><trkpt lat="45.6573376" lon="10.0639922"><ele>289.8571428571429</ele><time>2026-04-26T16:01:14.102Z</time></trkpt><trkpt lat="45.6573297" lon="10.0638971"><ele>290.57142857142856</ele><time>2026-04-26T16:01:15.102Z</time></trkpt><trkpt lat="45.6573495" lon="10.06381"><ele>291.2857142857143</ele><time>2026-04-26T16:01:16.102Z</time></trkpt><trkpt lat="45.6573998" lon="10.0637536"><ele>292.0</ele><time>2026-04-26T16:01:17.102Z</time></trkpt><trkpt lat="45.6574722" lon="10.0637348"><ele>288.66666666666663</ele><time>2026-04-26T16:01:18.102Z</time></trkpt><trkpt lat="45.6575522" lon="10.0637749"><ele>285.3333333333333</ele><time>2026-04-26T16:01:19.102Z</time></trkpt><trkpt lat="45.6576253" lon="10.0638465"><ele>282.0</ele><time>2026-04-26T16:01:20.102Z</time></trkpt><trkpt lat="45.6576975" lon="10.0639089"><ele>278.6666666666667</ele><time>2026-04-26T16:01:21.102Z</time></trkpt><trkpt lat="45.6577818" lon="10.0639616"><ele>275.33333333333337</ele><time>2026-04-26T16:01:22.102Z</time></trkpt><trkpt lat="45.6578728" lon="10.0639814"><ele>272.0</ele><time>2026-04-26T16:01:23.102Z</time></trkpt><trkpt lat="45.6579725" lon="10.0639756"><ele>269.75</ele><time>2026-04-26T16:01:24.102Z</time></trkpt><trkpt lat="45.6580756" lon="10.063947"><ele>267.5</ele><time>2026-04-26T16:01:25.102Z</time></trkpt><trkpt lat="45.6581896" lon="10.0638992"><ele>265.25</ele><time>2026-04-26T16:01:26.102Z</time></trkpt><trkpt lat="45.6583163" lon="10.0638593"><ele>263.0</ele><time>2026-04-26T16:01:27.102Z</time></trkpt><trkpt lat="45.6584548" lon="10.063844"><ele>263.0</ele><time>2026-04-26T16:01:28.102Z</time></trkpt><trkpt lat="45.6585964" lon="10.0638476"><ele>263.0</ele><time>2026-04-26T16:01:29.102Z</time></trkpt><trkpt lat="45.6587405" lon="10.0638458"><ele>263.0</ele><time>2026-04-26T16:01:30.102Z</time></trkpt><trkpt lat="45.6588898" lon="10.0638571"><ele>263.0</ele><time>2026-04-26T16:01:31.102Z</time></trkpt><trkpt lat="45.659053" lon="10.0638895"><ele>259.0</ele><time>2026-04-26T16:01:32.102Z</time></trkpt><trkpt lat="45.6591959" lon="10.0639586"><ele>255.0</ele><time>2026-04-26T16:01:33.102Z</time></trkpt><trkpt lat="45.6593523" lon="10.0640402"><ele>251.0</ele><time>2026-04-26T16:01:34.102Z</time></trkpt><trkpt lat="45.6595126" lon="10.0641031"><ele>253.0</ele><time>2026-04-26T16:01:35.102Z</time></trkpt><trkpt lat="45.6596818" lon="10.0641628"><ele>255.0</ele><time>2026-04-26T16:01:36.102Z</time></trkpt><trkpt lat="45.6598507" lon="10.0642314"><ele>257.0</ele><time>2026-04-26T16:01:37.102Z</time></trkpt><trkpt lat="45.6600207" lon="10.064302"><ele>257.0</ele><time>2026-04-26T16:01:38.102Z</time></trkpt><trkpt lat="45.6601838" lon="10.064389"><ele>257.0</ele><time>2026-04-26T16:01:39.102Z</time></trkpt><trkpt lat="45.6603436" lon="10.0644828"><ele>257.0</ele><time>2026-04-26T16:01:40.102Z</time></trkpt><trkpt lat="45.6605058" lon="10.0645602"><ele>252.33333333333334</ele><time>2026-04-26T16:01:41.102Z</time></trkpt><trkpt lat="45.6606692" lon="10.064615"><ele>247.66666666666669</ele><time>2026-04-26T16:01:42.102Z</time></trkpt><trkpt lat="45.6608334" lon="10.0646515"><ele>243.0</ele><time>2026-04-26T16:01:43.102Z</time></trkpt><trkpt lat="45.6609931" lon="10.0646847"><ele>242.2</ele><time>2026-04-26T16:01:44.102Z</time></trkpt><trkpt lat="45.6611314" lon="10.0647221"><ele>241.4</ele><time>2026-04-26T16:01:45.102Z</time></trkpt><trkpt lat="45.6612471" lon="10.0647662"><ele>240.59999999999997</ele><time>2026-04-26T16:01:46.102Z</time></trkpt><trkpt lat="45.6613454" lon="10.0648"><ele>239.79999999999998</ele><time>2026-04-26T16:01:47.102Z</time></trkpt><trkpt lat="45.6614261" lon="10.0648183"><ele>239.0</ele><time>2026-04-26T16:01:48.102Z</time></trkpt><trkpt lat="45.6614961" lon="10.0648012"><ele>239.00000000000003</ele><time>2026-04-26T16:01:49.101Z</time></trkpt><trkpt lat="45.6615477" lon="10.0647479"><ele>239.0</ele><time>2026-04-26T16:01:50.102Z</time></trkpt><trkpt lat="45.6615673" lon="10.0645799"><ele>239.0</ele><time>2026-04-26T16:01:52.102Z</time></trkpt><trkpt lat="45.6615255" lon="10.0645075"><ele>239.0</ele><time>2026-04-26T16:01:53.101Z</time></trkpt><trkpt lat="45.6614541" lon="10.0644719"><ele>239.00000000000003</ele><time>2026-04-26T16:01:54.102Z</time></trkpt><trkpt lat="45.6613682" lon="10.0644526"><ele>239.0</ele><time>2026-04-26T16:01:55.102Z</time></trkpt><trkpt lat="45.6612766" lon="10.064436"><ele>239.0</ele><time>2026-04-26T16:01:56.102Z</time></trkpt><trkpt lat="45.6611825" lon="10.0644053"><ele>238.99999999999997</ele><time>2026-04-26T16:01:57.102Z</time></trkpt><trkpt lat="45.6610877" lon="10.064363"><ele>238.99999999999997</ele><time>2026-04-26T16:01:58.102Z</time></trkpt><trkpt lat="45.6609916" lon="10.0643183"><ele>239.0</ele><time>2026-04-26T16:01:59.101Z</time></trkpt><trkpt lat="45.660895" lon="10.0642706"><ele>239.0</ele><time>2026-04-26T16:02:00.102Z</time></trkpt><trkpt lat="45.6608009" lon="10.0642165"><ele>239.79999999999998</ele><time>2026-04-26T16:02:01.102Z</time></trkpt><trkpt lat="45.6607086" lon="10.064163"><ele>240.59999999999997</ele><time>2026-04-26T16:02:02.101Z</time></trkpt><trkpt lat="45.6606219" lon="10.0641013"><ele>241.4</ele><time>2026-04-26T16:02:03.102Z</time></trkpt><trkpt lat="45.6605351" lon="10.0640298"><ele>242.2</ele><time>2026-04-26T16:02:04.102Z</time></trkpt><trkpt lat="45.6604602" lon="10.0639471"><ele>243.0</ele><time>2026-04-26T16:02:05.102Z</time></trkpt><trkpt lat="45.6603972" lon="10.0638459"><ele>242.0</ele><time>2026-04-26T16:02:06.102Z</time></trkpt><trkpt lat="45.6603521" lon="10.0637378"><ele>241.0</ele><time>2026-04-26T16:02:07.102Z</time></trkpt><trkpt lat="45.6603191" lon="10.0636268"><ele>240.0</ele><time>2026-04-26T16:02:08.101Z</time></trkpt><trkpt lat="45.6602909" lon="10.0635129"><ele>239.0</ele><time>2026-04-26T16:02:09.102Z</time></trkpt><trkpt lat="45.6602644" lon="10.0633981"><ele>238.0</ele><time>2026-04-26T16:02:10.102Z</time></trkpt><trkpt lat="45.6602419" lon="10.0632783"><ele>237.0</ele><time>2026-04-26T16:02:11.102Z</time></trkpt><trkpt lat="45.6602253" lon="10.0631541"><ele>236.0</ele><time>2026-04-26T16:02:12.102Z</time></trkpt><trkpt lat="45.660212" lon="10.0630242"><ele>235.0</ele><time>2026-04-26T16:02:13.102Z</time></trkpt><trkpt lat="45.6602022" lon="10.0629025"><ele>234.0</ele><time>2026-04-26T16:02:14.101Z</time></trkpt><trkpt lat="45.6601944" lon="10.0627848"><ele>233.0</ele><time>2026-04-26T16:02:15.102Z</time></trkpt><trkpt lat="45.6602018" lon="10.0626622"><ele>232.0</ele><time>2026-04-26T16:02:16.102Z</time></trkpt><trkpt lat="45.6602369" lon="10.0625792"><ele>231.0</ele><time>2026-04-26T16:02:17.102Z</time></trkpt><trkpt lat="45.6602893" lon="10.0624945"><ele>230.8</ele><time>2026-04-26T16:02:18.102Z</time></trkpt><trkpt lat="45.6603558" lon="10.0624173"><ele>230.60000000000002</ele><time>2026-04-26T16:02:19.102Z</time></trkpt><trkpt lat="45.660429" lon="10.0623703"><ele>230.4</ele><time>2026-04-26T16:02:20.102Z</time></trkpt><trkpt lat="45.6604954" lon="10.0623552"><ele>230.2</ele><time>2026-04-26T16:02:21.102Z</time></trkpt><trkpt lat="45.6606002" lon="10.0624422"><ele>230.0</ele><time>2026-04-26T16:02:23.102Z</time></trkpt><trkpt lat="45.6606295" lon="10.0625945"><ele>230.0</ele><time>2026-04-26T16:02:25.102Z</time></trkpt><trkpt lat="45.6605935" lon="10.0627161"><ele>230.0</ele><time>2026-04-26T16:02:27.102Z</time></trkpt><trkpt lat="45.6605138" lon="10.0627611"><ele>230.0</ele><time>2026-04-26T16:02:29.102Z</time></trkpt><trkpt lat="45.6604458" lon="10.062765"><ele>230.0</ele><time>2026-04-26T16:02:31.102Z</time></trkpt><trkpt lat="45.6603522" lon="10.0627622"><ele>230.0</ele><time>2026-04-26T16:02:34.102Z</time></trkpt><trkpt lat="45.6602332" lon="10.0627535"><ele>230.16666666666669</ele><time>2026-04-26T16:02:36.102Z</time></trkpt><trkpt lat="45.6601503" lon="10.062756"><ele>230.33333333333334</ele><time>2026-04-26T16:02:37.102Z</time></trkpt><trkpt lat="45.6600695" lon="10.0627628"><ele>230.5</ele><time>2026-04-26T16:02:38.102Z</time></trkpt><trkpt lat="45.659987" lon="10.0627726"><ele>230.66666666666669</ele><time>2026-04-26T16:02:39.102Z</time></trkpt><trkpt lat="45.6598963" lon="10.0627737"><ele>230.83333333333334</ele><time>2026-04-26T16:02:40.102Z</time></trkpt><trkpt lat="45.6598089" lon="10.0627798"><ele>231.0</ele><time>2026-04-26T16:02:41.102Z</time></trkpt><trkpt lat="45.6597353" lon="10.0627937"><ele>231.0</ele><time>2026-04-26T16:02:42.102Z</time></trkpt><trkpt lat="45.6596545" lon="10.062823"><ele>231.0</ele><time>2026-04-26T16:02:44.102Z</time></trkpt><trkpt lat="45.6595802" lon="10.0628465"><ele>231.0</ele><time>2026-04-26T16:02:49.102Z</time></trkpt><trkpt lat="45.6595156" lon="10.0628553"><ele>231.0</ele><time>2026-04-26T16:02:50.102Z</time></trkpt><trkpt lat="45.6594303" lon="10.0628652"><ele>231.0</ele><time>2026-04-26T16:02:51.102Z</time></trkpt><trkpt lat="45.659334" lon="10.0628697"><ele>231.0</ele><time>2026-04-26T16:02:52.102Z</time></trkpt><trkpt lat="45.6592357" lon="10.0628729"><ele>232.8</ele><time>2026-04-26T16:02:53.102Z</time></trkpt><trkpt lat="45.6591373" lon="10.0628709"><ele>234.60000000000002</ele><time>2026-04-26T16:02:54.102Z</time></trkpt><trkpt lat="45.6590375" lon="10.0628733"><ele>236.4</ele><time>2026-04-26T16:02:55.102Z</time></trkpt><trkpt lat="45.6589337" lon="10.0628783"><ele>238.2</ele><time>2026-04-26T16:02:56.102Z</time></trkpt><trkpt lat="45.6588271" lon="10.0628778"><ele>240.0</ele><time>2026-04-26T16:02:57.101Z</time></trkpt><trkpt lat="45.6587169" lon="10.0628826"><ele>243.25</ele><time>2026-04-26T16:02:58.101Z</time></trkpt><trkpt lat="45.6586" lon="10.062885"><ele>246.5</ele><time>2026-04-26T16:02:59.102Z</time></trkpt><trkpt lat="45.6584763" lon="10.0628831"><ele>249.75</ele><time>2026-04-26T16:03:00.102Z</time></trkpt><trkpt lat="45.6583515" lon="10.0628758"><ele>253.0</ele><time>2026-04-26T16:03:01.102Z</time></trkpt><trkpt lat="45.6582379" lon="10.062867"><ele>253.0</ele><time>2026-04-26T16:03:02.102Z</time></trkpt><trkpt lat="45.6581335" lon="10.0628478"><ele>253.0</ele><time>2026-04-26T16:03:03.101Z</time></trkpt><trkpt lat="45.6580337" lon="10.0628268"><ele>253.0</ele><time>2026-04-26T16:03:04.101Z</time></trkpt><trkpt lat="45.6579395" lon="10.062808"><ele>253.0</ele><time>2026-04-26T16:03:05.102Z</time></trkpt><trkpt lat="45.6578372" lon="10.0627852"><ele>253.0</ele><time>2026-04-26T16:03:06.102Z</time></trkpt><trkpt lat="45.6577304" lon="10.0627484"><ele>255.75</ele><time>2026-04-26T16:03:07.102Z</time></trkpt><trkpt lat="45.6576233" lon="10.0627008"><ele>258.5</ele><time>2026-04-26T16:03:08.102Z</time></trkpt><trkpt lat="45.6575029" lon="10.0626407"><ele>261.25</ele><time>2026-04-26T16:03:09.102Z</time></trkpt><trkpt lat="45.6573759" lon="10.0625839"><ele>264.0</ele><time>2026-04-26T16:03:10.102Z</time></trkpt><trkpt lat="45.6572612" lon="10.0625144"><ele>264.0</ele><time>2026-04-26T16:03:11.102Z</time></trkpt><trkpt lat="45.6571446" lon="10.0624489"><ele>264.0</ele><time>2026-04-26T16:03:12.102Z</time></trkpt><trkpt lat="45.6570817" lon="10.0624074"><ele>264.0</ele><time>2026-04-26T16:03:13.101Z</time></trkpt><trkpt lat="45.6570443" lon="10.0622989"><ele>264.0</ele><time>2026-04-26T16:03:16.101Z</time></trkpt><trkpt lat="45.6569866" lon="10.0622604"><ele>264.0</ele><time>2026-04-26T16:03:17.102Z</time></trkpt><trkpt lat="45.6569252" lon="10.0622081"><ele>264.0</ele><time>2026-04-26T16:03:18.102Z</time></trkpt><trkpt lat="45.6568587" lon="10.0621621"><ele>262.5</ele><time>2026-04-26T16:03:19.102Z</time></trkpt><trkpt lat="45.6567962" lon="10.0621111"><ele>261.0</ele><time>2026-04-26T16:03:20.102Z</time></trkpt><trkpt lat="45.656702" lon="10.0620437"><ele>259.5</ele><time>2026-04-26T16:03:22.102Z</time></trkpt><trkpt lat="45.6566432" lon="10.0620009"><ele>258.0</ele><time>2026-04-26T16:03:27.102Z</time></trkpt><trkpt lat="45.6565725" lon="10.0619506"><ele>256.5</ele><time>2026-04-26T16:03:30.102Z</time></trkpt><trkpt lat="45.656483" lon="10.0618952"><ele>255.0</ele><time>2026-04-26T16:03:32.102Z</time></trkpt><trkpt lat="45.6564252" lon="10.0618502"><ele>255.0</ele><time>2026-04-26T16:03:33.101Z</time></trkpt><trkpt lat="45.6563591" lon="10.0617954"><ele>255.0</ele><time>2026-04-26T16:03:34.102Z</time></trkpt><trkpt lat="45.6562898" lon="10.0617296"><ele>255.0</ele><time>2026-04-26T16:03:35.101Z</time></trkpt><trkpt lat="45.6562142" lon="10.0616488"><ele>255.0</ele><time>2026-04-26T16:03:36.102Z</time></trkpt><trkpt lat="45.6561319" lon="10.0615632"><ele>255.0</ele><time>2026-04-26T16:03:37.101Z</time></trkpt><trkpt lat="45.6560466" lon="10.0614736"><ele>255.8</ele><time>2026-04-26T16:03:38.102Z</time></trkpt><trkpt lat="45.6559606" lon="10.061367"><ele>256.6</ele><time>2026-04-26T16:03:39.102Z</time></trkpt><trkpt lat="45.6558841" lon="10.0612623"><ele>257.4</ele><time>2026-04-26T16:03:40.102Z</time></trkpt><trkpt lat="45.6558141" lon="10.0611541"><ele>258.2</ele><time>2026-04-26T16:03:41.102Z</time></trkpt><trkpt lat="45.6557474" lon="10.0610448"><ele>259.0</ele><time>2026-04-26T16:03:42.102Z</time></trkpt><trkpt lat="45.6556706" lon="10.0609255"><ele>259.0</ele><time>2026-04-26T16:03:43.101Z</time></trkpt><trkpt lat="45.6555825" lon="10.060785"><ele>259.0</ele><time>2026-04-26T16:03:44.102Z</time></trkpt><trkpt lat="45.6554938" lon="10.0606149"><ele>259.0</ele><time>2026-04-26T16:03:45.102Z</time></trkpt><trkpt lat="45.6553937" lon="10.0604152"><ele>257.0</ele><time>2026-04-26T16:03:46.102Z</time></trkpt><trkpt lat="45.6552822" lon="10.0601923"><ele>255.0</ele><time>2026-04-26T16:03:47.102Z</time></trkpt><trkpt lat="45.6551554" lon="10.0599557"><ele>253.0</ele><time>2026-04-26T16:03:48.102Z</time></trkpt><trkpt lat="45.6550209" lon="10.059689"><ele>253.0</ele><time>2026-04-26T16:03:49.101Z</time></trkpt><trkpt lat="45.6548771" lon="10.0594056"><ele>253.0</ele><time>2026-04-26T16:03:50.101Z</time></trkpt><trkpt lat="45.6547357" lon="10.0591331"><ele>246.5</ele><time>2026-04-26T16:03:51.102Z</time></trkpt><trkpt lat="45.6546035" lon="10.0588647"><ele>240.0</ele><time>2026-04-26T16:03:52.102Z</time></trkpt><trkpt lat="45.6544728" lon="10.0586056"><ele>240.33333333333331</ele><time>2026-04-26T16:03:53.102Z</time></trkpt><trkpt lat="45.6543465" lon="10.0583561"><ele>240.66666666666666</ele><time>2026-04-26T16:03:54.102Z</time></trkpt><trkpt lat="45.6542222" lon="10.0581155"><ele>241.0</ele><time>2026-04-26T16:03:55.102Z</time></trkpt><trkpt lat="45.654103" lon="10.0578781"><ele>241.0</ele><time>2026-04-26T16:03:56.102Z</time></trkpt><trkpt lat="45.6539744" lon="10.0576516"><ele>241.0</ele><time>2026-04-26T16:03:57.102Z</time></trkpt><trkpt lat="45.6538342" lon="10.0574314"><ele>241.0</ele><time>2026-04-26T16:03:58.102Z</time></trkpt><trkpt lat="45.6536843" lon="10.0572029"><ele>249.0</ele><time>2026-04-26T16:03:59.102Z</time></trkpt><trkpt lat="45.6535229" lon="10.0569586"><ele>257.0</ele><time>2026-04-26T16:04:00.101Z</time></trkpt><trkpt lat="45.6533632" lon="10.0567132"><ele>242.5</ele><time>2026-04-26T16:04:01.102Z</time></trkpt><trkpt lat="45.653207" lon="10.0564687"><ele>228.0</ele><time>2026-04-26T16:04:02.102Z</time></trkpt><trkpt lat="45.6530535" lon="10.0562256"><ele>228.0</ele><time>2026-04-26T16:04:03.102Z</time></trkpt><trkpt lat="45.6529001" lon="10.0559852"><ele>228.0</ele><time>2026-04-26T16:04:04.102Z</time></trkpt><trkpt lat="45.6527467" lon="10.0557523"><ele>237.0</ele><time>2026-04-26T16:04:05.102Z</time></trkpt><trkpt lat="45.652592" lon="10.0555231"><ele>246.0</ele><time>2026-04-26T16:04:06.102Z</time></trkpt><trkpt lat="45.6524402" lon="10.0552909"><ele>255.0</ele><time>2026-04-26T16:04:07.101Z</time></trkpt><trkpt lat="45.6522869" lon="10.0550572"><ele>247.33333333333331</ele><time>2026-04-26T16:04:08.102Z</time></trkpt><trkpt lat="45.652134" lon="10.0548239"><ele>239.66666666666666</ele><time>2026-04-26T16:04:09.102Z</time></trkpt><trkpt lat="45.6519812" lon="10.0545907"><ele>232.0</ele><time>2026-04-26T16:04:10.102Z</time></trkpt><trkpt lat="45.6488467" lon="10.0426265"><ele>217.0</ele><time>2026-04-26T16:04:57.102Z</time></trkpt><trkpt lat="45.6490444" lon="10.0424038"><ele>202.0</ele><time>2026-04-26T16:04:59.102Z</time></trkpt><trkpt lat="45.6491661" lon="10.0422884"><ele>187.0</ele><time>2026-04-26T16:05:00.102Z</time></trkpt><trkpt lat="45.6492955" lon="10.0421823"><ele>187.0</ele><time>2026-04-26T16:05:01.102Z</time></trkpt><trkpt lat="45.6494251" lon="10.0420721"><ele>187.0</ele><time>2026-04-26T16:05:02.101Z</time></trkpt><trkpt lat="45.6495505" lon="10.0419762"><ele>187.0</ele><time>2026-04-26T16:05:03.102Z</time></trkpt><trkpt lat="45.6496769" lon="10.0418931"><ele>187.0</ele><time>2026-04-26T16:05:04.102Z</time></trkpt><trkpt lat="45.6497919" lon="10.0418167"><ele>187.0</ele><time>2026-04-26T16:05:05.102Z</time></trkpt><trkpt lat="45.6498936" lon="10.0417694"><ele>187.0</ele><time>2026-04-26T16:05:06.102Z</time></trkpt><trkpt lat="45.6499901" lon="10.0417472"><ele>187.0</ele><time>2026-04-26T16:05:07.102Z</time></trkpt><trkpt lat="45.650082" lon="10.0417582"><ele>187.0</ele><time>2026-04-26T16:05:08.102Z</time></trkpt><trkpt lat="45.650169" lon="10.0418069"><ele>187.0</ele><time>2026-04-26T16:05:09.102Z</time></trkpt><trkpt lat="45.6502542" lon="10.0418956"><ele>185.75</ele><time>2026-04-26T16:05:10.102Z</time></trkpt><trkpt lat="45.6503347" lon="10.0420165"><ele>184.5</ele><time>2026-04-26T16:05:11.102Z</time></trkpt><trkpt lat="45.6504135" lon="10.0421364"><ele>183.25</ele><time>2026-04-26T16:05:12.102Z</time></trkpt><trkpt lat="45.6505004" lon="10.0422433"><ele>182.0</ele><time>2026-04-26T16:05:13.102Z</time></trkpt><trkpt lat="45.6505955" lon="10.0423176"><ele>182.0</ele><time>2026-04-26T16:05:14.102Z</time></trkpt><trkpt lat="45.6507004" lon="10.0423527"><ele>182.0</ele><time>2026-04-26T16:05:15.102Z</time></trkpt><trkpt lat="45.6508031" lon="10.0423399"><ele>182.0</ele><time>2026-04-26T16:05:16.101Z</time></trkpt><trkpt lat="45.6509044" lon="10.0422815"><ele>182.0</ele><time>2026-04-26T16:05:17.101Z</time></trkpt><trkpt lat="45.6509917" lon="10.042187"><ele>182.0</ele><time>2026-04-26T16:05:18.102Z</time></trkpt><trkpt lat="45.6510569" lon="10.0420558"><ele>182.0</ele><time>2026-04-26T16:05:19.102Z</time></trkpt><trkpt lat="45.6510953" lon="10.0418963"><ele>182.0</ele><time>2026-04-26T16:05:20.102Z</time></trkpt><trkpt lat="45.6511119" lon="10.0417199"><ele>182.0</ele><time>2026-04-26T16:05:21.102Z</time></trkpt><trkpt lat="45.6511157" lon="10.0415438"><ele>182.0</ele><time>2026-04-26T16:05:22.102Z</time></trkpt><trkpt lat="45.6511182" lon="10.0413636"><ele>182.75</ele><time>2026-04-26T16:05:23.102Z</time></trkpt><trkpt lat="45.6511309" lon="10.0411867"><ele>183.5</ele><time>2026-04-26T16:05:24.102Z</time></trkpt><trkpt lat="45.6511644" lon="10.0410282"><ele>184.25</ele><time>2026-04-26T16:05:25.102Z</time></trkpt><trkpt lat="45.6512201" lon="10.0408888"><ele>185.0</ele><time>2026-04-26T16:05:26.102Z</time></trkpt><trkpt lat="45.6513039" lon="10.0407752"><ele>185.5</ele><time>2026-04-26T16:05:27.102Z</time></trkpt><trkpt lat="45.6513989" lon="10.0406804"><ele>186.0</ele><time>2026-04-26T16:05:28.102Z</time></trkpt><trkpt lat="45.6515215" lon="10.0405945"><ele>186.5</ele><time>2026-04-26T16:05:29.102Z</time></trkpt><trkpt lat="45.6516519" lon="10.0405023"><ele>187.0</ele><time>2026-04-26T16:05:30.102Z</time></trkpt><trkpt lat="45.6517915" lon="10.0403996"><ele>187.0</ele><time>2026-04-26T16:05:31.102Z</time></trkpt><trkpt lat="45.6519305" lon="10.0403029"><ele>187.0</ele><time>2026-04-26T16:05:32.101Z</time></trkpt><trkpt lat="45.6520618" lon="10.0402052"><ele>187.0</ele><time>2026-04-26T16:05:33.101Z</time></trkpt><trkpt lat="45.6521894" lon="10.0401165"><ele>187.0</ele><time>2026-04-26T16:05:34.102Z</time></trkpt><trkpt lat="45.652321" lon="10.0400319"><ele>186.5</ele><time>2026-04-26T16:05:35.102Z</time></trkpt><trkpt lat="45.6524529" lon="10.0399476"><ele>186.0</ele><time>2026-04-26T16:05:36.102Z</time></trkpt><trkpt lat="45.6525899" lon="10.0398571"><ele>185.5</ele><time>2026-04-26T16:05:37.102Z</time></trkpt><trkpt lat="45.6527286" lon="10.039763"><ele>185.0</ele><time>2026-04-26T16:05:38.102Z</time></trkpt><trkpt lat="45.6528645" lon="10.0396711"><ele>185.0</ele><time>2026-04-26T16:05:39.101Z</time></trkpt><trkpt lat="45.6530104" lon="10.0395702"><ele>185.0</ele><time>2026-04-26T16:05:40.102Z</time></trkpt><trkpt lat="45.6531593" lon="10.039472"><ele>185.0</ele><time>2026-04-26T16:05:41.102Z</time></trkpt><trkpt lat="45.6533045" lon="10.039367"><ele>185.0</ele><time>2026-04-26T16:05:42.102Z</time></trkpt><trkpt lat="45.6534445" lon="10.039269"><ele>185.0</ele><time>2026-04-26T16:05:43.102Z</time></trkpt><trkpt lat="45.6535737" lon="10.0391703"><ele>185.0</ele><time>2026-04-26T16:05:44.102Z</time></trkpt><trkpt lat="45.6537056" lon="10.0390651"><ele>185.33333333333331</ele><time>2026-04-26T16:05:45.102Z</time></trkpt><trkpt lat="45.6538317" lon="10.0389471"><ele>185.66666666666666</ele><time>2026-04-26T16:05:46.102Z</time></trkpt><trkpt lat="45.6539595" lon="10.038813"><ele>186.0</ele><time>2026-04-26T16:05:47.102Z</time></trkpt><trkpt lat="45.6540878" lon="10.0386683"><ele>186.0</ele><time>2026-04-26T16:05:48.101Z</time></trkpt><trkpt lat="45.6542074" lon="10.0385219"><ele>186.0</ele><time>2026-04-26T16:05:49.102Z</time></trkpt><trkpt lat="45.6543092" lon="10.0383813"><ele>186.0</ele><time>2026-04-26T16:05:50.102Z</time></trkpt><trkpt lat="45.6543961" lon="10.0382554"><ele>186.0</ele><time>2026-04-26T16:05:51.102Z</time></trkpt><trkpt lat="45.6544657" lon="10.0381399"><ele>186.0</ele><time>2026-04-26T16:05:52.102Z</time></trkpt><trkpt lat="45.6545271" lon="10.0380211"><ele>186.0</ele><time>2026-04-26T16:05:53.102Z</time></trkpt><trkpt lat="45.6545916" lon="10.037908"><ele>186.0</ele><time>2026-04-26T16:05:54.102Z</time></trkpt><trkpt lat="45.6546599" lon="10.0377811"><ele>186.0</ele><time>2026-04-26T16:05:55.102Z</time></trkpt><trkpt lat="45.6547244" lon="10.0376477"><ele>186.0</ele><time>2026-04-26T16:05:56.102Z</time></trkpt><trkpt lat="45.6547807" lon="10.0375204"><ele>186.0</ele><time>2026-04-26T16:05:57.102Z</time></trkpt><trkpt lat="45.6548329" lon="10.0373868"><ele>186.0</ele><time>2026-04-26T16:05:58.101Z</time></trkpt><trkpt lat="45.6548881" lon="10.0372282"><ele>186.0</ele><time>2026-04-26T16:05:59.102Z</time></trkpt><trkpt lat="45.6549453" lon="10.0370586"><ele>186.0</ele><time>2026-04-26T16:06:00.102Z</time></trkpt><trkpt lat="45.6549976" lon="10.0368919"><ele>186.0</ele><time>2026-04-26T16:06:01.102Z</time></trkpt><trkpt lat="45.6550431" lon="10.0367292"><ele>186.0</ele><time>2026-04-26T16:06:02.102Z</time></trkpt><trkpt lat="45.6550834" lon="10.036571"><ele>186.0</ele><time>2026-04-26T16:06:03.102Z</time></trkpt><trkpt lat="45.6551182" lon="10.0364207"><ele>186.0</ele><time>2026-04-26T16:06:04.102Z</time></trkpt><trkpt lat="45.6551457" lon="10.0362761"><ele>185.8</ele><time>2026-04-26T16:06:05.102Z</time></trkpt><trkpt lat="45.6551645" lon="10.0361361"><ele>185.60000000000002</ele><time>2026-04-26T16:06:06.102Z</time></trkpt><trkpt lat="45.6551783" lon="10.0360211"><ele>185.4</ele><time>2026-04-26T16:06:07.102Z</time></trkpt><trkpt lat="45.6551993" lon="10.0358573"><ele>185.2</ele><time>2026-04-26T16:06:09.102Z</time></trkpt><trkpt lat="45.6552063" lon="10.0356924"><ele>185.0</ele><time>2026-04-26T16:06:11.102Z</time></trkpt><trkpt lat="45.6552013" lon="10.0355342"><ele>185.0</ele><time>2026-04-26T16:06:13.102Z</time></trkpt><trkpt lat="45.6551813" lon="10.0353447"><ele>185.0</ele><time>2026-04-26T16:06:15.102Z</time></trkpt><trkpt lat="45.6551656" lon="10.0352198"><ele>185.0</ele><time>2026-04-26T16:06:16.101Z</time></trkpt><trkpt lat="45.6551497" lon="10.0350902"><ele>185.0</ele><time>2026-04-26T16:06:17.101Z</time></trkpt><trkpt lat="45.655131" lon="10.0349557"><ele>185.0</ele><time>2026-04-26T16:06:18.102Z</time></trkpt><trkpt lat="45.6551093" lon="10.0348295"><ele>185.0</ele><time>2026-04-26T16:06:19.102Z</time></trkpt><trkpt lat="45.6550845" lon="10.0347"><ele>185.0</ele><time>2026-04-26T16:06:20.102Z</time></trkpt><trkpt lat="45.6550524" lon="10.0345639"><ele>185.0</ele><time>2026-04-26T16:06:21.102Z</time></trkpt><trkpt lat="45.6550176" lon="10.0344261"><ele>185.0</ele><time>2026-04-26T16:06:22.102Z</time></trkpt><trkpt lat="45.6549759" lon="10.034293"><ele>185.0</ele><time>2026-04-26T16:06:23.102Z</time></trkpt><trkpt lat="45.6549293" lon="10.0341596"><ele>185.2</ele><time>2026-04-26T16:06:24.102Z</time></trkpt><trkpt lat="45.6548785" lon="10.034036"><ele>185.4</ele><time>2026-04-26T16:06:25.102Z</time></trkpt><trkpt lat="45.6548286" lon="10.033926"><ele>185.60000000000002</ele><time>2026-04-26T16:06:26.102Z</time></trkpt><trkpt lat="45.6547754" lon="10.0338145"><ele>185.8</ele><time>2026-04-26T16:06:27.101Z</time></trkpt><trkpt lat="45.6547188" lon="10.0337"><ele>186.0</ele><time>2026-04-26T16:06:28.102Z</time></trkpt><trkpt lat="45.6546569" lon="10.0335819"><ele>186.0</ele><time>2026-04-26T16:06:29.102Z</time></trkpt><trkpt lat="45.6546028" lon="10.0334756"><ele>186.0</ele><time>2026-04-26T16:06:30.102Z</time></trkpt><trkpt lat="45.6545524" lon="10.0333655"><ele>186.0</ele><time>2026-04-26T16:06:31.102Z</time></trkpt><trkpt lat="45.6545049" lon="10.0332603"><ele>186.0</ele><time>2026-04-26T16:06:32.101Z</time></trkpt><trkpt lat="45.6544587" lon="10.0331563"><ele>186.0</ele><time>2026-04-26T16:06:33.102Z</time></trkpt><trkpt lat="45.6544176" lon="10.0330563"><ele>186.0</ele><time>2026-04-26T16:06:34.102Z</time></trkpt><trkpt lat="45.6543788" lon="10.032962"><ele>186.0</ele><time>2026-04-26T16:06:35.102Z</time></trkpt><trkpt lat="45.6543279" lon="10.0328119"><ele>186.0</ele><time>2026-04-26T16:06:37.102Z</time></trkpt><trkpt lat="45.6542947" lon="10.0326809"><ele>186.0</ele><time>2026-04-26T16:06:39.102Z</time></trkpt><trkpt lat="45.6542676" lon="10.0325464"><ele>186.0</ele><time>2026-04-26T16:06:41.102Z</time></trkpt><trkpt lat="45.6542416" lon="10.0323688"><ele>186.0</ele><time>2026-04-26T16:06:43.102Z</time></trkpt><trkpt lat="45.6542228" lon="10.0322643"><ele>186.0</ele><time>2026-04-26T16:06:44.101Z</time></trkpt><trkpt lat="45.6542051" lon="10.0321524"><ele>186.0</ele><time>2026-04-26T16:06:45.102Z</time></trkpt><trkpt lat="45.654183" lon="10.0320299"><ele>186.0</ele><time>2026-04-26T16:06:46.102Z</time></trkpt><trkpt lat="45.6541608" lon="10.031901"><ele>186.0</ele><time>2026-04-26T16:06:47.101Z</time></trkpt><trkpt lat="45.6541396" lon="10.0317734"><ele>186.0</ele><time>2026-04-26T16:06:48.101Z</time></trkpt><trkpt lat="45.6541191" lon="10.0316565"><ele>186.0</ele><time>2026-04-26T16:06:49.102Z</time></trkpt><trkpt lat="45.6541012" lon="10.0315414"><ele>185.8</ele><time>2026-04-26T16:06:50.102Z</time></trkpt><trkpt lat="45.6540815" lon="10.0314177"><ele>185.60000000000002</ele><time>2026-04-26T16:06:51.102Z</time></trkpt><trkpt lat="45.6540582" lon="10.0312908"><ele>185.4</ele><time>2026-04-26T16:06:52.102Z</time></trkpt><trkpt lat="45.6540363" lon="10.031164"><ele>185.2</ele><time>2026-04-26T16:06:53.102Z</time></trkpt><trkpt lat="45.6540132" lon="10.0310375"><ele>185.0</ele><time>2026-04-26T16:06:54.102Z</time></trkpt><trkpt lat="45.6539933" lon="10.0309156"><ele>185.6</ele><time>2026-04-26T16:06:55.102Z</time></trkpt><trkpt lat="45.6539745" lon="10.0307953"><ele>186.2</ele><time>2026-04-26T16:06:56.102Z</time></trkpt><trkpt lat="45.6539526" lon="10.0306702"><ele>186.8</ele><time>2026-04-26T16:06:57.102Z</time></trkpt><trkpt lat="45.6539316" lon="10.0305366"><ele>187.4</ele><time>2026-04-26T16:06:58.102Z</time></trkpt><trkpt lat="45.6539064" lon="10.0304056"><ele>188.0</ele><time>2026-04-26T16:06:59.102Z</time></trkpt><trkpt lat="45.6538718" lon="10.0302634"><ele>188.0</ele><time>2026-04-26T16:07:00.102Z</time></trkpt><trkpt lat="45.6538263" lon="10.0301072"><ele>188.0</ele><time>2026-04-26T16:07:01.102Z</time></trkpt><trkpt lat="45.6537727" lon="10.029946"><ele>188.0</ele><time>2026-04-26T16:07:02.102Z</time></trkpt><trkpt lat="45.6537179" lon="10.0297847"><ele>188.0</ele><time>2026-04-26T16:07:03.102Z</time></trkpt><trkpt lat="45.6536588" lon="10.0296253"><ele>187.5</ele><time>2026-04-26T16:07:04.102Z</time></trkpt><trkpt lat="45.6535947" lon="10.0294561"><ele>187.0</ele><time>2026-04-26T16:07:05.102Z</time></trkpt><trkpt lat="45.65353" lon="10.0292793"><ele>186.5</ele><time>2026-04-26T16:07:06.102Z</time></trkpt><trkpt lat="45.6534701" lon="10.0291192"><ele>186.0</ele><time>2026-04-26T16:07:07.102Z</time></trkpt><trkpt lat="45.6534198" lon="10.0289729"><ele>187.0</ele><time>2026-04-26T16:07:08.102Z</time></trkpt><trkpt lat="45.653374" lon="10.0288354"><ele>188.0</ele><time>2026-04-26T16:07:09.102Z</time></trkpt><trkpt lat="45.6533211" lon="10.0286908"><ele>189.0</ele><time>2026-04-26T16:07:10.102Z</time></trkpt><trkpt lat="45.653264" lon="10.0285233"><ele>190.0</ele><time>2026-04-26T16:07:11.102Z</time></trkpt><trkpt lat="45.6532022" lon="10.0283554"><ele>190.5</ele><time>2026-04-26T16:07:12.102Z</time></trkpt><trkpt lat="45.6531407" lon="10.0281888"><ele>191.0</ele><time>2026-04-26T16:07:13.102Z</time></trkpt><trkpt lat="45.6530801" lon="10.0280322"><ele>191.5</ele><time>2026-04-26T16:07:14.102Z</time></trkpt><trkpt lat="45.6530222" lon="10.0278675"><ele>192.0</ele><time>2026-04-26T16:07:15.102Z</time></trkpt><trkpt lat="45.6529663" lon="10.0277067"><ele>192.0</ele><time>2026-04-26T16:07:16.102Z</time></trkpt><trkpt lat="45.6529093" lon="10.0275361"><ele>192.0</ele><time>2026-04-26T16:07:17.102Z</time></trkpt><trkpt lat="45.6528487" lon="10.0273648"><ele>192.0</ele><time>2026-04-26T16:07:18.101Z</time></trkpt><trkpt lat="45.6527891" lon="10.0271944"><ele>192.0</ele><time>2026-04-26T16:07:19.102Z</time></trkpt><trkpt lat="45.6527295" lon="10.0270212"><ele>191.0</ele><time>2026-04-26T16:07:20.102Z</time></trkpt><trkpt lat="45.6526685" lon="10.0268529"><ele>190.0</ele><time>2026-04-26T16:07:21.102Z</time></trkpt><trkpt lat="45.6526085" lon="10.0266864"><ele>189.0</ele><time>2026-04-26T16:07:22.102Z</time></trkpt><trkpt lat="45.6525516" lon="10.0265277"><ele>188.0</ele><time>2026-04-26T16:07:23.102Z</time></trkpt><trkpt lat="45.652497" lon="10.0263738"><ele>188.0</ele><time>2026-04-26T16:07:24.102Z</time></trkpt><trkpt lat="45.6524411" lon="10.0262183"><ele>188.0</ele><time>2026-04-26T16:07:25.101Z</time></trkpt><trkpt lat="45.6523853" lon="10.0260578"><ele>188.0</ele><time>2026-04-26T16:07:26.102Z</time></trkpt><trkpt lat="45.6523292" lon="10.0259039"><ele>188.0</ele><time>2026-04-26T16:07:27.102Z</time></trkpt><trkpt lat="45.6522734" lon="10.0257519"><ele>188.5</ele><time>2026-04-26T16:07:28.102Z</time></trkpt><trkpt lat="45.652216" lon="10.0255979"><ele>189.0</ele><time>2026-04-26T16:07:29.101Z</time></trkpt><trkpt lat="45.6521575" lon="10.0254306"><ele>189.5</ele><time>2026-04-26T16:07:30.102Z</time></trkpt><trkpt lat="45.6520938" lon="10.0252534"><ele>190.0</ele><time>2026-04-26T16:07:31.102Z</time></trkpt><trkpt lat="45.6520302" lon="10.0250767"><ele>189.5</ele><time>2026-04-26T16:07:32.101Z</time></trkpt><trkpt lat="45.6519669" lon="10.0248944"><ele>189.0</ele><time>2026-04-26T16:07:33.102Z</time></trkpt><trkpt lat="45.6519067" lon="10.0247204"><ele>188.5</ele><time>2026-04-26T16:07:34.102Z</time></trkpt><trkpt lat="45.6518487" lon="10.0245534"><ele>188.0</ele><time>2026-04-26T16:07:35.102Z</time></trkpt><trkpt lat="45.6517933" lon="10.0244045"><ele>188.0</ele><time>2026-04-26T16:07:36.102Z</time></trkpt><trkpt lat="45.6517491" lon="10.0242768"><ele>188.0</ele><time>2026-04-26T16:07:37.102Z</time></trkpt><trkpt lat="45.6517053" lon="10.0241662"><ele>188.0</ele><time>2026-04-26T16:07:38.102Z</time></trkpt><trkpt lat="45.6516671" lon="10.0240636"><ele>188.0</ele><time>2026-04-26T16:07:39.102Z</time></trkpt><trkpt lat="45.6516315" lon="10.0239426"><ele>188.0</ele><time>2026-04-26T16:07:40.102Z</time></trkpt><trkpt lat="45.6516072" lon="10.0238219"><ele>188.0</ele><time>2026-04-26T16:07:41.102Z</time></trkpt><trkpt lat="45.651593" lon="10.0236954"><ele>187.8</ele><time>2026-04-26T16:07:42.102Z</time></trkpt><trkpt lat="45.651583" lon="10.0235543"><ele>187.60000000000002</ele><time>2026-04-26T16:07:43.101Z</time></trkpt><trkpt lat="45.6515763" lon="10.0234143"><ele>187.39999999999998</ele><time>2026-04-26T16:07:44.102Z</time></trkpt><trkpt lat="45.6515663" lon="10.023266"><ele>187.2</ele><time>2026-04-26T16:07:45.102Z</time></trkpt><trkpt lat="45.6515597" lon="10.0231334"><ele>187.0</ele><time>2026-04-26T16:07:46.102Z</time></trkpt><trkpt lat="45.6515568" lon="10.0230291"><ele>187.0</ele><time>2026-04-26T16:07:47.102Z</time></trkpt><trkpt lat="45.6515649" lon="10.0228608"><ele>187.0</ele><time>2026-04-26T16:07:49.102Z</time></trkpt><trkpt lat="45.6515689" lon="10.0226742"><ele>187.0</ele><time>2026-04-26T16:07:51.101Z</time></trkpt><trkpt lat="45.6515693" lon="10.0225724"><ele>187.0</ele><time>2026-04-26T16:07:52.101Z</time></trkpt><trkpt lat="45.6515795" lon="10.0224646"><ele>187.0</ele><time>2026-04-26T16:07:53.102Z</time></trkpt><trkpt lat="45.6516004" lon="10.0223596"><ele>187.6</ele><time>2026-04-26T16:07:54.102Z</time></trkpt><trkpt lat="45.6516371" lon="10.0222407"><ele>188.2</ele><time>2026-04-26T16:07:55.102Z</time></trkpt><trkpt lat="45.6516877" lon="10.0221094"><ele>188.8</ele><time>2026-04-26T16:07:56.102Z</time></trkpt><trkpt lat="45.6517532" lon="10.021974"><ele>189.4</ele><time>2026-04-26T16:07:57.102Z</time></trkpt><trkpt lat="45.6518289" lon="10.0218292"><ele>190.0</ele><time>2026-04-26T16:07:58.102Z</time></trkpt><trkpt lat="45.6519113" lon="10.0216708"><ele>189.66666666666669</ele><time>2026-04-26T16:07:59.102Z</time></trkpt><trkpt lat="45.6520008" lon="10.0214988"><ele>189.33333333333334</ele><time>2026-04-26T16:08:00.102Z</time></trkpt><trkpt lat="45.6520965" lon="10.0213174"><ele>189.0</ele><time>2026-04-26T16:08:01.102Z</time></trkpt><trkpt lat="45.6521975" lon="10.0211248"><ele>189.0</ele><time>2026-04-26T16:08:02.102Z</time></trkpt><trkpt lat="45.6523103" lon="10.0209094"><ele>189.0</ele><time>2026-04-26T16:08:03.101Z</time></trkpt><trkpt lat="45.6524379" lon="10.0206773"><ele>189.0</ele><time>2026-04-26T16:08:04.101Z</time></trkpt><trkpt lat="45.652575" lon="10.0204292"><ele>189.0</ele><time>2026-04-26T16:08:05.102Z</time></trkpt><trkpt lat="45.6527198" lon="10.0201639"><ele>189.0</ele><time>2026-04-26T16:08:06.102Z</time></trkpt><trkpt lat="45.6528675" lon="10.0198789"><ele>189.0</ele><time>2026-04-26T16:08:07.102Z</time></trkpt><trkpt lat="45.6530218" lon="10.0195758"><ele>189.0</ele><time>2026-04-26T16:08:08.102Z</time></trkpt><trkpt lat="45.6531812" lon="10.0192688"><ele>188.5</ele><time>2026-04-26T16:08:09.102Z</time></trkpt><trkpt lat="45.653342" lon="10.0189684"><ele>188.0</ele><time>2026-04-26T16:08:10.102Z</time></trkpt><trkpt lat="45.6534938" lon="10.0186756"><ele>188.5</ele><time>2026-04-26T16:08:11.102Z</time></trkpt><trkpt lat="45.6536367" lon="10.0183919"><ele>189.0</ele><time>2026-04-26T16:08:12.102Z</time></trkpt><trkpt lat="45.6537736" lon="10.0181143"><ele>188.0</ele><time>2026-04-26T16:08:13.101Z</time></trkpt><trkpt lat="45.6538934" lon="10.0178217"><ele>187.0</ele><time>2026-04-26T16:08:14.102Z</time></trkpt><trkpt lat="45.6539921" lon="10.0175035"><ele>187.0</ele><time>2026-04-26T16:08:15.101Z</time></trkpt><trkpt lat="45.6540718" lon="10.0171512"><ele>187.0</ele><time>2026-04-26T16:08:16.102Z</time></trkpt><trkpt lat="45.6541403" lon="10.0167781"><ele>187.5</ele><time>2026-04-26T16:08:17.102Z</time></trkpt><trkpt lat="45.654207" lon="10.0163906"><ele>188.0</ele><time>2026-04-26T16:08:18.102Z</time></trkpt><trkpt lat="45.6542726" lon="10.0159978"><ele>189.0</ele><time>2026-04-26T16:08:19.101Z</time></trkpt><trkpt lat="45.6543334" lon="10.0156066"><ele>190.0</ele><time>2026-04-26T16:08:20.102Z</time></trkpt><trkpt lat="45.6543881" lon="10.0152316"><ele>191.5</ele><time>2026-04-26T16:08:21.102Z</time></trkpt><trkpt lat="45.654444" lon="10.0148726"><ele>193.0</ele><time>2026-04-26T16:08:22.102Z</time></trkpt><trkpt lat="45.6544986" lon="10.0145349"><ele>191.33333333333331</ele><time>2026-04-26T16:08:23.102Z</time></trkpt><trkpt lat="45.6545508" lon="10.0142151"><ele>189.66666666666666</ele><time>2026-04-26T16:08:24.102Z</time></trkpt><trkpt lat="45.6545996" lon="10.0139124"><ele>188.0</ele><time>2026-04-26T16:08:25.101Z</time></trkpt><trkpt lat="45.6546462" lon="10.0136201"><ele>188.0</ele><time>2026-04-26T16:08:26.102Z</time></trkpt><trkpt lat="45.6546936" lon="10.0133415"><ele>188.0</ele><time>2026-04-26T16:08:27.102Z</time></trkpt><trkpt lat="45.654734" lon="10.013081"><ele>188.0</ele><time>2026-04-26T16:08:28.101Z</time></trkpt><trkpt lat="45.6547719" lon="10.0128104"><ele>188.66666666666666</ele><time>2026-04-26T16:08:29.102Z</time></trkpt><trkpt lat="45.6548106" lon="10.0125207"><ele>189.33333333333334</ele><time>2026-04-26T16:08:30.101Z</time></trkpt><trkpt lat="45.6548553" lon="10.0122142"><ele>190.0</ele><time>2026-04-26T16:08:31.101Z</time></trkpt><trkpt lat="45.6549082" lon="10.0118987"><ele>190.5</ele><time>2026-04-26T16:08:32.101Z</time></trkpt><trkpt lat="45.654967" lon="10.0115794"><ele>191.0</ele><time>2026-04-26T16:08:33.102Z</time></trkpt><trkpt lat="45.6550212" lon="10.011257"><ele>191.0</ele><time>2026-04-26T16:08:34.102Z</time></trkpt><trkpt lat="45.6550657" lon="10.0109321"><ele>191.0</ele><time>2026-04-26T16:08:35.102Z</time></trkpt><trkpt lat="45.6551146" lon="10.0106156"><ele>192.0</ele><time>2026-04-26T16:08:36.102Z</time></trkpt><trkpt lat="45.6551651" lon="10.0103168"><ele>193.0</ele><time>2026-04-26T16:08:37.102Z</time></trkpt><trkpt lat="45.6552308" lon="10.0100346"><ele>194.0</ele><time>2026-04-26T16:08:38.102Z</time></trkpt><trkpt lat="45.6553126" lon="10.0097668"><ele>194.0</ele><time>2026-04-26T16:08:39.102Z</time></trkpt><trkpt lat="45.6554166" lon="10.0095223"><ele>194.0</ele><time>2026-04-26T16:08:40.101Z</time></trkpt><trkpt lat="45.6555485" lon="10.0092989"><ele>194.0</ele><time>2026-04-26T16:08:41.101Z</time></trkpt><trkpt lat="45.6557029" lon="10.0090981"><ele>194.0</ele><time>2026-04-26T16:08:42.102Z</time></trkpt><trkpt lat="45.6558832" lon="10.0089195"><ele>194.0</ele><time>2026-04-26T16:08:43.102Z</time></trkpt><trkpt lat="45.6560744" lon="10.008751"><ele>194.0</ele><time>2026-04-26T16:08:44.102Z</time></trkpt><trkpt lat="45.6562697" lon="10.0085764"><ele>193.5</ele><time>2026-04-26T16:08:45.102Z</time></trkpt><trkpt lat="45.6564619" lon="10.0084011"><ele>193.0</ele><time>2026-04-26T16:08:46.102Z</time></trkpt><trkpt lat="45.6566588" lon="10.0082282"><ele>193.0</ele><time>2026-04-26T16:08:47.102Z</time></trkpt><trkpt lat="45.6568584" lon="10.0080613"><ele>193.0</ele><time>2026-04-26T16:08:48.102Z</time></trkpt><trkpt lat="45.6570554" lon="10.0078944"><ele>194.5</ele><time>2026-04-26T16:08:49.102Z</time></trkpt><trkpt lat="45.6572449" lon="10.0077158"><ele>196.0</ele><time>2026-04-26T16:08:50.102Z</time></trkpt><trkpt lat="45.6574283" lon="10.0075195"><ele>193.5</ele><time>2026-04-26T16:08:51.101Z</time></trkpt><trkpt lat="45.6576018" lon="10.0073115"><ele>191.0</ele><time>2026-04-26T16:08:52.102Z</time></trkpt><trkpt lat="45.657766" lon="10.0070887"><ele>191.5</ele><time>2026-04-26T16:08:53.102Z</time></trkpt><trkpt lat="45.6579119" lon="10.0068425"><ele>192.0</ele><time>2026-04-26T16:08:54.101Z</time></trkpt><trkpt lat="45.6580453" lon="10.0065765"><ele>192.0</ele><time>2026-04-26T16:08:55.102Z</time></trkpt><trkpt lat="45.6581694" lon="10.0063093"><ele>192.0</ele><time>2026-04-26T16:08:56.102Z</time></trkpt><trkpt lat="45.6582891" lon="10.0060382"><ele>192.0</ele><time>2026-04-26T16:08:57.102Z</time></trkpt><trkpt lat="45.6584071" lon="10.0057775"><ele>191.66666666666666</ele><time>2026-04-26T16:08:58.102Z</time></trkpt><trkpt lat="45.6585226" lon="10.0055266"><ele>191.33333333333331</ele><time>2026-04-26T16:08:59.102Z</time></trkpt><trkpt lat="45.6586306" lon="10.0052912"><ele>191.0</ele><time>2026-04-26T16:09:00.102Z</time></trkpt><trkpt lat="45.6587355" lon="10.0050651"><ele>191.0</ele><time>2026-04-26T16:09:01.102Z</time></trkpt><trkpt lat="45.6588394" lon="10.0048539"><ele>191.0</ele><time>2026-04-26T16:09:02.102Z</time></trkpt><trkpt lat="45.6589472" lon="10.0046566"><ele>191.0</ele><time>2026-04-26T16:09:03.102Z</time></trkpt><trkpt lat="45.6590587" lon="10.0044772"><ele>191.0</ele><time>2026-04-26T16:09:04.101Z</time></trkpt><trkpt lat="45.6591645" lon="10.0043184"><ele>191.0</ele><time>2026-04-26T16:09:05.102Z</time></trkpt><trkpt lat="45.6592651" lon="10.0041801"><ele>191.0</ele><time>2026-04-26T16:09:06.102Z</time></trkpt><trkpt lat="45.6593611" lon="10.0040455"><ele>191.0</ele><time>2026-04-26T16:09:07.102Z</time></trkpt><trkpt lat="45.659455" lon="10.003919"><ele>191.20000000000002</ele><time>2026-04-26T16:09:08.102Z</time></trkpt><trkpt lat="45.6595421" lon="10.0038045"><ele>191.4</ele><time>2026-04-26T16:09:09.102Z</time></trkpt><trkpt lat="45.659626" lon="10.0036961"><ele>191.6</ele><time>2026-04-26T16:09:10.102Z</time></trkpt><trkpt lat="45.6597059" lon="10.0035945"><ele>191.8</ele><time>2026-04-26T16:09:11.102Z</time></trkpt><trkpt lat="45.6597825" lon="10.0035061"><ele>192.0</ele><time>2026-04-26T16:09:12.102Z</time></trkpt><trkpt lat="45.6598532" lon="10.0034264"><ele>192.0</ele><time>2026-04-26T16:09:13.102Z</time></trkpt><trkpt lat="45.6599163" lon="10.0033475"><ele>192.0</ele><time>2026-04-26T16:09:14.101Z</time></trkpt><trkpt lat="45.659975" lon="10.0032696"><ele>192.0</ele><time>2026-04-26T16:09:15.101Z</time></trkpt><trkpt lat="45.6600356" lon="10.0032031"><ele>192.0</ele><time>2026-04-26T16:09:16.102Z</time></trkpt><trkpt lat="45.6600878" lon="10.0031352"><ele>192.0</ele><time>2026-04-26T16:09:17.101Z</time></trkpt><trkpt lat="45.6601349" lon="10.0030699"><ele>192.0</ele><time>2026-04-26T16:09:18.102Z</time></trkpt><trkpt lat="45.660215" lon="10.0029672"><ele>192.39999999999998</ele><time>2026-04-26T16:09:20.102Z</time></trkpt><trkpt lat="45.6602862" lon="10.0028793"><ele>192.79999999999998</ele><time>2026-04-26T16:09:22.102Z</time></trkpt><trkpt lat="45.6603568" lon="10.0027886"><ele>193.2</ele><time>2026-04-26T16:09:24.102Z</time></trkpt><trkpt lat="45.6604085" lon="10.0027185"><ele>193.6</ele><time>2026-04-26T16:09:26.102Z</time></trkpt><trkpt lat="45.6604679" lon="10.0026164"><ele>194.0</ele><time>2026-04-26T16:09:28.102Z</time></trkpt><trkpt lat="45.6605405" lon="10.0024932"><ele>194.00000000000003</ele><time>2026-04-26T16:09:30.102Z</time></trkpt><trkpt lat="45.6605811" lon="10.0024157"><ele>194.0</ele><time>2026-04-26T16:09:31.102Z</time></trkpt><trkpt lat="45.6606302" lon="10.0023339"><ele>194.0</ele><time>2026-04-26T16:09:32.101Z</time></trkpt><trkpt lat="45.6606849" lon="10.0022458"><ele>194.0</ele><time>2026-04-26T16:09:33.102Z</time></trkpt><trkpt lat="45.6607402" lon="10.0021592"><ele>194.00000000000003</ele><time>2026-04-26T16:09:34.102Z</time></trkpt><trkpt lat="45.6607942" lon="10.0020691"><ele>194.0</ele><time>2026-04-26T16:09:35.102Z</time></trkpt><trkpt lat="45.6608428" lon="10.0019851"><ele>194.0</ele><time>2026-04-26T16:09:36.102Z</time></trkpt><trkpt lat="45.6608821" lon="10.0019109"><ele>194.0</ele><time>2026-04-26T16:09:37.102Z</time></trkpt><trkpt lat="45.6609516" lon="10.0017963"><ele>194.0</ele><time>2026-04-26T16:09:39.102Z</time></trkpt><trkpt lat="45.6610244" lon="10.0016578"><ele>194.0</ele><time>2026-04-26T16:09:41.102Z</time></trkpt><trkpt lat="45.6610747" lon="10.0015608"><ele>194.0</ele><time>2026-04-26T16:09:42.102Z</time></trkpt><trkpt lat="45.6611355" lon="10.0014603"><ele>194.2</ele><time>2026-04-26T16:09:43.102Z</time></trkpt><trkpt lat="45.6611996" lon="10.0013523"><ele>194.39999999999998</ele><time>2026-04-26T16:09:44.101Z</time></trkpt><trkpt lat="45.6612711" lon="10.001239"><ele>194.6</ele><time>2026-04-26T16:09:45.102Z</time></trkpt><trkpt lat="45.6613486" lon="10.0011208"><ele>194.8</ele><time>2026-04-26T16:09:46.102Z</time></trkpt><trkpt lat="45.6614334" lon="10.0010012"><ele>195.0</ele><time>2026-04-26T16:09:47.102Z</time></trkpt><trkpt lat="45.6615213" lon="10.0008838"><ele>195.25</ele><time>2026-04-26T16:09:48.102Z</time></trkpt><trkpt lat="45.6616196" lon="10.0007648"><ele>195.5</ele><time>2026-04-26T16:09:49.102Z</time></trkpt><trkpt lat="45.6617246" lon="10.0006442"><ele>195.75</ele><time>2026-04-26T16:09:50.102Z</time></trkpt><trkpt lat="45.6618325" lon="10.000525"><ele>196.0</ele><time>2026-04-26T16:09:51.102Z</time></trkpt><trkpt lat="45.6619434" lon="10.0004087"><ele>195.0</ele><time>2026-04-26T16:09:52.102Z</time></trkpt><trkpt lat="45.6620457" lon="10.0002984"><ele>194.0</ele><time>2026-04-26T16:09:53.102Z</time></trkpt><trkpt lat="45.6621477" lon="10.0001938"><ele>193.0</ele><time>2026-04-26T16:09:54.102Z</time></trkpt><trkpt lat="45.6622447" lon="10.0000971"><ele>192.0</ele><time>2026-04-26T16:09:55.102Z</time></trkpt><trkpt lat="45.6623339" lon="10.0000104"><ele>192.0</ele><time>2026-04-26T16:09:56.102Z</time></trkpt><trkpt lat="45.6624164" lon="9.9999304"><ele>192.0</ele><time>2026-04-26T16:09:57.102Z</time></trkpt><trkpt lat="45.6624873" lon="9.9998561"><ele>192.0</ele><time>2026-04-26T16:09:58.102Z</time></trkpt><trkpt lat="45.6625469" lon="9.9997905"><ele>192.0</ele><time>2026-04-26T16:09:59.101Z</time></trkpt><trkpt lat="45.6626029" lon="9.999728"><ele>192.0</ele><time>2026-04-26T16:10:00.102Z</time></trkpt><trkpt lat="45.6626568" lon="9.9996721"><ele>192.0</ele><time>2026-04-26T16:10:01.102Z</time></trkpt><trkpt lat="45.6627143" lon="9.9996126"><ele>192.0</ele><time>2026-04-26T16:10:02.102Z</time></trkpt><trkpt lat="45.662774" lon="9.9995494"><ele>192.0</ele><time>2026-04-26T16:10:03.102Z</time></trkpt><trkpt lat="45.6628382" lon="9.9994751"><ele>192.0</ele><time>2026-04-26T16:10:04.102Z</time></trkpt><trkpt lat="45.6629055" lon="9.9994053"><ele>192.0</ele><time>2026-04-26T16:10:05.102Z</time></trkpt><trkpt lat="45.6629768" lon="9.9993297"><ele>192.0</ele><time>2026-04-26T16:10:06.102Z</time></trkpt><trkpt lat="45.6630512" lon="9.99925"><ele>192.0</ele><time>2026-04-26T16:10:07.102Z</time></trkpt><trkpt lat="45.6631314" lon="9.9991687"><ele>191.25</ele><time>2026-04-26T16:10:08.101Z</time></trkpt><trkpt lat="45.663212" lon="9.9990795"><ele>190.5</ele><time>2026-04-26T16:10:09.102Z</time></trkpt><trkpt lat="45.6632981" lon="9.9989841"><ele>189.75</ele><time>2026-04-26T16:10:10.102Z</time></trkpt><trkpt lat="45.6633958" lon="9.9988781"><ele>189.0</ele><time>2026-04-26T16:10:11.102Z</time></trkpt><trkpt lat="45.6635048" lon="9.9987604"><ele>188.75</ele><time>2026-04-26T16:10:12.102Z</time></trkpt><trkpt lat="45.6636208" lon="9.9986364"><ele>188.5</ele><time>2026-04-26T16:10:13.102Z</time></trkpt><trkpt lat="45.663739" lon="9.998508"><ele>188.25</ele><time>2026-04-26T16:10:14.102Z</time></trkpt><trkpt lat="45.6638562" lon="9.9983823"><ele>188.0</ele><time>2026-04-26T16:10:15.101Z</time></trkpt><trkpt lat="45.6639752" lon="9.9982507"><ele>188.0</ele><time>2026-04-26T16:10:16.102Z</time></trkpt><trkpt lat="45.6640899" lon="9.9981163"><ele>188.0</ele><time>2026-04-26T16:10:17.101Z</time></trkpt><trkpt lat="45.6641965" lon="9.9979705"><ele>188.0</ele><time>2026-04-26T16:10:18.102Z</time></trkpt><trkpt lat="45.6642958" lon="9.9978185"><ele>188.0</ele><time>2026-04-26T16:10:19.102Z</time></trkpt><trkpt lat="45.6643849" lon="9.9976627"><ele>187.75</ele><time>2026-04-26T16:10:20.101Z</time></trkpt><trkpt lat="45.6644631" lon="9.9975061"><ele>187.5</ele><time>2026-04-26T16:10:21.101Z</time></trkpt><trkpt lat="45.6645326" lon="9.997346"><ele>187.25</ele><time>2026-04-26T16:10:22.102Z</time></trkpt><trkpt lat="45.6645934" lon="9.9971908"><ele>187.0</ele><time>2026-04-26T16:10:23.101Z</time></trkpt><trkpt lat="45.6646493" lon="9.9970292"><ele>187.0</ele><time>2026-04-26T16:10:24.101Z</time></trkpt><trkpt lat="45.6646982" lon="9.9968662"><ele>187.0</ele><time>2026-04-26T16:10:25.102Z</time></trkpt><trkpt lat="45.6647381" lon="9.9966975"><ele>187.0</ele><time>2026-04-26T16:10:26.102Z</time></trkpt><trkpt lat="45.6647747" lon="9.9965278"><ele>187.0</ele><time>2026-04-26T16:10:27.102Z</time></trkpt><trkpt lat="45.6648041" lon="9.9963595"><ele>187.25</ele><time>2026-04-26T16:10:28.101Z</time></trkpt><trkpt lat="45.6648301" lon="9.996181"><ele>187.5</ele><time>2026-04-26T16:10:29.101Z</time></trkpt><trkpt lat="45.664852" lon="9.9960026"><ele>187.75</ele><time>2026-04-26T16:10:30.102Z</time></trkpt><trkpt lat="45.6648758" lon="9.9958176"><ele>188.0</ele><time>2026-04-26T16:10:31.102Z</time></trkpt><trkpt lat="45.6648941" lon="9.9956026"><ele>188.66666666666666</ele><time>2026-04-26T16:10:32.101Z</time></trkpt><trkpt lat="45.6649207" lon="9.9953563"><ele>189.33333333333334</ele><time>2026-04-26T16:10:33.102Z</time></trkpt><trkpt lat="45.6649581" lon="9.9951032"><ele>190.0</ele><time>2026-04-26T16:10:34.101Z</time></trkpt><trkpt lat="45.6649992" lon="9.994843"><ele>190.33333333333334</ele><time>2026-04-26T16:10:35.102Z</time></trkpt><trkpt lat="45.6650347" lon="9.9945882"><ele>190.66666666666666</ele><time>2026-04-26T16:10:36.101Z</time></trkpt><trkpt lat="45.6650643" lon="9.9943142"><ele>191.0</ele><time>2026-04-26T16:10:37.102Z</time></trkpt><trkpt lat="45.6650918" lon="9.9940311"><ele>191.66666666666666</ele><time>2026-04-26T16:10:38.101Z</time></trkpt><trkpt lat="45.6651254" lon="9.993741"><ele>192.33333333333331</ele><time>2026-04-26T16:10:39.102Z</time></trkpt><trkpt lat="45.6651645" lon="9.9934453"><ele>193.0</ele><time>2026-04-26T16:10:40.102Z</time></trkpt><trkpt lat="45.665209" lon="9.9931526"><ele>194.33333333333331</ele><time>2026-04-26T16:10:41.102Z</time></trkpt><trkpt lat="45.665258" lon="9.9928659"><ele>195.66666666666669</ele><time>2026-04-26T16:10:42.102Z</time></trkpt><trkpt lat="45.6652979" lon="9.9925725"><ele>197.0</ele><time>2026-04-26T16:10:43.102Z</time></trkpt><trkpt lat="45.6653339" lon="9.9922842"><ele>193.66666666666669</ele><time>2026-04-26T16:10:44.102Z</time></trkpt><trkpt lat="45.6653729" lon="9.9920053"><ele>190.33333333333334</ele><time>2026-04-26T16:10:45.102Z</time></trkpt><trkpt lat="45.6654074" lon="9.9917425"><ele>187.0</ele><time>2026-04-26T16:10:46.102Z</time></trkpt><trkpt lat="45.6654358" lon="9.9914989"><ele>187.0</ele><time>2026-04-26T16:10:47.101Z</time></trkpt><trkpt lat="45.6654593" lon="9.9912811"><ele>187.0</ele><time>2026-04-26T16:10:48.102Z</time></trkpt><trkpt lat="45.6654714" lon="9.9910609"><ele>187.0</ele><time>2026-04-26T16:10:49.102Z</time></trkpt><trkpt lat="45.665467" lon="9.9908442"><ele>187.5</ele><time>2026-04-26T16:10:50.102Z</time></trkpt><trkpt lat="45.6654522" lon="9.9906412"><ele>188.0</ele><time>2026-04-26T16:10:51.101Z</time></trkpt><trkpt lat="45.6654288" lon="9.9904544"><ele>188.5</ele><time>2026-04-26T16:10:52.102Z</time></trkpt><trkpt lat="45.6653988" lon="9.9902841"><ele>189.0</ele><time>2026-04-26T16:10:53.102Z</time></trkpt><trkpt lat="45.665368" lon="9.9901246"><ele>188.5</ele><time>2026-04-26T16:10:54.102Z</time></trkpt><trkpt lat="45.6653341" lon="9.9899598"><ele>188.0</ele><time>2026-04-26T16:10:55.102Z</time></trkpt><trkpt lat="45.6652991" lon="9.9897816"><ele>187.5</ele><time>2026-04-26T16:10:56.102Z</time></trkpt><trkpt lat="45.6652667" lon="9.9895932"><ele>187.0</ele><time>2026-04-26T16:10:57.102Z</time></trkpt><trkpt lat="45.6652367" lon="9.9893982"><ele>187.75</ele><time>2026-04-26T16:10:58.102Z</time></trkpt><trkpt lat="45.6652078" lon="9.9892047"><ele>188.5</ele><time>2026-04-26T16:10:59.102Z</time></trkpt><trkpt lat="45.6651741" lon="9.9890136"><ele>189.25</ele><time>2026-04-26T16:11:00.102Z</time></trkpt><trkpt lat="45.6651352" lon="9.9888241"><ele>190.0</ele><time>2026-04-26T16:11:01.102Z</time></trkpt><trkpt lat="45.6650986" lon="9.9886307"><ele>190.0</ele><time>2026-04-26T16:11:02.102Z</time></trkpt><trkpt lat="45.6650659" lon="9.988433"><ele>190.0</ele><time>2026-04-26T16:11:03.102Z</time></trkpt><trkpt lat="45.6650332" lon="9.9882314"><ele>190.0</ele><time>2026-04-26T16:11:04.101Z</time></trkpt><trkpt lat="45.6649976" lon="9.9880184"><ele>190.0</ele><time>2026-04-26T16:11:05.102Z</time></trkpt><trkpt lat="45.6649613" lon="9.9877978"><ele>190.0</ele><time>2026-04-26T16:11:06.102Z</time></trkpt><trkpt lat="45.6649243" lon="9.9875749"><ele>190.0</ele><time>2026-04-26T16:11:07.102Z</time></trkpt><trkpt lat="45.6648811" lon="9.987338"><ele>190.0</ele><time>2026-04-26T16:11:08.102Z</time></trkpt><trkpt lat="45.6648376" lon="9.9870974"><ele>189.66666666666669</ele><time>2026-04-26T16:11:09.102Z</time></trkpt><trkpt lat="45.6647932" lon="9.9868549"><ele>189.33333333333334</ele><time>2026-04-26T16:11:10.102Z</time></trkpt><trkpt lat="45.664748" lon="9.9866055"><ele>189.0</ele><time>2026-04-26T16:11:11.102Z</time></trkpt><trkpt lat="45.6647045" lon="9.9863532"><ele>189.0</ele><time>2026-04-26T16:11:12.102Z</time></trkpt><trkpt lat="45.6646577" lon="9.9861031"><ele>189.0</ele><time>2026-04-26T16:11:13.102Z</time></trkpt><trkpt lat="45.6646121" lon="9.985848"><ele>189.0</ele><time>2026-04-26T16:11:14.102Z</time></trkpt><trkpt lat="45.6645665" lon="9.9855898"><ele>189.0</ele><time>2026-04-26T16:11:15.102Z</time></trkpt><trkpt lat="45.6645174" lon="9.9853241"><ele>189.0</ele><time>2026-04-26T16:11:16.102Z</time></trkpt><trkpt lat="45.664471" lon="9.9850583"><ele>189.0</ele><time>2026-04-26T16:11:17.102Z</time></trkpt><trkpt lat="45.6644245" lon="9.9847963"><ele>190.0</ele><time>2026-04-26T16:11:18.102Z</time></trkpt><trkpt lat="45.6643795" lon="9.9845348"><ele>191.0</ele><time>2026-04-26T16:11:19.102Z</time></trkpt><trkpt lat="45.6643297" lon="9.9842698"><ele>192.0</ele><time>2026-04-26T16:11:20.102Z</time></trkpt><trkpt lat="45.664278" lon="9.9839836"><ele>192.0</ele><time>2026-04-26T16:11:21.102Z</time></trkpt><trkpt lat="45.6642293" lon="9.9836932"><ele>192.0</ele><time>2026-04-26T16:11:22.102Z</time></trkpt><trkpt lat="45.6641827" lon="9.9834054"><ele>192.0</ele><time>2026-04-26T16:11:23.101Z</time></trkpt><trkpt lat="45.6641349" lon="9.9831331"><ele>191.33333333333334</ele><time>2026-04-26T16:11:24.101Z</time></trkpt><trkpt lat="45.6640935" lon="9.9828901"><ele>190.66666666666669</ele><time>2026-04-26T16:11:25.102Z</time></trkpt><trkpt lat="45.6640525" lon="9.9826655"><ele>190.0</ele><time>2026-04-26T16:11:26.102Z</time></trkpt><trkpt lat="45.6640158" lon="9.9824594"><ele>189.5</ele><time>2026-04-26T16:11:27.102Z</time></trkpt><trkpt lat="45.6639803" lon="9.982265"><ele>189.0</ele><time>2026-04-26T16:11:28.101Z</time></trkpt><trkpt lat="45.6639512" lon="9.982095"><ele>188.5</ele><time>2026-04-26T16:11:29.102Z</time></trkpt><trkpt lat="45.6639218" lon="9.9819573"><ele>188.0</ele><time>2026-04-26T16:11:30.102Z</time></trkpt><trkpt lat="45.6638889" lon="9.9818387"><ele>188.0</ele><time>2026-04-26T16:11:31.101Z</time></trkpt><trkpt lat="45.6638483" lon="9.9817207"><ele>188.0</ele><time>2026-04-26T16:11:32.102Z</time></trkpt><trkpt lat="45.6638215" lon="9.9815864"><ele>188.0</ele><time>2026-04-26T16:11:33.102Z</time></trkpt><trkpt lat="45.6637838" lon="9.981435"><ele>188.0</ele><time>2026-04-26T16:11:34.101Z</time></trkpt><trkpt lat="45.6637418" lon="9.9812711"><ele>188.0</ele><time>2026-04-26T16:11:35.102Z</time></trkpt><trkpt lat="45.663711" lon="9.9810985"><ele>188.0</ele><time>2026-04-26T16:11:36.102Z</time></trkpt><trkpt lat="45.6636721" lon="9.9809278"><ele>188.0</ele><time>2026-04-26T16:11:37.102Z</time></trkpt><trkpt lat="45.6636167" lon="9.9807546"><ele>188.0</ele><time>2026-04-26T16:11:38.102Z</time></trkpt><trkpt lat="45.6635547" lon="9.9805788"><ele>188.0</ele><time>2026-04-26T16:11:39.102Z</time></trkpt><trkpt lat="45.6634919" lon="9.9803929"><ele>188.66666666666666</ele><time>2026-04-26T16:11:40.102Z</time></trkpt><trkpt lat="45.6634271" lon="9.9802034"><ele>189.33333333333334</ele><time>2026-04-26T16:11:41.102Z</time></trkpt><trkpt lat="45.6633608" lon="9.9800044"><ele>190.0</ele><time>2026-04-26T16:11:42.102Z</time></trkpt><trkpt lat="45.6632886" lon="9.9798037"><ele>190.0</ele><time>2026-04-26T16:11:43.102Z</time></trkpt><trkpt lat="45.6632157" lon="9.9796018"><ele>190.0</ele><time>2026-04-26T16:11:44.102Z</time></trkpt><trkpt lat="45.6631436" lon="9.9793976"><ele>190.0</ele><time>2026-04-26T16:11:45.102Z</time></trkpt><trkpt lat="45.6630737" lon="9.9791972"><ele>189.5</ele><time>2026-04-26T16:11:46.102Z</time></trkpt><trkpt lat="45.6630038" lon="9.9790016"><ele>189.0</ele><time>2026-04-26T16:11:47.101Z</time></trkpt><trkpt lat="45.6629396" lon="9.9788061"><ele>188.5</ele><time>2026-04-26T16:11:48.102Z</time></trkpt><trkpt lat="45.6628755" lon="9.9786207"><ele>188.0</ele><time>2026-04-26T16:11:49.101Z</time></trkpt><trkpt lat="45.6628139" lon="9.9784539"><ele>191.5</ele><time>2026-04-26T16:11:50.102Z</time></trkpt><trkpt lat="45.6627547" lon="9.978297"><ele>195.0</ele><time>2026-04-26T16:11:51.102Z</time></trkpt><trkpt lat="45.6627023" lon="9.9781454"><ele>198.5</ele><time>2026-04-26T16:11:52.102Z</time></trkpt><trkpt lat="45.6626488" lon="9.9779965"><ele>202.0</ele><time>2026-04-26T16:11:53.102Z</time></trkpt><trkpt lat="45.6625957" lon="9.9778574"><ele>202.0</ele><time>2026-04-26T16:11:54.101Z</time></trkpt><trkpt lat="45.6625397" lon="9.9777191"><ele>202.0</ele><time>2026-04-26T16:11:55.102Z</time></trkpt><trkpt lat="45.6624868" lon="9.9775795"><ele>202.0</ele><time>2026-04-26T16:11:56.101Z</time></trkpt><trkpt lat="45.6624358" lon="9.977427"><ele>202.0</ele><time>2026-04-26T16:11:57.102Z</time></trkpt><trkpt lat="45.6623854" lon="9.9772746"><ele>199.25</ele><time>2026-04-26T16:11:58.102Z</time></trkpt><trkpt lat="45.6623375" lon="9.9771221"><ele>196.5</ele><time>2026-04-26T16:11:59.102Z</time></trkpt><trkpt lat="45.6622983" lon="9.9769668"><ele>193.75</ele><time>2026-04-26T16:12:00.102Z</time></trkpt><trkpt lat="45.6622569" lon="9.9768216"><ele>191.0</ele><time>2026-04-26T16:12:01.102Z</time></trkpt><trkpt lat="45.6622156" lon="9.9766671"><ele>189.5</ele><time>2026-04-26T16:12:02.102Z</time></trkpt><trkpt lat="45.6621712" lon="9.9765112"><ele>188.0</ele><time>2026-04-26T16:12:03.102Z</time></trkpt><trkpt lat="45.6621292" lon="9.9763567"><ele>186.5</ele><time>2026-04-26T16:12:04.102Z</time></trkpt><trkpt lat="45.662086" lon="9.9761935"><ele>185.0</ele><time>2026-04-26T16:12:05.101Z</time></trkpt><trkpt lat="45.66204" lon="9.9760293"><ele>185.0</ele><time>2026-04-26T16:12:06.102Z</time></trkpt><trkpt lat="45.6619934" lon="9.9758616"><ele>185.0</ele><time>2026-04-26T16:12:07.102Z</time></trkpt><trkpt lat="45.6619482" lon="9.9756895"><ele>185.0</ele><time>2026-04-26T16:12:08.102Z</time></trkpt><trkpt lat="45.6619083" lon="9.9755287"><ele>185.0</ele><time>2026-04-26T16:12:09.102Z</time></trkpt><trkpt lat="45.6618712" lon="9.9753748"><ele>186.2</ele><time>2026-04-26T16:12:10.101Z</time></trkpt><trkpt lat="45.6618335" lon="9.975229"><ele>187.4</ele><time>2026-04-26T16:12:11.102Z</time></trkpt><trkpt lat="45.6617989" lon="9.9750915"><ele>188.60000000000002</ele><time>2026-04-26T16:12:12.102Z</time></trkpt><trkpt lat="45.6617606" lon="9.9749507"><ele>189.8</ele><time>2026-04-26T16:12:13.101Z</time></trkpt><trkpt lat="45.661721" lon="9.9748042"><ele>191.0</ele><time>2026-04-26T16:12:14.102Z</time></trkpt><trkpt lat="45.6616791" lon="9.9746611"><ele>191.0</ele><time>2026-04-26T16:12:15.102Z</time></trkpt><trkpt lat="45.6616397" lon="9.9745313"><ele>191.0</ele><time>2026-04-26T16:12:16.102Z</time></trkpt><trkpt lat="45.6616004" lon="9.9744018"><ele>191.0</ele><time>2026-04-26T16:12:17.102Z</time></trkpt><trkpt lat="45.6615634" lon="9.9742613"><ele>191.0</ele><time>2026-04-26T16:12:18.101Z</time></trkpt><trkpt lat="45.6615246" lon="9.9741176"><ele>191.0</ele><time>2026-04-26T16:12:19.102Z</time></trkpt><trkpt lat="45.6614847" lon="9.9739649"><ele>190.0</ele><time>2026-04-26T16:12:20.102Z</time></trkpt><trkpt lat="45.6614386" lon="9.9738091"><ele>189.0</ele><time>2026-04-26T16:12:21.101Z</time></trkpt><trkpt lat="45.6613954" lon="9.9736544"><ele>188.0</ele><time>2026-04-26T16:12:22.102Z</time></trkpt><trkpt lat="45.6613543" lon="9.9734963"><ele>187.0</ele><time>2026-04-26T16:12:23.102Z</time></trkpt><trkpt lat="45.6613082" lon="9.9733329"><ele>186.25</ele><time>2026-04-26T16:12:24.101Z</time></trkpt><trkpt lat="45.661264" lon="9.9731669"><ele>185.5</ele><time>2026-04-26T16:12:25.101Z</time></trkpt><trkpt lat="45.6612207" lon="9.973003"><ele>184.75</ele><time>2026-04-26T16:12:26.102Z</time></trkpt><trkpt lat="45.6611834" lon="9.9728522"><ele>184.0</ele><time>2026-04-26T16:12:27.102Z</time></trkpt><trkpt lat="45.6611513" lon="9.9727247"><ele>184.0</ele><time>2026-04-26T16:12:28.101Z</time></trkpt><trkpt lat="45.6611254" lon="9.9726207"><ele>184.0</ele><time>2026-04-26T16:12:29.102Z</time></trkpt><trkpt lat="45.6611004" lon="9.9725336"><ele>184.0</ele><time>2026-04-26T16:12:30.102Z</time></trkpt><trkpt lat="45.6610604" lon="9.9724057"><ele>184.0</ele><time>2026-04-26T16:12:32.102Z</time></trkpt><trkpt lat="45.6610336" lon="9.9723203"><ele>184.0</ele><time>2026-04-26T16:12:34.102Z</time></trkpt><trkpt lat="45.6609802" lon="9.9722117"><ele>184.0</ele><time>2026-04-26T16:12:37.102Z</time></trkpt><trkpt lat="45.6609229" lon="9.9721115"><ele>184.2</ele><time>2026-04-26T16:12:39.102Z</time></trkpt><trkpt lat="45.6608851" lon="9.972032"><ele>184.39999999999998</ele><time>2026-04-26T16:12:41.101Z</time></trkpt><trkpt lat="45.6608334" lon="9.9719313"><ele>184.6</ele><time>2026-04-26T16:12:52.102Z</time></trkpt><trkpt lat="45.6607578" lon="9.9718061"><ele>184.8</ele><time>2026-04-26T16:12:54.102Z</time></trkpt><trkpt lat="45.6606775" lon="9.9716805"><ele>185.0</ele><time>2026-04-26T16:12:56.102Z</time></trkpt><trkpt lat="45.6606228" lon="9.971603"><ele>185.0</ele><time>2026-04-26T16:12:57.102Z</time></trkpt><trkpt lat="45.6605624" lon="9.9715158"><ele>185.0</ele><time>2026-04-26T16:12:58.102Z</time></trkpt><trkpt lat="45.6605017" lon="9.9714296"><ele>185.0</ele><time>2026-04-26T16:12:59.102Z</time></trkpt><trkpt lat="45.6604327" lon="9.9713427"><ele>185.0</ele><time>2026-04-26T16:13:00.102Z</time></trkpt><trkpt lat="45.6603498" lon="9.9712332"><ele>185.0</ele><time>2026-04-26T16:13:01.102Z</time></trkpt><trkpt lat="45.6602657" lon="9.9711112"><ele>186.0</ele><time>2026-04-26T16:13:02.102Z</time></trkpt><trkpt lat="45.6601838" lon="9.970994"><ele>187.0</ele><time>2026-04-26T16:13:03.102Z</time></trkpt><trkpt lat="45.6601053" lon="9.9708838"><ele>188.0</ele><time>2026-04-26T16:13:04.102Z</time></trkpt><trkpt lat="45.660034" lon="9.9707792"><ele>189.0</ele><time>2026-04-26T16:13:05.102Z</time></trkpt><trkpt lat="45.6599676" lon="9.9706824"><ele>190.0</ele><time>2026-04-26T16:13:06.102Z</time></trkpt><trkpt lat="45.6598957" lon="9.9705858"><ele>190.0</ele><time>2026-04-26T16:13:07.102Z</time></trkpt><trkpt lat="45.6598194" lon="9.9704867"><ele>190.0</ele><time>2026-04-26T16:13:08.101Z</time></trkpt><trkpt lat="45.6597442" lon="9.9703776"><ele>190.0</ele><time>2026-04-26T16:13:09.102Z</time></trkpt><trkpt lat="45.6596638" lon="9.9702603"><ele>190.0</ele><time>2026-04-26T16:13:10.101Z</time></trkpt><trkpt lat="45.6595804" lon="9.9701409"><ele>190.0</ele><time>2026-04-26T16:13:11.102Z</time></trkpt><trkpt lat="45.6594943" lon="9.9700186"><ele>191.0</ele><time>2026-04-26T16:13:12.102Z</time></trkpt><trkpt lat="45.6594059" lon="9.9698901"><ele>192.0</ele><time>2026-04-26T16:13:13.102Z</time></trkpt><trkpt lat="45.659316" lon="9.969765"><ele>193.0</ele><time>2026-04-26T16:13:14.102Z</time></trkpt><trkpt lat="45.6592295" lon="9.9696418"><ele>194.0</ele><time>2026-04-26T16:13:15.102Z</time></trkpt><trkpt lat="45.6591384" lon="9.9695182"><ele>194.0</ele><time>2026-04-26T16:13:16.102Z</time></trkpt><trkpt lat="45.659046" lon="9.9693875"><ele>194.0</ele><time>2026-04-26T16:13:17.102Z</time></trkpt><trkpt lat="45.65895" lon="9.9692552"><ele>194.0</ele><time>2026-04-26T16:13:18.102Z</time></trkpt><trkpt lat="45.6588531" lon="9.96912"><ele>194.0</ele><time>2026-04-26T16:13:19.102Z</time></trkpt><trkpt lat="45.6587544" lon="9.9689794"><ele>193.5</ele><time>2026-04-26T16:13:20.102Z</time></trkpt><trkpt lat="45.6586533" lon="9.9688376"><ele>193.0</ele><time>2026-04-26T16:13:21.102Z</time></trkpt><trkpt lat="45.6585555" lon="9.9686985"><ele>192.5</ele><time>2026-04-26T16:13:22.102Z</time></trkpt><trkpt lat="45.6584648" lon="9.9685645"><ele>192.0</ele><time>2026-04-26T16:13:23.102Z</time></trkpt><trkpt lat="45.6583835" lon="9.9684341"><ele>191.39999999999998</ele><time>2026-04-26T16:13:24.102Z</time></trkpt><trkpt lat="45.6583246" lon="9.9683144"><ele>190.79999999999998</ele><time>2026-04-26T16:13:25.102Z</time></trkpt><trkpt lat="45.6582738" lon="9.9682019"><ele>190.2</ele><time>2026-04-26T16:13:26.102Z</time></trkpt><trkpt lat="45.6582303" lon="9.9680986"><ele>189.6</ele><time>2026-04-26T16:13:27.102Z</time></trkpt><trkpt lat="45.6581908" lon="9.967986"><ele>189.0</ele><time>2026-04-26T16:13:28.102Z</time></trkpt><trkpt lat="45.6581587" lon="9.9678621"><ele>189.0</ele><time>2026-04-26T16:13:29.102Z</time></trkpt><trkpt lat="45.6581388" lon="9.967727"><ele>189.0</ele><time>2026-04-26T16:13:30.102Z</time></trkpt><trkpt lat="45.6581141" lon="9.9675897"><ele>189.0</ele><time>2026-04-26T16:13:31.102Z</time></trkpt><trkpt lat="45.658091" lon="9.9674643"><ele>189.0</ele><time>2026-04-26T16:13:32.101Z</time></trkpt><trkpt lat="45.6580803" lon="9.9673368"><ele>189.0</ele><time>2026-04-26T16:13:33.102Z</time></trkpt><trkpt lat="45.6580735" lon="9.967202"><ele>188.83333333333334</ele><time>2026-04-26T16:13:34.101Z</time></trkpt><trkpt lat="45.6580739" lon="9.9670765"><ele>188.66666666666666</ele><time>2026-04-26T16:13:35.102Z</time></trkpt><trkpt lat="45.6580774" lon="9.9669611"><ele>188.5</ele><time>2026-04-26T16:13:36.102Z</time></trkpt><trkpt lat="45.658086" lon="9.9668494"><ele>188.33333333333331</ele><time>2026-04-26T16:13:37.101Z</time></trkpt><trkpt lat="45.6580971" lon="9.9667392"><ele>188.16666666666666</ele><time>2026-04-26T16:13:38.102Z</time></trkpt><trkpt lat="45.6581118" lon="9.966615"><ele>188.0</ele><time>2026-04-26T16:13:39.102Z</time></trkpt><trkpt lat="45.6581363" lon="9.9664863"><ele>188.2</ele><time>2026-04-26T16:13:40.102Z</time></trkpt><trkpt lat="45.6581693" lon="9.9663474"><ele>188.4</ele><time>2026-04-26T16:13:41.102Z</time></trkpt><trkpt lat="45.658208" lon="9.9662042"><ele>188.6</ele><time>2026-04-26T16:13:42.102Z</time></trkpt><trkpt lat="45.6582556" lon="9.9660629"><ele>188.79999999999998</ele><time>2026-04-26T16:13:43.102Z</time></trkpt><trkpt lat="45.6583126" lon="9.965925"><ele>189.0</ele><time>2026-04-26T16:13:44.102Z</time></trkpt><trkpt lat="45.6583735" lon="9.965795"><ele>189.0</ele><time>2026-04-26T16:13:45.102Z</time></trkpt><trkpt lat="45.6584313" lon="9.9656757"><ele>189.0</ele><time>2026-04-26T16:13:46.102Z</time></trkpt><trkpt lat="45.6584853" lon="9.9655618"><ele>189.0</ele><time>2026-04-26T16:13:47.102Z</time></trkpt><trkpt lat="45.6585346" lon="9.9654556"><ele>189.0</ele><time>2026-04-26T16:13:48.102Z</time></trkpt><trkpt lat="45.6585727" lon="9.9653704"><ele>189.0</ele><time>2026-04-26T16:13:49.101Z</time></trkpt><trkpt lat="45.6586149" lon="9.9652816"><ele>189.0</ele><time>2026-04-26T16:13:51.102Z</time></trkpt><trkpt lat="45.6586501" lon="9.9652028"><ele>188.79999999999998</ele><time>2026-04-26T16:13:54.102Z</time></trkpt><trkpt lat="45.65872" lon="9.9650913"><ele>188.6</ele><time>2026-04-26T16:13:57.102Z</time></trkpt><trkpt lat="45.6587889" lon="9.965002"><ele>188.4</ele><time>2026-04-26T16:13:59.102Z</time></trkpt><trkpt lat="45.6588434" lon="9.964875"><ele>188.2</ele><time>2026-04-26T16:14:01.102Z</time></trkpt><trkpt lat="45.6588006" lon="9.9647162"><ele>188.0</ele><time>2026-04-26T16:14:03.101Z</time></trkpt><trkpt lat="45.6587423" lon="9.9646755"><ele>188.0</ele><time>2026-04-26T16:14:04.102Z</time></trkpt><trkpt lat="45.6586736" lon="9.9646434"><ele>188.0</ele><time>2026-04-26T16:14:05.102Z</time></trkpt><trkpt lat="45.6585832" lon="9.9646648"><ele>188.0</ele><time>2026-04-26T16:14:06.102Z</time></trkpt><trkpt lat="45.6584929" lon="9.9646628"><ele>188.0</ele><time>2026-04-26T16:14:07.102Z</time></trkpt><trkpt lat="45.658393" lon="9.9646418"><ele>188.0</ele><time>2026-04-26T16:14:08.102Z</time></trkpt><trkpt lat="45.6582918" lon="9.9645993"><ele>188.25</ele><time>2026-04-26T16:14:09.102Z</time></trkpt><trkpt lat="45.6581854" lon="9.9645432"><ele>188.5</ele><time>2026-04-26T16:14:10.102Z</time></trkpt><trkpt lat="45.6580823" lon="9.9644651"><ele>188.75</ele><time>2026-04-26T16:14:11.102Z</time></trkpt><trkpt lat="45.6579845" lon="9.9643653"><ele>189.0</ele><time>2026-04-26T16:14:12.101Z</time></trkpt><trkpt lat="45.6578989" lon="9.9642465"><ele>188.75</ele><time>2026-04-26T16:14:13.102Z</time></trkpt><trkpt lat="45.6578223" lon="9.9641162"><ele>188.5</ele><time>2026-04-26T16:14:14.102Z</time></trkpt><trkpt lat="45.6577555" lon="9.9639802"><ele>188.25</ele><time>2026-04-26T16:14:15.101Z</time></trkpt><trkpt lat="45.6576928" lon="9.9638415"><ele>188.0</ele><time>2026-04-26T16:14:16.102Z</time></trkpt><trkpt lat="45.6576343" lon="9.9637008"><ele>188.0</ele><time>2026-04-26T16:14:17.101Z</time></trkpt><trkpt lat="45.6575667" lon="9.9635623"><ele>188.0</ele><time>2026-04-26T16:14:18.102Z</time></trkpt><trkpt lat="45.6575039" lon="9.963417"><ele>188.0</ele><time>2026-04-26T16:14:19.102Z</time></trkpt><trkpt lat="45.6574406" lon="9.9632702"><ele>188.0</ele><time>2026-04-26T16:14:20.101Z</time></trkpt><trkpt lat="45.6573776" lon="9.9631229"><ele>189.0</ele><time>2026-04-26T16:14:21.102Z</time></trkpt><trkpt lat="45.6573182" lon="9.9629815"><ele>190.0</ele><time>2026-04-26T16:14:22.101Z</time></trkpt><trkpt lat="45.6572599" lon="9.9628427"><ele>191.0</ele><time>2026-04-26T16:14:23.102Z</time></trkpt><trkpt lat="45.6572034" lon="9.962706"><ele>192.0</ele><time>2026-04-26T16:14:24.102Z</time></trkpt><trkpt lat="45.6571443" lon="9.9625628"><ele>191.25</ele><time>2026-04-26T16:14:25.102Z</time></trkpt><trkpt lat="45.657085" lon="9.9624183"><ele>190.5</ele><time>2026-04-26T16:14:26.102Z</time></trkpt><trkpt lat="45.6570226" lon="9.962272"><ele>189.75</ele><time>2026-04-26T16:14:27.102Z</time></trkpt><trkpt lat="45.6569619" lon="9.9621248"><ele>189.0</ele><time>2026-04-26T16:14:28.102Z</time></trkpt><trkpt lat="45.6569008" lon="9.9619786"><ele>189.0</ele><time>2026-04-26T16:14:29.102Z</time></trkpt><trkpt lat="45.6568354" lon="9.9618307"><ele>189.0</ele><time>2026-04-26T16:14:30.102Z</time></trkpt><trkpt lat="45.6567642" lon="9.9616759"><ele>189.0</ele><time>2026-04-26T16:14:31.101Z</time></trkpt><trkpt lat="45.6566927" lon="9.9615173"><ele>189.0</ele><time>2026-04-26T16:14:32.102Z</time></trkpt><trkpt lat="45.6566201" lon="9.9613504"><ele>189.0</ele><time>2026-04-26T16:14:33.101Z</time></trkpt><trkpt lat="45.6565355" lon="9.9611788"><ele>189.0</ele><time>2026-04-26T16:14:34.102Z</time></trkpt><trkpt lat="45.6564498" lon="9.9609908"><ele>189.0</ele><time>2026-04-26T16:14:35.102Z</time></trkpt><trkpt lat="45.6563653" lon="9.9607938"><ele>188.66666666666666</ele><time>2026-04-26T16:14:36.102Z</time></trkpt><trkpt lat="45.6562827" lon="9.9605946"><ele>188.33333333333331</ele><time>2026-04-26T16:14:37.102Z</time></trkpt><trkpt lat="45.6561993" lon="9.9603956"><ele>188.0</ele><time>2026-04-26T16:14:38.102Z</time></trkpt><trkpt lat="45.6561168" lon="9.9602052"><ele>188.75</ele><time>2026-04-26T16:14:39.102Z</time></trkpt><trkpt lat="45.6560354" lon="9.9600203"><ele>189.5</ele><time>2026-04-26T16:14:40.102Z</time></trkpt><trkpt lat="45.6559556" lon="9.9598377"><ele>190.25</ele><time>2026-04-26T16:14:41.102Z</time></trkpt><trkpt lat="45.6558771" lon="9.9596622"><ele>191.0</ele><time>2026-04-26T16:14:42.102Z</time></trkpt><trkpt lat="45.6558047" lon="9.9594924"><ele>191.0</ele><time>2026-04-26T16:14:43.102Z</time></trkpt><trkpt lat="45.6557391" lon="9.9593323"><ele>191.0</ele><time>2026-04-26T16:14:44.101Z</time></trkpt><trkpt lat="45.6556786" lon="9.9591862"><ele>191.0</ele><time>2026-04-26T16:14:45.102Z</time></trkpt><trkpt lat="45.6556179" lon="9.959046"><ele>191.0</ele><time>2026-04-26T16:14:46.101Z</time></trkpt><trkpt lat="45.6555622" lon="9.9589141"><ele>191.33333333333331</ele><time>2026-04-26T16:14:47.102Z</time></trkpt><trkpt lat="45.6555098" lon="9.9587864"><ele>191.66666666666666</ele><time>2026-04-26T16:14:48.102Z</time></trkpt><trkpt lat="45.6554613" lon="9.9586747"><ele>192.0</ele><time>2026-04-26T16:14:49.101Z</time></trkpt><trkpt lat="45.6554149" lon="9.9585687"><ele>192.33333333333331</ele><time>2026-04-26T16:14:50.102Z</time></trkpt><trkpt lat="45.6553743" lon="9.9584748"><ele>192.66666666666666</ele><time>2026-04-26T16:14:51.102Z</time></trkpt><trkpt lat="45.6553368" lon="9.9583821"><ele>193.0</ele><time>2026-04-26T16:14:52.102Z</time></trkpt><trkpt lat="45.6552986" lon="9.9582907"><ele>192.49999999999997</ele><time>2026-04-26T16:14:53.102Z</time></trkpt><trkpt lat="45.6552594" lon="9.958199"><ele>192.0</ele><time>2026-04-26T16:14:54.102Z</time></trkpt><trkpt lat="45.6552202" lon="9.9580941"><ele>191.5</ele><time>2026-04-26T16:14:55.102Z</time></trkpt><trkpt lat="45.6551839" lon="9.9579784"><ele>191.0</ele><time>2026-04-26T16:14:56.102Z</time></trkpt><trkpt lat="45.6551485" lon="9.9578599"><ele>190.5</ele><time>2026-04-26T16:14:57.102Z</time></trkpt><trkpt lat="45.6551169" lon="9.9577384"><ele>190.0</ele><time>2026-04-26T16:14:58.102Z</time></trkpt><trkpt lat="45.6550871" lon="9.9576122"><ele>190.5</ele><time>2026-04-26T16:14:59.102Z</time></trkpt><trkpt lat="45.655057" lon="9.9574848"><ele>191.0</ele><time>2026-04-26T16:15:00.102Z</time></trkpt><trkpt lat="45.6550276" lon="9.9573554"><ele>191.5</ele><time>2026-04-26T16:15:01.102Z</time></trkpt><trkpt lat="45.6550021" lon="9.9572341"><ele>192.0</ele><time>2026-04-26T16:15:02.102Z</time></trkpt><trkpt lat="45.6549802" lon="9.9571232"><ele>192.49999999999997</ele><time>2026-04-26T16:15:03.102Z</time></trkpt><trkpt lat="45.6549612" lon="9.9570179"><ele>193.0</ele><time>2026-04-26T16:15:04.102Z</time></trkpt><trkpt lat="45.6549395" lon="9.9569045"><ele>193.0</ele><time>2026-04-26T16:15:05.102Z</time></trkpt><trkpt lat="45.6549086" lon="9.9567725"><ele>193.0</ele><time>2026-04-26T16:15:06.102Z</time></trkpt><trkpt lat="45.6548718" lon="9.9566154"><ele>193.0</ele><time>2026-04-26T16:15:07.101Z</time></trkpt><trkpt lat="45.6548339" lon="9.9564443"><ele>193.0</ele><time>2026-04-26T16:15:08.102Z</time></trkpt><trkpt lat="45.654802" lon="9.9562639"><ele>193.0</ele><time>2026-04-26T16:15:09.101Z</time></trkpt><trkpt lat="45.6547709" lon="9.9560737"><ele>193.0</ele><time>2026-04-26T16:15:10.102Z</time></trkpt><trkpt lat="45.6547331" lon="9.9558848"><ele>193.0</ele><time>2026-04-26T16:15:11.102Z</time></trkpt><trkpt lat="45.6546955" lon="9.9556953"><ele>193.0</ele><time>2026-04-26T16:15:12.102Z</time></trkpt><trkpt lat="45.654661" lon="9.9555094"><ele>193.4</ele><time>2026-04-26T16:15:13.102Z</time></trkpt><trkpt lat="45.6546265" lon="9.9553372"><ele>193.8</ele><time>2026-04-26T16:15:14.102Z</time></trkpt><trkpt lat="45.6545956" lon="9.9551783"><ele>194.2</ele><time>2026-04-26T16:15:15.102Z</time></trkpt><trkpt lat="45.6545681" lon="9.9550333"><ele>194.6</ele><time>2026-04-26T16:15:16.102Z</time></trkpt><trkpt lat="45.6545432" lon="9.9549034"><ele>195.0</ele><time>2026-04-26T16:15:17.102Z</time></trkpt><trkpt lat="45.6545226" lon="9.9547804"><ele>195.6</ele><time>2026-04-26T16:15:18.102Z</time></trkpt><trkpt lat="45.6544998" lon="9.9546608"><ele>196.2</ele><time>2026-04-26T16:15:19.101Z</time></trkpt><trkpt lat="45.6544709" lon="9.954533"><ele>196.8</ele><time>2026-04-26T16:15:20.102Z</time></trkpt><trkpt lat="45.6544429" lon="9.9544008"><ele>197.4</ele><time>2026-04-26T16:15:21.102Z</time></trkpt><trkpt lat="45.6544167" lon="9.9542592"><ele>198.0</ele><time>2026-04-26T16:15:22.102Z</time></trkpt><trkpt lat="45.6543879" lon="9.9541153"><ele>199.0</ele><time>2026-04-26T16:15:23.102Z</time></trkpt><trkpt lat="45.6543599" lon="9.9539711"><ele>200.0</ele><time>2026-04-26T16:15:24.102Z</time></trkpt><trkpt lat="45.654333" lon="9.9538361"><ele>201.0</ele><time>2026-04-26T16:15:25.102Z</time></trkpt><trkpt lat="45.654307" lon="9.9536987"><ele>202.0</ele><time>2026-04-26T16:15:26.102Z</time></trkpt><trkpt lat="45.6542861" lon="9.9535711"><ele>203.0</ele><time>2026-04-26T16:15:27.102Z</time></trkpt><trkpt lat="45.6542603" lon="9.9534496"><ele>203.00000000000003</ele><time>2026-04-26T16:15:28.102Z</time></trkpt><trkpt lat="45.6542392" lon="9.9533402"><ele>203.0</ele><time>2026-04-26T16:15:29.102Z</time></trkpt><trkpt lat="45.6542158" lon="9.9532326"><ele>203.0</ele><time>2026-04-26T16:15:30.101Z</time></trkpt><trkpt lat="45.6541954" lon="9.9531229"><ele>203.0</ele><time>2026-04-26T16:15:31.101Z</time></trkpt><trkpt lat="45.6541734" lon="9.9530068"><ele>203.00000000000003</ele><time>2026-04-26T16:15:32.102Z</time></trkpt><trkpt lat="45.6541503" lon="9.9528897"><ele>203.0</ele><time>2026-04-26T16:15:33.101Z</time></trkpt><trkpt lat="45.654129" lon="9.9527869"><ele>203.00000000000003</ele><time>2026-04-26T16:15:34.102Z</time></trkpt><trkpt lat="45.6541129" lon="9.9526916"><ele>203.0</ele><time>2026-04-26T16:15:35.102Z</time></trkpt><trkpt lat="45.6541056" lon="9.9525482"><ele>203.0</ele><time>2026-04-26T16:15:37.101Z</time></trkpt><trkpt lat="45.654144" lon="9.9523978"><ele>203.0</ele><time>2026-04-26T16:15:39.102Z</time></trkpt><trkpt lat="45.6541845" lon="9.9523126"><ele>203.00000000000003</ele><time>2026-04-26T16:15:40.102Z</time></trkpt><trkpt lat="45.654235" lon="9.9522375"><ele>203.0</ele><time>2026-04-26T16:15:41.102Z</time></trkpt><trkpt lat="45.6542783" lon="9.9520827"><ele>203.66666666666669</ele><time>2026-04-26T16:15:43.102Z</time></trkpt><trkpt lat="45.654218" lon="9.951936"><ele>204.33333333333334</ele><time>2026-04-26T16:15:45.102Z</time></trkpt><trkpt lat="45.6541587" lon="9.9518895"><ele>205.0</ele><time>2026-04-26T16:15:46.101Z</time></trkpt><trkpt lat="45.6540949" lon="9.9518331"><ele>205.66666666666669</ele><time>2026-04-26T16:15:47.102Z</time></trkpt><trkpt lat="45.6540259" lon="9.9517671"><ele>206.33333333333334</ele><time>2026-04-26T16:15:48.102Z</time></trkpt><trkpt lat="45.6539672" lon="9.9516767"><ele>207.0</ele><time>2026-04-26T16:15:49.102Z</time></trkpt><trkpt lat="45.6539247" lon="9.9515564"><ele>207.75</ele><time>2026-04-26T16:15:50.102Z</time></trkpt><trkpt lat="45.6538835" lon="9.9514189"><ele>208.5</ele><time>2026-04-26T16:15:51.101Z</time></trkpt><trkpt lat="45.6538446" lon="9.9512623"><ele>209.25</ele><time>2026-04-26T16:15:52.102Z</time></trkpt><trkpt lat="45.6538032" lon="9.9510977"><ele>210.0</ele><time>2026-04-26T16:15:53.102Z</time></trkpt><trkpt lat="45.6537619" lon="9.95092"><ele>211.0</ele><time>2026-04-26T16:15:54.102Z</time></trkpt><trkpt lat="45.6537138" lon="9.9507126"><ele>212.0</ele><time>2026-04-26T16:15:55.102Z</time></trkpt><trkpt lat="45.6536597" lon="9.950497"><ele>213.0</ele><time>2026-04-26T16:15:56.102Z</time></trkpt><trkpt lat="45.6535652" lon="9.9502149"><ele>213.0</ele><time>2026-04-26T16:15:57.102Z</time></trkpt><trkpt lat="45.6534821" lon="9.9499258"><ele>213.0</ele><time>2026-04-26T16:15:58.102Z</time></trkpt><trkpt lat="45.6533927" lon="9.9496279"><ele>213.0</ele><time>2026-04-26T16:15:59.102Z</time></trkpt><trkpt lat="45.6533011" lon="9.9493314"><ele>212.0</ele><time>2026-04-26T16:16:00.102Z</time></trkpt><trkpt lat="45.6531998" lon="9.9490277"><ele>211.0</ele><time>2026-04-26T16:16:01.102Z</time></trkpt><trkpt lat="45.6531064" lon="9.9487186"><ele>211.0</ele><time>2026-04-26T16:16:02.101Z</time></trkpt><trkpt lat="45.6530249" lon="9.9483925"><ele>211.0</ele><time>2026-04-26T16:16:03.102Z</time></trkpt><trkpt lat="45.6529361" lon="9.9480508"><ele>209.5</ele><time>2026-04-26T16:16:04.102Z</time></trkpt><trkpt lat="45.6528596" lon="9.9476896"><ele>208.0</ele><time>2026-04-26T16:16:05.101Z</time></trkpt><trkpt lat="45.6528086" lon="9.947312"><ele>217.5</ele><time>2026-04-26T16:16:06.102Z</time></trkpt><trkpt lat="45.6527727" lon="9.9469221"><ele>227.0</ele><time>2026-04-26T16:16:07.102Z</time></trkpt><trkpt lat="45.652733" lon="9.9465247"><ele>227.0</ele><time>2026-04-26T16:16:08.102Z</time></trkpt><trkpt lat="45.6526951" lon="9.946125"><ele>227.0</ele><time>2026-04-26T16:16:09.102Z</time></trkpt><trkpt lat="45.6526653" lon="9.9457451"><ele>225.0</ele><time>2026-04-26T16:16:10.102Z</time></trkpt><trkpt lat="45.6526306" lon="9.9453787"><ele>223.0</ele><time>2026-04-26T16:16:11.102Z</time></trkpt><trkpt lat="45.6525777" lon="9.9450204"><ele>222.0</ele><time>2026-04-26T16:16:12.102Z</time></trkpt><trkpt lat="45.6525012" lon="9.9446564"><ele>221.0</ele><time>2026-04-26T16:16:13.102Z</time></trkpt><trkpt lat="45.6524097" lon="9.944301"><ele>218.5</ele><time>2026-04-26T16:16:14.102Z</time></trkpt><trkpt lat="45.6523156" lon="9.9439398"><ele>216.0</ele><time>2026-04-26T16:16:15.102Z</time></trkpt><trkpt lat="45.6522227" lon="9.9435786"><ele>215.0</ele><time>2026-04-26T16:16:16.102Z</time></trkpt><trkpt lat="45.6521338" lon="9.9432276"><ele>214.0</ele><time>2026-04-26T16:16:17.101Z</time></trkpt><trkpt lat="45.6520494" lon="9.9428944"><ele>214.0</ele><time>2026-04-26T16:16:18.102Z</time></trkpt><trkpt lat="45.6519682" lon="9.9425804"><ele>214.0</ele><time>2026-04-26T16:16:19.102Z</time></trkpt><trkpt lat="45.6518938" lon="9.9422809"><ele>216.66666666666666</ele><time>2026-04-26T16:16:20.101Z</time></trkpt><trkpt lat="45.6518171" lon="9.9420041"><ele>219.33333333333331</ele><time>2026-04-26T16:16:21.101Z</time></trkpt><trkpt lat="45.6517268" lon="9.941752"><ele>222.0</ele><time>2026-04-26T16:16:22.102Z</time></trkpt><trkpt lat="45.6516243" lon="9.9415273"><ele>222.0</ele><time>2026-04-26T16:16:23.101Z</time></trkpt><trkpt lat="45.6515095" lon="9.941338"><ele>222.0</ele><time>2026-04-26T16:16:24.101Z</time></trkpt><trkpt lat="45.6513831" lon="9.9411799"><ele>222.0</ele><time>2026-04-26T16:16:25.102Z</time></trkpt><trkpt lat="45.6512504" lon="9.9410536"><ele>222.0</ele><time>2026-04-26T16:16:26.102Z</time></trkpt><trkpt lat="45.6511243" lon="9.9409478"><ele>222.0</ele><time>2026-04-26T16:16:27.102Z</time></trkpt><trkpt lat="45.6510037" lon="9.9408506"><ele>222.0</ele><time>2026-04-26T16:16:28.102Z</time></trkpt><trkpt lat="45.6508856" lon="9.9407651"><ele>222.0</ele><time>2026-04-26T16:16:29.102Z</time></trkpt><trkpt lat="45.6507796" lon="9.9406994"><ele>222.2</ele><time>2026-04-26T16:16:30.101Z</time></trkpt><trkpt lat="45.6506716" lon="9.9406346"><ele>222.39999999999998</ele><time>2026-04-26T16:16:31.102Z</time></trkpt><trkpt lat="45.6505768" lon="9.9405636"><ele>222.60000000000002</ele><time>2026-04-26T16:16:32.102Z</time></trkpt><trkpt lat="45.650487" lon="9.9404977"><ele>222.8</ele><time>2026-04-26T16:16:33.102Z</time></trkpt><trkpt lat="45.6504003" lon="9.940442"><ele>223.0</ele><time>2026-04-26T16:16:34.102Z</time></trkpt><trkpt lat="45.650326" lon="9.9403905"><ele>222.99999999999997</ele><time>2026-04-26T16:16:35.102Z</time></trkpt><trkpt lat="45.6502582" lon="9.9403432"><ele>223.0</ele><time>2026-04-26T16:16:36.102Z</time></trkpt><trkpt lat="45.6501846" lon="9.9402865"><ele>223.0</ele><time>2026-04-26T16:16:37.102Z</time></trkpt><trkpt lat="45.6501094" lon="9.9402243"><ele>223.0</ele><time>2026-04-26T16:16:38.102Z</time></trkpt><trkpt lat="45.6500287" lon="9.9401624"><ele>222.99999999999997</ele><time>2026-04-26T16:16:39.102Z</time></trkpt><trkpt lat="45.6499479" lon="9.9401025"><ele>223.0</ele><time>2026-04-26T16:16:40.102Z</time></trkpt><trkpt lat="45.64987" lon="9.940043"><ele>222.99999999999997</ele><time>2026-04-26T16:16:41.102Z</time></trkpt><trkpt lat="45.6497931" lon="9.9399851"><ele>223.0</ele><time>2026-04-26T16:16:42.101Z</time></trkpt><trkpt lat="45.6497192" lon="9.9399303"><ele>223.0</ele><time>2026-04-26T16:16:43.102Z</time></trkpt><trkpt lat="45.6496528" lon="9.9398803"><ele>223.0</ele><time>2026-04-26T16:16:44.102Z</time></trkpt><trkpt lat="45.649594" lon="9.9398351"><ele>222.99999999999997</ele><time>2026-04-26T16:16:45.102Z</time></trkpt><trkpt lat="45.6495383" lon="9.9397923"><ele>223.0</ele><time>2026-04-26T16:16:46.102Z</time></trkpt><trkpt lat="45.6494511" lon="9.9397022"><ele>223.99999999999997</ele><time>2026-04-26T16:16:48.102Z</time></trkpt><trkpt lat="45.6493943" lon="9.9396258"><ele>225.0</ele><time>2026-04-26T16:16:50.101Z</time></trkpt><trkpt lat="45.649343" lon="9.9395095"><ele>226.0</ele><time>2026-04-26T16:16:52.102Z</time></trkpt><trkpt lat="45.6493142" lon="9.9394286"><ele>227.0</ele><time>2026-04-26T16:16:53.101Z</time></trkpt><trkpt lat="45.6492598" lon="9.9393226"><ele>227.99999999999997</ele><time>2026-04-26T16:16:55.102Z</time></trkpt><trkpt lat="45.6491859" lon="9.9393018"><ele>229.0</ele><time>2026-04-26T16:16:57.102Z</time></trkpt><trkpt lat="45.6491015" lon="9.9393369"><ele>228.99999999999997</ele><time>2026-04-26T16:16:59.102Z</time></trkpt><trkpt lat="45.6490116" lon="9.9393462"><ele>229.0</ele><time>2026-04-26T16:17:01.102Z</time></trkpt><trkpt lat="45.6488996" lon="9.9393091"><ele>229.0</ele><time>2026-04-26T16:17:03.102Z</time></trkpt><trkpt lat="45.6488342" lon="9.9392787"><ele>229.0</ele><time>2026-04-26T16:17:04.102Z</time></trkpt><trkpt lat="45.6487608" lon="9.9392376"><ele>228.99999999999997</ele><time>2026-04-26T16:17:05.101Z</time></trkpt><trkpt lat="45.6486911" lon="9.9391869"><ele>229.0</ele><time>2026-04-26T16:17:06.101Z</time></trkpt><trkpt lat="45.6486261" lon="9.9391394"><ele>228.83333333333331</ele><time>2026-04-26T16:17:07.101Z</time></trkpt><trkpt lat="45.6485681" lon="9.9390956"><ele>228.66666666666666</ele><time>2026-04-26T16:17:08.102Z</time></trkpt><trkpt lat="45.6485009" lon="9.9390449"><ele>228.5</ele><time>2026-04-26T16:17:10.102Z</time></trkpt><trkpt lat="45.6484182" lon="9.9389799"><ele>228.33333333333331</ele><time>2026-04-26T16:17:13.102Z</time></trkpt><trkpt lat="45.6483029" lon="9.9389"><ele>228.16666666666666</ele><time>2026-04-26T16:17:15.102Z</time></trkpt><trkpt lat="45.6482349" lon="9.938847"><ele>228.0</ele><time>2026-04-26T16:17:16.102Z</time></trkpt><trkpt lat="45.6481657" lon="9.9387918"><ele>228.0</ele><time>2026-04-26T16:17:17.102Z</time></trkpt><trkpt lat="45.648102" lon="9.9387431"><ele>228.0</ele><time>2026-04-26T16:17:18.102Z</time></trkpt><trkpt lat="45.6480413" lon="9.9386921"><ele>228.0</ele><time>2026-04-26T16:17:19.102Z</time></trkpt><trkpt lat="45.6479671" lon="9.9386359"><ele>228.0</ele><time>2026-04-26T16:17:21.102Z</time></trkpt><trkpt lat="45.6478654" lon="9.9385662"><ele>228.0</ele><time>2026-04-26T16:17:30.102Z</time></trkpt><trkpt lat="45.6477588" lon="9.9384882"><ele>228.14285714285714</ele><time>2026-04-26T16:17:32.102Z</time></trkpt><trkpt lat="45.6477018" lon="9.9384467"><ele>228.28571428571428</ele><time>2026-04-26T16:17:34.102Z</time></trkpt><trkpt lat="45.6476403" lon="9.9384024"><ele>228.42857142857142</ele><time>2026-04-26T16:17:40.102Z</time></trkpt><trkpt lat="45.6475828" lon="9.9383646"><ele>228.57142857142856</ele><time>2026-04-26T16:17:41.102Z</time></trkpt><trkpt lat="45.6475156" lon="9.9383132"><ele>228.71428571428572</ele><time>2026-04-26T16:17:42.102Z</time></trkpt><trkpt lat="45.6474413" lon="9.9382572"><ele>228.85714285714283</ele><time>2026-04-26T16:17:43.102Z</time></trkpt><trkpt lat="45.6473585" lon="9.9381985"><ele>229.0</ele><time>2026-04-26T16:17:44.102Z</time></trkpt><trkpt lat="45.6472837" lon="9.9381364"><ele>228.42857142857142</ele><time>2026-04-26T16:17:45.102Z</time></trkpt><trkpt lat="45.6472123" lon="9.938083"><ele>227.8571428571429</ele><time>2026-04-26T16:17:46.101Z</time></trkpt><trkpt lat="45.6471487" lon="9.938036"><ele>227.2857142857143</ele><time>2026-04-26T16:17:47.101Z</time></trkpt><trkpt lat="45.6470803" lon="9.9379828"><ele>226.71428571428572</ele><time>2026-04-26T16:17:48.102Z</time></trkpt><trkpt lat="45.6470165" lon="9.9379266"><ele>226.14285714285717</ele><time>2026-04-26T16:17:49.102Z</time></trkpt><trkpt lat="45.6469484" lon="9.937881"><ele>225.5714285714286</ele><time>2026-04-26T16:17:50.102Z</time></trkpt><trkpt lat="45.6468881" lon="9.9378352"><ele>225.00000000000003</ele><time>2026-04-26T16:17:51.102Z</time></trkpt><trkpt lat="45.6467705" lon="9.9377498"><ele>224.66666666666666</ele><time>2026-04-26T16:17:53.101Z</time></trkpt><trkpt lat="45.646703" lon="9.9377043"><ele>224.33333333333331</ele><time>2026-04-26T16:17:54.102Z</time></trkpt><trkpt lat="45.6466355" lon="9.9376579"><ele>224.0</ele><time>2026-04-26T16:17:55.102Z</time></trkpt><trkpt lat="45.6465606" lon="9.9376091"><ele>223.66666666666666</ele><time>2026-04-26T16:17:56.102Z</time></trkpt><trkpt lat="45.6464871" lon="9.9375501"><ele>223.33333333333331</ele><time>2026-04-26T16:17:57.102Z</time></trkpt><trkpt lat="45.6464167" lon="9.9374945"><ele>223.0</ele><time>2026-04-26T16:17:58.102Z</time></trkpt><trkpt lat="45.6463526" lon="9.9374433"><ele>222.66666666666666</ele><time>2026-04-26T16:17:59.102Z</time></trkpt><trkpt lat="45.6462954" lon="9.9373997"><ele>222.33333333333331</ele><time>2026-04-26T16:18:00.102Z</time></trkpt><trkpt lat="45.6461864" lon="9.9373212"><ele>222.0</ele><time>2026-04-26T16:18:02.102Z</time></trkpt><trkpt lat="45.6461259" lon="9.9372788"><ele>221.66666666666669</ele><time>2026-04-26T16:18:03.102Z</time></trkpt><trkpt lat="45.6460619" lon="9.9372344"><ele>221.33333333333334</ele><time>2026-04-26T16:18:04.102Z</time></trkpt><trkpt lat="45.645995" lon="9.9371888"><ele>221.0</ele><time>2026-04-26T16:18:05.102Z</time></trkpt><trkpt lat="45.645933" lon="9.9371462"><ele>221.00000000000003</ele><time>2026-04-26T16:18:06.102Z</time></trkpt><trkpt lat="45.645864" lon="9.9370931"><ele>221.0</ele><time>2026-04-26T16:18:07.102Z</time></trkpt><trkpt lat="45.6457876" lon="9.9370378"><ele>221.0</ele><time>2026-04-26T16:18:08.102Z</time></trkpt><trkpt lat="45.6457087" lon="9.9369753"><ele>221.0</ele><time>2026-04-26T16:18:09.102Z</time></trkpt><trkpt lat="45.6456246" lon="9.9369134"><ele>221.00000000000003</ele><time>2026-04-26T16:18:10.102Z</time></trkpt><trkpt lat="45.6455387" lon="9.9368527"><ele>221.0</ele><time>2026-04-26T16:18:11.102Z</time></trkpt><trkpt lat="45.6454509" lon="9.9367925"><ele>221.0</ele><time>2026-04-26T16:18:12.102Z</time></trkpt><trkpt lat="45.6453642" lon="9.9367252"><ele>221.00000000000003</ele><time>2026-04-26T16:18:13.102Z</time></trkpt><trkpt lat="45.6452785" lon="9.9366571"><ele>221.00000000000003</ele><time>2026-04-26T16:18:14.102Z</time></trkpt><trkpt lat="45.6451935" lon="9.9365914"><ele>221.0</ele><time>2026-04-26T16:18:15.102Z</time></trkpt><trkpt lat="45.6451115" lon="9.9365301"><ele>221.0</ele><time>2026-04-26T16:18:16.102Z</time></trkpt><trkpt lat="45.6450409" lon="9.9364736"><ele>221.16666666666669</ele><time>2026-04-26T16:18:17.102Z</time></trkpt><trkpt lat="45.6449806" lon="9.9364296"><ele>221.33333333333334</ele><time>2026-04-26T16:18:18.102Z</time></trkpt><trkpt lat="45.644889" lon="9.9363596"><ele>221.5</ele><time>2026-04-26T16:18:20.102Z</time></trkpt><trkpt lat="45.6448138" lon="9.9362875"><ele>221.66666666666669</ele><time>2026-04-26T16:18:22.102Z</time></trkpt><trkpt lat="45.6447613" lon="9.9362013"><ele>221.83333333333334</ele><time>2026-04-26T16:18:24.102Z</time></trkpt><trkpt lat="45.6447208" lon="9.9361232"><ele>222.0</ele><time>2026-04-26T16:18:29.101Z</time></trkpt><trkpt lat="45.6446943" lon="9.9360025"><ele>222.0</ele><time>2026-04-26T16:18:34.102Z</time></trkpt><trkpt lat="45.644625" lon="9.9358589"><ele>222.0</ele><time>2026-04-26T16:18:36.102Z</time></trkpt><trkpt lat="45.6445313" lon="9.9358274"><ele>222.0</ele><time>2026-04-26T16:18:38.101Z</time></trkpt><trkpt lat="45.6444165" lon="9.9358909"><ele>222.0</ele><time>2026-04-26T16:18:40.102Z</time></trkpt><trkpt lat="45.6443524" lon="9.9359074"><ele>222.0</ele><time>2026-04-26T16:18:41.102Z</time></trkpt><trkpt lat="45.6442554" lon="9.9358889"><ele>221.39999999999998</ele><time>2026-04-26T16:18:43.102Z</time></trkpt><trkpt lat="45.6441527" lon="9.9358244"><ele>220.79999999999998</ele><time>2026-04-26T16:18:45.102Z</time></trkpt><trkpt lat="45.6440771" lon="9.9357644"><ele>220.2</ele><time>2026-04-26T16:18:46.102Z</time></trkpt><trkpt lat="45.6439902" lon="9.9356998"><ele>219.6</ele><time>2026-04-26T16:18:47.102Z</time></trkpt><trkpt lat="45.6439024" lon="9.9356347"><ele>219.0</ele><time>2026-04-26T16:18:48.102Z</time></trkpt><trkpt lat="45.6438178" lon="9.9355714"><ele>219.0</ele><time>2026-04-26T16:18:49.102Z</time></trkpt><trkpt lat="45.643734" lon="9.9355088"><ele>219.0</ele><time>2026-04-26T16:18:50.102Z</time></trkpt><trkpt lat="45.6436503" lon="9.9354538"><ele>219.0</ele><time>2026-04-26T16:18:51.102Z</time></trkpt><trkpt lat="45.643586" lon="9.9354041"><ele>219.0</ele><time>2026-04-26T16:18:52.102Z</time></trkpt><trkpt lat="45.6435028" lon="9.9353504"><ele>219.0</ele><time>2026-04-26T16:18:54.102Z</time></trkpt><trkpt lat="45.643437" lon="9.9353026"><ele>219.0</ele><time>2026-04-26T16:18:56.102Z</time></trkpt><trkpt lat="45.6433657" lon="9.9352359"><ele>219.0</ele><time>2026-04-26T16:18:58.102Z</time></trkpt><trkpt lat="45.6432586" lon="9.9351581"><ele>218.99999999999997</ele><time>2026-04-26T16:19:00.102Z</time></trkpt><trkpt lat="45.6431527" lon="9.9350893"><ele>218.99999999999997</ele><time>2026-04-26T16:19:02.102Z</time></trkpt><trkpt lat="45.6430745" lon="9.9350457"><ele>219.0</ele><time>2026-04-26T16:19:04.102Z</time></trkpt><trkpt lat="45.6429843" lon="9.9350131"><ele>219.0</ele><time>2026-04-26T16:20:29.102Z</time></trkpt><trkpt lat="45.642872" lon="9.9349705"><ele>219.0</ele><time>2026-04-26T16:20:31.102Z</time></trkpt><trkpt lat="45.6428073" lon="9.9349498"><ele>219.0</ele><time>2026-04-26T16:20:32.101Z</time></trkpt><trkpt lat="45.6427432" lon="9.9349248"><ele>219.0</ele><time>2026-04-26T16:20:33.102Z</time></trkpt><trkpt lat="45.642631" lon="9.9348939"><ele>219.0</ele><time>2026-04-26T16:20:35.102Z</time></trkpt><trkpt lat="45.6425596" lon="9.934874"><ele>219.0</ele><time>2026-04-26T16:20:37.102Z</time></trkpt><trkpt lat="45.6424796" lon="9.9348828"><ele>219.0</ele><time>2026-04-26T16:20:41.102Z</time></trkpt><trkpt lat="45.6424047" lon="9.9348678"><ele>219.16666666666666</ele><time>2026-04-26T16:20:49.102Z</time></trkpt><trkpt lat="45.6423165" lon="9.9348506"><ele>219.33333333333331</ele><time>2026-04-26T16:20:52.102Z</time></trkpt><trkpt lat="45.6422411" lon="9.9348294"><ele>219.5</ele><time>2026-04-26T16:20:55.101Z</time></trkpt><trkpt lat="45.642166" lon="9.9347909"><ele>219.66666666666666</ele><time>2026-04-26T16:21:02.102Z</time></trkpt><trkpt lat="45.6420883" lon="9.934716"><ele>219.83333333333331</ele><time>2026-04-26T16:21:04.102Z</time></trkpt><trkpt lat="45.642069" lon="9.9346059"><ele>220.0</ele><time>2026-04-26T16:21:06.102Z</time></trkpt><trkpt lat="45.6421383" lon="9.9345153"><ele>219.99999999999997</ele><time>2026-04-26T16:21:08.102Z</time></trkpt><trkpt lat="45.6422393" lon="9.9344421"><ele>220.0</ele><time>2026-04-26T16:21:10.101Z</time></trkpt><trkpt lat="45.6422896" lon="9.9343157"><ele>220.0</ele><time>2026-04-26T16:21:12.102Z</time></trkpt><trkpt lat="45.642301" lon="9.9342238"><ele>220.0</ele><time>2026-04-26T16:21:13.101Z</time></trkpt><trkpt lat="45.6423167" lon="9.9341161"><ele>219.99999999999997</ele><time>2026-04-26T16:21:14.101Z</time></trkpt><trkpt lat="45.6423318" lon="9.9340143"><ele>220.0</ele><time>2026-04-26T16:21:15.102Z</time></trkpt><trkpt lat="45.6423743" lon="9.9338428"><ele>219.83333333333331</ele><time>2026-04-26T16:21:17.102Z</time></trkpt><trkpt lat="45.6424091" lon="9.9337555"><ele>219.66666666666666</ele><time>2026-04-26T16:21:18.101Z</time></trkpt><trkpt lat="45.6424421" lon="9.9336476"><ele>219.5</ele><time>2026-04-26T16:21:19.102Z</time></trkpt><trkpt lat="45.6424759" lon="9.9335327"><ele>219.33333333333331</ele><time>2026-04-26T16:21:20.102Z</time></trkpt><trkpt lat="45.6425031" lon="9.9334255"><ele>219.16666666666666</ele><time>2026-04-26T16:21:21.102Z</time></trkpt><trkpt lat="45.6425164" lon="9.9333162"><ele>219.0</ele><time>2026-04-26T16:21:22.102Z</time></trkpt><trkpt lat="45.6425044" lon="9.9332031"><ele>219.0</ele><time>2026-04-26T16:21:23.101Z</time></trkpt><trkpt lat="45.6424846" lon="9.9331008"><ele>219.0</ele><time>2026-04-26T16:21:24.102Z</time></trkpt><trkpt lat="45.6424659" lon="9.9330055"><ele>219.0</ele><time>2026-04-26T16:21:25.101Z</time></trkpt><trkpt lat="45.6424524" lon="9.932908"><ele>219.0</ele><time>2026-04-26T16:21:26.102Z</time></trkpt><trkpt lat="45.6424389" lon="9.9328185"><ele>219.0</ele><time>2026-04-26T16:21:27.102Z</time></trkpt><trkpt lat="45.6424295" lon="9.9326461"><ele>219.0</ele><time>2026-04-26T16:21:29.101Z</time></trkpt><trkpt lat="45.6424392" lon="9.9324613"><ele>219.0</ele><time>2026-04-26T16:21:31.102Z</time></trkpt><trkpt lat="45.6424639" lon="9.9323602"><ele>219.0</ele><time>2026-04-26T16:21:32.102Z</time></trkpt><trkpt lat="45.6424905" lon="9.9322704"><ele>219.0</ele><time>2026-04-26T16:21:33.102Z</time></trkpt><trkpt lat="45.6425322" lon="9.932157"><ele>219.0</ele><time>2026-04-26T16:21:35.101Z</time></trkpt><trkpt lat="45.6424697" lon="9.9320325"><ele>219.0</ele><time>2026-04-26T16:21:38.102Z</time></trkpt><trkpt lat="45.6424061" lon="9.9319933"><ele>219.0</ele><time>2026-04-26T16:21:39.101Z</time></trkpt><trkpt lat="45.6423324" lon="9.9319535"><ele>219.0</ele><time>2026-04-26T16:21:40.102Z</time></trkpt><trkpt lat="45.642252" lon="9.9319225"><ele>218.99999999999997</ele><time>2026-04-26T16:21:41.101Z</time></trkpt><trkpt lat="45.6421752" lon="9.9318921"><ele>218.99999999999997</ele><time>2026-04-26T16:21:42.102Z</time></trkpt><trkpt lat="45.6421082" lon="9.9318669"><ele>219.0</ele><time>2026-04-26T16:21:43.102Z</time></trkpt><trkpt lat="45.6419898" lon="9.9318226"><ele>219.0</ele><time>2026-04-26T16:21:45.102Z</time></trkpt><trkpt lat="45.6418638" lon="9.9317798"><ele>218.83333333333334</ele><time>2026-04-26T16:21:47.102Z</time></trkpt><trkpt lat="45.6417996" lon="9.9317593"><ele>218.66666666666669</ele><time>2026-04-26T16:21:48.102Z</time></trkpt><trkpt lat="45.6417343" lon="9.9317394"><ele>218.5</ele><time>2026-04-26T16:21:49.101Z</time></trkpt><trkpt lat="45.6416651" lon="9.9317199"><ele>218.33333333333334</ele><time>2026-04-26T16:21:50.102Z</time></trkpt><trkpt lat="45.6416022" lon="9.9317014"><ele>218.16666666666669</ele><time>2026-04-26T16:21:51.102Z</time></trkpt><trkpt lat="45.6414814" lon="9.9316615"><ele>218.0</ele><time>2026-04-26T16:21:53.102Z</time></trkpt><trkpt lat="45.6414163" lon="9.9316453"><ele>218.0</ele><time>2026-04-26T16:21:54.102Z</time></trkpt><trkpt lat="45.6413533" lon="9.9316474"><ele>218.0</ele><time>2026-04-26T16:21:55.101Z</time></trkpt><trkpt lat="45.6412368" lon="9.931657"><ele>218.0</ele><time>2026-04-26T16:21:57.102Z</time></trkpt><trkpt lat="45.6411171" lon="9.9317085"><ele>218.0</ele><time>2026-04-26T16:21:59.102Z</time></trkpt><trkpt lat="45.6410488" lon="9.931732"><ele>218.0</ele><time>2026-04-26T16:22:00.101Z</time></trkpt><trkpt lat="45.640972" lon="9.9317352"><ele>217.8</ele><time>2026-04-26T16:22:01.102Z</time></trkpt><trkpt lat="45.6408908" lon="9.9317298"><ele>217.60000000000002</ele><time>2026-04-26T16:22:02.102Z</time></trkpt><trkpt lat="45.640803" lon="9.9317121"><ele>217.39999999999998</ele><time>2026-04-26T16:22:03.102Z</time></trkpt><trkpt lat="45.6407119" lon="9.9316757"><ele>217.2</ele><time>2026-04-26T16:22:04.101Z</time></trkpt><trkpt lat="45.640621" lon="9.9316299"><ele>217.0</ele><time>2026-04-26T16:22:05.101Z</time></trkpt><trkpt lat="45.6405375" lon="9.9315791"><ele>216.83333333333331</ele><time>2026-04-26T16:22:06.102Z</time></trkpt><trkpt lat="45.6404547" lon="9.9315252"><ele>216.66666666666666</ele><time>2026-04-26T16:22:07.102Z</time></trkpt><trkpt lat="45.640381" lon="9.9314636"><ele>216.5</ele><time>2026-04-26T16:22:08.102Z</time></trkpt><trkpt lat="45.6403162" lon="9.9314014"><ele>216.33333333333331</ele><time>2026-04-26T16:22:09.102Z</time></trkpt><trkpt lat="45.6402562" lon="9.9313377"><ele>216.16666666666666</ele><time>2026-04-26T16:22:10.102Z</time></trkpt><trkpt lat="45.6402032" lon="9.9312742"><ele>216.0</ele><time>2026-04-26T16:22:11.102Z</time></trkpt><trkpt lat="45.6401524" lon="9.931207"><ele>216.0</ele><time>2026-04-26T16:22:12.102Z</time></trkpt><trkpt lat="45.6401034" lon="9.9311464"><ele>216.0</ele><time>2026-04-26T16:22:13.102Z</time></trkpt><trkpt lat="45.6400402" lon="9.9310437"><ele>216.0</ele><time>2026-04-26T16:22:15.102Z</time></trkpt><trkpt lat="45.6399858" lon="9.9309637"><ele>216.0</ele><time>2026-04-26T16:22:22.101Z</time></trkpt><trkpt lat="45.6399882" lon="9.930841"><ele>216.0</ele><time>2026-04-26T16:22:24.102Z</time></trkpt><trkpt lat="45.6400274" lon="9.9307432"><ele>216.0</ele><time>2026-04-26T16:22:25.102Z</time></trkpt><trkpt lat="45.6400891" lon="9.9306349"><ele>216.0</ele><time>2026-04-26T16:22:26.102Z</time></trkpt><trkpt lat="45.6401658" lon="9.9305188"><ele>216.00000000000003</ele><time>2026-04-26T16:22:27.102Z</time></trkpt><trkpt lat="45.6402461" lon="9.9304055"><ele>216.00000000000003</ele><time>2026-04-26T16:22:28.101Z</time></trkpt><trkpt lat="45.6403235" lon="9.9303067"><ele>216.0</ele><time>2026-04-26T16:22:29.102Z</time></trkpt><trkpt lat="45.6404065" lon="9.9302048"><ele>216.0</ele><time>2026-04-26T16:22:30.102Z</time></trkpt><trkpt lat="45.6404941" lon="9.9300816"><ele>216.0</ele><time>2026-04-26T16:22:31.102Z</time></trkpt><trkpt lat="45.6405898" lon="9.9299477"><ele>216.0</ele><time>2026-04-26T16:22:32.102Z</time></trkpt><trkpt lat="45.6406997" lon="9.9298088"><ele>216.0</ele><time>2026-04-26T16:22:33.102Z</time></trkpt><trkpt lat="45.640817" lon="9.9296588"><ele>216.0</ele><time>2026-04-26T16:22:34.101Z</time></trkpt><trkpt lat="45.6409415" lon="9.9294917"><ele>216.0</ele><time>2026-04-26T16:22:35.102Z</time></trkpt><trkpt lat="45.641071" lon="9.9293158"><ele>216.0</ele><time>2026-04-26T16:22:36.102Z</time></trkpt><trkpt lat="45.6412121" lon="9.9291354"><ele>216.0</ele><time>2026-04-26T16:22:37.102Z</time></trkpt><trkpt lat="45.6413561" lon="9.9289442"><ele>216.0</ele><time>2026-04-26T16:22:38.102Z</time></trkpt><trkpt lat="45.6415012" lon="9.9287511"><ele>216.0</ele><time>2026-04-26T16:22:39.102Z</time></trkpt><trkpt lat="45.6416437" lon="9.9285595"><ele>216.0</ele><time>2026-04-26T16:22:40.101Z</time></trkpt><trkpt lat="45.6417808" lon="9.9283716"><ele>215.66666666666669</ele><time>2026-04-26T16:22:41.102Z</time></trkpt><trkpt lat="45.6419186" lon="9.9281869"><ele>215.33333333333334</ele><time>2026-04-26T16:22:42.102Z</time></trkpt><trkpt lat="45.6420551" lon="9.9279999"><ele>215.0</ele><time>2026-04-26T16:22:43.102Z</time></trkpt><trkpt lat="45.6421872" lon="9.9278188"><ele>215.0</ele><time>2026-04-26T16:22:44.102Z</time></trkpt><trkpt lat="45.642318" lon="9.9276347"><ele>215.0</ele><time>2026-04-26T16:22:45.102Z</time></trkpt><trkpt lat="45.6424478" lon="9.9274536"><ele>215.0</ele><time>2026-04-26T16:22:46.102Z</time></trkpt><trkpt lat="45.64258" lon="9.9272702"><ele>215.0</ele><time>2026-04-26T16:22:47.102Z</time></trkpt><trkpt lat="45.6427116" lon="9.9270843"><ele>215.0</ele><time>2026-04-26T16:22:48.102Z</time></trkpt><trkpt lat="45.6428451" lon="9.9269025"><ele>215.0</ele><time>2026-04-26T16:22:49.102Z</time></trkpt><trkpt lat="45.6429744" lon="9.9267248"><ele>214.0</ele><time>2026-04-26T16:22:50.102Z</time></trkpt><trkpt lat="45.6430973" lon="9.9265627"><ele>213.0</ele><time>2026-04-26T16:22:51.101Z</time></trkpt><trkpt lat="45.6432116" lon="9.9264023"><ele>212.0</ele><time>2026-04-26T16:22:52.102Z</time></trkpt><trkpt lat="45.6433204" lon="9.9262476"><ele>212.0</ele><time>2026-04-26T16:22:53.102Z</time></trkpt><trkpt lat="45.6434279" lon="9.9260971"><ele>212.0</ele><time>2026-04-26T16:22:54.102Z</time></trkpt><trkpt lat="45.6435359" lon="9.9259477"><ele>212.0</ele><time>2026-04-26T16:22:55.102Z</time></trkpt><trkpt lat="45.6436461" lon="9.9257979"><ele>212.66666666666669</ele><time>2026-04-26T16:22:56.102Z</time></trkpt><trkpt lat="45.6437591" lon="9.9256479"><ele>213.33333333333331</ele><time>2026-04-26T16:22:57.102Z</time></trkpt><trkpt lat="45.6438714" lon="9.9254906"><ele>214.0</ele><time>2026-04-26T16:22:58.102Z</time></trkpt><trkpt lat="45.6439884" lon="9.9253315"><ele>214.0</ele><time>2026-04-26T16:22:59.102Z</time></trkpt><trkpt lat="45.6441099" lon="9.9251702"><ele>214.0</ele><time>2026-04-26T16:23:00.102Z</time></trkpt><trkpt lat="45.6442333" lon="9.9250031"><ele>214.0</ele><time>2026-04-26T16:23:01.102Z</time></trkpt><trkpt lat="45.6443595" lon="9.924846"><ele>212.0</ele><time>2026-04-26T16:23:02.101Z</time></trkpt><trkpt lat="45.6444842" lon="9.9246948"><ele>210.0</ele><time>2026-04-26T16:23:03.102Z</time></trkpt><trkpt lat="45.6446002" lon="9.9245482"><ele>208.0</ele><time>2026-04-26T16:23:04.102Z</time></trkpt><trkpt lat="45.6447075" lon="9.9244077"><ele>208.0</ele><time>2026-04-26T16:23:05.102Z</time></trkpt><trkpt lat="45.6448077" lon="9.9242765"><ele>208.0</ele><time>2026-04-26T16:23:06.102Z</time></trkpt><trkpt lat="45.6449041" lon="9.9241545"><ele>208.0</ele><time>2026-04-26T16:23:07.102Z</time></trkpt><trkpt lat="45.6449926" lon="9.924043"><ele>208.0</ele><time>2026-04-26T16:23:08.102Z</time></trkpt><trkpt lat="45.6450624" lon="9.9239542"><ele>207.99999999999997</ele><time>2026-04-26T16:23:09.102Z</time></trkpt><trkpt lat="45.6451279" lon="9.9238719"><ele>208.0</ele><time>2026-04-26T16:23:10.102Z</time></trkpt><trkpt lat="45.6451983" lon="9.9237909"><ele>208.0</ele><time>2026-04-26T16:23:11.102Z</time></trkpt><trkpt lat="45.645268" lon="9.9237039"><ele>208.0</ele><time>2026-04-26T16:23:12.102Z</time></trkpt><trkpt lat="45.6453375" lon="9.9236216"><ele>207.99999999999997</ele><time>2026-04-26T16:23:13.102Z</time></trkpt><trkpt lat="45.645403" lon="9.923543"><ele>208.0</ele><time>2026-04-26T16:23:14.101Z</time></trkpt><trkpt lat="45.6454666" lon="9.9234684"><ele>207.66666666666666</ele><time>2026-04-26T16:23:15.101Z</time></trkpt><trkpt lat="45.6455275" lon="9.9233896"><ele>207.33333333333331</ele><time>2026-04-26T16:23:16.102Z</time></trkpt><trkpt lat="45.6455907" lon="9.9233172"><ele>207.0</ele><time>2026-04-26T16:23:17.102Z</time></trkpt><trkpt lat="45.6456593" lon="9.9232368"><ele>206.66666666666669</ele><time>2026-04-26T16:23:18.102Z</time></trkpt><trkpt lat="45.6457223" lon="9.9231636"><ele>206.33333333333334</ele><time>2026-04-26T16:23:19.101Z</time></trkpt><trkpt lat="45.645769" lon="9.9231026"><ele>206.0</ele><time>2026-04-26T16:23:20.102Z</time></trkpt><trkpt lat="45.6458474" lon="9.9229933"><ele>206.0</ele><time>2026-04-26T16:23:22.102Z</time></trkpt><trkpt lat="45.6459158" lon="9.9229085"><ele>206.0</ele><time>2026-04-26T16:23:24.102Z</time></trkpt><trkpt lat="45.6459836" lon="9.9228133"><ele>206.0</ele><time>2026-04-26T16:23:26.102Z</time></trkpt><trkpt lat="45.6460661" lon="9.9227072"><ele>206.0</ele><time>2026-04-26T16:23:28.102Z</time></trkpt><trkpt lat="45.6461236" lon="9.9226323"><ele>206.0</ele><time>2026-04-26T16:23:29.101Z</time></trkpt><trkpt lat="45.6461862" lon="9.9225474"><ele>203.60000000000002</ele><time>2026-04-26T16:23:30.102Z</time></trkpt><trkpt lat="45.6462542" lon="9.9224603"><ele>201.2</ele><time>2026-04-26T16:23:31.102Z</time></trkpt><trkpt lat="45.646324" lon="9.9223636"><ele>198.8</ele><time>2026-04-26T16:23:32.102Z</time></trkpt><trkpt lat="45.6464029" lon="9.922268"><ele>196.39999999999998</ele><time>2026-04-26T16:23:33.102Z</time></trkpt><trkpt lat="45.6464851" lon="9.9221656"><ele>194.0</ele><time>2026-04-26T16:23:34.101Z</time></trkpt><trkpt lat="45.6465695" lon="9.9220584"><ele>194.0</ele><time>2026-04-26T16:23:35.102Z</time></trkpt><trkpt lat="45.6466539" lon="9.9219472"><ele>194.0</ele><time>2026-04-26T16:23:36.102Z</time></trkpt><trkpt lat="45.6467368" lon="9.9218343"><ele>194.0</ele><time>2026-04-26T16:23:37.101Z</time></trkpt><trkpt lat="45.646819" lon="9.9217247"><ele>194.0</ele><time>2026-04-26T16:23:38.102Z</time></trkpt><trkpt lat="45.6469007" lon="9.9216195"><ele>193.2</ele><time>2026-04-26T16:23:39.102Z</time></trkpt><trkpt lat="45.6469815" lon="9.9215155"><ele>192.39999999999998</ele><time>2026-04-26T16:23:40.102Z</time></trkpt><trkpt lat="45.6470607" lon="9.9214145"><ele>191.6</ele><time>2026-04-26T16:23:41.101Z</time></trkpt><trkpt lat="45.6471386" lon="9.9213148"><ele>190.8</ele><time>2026-04-26T16:23:42.102Z</time></trkpt><trkpt lat="45.6472157" lon="9.9212156"><ele>190.0</ele><time>2026-04-26T16:23:43.102Z</time></trkpt><trkpt lat="45.6472927" lon="9.9211147"><ele>190.0</ele><time>2026-04-26T16:23:44.102Z</time></trkpt><trkpt lat="45.6473758" lon="9.921008"><ele>190.0</ele><time>2026-04-26T16:23:45.101Z</time></trkpt><trkpt lat="45.6474613" lon="9.9208964"><ele>190.0</ele><time>2026-04-26T16:23:46.102Z</time></trkpt><trkpt lat="45.6475497" lon="9.9207785"><ele>190.0</ele><time>2026-04-26T16:23:47.102Z</time></trkpt><trkpt lat="45.6476421" lon="9.9206592"><ele>189.5</ele><time>2026-04-26T16:23:48.102Z</time></trkpt><trkpt lat="45.6477382" lon="9.920534"><ele>189.0</ele><time>2026-04-26T16:23:49.102Z</time></trkpt><trkpt lat="45.6478367" lon="9.9204089"><ele>188.5</ele><time>2026-04-26T16:23:50.102Z</time></trkpt><trkpt lat="45.647936" lon="9.9202835"><ele>188.0</ele><time>2026-04-26T16:23:51.102Z</time></trkpt><trkpt lat="45.6480336" lon="9.9201584"><ele>187.0</ele><time>2026-04-26T16:23:52.101Z</time></trkpt><trkpt lat="45.6481265" lon="9.9200382"><ele>186.0</ele><time>2026-04-26T16:23:53.102Z</time></trkpt><trkpt lat="45.6482131" lon="9.919931"><ele>185.0</ele><time>2026-04-26T16:23:54.101Z</time></trkpt><trkpt lat="45.6482892" lon="9.9198309"><ele>184.0</ele><time>2026-04-26T16:23:55.102Z</time></trkpt><trkpt lat="45.6483586" lon="9.9197405"><ele>183.0</ele><time>2026-04-26T16:23:56.102Z</time></trkpt><trkpt lat="45.6484148" lon="9.9196542"><ele>183.0</ele><time>2026-04-26T16:23:57.102Z</time></trkpt><trkpt lat="45.6484575" lon="9.9195648"><ele>183.0</ele><time>2026-04-26T16:23:58.102Z</time></trkpt><trkpt lat="45.6484854" lon="9.9194708"><ele>183.0</ele><time>2026-04-26T16:23:59.102Z</time></trkpt><trkpt lat="45.6484949" lon="9.9193678"><ele>183.0</ele><time>2026-04-26T16:24:00.102Z</time></trkpt><trkpt lat="45.6484896" lon="9.9192506"><ele>183.0</ele><time>2026-04-26T16:24:01.102Z</time></trkpt><trkpt lat="45.6484717" lon="9.9191182"><ele>183.0</ele><time>2026-04-26T16:24:02.102Z</time></trkpt><trkpt lat="45.6484533" lon="9.9189764"><ele>182.2</ele><time>2026-04-26T16:24:03.102Z</time></trkpt><trkpt lat="45.6484318" lon="9.9188253"><ele>181.4</ele><time>2026-04-26T16:24:04.102Z</time></trkpt><trkpt lat="45.648411" lon="9.9186738"><ele>180.6</ele><time>2026-04-26T16:24:05.102Z</time></trkpt><trkpt lat="45.6483925" lon="9.9185263"><ele>179.79999999999998</ele><time>2026-04-26T16:24:06.102Z</time></trkpt><trkpt lat="45.6483712" lon="9.9183796"><ele>179.0</ele><time>2026-04-26T16:24:07.102Z</time></trkpt><trkpt lat="45.6483549" lon="9.9182335"><ele>178.79999999999998</ele><time>2026-04-26T16:24:08.102Z</time></trkpt><trkpt lat="45.6483369" lon="9.9180913"><ele>178.6</ele><time>2026-04-26T16:24:09.102Z</time></trkpt><trkpt lat="45.6483172" lon="9.9179512"><ele>178.4</ele><time>2026-04-26T16:24:10.101Z</time></trkpt><trkpt lat="45.6483003" lon="9.917811"><ele>178.2</ele><time>2026-04-26T16:24:11.101Z</time></trkpt><trkpt lat="45.6482826" lon="9.9176706"><ele>178.0</ele><time>2026-04-26T16:24:12.102Z</time></trkpt><trkpt lat="45.6482554" lon="9.9175331"><ele>177.2</ele><time>2026-04-26T16:24:13.102Z</time></trkpt><trkpt lat="45.6482198" lon="9.9174007"><ele>176.4</ele><time>2026-04-26T16:24:14.102Z</time></trkpt><trkpt lat="45.6481727" lon="9.9172774"><ele>175.6</ele><time>2026-04-26T16:24:15.102Z</time></trkpt><trkpt lat="45.6481232" lon="9.9171686"><ele>174.79999999999998</ele><time>2026-04-26T16:24:16.102Z</time></trkpt><trkpt lat="45.6480696" lon="9.9170569"><ele>174.0</ele><time>2026-04-26T16:24:17.102Z</time></trkpt><trkpt lat="45.6480202" lon="9.9169509"><ele>174.0</ele><time>2026-04-26T16:24:18.102Z</time></trkpt><trkpt lat="45.6479698" lon="9.9168499"><ele>174.0</ele><time>2026-04-26T16:24:19.102Z</time></trkpt><trkpt lat="45.647923" lon="9.9167534"><ele>174.0</ele><time>2026-04-26T16:24:20.101Z</time></trkpt><trkpt lat="45.6478865" lon="9.9166621"><ele>174.0</ele><time>2026-04-26T16:24:21.102Z</time></trkpt><trkpt lat="45.6478551" lon="9.9165107"><ele>174.0</ele><time>2026-04-26T16:24:23.102Z</time></trkpt><trkpt lat="45.6478604" lon="9.916398"><ele>174.0</ele><time>2026-04-26T16:24:25.102Z</time></trkpt><trkpt lat="45.6478671" lon="9.9162984"><ele>173.66666666666666</ele><time>2026-04-26T16:24:27.102Z</time></trkpt><trkpt lat="45.6478764" lon="9.9162048"><ele>173.33333333333334</ele><time>2026-04-26T16:24:29.102Z</time></trkpt><trkpt lat="45.647884" lon="9.9161144"><ele>173.0</ele><time>2026-04-26T16:24:31.102Z</time></trkpt><trkpt lat="45.6478929" lon="9.9159949"><ele>172.66666666666669</ele><time>2026-04-26T16:24:33.102Z</time></trkpt><trkpt lat="45.6478974" lon="9.9158197"><ele>172.33333333333334</ele><time>2026-04-26T16:24:35.102Z</time></trkpt><trkpt lat="45.6479048" lon="9.9157199"><ele>172.0</ele><time>2026-04-26T16:24:36.102Z</time></trkpt><trkpt lat="45.6479116" lon="9.9156215"><ele>172.00000000000003</ele><time>2026-04-26T16:24:37.102Z</time></trkpt><trkpt lat="45.6479199" lon="9.9155268"><ele>172.0</ele><time>2026-04-26T16:24:38.101Z</time></trkpt><trkpt lat="45.6479365" lon="9.9154317"><ele>172.0</ele><time>2026-04-26T16:24:39.101Z</time></trkpt><trkpt lat="45.6479566" lon="9.9153375"><ele>172.0</ele><time>2026-04-26T16:24:40.102Z</time></trkpt><trkpt lat="45.6479793" lon="9.9152384"><ele>172.0</ele><time>2026-04-26T16:24:41.101Z</time></trkpt><trkpt lat="45.6480064" lon="9.9151463"><ele>172.00000000000003</ele><time>2026-04-26T16:24:42.102Z</time></trkpt><trkpt lat="45.6480347" lon="9.9150544"><ele>172.0</ele><time>2026-04-26T16:24:43.101Z</time></trkpt><trkpt lat="45.6480907" lon="9.914905"><ele>174.0</ele><time>2026-04-26T16:24:45.101Z</time></trkpt><trkpt lat="45.6481537" lon="9.9147721"><ele>176.0</ele><time>2026-04-26T16:24:47.102Z</time></trkpt><trkpt lat="45.648221" lon="9.9146315"><ele>178.0</ele><time>2026-04-26T16:24:49.102Z</time></trkpt><trkpt lat="45.6482665" lon="9.9144633"><ele>180.0</ele><time>2026-04-26T16:24:51.101Z</time></trkpt><trkpt lat="45.6482307" lon="9.9143632"><ele>182.0</ele><time>2026-04-26T16:24:52.102Z</time></trkpt><trkpt lat="45.6481831" lon="9.9142498"><ele>185.83333333333331</ele><time>2026-04-26T16:24:53.102Z</time></trkpt><trkpt lat="45.6481337" lon="9.9141327"><ele>189.66666666666666</ele><time>2026-04-26T16:24:54.102Z</time></trkpt><trkpt lat="45.6480712" lon="9.914046"><ele>193.5</ele><time>2026-04-26T16:24:55.102Z</time></trkpt><trkpt lat="45.6480008" lon="9.9140008"><ele>197.33333333333331</ele><time>2026-04-26T16:24:56.102Z</time></trkpt><trkpt lat="45.6479302" lon="9.9140093"><ele>201.16666666666666</ele><time>2026-04-26T16:24:57.101Z</time></trkpt><trkpt lat="45.6478649" lon="9.9140626"><ele>205.0</ele><time>2026-04-26T16:24:58.102Z</time></trkpt><trkpt lat="45.6477939" lon="9.9141496"><ele>203.75</ele><time>2026-04-26T16:24:59.102Z</time></trkpt><trkpt lat="45.6477087" lon="9.9142328"><ele>202.5</ele><time>2026-04-26T16:25:00.102Z</time></trkpt><trkpt lat="45.6476044" lon="9.9142892"><ele>201.25</ele><time>2026-04-26T16:25:01.102Z</time></trkpt><trkpt lat="45.6474806" lon="9.9143276"><ele>200.0</ele><time>2026-04-26T16:25:02.102Z</time></trkpt><trkpt lat="45.6473412" lon="9.9143465"><ele>194.33333333333334</ele><time>2026-04-26T16:25:03.102Z</time></trkpt><trkpt lat="45.6471977" lon="9.9143483"><ele>188.66666666666669</ele><time>2026-04-26T16:25:04.101Z</time></trkpt><trkpt lat="45.6470451" lon="9.9143526"><ele>183.0</ele><time>2026-04-26T16:25:05.102Z</time></trkpt><trkpt lat="45.6468889" lon="9.9143592"><ele>183.0</ele><time>2026-04-26T16:25:06.102Z</time></trkpt><trkpt lat="45.6467324" lon="9.9143778"><ele>183.0</ele><time>2026-04-26T16:25:07.102Z</time></trkpt><trkpt lat="45.6465749" lon="9.914407"><ele>183.0</ele><time>2026-04-26T16:25:08.102Z</time></trkpt><trkpt lat="45.646419" lon="9.9144483"><ele>183.0</ele><time>2026-04-26T16:25:09.101Z</time></trkpt><trkpt lat="45.6462691" lon="9.9145131"><ele>183.0</ele><time>2026-04-26T16:25:10.102Z</time></trkpt><trkpt lat="45.6461262" lon="9.9145983"><ele>183.0</ele><time>2026-04-26T16:25:11.102Z</time></trkpt><trkpt lat="45.6459895" lon="9.9146735"><ele>187.5</ele><time>2026-04-26T16:25:12.101Z</time></trkpt><trkpt lat="45.6458675" lon="9.9147584"><ele>192.0</ele><time>2026-04-26T16:25:13.102Z</time></trkpt><trkpt lat="45.6457602" lon="9.9148434"><ele>196.5</ele><time>2026-04-26T16:25:14.102Z</time></trkpt><trkpt lat="45.6456674" lon="9.914923"><ele>201.0</ele><time>2026-04-26T16:25:15.102Z</time></trkpt><trkpt lat="45.6455796" lon="9.9149954"><ele>201.16666666666666</ele><time>2026-04-26T16:25:16.102Z</time></trkpt><trkpt lat="45.645495" lon="9.9150877"><ele>201.33333333333331</ele><time>2026-04-26T16:25:17.102Z</time></trkpt><trkpt lat="45.6454204" lon="9.9151745"><ele>201.5</ele><time>2026-04-26T16:25:18.101Z</time></trkpt><trkpt lat="45.6453595" lon="9.915259"><ele>201.66666666666666</ele><time>2026-04-26T16:25:19.102Z</time></trkpt><trkpt lat="45.6453007" lon="9.9153266"><ele>201.83333333333331</ele><time>2026-04-26T16:25:20.102Z</time></trkpt><trkpt lat="45.6452449" lon="9.9153752"><ele>202.0</ele><time>2026-04-26T16:25:21.102Z</time></trkpt><trkpt lat="45.6451304" lon="9.9154089"><ele>202.0</ele><time>2026-04-26T16:25:23.102Z</time></trkpt><trkpt lat="45.645071" lon="9.9153738"><ele>202.0</ele><time>2026-04-26T16:25:24.102Z</time></trkpt><trkpt lat="45.6450125" lon="9.9153141"><ele>202.0</ele><time>2026-04-26T16:25:25.101Z</time></trkpt><trkpt lat="45.6449498" lon="9.9152496"><ele>202.0</ele><time>2026-04-26T16:25:26.101Z</time></trkpt><trkpt lat="45.6448933" lon="9.9151793"><ele>202.0</ele><time>2026-04-26T16:25:27.102Z</time></trkpt><trkpt lat="45.6448411" lon="9.9151156"><ele>202.0</ele><time>2026-04-26T16:25:28.102Z</time></trkpt><trkpt lat="45.6447876" lon="9.915051"><ele>202.0</ele><time>2026-04-26T16:25:29.101Z</time></trkpt><trkpt lat="45.6447308" lon="9.9149857"><ele>202.66666666666666</ele><time>2026-04-26T16:25:30.102Z</time></trkpt><trkpt lat="45.6446722" lon="9.9149178"><ele>203.33333333333331</ele><time>2026-04-26T16:25:31.101Z</time></trkpt><trkpt lat="45.6446129" lon="9.9148446"><ele>204.0</ele><time>2026-04-26T16:25:32.102Z</time></trkpt><trkpt lat="45.6445611" lon="9.9147665"><ele>204.66666666666669</ele><time>2026-04-26T16:25:33.102Z</time></trkpt><trkpt lat="45.6445071" lon="9.9146951"><ele>205.33333333333334</ele><time>2026-04-26T16:25:34.102Z</time></trkpt><trkpt lat="45.6444534" lon="9.914621"><ele>206.0</ele><time>2026-04-26T16:25:35.102Z</time></trkpt><trkpt lat="45.6444038" lon="9.9145455"><ele>206.00000000000003</ele><time>2026-04-26T16:25:36.102Z</time></trkpt><trkpt lat="45.6443534" lon="9.9144765"><ele>206.0</ele><time>2026-04-26T16:25:37.102Z</time></trkpt><trkpt lat="45.6443089" lon="9.9144051"><ele>206.0</ele><time>2026-04-26T16:25:38.102Z</time></trkpt><trkpt lat="45.6442531" lon="9.9143336"><ele>206.0</ele><time>2026-04-26T16:25:39.101Z</time></trkpt><trkpt lat="45.6441788" lon="9.9142608"><ele>206.00000000000003</ele><time>2026-04-26T16:25:40.102Z</time></trkpt><trkpt lat="45.644088" lon="9.9141871"><ele>206.0</ele><time>2026-04-26T16:25:41.102Z</time></trkpt><trkpt lat="45.6439756" lon="9.9141004"><ele>205.75</ele><time>2026-04-26T16:25:42.102Z</time></trkpt><trkpt lat="45.6438409" lon="9.9140037"><ele>205.5</ele><time>2026-04-26T16:25:43.102Z</time></trkpt><trkpt lat="45.6437167" lon="9.9139114"><ele>205.25</ele><time>2026-04-26T16:25:44.102Z</time></trkpt><trkpt lat="45.6436026" lon="9.9138215"><ele>205.0</ele><time>2026-04-26T16:25:45.102Z</time></trkpt><trkpt lat="45.643498" lon="9.9137677"><ele>205.0</ele><time>2026-04-26T16:25:46.101Z</time></trkpt><trkpt lat="45.6433978" lon="9.9137145"><ele>205.0</ele><time>2026-04-26T16:25:47.101Z</time></trkpt><trkpt lat="45.6433062" lon="9.9136656"><ele>205.0</ele><time>2026-04-26T16:25:48.102Z</time></trkpt><trkpt lat="45.6432236" lon="9.913598"><ele>205.0</ele><time>2026-04-26T16:25:49.102Z</time></trkpt><trkpt lat="45.6431302" lon="9.9135048"><ele>205.0</ele><time>2026-04-26T16:25:50.102Z</time></trkpt><trkpt lat="45.6430238" lon="9.9133964"><ele>204.0</ele><time>2026-04-26T16:25:51.102Z</time></trkpt><trkpt lat="45.6429031" lon="9.9132664"><ele>203.0</ele><time>2026-04-26T16:25:52.102Z</time></trkpt><trkpt lat="45.6427705" lon="9.913131"><ele>202.0</ele><time>2026-04-26T16:25:53.102Z</time></trkpt><trkpt lat="45.6426298" lon="9.912985"><ele>202.0</ele><time>2026-04-26T16:25:54.102Z</time></trkpt><trkpt lat="45.642485" lon="9.9128342"><ele>202.0</ele><time>2026-04-26T16:25:55.102Z</time></trkpt><trkpt lat="45.6423378" lon="9.9126872"><ele>202.0</ele><time>2026-04-26T16:25:56.102Z</time></trkpt><trkpt lat="45.6421945" lon="9.9125488"><ele>201.66666666666666</ele><time>2026-04-26T16:25:57.102Z</time></trkpt><trkpt lat="45.6420604" lon="9.9124095"><ele>201.33333333333331</ele><time>2026-04-26T16:25:58.102Z</time></trkpt><trkpt lat="45.6419348" lon="9.9122713"><ele>201.0</ele><time>2026-04-26T16:25:59.102Z</time></trkpt><trkpt lat="45.6418216" lon="9.9121461"><ele>201.0</ele><time>2026-04-26T16:26:00.102Z</time></trkpt><trkpt lat="45.6417162" lon="9.9120309"><ele>201.0</ele><time>2026-04-26T16:26:01.102Z</time></trkpt><trkpt lat="45.6416053" lon="9.9119366"><ele>201.0</ele><time>2026-04-26T16:26:02.102Z</time></trkpt><trkpt lat="45.641482" lon="9.9118646"><ele>201.0</ele><time>2026-04-26T16:26:03.102Z</time></trkpt><trkpt lat="45.641357" lon="9.911798"><ele>200.4</ele><time>2026-04-26T16:26:04.102Z</time></trkpt><trkpt lat="45.6412468" lon="9.9117399"><ele>199.8</ele><time>2026-04-26T16:26:05.102Z</time></trkpt><trkpt lat="45.6411543" lon="9.9116852"><ele>199.20000000000002</ele><time>2026-04-26T16:26:06.102Z</time></trkpt><trkpt lat="45.6410647" lon="9.9116157"><ele>198.60000000000002</ele><time>2026-04-26T16:26:07.101Z</time></trkpt><trkpt lat="45.6409696" lon="9.911521"><ele>198.0</ele><time>2026-04-26T16:26:08.102Z</time></trkpt><trkpt lat="45.6408625" lon="9.911414"><ele>198.0</ele><time>2026-04-26T16:26:09.101Z</time></trkpt><trkpt lat="45.6407347" lon="9.9113085"><ele>198.0</ele><time>2026-04-26T16:26:10.102Z</time></trkpt><trkpt lat="45.6405999" lon="9.9111992"><ele>198.0</ele><time>2026-04-26T16:26:11.101Z</time></trkpt><trkpt lat="45.6404608" lon="9.9110774"><ele>198.0</ele><time>2026-04-26T16:26:12.102Z</time></trkpt><trkpt lat="45.6403201" lon="9.9109434"><ele>198.0</ele><time>2026-04-26T16:26:13.102Z</time></trkpt><trkpt lat="45.6401803" lon="9.9107989"><ele>198.0</ele><time>2026-04-26T16:26:14.102Z</time></trkpt><trkpt lat="45.640043" lon="9.9106539"><ele>198.75</ele><time>2026-04-26T16:26:15.102Z</time></trkpt><trkpt lat="45.6399144" lon="9.91051"><ele>199.5</ele><time>2026-04-26T16:26:16.101Z</time></trkpt><trkpt lat="45.6398018" lon="9.9103792"><ele>200.25</ele><time>2026-04-26T16:26:17.102Z</time></trkpt><trkpt lat="45.639709" lon="9.9102629"><ele>201.0</ele><time>2026-04-26T16:26:18.102Z</time></trkpt><trkpt lat="45.6396314" lon="9.9101849"><ele>201.0</ele><time>2026-04-26T16:26:19.102Z</time></trkpt><trkpt lat="45.6395555" lon="9.9101436"><ele>201.0</ele><time>2026-04-26T16:26:20.102Z</time></trkpt><trkpt lat="45.6394944" lon="9.9101667"><ele>201.0</ele><time>2026-04-26T16:26:21.102Z</time></trkpt><trkpt lat="45.6394414" lon="9.910241"><ele>201.0</ele><time>2026-04-26T16:26:22.102Z</time></trkpt><trkpt lat="45.6393829" lon="9.910326"><ele>201.0</ele><time>2026-04-26T16:26:23.102Z</time></trkpt><trkpt lat="45.6393098" lon="9.9103645"><ele>201.0</ele><time>2026-04-26T16:26:24.101Z</time></trkpt><trkpt lat="45.6392238" lon="9.9103583"><ele>200.8</ele><time>2026-04-26T16:26:25.101Z</time></trkpt><trkpt lat="45.6391325" lon="9.9103077"><ele>200.60000000000002</ele><time>2026-04-26T16:26:26.102Z</time></trkpt><trkpt lat="45.6390393" lon="9.910233"><ele>200.4</ele><time>2026-04-26T16:26:27.102Z</time></trkpt><trkpt lat="45.6389414" lon="9.9101466"><ele>200.2</ele><time>2026-04-26T16:26:28.102Z</time></trkpt><trkpt lat="45.6388351" lon="9.9100563"><ele>200.0</ele><time>2026-04-26T16:26:29.102Z</time></trkpt><trkpt lat="45.6387259" lon="9.9099635"><ele>198.75</ele><time>2026-04-26T16:26:30.101Z</time></trkpt><trkpt lat="45.6386161" lon="9.9098678"><ele>197.5</ele><time>2026-04-26T16:26:31.102Z</time></trkpt><trkpt lat="45.6385077" lon="9.9097744"><ele>196.25</ele><time>2026-04-26T16:26:32.102Z</time></trkpt><trkpt lat="45.638397" lon="9.9096847"><ele>195.0</ele><time>2026-04-26T16:26:33.102Z</time></trkpt><trkpt lat="45.638294" lon="9.909597"><ele>195.0</ele><time>2026-04-26T16:26:34.102Z</time></trkpt><trkpt lat="45.6382078" lon="9.9095143"><ele>195.0</ele><time>2026-04-26T16:26:35.102Z</time></trkpt><trkpt lat="45.6381315" lon="9.9094599"><ele>195.0</ele><time>2026-04-26T16:26:36.102Z</time></trkpt><trkpt lat="45.6380508" lon="9.9094295"><ele>195.0</ele><time>2026-04-26T16:26:37.102Z</time></trkpt><trkpt lat="45.6379655" lon="9.9094029"><ele>195.0</ele><time>2026-04-26T16:26:38.102Z</time></trkpt><trkpt lat="45.6378748" lon="9.9093322"><ele>194.25</ele><time>2026-04-26T16:26:39.102Z</time></trkpt><trkpt lat="45.6377807" lon="9.9092294"><ele>193.5</ele><time>2026-04-26T16:26:40.102Z</time></trkpt><trkpt lat="45.6376888" lon="9.9091168"><ele>192.75</ele><time>2026-04-26T16:26:41.102Z</time></trkpt><trkpt lat="45.6375864" lon="9.9090095"><ele>192.0</ele><time>2026-04-26T16:26:42.102Z</time></trkpt><trkpt lat="45.6374773" lon="9.9089097"><ele>192.0</ele><time>2026-04-26T16:26:43.102Z</time></trkpt><trkpt lat="45.6373756" lon="9.9088121"><ele>192.0</ele><time>2026-04-26T16:26:44.102Z</time></trkpt><trkpt lat="45.6372784" lon="9.9087221"><ele>192.0</ele><time>2026-04-26T16:26:45.102Z</time></trkpt><trkpt lat="45.6371907" lon="9.9086404"><ele>192.0</ele><time>2026-04-26T16:26:46.102Z</time></trkpt><trkpt lat="45.6371142" lon="9.9085699"><ele>192.0</ele><time>2026-04-26T16:26:47.102Z</time></trkpt><trkpt lat="45.6370291" lon="9.9085201"><ele>190.6</ele><time>2026-04-26T16:26:48.102Z</time></trkpt><trkpt lat="45.6369342" lon="9.9084769"><ele>189.2</ele><time>2026-04-26T16:26:49.101Z</time></trkpt><trkpt lat="45.6368402" lon="9.9084306"><ele>187.8</ele><time>2026-04-26T16:26:50.102Z</time></trkpt><trkpt lat="45.6367541" lon="9.9083737"><ele>186.4</ele><time>2026-04-26T16:26:51.102Z</time></trkpt><trkpt lat="45.636666" lon="9.9082998"><ele>185.0</ele><time>2026-04-26T16:26:52.102Z</time></trkpt><trkpt lat="45.6365674" lon="9.9082082"><ele>185.0</ele><time>2026-04-26T16:26:53.102Z</time></trkpt><trkpt lat="45.6364633" lon="9.9081049"><ele>185.0</ele><time>2026-04-26T16:26:54.102Z</time></trkpt><trkpt lat="45.6363494" lon="9.9079944"><ele>185.0</ele><time>2026-04-26T16:26:55.102Z</time></trkpt><trkpt lat="45.6362297" lon="9.9078886"><ele>185.0</ele><time>2026-04-26T16:26:56.101Z</time></trkpt><trkpt lat="45.6361004" lon="9.9077908"><ele>184.25</ele><time>2026-04-26T16:26:57.102Z</time></trkpt><trkpt lat="45.6359706" lon="9.9077006"><ele>183.5</ele><time>2026-04-26T16:26:58.102Z</time></trkpt><trkpt lat="45.6358441" lon="9.9076087"><ele>182.75</ele><time>2026-04-26T16:26:59.102Z</time></trkpt><trkpt lat="45.6357239" lon="9.9075182"><ele>182.0</ele><time>2026-04-26T16:27:00.102Z</time></trkpt><trkpt lat="45.6355945" lon="9.9074147"><ele>182.0</ele><time>2026-04-26T16:27:01.102Z</time></trkpt><trkpt lat="45.6354879" lon="9.9073093"><ele>182.0</ele><time>2026-04-26T16:27:02.102Z</time></trkpt><trkpt lat="45.6353829" lon="9.9072402"><ele>182.0</ele><time>2026-04-26T16:27:03.102Z</time></trkpt><trkpt lat="45.6353069" lon="9.9071876"><ele>182.0</ele><time>2026-04-26T16:27:04.102Z</time></trkpt><trkpt lat="45.6352382" lon="9.9071432"><ele>182.0</ele><time>2026-04-26T16:27:05.102Z</time></trkpt><trkpt lat="45.6351676" lon="9.9071268"><ele>179.66666666666666</ele><time>2026-04-26T16:27:06.102Z</time></trkpt><trkpt lat="45.6350999" lon="9.9071318"><ele>177.33333333333331</ele><time>2026-04-26T16:27:07.102Z</time></trkpt><trkpt lat="45.6350371" lon="9.9071755"><ele>175.0</ele><time>2026-04-26T16:27:08.101Z</time></trkpt><trkpt lat="45.634972" lon="9.9072285"><ele>172.66666666666666</ele><time>2026-04-26T16:27:09.102Z</time></trkpt><trkpt lat="45.634911" lon="9.9072763"><ele>170.33333333333334</ele><time>2026-04-26T16:27:10.101Z</time></trkpt><trkpt lat="45.6347991" lon="9.9072632"><ele>168.0</ele><time>2026-04-26T16:27:12.101Z</time></trkpt><trkpt lat="45.6347454" lon="9.9072105"><ele>168.0</ele><time>2026-04-26T16:27:13.102Z</time></trkpt><trkpt lat="45.6346896" lon="9.9071103"><ele>168.0</ele><time>2026-04-26T16:27:14.101Z</time></trkpt><trkpt lat="45.6346297" lon="9.9069924"><ele>168.0</ele><time>2026-04-26T16:27:15.102Z</time></trkpt><trkpt lat="45.6345581" lon="9.9068758"><ele>168.0</ele><time>2026-04-26T16:27:16.102Z</time></trkpt><trkpt lat="45.634478" lon="9.9067813"><ele>168.0</ele><time>2026-04-26T16:27:17.102Z</time></trkpt><trkpt lat="45.6344027" lon="9.9066977"><ele>167.0</ele><time>2026-04-26T16:27:18.101Z</time></trkpt><trkpt lat="45.6343364" lon="9.9066208"><ele>166.0</ele><time>2026-04-26T16:27:19.101Z</time></trkpt><trkpt lat="45.6342635" lon="9.9065346"><ele>165.0</ele><time>2026-04-26T16:27:20.102Z</time></trkpt><trkpt lat="45.6341838" lon="9.9064425"><ele>164.0</ele><time>2026-04-26T16:27:21.102Z</time></trkpt><trkpt lat="45.6340989" lon="9.9063333"><ele>163.0</ele><time>2026-04-26T16:27:22.101Z</time></trkpt><trkpt lat="45.634011" lon="9.9062062"><ele>163.0</ele><time>2026-04-26T16:27:23.102Z</time></trkpt><trkpt lat="45.6339213" lon="9.9060729"><ele>163.0</ele><time>2026-04-26T16:27:24.101Z</time></trkpt><trkpt lat="45.6338309" lon="9.9059277"><ele>163.0</ele><time>2026-04-26T16:27:25.102Z</time></trkpt><trkpt lat="45.6337361" lon="9.9057819"><ele>163.0</ele><time>2026-04-26T16:27:26.102Z</time></trkpt><trkpt lat="45.6336289" lon="9.9056373"><ele>163.0</ele><time>2026-04-26T16:27:27.102Z</time></trkpt><trkpt lat="45.6335122" lon="9.9054923"><ele>163.0</ele><time>2026-04-26T16:27:28.102Z</time></trkpt><trkpt lat="45.6333913" lon="9.9053476"><ele>163.0</ele><time>2026-04-26T16:27:29.102Z</time></trkpt><trkpt lat="45.6332666" lon="9.9052051"><ele>165.66666666666669</ele><time>2026-04-26T16:27:30.102Z</time></trkpt><trkpt lat="45.6331414" lon="9.9050573"><ele>168.33333333333334</ele><time>2026-04-26T16:27:31.102Z</time></trkpt><trkpt lat="45.6330143" lon="9.9049"><ele>171.0</ele><time>2026-04-26T16:27:32.102Z</time></trkpt><trkpt lat="45.6328845" lon="9.9047392"><ele>168.66666666666666</ele><time>2026-04-26T16:27:33.102Z</time></trkpt><trkpt lat="45.6327549" lon="9.9045745"><ele>166.33333333333331</ele><time>2026-04-26T16:27:34.102Z</time></trkpt><trkpt lat="45.6326221" lon="9.9044107"><ele>164.0</ele><time>2026-04-26T16:27:35.102Z</time></trkpt><trkpt lat="45.6324918" lon="9.9042521"><ele>167.33333333333331</ele><time>2026-04-26T16:27:36.102Z</time></trkpt><trkpt lat="45.6323656" lon="9.9041006"><ele>170.66666666666666</ele><time>2026-04-26T16:27:37.102Z</time></trkpt><trkpt lat="45.6322421" lon="9.9039637"><ele>174.0</ele><time>2026-04-26T16:27:38.101Z</time></trkpt><trkpt lat="45.6321299" lon="9.903837"><ele>174.0</ele><time>2026-04-26T16:27:39.101Z</time></trkpt><trkpt lat="45.6320254" lon="9.9037264"><ele>174.0</ele><time>2026-04-26T16:27:40.102Z</time></trkpt><trkpt lat="45.6319178" lon="9.9036235"><ele>174.0</ele><time>2026-04-26T16:27:41.102Z</time></trkpt><trkpt lat="45.6318083" lon="9.9035289"><ele>174.0</ele><time>2026-04-26T16:27:42.102Z</time></trkpt><trkpt lat="45.6316957" lon="9.9034356"><ele>175.75</ele><time>2026-04-26T16:27:43.102Z</time></trkpt><trkpt lat="45.6315801" lon="9.9033453"><ele>177.5</ele><time>2026-04-26T16:27:44.102Z</time></trkpt><trkpt lat="45.6314633" lon="9.9032599"><ele>179.25</ele><time>2026-04-26T16:27:45.102Z</time></trkpt><trkpt lat="45.6313476" lon="9.9031794"><ele>181.0</ele><time>2026-04-26T16:27:46.102Z</time></trkpt><trkpt lat="45.6312347" lon="9.9030999"><ele>178.25</ele><time>2026-04-26T16:27:47.101Z</time></trkpt><trkpt lat="45.6311239" lon="9.9030241"><ele>175.5</ele><time>2026-04-26T16:27:48.102Z</time></trkpt><trkpt lat="45.6310106" lon="9.9029568"><ele>172.75</ele><time>2026-04-26T16:27:49.102Z</time></trkpt><trkpt lat="45.6308916" lon="9.9028822"><ele>170.0</ele><time>2026-04-26T16:27:50.102Z</time></trkpt><trkpt lat="45.6307663" lon="9.9028036"><ele>170.0</ele><time>2026-04-26T16:27:51.102Z</time></trkpt><trkpt lat="45.6306401" lon="9.9027256"><ele>170.0</ele><time>2026-04-26T16:27:52.102Z</time></trkpt><trkpt lat="45.6305141" lon="9.90264"><ele>170.0</ele><time>2026-04-26T16:27:53.102Z</time></trkpt><trkpt lat="45.6303785" lon="9.9025617"><ele>170.0</ele><time>2026-04-26T16:27:54.102Z</time></trkpt><trkpt lat="45.6302299" lon="9.9024914"><ele>177.0</ele><time>2026-04-26T16:27:55.102Z</time></trkpt><trkpt lat="45.6300731" lon="9.9024241"><ele>184.0</ele><time>2026-04-26T16:27:56.102Z</time></trkpt><trkpt lat="45.6299093" lon="9.9023592"><ele>191.0</ele><time>2026-04-26T16:27:57.102Z</time></trkpt><trkpt lat="45.629733" lon="9.9022893"><ele>191.0</ele><time>2026-04-26T16:27:58.102Z</time></trkpt><trkpt lat="45.6295495" lon="9.9022036"><ele>191.0</ele><time>2026-04-26T16:27:59.102Z</time></trkpt><trkpt lat="45.6293678" lon="9.9021079"><ele>191.0</ele><time>2026-04-26T16:28:00.102Z</time></trkpt><trkpt lat="45.6291827" lon="9.9020203"><ele>187.66666666666666</ele><time>2026-04-26T16:28:01.101Z</time></trkpt><trkpt lat="45.6289955" lon="9.9019395"><ele>184.33333333333334</ele><time>2026-04-26T16:28:02.102Z</time></trkpt><trkpt lat="45.6288118" lon="9.9018567"><ele>181.0</ele><time>2026-04-26T16:28:03.102Z</time></trkpt><trkpt lat="45.6286329" lon="9.9017742"><ele>185.66666666666669</ele><time>2026-04-26T16:28:04.102Z</time></trkpt><trkpt lat="45.6284582" lon="9.9016969"><ele>190.33333333333334</ele><time>2026-04-26T16:28:05.102Z</time></trkpt><trkpt lat="45.6283024" lon="9.901624"><ele>195.0</ele><time>2026-04-26T16:28:06.102Z</time></trkpt><trkpt lat="45.628155" lon="9.9015562"><ele>195.0</ele><time>2026-04-26T16:28:07.102Z</time></trkpt><trkpt lat="45.6280173" lon="9.9014941"><ele>195.0</ele><time>2026-04-26T16:28:08.102Z</time></trkpt><trkpt lat="45.6279207" lon="9.9014523"><ele>195.0</ele><time>2026-04-26T16:28:09.101Z</time></trkpt><trkpt lat="45.6278244" lon="9.9014076"><ele>195.0</ele><time>2026-04-26T16:28:10.102Z</time></trkpt><trkpt lat="45.6277503" lon="9.9013473"><ele>195.0</ele><time>2026-04-26T16:28:12.102Z</time></trkpt><trkpt lat="45.6276831" lon="9.9012938"><ele>194.0</ele><time>2026-04-26T16:28:14.101Z</time></trkpt><trkpt lat="45.6276078" lon="9.9012613"><ele>193.0</ele><time>2026-04-26T16:28:15.101Z</time></trkpt><trkpt lat="45.6275142" lon="9.9012332"><ele>192.0</ele><time>2026-04-26T16:28:16.102Z</time></trkpt><trkpt lat="45.6273995" lon="9.9012098"><ele>191.0</ele><time>2026-04-26T16:28:17.102Z</time></trkpt><trkpt lat="45.6272676" lon="9.9011868"><ele>190.0</ele><time>2026-04-26T16:28:18.101Z</time></trkpt><trkpt lat="45.6271291" lon="9.9011577"><ele>187.33333333333334</ele><time>2026-04-26T16:28:19.101Z</time></trkpt><trkpt lat="45.6269762" lon="9.9011175"><ele>184.66666666666666</ele><time>2026-04-26T16:28:20.102Z</time></trkpt><trkpt lat="45.6268145" lon="9.9011009"><ele>182.0</ele><time>2026-04-26T16:28:21.102Z</time></trkpt><trkpt lat="45.6266571" lon="9.9010758"><ele>182.0</ele><time>2026-04-26T16:28:22.102Z</time></trkpt><trkpt lat="45.6264986" lon="9.9010445"><ele>182.0</ele><time>2026-04-26T16:28:23.102Z</time></trkpt><trkpt lat="45.6263324" lon="9.9010047"><ele>182.0</ele><time>2026-04-26T16:28:24.102Z</time></trkpt><trkpt lat="45.6261631" lon="9.9009665"><ele>180.66666666666666</ele><time>2026-04-26T16:28:25.102Z</time></trkpt><trkpt lat="45.625988" lon="9.9009248"><ele>179.33333333333334</ele><time>2026-04-26T16:28:26.101Z</time></trkpt><trkpt lat="45.6258105" lon="9.9008901"><ele>178.0</ele><time>2026-04-26T16:28:27.102Z</time></trkpt><trkpt lat="45.6256277" lon="9.9008538"><ele>183.33333333333334</ele><time>2026-04-26T16:28:28.101Z</time></trkpt><trkpt lat="45.6254389" lon="9.900806"><ele>188.66666666666669</ele><time>2026-04-26T16:28:29.102Z</time></trkpt><trkpt lat="45.6252468" lon="9.9007508"><ele>194.0</ele><time>2026-04-26T16:28:30.102Z</time></trkpt><trkpt lat="45.6250536" lon="9.900692"><ele>194.0</ele><time>2026-04-26T16:28:31.102Z</time></trkpt><trkpt lat="45.6248568" lon="9.9006306"><ele>194.0</ele><time>2026-04-26T16:28:32.102Z</time></trkpt><trkpt lat="45.6246611" lon="9.9005687"><ele>194.0</ele><time>2026-04-26T16:28:33.102Z</time></trkpt><trkpt lat="45.6244657" lon="9.9005073"><ele>192.33333333333334</ele><time>2026-04-26T16:28:34.102Z</time></trkpt><trkpt lat="45.624271" lon="9.9004448"><ele>190.66666666666669</ele><time>2026-04-26T16:28:35.102Z</time></trkpt><trkpt lat="45.6240776" lon="9.9003803"><ele>189.0</ele><time>2026-04-26T16:28:36.102Z</time></trkpt><trkpt lat="45.6238853" lon="9.9003087"><ele>189.0</ele><time>2026-04-26T16:28:37.101Z</time></trkpt><trkpt lat="45.6236962" lon="9.9002398"><ele>189.0</ele><time>2026-04-26T16:28:38.102Z</time></trkpt><trkpt lat="45.6235047" lon="9.9001717"><ele>189.0</ele><time>2026-04-26T16:28:39.102Z</time></trkpt><trkpt lat="45.6233211" lon="9.9000941"><ele>189.66666666666666</ele><time>2026-04-26T16:28:40.102Z</time></trkpt><trkpt lat="45.6231352" lon="9.9000113"><ele>190.33333333333331</ele><time>2026-04-26T16:28:41.102Z</time></trkpt><trkpt lat="45.6229483" lon="9.8999383"><ele>191.0</ele><time>2026-04-26T16:28:42.101Z</time></trkpt><trkpt lat="45.6227543" lon="9.8998793"><ele>191.0</ele><time>2026-04-26T16:28:43.102Z</time></trkpt><trkpt lat="45.6225595" lon="9.8998291"><ele>191.0</ele><time>2026-04-26T16:28:44.102Z</time></trkpt><trkpt lat="45.6223737" lon="9.8997834"><ele>191.0</ele><time>2026-04-26T16:28:45.102Z</time></trkpt><trkpt lat="45.6222107" lon="9.8997375"><ele>191.0</ele><time>2026-04-26T16:28:46.102Z</time></trkpt><trkpt lat="45.6220672" lon="9.899692"><ele>191.0</ele><time>2026-04-26T16:28:47.102Z</time></trkpt><trkpt lat="45.6219389" lon="9.8996483"><ele>191.0</ele><time>2026-04-26T16:28:48.102Z</time></trkpt><trkpt lat="45.621823" lon="9.8995978"><ele>191.0</ele><time>2026-04-26T16:28:49.102Z</time></trkpt><trkpt lat="45.6217207" lon="9.8995129"><ele>190.0</ele><time>2026-04-26T16:28:50.101Z</time></trkpt><trkpt lat="45.6216359" lon="9.8994032"><ele>189.0</ele><time>2026-04-26T16:28:51.102Z</time></trkpt><trkpt lat="45.6215673" lon="9.8992606"><ele>188.0</ele><time>2026-04-26T16:28:52.102Z</time></trkpt><trkpt lat="45.6215148" lon="9.8990801"><ele>187.0</ele><time>2026-04-26T16:28:53.102Z</time></trkpt><trkpt lat="45.6214733" lon="9.8988725"><ele>190.33333333333334</ele><time>2026-04-26T16:28:54.102Z</time></trkpt><trkpt lat="45.6214347" lon="9.8986424"><ele>193.66666666666669</ele><time>2026-04-26T16:28:55.102Z</time></trkpt><trkpt lat="45.6213997" lon="9.898416"><ele>197.0</ele><time>2026-04-26T16:28:56.102Z</time></trkpt><trkpt lat="45.6213672" lon="9.8981904"><ele>197.33333333333334</ele><time>2026-04-26T16:28:57.102Z</time></trkpt><trkpt lat="45.6213387" lon="9.8979563"><ele>197.66666666666669</ele><time>2026-04-26T16:28:58.102Z</time></trkpt><trkpt lat="45.6213249" lon="9.897717"><ele>198.0</ele><time>2026-04-26T16:28:59.102Z</time></trkpt><trkpt lat="45.6213205" lon="9.8974695"><ele>198.66666666666669</ele><time>2026-04-26T16:29:00.102Z</time></trkpt><trkpt lat="45.621317" lon="9.8972155"><ele>199.33333333333334</ele><time>2026-04-26T16:29:01.102Z</time></trkpt><trkpt lat="45.6213029" lon="9.8969547"><ele>200.0</ele><time>2026-04-26T16:29:02.102Z</time></trkpt><trkpt lat="45.6212778" lon="9.8966849"><ele>200.0</ele><time>2026-04-26T16:29:03.102Z</time></trkpt><trkpt lat="45.6212467" lon="9.8964133"><ele>200.0</ele><time>2026-04-26T16:29:04.102Z</time></trkpt><trkpt lat="45.6212066" lon="9.8961416"><ele>200.0</ele><time>2026-04-26T16:29:05.101Z</time></trkpt><trkpt lat="45.6211661" lon="9.8958714"><ele>199.0</ele><time>2026-04-26T16:29:06.102Z</time></trkpt><trkpt lat="45.6211277" lon="9.8955972"><ele>198.0</ele><time>2026-04-26T16:29:07.102Z</time></trkpt><trkpt lat="45.6210849" lon="9.8953257"><ele>197.0</ele><time>2026-04-26T16:29:08.101Z</time></trkpt><trkpt lat="45.6210421" lon="9.8950556"><ele>197.0</ele><time>2026-04-26T16:29:09.102Z</time></trkpt><trkpt lat="45.6210056" lon="9.8947845"><ele>197.0</ele><time>2026-04-26T16:29:10.102Z</time></trkpt><trkpt lat="45.6209657" lon="9.8945138"><ele>197.0</ele><time>2026-04-26T16:29:11.102Z</time></trkpt><trkpt lat="45.6209203" lon="9.8942432"><ele>196.66666666666669</ele><time>2026-04-26T16:29:12.102Z</time></trkpt><trkpt lat="45.6208845" lon="9.8939646"><ele>196.33333333333331</ele><time>2026-04-26T16:29:13.102Z</time></trkpt><trkpt lat="45.6208501" lon="9.893686"><ele>196.0</ele><time>2026-04-26T16:29:14.102Z</time></trkpt><trkpt lat="45.6208169" lon="9.8934045"><ele>196.0</ele><time>2026-04-26T16:29:15.102Z</time></trkpt><trkpt lat="45.6207845" lon="9.8931242"><ele>196.0</ele><time>2026-04-26T16:29:16.101Z</time></trkpt><trkpt lat="45.6207489" lon="9.8928493"><ele>196.0</ele><time>2026-04-26T16:29:17.102Z</time></trkpt><trkpt lat="45.6207186" lon="9.8925846"><ele>196.33333333333331</ele><time>2026-04-26T16:29:18.102Z</time></trkpt><trkpt lat="45.620685" lon="9.8923256"><ele>196.66666666666669</ele><time>2026-04-26T16:29:19.101Z</time></trkpt><trkpt lat="45.620657" lon="9.8920797"><ele>197.0</ele><time>2026-04-26T16:29:20.102Z</time></trkpt><trkpt lat="45.6206324" lon="9.891871"><ele>197.0</ele><time>2026-04-26T16:29:21.102Z</time></trkpt><trkpt lat="45.6206098" lon="9.8916849"><ele>197.0</ele><time>2026-04-26T16:29:22.102Z</time></trkpt><trkpt lat="45.6205898" lon="9.891521"><ele>197.0</ele><time>2026-04-26T16:29:23.102Z</time></trkpt><trkpt lat="45.6205699" lon="9.891354"><ele>197.0</ele><time>2026-04-26T16:29:24.102Z</time></trkpt><trkpt lat="45.6205529" lon="9.8911766"><ele>197.0</ele><time>2026-04-26T16:29:25.102Z</time></trkpt><trkpt lat="45.6205336" lon="9.8910052"><ele>197.0</ele><time>2026-04-26T16:29:26.101Z</time></trkpt><trkpt lat="45.6205063" lon="9.8908433"><ele>197.0</ele><time>2026-04-26T16:29:27.102Z</time></trkpt><trkpt lat="45.6204601" lon="9.8906812"><ele>197.0</ele><time>2026-04-26T16:29:28.102Z</time></trkpt><trkpt lat="45.6203985" lon="9.8905438"><ele>197.25</ele><time>2026-04-26T16:29:29.101Z</time></trkpt><trkpt lat="45.620323" lon="9.8904128"><ele>197.5</ele><time>2026-04-26T16:29:30.101Z</time></trkpt><trkpt lat="45.6202381" lon="9.8902789"><ele>197.75</ele><time>2026-04-26T16:29:31.102Z</time></trkpt><trkpt lat="45.620142" lon="9.8901413"><ele>198.0</ele><time>2026-04-26T16:29:32.102Z</time></trkpt><trkpt lat="45.6200622" lon="9.8900074"><ele>197.25</ele><time>2026-04-26T16:29:33.102Z</time></trkpt><trkpt lat="45.6199832" lon="9.8898841"><ele>196.5</ele><time>2026-04-26T16:29:34.102Z</time></trkpt><trkpt lat="45.6199123" lon="9.8897467"><ele>195.75</ele><time>2026-04-26T16:29:35.102Z</time></trkpt><trkpt lat="45.6198504" lon="9.8895918"><ele>195.0</ele><time>2026-04-26T16:29:36.102Z</time></trkpt><trkpt lat="45.619796" lon="9.8894228"><ele>195.25</ele><time>2026-04-26T16:29:37.102Z</time></trkpt><trkpt lat="45.6197455" lon="9.889247"><ele>195.5</ele><time>2026-04-26T16:29:38.102Z</time></trkpt><trkpt lat="45.6196915" lon="9.889079"><ele>195.75</ele><time>2026-04-26T16:29:39.102Z</time></trkpt><trkpt lat="45.6196414" lon="9.8889047"><ele>196.0</ele><time>2026-04-26T16:29:40.102Z</time></trkpt><trkpt lat="45.6195966" lon="9.8887288"><ele>196.0</ele><time>2026-04-26T16:29:41.101Z</time></trkpt><trkpt lat="45.6195549" lon="9.8885616"><ele>196.0</ele><time>2026-04-26T16:29:42.102Z</time></trkpt><trkpt lat="45.6195126" lon="9.8883961"><ele>196.0</ele><time>2026-04-26T16:29:43.102Z</time></trkpt><trkpt lat="45.6194743" lon="9.8882159"><ele>196.0</ele><time>2026-04-26T16:29:44.101Z</time></trkpt><trkpt lat="45.619436" lon="9.8880476"><ele>195.5</ele><time>2026-04-26T16:29:45.102Z</time></trkpt><trkpt lat="45.6194046" lon="9.8878791"><ele>195.0</ele><time>2026-04-26T16:29:46.102Z</time></trkpt><trkpt lat="45.6193724" lon="9.8877024"><ele>194.5</ele><time>2026-04-26T16:29:47.102Z</time></trkpt><trkpt lat="45.6193482" lon="9.887535"><ele>194.0</ele><time>2026-04-26T16:29:48.102Z</time></trkpt><trkpt lat="45.6193241" lon="9.8873763"><ele>194.0</ele><time>2026-04-26T16:29:49.101Z</time></trkpt><trkpt lat="45.6193071" lon="9.887207"><ele>194.0</ele><time>2026-04-26T16:29:50.101Z</time></trkpt><trkpt lat="45.6192881" lon="9.8870412"><ele>194.0</ele><time>2026-04-26T16:29:51.102Z</time></trkpt><trkpt lat="45.6192718" lon="9.8868816"><ele>194.0</ele><time>2026-04-26T16:29:52.102Z</time></trkpt><trkpt lat="45.6192653" lon="9.8867225"><ele>194.2</ele><time>2026-04-26T16:29:53.102Z</time></trkpt><trkpt lat="45.6192549" lon="9.8865668"><ele>194.39999999999998</ele><time>2026-04-26T16:29:54.102Z</time></trkpt><trkpt lat="45.619248" lon="9.8864241"><ele>194.6</ele><time>2026-04-26T16:29:55.101Z</time></trkpt><trkpt lat="45.6192418" lon="9.8862694"><ele>194.8</ele><time>2026-04-26T16:29:56.102Z</time></trkpt><trkpt lat="45.6192403" lon="9.8861166"><ele>195.0</ele><time>2026-04-26T16:29:57.102Z</time></trkpt><trkpt lat="45.6192392" lon="9.8859771"><ele>194.8</ele><time>2026-04-26T16:29:58.102Z</time></trkpt><trkpt lat="45.61924" lon="9.8858361"><ele>194.6</ele><time>2026-04-26T16:29:59.102Z</time></trkpt><trkpt lat="45.619241" lon="9.8856894"><ele>194.39999999999998</ele><time>2026-04-26T16:30:00.102Z</time></trkpt><trkpt lat="45.6192427" lon="9.88556"><ele>194.2</ele><time>2026-04-26T16:30:01.102Z</time></trkpt><trkpt lat="45.619245" lon="9.8854567"><ele>194.0</ele><time>2026-04-26T16:30:02.102Z</time></trkpt><trkpt lat="45.6192544" lon="9.8853218"><ele>194.0</ele><time>2026-04-26T16:30:04.102Z</time></trkpt><trkpt lat="45.6192749" lon="9.8852359"><ele>194.0</ele><time>2026-04-26T16:30:06.102Z</time></trkpt><trkpt lat="45.6192795" lon="9.8850244"><ele>194.0</ele><time>2026-04-26T16:30:08.101Z</time></trkpt><trkpt lat="45.6192817" lon="9.8848757"><ele>194.0</ele><time>2026-04-26T16:30:09.102Z</time></trkpt><trkpt lat="45.6192779" lon="9.8847044"><ele>194.0</ele><time>2026-04-26T16:30:10.102Z</time></trkpt><trkpt lat="45.6192642" lon="9.8845132"><ele>193.66666666666669</ele><time>2026-04-26T16:30:11.101Z</time></trkpt><trkpt lat="45.6192381" lon="9.8842949"><ele>193.33333333333331</ele><time>2026-04-26T16:30:12.102Z</time></trkpt><trkpt lat="45.6192145" lon="9.8840497"><ele>193.0</ele><time>2026-04-26T16:30:13.102Z</time></trkpt><trkpt lat="45.6191792" lon="9.8837797"><ele>193.0</ele><time>2026-04-26T16:30:14.101Z</time></trkpt><trkpt lat="45.6191391" lon="9.8835293"><ele>193.0</ele><time>2026-04-26T16:30:15.101Z</time></trkpt><trkpt lat="45.6191042" lon="9.8833124"><ele>193.0</ele><time>2026-04-26T16:30:16.102Z</time></trkpt><trkpt lat="45.6190784" lon="9.8831338"><ele>193.0</ele><time>2026-04-26T16:30:17.102Z</time></trkpt><trkpt lat="45.6190474" lon="9.8829695"><ele>193.0</ele><time>2026-04-26T16:30:18.102Z</time></trkpt><trkpt lat="45.6190145" lon="9.8828258"><ele>193.0</ele><time>2026-04-26T16:30:19.102Z</time></trkpt><trkpt lat="45.6189806" lon="9.8826791"><ele>193.0</ele><time>2026-04-26T16:30:20.102Z</time></trkpt><trkpt lat="45.6189455" lon="9.8825284"><ele>193.0</ele><time>2026-04-26T16:30:21.102Z</time></trkpt><trkpt lat="45.6189053" lon="9.8823672"><ele>192.75</ele><time>2026-04-26T16:30:22.102Z</time></trkpt><trkpt lat="45.6188601" lon="9.8821985"><ele>192.5</ele><time>2026-04-26T16:30:23.102Z</time></trkpt><trkpt lat="45.6188103" lon="9.8820217"><ele>192.25</ele><time>2026-04-26T16:30:24.102Z</time></trkpt><trkpt lat="45.6187586" lon="9.8818438"><ele>192.0</ele><time>2026-04-26T16:30:25.102Z</time></trkpt><trkpt lat="45.6187078" lon="9.8816641"><ele>192.0</ele><time>2026-04-26T16:30:26.101Z</time></trkpt><trkpt lat="45.6186553" lon="9.8814779"><ele>192.0</ele><time>2026-04-26T16:30:27.101Z</time></trkpt><trkpt lat="45.6186111" lon="9.8812921"><ele>192.0</ele><time>2026-04-26T16:30:28.101Z</time></trkpt><trkpt lat="45.6185758" lon="9.8810921"><ele>192.0</ele><time>2026-04-26T16:30:29.102Z</time></trkpt><trkpt lat="45.6185342" lon="9.880907"><ele>191.6</ele><time>2026-04-26T16:30:30.102Z</time></trkpt><trkpt lat="45.6184966" lon="9.880744"><ele>191.2</ele><time>2026-04-26T16:30:31.102Z</time></trkpt><trkpt lat="45.6184704" lon="9.8806195"><ele>190.8</ele><time>2026-04-26T16:30:32.102Z</time></trkpt><trkpt lat="45.6184493" lon="9.8805184"><ele>190.4</ele><time>2026-04-26T16:30:33.101Z</time></trkpt><trkpt lat="45.6184181" lon="9.8803797"><ele>190.0</ele><time>2026-04-26T16:30:35.102Z</time></trkpt><trkpt lat="45.6183443" lon="9.8803061"><ele>190.0</ele><time>2026-04-26T16:30:37.102Z</time></trkpt><trkpt lat="45.6182631" lon="9.8802929"><ele>190.0</ele><time>2026-04-26T16:30:38.102Z</time></trkpt><trkpt lat="45.6181591" lon="9.8803028"><ele>190.0</ele><time>2026-04-26T16:30:39.102Z</time></trkpt><trkpt lat="45.6180291" lon="9.8803145"><ele>190.0</ele><time>2026-04-26T16:30:40.102Z</time></trkpt><trkpt lat="45.6179177" lon="9.8803184"><ele>190.0</ele><time>2026-04-26T16:30:41.102Z</time></trkpt><trkpt lat="45.6178186" lon="9.8803227"><ele>190.0</ele><time>2026-04-26T16:30:42.102Z</time></trkpt><trkpt lat="45.6177348" lon="9.8803274"><ele>189.0</ele><time>2026-04-26T16:30:43.102Z</time></trkpt><trkpt lat="45.6176712" lon="9.8803262"><ele>189.0</ele><time>2026-04-26T16:30:44.102Z</time></trkpt><trkpt lat="45.6175977" lon="9.8803019"><ele>189.0</ele><time>2026-04-26T16:30:46.102Z</time></trkpt><trkpt lat="45.6175832" lon="9.8802003"><ele>189.0</ele><time>2026-04-26T16:30:52.101Z</time></trkpt><trkpt lat="45.6175822" lon="9.8801086"><ele>189.0</ele><time>2026-04-26T16:30:54.102Z</time></trkpt></trkseg></trk></gpx>